<?xml version="1.0" encoding="UTF-8" standalone="no" ?>
<gpx xmlns="http://www.topografix.com/GPX/1/1" xmlns:xsi="http://www.w3.org/2001/XMLSchema-instance" xsi:schemaLocation="http://www.topografix.com/GPX/1/1 http://www.topografix.com/GPX/1/1/gpx.xsd" version="1.1" creator="VisuGPX - https://www.visugpx.com">
  <metadata>
    <name>NE-O-Indre Sautron Treillières Sucé St Mars Le Cellier Nantes</name>
    <desc><![CDATA[NE-O-Indre Sautron Treillières Sucé St Mars Le Cellier Nantes]]></desc>
  </metadata>
  <trk>
    <name><![CDATA[2022-05-14 10:00 GMT+2]]></name>
    <trkseg>
      <trkpt lat="47.16777" lon="-1.62655">
        <ele>82</ele>
        <time>2022-05-14T08:00:41.999Z</time>
      </trkpt>
      <trkpt lat="47.16788" lon="-1.62659">
        <ele>69</ele>
        <time>2022-05-14T08:00:45Z</time>
      </trkpt>
      <trkpt lat="47.1678" lon="-1.62651">
        <ele>67</ele>
        <time>2022-05-14T08:01:23Z</time>
      </trkpt>
      <trkpt lat="47.16775" lon="-1.62668">
        <ele>74</ele>
        <time>2022-05-14T08:03:19Z</time>
      </trkpt>
      <trkpt lat="47.16764" lon="-1.62676">
        <ele>73</ele>
        <time>2022-05-14T08:03:22Z</time>
      </trkpt>
      <trkpt lat="47.16751" lon="-1.62671">
        <ele>72</ele>
        <time>2022-05-14T08:03:25Z</time>
      </trkpt>
      <trkpt lat="47.16739" lon="-1.62677">
        <ele>72</ele>
        <time>2022-05-14T08:03:27Z</time>
      </trkpt>
      <trkpt lat="47.16727" lon="-1.62685">
        <ele>72</ele>
        <time>2022-05-14T08:03:29Z</time>
      </trkpt>
      <trkpt lat="47.16719" lon="-1.62695">
        <ele>72</ele>
        <time>2022-05-14T08:03:31Z</time>
      </trkpt>
      <trkpt lat="47.1672" lon="-1.6271">
        <ele>71</ele>
        <time>2022-05-14T08:03:33Z</time>
      </trkpt>
      <trkpt lat="47.16727" lon="-1.62724">
        <ele>71</ele>
        <time>2022-05-14T08:03:35Z</time>
      </trkpt>
      <trkpt lat="47.16735" lon="-1.62737">
        <ele>70</ele>
        <time>2022-05-14T08:03:37Z</time>
      </trkpt>
      <trkpt lat="47.16744" lon="-1.6275">
        <ele>70</ele>
        <time>2022-05-14T08:03:39Z</time>
      </trkpt>
      <trkpt lat="47.16754" lon="-1.62762">
        <ele>70</ele>
        <time>2022-05-14T08:03:41Z</time>
      </trkpt>
      <trkpt lat="47.16765" lon="-1.62773">
        <ele>70</ele>
        <time>2022-05-14T08:03:43Z</time>
      </trkpt>
      <trkpt lat="47.16776" lon="-1.62783">
        <ele>70</ele>
        <time>2022-05-14T08:03:45Z</time>
      </trkpt>
      <trkpt lat="47.16788" lon="-1.62793">
        <ele>70</ele>
        <time>2022-05-14T08:03:47Z</time>
      </trkpt>
      <trkpt lat="47.16799" lon="-1.62803">
        <ele>70</ele>
        <time>2022-05-14T08:03:49Z</time>
      </trkpt>
      <trkpt lat="47.16809" lon="-1.62812">
        <ele>71</ele>
        <time>2022-05-14T08:03:51Z</time>
      </trkpt>
      <trkpt lat="47.1682" lon="-1.62822">
        <ele>71</ele>
        <time>2022-05-14T08:03:53Z</time>
      </trkpt>
      <trkpt lat="47.1683" lon="-1.62833">
        <ele>72</ele>
        <time>2022-05-14T08:03:55Z</time>
      </trkpt>
      <trkpt lat="47.16841" lon="-1.62844">
        <ele>72</ele>
        <time>2022-05-14T08:03:57Z</time>
      </trkpt>
      <trkpt lat="47.16851" lon="-1.62854">
        <ele>72</ele>
        <time>2022-05-14T08:03:59Z</time>
      </trkpt>
      <trkpt lat="47.16861" lon="-1.62865">
        <ele>73</ele>
        <time>2022-05-14T08:04:01Z</time>
      </trkpt>
      <trkpt lat="47.16871" lon="-1.62876">
        <ele>73</ele>
        <time>2022-05-14T08:04:03Z</time>
      </trkpt>
      <trkpt lat="47.1688" lon="-1.62889">
        <ele>73</ele>
        <time>2022-05-14T08:04:05Z</time>
      </trkpt>
      <trkpt lat="47.16885" lon="-1.62904">
        <ele>73</ele>
        <time>2022-05-14T08:04:07Z</time>
      </trkpt>
      <trkpt lat="47.16889" lon="-1.62922">
        <ele>74</ele>
        <time>2022-05-14T08:04:09Z</time>
      </trkpt>
      <trkpt lat="47.16891" lon="-1.6294">
        <ele>75</ele>
        <time>2022-05-14T08:04:11Z</time>
      </trkpt>
      <trkpt lat="47.16891" lon="-1.62959">
        <ele>74</ele>
        <time>2022-05-14T08:04:13Z</time>
      </trkpt>
      <trkpt lat="47.16891" lon="-1.62977">
        <ele>75</ele>
        <time>2022-05-14T08:04:15Z</time>
      </trkpt>
      <trkpt lat="47.16889" lon="-1.62996">
        <ele>75</ele>
        <time>2022-05-14T08:04:17Z</time>
      </trkpt>
      <trkpt lat="47.16887" lon="-1.63014">
        <ele>76</ele>
        <time>2022-05-14T08:04:19Z</time>
      </trkpt>
      <trkpt lat="47.16886" lon="-1.63032">
        <ele>76</ele>
        <time>2022-05-14T08:04:21Z</time>
      </trkpt>
      <trkpt lat="47.16886" lon="-1.63051">
        <ele>76</ele>
        <time>2022-05-14T08:04:23Z</time>
      </trkpt>
      <trkpt lat="47.16888" lon="-1.6307">
        <ele>77</ele>
        <time>2022-05-14T08:04:25Z</time>
      </trkpt>
      <trkpt lat="47.16891" lon="-1.63088">
        <ele>77</ele>
        <time>2022-05-14T08:04:27Z</time>
      </trkpt>
      <trkpt lat="47.16894" lon="-1.63105">
        <ele>77</ele>
        <time>2022-05-14T08:04:29Z</time>
      </trkpt>
      <trkpt lat="47.16898" lon="-1.63123">
        <ele>77</ele>
        <time>2022-05-14T08:04:31Z</time>
      </trkpt>
      <trkpt lat="47.16903" lon="-1.6314">
        <ele>78</ele>
        <time>2022-05-14T08:04:33Z</time>
      </trkpt>
      <trkpt lat="47.16909" lon="-1.63155">
        <ele>78</ele>
        <time>2022-05-14T08:04:35Z</time>
      </trkpt>
      <trkpt lat="47.16916" lon="-1.63171">
        <ele>78</ele>
        <time>2022-05-14T08:04:37Z</time>
      </trkpt>
      <trkpt lat="47.16923" lon="-1.63186">
        <ele>79</ele>
        <time>2022-05-14T08:04:39Z</time>
      </trkpt>
      <trkpt lat="47.16931" lon="-1.63199">
        <ele>79</ele>
        <time>2022-05-14T08:04:41Z</time>
      </trkpt>
      <trkpt lat="47.1694" lon="-1.63212">
        <ele>78</ele>
        <time>2022-05-14T08:04:43Z</time>
      </trkpt>
      <trkpt lat="47.16948" lon="-1.63223">
        <ele>79</ele>
        <time>2022-05-14T08:04:45Z</time>
      </trkpt>
      <trkpt lat="47.16956" lon="-1.63235">
        <ele>79</ele>
        <time>2022-05-14T08:04:47Z</time>
      </trkpt>
      <trkpt lat="47.16963" lon="-1.63243">
        <ele>79</ele>
        <time>2022-05-14T08:04:49Z</time>
      </trkpt>
      <trkpt lat="47.16965" lon="-1.63259">
        <ele>80</ele>
        <time>2022-05-14T08:04:53Z</time>
      </trkpt>
      <trkpt lat="47.16955" lon="-1.63272">
        <ele>81</ele>
        <time>2022-05-14T08:04:55Z</time>
      </trkpt>
      <trkpt lat="47.16947" lon="-1.63286">
        <ele>81</ele>
        <time>2022-05-14T08:04:57Z</time>
      </trkpt>
      <trkpt lat="47.16938" lon="-1.63302">
        <ele>81</ele>
        <time>2022-05-14T08:04:59Z</time>
      </trkpt>
      <trkpt lat="47.16929" lon="-1.63316">
        <ele>81</ele>
        <time>2022-05-14T08:05:01Z</time>
      </trkpt>
      <trkpt lat="47.1692" lon="-1.63331">
        <ele>80</ele>
        <time>2022-05-14T08:05:03Z</time>
      </trkpt>
      <trkpt lat="47.16911" lon="-1.63345">
        <ele>80</ele>
        <time>2022-05-14T08:05:05Z</time>
      </trkpt>
      <trkpt lat="47.16902" lon="-1.63359">
        <ele>79</ele>
        <time>2022-05-14T08:05:07Z</time>
      </trkpt>
      <trkpt lat="47.16893" lon="-1.63373">
        <ele>79</ele>
        <time>2022-05-14T08:05:09Z</time>
      </trkpt>
      <trkpt lat="47.16884" lon="-1.63386">
        <ele>79</ele>
        <time>2022-05-14T08:05:11Z</time>
      </trkpt>
      <trkpt lat="47.16876" lon="-1.63402">
        <ele>80</ele>
        <time>2022-05-14T08:05:13Z</time>
      </trkpt>
      <trkpt lat="47.16867" lon="-1.63417">
        <ele>79</ele>
        <time>2022-05-14T08:05:15Z</time>
      </trkpt>
      <trkpt lat="47.16859" lon="-1.63431">
        <ele>79</ele>
        <time>2022-05-14T08:05:17Z</time>
      </trkpt>
      <trkpt lat="47.1685" lon="-1.63446">
        <ele>79</ele>
        <time>2022-05-14T08:05:19Z</time>
      </trkpt>
      <trkpt lat="47.16842" lon="-1.63461">
        <ele>79</ele>
        <time>2022-05-14T08:05:21Z</time>
      </trkpt>
      <trkpt lat="47.16833" lon="-1.63475">
        <ele>79</ele>
        <time>2022-05-14T08:05:23Z</time>
      </trkpt>
      <trkpt lat="47.16825" lon="-1.6349">
        <ele>79</ele>
        <time>2022-05-14T08:05:25Z</time>
      </trkpt>
      <trkpt lat="47.16816" lon="-1.63504">
        <ele>79</ele>
        <time>2022-05-14T08:05:27Z</time>
      </trkpt>
      <trkpt lat="47.16808" lon="-1.63518">
        <ele>79</ele>
        <time>2022-05-14T08:05:29Z</time>
      </trkpt>
      <trkpt lat="47.16799" lon="-1.63532">
        <ele>79</ele>
        <time>2022-05-14T08:05:31Z</time>
      </trkpt>
      <trkpt lat="47.16791" lon="-1.63547">
        <ele>79</ele>
        <time>2022-05-14T08:05:33Z</time>
      </trkpt>
      <trkpt lat="47.16782" lon="-1.63562">
        <ele>79</ele>
        <time>2022-05-14T08:05:35Z</time>
      </trkpt>
      <trkpt lat="47.16774" lon="-1.63577">
        <ele>79</ele>
        <time>2022-05-14T08:05:37Z</time>
      </trkpt>
      <trkpt lat="47.16765" lon="-1.63591">
        <ele>79</ele>
        <time>2022-05-14T08:05:39Z</time>
      </trkpt>
      <trkpt lat="47.16757" lon="-1.63606">
        <ele>79</ele>
        <time>2022-05-14T08:05:41Z</time>
      </trkpt>
      <trkpt lat="47.16748" lon="-1.63619">
        <ele>79</ele>
        <time>2022-05-14T08:05:43Z</time>
      </trkpt>
      <trkpt lat="47.16743" lon="-1.63635">
        <ele>78</ele>
        <time>2022-05-14T08:05:45Z</time>
      </trkpt>
      <trkpt lat="47.16752" lon="-1.63647">
        <ele>78</ele>
        <time>2022-05-14T08:05:47Z</time>
      </trkpt>
      <trkpt lat="47.16764" lon="-1.63649">
        <ele>78</ele>
        <time>2022-05-14T08:05:49Z</time>
      </trkpt>
      <trkpt lat="47.16777" lon="-1.63653">
        <ele>79</ele>
        <time>2022-05-14T08:05:51Z</time>
      </trkpt>
      <trkpt lat="47.16789" lon="-1.63658">
        <ele>79</ele>
        <time>2022-05-14T08:05:53Z</time>
      </trkpt>
      <trkpt lat="47.16802" lon="-1.63662">
        <ele>80</ele>
        <time>2022-05-14T08:05:55Z</time>
      </trkpt>
      <trkpt lat="47.16815" lon="-1.63666">
        <ele>80</ele>
        <time>2022-05-14T08:05:57Z</time>
      </trkpt>
      <trkpt lat="47.16827" lon="-1.63671">
        <ele>80</ele>
        <time>2022-05-14T08:05:59Z</time>
      </trkpt>
      <trkpt lat="47.1684" lon="-1.63676">
        <ele>81</ele>
        <time>2022-05-14T08:06:01Z</time>
      </trkpt>
      <trkpt lat="47.16853" lon="-1.6368">
        <ele>81</ele>
        <time>2022-05-14T08:06:03Z</time>
      </trkpt>
      <trkpt lat="47.16866" lon="-1.63685">
        <ele>81</ele>
        <time>2022-05-14T08:06:05Z</time>
      </trkpt>
      <trkpt lat="47.16879" lon="-1.63689">
        <ele>81</ele>
        <time>2022-05-14T08:06:07Z</time>
      </trkpt>
      <trkpt lat="47.16892" lon="-1.63693">
        <ele>81</ele>
        <time>2022-05-14T08:06:09Z</time>
      </trkpt>
      <trkpt lat="47.16905" lon="-1.63698">
        <ele>82</ele>
        <time>2022-05-14T08:06:11Z</time>
      </trkpt>
      <trkpt lat="47.16919" lon="-1.63703">
        <ele>82</ele>
        <time>2022-05-14T08:06:13Z</time>
      </trkpt>
      <trkpt lat="47.16933" lon="-1.63709">
        <ele>82</ele>
        <time>2022-05-14T08:06:15Z</time>
      </trkpt>
      <trkpt lat="47.16946" lon="-1.63714">
        <ele>82</ele>
        <time>2022-05-14T08:06:17Z</time>
      </trkpt>
      <trkpt lat="47.16959" lon="-1.63718">
        <ele>83</ele>
        <time>2022-05-14T08:06:19Z</time>
      </trkpt>
      <trkpt lat="47.16972" lon="-1.63723">
        <ele>83</ele>
        <time>2022-05-14T08:06:21Z</time>
      </trkpt>
      <trkpt lat="47.16986" lon="-1.63729">
        <ele>83</ele>
        <time>2022-05-14T08:06:23Z</time>
      </trkpt>
      <trkpt lat="47.16999" lon="-1.63734">
        <ele>83</ele>
        <time>2022-05-14T08:06:25Z</time>
      </trkpt>
      <trkpt lat="47.17013" lon="-1.63739">
        <ele>83</ele>
        <time>2022-05-14T08:06:27Z</time>
      </trkpt>
      <trkpt lat="47.17026" lon="-1.63744">
        <ele>83</ele>
        <time>2022-05-14T08:06:29Z</time>
      </trkpt>
      <trkpt lat="47.17039" lon="-1.6375">
        <ele>82</ele>
        <time>2022-05-14T08:06:31Z</time>
      </trkpt>
      <trkpt lat="47.17052" lon="-1.63756">
        <ele>82</ele>
        <time>2022-05-14T08:06:33Z</time>
      </trkpt>
      <trkpt lat="47.17062" lon="-1.63769">
        <ele>82</ele>
        <time>2022-05-14T08:06:35Z</time>
      </trkpt>
      <trkpt lat="47.1707" lon="-1.63788">
        <ele>81</ele>
        <time>2022-05-14T08:06:37Z</time>
      </trkpt>
      <trkpt lat="47.17075" lon="-1.63807">
        <ele>81</ele>
        <time>2022-05-14T08:06:39Z</time>
      </trkpt>
      <trkpt lat="47.1708" lon="-1.63826">
        <ele>80</ele>
        <time>2022-05-14T08:06:41Z</time>
      </trkpt>
      <trkpt lat="47.17086" lon="-1.63844">
        <ele>80</ele>
        <time>2022-05-14T08:06:43Z</time>
      </trkpt>
      <trkpt lat="47.17092" lon="-1.63862">
        <ele>79</ele>
        <time>2022-05-14T08:06:45Z</time>
      </trkpt>
      <trkpt lat="47.17098" lon="-1.63879">
        <ele>79</ele>
        <time>2022-05-14T08:06:47Z</time>
      </trkpt>
      <trkpt lat="47.17104" lon="-1.63897">
        <ele>78</ele>
        <time>2022-05-14T08:06:49Z</time>
      </trkpt>
      <trkpt lat="47.1711" lon="-1.63913">
        <ele>78</ele>
        <time>2022-05-14T08:06:51Z</time>
      </trkpt>
      <trkpt lat="47.17116" lon="-1.63928">
        <ele>78</ele>
        <time>2022-05-14T08:06:53Z</time>
      </trkpt>
      <trkpt lat="47.17123" lon="-1.63938">
        <ele>78</ele>
        <time>2022-05-14T08:06:55Z</time>
      </trkpt>
      <trkpt lat="47.17133" lon="-1.63943">
        <ele>78</ele>
        <time>2022-05-14T08:06:59Z</time>
      </trkpt>
      <trkpt lat="47.17138" lon="-1.63956">
        <ele>78</ele>
        <time>2022-05-14T08:07:02Z</time>
      </trkpt>
      <trkpt lat="47.17138" lon="-1.63973">
        <ele>79</ele>
        <time>2022-05-14T08:07:04Z</time>
      </trkpt>
      <trkpt lat="47.17138" lon="-1.6399">
        <ele>80</ele>
        <time>2022-05-14T08:07:06Z</time>
      </trkpt>
      <trkpt lat="47.17136" lon="-1.64009">
        <ele>80</ele>
        <time>2022-05-14T08:07:08Z</time>
      </trkpt>
      <trkpt lat="47.17134" lon="-1.64028">
        <ele>80</ele>
        <time>2022-05-14T08:07:10Z</time>
      </trkpt>
      <trkpt lat="47.17131" lon="-1.64046">
        <ele>81</ele>
        <time>2022-05-14T08:07:12Z</time>
      </trkpt>
      <trkpt lat="47.17129" lon="-1.64065">
        <ele>81</ele>
        <time>2022-05-14T08:07:14Z</time>
      </trkpt>
      <trkpt lat="47.17127" lon="-1.64084">
        <ele>80</ele>
        <time>2022-05-14T08:07:16Z</time>
      </trkpt>
      <trkpt lat="47.17124" lon="-1.64104">
        <ele>80</ele>
        <time>2022-05-14T08:07:18Z</time>
      </trkpt>
      <trkpt lat="47.17122" lon="-1.64124">
        <ele>80</ele>
        <time>2022-05-14T08:07:20Z</time>
      </trkpt>
      <trkpt lat="47.1712" lon="-1.64144">
        <ele>81</ele>
        <time>2022-05-14T08:07:22Z</time>
      </trkpt>
      <trkpt lat="47.17118" lon="-1.64164">
        <ele>81</ele>
        <time>2022-05-14T08:07:24Z</time>
      </trkpt>
      <trkpt lat="47.17115" lon="-1.64185">
        <ele>80</ele>
        <time>2022-05-14T08:07:26Z</time>
      </trkpt>
      <trkpt lat="47.17113" lon="-1.64204">
        <ele>80</ele>
        <time>2022-05-14T08:07:28Z</time>
      </trkpt>
      <trkpt lat="47.17111" lon="-1.64224">
        <ele>81</ele>
        <time>2022-05-14T08:07:30Z</time>
      </trkpt>
      <trkpt lat="47.17108" lon="-1.64243">
        <ele>81</ele>
        <time>2022-05-14T08:07:32Z</time>
      </trkpt>
      <trkpt lat="47.17106" lon="-1.64264">
        <ele>82</ele>
        <time>2022-05-14T08:07:34Z</time>
      </trkpt>
      <trkpt lat="47.17104" lon="-1.64284">
        <ele>82</ele>
        <time>2022-05-14T08:07:36Z</time>
      </trkpt>
      <trkpt lat="47.17102" lon="-1.64305">
        <ele>82</ele>
        <time>2022-05-14T08:07:38Z</time>
      </trkpt>
      <trkpt lat="47.171" lon="-1.64324">
        <ele>82</ele>
        <time>2022-05-14T08:07:40Z</time>
      </trkpt>
      <trkpt lat="47.17098" lon="-1.64344">
        <ele>82</ele>
        <time>2022-05-14T08:07:42Z</time>
      </trkpt>
      <trkpt lat="47.17096" lon="-1.64364">
        <ele>82</ele>
        <time>2022-05-14T08:07:44Z</time>
      </trkpt>
      <trkpt lat="47.17095" lon="-1.64384">
        <ele>82</ele>
        <time>2022-05-14T08:07:46Z</time>
      </trkpt>
      <trkpt lat="47.17093" lon="-1.64405">
        <ele>82</ele>
        <time>2022-05-14T08:07:48Z</time>
      </trkpt>
      <trkpt lat="47.17092" lon="-1.64426">
        <ele>81</ele>
        <time>2022-05-14T08:07:50Z</time>
      </trkpt>
      <trkpt lat="47.17091" lon="-1.64447">
        <ele>81</ele>
        <time>2022-05-14T08:07:52Z</time>
      </trkpt>
      <trkpt lat="47.1709" lon="-1.64467">
        <ele>82</ele>
        <time>2022-05-14T08:07:54Z</time>
      </trkpt>
      <trkpt lat="47.17089" lon="-1.64487">
        <ele>82</ele>
        <time>2022-05-14T08:07:56Z</time>
      </trkpt>
      <trkpt lat="47.17088" lon="-1.64508">
        <ele>81</ele>
        <time>2022-05-14T08:07:58Z</time>
      </trkpt>
      <trkpt lat="47.17087" lon="-1.64529">
        <ele>81</ele>
        <time>2022-05-14T08:08:00Z</time>
      </trkpt>
      <trkpt lat="47.17086" lon="-1.64549">
        <ele>80</ele>
        <time>2022-05-14T08:08:02Z</time>
      </trkpt>
      <trkpt lat="47.17086" lon="-1.64571">
        <ele>80</ele>
        <time>2022-05-14T08:08:04Z</time>
      </trkpt>
      <trkpt lat="47.17086" lon="-1.64592">
        <ele>80</ele>
        <time>2022-05-14T08:08:06Z</time>
      </trkpt>
      <trkpt lat="47.17086" lon="-1.64612">
        <ele>80</ele>
        <time>2022-05-14T08:08:08Z</time>
      </trkpt>
      <trkpt lat="47.17086" lon="-1.64632">
        <ele>80</ele>
        <time>2022-05-14T08:08:10Z</time>
      </trkpt>
      <trkpt lat="47.17086" lon="-1.64652">
        <ele>80</ele>
        <time>2022-05-14T08:08:12Z</time>
      </trkpt>
      <trkpt lat="47.17086" lon="-1.64672">
        <ele>80</ele>
        <time>2022-05-14T08:08:14Z</time>
      </trkpt>
      <trkpt lat="47.17087" lon="-1.64693">
        <ele>80</ele>
        <time>2022-05-14T08:08:16Z</time>
      </trkpt>
      <trkpt lat="47.17088" lon="-1.64713">
        <ele>80</ele>
        <time>2022-05-14T08:08:18Z</time>
      </trkpt>
      <trkpt lat="47.17089" lon="-1.64733">
        <ele>81</ele>
        <time>2022-05-14T08:08:20Z</time>
      </trkpt>
      <trkpt lat="47.1709" lon="-1.64751">
        <ele>81</ele>
        <time>2022-05-14T08:08:22Z</time>
      </trkpt>
      <trkpt lat="47.17091" lon="-1.6477">
        <ele>81</ele>
        <time>2022-05-14T08:08:24Z</time>
      </trkpt>
      <trkpt lat="47.17092" lon="-1.6479">
        <ele>82</ele>
        <time>2022-05-14T08:08:26Z</time>
      </trkpt>
      <trkpt lat="47.17094" lon="-1.64811">
        <ele>81</ele>
        <time>2022-05-14T08:08:28Z</time>
      </trkpt>
      <trkpt lat="47.17095" lon="-1.64832">
        <ele>81</ele>
        <time>2022-05-14T08:08:30Z</time>
      </trkpt>
      <trkpt lat="47.17097" lon="-1.64855">
        <ele>81</ele>
        <time>2022-05-14T08:08:32Z</time>
      </trkpt>
      <trkpt lat="47.17098" lon="-1.64877">
        <ele>81</ele>
        <time>2022-05-14T08:08:34Z</time>
      </trkpt>
      <trkpt lat="47.171" lon="-1.64899">
        <ele>81</ele>
        <time>2022-05-14T08:08:36Z</time>
      </trkpt>
      <trkpt lat="47.17101" lon="-1.6492">
        <ele>80</ele>
        <time>2022-05-14T08:08:38Z</time>
      </trkpt>
      <trkpt lat="47.17102" lon="-1.6494">
        <ele>80</ele>
        <time>2022-05-14T08:08:40Z</time>
      </trkpt>
      <trkpt lat="47.17104" lon="-1.64961">
        <ele>79</ele>
        <time>2022-05-14T08:08:42Z</time>
      </trkpt>
      <trkpt lat="47.17105" lon="-1.6498">
        <ele>79</ele>
        <time>2022-05-14T08:08:44Z</time>
      </trkpt>
      <trkpt lat="47.17106" lon="-1.65001">
        <ele>79</ele>
        <time>2022-05-14T08:08:46Z</time>
      </trkpt>
      <trkpt lat="47.17107" lon="-1.65021">
        <ele>79</ele>
        <time>2022-05-14T08:08:48Z</time>
      </trkpt>
      <trkpt lat="47.17109" lon="-1.65041">
        <ele>79</ele>
        <time>2022-05-14T08:08:50Z</time>
      </trkpt>
      <trkpt lat="47.1711" lon="-1.65061">
        <ele>78</ele>
        <time>2022-05-14T08:08:52Z</time>
      </trkpt>
      <trkpt lat="47.17112" lon="-1.65081">
        <ele>78</ele>
        <time>2022-05-14T08:08:54Z</time>
      </trkpt>
      <trkpt lat="47.17113" lon="-1.65101">
        <ele>78</ele>
        <time>2022-05-14T08:08:56Z</time>
      </trkpt>
      <trkpt lat="47.17115" lon="-1.65121">
        <ele>78</ele>
        <time>2022-05-14T08:08:58Z</time>
      </trkpt>
      <trkpt lat="47.17116" lon="-1.65142">
        <ele>78</ele>
        <time>2022-05-14T08:09:00Z</time>
      </trkpt>
      <trkpt lat="47.17118" lon="-1.65162">
        <ele>78</ele>
        <time>2022-05-14T08:09:02Z</time>
      </trkpt>
      <trkpt lat="47.17119" lon="-1.65182">
        <ele>79</ele>
        <time>2022-05-14T08:09:04Z</time>
      </trkpt>
      <trkpt lat="47.17121" lon="-1.65201">
        <ele>79</ele>
        <time>2022-05-14T08:09:06Z</time>
      </trkpt>
      <trkpt lat="47.17122" lon="-1.6522">
        <ele>79</ele>
        <time>2022-05-14T08:09:08Z</time>
      </trkpt>
      <trkpt lat="47.17124" lon="-1.65239">
        <ele>80</ele>
        <time>2022-05-14T08:09:10Z</time>
      </trkpt>
      <trkpt lat="47.17128" lon="-1.65256">
        <ele>80</ele>
        <time>2022-05-14T08:09:12Z</time>
      </trkpt>
      <trkpt lat="47.17135" lon="-1.65271">
        <ele>80</ele>
        <time>2022-05-14T08:09:14Z</time>
      </trkpt>
      <trkpt lat="47.17145" lon="-1.65283">
        <ele>80</ele>
        <time>2022-05-14T08:09:16Z</time>
      </trkpt>
      <trkpt lat="47.17155" lon="-1.65294">
        <ele>80</ele>
        <time>2022-05-14T08:09:18Z</time>
      </trkpt>
      <trkpt lat="47.17166" lon="-1.65305">
        <ele>79</ele>
        <time>2022-05-14T08:09:20Z</time>
      </trkpt>
      <trkpt lat="47.17175" lon="-1.6532">
        <ele>79</ele>
        <time>2022-05-14T08:09:22Z</time>
      </trkpt>
      <trkpt lat="47.17179" lon="-1.65339">
        <ele>79</ele>
        <time>2022-05-14T08:09:24Z</time>
      </trkpt>
      <trkpt lat="47.17178" lon="-1.65359">
        <ele>79</ele>
        <time>2022-05-14T08:09:26Z</time>
      </trkpt>
      <trkpt lat="47.17176" lon="-1.65379">
        <ele>79</ele>
        <time>2022-05-14T08:09:28Z</time>
      </trkpt>
      <trkpt lat="47.17173" lon="-1.65398">
        <ele>78</ele>
        <time>2022-05-14T08:09:30Z</time>
      </trkpt>
      <trkpt lat="47.17171" lon="-1.65417">
        <ele>79</ele>
        <time>2022-05-14T08:09:32Z</time>
      </trkpt>
      <trkpt lat="47.17168" lon="-1.65436">
        <ele>79</ele>
        <time>2022-05-14T08:09:34Z</time>
      </trkpt>
      <trkpt lat="47.17165" lon="-1.65456">
        <ele>79</ele>
        <time>2022-05-14T08:09:36Z</time>
      </trkpt>
      <trkpt lat="47.17163" lon="-1.65475">
        <ele>79</ele>
        <time>2022-05-14T08:09:38Z</time>
      </trkpt>
      <trkpt lat="47.17161" lon="-1.65494">
        <ele>80</ele>
        <time>2022-05-14T08:09:40Z</time>
      </trkpt>
      <trkpt lat="47.17159" lon="-1.65513">
        <ele>80</ele>
        <time>2022-05-14T08:09:42Z</time>
      </trkpt>
      <trkpt lat="47.17157" lon="-1.65531">
        <ele>80</ele>
        <time>2022-05-14T08:09:44Z</time>
      </trkpt>
      <trkpt lat="47.17156" lon="-1.65551">
        <ele>80</ele>
        <time>2022-05-14T08:09:46Z</time>
      </trkpt>
      <trkpt lat="47.17155" lon="-1.6557">
        <ele>80</ele>
        <time>2022-05-14T08:09:48Z</time>
      </trkpt>
      <trkpt lat="47.17154" lon="-1.65589">
        <ele>80</ele>
        <time>2022-05-14T08:09:50Z</time>
      </trkpt>
      <trkpt lat="47.17153" lon="-1.65609">
        <ele>80</ele>
        <time>2022-05-14T08:09:52Z</time>
      </trkpt>
      <trkpt lat="47.17153" lon="-1.65629">
        <ele>80</ele>
        <time>2022-05-14T08:09:54Z</time>
      </trkpt>
      <trkpt lat="47.17153" lon="-1.65649">
        <ele>80</ele>
        <time>2022-05-14T08:09:56Z</time>
      </trkpt>
      <trkpt lat="47.17153" lon="-1.65669">
        <ele>80</ele>
        <time>2022-05-14T08:09:58Z</time>
      </trkpt>
      <trkpt lat="47.17154" lon="-1.65688">
        <ele>80</ele>
        <time>2022-05-14T08:10:00Z</time>
      </trkpt>
      <trkpt lat="47.17155" lon="-1.65708">
        <ele>80</ele>
        <time>2022-05-14T08:10:02Z</time>
      </trkpt>
      <trkpt lat="47.17156" lon="-1.65728">
        <ele>80</ele>
        <time>2022-05-14T08:10:04Z</time>
      </trkpt>
      <trkpt lat="47.17158" lon="-1.65747">
        <ele>80</ele>
        <time>2022-05-14T08:10:06Z</time>
      </trkpt>
      <trkpt lat="47.1716" lon="-1.65767">
        <ele>80</ele>
        <time>2022-05-14T08:10:08Z</time>
      </trkpt>
      <trkpt lat="47.17162" lon="-1.65787">
        <ele>80</ele>
        <time>2022-05-14T08:10:10Z</time>
      </trkpt>
      <trkpt lat="47.17164" lon="-1.65806">
        <ele>79</ele>
        <time>2022-05-14T08:10:12Z</time>
      </trkpt>
      <trkpt lat="47.17167" lon="-1.65826">
        <ele>80</ele>
        <time>2022-05-14T08:10:14Z</time>
      </trkpt>
      <trkpt lat="47.1717" lon="-1.65846">
        <ele>79</ele>
        <time>2022-05-14T08:10:16Z</time>
      </trkpt>
      <trkpt lat="47.17173" lon="-1.65866">
        <ele>79</ele>
        <time>2022-05-14T08:10:18Z</time>
      </trkpt>
      <trkpt lat="47.17177" lon="-1.65885">
        <ele>79</ele>
        <time>2022-05-14T08:10:20Z</time>
      </trkpt>
      <trkpt lat="47.17181" lon="-1.65903">
        <ele>79</ele>
        <time>2022-05-14T08:10:22Z</time>
      </trkpt>
      <trkpt lat="47.17184" lon="-1.65921">
        <ele>80</ele>
        <time>2022-05-14T08:10:24Z</time>
      </trkpt>
      <trkpt lat="47.17188" lon="-1.6594">
        <ele>80</ele>
        <time>2022-05-14T08:10:26Z</time>
      </trkpt>
      <trkpt lat="47.17192" lon="-1.6596">
        <ele>80</ele>
        <time>2022-05-14T08:10:28Z</time>
      </trkpt>
      <trkpt lat="47.17195" lon="-1.65979">
        <ele>79</ele>
        <time>2022-05-14T08:10:30Z</time>
      </trkpt>
      <trkpt lat="47.17199" lon="-1.65998">
        <ele>79</ele>
        <time>2022-05-14T08:10:32Z</time>
      </trkpt>
      <trkpt lat="47.17202" lon="-1.66016">
        <ele>80</ele>
        <time>2022-05-14T08:10:34Z</time>
      </trkpt>
      <trkpt lat="47.17206" lon="-1.66036">
        <ele>80</ele>
        <time>2022-05-14T08:10:36Z</time>
      </trkpt>
      <trkpt lat="47.1721" lon="-1.66055">
        <ele>80</ele>
        <time>2022-05-14T08:10:38Z</time>
      </trkpt>
      <trkpt lat="47.17215" lon="-1.66073">
        <ele>80</ele>
        <time>2022-05-14T08:10:40Z</time>
      </trkpt>
      <trkpt lat="47.17218" lon="-1.66091">
        <ele>80</ele>
        <time>2022-05-14T08:10:42Z</time>
      </trkpt>
      <trkpt lat="47.17221" lon="-1.6611">
        <ele>80</ele>
        <time>2022-05-14T08:10:44Z</time>
      </trkpt>
      <trkpt lat="47.17226" lon="-1.66128">
        <ele>79</ele>
        <time>2022-05-14T08:10:46Z</time>
      </trkpt>
      <trkpt lat="47.1723" lon="-1.66145">
        <ele>80</ele>
        <time>2022-05-14T08:10:48Z</time>
      </trkpt>
      <trkpt lat="47.17235" lon="-1.66162">
        <ele>80</ele>
        <time>2022-05-14T08:10:50Z</time>
      </trkpt>
      <trkpt lat="47.17242" lon="-1.66176">
        <ele>80</ele>
        <time>2022-05-14T08:10:52Z</time>
      </trkpt>
      <trkpt lat="47.17249" lon="-1.66188">
        <ele>81</ele>
        <time>2022-05-14T08:10:54Z</time>
      </trkpt>
      <trkpt lat="47.17256" lon="-1.66201">
        <ele>81</ele>
        <time>2022-05-14T08:10:56Z</time>
      </trkpt>
      <trkpt lat="47.17262" lon="-1.66212">
        <ele>82</ele>
        <time>2022-05-14T08:10:58Z</time>
      </trkpt>
      <trkpt lat="47.17268" lon="-1.66225">
        <ele>84</ele>
        <time>2022-05-14T08:11:00Z</time>
      </trkpt>
      <trkpt lat="47.17273" lon="-1.66237">
        <ele>85</ele>
        <time>2022-05-14T08:11:02Z</time>
      </trkpt>
      <trkpt lat="47.1728" lon="-1.66251">
        <ele>85</ele>
        <time>2022-05-14T08:11:04Z</time>
      </trkpt>
      <trkpt lat="47.17288" lon="-1.66264">
        <ele>85</ele>
        <time>2022-05-14T08:11:06Z</time>
      </trkpt>
      <trkpt lat="47.17296" lon="-1.66277">
        <ele>86</ele>
        <time>2022-05-14T08:11:08Z</time>
      </trkpt>
      <trkpt lat="47.17305" lon="-1.6629">
        <ele>87</ele>
        <time>2022-05-14T08:11:10Z</time>
      </trkpt>
      <trkpt lat="47.17314" lon="-1.66303">
        <ele>88</ele>
        <time>2022-05-14T08:11:12Z</time>
      </trkpt>
      <trkpt lat="47.17323" lon="-1.66319">
        <ele>88</ele>
        <time>2022-05-14T08:11:14Z</time>
      </trkpt>
      <trkpt lat="47.17331" lon="-1.66333">
        <ele>89</ele>
        <time>2022-05-14T08:11:16Z</time>
      </trkpt>
      <trkpt lat="47.17339" lon="-1.66348">
        <ele>89</ele>
        <time>2022-05-14T08:11:18Z</time>
      </trkpt>
      <trkpt lat="47.17347" lon="-1.66362">
        <ele>90</ele>
        <time>2022-05-14T08:11:20Z</time>
      </trkpt>
      <trkpt lat="47.17354" lon="-1.66377">
        <ele>90</ele>
        <time>2022-05-14T08:11:22Z</time>
      </trkpt>
      <trkpt lat="47.17361" lon="-1.66391">
        <ele>90</ele>
        <time>2022-05-14T08:11:24Z</time>
      </trkpt>
      <trkpt lat="47.17368" lon="-1.66406">
        <ele>90</ele>
        <time>2022-05-14T08:11:26Z</time>
      </trkpt>
      <trkpt lat="47.17375" lon="-1.66422">
        <ele>89</ele>
        <time>2022-05-14T08:11:28Z</time>
      </trkpt>
      <trkpt lat="47.17384" lon="-1.66436">
        <ele>89</ele>
        <time>2022-05-14T08:11:30Z</time>
      </trkpt>
      <trkpt lat="47.17392" lon="-1.66449">
        <ele>88</ele>
        <time>2022-05-14T08:11:32Z</time>
      </trkpt>
      <trkpt lat="47.17401" lon="-1.66465">
        <ele>88</ele>
        <time>2022-05-14T08:11:34Z</time>
      </trkpt>
      <trkpt lat="47.17409" lon="-1.6648">
        <ele>88</ele>
        <time>2022-05-14T08:11:36Z</time>
      </trkpt>
      <trkpt lat="47.17417" lon="-1.66495">
        <ele>88</ele>
        <time>2022-05-14T08:11:38Z</time>
      </trkpt>
      <trkpt lat="47.17424" lon="-1.66509">
        <ele>88</ele>
        <time>2022-05-14T08:11:40Z</time>
      </trkpt>
      <trkpt lat="47.17433" lon="-1.66523">
        <ele>87</ele>
        <time>2022-05-14T08:11:42Z</time>
      </trkpt>
      <trkpt lat="47.1744" lon="-1.66536">
        <ele>88</ele>
        <time>2022-05-14T08:11:44Z</time>
      </trkpt>
      <trkpt lat="47.17448" lon="-1.6655">
        <ele>88</ele>
        <time>2022-05-14T08:11:46Z</time>
      </trkpt>
      <trkpt lat="47.17455" lon="-1.66565">
        <ele>88</ele>
        <time>2022-05-14T08:11:48Z</time>
      </trkpt>
      <trkpt lat="47.17461" lon="-1.66579">
        <ele>88</ele>
        <time>2022-05-14T08:11:50Z</time>
      </trkpt>
      <trkpt lat="47.17468" lon="-1.66593">
        <ele>88</ele>
        <time>2022-05-14T08:11:52Z</time>
      </trkpt>
      <trkpt lat="47.17475" lon="-1.66607">
        <ele>88</ele>
        <time>2022-05-14T08:11:54Z</time>
      </trkpt>
      <trkpt lat="47.17484" lon="-1.66622">
        <ele>89</ele>
        <time>2022-05-14T08:11:56Z</time>
      </trkpt>
      <trkpt lat="47.17492" lon="-1.66637">
        <ele>90</ele>
        <time>2022-05-14T08:11:58Z</time>
      </trkpt>
      <trkpt lat="47.175" lon="-1.66652">
        <ele>90</ele>
        <time>2022-05-14T08:12:00Z</time>
      </trkpt>
      <trkpt lat="47.17508" lon="-1.66668">
        <ele>91</ele>
        <time>2022-05-14T08:12:02Z</time>
      </trkpt>
      <trkpt lat="47.17517" lon="-1.66683">
        <ele>91</ele>
        <time>2022-05-14T08:12:04Z</time>
      </trkpt>
      <trkpt lat="47.17526" lon="-1.66698">
        <ele>91</ele>
        <time>2022-05-14T08:12:06Z</time>
      </trkpt>
      <trkpt lat="47.17535" lon="-1.66714">
        <ele>91</ele>
        <time>2022-05-14T08:12:08Z</time>
      </trkpt>
      <trkpt lat="47.17543" lon="-1.66729">
        <ele>91</ele>
        <time>2022-05-14T08:12:10Z</time>
      </trkpt>
      <trkpt lat="47.17551" lon="-1.66743">
        <ele>91</ele>
        <time>2022-05-14T08:12:12Z</time>
      </trkpt>
      <trkpt lat="47.17559" lon="-1.66757">
        <ele>91</ele>
        <time>2022-05-14T08:12:14Z</time>
      </trkpt>
      <trkpt lat="47.17567" lon="-1.66774">
        <ele>90</ele>
        <time>2022-05-14T08:12:16Z</time>
      </trkpt>
      <trkpt lat="47.17575" lon="-1.6679">
        <ele>90</ele>
        <time>2022-05-14T08:12:18Z</time>
      </trkpt>
      <trkpt lat="47.17582" lon="-1.66804">
        <ele>90</ele>
        <time>2022-05-14T08:12:20Z</time>
      </trkpt>
      <trkpt lat="47.1759" lon="-1.66821">
        <ele>89</ele>
        <time>2022-05-14T08:12:22Z</time>
      </trkpt>
      <trkpt lat="47.17598" lon="-1.66835">
        <ele>89</ele>
        <time>2022-05-14T08:12:24Z</time>
      </trkpt>
      <trkpt lat="47.17607" lon="-1.66853">
        <ele>89</ele>
        <time>2022-05-14T08:12:26Z</time>
      </trkpt>
      <trkpt lat="47.17616" lon="-1.6687">
        <ele>87</ele>
        <time>2022-05-14T08:12:28Z</time>
      </trkpt>
      <trkpt lat="47.17625" lon="-1.66887">
        <ele>86</ele>
        <time>2022-05-14T08:12:30Z</time>
      </trkpt>
      <trkpt lat="47.17633" lon="-1.66901">
        <ele>86</ele>
        <time>2022-05-14T08:12:32Z</time>
      </trkpt>
      <trkpt lat="47.17641" lon="-1.66916">
        <ele>86</ele>
        <time>2022-05-14T08:12:34Z</time>
      </trkpt>
      <trkpt lat="47.17649" lon="-1.66932">
        <ele>85</ele>
        <time>2022-05-14T08:12:36Z</time>
      </trkpt>
      <trkpt lat="47.17658" lon="-1.66948">
        <ele>85</ele>
        <time>2022-05-14T08:12:38Z</time>
      </trkpt>
      <trkpt lat="47.17666" lon="-1.66964">
        <ele>84</ele>
        <time>2022-05-14T08:12:40Z</time>
      </trkpt>
      <trkpt lat="47.17675" lon="-1.66979">
        <ele>84</ele>
        <time>2022-05-14T08:12:42Z</time>
      </trkpt>
      <trkpt lat="47.17683" lon="-1.66995">
        <ele>83</ele>
        <time>2022-05-14T08:12:44Z</time>
      </trkpt>
      <trkpt lat="47.17691" lon="-1.67012">
        <ele>82</ele>
        <time>2022-05-14T08:12:46Z</time>
      </trkpt>
      <trkpt lat="47.17699" lon="-1.67027">
        <ele>82</ele>
        <time>2022-05-14T08:12:48Z</time>
      </trkpt>
      <trkpt lat="47.17708" lon="-1.67042">
        <ele>82</ele>
        <time>2022-05-14T08:12:50Z</time>
      </trkpt>
      <trkpt lat="47.17716" lon="-1.67058">
        <ele>81</ele>
        <time>2022-05-14T08:12:52Z</time>
      </trkpt>
      <trkpt lat="47.17725" lon="-1.67073">
        <ele>81</ele>
        <time>2022-05-14T08:12:54Z</time>
      </trkpt>
      <trkpt lat="47.17732" lon="-1.67089">
        <ele>81</ele>
        <time>2022-05-14T08:12:56Z</time>
      </trkpt>
      <trkpt lat="47.17743" lon="-1.67109">
        <ele>80</ele>
        <time>2022-05-14T08:12:59Z</time>
      </trkpt>
      <trkpt lat="47.17751" lon="-1.67125">
        <ele>80</ele>
        <time>2022-05-14T08:13:01Z</time>
      </trkpt>
      <trkpt lat="47.1776" lon="-1.67141">
        <ele>80</ele>
        <time>2022-05-14T08:13:03Z</time>
      </trkpt>
      <trkpt lat="47.17768" lon="-1.67156">
        <ele>80</ele>
        <time>2022-05-14T08:13:05Z</time>
      </trkpt>
      <trkpt lat="47.17776" lon="-1.67171">
        <ele>81</ele>
        <time>2022-05-14T08:13:07Z</time>
      </trkpt>
      <trkpt lat="47.17784" lon="-1.67185">
        <ele>82</ele>
        <time>2022-05-14T08:13:09Z</time>
      </trkpt>
      <trkpt lat="47.17792" lon="-1.67201">
        <ele>82</ele>
        <time>2022-05-14T08:13:11Z</time>
      </trkpt>
      <trkpt lat="47.17801" lon="-1.67218">
        <ele>81</ele>
        <time>2022-05-14T08:13:13Z</time>
      </trkpt>
      <trkpt lat="47.17809" lon="-1.67233">
        <ele>80</ele>
        <time>2022-05-14T08:13:15Z</time>
      </trkpt>
      <trkpt lat="47.17816" lon="-1.67248">
        <ele>80</ele>
        <time>2022-05-14T08:13:17Z</time>
      </trkpt>
      <trkpt lat="47.17824" lon="-1.67262">
        <ele>80</ele>
        <time>2022-05-14T08:13:19Z</time>
      </trkpt>
      <trkpt lat="47.17832" lon="-1.67277">
        <ele>80</ele>
        <time>2022-05-14T08:13:21Z</time>
      </trkpt>
      <trkpt lat="47.1784" lon="-1.67291">
        <ele>81</ele>
        <time>2022-05-14T08:13:23Z</time>
      </trkpt>
      <trkpt lat="47.17847" lon="-1.67305">
        <ele>81</ele>
        <time>2022-05-14T08:13:25Z</time>
      </trkpt>
      <trkpt lat="47.17855" lon="-1.6732">
        <ele>81</ele>
        <time>2022-05-14T08:13:27Z</time>
      </trkpt>
      <trkpt lat="47.17863" lon="-1.67334">
        <ele>81</ele>
        <time>2022-05-14T08:13:29Z</time>
      </trkpt>
      <trkpt lat="47.1787" lon="-1.67348">
        <ele>81</ele>
        <time>2022-05-14T08:13:31Z</time>
      </trkpt>
      <trkpt lat="47.17878" lon="-1.67361">
        <ele>80</ele>
        <time>2022-05-14T08:13:33Z</time>
      </trkpt>
      <trkpt lat="47.17885" lon="-1.67374">
        <ele>80</ele>
        <time>2022-05-14T08:13:35Z</time>
      </trkpt>
      <trkpt lat="47.17893" lon="-1.67389">
        <ele>79</ele>
        <time>2022-05-14T08:13:38Z</time>
      </trkpt>
      <trkpt lat="47.17903" lon="-1.674">
        <ele>81</ele>
        <time>2022-05-14T08:13:54Z</time>
      </trkpt>
      <trkpt lat="47.1791" lon="-1.67416">
        <ele>82</ele>
        <time>2022-05-14T08:13:56Z</time>
      </trkpt>
      <trkpt lat="47.17915" lon="-1.67433">
        <ele>83</ele>
        <time>2022-05-14T08:13:58Z</time>
      </trkpt>
      <trkpt lat="47.17919" lon="-1.6745">
        <ele>83</ele>
        <time>2022-05-14T08:14:00Z</time>
      </trkpt>
      <trkpt lat="47.17923" lon="-1.67468">
        <ele>84</ele>
        <time>2022-05-14T08:14:02Z</time>
      </trkpt>
      <trkpt lat="47.17928" lon="-1.67486">
        <ele>84</ele>
        <time>2022-05-14T08:14:04Z</time>
      </trkpt>
      <trkpt lat="47.17933" lon="-1.67506">
        <ele>84</ele>
        <time>2022-05-14T08:14:06Z</time>
      </trkpt>
      <trkpt lat="47.17939" lon="-1.67525">
        <ele>83</ele>
        <time>2022-05-14T08:14:08Z</time>
      </trkpt>
      <trkpt lat="47.17944" lon="-1.67543">
        <ele>83</ele>
        <time>2022-05-14T08:14:10Z</time>
      </trkpt>
      <trkpt lat="47.17949" lon="-1.6756">
        <ele>84</ele>
        <time>2022-05-14T08:14:12Z</time>
      </trkpt>
      <trkpt lat="47.17954" lon="-1.67578">
        <ele>84</ele>
        <time>2022-05-14T08:14:14Z</time>
      </trkpt>
      <trkpt lat="47.17959" lon="-1.67596">
        <ele>84</ele>
        <time>2022-05-14T08:14:16Z</time>
      </trkpt>
      <trkpt lat="47.17964" lon="-1.67613">
        <ele>85</ele>
        <time>2022-05-14T08:14:18Z</time>
      </trkpt>
      <trkpt lat="47.17969" lon="-1.67631">
        <ele>85</ele>
        <time>2022-05-14T08:14:20Z</time>
      </trkpt>
      <trkpt lat="47.17974" lon="-1.6765">
        <ele>85</ele>
        <time>2022-05-14T08:14:22Z</time>
      </trkpt>
      <trkpt lat="47.17978" lon="-1.67667">
        <ele>85</ele>
        <time>2022-05-14T08:14:24Z</time>
      </trkpt>
      <trkpt lat="47.17983" lon="-1.67684">
        <ele>85</ele>
        <time>2022-05-14T08:14:26Z</time>
      </trkpt>
      <trkpt lat="47.17988" lon="-1.67701">
        <ele>85</ele>
        <time>2022-05-14T08:14:28Z</time>
      </trkpt>
      <trkpt lat="47.17995" lon="-1.67718">
        <ele>84</ele>
        <time>2022-05-14T08:14:30Z</time>
      </trkpt>
      <trkpt lat="47.18006" lon="-1.67726">
        <ele>84</ele>
        <time>2022-05-14T08:14:32Z</time>
      </trkpt>
      <trkpt lat="47.18019" lon="-1.6772">
        <ele>83</ele>
        <time>2022-05-14T08:14:34Z</time>
      </trkpt>
      <trkpt lat="47.18031" lon="-1.67714">
        <ele>83</ele>
        <time>2022-05-14T08:14:36Z</time>
      </trkpt>
      <trkpt lat="47.18044" lon="-1.67707">
        <ele>82</ele>
        <time>2022-05-14T08:14:38Z</time>
      </trkpt>
      <trkpt lat="47.18056" lon="-1.677">
        <ele>82</ele>
        <time>2022-05-14T08:14:40Z</time>
      </trkpt>
      <trkpt lat="47.18069" lon="-1.67693">
        <ele>82</ele>
        <time>2022-05-14T08:14:42Z</time>
      </trkpt>
      <trkpt lat="47.18081" lon="-1.67686">
        <ele>82</ele>
        <time>2022-05-14T08:14:44Z</time>
      </trkpt>
      <trkpt lat="47.18094" lon="-1.67678">
        <ele>82</ele>
        <time>2022-05-14T08:14:46Z</time>
      </trkpt>
      <trkpt lat="47.18106" lon="-1.67671">
        <ele>82</ele>
        <time>2022-05-14T08:14:48Z</time>
      </trkpt>
      <trkpt lat="47.18118" lon="-1.67664">
        <ele>82</ele>
        <time>2022-05-14T08:14:50Z</time>
      </trkpt>
      <trkpt lat="47.18131" lon="-1.67656">
        <ele>81</ele>
        <time>2022-05-14T08:14:52Z</time>
      </trkpt>
      <trkpt lat="47.18144" lon="-1.67648">
        <ele>81</ele>
        <time>2022-05-14T08:14:54Z</time>
      </trkpt>
      <trkpt lat="47.18156" lon="-1.6764">
        <ele>81</ele>
        <time>2022-05-14T08:14:56Z</time>
      </trkpt>
      <trkpt lat="47.18169" lon="-1.67633">
        <ele>80</ele>
        <time>2022-05-14T08:14:58Z</time>
      </trkpt>
      <trkpt lat="47.18182" lon="-1.67624">
        <ele>80</ele>
        <time>2022-05-14T08:15:00Z</time>
      </trkpt>
      <trkpt lat="47.18193" lon="-1.67614">
        <ele>80</ele>
        <time>2022-05-14T08:15:02Z</time>
      </trkpt>
      <trkpt lat="47.18205" lon="-1.67605">
        <ele>80</ele>
        <time>2022-05-14T08:15:04Z</time>
      </trkpt>
      <trkpt lat="47.18218" lon="-1.67599">
        <ele>80</ele>
        <time>2022-05-14T08:15:06Z</time>
      </trkpt>
      <trkpt lat="47.1823" lon="-1.67593">
        <ele>80</ele>
        <time>2022-05-14T08:15:08Z</time>
      </trkpt>
      <trkpt lat="47.18243" lon="-1.67585">
        <ele>80</ele>
        <time>2022-05-14T08:15:10Z</time>
      </trkpt>
      <trkpt lat="47.18256" lon="-1.67578">
        <ele>80</ele>
        <time>2022-05-14T08:15:12Z</time>
      </trkpt>
      <trkpt lat="47.18268" lon="-1.6757">
        <ele>81</ele>
        <time>2022-05-14T08:15:14Z</time>
      </trkpt>
      <trkpt lat="47.18281" lon="-1.67562">
        <ele>81</ele>
        <time>2022-05-14T08:15:16Z</time>
      </trkpt>
      <trkpt lat="47.18294" lon="-1.67555">
        <ele>82</ele>
        <time>2022-05-14T08:15:18Z</time>
      </trkpt>
      <trkpt lat="47.18306" lon="-1.67547">
        <ele>82</ele>
        <time>2022-05-14T08:15:20Z</time>
      </trkpt>
      <trkpt lat="47.18319" lon="-1.67539">
        <ele>83</ele>
        <time>2022-05-14T08:15:22Z</time>
      </trkpt>
      <trkpt lat="47.18331" lon="-1.67531">
        <ele>84</ele>
        <time>2022-05-14T08:15:24Z</time>
      </trkpt>
      <trkpt lat="47.18344" lon="-1.67524">
        <ele>84</ele>
        <time>2022-05-14T08:15:26Z</time>
      </trkpt>
      <trkpt lat="47.18356" lon="-1.67517">
        <ele>84</ele>
        <time>2022-05-14T08:15:28Z</time>
      </trkpt>
      <trkpt lat="47.18368" lon="-1.67509">
        <ele>83</ele>
        <time>2022-05-14T08:15:30Z</time>
      </trkpt>
      <trkpt lat="47.18379" lon="-1.67502">
        <ele>83</ele>
        <time>2022-05-14T08:15:32Z</time>
      </trkpt>
      <trkpt lat="47.1839" lon="-1.67494">
        <ele>83</ele>
        <time>2022-05-14T08:15:34Z</time>
      </trkpt>
      <trkpt lat="47.18403" lon="-1.67488">
        <ele>84</ele>
        <time>2022-05-14T08:15:36Z</time>
      </trkpt>
      <trkpt lat="47.18416" lon="-1.6748">
        <ele>83</ele>
        <time>2022-05-14T08:15:38Z</time>
      </trkpt>
      <trkpt lat="47.18428" lon="-1.67473">
        <ele>83</ele>
        <time>2022-05-14T08:15:40Z</time>
      </trkpt>
      <trkpt lat="47.1844" lon="-1.67466">
        <ele>82</ele>
        <time>2022-05-14T08:15:42Z</time>
      </trkpt>
      <trkpt lat="47.18452" lon="-1.67459">
        <ele>82</ele>
        <time>2022-05-14T08:15:44Z</time>
      </trkpt>
      <trkpt lat="47.18464" lon="-1.67451">
        <ele>82</ele>
        <time>2022-05-14T08:15:46Z</time>
      </trkpt>
      <trkpt lat="47.18476" lon="-1.67444">
        <ele>83</ele>
        <time>2022-05-14T08:15:48Z</time>
      </trkpt>
      <trkpt lat="47.18488" lon="-1.67436">
        <ele>84</ele>
        <time>2022-05-14T08:15:50Z</time>
      </trkpt>
      <trkpt lat="47.18499" lon="-1.6743">
        <ele>84</ele>
        <time>2022-05-14T08:15:52Z</time>
      </trkpt>
      <trkpt lat="47.1851" lon="-1.67423">
        <ele>84</ele>
        <time>2022-05-14T08:15:54Z</time>
      </trkpt>
      <trkpt lat="47.18519" lon="-1.67414">
        <ele>84</ele>
        <time>2022-05-14T08:15:56Z</time>
      </trkpt>
      <trkpt lat="47.18527" lon="-1.67408">
        <ele>84</ele>
        <time>2022-05-14T08:15:58Z</time>
      </trkpt>
      <trkpt lat="47.18536" lon="-1.67417">
        <ele>83</ele>
        <time>2022-05-14T08:16:00Z</time>
      </trkpt>
      <trkpt lat="47.18538" lon="-1.67433">
        <ele>83</ele>
        <time>2022-05-14T08:16:02Z</time>
      </trkpt>
      <trkpt lat="47.18543" lon="-1.67446">
        <ele>84</ele>
        <time>2022-05-14T08:16:04Z</time>
      </trkpt>
      <trkpt lat="47.18553" lon="-1.67446">
        <ele>84</ele>
        <time>2022-05-14T08:16:06Z</time>
      </trkpt>
      <trkpt lat="47.18562" lon="-1.67439">
        <ele>84</ele>
        <time>2022-05-14T08:16:08Z</time>
      </trkpt>
      <trkpt lat="47.18572" lon="-1.67434">
        <ele>85</ele>
        <time>2022-05-14T08:16:10Z</time>
      </trkpt>
      <trkpt lat="47.18583" lon="-1.67432">
        <ele>86</ele>
        <time>2022-05-14T08:16:12Z</time>
      </trkpt>
      <trkpt lat="47.18595" lon="-1.67443">
        <ele>87</ele>
        <time>2022-05-14T08:16:14Z</time>
      </trkpt>
      <trkpt lat="47.18602" lon="-1.67461">
        <ele>87</ele>
        <time>2022-05-14T08:16:16Z</time>
      </trkpt>
      <trkpt lat="47.18608" lon="-1.67479">
        <ele>85</ele>
        <time>2022-05-14T08:16:18Z</time>
      </trkpt>
      <trkpt lat="47.18614" lon="-1.67497">
        <ele>85</ele>
        <time>2022-05-14T08:16:20Z</time>
      </trkpt>
      <trkpt lat="47.18621" lon="-1.67515">
        <ele>84</ele>
        <time>2022-05-14T08:16:22Z</time>
      </trkpt>
      <trkpt lat="47.18628" lon="-1.6753">
        <ele>84</ele>
        <time>2022-05-14T08:16:24Z</time>
      </trkpt>
      <trkpt lat="47.18637" lon="-1.67545">
        <ele>84</ele>
        <time>2022-05-14T08:16:26Z</time>
      </trkpt>
      <trkpt lat="47.18647" lon="-1.67558">
        <ele>84</ele>
        <time>2022-05-14T08:16:28Z</time>
      </trkpt>
      <trkpt lat="47.18657" lon="-1.67571">
        <ele>85</ele>
        <time>2022-05-14T08:16:30Z</time>
      </trkpt>
      <trkpt lat="47.18666" lon="-1.67584">
        <ele>85</ele>
        <time>2022-05-14T08:16:32Z</time>
      </trkpt>
      <trkpt lat="47.18675" lon="-1.67596">
        <ele>85</ele>
        <time>2022-05-14T08:16:34Z</time>
      </trkpt>
      <trkpt lat="47.18685" lon="-1.67608">
        <ele>85</ele>
        <time>2022-05-14T08:16:36Z</time>
      </trkpt>
      <trkpt lat="47.18696" lon="-1.67617">
        <ele>85</ele>
        <time>2022-05-14T08:16:38Z</time>
      </trkpt>
      <trkpt lat="47.18709" lon="-1.6762">
        <ele>86</ele>
        <time>2022-05-14T08:16:40Z</time>
      </trkpt>
      <trkpt lat="47.1872" lon="-1.67617">
        <ele>87</ele>
        <time>2022-05-14T08:16:42Z</time>
      </trkpt>
      <trkpt lat="47.18731" lon="-1.67612">
        <ele>87</ele>
        <time>2022-05-14T08:16:44Z</time>
      </trkpt>
      <trkpt lat="47.1874" lon="-1.67608">
        <ele>88</ele>
        <time>2022-05-14T08:16:46Z</time>
      </trkpt>
      <trkpt lat="47.18752" lon="-1.67618">
        <ele>88</ele>
        <time>2022-05-14T08:16:49Z</time>
      </trkpt>
      <trkpt lat="47.18759" lon="-1.67634">
        <ele>87</ele>
        <time>2022-05-14T08:16:51Z</time>
      </trkpt>
      <trkpt lat="47.18765" lon="-1.67651">
        <ele>87</ele>
        <time>2022-05-14T08:16:53Z</time>
      </trkpt>
      <trkpt lat="47.18774" lon="-1.67665">
        <ele>86</ele>
        <time>2022-05-14T08:16:55Z</time>
      </trkpt>
      <trkpt lat="47.18783" lon="-1.67679">
        <ele>86</ele>
        <time>2022-05-14T08:16:57Z</time>
      </trkpt>
      <trkpt lat="47.18791" lon="-1.67694">
        <ele>85</ele>
        <time>2022-05-14T08:16:59Z</time>
      </trkpt>
      <trkpt lat="47.18798" lon="-1.67709">
        <ele>85</ele>
        <time>2022-05-14T08:17:01Z</time>
      </trkpt>
      <trkpt lat="47.18804" lon="-1.67727">
        <ele>85</ele>
        <time>2022-05-14T08:17:03Z</time>
      </trkpt>
      <trkpt lat="47.18811" lon="-1.67744">
        <ele>85</ele>
        <time>2022-05-14T08:17:05Z</time>
      </trkpt>
      <trkpt lat="47.18818" lon="-1.67761">
        <ele>85</ele>
        <time>2022-05-14T08:17:07Z</time>
      </trkpt>
      <trkpt lat="47.18825" lon="-1.67779">
        <ele>85</ele>
        <time>2022-05-14T08:17:09Z</time>
      </trkpt>
      <trkpt lat="47.18832" lon="-1.67798">
        <ele>84</ele>
        <time>2022-05-14T08:17:11Z</time>
      </trkpt>
      <trkpt lat="47.18839" lon="-1.67818">
        <ele>83</ele>
        <time>2022-05-14T08:17:13Z</time>
      </trkpt>
      <trkpt lat="47.18846" lon="-1.67838">
        <ele>82</ele>
        <time>2022-05-14T08:17:15Z</time>
      </trkpt>
      <trkpt lat="47.18854" lon="-1.67858">
        <ele>81</ele>
        <time>2022-05-14T08:17:17Z</time>
      </trkpt>
      <trkpt lat="47.18863" lon="-1.67877">
        <ele>81</ele>
        <time>2022-05-14T08:17:19Z</time>
      </trkpt>
      <trkpt lat="47.18878" lon="-1.67892">
        <ele>79</ele>
        <time>2022-05-14T08:17:21Z</time>
      </trkpt>
      <trkpt lat="47.18893" lon="-1.67899">
        <ele>79</ele>
        <time>2022-05-14T08:17:23Z</time>
      </trkpt>
      <trkpt lat="47.18908" lon="-1.67902">
        <ele>79</ele>
        <time>2022-05-14T08:17:25Z</time>
      </trkpt>
      <trkpt lat="47.18919" lon="-1.67913">
        <ele>80</ele>
        <time>2022-05-14T08:17:27Z</time>
      </trkpt>
      <trkpt lat="47.18927" lon="-1.6793">
        <ele>80</ele>
        <time>2022-05-14T08:17:29Z</time>
      </trkpt>
      <trkpt lat="47.18934" lon="-1.67946">
        <ele>79</ele>
        <time>2022-05-14T08:17:31Z</time>
      </trkpt>
      <trkpt lat="47.18941" lon="-1.67961">
        <ele>79</ele>
        <time>2022-05-14T08:17:33Z</time>
      </trkpt>
      <trkpt lat="47.18948" lon="-1.67977">
        <ele>80</ele>
        <time>2022-05-14T08:17:35Z</time>
      </trkpt>
      <trkpt lat="47.18956" lon="-1.67991">
        <ele>80</ele>
        <time>2022-05-14T08:17:37Z</time>
      </trkpt>
      <trkpt lat="47.18965" lon="-1.68003">
        <ele>81</ele>
        <time>2022-05-14T08:17:39Z</time>
      </trkpt>
      <trkpt lat="47.18973" lon="-1.68017">
        <ele>81</ele>
        <time>2022-05-14T08:17:41Z</time>
      </trkpt>
      <trkpt lat="47.1898" lon="-1.6803">
        <ele>81</ele>
        <time>2022-05-14T08:17:43Z</time>
      </trkpt>
      <trkpt lat="47.18988" lon="-1.68039">
        <ele>81</ele>
        <time>2022-05-14T08:17:45Z</time>
      </trkpt>
      <trkpt lat="47.19" lon="-1.68029">
        <ele>80</ele>
        <time>2022-05-14T08:17:47Z</time>
      </trkpt>
      <trkpt lat="47.19016" lon="-1.6802">
        <ele>79</ele>
        <time>2022-05-14T08:17:49Z</time>
      </trkpt>
      <trkpt lat="47.19026" lon="-1.68021">
        <ele>79</ele>
        <time>2022-05-14T08:17:50Z</time>
      </trkpt>
      <trkpt lat="47.19035" lon="-1.68023">
        <ele>77</ele>
        <time>2022-05-14T08:17:51Z</time>
      </trkpt>
      <trkpt lat="47.19044" lon="-1.68024">
        <ele>77</ele>
        <time>2022-05-14T08:17:52Z</time>
      </trkpt>
      <trkpt lat="47.19053" lon="-1.68027">
        <ele>76</ele>
        <time>2022-05-14T08:17:53Z</time>
      </trkpt>
      <trkpt lat="47.19062" lon="-1.6803">
        <ele>76</ele>
        <time>2022-05-14T08:17:54Z</time>
      </trkpt>
      <trkpt lat="47.19078" lon="-1.6804">
        <ele>76</ele>
        <time>2022-05-14T08:17:56Z</time>
      </trkpt>
      <trkpt lat="47.19087" lon="-1.68059">
        <ele>76</ele>
        <time>2022-05-14T08:17:58Z</time>
      </trkpt>
      <trkpt lat="47.19094" lon="-1.68076">
        <ele>75</ele>
        <time>2022-05-14T08:18:00Z</time>
      </trkpt>
      <trkpt lat="47.191" lon="-1.68091">
        <ele>76</ele>
        <time>2022-05-14T08:18:02Z</time>
      </trkpt>
      <trkpt lat="47.19105" lon="-1.68107">
        <ele>75</ele>
        <time>2022-05-14T08:18:04Z</time>
      </trkpt>
      <trkpt lat="47.19109" lon="-1.68123">
        <ele>76</ele>
        <time>2022-05-14T08:18:06Z</time>
      </trkpt>
      <trkpt lat="47.19112" lon="-1.68139">
        <ele>77</ele>
        <time>2022-05-14T08:18:08Z</time>
      </trkpt>
      <trkpt lat="47.19115" lon="-1.68155">
        <ele>77</ele>
        <time>2022-05-14T08:18:10Z</time>
      </trkpt>
      <trkpt lat="47.19119" lon="-1.68167">
        <ele>77</ele>
        <time>2022-05-14T08:18:13Z</time>
      </trkpt>
      <trkpt lat="47.19127" lon="-1.68175">
        <ele>76</ele>
        <time>2022-05-14T08:18:18Z</time>
      </trkpt>
      <trkpt lat="47.19125" lon="-1.68188">
        <ele>77</ele>
        <time>2022-05-14T08:18:25Z</time>
      </trkpt>
      <trkpt lat="47.19134" lon="-1.68183">
        <ele>78</ele>
        <time>2022-05-14T08:18:29Z</time>
      </trkpt>
      <trkpt lat="47.19142" lon="-1.68187">
        <ele>77</ele>
        <time>2022-05-14T08:18:36Z</time>
      </trkpt>
      <trkpt lat="47.19153" lon="-1.68202">
        <ele>77</ele>
        <time>2022-05-14T08:18:39Z</time>
      </trkpt>
      <trkpt lat="47.19166" lon="-1.68209">
        <ele>75</ele>
        <time>2022-05-14T08:18:41Z</time>
      </trkpt>
      <trkpt lat="47.19179" lon="-1.68217">
        <ele>73</ele>
        <time>2022-05-14T08:18:43Z</time>
      </trkpt>
      <trkpt lat="47.1919" lon="-1.68222">
        <ele>72</ele>
        <time>2022-05-14T08:18:45Z</time>
      </trkpt>
      <trkpt lat="47.192" lon="-1.68224">
        <ele>73</ele>
        <time>2022-05-14T08:18:47Z</time>
      </trkpt>
      <trkpt lat="47.19208" lon="-1.68217">
        <ele>72</ele>
        <time>2022-05-14T08:18:49Z</time>
      </trkpt>
      <trkpt lat="47.19218" lon="-1.68208">
        <ele>69</ele>
        <time>2022-05-14T08:18:51Z</time>
      </trkpt>
      <trkpt lat="47.1923" lon="-1.68198">
        <ele>67</ele>
        <time>2022-05-14T08:18:53Z</time>
      </trkpt>
      <trkpt lat="47.19243" lon="-1.68188">
        <ele>65</ele>
        <time>2022-05-14T08:18:55Z</time>
      </trkpt>
      <trkpt lat="47.19255" lon="-1.68177">
        <ele>64</ele>
        <time>2022-05-14T08:18:57Z</time>
      </trkpt>
      <trkpt lat="47.19268" lon="-1.68166">
        <ele>63</ele>
        <time>2022-05-14T08:18:59Z</time>
      </trkpt>
      <trkpt lat="47.1928" lon="-1.68157">
        <ele>63</ele>
        <time>2022-05-14T08:19:01Z</time>
      </trkpt>
      <trkpt lat="47.19293" lon="-1.68148">
        <ele>63</ele>
        <time>2022-05-14T08:19:03Z</time>
      </trkpt>
      <trkpt lat="47.19305" lon="-1.68139">
        <ele>63</ele>
        <time>2022-05-14T08:19:05Z</time>
      </trkpt>
      <trkpt lat="47.19319" lon="-1.68131">
        <ele>63</ele>
        <time>2022-05-14T08:19:07Z</time>
      </trkpt>
      <trkpt lat="47.19331" lon="-1.68122">
        <ele>62</ele>
        <time>2022-05-14T08:19:09Z</time>
      </trkpt>
      <trkpt lat="47.19343" lon="-1.68114">
        <ele>62</ele>
        <time>2022-05-14T08:19:11Z</time>
      </trkpt>
      <trkpt lat="47.19356" lon="-1.68105">
        <ele>62</ele>
        <time>2022-05-14T08:19:13Z</time>
      </trkpt>
      <trkpt lat="47.19368" lon="-1.68097">
        <ele>62</ele>
        <time>2022-05-14T08:19:15Z</time>
      </trkpt>
      <trkpt lat="47.19379" lon="-1.68089">
        <ele>61</ele>
        <time>2022-05-14T08:19:17Z</time>
      </trkpt>
      <trkpt lat="47.19391" lon="-1.68081">
        <ele>61</ele>
        <time>2022-05-14T08:19:19Z</time>
      </trkpt>
      <trkpt lat="47.19402" lon="-1.68074">
        <ele>61</ele>
        <time>2022-05-14T08:19:21Z</time>
      </trkpt>
      <trkpt lat="47.19411" lon="-1.68066">
        <ele>62</ele>
        <time>2022-05-14T08:19:23Z</time>
      </trkpt>
      <trkpt lat="47.19414" lon="-1.6805">
        <ele>61</ele>
        <time>2022-05-14T08:19:26Z</time>
      </trkpt>
      <trkpt lat="47.19412" lon="-1.68031">
        <ele>62</ele>
        <time>2022-05-14T08:19:28Z</time>
      </trkpt>
      <trkpt lat="47.19408" lon="-1.6801">
        <ele>62</ele>
        <time>2022-05-14T08:19:30Z</time>
      </trkpt>
      <trkpt lat="47.19403" lon="-1.67991">
        <ele>62</ele>
        <time>2022-05-14T08:19:32Z</time>
      </trkpt>
      <trkpt lat="47.19397" lon="-1.67971">
        <ele>62</ele>
        <time>2022-05-14T08:19:34Z</time>
      </trkpt>
      <trkpt lat="47.19393" lon="-1.67953">
        <ele>61</ele>
        <time>2022-05-14T08:19:36Z</time>
      </trkpt>
      <trkpt lat="47.19389" lon="-1.67934">
        <ele>61</ele>
        <time>2022-05-14T08:19:38Z</time>
      </trkpt>
      <trkpt lat="47.19384" lon="-1.67917">
        <ele>60</ele>
        <time>2022-05-14T08:19:40Z</time>
      </trkpt>
      <trkpt lat="47.1938" lon="-1.67899">
        <ele>59</ele>
        <time>2022-05-14T08:19:42Z</time>
      </trkpt>
      <trkpt lat="47.19376" lon="-1.6788">
        <ele>58</ele>
        <time>2022-05-14T08:19:44Z</time>
      </trkpt>
      <trkpt lat="47.19373" lon="-1.67862">
        <ele>58</ele>
        <time>2022-05-14T08:19:46Z</time>
      </trkpt>
      <trkpt lat="47.1937" lon="-1.67844">
        <ele>57</ele>
        <time>2022-05-14T08:19:48Z</time>
      </trkpt>
      <trkpt lat="47.19368" lon="-1.67825">
        <ele>57</ele>
        <time>2022-05-14T08:19:50Z</time>
      </trkpt>
      <trkpt lat="47.19367" lon="-1.67806">
        <ele>57</ele>
        <time>2022-05-14T08:19:52Z</time>
      </trkpt>
      <trkpt lat="47.19368" lon="-1.67787">
        <ele>57</ele>
        <time>2022-05-14T08:19:54Z</time>
      </trkpt>
      <trkpt lat="47.19369" lon="-1.67768">
        <ele>57</ele>
        <time>2022-05-14T08:19:56Z</time>
      </trkpt>
      <trkpt lat="47.19371" lon="-1.67749">
        <ele>56</ele>
        <time>2022-05-14T08:19:58Z</time>
      </trkpt>
      <trkpt lat="47.19374" lon="-1.67729">
        <ele>56</ele>
        <time>2022-05-14T08:20:00Z</time>
      </trkpt>
      <trkpt lat="47.19378" lon="-1.6771">
        <ele>56</ele>
        <time>2022-05-14T08:20:02Z</time>
      </trkpt>
      <trkpt lat="47.19382" lon="-1.67692">
        <ele>55</ele>
        <time>2022-05-14T08:20:04Z</time>
      </trkpt>
      <trkpt lat="47.19388" lon="-1.67674">
        <ele>54</ele>
        <time>2022-05-14T08:20:06Z</time>
      </trkpt>
      <trkpt lat="47.19395" lon="-1.67656">
        <ele>53</ele>
        <time>2022-05-14T08:20:08Z</time>
      </trkpt>
      <trkpt lat="47.19402" lon="-1.67639">
        <ele>52</ele>
        <time>2022-05-14T08:20:10Z</time>
      </trkpt>
      <trkpt lat="47.1941" lon="-1.67623">
        <ele>51</ele>
        <time>2022-05-14T08:20:12Z</time>
      </trkpt>
      <trkpt lat="47.19418" lon="-1.67608">
        <ele>51</ele>
        <time>2022-05-14T08:20:14Z</time>
      </trkpt>
      <trkpt lat="47.19428" lon="-1.67594">
        <ele>50</ele>
        <time>2022-05-14T08:20:16Z</time>
      </trkpt>
      <trkpt lat="47.19438" lon="-1.67581">
        <ele>50</ele>
        <time>2022-05-14T08:20:18Z</time>
      </trkpt>
      <trkpt lat="47.19449" lon="-1.67569">
        <ele>50</ele>
        <time>2022-05-14T08:20:20Z</time>
      </trkpt>
      <trkpt lat="47.19461" lon="-1.67559">
        <ele>50</ele>
        <time>2022-05-14T08:20:22Z</time>
      </trkpt>
      <trkpt lat="47.19472" lon="-1.67549">
        <ele>50</ele>
        <time>2022-05-14T08:20:24Z</time>
      </trkpt>
      <trkpt lat="47.19483" lon="-1.67539">
        <ele>50</ele>
        <time>2022-05-14T08:20:26Z</time>
      </trkpt>
      <trkpt lat="47.19493" lon="-1.67527">
        <ele>50</ele>
        <time>2022-05-14T08:20:28Z</time>
      </trkpt>
      <trkpt lat="47.195" lon="-1.67513">
        <ele>50</ele>
        <time>2022-05-14T08:20:30Z</time>
      </trkpt>
      <trkpt lat="47.19506" lon="-1.67502">
        <ele>50</ele>
        <time>2022-05-14T08:20:32Z</time>
      </trkpt>
      <trkpt lat="47.19516" lon="-1.675">
        <ele>52</ele>
        <time>2022-05-14T08:20:35Z</time>
      </trkpt>
      <trkpt lat="47.19528" lon="-1.67501">
        <ele>54</ele>
        <time>2022-05-14T08:20:39Z</time>
      </trkpt>
      <trkpt lat="47.19537" lon="-1.67508">
        <ele>54</ele>
        <time>2022-05-14T08:20:42Z</time>
      </trkpt>
      <trkpt lat="47.19545" lon="-1.67522">
        <ele>57</ele>
        <time>2022-05-14T08:20:48Z</time>
      </trkpt>
      <trkpt lat="47.19553" lon="-1.67531">
        <ele>55</ele>
        <time>2022-05-14T08:20:50Z</time>
      </trkpt>
      <trkpt lat="47.1956" lon="-1.6754">
        <ele>54</ele>
        <time>2022-05-14T08:20:52Z</time>
      </trkpt>
      <trkpt lat="47.19569" lon="-1.67552">
        <ele>52</ele>
        <time>2022-05-14T08:20:55Z</time>
      </trkpt>
      <trkpt lat="47.19574" lon="-1.67565">
        <ele>50</ele>
        <time>2022-05-14T08:20:57Z</time>
      </trkpt>
      <trkpt lat="47.19582" lon="-1.67575">
        <ele>50</ele>
        <time>2022-05-14T08:20:59Z</time>
      </trkpt>
      <trkpt lat="47.19593" lon="-1.67586">
        <ele>51</ele>
        <time>2022-05-14T08:21:02Z</time>
      </trkpt>
      <trkpt lat="47.19598" lon="-1.67598">
        <ele>53</ele>
        <time>2022-05-14T08:21:05Z</time>
      </trkpt>
      <trkpt lat="47.19606" lon="-1.67607">
        <ele>56</ele>
        <time>2022-05-14T08:21:10Z</time>
      </trkpt>
      <trkpt lat="47.19614" lon="-1.676">
        <ele>57</ele>
        <time>2022-05-14T08:22:13Z</time>
      </trkpt>
      <trkpt lat="47.19623" lon="-1.67607">
        <ele>55</ele>
        <time>2022-05-14T08:22:24Z</time>
      </trkpt>
      <trkpt lat="47.19633" lon="-1.67612">
        <ele>55</ele>
        <time>2022-05-14T08:22:31Z</time>
      </trkpt>
      <trkpt lat="47.19644" lon="-1.67616">
        <ele>56</ele>
        <time>2022-05-14T08:22:38Z</time>
      </trkpt>
      <trkpt lat="47.19655" lon="-1.67617">
        <ele>56</ele>
        <time>2022-05-14T08:22:44Z</time>
      </trkpt>
      <trkpt lat="47.19665" lon="-1.67618">
        <ele>57</ele>
        <time>2022-05-14T08:22:50Z</time>
      </trkpt>
      <trkpt lat="47.19674" lon="-1.67616">
        <ele>56</ele>
        <time>2022-05-14T08:22:57Z</time>
      </trkpt>
      <trkpt lat="47.19684" lon="-1.67612">
        <ele>57</ele>
        <time>2022-05-14T08:23:04Z</time>
      </trkpt>
      <trkpt lat="47.19692" lon="-1.67607">
        <ele>58</ele>
        <time>2022-05-14T08:23:09Z</time>
      </trkpt>
      <trkpt lat="47.19701" lon="-1.67599">
        <ele>55</ele>
        <time>2022-05-14T08:23:15Z</time>
      </trkpt>
      <trkpt lat="47.19707" lon="-1.6759">
        <ele>56</ele>
        <time>2022-05-14T08:23:20Z</time>
      </trkpt>
      <trkpt lat="47.19714" lon="-1.67577">
        <ele>56</ele>
        <time>2022-05-14T08:23:26Z</time>
      </trkpt>
      <trkpt lat="47.19719" lon="-1.67566">
        <ele>56</ele>
        <time>2022-05-14T08:23:31Z</time>
      </trkpt>
      <trkpt lat="47.19723" lon="-1.67553">
        <ele>55</ele>
        <time>2022-05-14T08:23:36Z</time>
      </trkpt>
      <trkpt lat="47.19726" lon="-1.67539">
        <ele>55</ele>
        <time>2022-05-14T08:23:41Z</time>
      </trkpt>
      <trkpt lat="47.1973" lon="-1.67525">
        <ele>55</ele>
        <time>2022-05-14T08:23:46Z</time>
      </trkpt>
      <trkpt lat="47.19734" lon="-1.67511">
        <ele>55</ele>
        <time>2022-05-14T08:23:51Z</time>
      </trkpt>
      <trkpt lat="47.19737" lon="-1.67498">
        <ele>55</ele>
        <time>2022-05-14T08:23:57Z</time>
      </trkpt>
      <trkpt lat="47.19739" lon="-1.67485">
        <ele>55</ele>
        <time>2022-05-14T08:24:03Z</time>
      </trkpt>
      <trkpt lat="47.19741" lon="-1.6747">
        <ele>54</ele>
        <time>2022-05-14T08:24:12Z</time>
      </trkpt>
      <trkpt lat="47.19743" lon="-1.67457">
        <ele>50</ele>
        <time>2022-05-14T08:24:29Z</time>
      </trkpt>
      <trkpt lat="47.19744" lon="-1.67442">
        <ele>59</ele>
        <time>2022-05-14T08:24:35Z</time>
      </trkpt>
      <trkpt lat="47.19743" lon="-1.67427">
        <ele>62</ele>
        <time>2022-05-14T08:24:37Z</time>
      </trkpt>
      <trkpt lat="47.19742" lon="-1.6741">
        <ele>62</ele>
        <time>2022-05-14T08:24:39Z</time>
      </trkpt>
      <trkpt lat="47.19742" lon="-1.67393">
        <ele>61</ele>
        <time>2022-05-14T08:24:41Z</time>
      </trkpt>
      <trkpt lat="47.19742" lon="-1.67376">
        <ele>61</ele>
        <time>2022-05-14T08:24:43Z</time>
      </trkpt>
      <trkpt lat="47.19741" lon="-1.67359">
        <ele>61</ele>
        <time>2022-05-14T08:24:45Z</time>
      </trkpt>
      <trkpt lat="47.19744" lon="-1.67343">
        <ele>60</ele>
        <time>2022-05-14T08:24:47Z</time>
      </trkpt>
      <trkpt lat="47.19756" lon="-1.6733">
        <ele>59</ele>
        <time>2022-05-14T08:24:49Z</time>
      </trkpt>
      <trkpt lat="47.19769" lon="-1.6732">
        <ele>58</ele>
        <time>2022-05-14T08:24:51Z</time>
      </trkpt>
      <trkpt lat="47.19781" lon="-1.67307">
        <ele>58</ele>
        <time>2022-05-14T08:24:53Z</time>
      </trkpt>
      <trkpt lat="47.19792" lon="-1.67296">
        <ele>58</ele>
        <time>2022-05-14T08:24:55Z</time>
      </trkpt>
      <trkpt lat="47.19804" lon="-1.67301">
        <ele>58</ele>
        <time>2022-05-14T08:24:57Z</time>
      </trkpt>
      <trkpt lat="47.19813" lon="-1.67319">
        <ele>58</ele>
        <time>2022-05-14T08:24:59Z</time>
      </trkpt>
      <trkpt lat="47.19823" lon="-1.67337">
        <ele>56</ele>
        <time>2022-05-14T08:25:01Z</time>
      </trkpt>
      <trkpt lat="47.19832" lon="-1.67356">
        <ele>56</ele>
        <time>2022-05-14T08:25:03Z</time>
      </trkpt>
      <trkpt lat="47.19842" lon="-1.67374">
        <ele>56</ele>
        <time>2022-05-14T08:25:05Z</time>
      </trkpt>
      <trkpt lat="47.19852" lon="-1.67392">
        <ele>55</ele>
        <time>2022-05-14T08:25:07Z</time>
      </trkpt>
      <trkpt lat="47.19862" lon="-1.67411">
        <ele>55</ele>
        <time>2022-05-14T08:25:09Z</time>
      </trkpt>
      <trkpt lat="47.19871" lon="-1.6743">
        <ele>55</ele>
        <time>2022-05-14T08:25:11Z</time>
      </trkpt>
      <trkpt lat="47.1988" lon="-1.67448">
        <ele>55</ele>
        <time>2022-05-14T08:25:13Z</time>
      </trkpt>
      <trkpt lat="47.19889" lon="-1.67466">
        <ele>54</ele>
        <time>2022-05-14T08:25:15Z</time>
      </trkpt>
      <trkpt lat="47.19898" lon="-1.67484">
        <ele>53</ele>
        <time>2022-05-14T08:25:17Z</time>
      </trkpt>
      <trkpt lat="47.19907" lon="-1.67503">
        <ele>53</ele>
        <time>2022-05-14T08:25:19Z</time>
      </trkpt>
      <trkpt lat="47.19915" lon="-1.67521">
        <ele>53</ele>
        <time>2022-05-14T08:25:21Z</time>
      </trkpt>
      <trkpt lat="47.19924" lon="-1.67539">
        <ele>53</ele>
        <time>2022-05-14T08:25:23Z</time>
      </trkpt>
      <trkpt lat="47.19932" lon="-1.67558">
        <ele>53</ele>
        <time>2022-05-14T08:25:25Z</time>
      </trkpt>
      <trkpt lat="47.19941" lon="-1.67577">
        <ele>53</ele>
        <time>2022-05-14T08:25:27Z</time>
      </trkpt>
      <trkpt lat="47.1995" lon="-1.67595">
        <ele>53</ele>
        <time>2022-05-14T08:25:29Z</time>
      </trkpt>
      <trkpt lat="47.19958" lon="-1.67614">
        <ele>52</ele>
        <time>2022-05-14T08:25:31Z</time>
      </trkpt>
      <trkpt lat="47.19967" lon="-1.67631">
        <ele>53</ele>
        <time>2022-05-14T08:25:33Z</time>
      </trkpt>
      <trkpt lat="47.19977" lon="-1.67648">
        <ele>53</ele>
        <time>2022-05-14T08:25:35Z</time>
      </trkpt>
      <trkpt lat="47.19987" lon="-1.67665">
        <ele>53</ele>
        <time>2022-05-14T08:25:37Z</time>
      </trkpt>
      <trkpt lat="47.19997" lon="-1.6768">
        <ele>53</ele>
        <time>2022-05-14T08:25:39Z</time>
      </trkpt>
      <trkpt lat="47.20007" lon="-1.67697">
        <ele>53</ele>
        <time>2022-05-14T08:25:41Z</time>
      </trkpt>
      <trkpt lat="47.20017" lon="-1.67714">
        <ele>53</ele>
        <time>2022-05-14T08:25:43Z</time>
      </trkpt>
      <trkpt lat="47.20027" lon="-1.67731">
        <ele>53</ele>
        <time>2022-05-14T08:25:45Z</time>
      </trkpt>
      <trkpt lat="47.20037" lon="-1.67747">
        <ele>52</ele>
        <time>2022-05-14T08:25:47Z</time>
      </trkpt>
      <trkpt lat="47.20047" lon="-1.67765">
        <ele>52</ele>
        <time>2022-05-14T08:25:49Z</time>
      </trkpt>
      <trkpt lat="47.20056" lon="-1.67782">
        <ele>52</ele>
        <time>2022-05-14T08:25:51Z</time>
      </trkpt>
      <trkpt lat="47.20066" lon="-1.67798">
        <ele>52</ele>
        <time>2022-05-14T08:25:53Z</time>
      </trkpt>
      <trkpt lat="47.20076" lon="-1.67815">
        <ele>53</ele>
        <time>2022-05-14T08:25:55Z</time>
      </trkpt>
      <trkpt lat="47.20085" lon="-1.67832">
        <ele>52</ele>
        <time>2022-05-14T08:25:57Z</time>
      </trkpt>
      <trkpt lat="47.20094" lon="-1.67849">
        <ele>53</ele>
        <time>2022-05-14T08:25:59Z</time>
      </trkpt>
      <trkpt lat="47.20104" lon="-1.67866">
        <ele>53</ele>
        <time>2022-05-14T08:26:01Z</time>
      </trkpt>
      <trkpt lat="47.20112" lon="-1.67882">
        <ele>53</ele>
        <time>2022-05-14T08:26:03Z</time>
      </trkpt>
      <trkpt lat="47.20121" lon="-1.67898">
        <ele>53</ele>
        <time>2022-05-14T08:26:05Z</time>
      </trkpt>
      <trkpt lat="47.20131" lon="-1.67912">
        <ele>54</ele>
        <time>2022-05-14T08:26:07Z</time>
      </trkpt>
      <trkpt lat="47.20144" lon="-1.67912">
        <ele>55</ele>
        <time>2022-05-14T08:26:09Z</time>
      </trkpt>
      <trkpt lat="47.20155" lon="-1.67898">
        <ele>57</ele>
        <time>2022-05-14T08:26:11Z</time>
      </trkpt>
      <trkpt lat="47.20165" lon="-1.67888">
        <ele>59</ele>
        <time>2022-05-14T08:26:13Z</time>
      </trkpt>
      <trkpt lat="47.20175" lon="-1.67879">
        <ele>60</ele>
        <time>2022-05-14T08:26:15Z</time>
      </trkpt>
      <trkpt lat="47.20185" lon="-1.67869">
        <ele>61</ele>
        <time>2022-05-14T08:26:17Z</time>
      </trkpt>
      <trkpt lat="47.20195" lon="-1.67859">
        <ele>61</ele>
        <time>2022-05-14T08:26:19Z</time>
      </trkpt>
      <trkpt lat="47.20206" lon="-1.67853">
        <ele>61</ele>
        <time>2022-05-14T08:26:21Z</time>
      </trkpt>
      <trkpt lat="47.20218" lon="-1.67845">
        <ele>61</ele>
        <time>2022-05-14T08:26:23Z</time>
      </trkpt>
      <trkpt lat="47.20229" lon="-1.67834">
        <ele>62</ele>
        <time>2022-05-14T08:26:25Z</time>
      </trkpt>
      <trkpt lat="47.20229" lon="-1.67813">
        <ele>63</ele>
        <time>2022-05-14T08:26:27Z</time>
      </trkpt>
      <trkpt lat="47.20223" lon="-1.6779">
        <ele>63</ele>
        <time>2022-05-14T08:26:29Z</time>
      </trkpt>
      <trkpt lat="47.20215" lon="-1.67769">
        <ele>63</ele>
        <time>2022-05-14T08:26:31Z</time>
      </trkpt>
      <trkpt lat="47.20207" lon="-1.67749">
        <ele>63</ele>
        <time>2022-05-14T08:26:33Z</time>
      </trkpt>
      <trkpt lat="47.202" lon="-1.67729">
        <ele>63</ele>
        <time>2022-05-14T08:26:35Z</time>
      </trkpt>
      <trkpt lat="47.20193" lon="-1.67709">
        <ele>63</ele>
        <time>2022-05-14T08:26:37Z</time>
      </trkpt>
      <trkpt lat="47.20186" lon="-1.6769">
        <ele>62</ele>
        <time>2022-05-14T08:26:39Z</time>
      </trkpt>
      <trkpt lat="47.20178" lon="-1.67672">
        <ele>63</ele>
        <time>2022-05-14T08:26:41Z</time>
      </trkpt>
      <trkpt lat="47.20171" lon="-1.67654">
        <ele>63</ele>
        <time>2022-05-14T08:26:43Z</time>
      </trkpt>
      <trkpt lat="47.20164" lon="-1.67634">
        <ele>62</ele>
        <time>2022-05-14T08:26:45Z</time>
      </trkpt>
      <trkpt lat="47.20157" lon="-1.67616">
        <ele>62</ele>
        <time>2022-05-14T08:26:47Z</time>
      </trkpt>
      <trkpt lat="47.2015" lon="-1.67597">
        <ele>62</ele>
        <time>2022-05-14T08:26:49Z</time>
      </trkpt>
      <trkpt lat="47.20145" lon="-1.67578">
        <ele>62</ele>
        <time>2022-05-14T08:26:51Z</time>
      </trkpt>
      <trkpt lat="47.20139" lon="-1.67562">
        <ele>62</ele>
        <time>2022-05-14T08:26:53Z</time>
      </trkpt>
      <trkpt lat="47.20132" lon="-1.67545">
        <ele>62</ele>
        <time>2022-05-14T08:26:55Z</time>
      </trkpt>
      <trkpt lat="47.20125" lon="-1.6753">
        <ele>62</ele>
        <time>2022-05-14T08:26:57Z</time>
      </trkpt>
      <trkpt lat="47.20119" lon="-1.67514">
        <ele>62</ele>
        <time>2022-05-14T08:26:59Z</time>
      </trkpt>
      <trkpt lat="47.20114" lon="-1.67499">
        <ele>62</ele>
        <time>2022-05-14T08:27:01Z</time>
      </trkpt>
      <trkpt lat="47.20114" lon="-1.67484">
        <ele>63</ele>
        <time>2022-05-14T08:27:03Z</time>
      </trkpt>
      <trkpt lat="47.20126" lon="-1.67476">
        <ele>63</ele>
        <time>2022-05-14T08:27:05Z</time>
      </trkpt>
      <trkpt lat="47.2014" lon="-1.67469">
        <ele>63</ele>
        <time>2022-05-14T08:27:07Z</time>
      </trkpt>
      <trkpt lat="47.20154" lon="-1.67462">
        <ele>62</ele>
        <time>2022-05-14T08:27:09Z</time>
      </trkpt>
      <trkpt lat="47.20169" lon="-1.67456">
        <ele>62</ele>
        <time>2022-05-14T08:27:11Z</time>
      </trkpt>
      <trkpt lat="47.20183" lon="-1.67449">
        <ele>62</ele>
        <time>2022-05-14T08:27:13Z</time>
      </trkpt>
      <trkpt lat="47.20196" lon="-1.67443">
        <ele>61</ele>
        <time>2022-05-14T08:27:15Z</time>
      </trkpt>
      <trkpt lat="47.20211" lon="-1.67437">
        <ele>61</ele>
        <time>2022-05-14T08:27:17Z</time>
      </trkpt>
      <trkpt lat="47.20224" lon="-1.6743">
        <ele>60</ele>
        <time>2022-05-14T08:27:19Z</time>
      </trkpt>
      <trkpt lat="47.20237" lon="-1.67424">
        <ele>60</ele>
        <time>2022-05-14T08:27:21Z</time>
      </trkpt>
      <trkpt lat="47.2025" lon="-1.67417">
        <ele>60</ele>
        <time>2022-05-14T08:27:23Z</time>
      </trkpt>
      <trkpt lat="47.20263" lon="-1.67411">
        <ele>60</ele>
        <time>2022-05-14T08:27:25Z</time>
      </trkpt>
      <trkpt lat="47.20276" lon="-1.67405">
        <ele>60</ele>
        <time>2022-05-14T08:27:27Z</time>
      </trkpt>
      <trkpt lat="47.20288" lon="-1.67399">
        <ele>59</ele>
        <time>2022-05-14T08:27:29Z</time>
      </trkpt>
      <trkpt lat="47.203" lon="-1.67393">
        <ele>58</ele>
        <time>2022-05-14T08:27:31Z</time>
      </trkpt>
      <trkpt lat="47.20313" lon="-1.67387">
        <ele>58</ele>
        <time>2022-05-14T08:27:33Z</time>
      </trkpt>
      <trkpt lat="47.20326" lon="-1.67384">
        <ele>57</ele>
        <time>2022-05-14T08:27:35Z</time>
      </trkpt>
      <trkpt lat="47.2034" lon="-1.67389">
        <ele>57</ele>
        <time>2022-05-14T08:27:37Z</time>
      </trkpt>
      <trkpt lat="47.20353" lon="-1.674">
        <ele>56</ele>
        <time>2022-05-14T08:27:39Z</time>
      </trkpt>
      <trkpt lat="47.20363" lon="-1.67415">
        <ele>55</ele>
        <time>2022-05-14T08:27:41Z</time>
      </trkpt>
      <trkpt lat="47.20369" lon="-1.67435">
        <ele>54</ele>
        <time>2022-05-14T08:27:43Z</time>
      </trkpt>
      <trkpt lat="47.20374" lon="-1.67455">
        <ele>54</ele>
        <time>2022-05-14T08:27:45Z</time>
      </trkpt>
      <trkpt lat="47.20377" lon="-1.67476">
        <ele>53</ele>
        <time>2022-05-14T08:27:47Z</time>
      </trkpt>
      <trkpt lat="47.2038" lon="-1.67497">
        <ele>53</ele>
        <time>2022-05-14T08:27:49Z</time>
      </trkpt>
      <trkpt lat="47.20383" lon="-1.67517">
        <ele>53</ele>
        <time>2022-05-14T08:27:51Z</time>
      </trkpt>
      <trkpt lat="47.20388" lon="-1.67536">
        <ele>53</ele>
        <time>2022-05-14T08:27:53Z</time>
      </trkpt>
      <trkpt lat="47.20398" lon="-1.67549">
        <ele>53</ele>
        <time>2022-05-14T08:27:55Z</time>
      </trkpt>
      <trkpt lat="47.20408" lon="-1.67549">
        <ele>53</ele>
        <time>2022-05-14T08:27:58Z</time>
      </trkpt>
      <trkpt lat="47.20416" lon="-1.67538">
        <ele>54</ele>
        <time>2022-05-14T08:28:01Z</time>
      </trkpt>
      <trkpt lat="47.20427" lon="-1.67532">
        <ele>54</ele>
        <time>2022-05-14T08:28:03Z</time>
      </trkpt>
      <trkpt lat="47.2044" lon="-1.67538">
        <ele>54</ele>
        <time>2022-05-14T08:28:05Z</time>
      </trkpt>
      <trkpt lat="47.20447" lon="-1.67554">
        <ele>53</ele>
        <time>2022-05-14T08:28:07Z</time>
      </trkpt>
      <trkpt lat="47.20452" lon="-1.67574">
        <ele>53</ele>
        <time>2022-05-14T08:28:09Z</time>
      </trkpt>
      <trkpt lat="47.20462" lon="-1.67591">
        <ele>53</ele>
        <time>2022-05-14T08:28:11Z</time>
      </trkpt>
      <trkpt lat="47.20472" lon="-1.67606">
        <ele>53</ele>
        <time>2022-05-14T08:28:13Z</time>
      </trkpt>
      <trkpt lat="47.2048" lon="-1.67623">
        <ele>53</ele>
        <time>2022-05-14T08:28:15Z</time>
      </trkpt>
      <trkpt lat="47.20488" lon="-1.67641">
        <ele>53</ele>
        <time>2022-05-14T08:28:17Z</time>
      </trkpt>
      <trkpt lat="47.20495" lon="-1.67659">
        <ele>53</ele>
        <time>2022-05-14T08:28:19Z</time>
      </trkpt>
      <trkpt lat="47.20502" lon="-1.67678">
        <ele>53</ele>
        <time>2022-05-14T08:28:21Z</time>
      </trkpt>
      <trkpt lat="47.20509" lon="-1.67696">
        <ele>53</ele>
        <time>2022-05-14T08:28:23Z</time>
      </trkpt>
      <trkpt lat="47.20516" lon="-1.67714">
        <ele>53</ele>
        <time>2022-05-14T08:28:25Z</time>
      </trkpt>
      <trkpt lat="47.20522" lon="-1.67733">
        <ele>53</ele>
        <time>2022-05-14T08:28:27Z</time>
      </trkpt>
      <trkpt lat="47.20529" lon="-1.67752">
        <ele>53</ele>
        <time>2022-05-14T08:28:29Z</time>
      </trkpt>
      <trkpt lat="47.20536" lon="-1.67771">
        <ele>53</ele>
        <time>2022-05-14T08:28:31Z</time>
      </trkpt>
      <trkpt lat="47.20542" lon="-1.67789">
        <ele>53</ele>
        <time>2022-05-14T08:28:33Z</time>
      </trkpt>
      <trkpt lat="47.20548" lon="-1.67808">
        <ele>53</ele>
        <time>2022-05-14T08:28:35Z</time>
      </trkpt>
      <trkpt lat="47.20554" lon="-1.67827">
        <ele>53</ele>
        <time>2022-05-14T08:28:37Z</time>
      </trkpt>
      <trkpt lat="47.2056" lon="-1.67845">
        <ele>53</ele>
        <time>2022-05-14T08:28:39Z</time>
      </trkpt>
      <trkpt lat="47.20566" lon="-1.67865">
        <ele>53</ele>
        <time>2022-05-14T08:28:41Z</time>
      </trkpt>
      <trkpt lat="47.20572" lon="-1.67883">
        <ele>53</ele>
        <time>2022-05-14T08:28:43Z</time>
      </trkpt>
      <trkpt lat="47.20578" lon="-1.67902">
        <ele>53</ele>
        <time>2022-05-14T08:28:45Z</time>
      </trkpt>
      <trkpt lat="47.20584" lon="-1.67921">
        <ele>53</ele>
        <time>2022-05-14T08:28:47Z</time>
      </trkpt>
      <trkpt lat="47.20589" lon="-1.6794">
        <ele>53</ele>
        <time>2022-05-14T08:28:49Z</time>
      </trkpt>
      <trkpt lat="47.20595" lon="-1.67958">
        <ele>53</ele>
        <time>2022-05-14T08:28:51Z</time>
      </trkpt>
      <trkpt lat="47.206" lon="-1.67977">
        <ele>53</ele>
        <time>2022-05-14T08:28:53Z</time>
      </trkpt>
      <trkpt lat="47.20605" lon="-1.67996">
        <ele>53</ele>
        <time>2022-05-14T08:28:55Z</time>
      </trkpt>
      <trkpt lat="47.20611" lon="-1.68015">
        <ele>53</ele>
        <time>2022-05-14T08:28:57Z</time>
      </trkpt>
      <trkpt lat="47.20617" lon="-1.68034">
        <ele>53</ele>
        <time>2022-05-14T08:28:59Z</time>
      </trkpt>
      <trkpt lat="47.20623" lon="-1.68054">
        <ele>53</ele>
        <time>2022-05-14T08:29:01Z</time>
      </trkpt>
      <trkpt lat="47.20628" lon="-1.68073">
        <ele>54</ele>
        <time>2022-05-14T08:29:03Z</time>
      </trkpt>
      <trkpt lat="47.20634" lon="-1.68092">
        <ele>53</ele>
        <time>2022-05-14T08:29:05Z</time>
      </trkpt>
      <trkpt lat="47.20639" lon="-1.68111">
        <ele>54</ele>
        <time>2022-05-14T08:29:07Z</time>
      </trkpt>
      <trkpt lat="47.20645" lon="-1.6813">
        <ele>54</ele>
        <time>2022-05-14T08:29:09Z</time>
      </trkpt>
      <trkpt lat="47.20651" lon="-1.6815">
        <ele>54</ele>
        <time>2022-05-14T08:29:11Z</time>
      </trkpt>
      <trkpt lat="47.20657" lon="-1.6817">
        <ele>53</ele>
        <time>2022-05-14T08:29:13Z</time>
      </trkpt>
      <trkpt lat="47.20663" lon="-1.6819">
        <ele>53</ele>
        <time>2022-05-14T08:29:15Z</time>
      </trkpt>
      <trkpt lat="47.20669" lon="-1.6821">
        <ele>54</ele>
        <time>2022-05-14T08:29:17Z</time>
      </trkpt>
      <trkpt lat="47.20674" lon="-1.6823">
        <ele>54</ele>
        <time>2022-05-14T08:29:19Z</time>
      </trkpt>
      <trkpt lat="47.2068" lon="-1.68249">
        <ele>54</ele>
        <time>2022-05-14T08:29:21Z</time>
      </trkpt>
      <trkpt lat="47.20686" lon="-1.68268">
        <ele>53</ele>
        <time>2022-05-14T08:29:23Z</time>
      </trkpt>
      <trkpt lat="47.20691" lon="-1.68288">
        <ele>53</ele>
        <time>2022-05-14T08:29:25Z</time>
      </trkpt>
      <trkpt lat="47.20697" lon="-1.68306">
        <ele>53</ele>
        <time>2022-05-14T08:29:27Z</time>
      </trkpt>
      <trkpt lat="47.20703" lon="-1.68325">
        <ele>53</ele>
        <time>2022-05-14T08:29:29Z</time>
      </trkpt>
      <trkpt lat="47.20708" lon="-1.68344">
        <ele>53</ele>
        <time>2022-05-14T08:29:31Z</time>
      </trkpt>
      <trkpt lat="47.20716" lon="-1.68362">
        <ele>53</ele>
        <time>2022-05-14T08:29:33Z</time>
      </trkpt>
      <trkpt lat="47.20729" lon="-1.68373">
        <ele>53</ele>
        <time>2022-05-14T08:29:35Z</time>
      </trkpt>
      <trkpt lat="47.20743" lon="-1.68382">
        <ele>53</ele>
        <time>2022-05-14T08:29:37Z</time>
      </trkpt>
      <trkpt lat="47.20758" lon="-1.68385">
        <ele>53</ele>
        <time>2022-05-14T08:29:39Z</time>
      </trkpt>
      <trkpt lat="47.20773" lon="-1.68387">
        <ele>54</ele>
        <time>2022-05-14T08:29:41Z</time>
      </trkpt>
      <trkpt lat="47.20787" lon="-1.68388">
        <ele>53</ele>
        <time>2022-05-14T08:29:43Z</time>
      </trkpt>
      <trkpt lat="47.20801" lon="-1.6839">
        <ele>54</ele>
        <time>2022-05-14T08:29:45Z</time>
      </trkpt>
      <trkpt lat="47.20815" lon="-1.68391">
        <ele>54</ele>
        <time>2022-05-14T08:29:47Z</time>
      </trkpt>
      <trkpt lat="47.20829" lon="-1.68392">
        <ele>54</ele>
        <time>2022-05-14T08:29:49Z</time>
      </trkpt>
      <trkpt lat="47.20842" lon="-1.68393">
        <ele>54</ele>
        <time>2022-05-14T08:29:51Z</time>
      </trkpt>
      <trkpt lat="47.20856" lon="-1.68393">
        <ele>54</ele>
        <time>2022-05-14T08:29:53Z</time>
      </trkpt>
      <trkpt lat="47.20869" lon="-1.68394">
        <ele>54</ele>
        <time>2022-05-14T08:29:55Z</time>
      </trkpt>
      <trkpt lat="47.20883" lon="-1.68395">
        <ele>54</ele>
        <time>2022-05-14T08:29:57Z</time>
      </trkpt>
      <trkpt lat="47.20897" lon="-1.68395">
        <ele>54</ele>
        <time>2022-05-14T08:29:59Z</time>
      </trkpt>
      <trkpt lat="47.20911" lon="-1.68395">
        <ele>55</ele>
        <time>2022-05-14T08:30:01Z</time>
      </trkpt>
      <trkpt lat="47.20925" lon="-1.68396">
        <ele>55</ele>
        <time>2022-05-14T08:30:03Z</time>
      </trkpt>
      <trkpt lat="47.20939" lon="-1.68396">
        <ele>55</ele>
        <time>2022-05-14T08:30:05Z</time>
      </trkpt>
      <trkpt lat="47.20953" lon="-1.68397">
        <ele>56</ele>
        <time>2022-05-14T08:30:07Z</time>
      </trkpt>
      <trkpt lat="47.20967" lon="-1.68397">
        <ele>56</ele>
        <time>2022-05-14T08:30:09Z</time>
      </trkpt>
      <trkpt lat="47.2098" lon="-1.68398">
        <ele>57</ele>
        <time>2022-05-14T08:30:11Z</time>
      </trkpt>
      <trkpt lat="47.20994" lon="-1.68399">
        <ele>57</ele>
        <time>2022-05-14T08:30:13Z</time>
      </trkpt>
      <trkpt lat="47.21008" lon="-1.684">
        <ele>56</ele>
        <time>2022-05-14T08:30:15Z</time>
      </trkpt>
      <trkpt lat="47.21022" lon="-1.684">
        <ele>56</ele>
        <time>2022-05-14T08:30:17Z</time>
      </trkpt>
      <trkpt lat="47.21036" lon="-1.68401">
        <ele>55</ele>
        <time>2022-05-14T08:30:19Z</time>
      </trkpt>
      <trkpt lat="47.2105" lon="-1.68401">
        <ele>55</ele>
        <time>2022-05-14T08:30:21Z</time>
      </trkpt>
      <trkpt lat="47.21064" lon="-1.68402">
        <ele>55</ele>
        <time>2022-05-14T08:30:23Z</time>
      </trkpt>
      <trkpt lat="47.21078" lon="-1.68402">
        <ele>54</ele>
        <time>2022-05-14T08:30:25Z</time>
      </trkpt>
      <trkpt lat="47.21092" lon="-1.68403">
        <ele>54</ele>
        <time>2022-05-14T08:30:27Z</time>
      </trkpt>
      <trkpt lat="47.21106" lon="-1.68403">
        <ele>54</ele>
        <time>2022-05-14T08:30:29Z</time>
      </trkpt>
      <trkpt lat="47.2112" lon="-1.68404">
        <ele>54</ele>
        <time>2022-05-14T08:30:31Z</time>
      </trkpt>
      <trkpt lat="47.21133" lon="-1.68405">
        <ele>55</ele>
        <time>2022-05-14T08:30:33Z</time>
      </trkpt>
      <trkpt lat="47.21146" lon="-1.68405">
        <ele>55</ele>
        <time>2022-05-14T08:30:35Z</time>
      </trkpt>
      <trkpt lat="47.21158" lon="-1.68406">
        <ele>55</ele>
        <time>2022-05-14T08:30:37Z</time>
      </trkpt>
      <trkpt lat="47.2117" lon="-1.68406">
        <ele>56</ele>
        <time>2022-05-14T08:30:39Z</time>
      </trkpt>
      <trkpt lat="47.2118" lon="-1.68404">
        <ele>57</ele>
        <time>2022-05-14T08:30:41Z</time>
      </trkpt>
      <trkpt lat="47.21189" lon="-1.68396">
        <ele>57</ele>
        <time>2022-05-14T08:30:43Z</time>
      </trkpt>
      <trkpt lat="47.21192" lon="-1.68383">
        <ele>58</ele>
        <time>2022-05-14T08:30:45Z</time>
      </trkpt>
      <trkpt lat="47.21191" lon="-1.68369">
        <ele>58</ele>
        <time>2022-05-14T08:30:47Z</time>
      </trkpt>
      <trkpt lat="47.21191" lon="-1.68354">
        <ele>58</ele>
        <time>2022-05-14T08:30:49Z</time>
      </trkpt>
      <trkpt lat="47.2119" lon="-1.68339">
        <ele>58</ele>
        <time>2022-05-14T08:30:51Z</time>
      </trkpt>
      <trkpt lat="47.21189" lon="-1.68325">
        <ele>58</ele>
        <time>2022-05-14T08:30:53Z</time>
      </trkpt>
      <trkpt lat="47.21188" lon="-1.68311">
        <ele>59</ele>
        <time>2022-05-14T08:30:55Z</time>
      </trkpt>
      <trkpt lat="47.21191" lon="-1.68297">
        <ele>59</ele>
        <time>2022-05-14T08:30:57Z</time>
      </trkpt>
      <trkpt lat="47.21197" lon="-1.68287">
        <ele>60</ele>
        <time>2022-05-14T08:30:59Z</time>
      </trkpt>
      <trkpt lat="47.21206" lon="-1.68279">
        <ele>60</ele>
        <time>2022-05-14T08:31:01Z</time>
      </trkpt>
      <trkpt lat="47.21215" lon="-1.68275">
        <ele>60</ele>
        <time>2022-05-14T08:31:03Z</time>
      </trkpt>
      <trkpt lat="47.21225" lon="-1.68273">
        <ele>61</ele>
        <time>2022-05-14T08:31:05Z</time>
      </trkpt>
      <trkpt lat="47.21235" lon="-1.68271">
        <ele>62</ele>
        <time>2022-05-14T08:31:07Z</time>
      </trkpt>
      <trkpt lat="47.21245" lon="-1.68269">
        <ele>62</ele>
        <time>2022-05-14T08:31:09Z</time>
      </trkpt>
      <trkpt lat="47.21254" lon="-1.68267">
        <ele>64</ele>
        <time>2022-05-14T08:31:11Z</time>
      </trkpt>
      <trkpt lat="47.21264" lon="-1.68263">
        <ele>65</ele>
        <time>2022-05-14T08:31:13Z</time>
      </trkpt>
      <trkpt lat="47.21273" lon="-1.68259">
        <ele>66</ele>
        <time>2022-05-14T08:31:15Z</time>
      </trkpt>
      <trkpt lat="47.21282" lon="-1.68255">
        <ele>67</ele>
        <time>2022-05-14T08:31:17Z</time>
      </trkpt>
      <trkpt lat="47.21291" lon="-1.68251">
        <ele>68</ele>
        <time>2022-05-14T08:31:19Z</time>
      </trkpt>
      <trkpt lat="47.21299" lon="-1.68246">
        <ele>68</ele>
        <time>2022-05-14T08:31:21Z</time>
      </trkpt>
      <trkpt lat="47.21308" lon="-1.68242">
        <ele>69</ele>
        <time>2022-05-14T08:31:23Z</time>
      </trkpt>
      <trkpt lat="47.21317" lon="-1.68238">
        <ele>69</ele>
        <time>2022-05-14T08:31:25Z</time>
      </trkpt>
      <trkpt lat="47.21326" lon="-1.68234">
        <ele>70</ele>
        <time>2022-05-14T08:31:27Z</time>
      </trkpt>
      <trkpt lat="47.21336" lon="-1.68231">
        <ele>71</ele>
        <time>2022-05-14T08:31:29Z</time>
      </trkpt>
      <trkpt lat="47.21345" lon="-1.68228">
        <ele>72</ele>
        <time>2022-05-14T08:31:31Z</time>
      </trkpt>
      <trkpt lat="47.21355" lon="-1.68225">
        <ele>72</ele>
        <time>2022-05-14T08:31:33Z</time>
      </trkpt>
      <trkpt lat="47.21366" lon="-1.68223">
        <ele>73</ele>
        <time>2022-05-14T08:31:35Z</time>
      </trkpt>
      <trkpt lat="47.21376" lon="-1.6822">
        <ele>73</ele>
        <time>2022-05-14T08:31:37Z</time>
      </trkpt>
      <trkpt lat="47.21387" lon="-1.68219">
        <ele>74</ele>
        <time>2022-05-14T08:31:39Z</time>
      </trkpt>
      <trkpt lat="47.21397" lon="-1.68218">
        <ele>74</ele>
        <time>2022-05-14T08:31:41Z</time>
      </trkpt>
      <trkpt lat="47.21407" lon="-1.68217">
        <ele>74</ele>
        <time>2022-05-14T08:31:43Z</time>
      </trkpt>
      <trkpt lat="47.21418" lon="-1.68216">
        <ele>75</ele>
        <time>2022-05-14T08:31:45Z</time>
      </trkpt>
      <trkpt lat="47.21428" lon="-1.68214">
        <ele>75</ele>
        <time>2022-05-14T08:31:47Z</time>
      </trkpt>
      <trkpt lat="47.21438" lon="-1.68212">
        <ele>75</ele>
        <time>2022-05-14T08:31:49Z</time>
      </trkpt>
      <trkpt lat="47.21452" lon="-1.68211">
        <ele>77</ele>
        <time>2022-05-14T08:31:52Z</time>
      </trkpt>
      <trkpt lat="47.21462" lon="-1.68211">
        <ele>78</ele>
        <time>2022-05-14T08:31:54Z</time>
      </trkpt>
      <trkpt lat="47.21472" lon="-1.68209">
        <ele>79</ele>
        <time>2022-05-14T08:31:56Z</time>
      </trkpt>
      <trkpt lat="47.21481" lon="-1.68205">
        <ele>80</ele>
        <time>2022-05-14T08:31:58Z</time>
      </trkpt>
      <trkpt lat="47.2149" lon="-1.68199">
        <ele>80</ele>
        <time>2022-05-14T08:32:00Z</time>
      </trkpt>
      <trkpt lat="47.215" lon="-1.68194">
        <ele>80</ele>
        <time>2022-05-14T08:32:02Z</time>
      </trkpt>
      <trkpt lat="47.21509" lon="-1.68189">
        <ele>80</ele>
        <time>2022-05-14T08:32:04Z</time>
      </trkpt>
      <trkpt lat="47.21517" lon="-1.68183">
        <ele>80</ele>
        <time>2022-05-14T08:32:06Z</time>
      </trkpt>
      <trkpt lat="47.21526" lon="-1.68177">
        <ele>80</ele>
        <time>2022-05-14T08:32:09Z</time>
      </trkpt>
      <trkpt lat="47.21537" lon="-1.68168">
        <ele>80</ele>
        <time>2022-05-14T08:32:12Z</time>
      </trkpt>
      <trkpt lat="47.21547" lon="-1.68171">
        <ele>80</ele>
        <time>2022-05-14T08:32:14Z</time>
      </trkpt>
      <trkpt lat="47.21561" lon="-1.68174">
        <ele>81</ele>
        <time>2022-05-14T08:32:17Z</time>
      </trkpt>
      <trkpt lat="47.21573" lon="-1.68175">
        <ele>80</ele>
        <time>2022-05-14T08:32:19Z</time>
      </trkpt>
      <trkpt lat="47.21584" lon="-1.68177">
        <ele>80</ele>
        <time>2022-05-14T08:32:21Z</time>
      </trkpt>
      <trkpt lat="47.21593" lon="-1.68179">
        <ele>81</ele>
        <time>2022-05-14T08:32:23Z</time>
      </trkpt>
      <trkpt lat="47.21603" lon="-1.68182">
        <ele>81</ele>
        <time>2022-05-14T08:32:25Z</time>
      </trkpt>
      <trkpt lat="47.21613" lon="-1.68185">
        <ele>81</ele>
        <time>2022-05-14T08:32:27Z</time>
      </trkpt>
      <trkpt lat="47.21625" lon="-1.68188">
        <ele>82</ele>
        <time>2022-05-14T08:32:29Z</time>
      </trkpt>
      <trkpt lat="47.21638" lon="-1.6819">
        <ele>84</ele>
        <time>2022-05-14T08:32:31Z</time>
      </trkpt>
      <trkpt lat="47.21651" lon="-1.68191">
        <ele>84</ele>
        <time>2022-05-14T08:32:33Z</time>
      </trkpt>
      <trkpt lat="47.21665" lon="-1.68193">
        <ele>84</ele>
        <time>2022-05-14T08:32:35Z</time>
      </trkpt>
      <trkpt lat="47.2168" lon="-1.68197">
        <ele>84</ele>
        <time>2022-05-14T08:32:37Z</time>
      </trkpt>
      <trkpt lat="47.21694" lon="-1.68201">
        <ele>84</ele>
        <time>2022-05-14T08:32:39Z</time>
      </trkpt>
      <trkpt lat="47.2171" lon="-1.68205">
        <ele>83</ele>
        <time>2022-05-14T08:32:41Z</time>
      </trkpt>
      <trkpt lat="47.21724" lon="-1.68208">
        <ele>83</ele>
        <time>2022-05-14T08:32:43Z</time>
      </trkpt>
      <trkpt lat="47.21738" lon="-1.68212">
        <ele>83</ele>
        <time>2022-05-14T08:32:45Z</time>
      </trkpt>
      <trkpt lat="47.21752" lon="-1.68215">
        <ele>83</ele>
        <time>2022-05-14T08:32:47Z</time>
      </trkpt>
      <trkpt lat="47.21766" lon="-1.68219">
        <ele>82</ele>
        <time>2022-05-14T08:32:49Z</time>
      </trkpt>
      <trkpt lat="47.21781" lon="-1.68223">
        <ele>81</ele>
        <time>2022-05-14T08:32:51Z</time>
      </trkpt>
      <trkpt lat="47.21795" lon="-1.68224">
        <ele>81</ele>
        <time>2022-05-14T08:32:53Z</time>
      </trkpt>
      <trkpt lat="47.2181" lon="-1.68224">
        <ele>80</ele>
        <time>2022-05-14T08:32:55Z</time>
      </trkpt>
      <trkpt lat="47.21824" lon="-1.68226">
        <ele>80</ele>
        <time>2022-05-14T08:32:57Z</time>
      </trkpt>
      <trkpt lat="47.21838" lon="-1.68228">
        <ele>80</ele>
        <time>2022-05-14T08:32:59Z</time>
      </trkpt>
      <trkpt lat="47.21852" lon="-1.68229">
        <ele>80</ele>
        <time>2022-05-14T08:33:01Z</time>
      </trkpt>
      <trkpt lat="47.21867" lon="-1.68228">
        <ele>79</ele>
        <time>2022-05-14T08:33:03Z</time>
      </trkpt>
      <trkpt lat="47.21881" lon="-1.68225">
        <ele>80</ele>
        <time>2022-05-14T08:33:05Z</time>
      </trkpt>
      <trkpt lat="47.21894" lon="-1.68219">
        <ele>80</ele>
        <time>2022-05-14T08:33:07Z</time>
      </trkpt>
      <trkpt lat="47.21907" lon="-1.68212">
        <ele>81</ele>
        <time>2022-05-14T08:33:09Z</time>
      </trkpt>
      <trkpt lat="47.21919" lon="-1.68204">
        <ele>81</ele>
        <time>2022-05-14T08:33:11Z</time>
      </trkpt>
      <trkpt lat="47.21931" lon="-1.68196">
        <ele>81</ele>
        <time>2022-05-14T08:33:13Z</time>
      </trkpt>
      <trkpt lat="47.21943" lon="-1.68189">
        <ele>81</ele>
        <time>2022-05-14T08:33:15Z</time>
      </trkpt>
      <trkpt lat="47.21955" lon="-1.68181">
        <ele>81</ele>
        <time>2022-05-14T08:33:17Z</time>
      </trkpt>
      <trkpt lat="47.21967" lon="-1.68173">
        <ele>81</ele>
        <time>2022-05-14T08:33:19Z</time>
      </trkpt>
      <trkpt lat="47.21978" lon="-1.68165">
        <ele>81</ele>
        <time>2022-05-14T08:33:21Z</time>
      </trkpt>
      <trkpt lat="47.2199" lon="-1.68157">
        <ele>81</ele>
        <time>2022-05-14T08:33:23Z</time>
      </trkpt>
      <trkpt lat="47.22001" lon="-1.68149">
        <ele>81</ele>
        <time>2022-05-14T08:33:25Z</time>
      </trkpt>
      <trkpt lat="47.22011" lon="-1.68141">
        <ele>81</ele>
        <time>2022-05-14T08:33:27Z</time>
      </trkpt>
      <trkpt lat="47.22021" lon="-1.68132">
        <ele>81</ele>
        <time>2022-05-14T08:33:29Z</time>
      </trkpt>
      <trkpt lat="47.2203" lon="-1.68122">
        <ele>81</ele>
        <time>2022-05-14T08:33:31Z</time>
      </trkpt>
      <trkpt lat="47.22039" lon="-1.68112">
        <ele>82</ele>
        <time>2022-05-14T08:33:33Z</time>
      </trkpt>
      <trkpt lat="47.22048" lon="-1.68101">
        <ele>82</ele>
        <time>2022-05-14T08:33:35Z</time>
      </trkpt>
      <trkpt lat="47.22057" lon="-1.6809">
        <ele>82</ele>
        <time>2022-05-14T08:33:37Z</time>
      </trkpt>
      <trkpt lat="47.22065" lon="-1.68078">
        <ele>82</ele>
        <time>2022-05-14T08:33:39Z</time>
      </trkpt>
      <trkpt lat="47.22074" lon="-1.68067">
        <ele>82</ele>
        <time>2022-05-14T08:33:41Z</time>
      </trkpt>
      <trkpt lat="47.22083" lon="-1.68055">
        <ele>83</ele>
        <time>2022-05-14T08:33:43Z</time>
      </trkpt>
      <trkpt lat="47.22092" lon="-1.68044">
        <ele>83</ele>
        <time>2022-05-14T08:33:45Z</time>
      </trkpt>
      <trkpt lat="47.221" lon="-1.68032">
        <ele>83</ele>
        <time>2022-05-14T08:33:47Z</time>
      </trkpt>
      <trkpt lat="47.22108" lon="-1.68021">
        <ele>83</ele>
        <time>2022-05-14T08:33:49Z</time>
      </trkpt>
      <trkpt lat="47.22117" lon="-1.68009">
        <ele>83</ele>
        <time>2022-05-14T08:33:51Z</time>
      </trkpt>
      <trkpt lat="47.22126" lon="-1.67999">
        <ele>84</ele>
        <time>2022-05-14T08:33:53Z</time>
      </trkpt>
      <trkpt lat="47.22135" lon="-1.67991">
        <ele>83</ele>
        <time>2022-05-14T08:33:55Z</time>
      </trkpt>
      <trkpt lat="47.22146" lon="-1.67984">
        <ele>84</ele>
        <time>2022-05-14T08:33:57Z</time>
      </trkpt>
      <trkpt lat="47.22156" lon="-1.67975">
        <ele>84</ele>
        <time>2022-05-14T08:33:59Z</time>
      </trkpt>
      <trkpt lat="47.22166" lon="-1.67968">
        <ele>84</ele>
        <time>2022-05-14T08:34:01Z</time>
      </trkpt>
      <trkpt lat="47.22176" lon="-1.67961">
        <ele>83</ele>
        <time>2022-05-14T08:34:03Z</time>
      </trkpt>
      <trkpt lat="47.22187" lon="-1.67954">
        <ele>83</ele>
        <time>2022-05-14T08:34:05Z</time>
      </trkpt>
      <trkpt lat="47.22198" lon="-1.67946">
        <ele>83</ele>
        <time>2022-05-14T08:34:07Z</time>
      </trkpt>
      <trkpt lat="47.2221" lon="-1.67937">
        <ele>81</ele>
        <time>2022-05-14T08:34:09Z</time>
      </trkpt>
      <trkpt lat="47.22222" lon="-1.6793">
        <ele>81</ele>
        <time>2022-05-14T08:34:11Z</time>
      </trkpt>
      <trkpt lat="47.22233" lon="-1.67922">
        <ele>80</ele>
        <time>2022-05-14T08:34:13Z</time>
      </trkpt>
      <trkpt lat="47.22246" lon="-1.67914">
        <ele>80</ele>
        <time>2022-05-14T08:34:15Z</time>
      </trkpt>
      <trkpt lat="47.22257" lon="-1.67906">
        <ele>80</ele>
        <time>2022-05-14T08:34:17Z</time>
      </trkpt>
      <trkpt lat="47.22269" lon="-1.67898">
        <ele>80</ele>
        <time>2022-05-14T08:34:19Z</time>
      </trkpt>
      <trkpt lat="47.22281" lon="-1.6789">
        <ele>79</ele>
        <time>2022-05-14T08:34:21Z</time>
      </trkpt>
      <trkpt lat="47.22293" lon="-1.67882">
        <ele>79</ele>
        <time>2022-05-14T08:34:23Z</time>
      </trkpt>
      <trkpt lat="47.22305" lon="-1.67874">
        <ele>79</ele>
        <time>2022-05-14T08:34:25Z</time>
      </trkpt>
      <trkpt lat="47.22317" lon="-1.67866">
        <ele>79</ele>
        <time>2022-05-14T08:34:27Z</time>
      </trkpt>
      <trkpt lat="47.22328" lon="-1.67858">
        <ele>79</ele>
        <time>2022-05-14T08:34:29Z</time>
      </trkpt>
      <trkpt lat="47.22339" lon="-1.67851">
        <ele>78</ele>
        <time>2022-05-14T08:34:31Z</time>
      </trkpt>
      <trkpt lat="47.22351" lon="-1.67845">
        <ele>78</ele>
        <time>2022-05-14T08:34:33Z</time>
      </trkpt>
      <trkpt lat="47.22362" lon="-1.6784">
        <ele>79</ele>
        <time>2022-05-14T08:34:35Z</time>
      </trkpt>
      <trkpt lat="47.22374" lon="-1.67835">
        <ele>79</ele>
        <time>2022-05-14T08:34:37Z</time>
      </trkpt>
      <trkpt lat="47.22386" lon="-1.67831">
        <ele>79</ele>
        <time>2022-05-14T08:34:39Z</time>
      </trkpt>
      <trkpt lat="47.22398" lon="-1.67828">
        <ele>80</ele>
        <time>2022-05-14T08:34:41Z</time>
      </trkpt>
      <trkpt lat="47.22409" lon="-1.67826">
        <ele>80</ele>
        <time>2022-05-14T08:34:43Z</time>
      </trkpt>
      <trkpt lat="47.22421" lon="-1.67824">
        <ele>81</ele>
        <time>2022-05-14T08:34:45Z</time>
      </trkpt>
      <trkpt lat="47.22432" lon="-1.67822">
        <ele>82</ele>
        <time>2022-05-14T08:34:47Z</time>
      </trkpt>
      <trkpt lat="47.22443" lon="-1.67821">
        <ele>82</ele>
        <time>2022-05-14T08:34:49Z</time>
      </trkpt>
      <trkpt lat="47.22454" lon="-1.67821">
        <ele>83</ele>
        <time>2022-05-14T08:34:51Z</time>
      </trkpt>
      <trkpt lat="47.22466" lon="-1.67822">
        <ele>83</ele>
        <time>2022-05-14T08:34:53Z</time>
      </trkpt>
      <trkpt lat="47.22478" lon="-1.67824">
        <ele>83</ele>
        <time>2022-05-14T08:34:55Z</time>
      </trkpt>
      <trkpt lat="47.22489" lon="-1.67825">
        <ele>84</ele>
        <time>2022-05-14T08:34:57Z</time>
      </trkpt>
      <trkpt lat="47.22499" lon="-1.67827">
        <ele>83</ele>
        <time>2022-05-14T08:34:59Z</time>
      </trkpt>
      <trkpt lat="47.2251" lon="-1.67828">
        <ele>83</ele>
        <time>2022-05-14T08:35:01Z</time>
      </trkpt>
      <trkpt lat="47.22521" lon="-1.6783">
        <ele>83</ele>
        <time>2022-05-14T08:35:03Z</time>
      </trkpt>
      <trkpt lat="47.22532" lon="-1.67832">
        <ele>84</ele>
        <time>2022-05-14T08:35:05Z</time>
      </trkpt>
      <trkpt lat="47.22544" lon="-1.67833">
        <ele>85</ele>
        <time>2022-05-14T08:35:07Z</time>
      </trkpt>
      <trkpt lat="47.22555" lon="-1.67835">
        <ele>85</ele>
        <time>2022-05-14T08:35:09Z</time>
      </trkpt>
      <trkpt lat="47.22566" lon="-1.67836">
        <ele>86</ele>
        <time>2022-05-14T08:35:11Z</time>
      </trkpt>
      <trkpt lat="47.22578" lon="-1.67832">
        <ele>88</ele>
        <time>2022-05-14T08:35:14Z</time>
      </trkpt>
      <trkpt lat="47.22586" lon="-1.67827">
        <ele>88</ele>
        <time>2022-05-14T08:35:16Z</time>
      </trkpt>
      <trkpt lat="47.22598" lon="-1.6783">
        <ele>87</ele>
        <time>2022-05-14T08:35:18Z</time>
      </trkpt>
      <trkpt lat="47.22609" lon="-1.67835">
        <ele>87</ele>
        <time>2022-05-14T08:35:20Z</time>
      </trkpt>
      <trkpt lat="47.2262" lon="-1.67834">
        <ele>88</ele>
        <time>2022-05-14T08:35:22Z</time>
      </trkpt>
      <trkpt lat="47.22632" lon="-1.67832">
        <ele>88</ele>
        <time>2022-05-14T08:35:24Z</time>
      </trkpt>
      <trkpt lat="47.22642" lon="-1.67831">
        <ele>89</ele>
        <time>2022-05-14T08:35:26Z</time>
      </trkpt>
      <trkpt lat="47.22653" lon="-1.67828">
        <ele>90</ele>
        <time>2022-05-14T08:35:28Z</time>
      </trkpt>
      <trkpt lat="47.22664" lon="-1.67827">
        <ele>90</ele>
        <time>2022-05-14T08:35:30Z</time>
      </trkpt>
      <trkpt lat="47.22674" lon="-1.67825">
        <ele>91</ele>
        <time>2022-05-14T08:35:32Z</time>
      </trkpt>
      <trkpt lat="47.22685" lon="-1.67822">
        <ele>90</ele>
        <time>2022-05-14T08:35:34Z</time>
      </trkpt>
      <trkpt lat="47.22696" lon="-1.6782">
        <ele>90</ele>
        <time>2022-05-14T08:35:36Z</time>
      </trkpt>
      <trkpt lat="47.22705" lon="-1.67818">
        <ele>90</ele>
        <time>2022-05-14T08:35:38Z</time>
      </trkpt>
      <trkpt lat="47.22715" lon="-1.67816">
        <ele>90</ele>
        <time>2022-05-14T08:35:40Z</time>
      </trkpt>
      <trkpt lat="47.22726" lon="-1.67814">
        <ele>90</ele>
        <time>2022-05-14T08:35:42Z</time>
      </trkpt>
      <trkpt lat="47.22736" lon="-1.67811">
        <ele>90</ele>
        <time>2022-05-14T08:35:44Z</time>
      </trkpt>
      <trkpt lat="47.22746" lon="-1.67808">
        <ele>91</ele>
        <time>2022-05-14T08:35:46Z</time>
      </trkpt>
      <trkpt lat="47.22756" lon="-1.67804">
        <ele>91</ele>
        <time>2022-05-14T08:35:48Z</time>
      </trkpt>
      <trkpt lat="47.22766" lon="-1.67801">
        <ele>92</ele>
        <time>2022-05-14T08:35:50Z</time>
      </trkpt>
      <trkpt lat="47.22777" lon="-1.67798">
        <ele>92</ele>
        <time>2022-05-14T08:35:52Z</time>
      </trkpt>
      <trkpt lat="47.22787" lon="-1.67793">
        <ele>93</ele>
        <time>2022-05-14T08:35:54Z</time>
      </trkpt>
      <trkpt lat="47.22797" lon="-1.67789">
        <ele>93</ele>
        <time>2022-05-14T08:35:56Z</time>
      </trkpt>
      <trkpt lat="47.22806" lon="-1.67785">
        <ele>94</ele>
        <time>2022-05-14T08:35:58Z</time>
      </trkpt>
      <trkpt lat="47.22815" lon="-1.67781">
        <ele>94</ele>
        <time>2022-05-14T08:36:00Z</time>
      </trkpt>
      <trkpt lat="47.22824" lon="-1.67776">
        <ele>94</ele>
        <time>2022-05-14T08:36:02Z</time>
      </trkpt>
      <trkpt lat="47.22833" lon="-1.67772">
        <ele>94</ele>
        <time>2022-05-14T08:36:04Z</time>
      </trkpt>
      <trkpt lat="47.22843" lon="-1.67768">
        <ele>95</ele>
        <time>2022-05-14T08:36:06Z</time>
      </trkpt>
      <trkpt lat="47.22852" lon="-1.67763">
        <ele>95</ele>
        <time>2022-05-14T08:36:08Z</time>
      </trkpt>
      <trkpt lat="47.22861" lon="-1.67758">
        <ele>95</ele>
        <time>2022-05-14T08:36:10Z</time>
      </trkpt>
      <trkpt lat="47.2287" lon="-1.67754">
        <ele>96</ele>
        <time>2022-05-14T08:36:12Z</time>
      </trkpt>
      <trkpt lat="47.2288" lon="-1.67748">
        <ele>96</ele>
        <time>2022-05-14T08:36:14Z</time>
      </trkpt>
      <trkpt lat="47.2289" lon="-1.67742">
        <ele>96</ele>
        <time>2022-05-14T08:36:16Z</time>
      </trkpt>
      <trkpt lat="47.229" lon="-1.67735">
        <ele>96</ele>
        <time>2022-05-14T08:36:18Z</time>
      </trkpt>
      <trkpt lat="47.2291" lon="-1.67729">
        <ele>97</ele>
        <time>2022-05-14T08:36:20Z</time>
      </trkpt>
      <trkpt lat="47.22919" lon="-1.67722">
        <ele>97</ele>
        <time>2022-05-14T08:36:22Z</time>
      </trkpt>
      <trkpt lat="47.22928" lon="-1.67715">
        <ele>97</ele>
        <time>2022-05-14T08:36:24Z</time>
      </trkpt>
      <trkpt lat="47.22938" lon="-1.67709">
        <ele>98</ele>
        <time>2022-05-14T08:36:26Z</time>
      </trkpt>
      <trkpt lat="47.22947" lon="-1.67702">
        <ele>98</ele>
        <time>2022-05-14T08:36:28Z</time>
      </trkpt>
      <trkpt lat="47.22956" lon="-1.67696">
        <ele>98</ele>
        <time>2022-05-14T08:36:30Z</time>
      </trkpt>
      <trkpt lat="47.22966" lon="-1.67689">
        <ele>98</ele>
        <time>2022-05-14T08:36:32Z</time>
      </trkpt>
      <trkpt lat="47.22976" lon="-1.67682">
        <ele>98</ele>
        <time>2022-05-14T08:36:34Z</time>
      </trkpt>
      <trkpt lat="47.22986" lon="-1.67675">
        <ele>98</ele>
        <time>2022-05-14T08:36:36Z</time>
      </trkpt>
      <trkpt lat="47.22996" lon="-1.67667">
        <ele>98</ele>
        <time>2022-05-14T08:36:38Z</time>
      </trkpt>
      <trkpt lat="47.23006" lon="-1.6766">
        <ele>98</ele>
        <time>2022-05-14T08:36:40Z</time>
      </trkpt>
      <trkpt lat="47.23016" lon="-1.67653">
        <ele>97</ele>
        <time>2022-05-14T08:36:42Z</time>
      </trkpt>
      <trkpt lat="47.23025" lon="-1.67645">
        <ele>98</ele>
        <time>2022-05-14T08:36:44Z</time>
      </trkpt>
      <trkpt lat="47.23035" lon="-1.67634">
        <ele>98</ele>
        <time>2022-05-14T08:36:46Z</time>
      </trkpt>
      <trkpt lat="47.23043" lon="-1.67623">
        <ele>97</ele>
        <time>2022-05-14T08:36:48Z</time>
      </trkpt>
      <trkpt lat="47.23051" lon="-1.67611">
        <ele>98</ele>
        <time>2022-05-14T08:36:50Z</time>
      </trkpt>
      <trkpt lat="47.23058" lon="-1.67598">
        <ele>98</ele>
        <time>2022-05-14T08:36:52Z</time>
      </trkpt>
      <trkpt lat="47.23066" lon="-1.67587">
        <ele>98</ele>
        <time>2022-05-14T08:36:54Z</time>
      </trkpt>
      <trkpt lat="47.23073" lon="-1.67575">
        <ele>98</ele>
        <time>2022-05-14T08:36:56Z</time>
      </trkpt>
      <trkpt lat="47.23081" lon="-1.67564">
        <ele>99</ele>
        <time>2022-05-14T08:36:58Z</time>
      </trkpt>
      <trkpt lat="47.23089" lon="-1.67554">
        <ele>99</ele>
        <time>2022-05-14T08:37:00Z</time>
      </trkpt>
      <trkpt lat="47.23098" lon="-1.67545">
        <ele>99</ele>
        <time>2022-05-14T08:37:02Z</time>
      </trkpt>
      <trkpt lat="47.23106" lon="-1.67535">
        <ele>99</ele>
        <time>2022-05-14T08:37:04Z</time>
      </trkpt>
      <trkpt lat="47.23115" lon="-1.67526">
        <ele>100</ele>
        <time>2022-05-14T08:37:06Z</time>
      </trkpt>
      <trkpt lat="47.23124" lon="-1.67516">
        <ele>100</ele>
        <time>2022-05-14T08:37:08Z</time>
      </trkpt>
      <trkpt lat="47.23133" lon="-1.67507">
        <ele>100</ele>
        <time>2022-05-14T08:37:10Z</time>
      </trkpt>
      <trkpt lat="47.23142" lon="-1.675">
        <ele>100</ele>
        <time>2022-05-14T08:37:12Z</time>
      </trkpt>
      <trkpt lat="47.2315" lon="-1.67488">
        <ele>101</ele>
        <time>2022-05-14T08:37:14Z</time>
      </trkpt>
      <trkpt lat="47.23159" lon="-1.67479">
        <ele>100</ele>
        <time>2022-05-14T08:37:16Z</time>
      </trkpt>
      <trkpt lat="47.23167" lon="-1.6747">
        <ele>101</ele>
        <time>2022-05-14T08:37:18Z</time>
      </trkpt>
      <trkpt lat="47.23175" lon="-1.67461">
        <ele>102</ele>
        <time>2022-05-14T08:37:20Z</time>
      </trkpt>
      <trkpt lat="47.23183" lon="-1.67451">
        <ele>103</ele>
        <time>2022-05-14T08:37:22Z</time>
      </trkpt>
      <trkpt lat="47.23191" lon="-1.67441">
        <ele>103</ele>
        <time>2022-05-14T08:37:24Z</time>
      </trkpt>
      <trkpt lat="47.23199" lon="-1.67431">
        <ele>104</ele>
        <time>2022-05-14T08:37:26Z</time>
      </trkpt>
      <trkpt lat="47.23208" lon="-1.67421">
        <ele>104</ele>
        <time>2022-05-14T08:37:28Z</time>
      </trkpt>
      <trkpt lat="47.23217" lon="-1.67413">
        <ele>105</ele>
        <time>2022-05-14T08:37:30Z</time>
      </trkpt>
      <trkpt lat="47.23226" lon="-1.67405">
        <ele>105</ele>
        <time>2022-05-14T08:37:32Z</time>
      </trkpt>
      <trkpt lat="47.23234" lon="-1.67399">
        <ele>105</ele>
        <time>2022-05-14T08:37:34Z</time>
      </trkpt>
      <trkpt lat="47.23244" lon="-1.67392">
        <ele>105</ele>
        <time>2022-05-14T08:37:36Z</time>
      </trkpt>
      <trkpt lat="47.23252" lon="-1.67385">
        <ele>106</ele>
        <time>2022-05-14T08:37:38Z</time>
      </trkpt>
      <trkpt lat="47.2326" lon="-1.67378">
        <ele>106</ele>
        <time>2022-05-14T08:37:40Z</time>
      </trkpt>
      <trkpt lat="47.23268" lon="-1.67372">
        <ele>107</ele>
        <time>2022-05-14T08:37:42Z</time>
      </trkpt>
      <trkpt lat="47.23277" lon="-1.67365">
        <ele>108</ele>
        <time>2022-05-14T08:37:44Z</time>
      </trkpt>
      <trkpt lat="47.23285" lon="-1.6736">
        <ele>109</ele>
        <time>2022-05-14T08:37:46Z</time>
      </trkpt>
      <trkpt lat="47.23297" lon="-1.67351">
        <ele>108</ele>
        <time>2022-05-14T08:37:49Z</time>
      </trkpt>
      <trkpt lat="47.23306" lon="-1.67345">
        <ele>109</ele>
        <time>2022-05-14T08:37:51Z</time>
      </trkpt>
      <trkpt lat="47.23315" lon="-1.67338">
        <ele>109</ele>
        <time>2022-05-14T08:37:53Z</time>
      </trkpt>
      <trkpt lat="47.23324" lon="-1.67332">
        <ele>109</ele>
        <time>2022-05-14T08:37:55Z</time>
      </trkpt>
      <trkpt lat="47.23333" lon="-1.67326">
        <ele>108</ele>
        <time>2022-05-14T08:37:57Z</time>
      </trkpt>
      <trkpt lat="47.23341" lon="-1.6732">
        <ele>108</ele>
        <time>2022-05-14T08:37:59Z</time>
      </trkpt>
      <trkpt lat="47.23349" lon="-1.67314">
        <ele>108</ele>
        <time>2022-05-14T08:38:01Z</time>
      </trkpt>
      <trkpt lat="47.23358" lon="-1.67308">
        <ele>109</ele>
        <time>2022-05-14T08:38:03Z</time>
      </trkpt>
      <trkpt lat="47.23367" lon="-1.67302">
        <ele>108</ele>
        <time>2022-05-14T08:38:05Z</time>
      </trkpt>
      <trkpt lat="47.23377" lon="-1.67297">
        <ele>108</ele>
        <time>2022-05-14T08:38:07Z</time>
      </trkpt>
      <trkpt lat="47.23385" lon="-1.6729">
        <ele>109</ele>
        <time>2022-05-14T08:38:09Z</time>
      </trkpt>
      <trkpt lat="47.23394" lon="-1.67284">
        <ele>109</ele>
        <time>2022-05-14T08:38:11Z</time>
      </trkpt>
      <trkpt lat="47.23403" lon="-1.67277">
        <ele>110</ele>
        <time>2022-05-14T08:38:13Z</time>
      </trkpt>
      <trkpt lat="47.23413" lon="-1.67271">
        <ele>110</ele>
        <time>2022-05-14T08:38:15Z</time>
      </trkpt>
      <trkpt lat="47.23422" lon="-1.67265">
        <ele>110</ele>
        <time>2022-05-14T08:38:17Z</time>
      </trkpt>
      <trkpt lat="47.23431" lon="-1.67258">
        <ele>110</ele>
        <time>2022-05-14T08:38:19Z</time>
      </trkpt>
      <trkpt lat="47.2344" lon="-1.67252">
        <ele>111</ele>
        <time>2022-05-14T08:38:21Z</time>
      </trkpt>
      <trkpt lat="47.23449" lon="-1.67245">
        <ele>111</ele>
        <time>2022-05-14T08:38:23Z</time>
      </trkpt>
      <trkpt lat="47.23459" lon="-1.67239">
        <ele>111</ele>
        <time>2022-05-14T08:38:25Z</time>
      </trkpt>
      <trkpt lat="47.23468" lon="-1.67233">
        <ele>111</ele>
        <time>2022-05-14T08:38:27Z</time>
      </trkpt>
      <trkpt lat="47.23477" lon="-1.67226">
        <ele>112</ele>
        <time>2022-05-14T08:38:29Z</time>
      </trkpt>
      <trkpt lat="47.23485" lon="-1.6722">
        <ele>112</ele>
        <time>2022-05-14T08:38:31Z</time>
      </trkpt>
      <trkpt lat="47.23494" lon="-1.67214">
        <ele>113</ele>
        <time>2022-05-14T08:38:33Z</time>
      </trkpt>
      <trkpt lat="47.23503" lon="-1.67207">
        <ele>113</ele>
        <time>2022-05-14T08:38:35Z</time>
      </trkpt>
      <trkpt lat="47.23512" lon="-1.67202">
        <ele>113</ele>
        <time>2022-05-14T08:38:37Z</time>
      </trkpt>
      <trkpt lat="47.23522" lon="-1.67196">
        <ele>113</ele>
        <time>2022-05-14T08:38:39Z</time>
      </trkpt>
      <trkpt lat="47.23532" lon="-1.67192">
        <ele>113</ele>
        <time>2022-05-14T08:38:41Z</time>
      </trkpt>
      <trkpt lat="47.23543" lon="-1.67188">
        <ele>113</ele>
        <time>2022-05-14T08:38:43Z</time>
      </trkpt>
      <trkpt lat="47.23554" lon="-1.67185">
        <ele>113</ele>
        <time>2022-05-14T08:38:45Z</time>
      </trkpt>
      <trkpt lat="47.23566" lon="-1.67182">
        <ele>113</ele>
        <time>2022-05-14T08:38:47Z</time>
      </trkpt>
      <trkpt lat="47.23578" lon="-1.67181">
        <ele>112</ele>
        <time>2022-05-14T08:38:49Z</time>
      </trkpt>
      <trkpt lat="47.2359" lon="-1.67179">
        <ele>112</ele>
        <time>2022-05-14T08:38:51Z</time>
      </trkpt>
      <trkpt lat="47.23601" lon="-1.67178">
        <ele>112</ele>
        <time>2022-05-14T08:38:53Z</time>
      </trkpt>
      <trkpt lat="47.23612" lon="-1.67176">
        <ele>111</ele>
        <time>2022-05-14T08:38:55Z</time>
      </trkpt>
      <trkpt lat="47.23623" lon="-1.67171">
        <ele>112</ele>
        <time>2022-05-14T08:38:57Z</time>
      </trkpt>
      <trkpt lat="47.23631" lon="-1.67161">
        <ele>112</ele>
        <time>2022-05-14T08:38:59Z</time>
      </trkpt>
      <trkpt lat="47.23642" lon="-1.67155">
        <ele>112</ele>
        <time>2022-05-14T08:39:01Z</time>
      </trkpt>
      <trkpt lat="47.23652" lon="-1.6716">
        <ele>112</ele>
        <time>2022-05-14T08:39:03Z</time>
      </trkpt>
      <trkpt lat="47.23662" lon="-1.67169">
        <ele>112</ele>
        <time>2022-05-14T08:39:05Z</time>
      </trkpt>
      <trkpt lat="47.23675" lon="-1.67171">
        <ele>111</ele>
        <time>2022-05-14T08:39:07Z</time>
      </trkpt>
      <trkpt lat="47.23687" lon="-1.67169">
        <ele>111</ele>
        <time>2022-05-14T08:39:09Z</time>
      </trkpt>
      <trkpt lat="47.23699" lon="-1.67166">
        <ele>111</ele>
        <time>2022-05-14T08:39:11Z</time>
      </trkpt>
      <trkpt lat="47.23711" lon="-1.67164">
        <ele>111</ele>
        <time>2022-05-14T08:39:13Z</time>
      </trkpt>
      <trkpt lat="47.23723" lon="-1.6716">
        <ele>111</ele>
        <time>2022-05-14T08:39:15Z</time>
      </trkpt>
      <trkpt lat="47.23735" lon="-1.67157">
        <ele>111</ele>
        <time>2022-05-14T08:39:17Z</time>
      </trkpt>
      <trkpt lat="47.23747" lon="-1.67153">
        <ele>112</ele>
        <time>2022-05-14T08:39:19Z</time>
      </trkpt>
      <trkpt lat="47.23759" lon="-1.67149">
        <ele>112</ele>
        <time>2022-05-14T08:39:21Z</time>
      </trkpt>
      <trkpt lat="47.23771" lon="-1.67144">
        <ele>112</ele>
        <time>2022-05-14T08:39:23Z</time>
      </trkpt>
      <trkpt lat="47.23782" lon="-1.67139">
        <ele>111</ele>
        <time>2022-05-14T08:39:25Z</time>
      </trkpt>
      <trkpt lat="47.23793" lon="-1.67135">
        <ele>112</ele>
        <time>2022-05-14T08:39:27Z</time>
      </trkpt>
      <trkpt lat="47.23804" lon="-1.67132">
        <ele>112</ele>
        <time>2022-05-14T08:39:29Z</time>
      </trkpt>
      <trkpt lat="47.23816" lon="-1.6713">
        <ele>111</ele>
        <time>2022-05-14T08:39:31Z</time>
      </trkpt>
      <trkpt lat="47.23827" lon="-1.6713">
        <ele>112</ele>
        <time>2022-05-14T08:39:33Z</time>
      </trkpt>
      <trkpt lat="47.23838" lon="-1.6713">
        <ele>112</ele>
        <time>2022-05-14T08:39:35Z</time>
      </trkpt>
      <trkpt lat="47.23849" lon="-1.67131">
        <ele>112</ele>
        <time>2022-05-14T08:39:37Z</time>
      </trkpt>
      <trkpt lat="47.23861" lon="-1.67133">
        <ele>113</ele>
        <time>2022-05-14T08:39:39Z</time>
      </trkpt>
      <trkpt lat="47.23871" lon="-1.67137">
        <ele>113</ele>
        <time>2022-05-14T08:39:41Z</time>
      </trkpt>
      <trkpt lat="47.23882" lon="-1.67141">
        <ele>113</ele>
        <time>2022-05-14T08:39:43Z</time>
      </trkpt>
      <trkpt lat="47.23892" lon="-1.67146">
        <ele>113</ele>
        <time>2022-05-14T08:39:45Z</time>
      </trkpt>
      <trkpt lat="47.23902" lon="-1.67152">
        <ele>113</ele>
        <time>2022-05-14T08:39:47Z</time>
      </trkpt>
      <trkpt lat="47.23912" lon="-1.67158">
        <ele>113</ele>
        <time>2022-05-14T08:39:49Z</time>
      </trkpt>
      <trkpt lat="47.23923" lon="-1.67164">
        <ele>113</ele>
        <time>2022-05-14T08:39:51Z</time>
      </trkpt>
      <trkpt lat="47.23932" lon="-1.67171">
        <ele>113</ele>
        <time>2022-05-14T08:39:53Z</time>
      </trkpt>
      <trkpt lat="47.23941" lon="-1.67179">
        <ele>113</ele>
        <time>2022-05-14T08:39:55Z</time>
      </trkpt>
      <trkpt lat="47.2395" lon="-1.67188">
        <ele>114</ele>
        <time>2022-05-14T08:39:57Z</time>
      </trkpt>
      <trkpt lat="47.23959" lon="-1.67199">
        <ele>114</ele>
        <time>2022-05-14T08:39:59Z</time>
      </trkpt>
      <trkpt lat="47.23966" lon="-1.67212">
        <ele>113</ele>
        <time>2022-05-14T08:40:01Z</time>
      </trkpt>
      <trkpt lat="47.23974" lon="-1.67225">
        <ele>112</ele>
        <time>2022-05-14T08:40:03Z</time>
      </trkpt>
      <trkpt lat="47.23982" lon="-1.67236">
        <ele>112</ele>
        <time>2022-05-14T08:40:05Z</time>
      </trkpt>
      <trkpt lat="47.23991" lon="-1.67247">
        <ele>112</ele>
        <time>2022-05-14T08:40:07Z</time>
      </trkpt>
      <trkpt lat="47.24002" lon="-1.67257">
        <ele>112</ele>
        <time>2022-05-14T08:40:09Z</time>
      </trkpt>
      <trkpt lat="47.24013" lon="-1.67266">
        <ele>111</ele>
        <time>2022-05-14T08:40:11Z</time>
      </trkpt>
      <trkpt lat="47.24025" lon="-1.67274">
        <ele>111</ele>
        <time>2022-05-14T08:40:13Z</time>
      </trkpt>
      <trkpt lat="47.2404" lon="-1.67281">
        <ele>110</ele>
        <time>2022-05-14T08:40:15Z</time>
      </trkpt>
      <trkpt lat="47.24055" lon="-1.67284">
        <ele>110</ele>
        <time>2022-05-14T08:40:17Z</time>
      </trkpt>
      <trkpt lat="47.24071" lon="-1.67286">
        <ele>109</ele>
        <time>2022-05-14T08:40:19Z</time>
      </trkpt>
      <trkpt lat="47.24088" lon="-1.67287">
        <ele>108</ele>
        <time>2022-05-14T08:40:21Z</time>
      </trkpt>
      <trkpt lat="47.24105" lon="-1.67288">
        <ele>107</ele>
        <time>2022-05-14T08:40:23Z</time>
      </trkpt>
      <trkpt lat="47.24122" lon="-1.6729">
        <ele>107</ele>
        <time>2022-05-14T08:40:25Z</time>
      </trkpt>
      <trkpt lat="47.24139" lon="-1.67292">
        <ele>107</ele>
        <time>2022-05-14T08:40:27Z</time>
      </trkpt>
      <trkpt lat="47.24156" lon="-1.6729">
        <ele>107</ele>
        <time>2022-05-14T08:40:29Z</time>
      </trkpt>
      <trkpt lat="47.24172" lon="-1.67286">
        <ele>107</ele>
        <time>2022-05-14T08:40:31Z</time>
      </trkpt>
      <trkpt lat="47.24186" lon="-1.67281">
        <ele>107</ele>
        <time>2022-05-14T08:40:33Z</time>
      </trkpt>
      <trkpt lat="47.24201" lon="-1.67275">
        <ele>107</ele>
        <time>2022-05-14T08:40:35Z</time>
      </trkpt>
      <trkpt lat="47.24214" lon="-1.67268">
        <ele>107</ele>
        <time>2022-05-14T08:40:37Z</time>
      </trkpt>
      <trkpt lat="47.24223" lon="-1.67254">
        <ele>107</ele>
        <time>2022-05-14T08:40:39Z</time>
      </trkpt>
      <trkpt lat="47.24225" lon="-1.67237">
        <ele>107</ele>
        <time>2022-05-14T08:40:41Z</time>
      </trkpt>
      <trkpt lat="47.24225" lon="-1.6722">
        <ele>107</ele>
        <time>2022-05-14T08:40:43Z</time>
      </trkpt>
      <trkpt lat="47.24228" lon="-1.67206">
        <ele>107</ele>
        <time>2022-05-14T08:40:45Z</time>
      </trkpt>
      <trkpt lat="47.24237" lon="-1.67194">
        <ele>106</ele>
        <time>2022-05-14T08:40:47Z</time>
      </trkpt>
      <trkpt lat="47.24245" lon="-1.67182">
        <ele>106</ele>
        <time>2022-05-14T08:40:49Z</time>
      </trkpt>
      <trkpt lat="47.24246" lon="-1.67164">
        <ele>107</ele>
        <time>2022-05-14T08:40:51Z</time>
      </trkpt>
      <trkpt lat="47.24244" lon="-1.67145">
        <ele>107</ele>
        <time>2022-05-14T08:40:53Z</time>
      </trkpt>
      <trkpt lat="47.24243" lon="-1.67127">
        <ele>107</ele>
        <time>2022-05-14T08:40:55Z</time>
      </trkpt>
      <trkpt lat="47.24242" lon="-1.6711">
        <ele>106</ele>
        <time>2022-05-14T08:40:57Z</time>
      </trkpt>
      <trkpt lat="47.24242" lon="-1.67092">
        <ele>106</ele>
        <time>2022-05-14T08:40:59Z</time>
      </trkpt>
      <trkpt lat="47.24243" lon="-1.67075">
        <ele>106</ele>
        <time>2022-05-14T08:41:01Z</time>
      </trkpt>
      <trkpt lat="47.24243" lon="-1.67058">
        <ele>106</ele>
        <time>2022-05-14T08:41:03Z</time>
      </trkpt>
      <trkpt lat="47.24245" lon="-1.67042">
        <ele>107</ele>
        <time>2022-05-14T08:41:05Z</time>
      </trkpt>
      <trkpt lat="47.24247" lon="-1.67025">
        <ele>106</ele>
        <time>2022-05-14T08:41:07Z</time>
      </trkpt>
      <trkpt lat="47.24249" lon="-1.67008">
        <ele>106</ele>
        <time>2022-05-14T08:41:09Z</time>
      </trkpt>
      <trkpt lat="47.24252" lon="-1.66991">
        <ele>106</ele>
        <time>2022-05-14T08:41:11Z</time>
      </trkpt>
      <trkpt lat="47.24255" lon="-1.66975">
        <ele>107</ele>
        <time>2022-05-14T08:41:13Z</time>
      </trkpt>
      <trkpt lat="47.24258" lon="-1.66959">
        <ele>107</ele>
        <time>2022-05-14T08:41:15Z</time>
      </trkpt>
      <trkpt lat="47.24261" lon="-1.66943">
        <ele>107</ele>
        <time>2022-05-14T08:41:17Z</time>
      </trkpt>
      <trkpt lat="47.24264" lon="-1.66927">
        <ele>107</ele>
        <time>2022-05-14T08:41:19Z</time>
      </trkpt>
      <trkpt lat="47.24268" lon="-1.6691">
        <ele>107</ele>
        <time>2022-05-14T08:41:21Z</time>
      </trkpt>
      <trkpt lat="47.24271" lon="-1.66893">
        <ele>107</ele>
        <time>2022-05-14T08:41:23Z</time>
      </trkpt>
      <trkpt lat="47.24274" lon="-1.66876">
        <ele>107</ele>
        <time>2022-05-14T08:41:25Z</time>
      </trkpt>
      <trkpt lat="47.2428" lon="-1.6686">
        <ele>107</ele>
        <time>2022-05-14T08:41:27Z</time>
      </trkpt>
      <trkpt lat="47.24284" lon="-1.66845">
        <ele>107</ele>
        <time>2022-05-14T08:41:29Z</time>
      </trkpt>
      <trkpt lat="47.24285" lon="-1.66829">
        <ele>108</ele>
        <time>2022-05-14T08:41:31Z</time>
      </trkpt>
      <trkpt lat="47.2429" lon="-1.66814">
        <ele>108</ele>
        <time>2022-05-14T08:41:33Z</time>
      </trkpt>
      <trkpt lat="47.243" lon="-1.66808">
        <ele>108</ele>
        <time>2022-05-14T08:41:35Z</time>
      </trkpt>
      <trkpt lat="47.24312" lon="-1.66813">
        <ele>107</ele>
        <time>2022-05-14T08:41:37Z</time>
      </trkpt>
      <trkpt lat="47.24321" lon="-1.66826">
        <ele>106</ele>
        <time>2022-05-14T08:41:39Z</time>
      </trkpt>
      <trkpt lat="47.24332" lon="-1.66837">
        <ele>105</ele>
        <time>2022-05-14T08:41:41Z</time>
      </trkpt>
      <trkpt lat="47.24344" lon="-1.66845">
        <ele>105</ele>
        <time>2022-05-14T08:41:43Z</time>
      </trkpt>
      <trkpt lat="47.24355" lon="-1.66855">
        <ele>104</ele>
        <time>2022-05-14T08:41:45Z</time>
      </trkpt>
      <trkpt lat="47.24367" lon="-1.66867">
        <ele>104</ele>
        <time>2022-05-14T08:41:47Z</time>
      </trkpt>
      <trkpt lat="47.24377" lon="-1.6688">
        <ele>103</ele>
        <time>2022-05-14T08:41:49Z</time>
      </trkpt>
      <trkpt lat="47.24388" lon="-1.66893">
        <ele>103</ele>
        <time>2022-05-14T08:41:51Z</time>
      </trkpt>
      <trkpt lat="47.24399" lon="-1.66906">
        <ele>102</ele>
        <time>2022-05-14T08:41:53Z</time>
      </trkpt>
      <trkpt lat="47.2441" lon="-1.66921">
        <ele>102</ele>
        <time>2022-05-14T08:41:55Z</time>
      </trkpt>
      <trkpt lat="47.24421" lon="-1.66935">
        <ele>101</ele>
        <time>2022-05-14T08:41:57Z</time>
      </trkpt>
      <trkpt lat="47.2443" lon="-1.66952">
        <ele>101</ele>
        <time>2022-05-14T08:41:59Z</time>
      </trkpt>
      <trkpt lat="47.2444" lon="-1.66966">
        <ele>101</ele>
        <time>2022-05-14T08:42:01Z</time>
      </trkpt>
      <trkpt lat="47.24452" lon="-1.66979">
        <ele>101</ele>
        <time>2022-05-14T08:42:03Z</time>
      </trkpt>
      <trkpt lat="47.24462" lon="-1.66993">
        <ele>101</ele>
        <time>2022-05-14T08:42:05Z</time>
      </trkpt>
      <trkpt lat="47.24474" lon="-1.67001">
        <ele>100</ele>
        <time>2022-05-14T08:42:07Z</time>
      </trkpt>
      <trkpt lat="47.24487" lon="-1.67009">
        <ele>100</ele>
        <time>2022-05-14T08:42:09Z</time>
      </trkpt>
      <trkpt lat="47.24499" lon="-1.67016">
        <ele>100</ele>
        <time>2022-05-14T08:42:11Z</time>
      </trkpt>
      <trkpt lat="47.24511" lon="-1.67023">
        <ele>101</ele>
        <time>2022-05-14T08:42:13Z</time>
      </trkpt>
      <trkpt lat="47.24523" lon="-1.67028">
        <ele>101</ele>
        <time>2022-05-14T08:42:15Z</time>
      </trkpt>
      <trkpt lat="47.24535" lon="-1.67031">
        <ele>102</ele>
        <time>2022-05-14T08:42:17Z</time>
      </trkpt>
      <trkpt lat="47.24547" lon="-1.67033">
        <ele>103</ele>
        <time>2022-05-14T08:42:19Z</time>
      </trkpt>
      <trkpt lat="47.24559" lon="-1.67033">
        <ele>103</ele>
        <time>2022-05-14T08:42:21Z</time>
      </trkpt>
      <trkpt lat="47.24571" lon="-1.67032">
        <ele>103</ele>
        <time>2022-05-14T08:42:23Z</time>
      </trkpt>
      <trkpt lat="47.24583" lon="-1.67029">
        <ele>103</ele>
        <time>2022-05-14T08:42:25Z</time>
      </trkpt>
      <trkpt lat="47.24596" lon="-1.67025">
        <ele>103</ele>
        <time>2022-05-14T08:42:27Z</time>
      </trkpt>
      <trkpt lat="47.24609" lon="-1.67021">
        <ele>103</ele>
        <time>2022-05-14T08:42:29Z</time>
      </trkpt>
      <trkpt lat="47.24622" lon="-1.67016">
        <ele>102</ele>
        <time>2022-05-14T08:42:31Z</time>
      </trkpt>
      <trkpt lat="47.24634" lon="-1.67011">
        <ele>102</ele>
        <time>2022-05-14T08:42:33Z</time>
      </trkpt>
      <trkpt lat="47.24646" lon="-1.67005">
        <ele>102</ele>
        <time>2022-05-14T08:42:35Z</time>
      </trkpt>
      <trkpt lat="47.24658" lon="-1.66997">
        <ele>102</ele>
        <time>2022-05-14T08:42:37Z</time>
      </trkpt>
      <trkpt lat="47.24669" lon="-1.66986">
        <ele>101</ele>
        <time>2022-05-14T08:42:39Z</time>
      </trkpt>
      <trkpt lat="47.2468" lon="-1.66974">
        <ele>100</ele>
        <time>2022-05-14T08:42:41Z</time>
      </trkpt>
      <trkpt lat="47.2469" lon="-1.6696">
        <ele>100</ele>
        <time>2022-05-14T08:42:43Z</time>
      </trkpt>
      <trkpt lat="47.24699" lon="-1.66946">
        <ele>100</ele>
        <time>2022-05-14T08:42:45Z</time>
      </trkpt>
      <trkpt lat="47.24708" lon="-1.66933">
        <ele>100</ele>
        <time>2022-05-14T08:42:47Z</time>
      </trkpt>
      <trkpt lat="47.2472" lon="-1.66922">
        <ele>100</ele>
        <time>2022-05-14T08:42:49Z</time>
      </trkpt>
      <trkpt lat="47.24732" lon="-1.66915">
        <ele>100</ele>
        <time>2022-05-14T08:42:51Z</time>
      </trkpt>
      <trkpt lat="47.24745" lon="-1.66908">
        <ele>100</ele>
        <time>2022-05-14T08:42:53Z</time>
      </trkpt>
      <trkpt lat="47.24759" lon="-1.66901">
        <ele>99</ele>
        <time>2022-05-14T08:42:55Z</time>
      </trkpt>
      <trkpt lat="47.24772" lon="-1.66892">
        <ele>99</ele>
        <time>2022-05-14T08:42:57Z</time>
      </trkpt>
      <trkpt lat="47.24785" lon="-1.66882">
        <ele>99</ele>
        <time>2022-05-14T08:42:59Z</time>
      </trkpt>
      <trkpt lat="47.24796" lon="-1.66871">
        <ele>100</ele>
        <time>2022-05-14T08:43:01Z</time>
      </trkpt>
      <trkpt lat="47.24808" lon="-1.6686">
        <ele>100</ele>
        <time>2022-05-14T08:43:03Z</time>
      </trkpt>
      <trkpt lat="47.2482" lon="-1.6685">
        <ele>99</ele>
        <time>2022-05-14T08:43:05Z</time>
      </trkpt>
      <trkpt lat="47.24833" lon="-1.66844">
        <ele>99</ele>
        <time>2022-05-14T08:43:07Z</time>
      </trkpt>
      <trkpt lat="47.24847" lon="-1.66839">
        <ele>99</ele>
        <time>2022-05-14T08:43:09Z</time>
      </trkpt>
      <trkpt lat="47.24861" lon="-1.66835">
        <ele>99</ele>
        <time>2022-05-14T08:43:11Z</time>
      </trkpt>
      <trkpt lat="47.24881" lon="-1.66829">
        <ele>99</ele>
        <time>2022-05-14T08:43:14Z</time>
      </trkpt>
      <trkpt lat="47.24894" lon="-1.66825">
        <ele>99</ele>
        <time>2022-05-14T08:43:16Z</time>
      </trkpt>
      <trkpt lat="47.24908" lon="-1.66821">
        <ele>99</ele>
        <time>2022-05-14T08:43:18Z</time>
      </trkpt>
      <trkpt lat="47.24921" lon="-1.66816">
        <ele>99</ele>
        <time>2022-05-14T08:43:20Z</time>
      </trkpt>
      <trkpt lat="47.24935" lon="-1.66813">
        <ele>99</ele>
        <time>2022-05-14T08:43:22Z</time>
      </trkpt>
      <trkpt lat="47.24949" lon="-1.66809">
        <ele>99</ele>
        <time>2022-05-14T08:43:24Z</time>
      </trkpt>
      <trkpt lat="47.24963" lon="-1.66806">
        <ele>100</ele>
        <time>2022-05-14T08:43:26Z</time>
      </trkpt>
      <trkpt lat="47.24976" lon="-1.66802">
        <ele>100</ele>
        <time>2022-05-14T08:43:28Z</time>
      </trkpt>
      <trkpt lat="47.2499" lon="-1.66799">
        <ele>100</ele>
        <time>2022-05-14T08:43:30Z</time>
      </trkpt>
      <trkpt lat="47.25004" lon="-1.66796">
        <ele>100</ele>
        <time>2022-05-14T08:43:32Z</time>
      </trkpt>
      <trkpt lat="47.25018" lon="-1.66793">
        <ele>100</ele>
        <time>2022-05-14T08:43:34Z</time>
      </trkpt>
      <trkpt lat="47.25033" lon="-1.66793">
        <ele>100</ele>
        <time>2022-05-14T08:43:36Z</time>
      </trkpt>
      <trkpt lat="47.25047" lon="-1.66793">
        <ele>99</ele>
        <time>2022-05-14T08:43:38Z</time>
      </trkpt>
      <trkpt lat="47.25061" lon="-1.66794">
        <ele>99</ele>
        <time>2022-05-14T08:43:40Z</time>
      </trkpt>
      <trkpt lat="47.25075" lon="-1.66794">
        <ele>99</ele>
        <time>2022-05-14T08:43:42Z</time>
      </trkpt>
      <trkpt lat="47.2509" lon="-1.66796">
        <ele>98</ele>
        <time>2022-05-14T08:43:44Z</time>
      </trkpt>
      <trkpt lat="47.25106" lon="-1.668">
        <ele>98</ele>
        <time>2022-05-14T08:43:46Z</time>
      </trkpt>
      <trkpt lat="47.25122" lon="-1.66805">
        <ele>97</ele>
        <time>2022-05-14T08:43:48Z</time>
      </trkpt>
      <trkpt lat="47.25139" lon="-1.66811">
        <ele>96</ele>
        <time>2022-05-14T08:43:50Z</time>
      </trkpt>
      <trkpt lat="47.25157" lon="-1.66817">
        <ele>96</ele>
        <time>2022-05-14T08:43:52Z</time>
      </trkpt>
      <trkpt lat="47.25174" lon="-1.66821">
        <ele>96</ele>
        <time>2022-05-14T08:43:54Z</time>
      </trkpt>
      <trkpt lat="47.2519" lon="-1.66826">
        <ele>96</ele>
        <time>2022-05-14T08:43:56Z</time>
      </trkpt>
      <trkpt lat="47.25206" lon="-1.66829">
        <ele>96</ele>
        <time>2022-05-14T08:43:58Z</time>
      </trkpt>
      <trkpt lat="47.25221" lon="-1.66832">
        <ele>96</ele>
        <time>2022-05-14T08:44:00Z</time>
      </trkpt>
      <trkpt lat="47.25233" lon="-1.66834">
        <ele>95</ele>
        <time>2022-05-14T08:44:02Z</time>
      </trkpt>
      <trkpt lat="47.25245" lon="-1.66836">
        <ele>96</ele>
        <time>2022-05-14T08:44:04Z</time>
      </trkpt>
      <trkpt lat="47.25256" lon="-1.66837">
        <ele>96</ele>
        <time>2022-05-14T08:44:06Z</time>
      </trkpt>
      <trkpt lat="47.25266" lon="-1.66839">
        <ele>96</ele>
        <time>2022-05-14T08:44:08Z</time>
      </trkpt>
      <trkpt lat="47.25276" lon="-1.66841">
        <ele>96</ele>
        <time>2022-05-14T08:44:10Z</time>
      </trkpt>
      <trkpt lat="47.25286" lon="-1.66843">
        <ele>96</ele>
        <time>2022-05-14T08:44:12Z</time>
      </trkpt>
      <trkpt lat="47.25296" lon="-1.66844">
        <ele>96</ele>
        <time>2022-05-14T08:44:14Z</time>
      </trkpt>
      <trkpt lat="47.25307" lon="-1.66845">
        <ele>97</ele>
        <time>2022-05-14T08:44:16Z</time>
      </trkpt>
      <trkpt lat="47.25318" lon="-1.66847">
        <ele>97</ele>
        <time>2022-05-14T08:44:18Z</time>
      </trkpt>
      <trkpt lat="47.25328" lon="-1.66849">
        <ele>98</ele>
        <time>2022-05-14T08:44:20Z</time>
      </trkpt>
      <trkpt lat="47.25338" lon="-1.66851">
        <ele>99</ele>
        <time>2022-05-14T08:44:22Z</time>
      </trkpt>
      <trkpt lat="47.25348" lon="-1.66852">
        <ele>99</ele>
        <time>2022-05-14T08:44:24Z</time>
      </trkpt>
      <trkpt lat="47.25359" lon="-1.66854">
        <ele>100</ele>
        <time>2022-05-14T08:44:26Z</time>
      </trkpt>
      <trkpt lat="47.2537" lon="-1.66855">
        <ele>100</ele>
        <time>2022-05-14T08:44:28Z</time>
      </trkpt>
      <trkpt lat="47.25381" lon="-1.66857">
        <ele>100</ele>
        <time>2022-05-14T08:44:30Z</time>
      </trkpt>
      <trkpt lat="47.25391" lon="-1.66859">
        <ele>100</ele>
        <time>2022-05-14T08:44:32Z</time>
      </trkpt>
      <trkpt lat="47.25402" lon="-1.66861">
        <ele>101</ele>
        <time>2022-05-14T08:44:34Z</time>
      </trkpt>
      <trkpt lat="47.25412" lon="-1.66862">
        <ele>101</ele>
        <time>2022-05-14T08:44:36Z</time>
      </trkpt>
      <trkpt lat="47.25423" lon="-1.66864">
        <ele>101</ele>
        <time>2022-05-14T08:44:38Z</time>
      </trkpt>
      <trkpt lat="47.25433" lon="-1.66865">
        <ele>102</ele>
        <time>2022-05-14T08:44:40Z</time>
      </trkpt>
      <trkpt lat="47.25443" lon="-1.66866">
        <ele>102</ele>
        <time>2022-05-14T08:44:42Z</time>
      </trkpt>
      <trkpt lat="47.25454" lon="-1.66868">
        <ele>103</ele>
        <time>2022-05-14T08:44:44Z</time>
      </trkpt>
      <trkpt lat="47.25465" lon="-1.66869">
        <ele>103</ele>
        <time>2022-05-14T08:44:46Z</time>
      </trkpt>
      <trkpt lat="47.25476" lon="-1.6687">
        <ele>103</ele>
        <time>2022-05-14T08:44:48Z</time>
      </trkpt>
      <trkpt lat="47.25486" lon="-1.66872">
        <ele>104</ele>
        <time>2022-05-14T08:44:50Z</time>
      </trkpt>
      <trkpt lat="47.25497" lon="-1.66875">
        <ele>103</ele>
        <time>2022-05-14T08:44:52Z</time>
      </trkpt>
      <trkpt lat="47.25507" lon="-1.66876">
        <ele>103</ele>
        <time>2022-05-14T08:44:54Z</time>
      </trkpt>
      <trkpt lat="47.2552" lon="-1.66875">
        <ele>103</ele>
        <time>2022-05-14T08:44:57Z</time>
      </trkpt>
      <trkpt lat="47.25531" lon="-1.66877">
        <ele>104</ele>
        <time>2022-05-14T08:44:59Z</time>
      </trkpt>
      <trkpt lat="47.25542" lon="-1.66881">
        <ele>104</ele>
        <time>2022-05-14T08:45:01Z</time>
      </trkpt>
      <trkpt lat="47.25553" lon="-1.66882">
        <ele>105</ele>
        <time>2022-05-14T08:45:03Z</time>
      </trkpt>
      <trkpt lat="47.25563" lon="-1.66882">
        <ele>105</ele>
        <time>2022-05-14T08:45:05Z</time>
      </trkpt>
      <trkpt lat="47.25574" lon="-1.66883">
        <ele>106</ele>
        <time>2022-05-14T08:45:07Z</time>
      </trkpt>
      <trkpt lat="47.25585" lon="-1.66884">
        <ele>106</ele>
        <time>2022-05-14T08:45:09Z</time>
      </trkpt>
      <trkpt lat="47.25596" lon="-1.66885">
        <ele>106</ele>
        <time>2022-05-14T08:45:11Z</time>
      </trkpt>
      <trkpt lat="47.25607" lon="-1.66886">
        <ele>106</ele>
        <time>2022-05-14T08:45:13Z</time>
      </trkpt>
      <trkpt lat="47.25618" lon="-1.66887">
        <ele>106</ele>
        <time>2022-05-14T08:45:15Z</time>
      </trkpt>
      <trkpt lat="47.25629" lon="-1.66888">
        <ele>106</ele>
        <time>2022-05-14T08:45:17Z</time>
      </trkpt>
      <trkpt lat="47.2564" lon="-1.6689">
        <ele>106</ele>
        <time>2022-05-14T08:45:19Z</time>
      </trkpt>
      <trkpt lat="47.25651" lon="-1.6689">
        <ele>106</ele>
        <time>2022-05-14T08:45:21Z</time>
      </trkpt>
      <trkpt lat="47.25662" lon="-1.66891">
        <ele>107</ele>
        <time>2022-05-14T08:45:23Z</time>
      </trkpt>
      <trkpt lat="47.25671" lon="-1.6689">
        <ele>107</ele>
        <time>2022-05-14T08:45:25Z</time>
      </trkpt>
      <trkpt lat="47.25681" lon="-1.66887">
        <ele>106</ele>
        <time>2022-05-14T08:45:27Z</time>
      </trkpt>
      <trkpt lat="47.25692" lon="-1.66885">
        <ele>107</ele>
        <time>2022-05-14T08:45:29Z</time>
      </trkpt>
      <trkpt lat="47.25703" lon="-1.66889">
        <ele>106</ele>
        <time>2022-05-14T08:45:31Z</time>
      </trkpt>
      <trkpt lat="47.25713" lon="-1.66893">
        <ele>106</ele>
        <time>2022-05-14T08:45:33Z</time>
      </trkpt>
      <trkpt lat="47.25724" lon="-1.66895">
        <ele>106</ele>
        <time>2022-05-14T08:45:35Z</time>
      </trkpt>
      <trkpt lat="47.25736" lon="-1.66897">
        <ele>107</ele>
        <time>2022-05-14T08:45:37Z</time>
      </trkpt>
      <trkpt lat="47.25747" lon="-1.66898">
        <ele>107</ele>
        <time>2022-05-14T08:45:39Z</time>
      </trkpt>
      <trkpt lat="47.25758" lon="-1.66899">
        <ele>107</ele>
        <time>2022-05-14T08:45:41Z</time>
      </trkpt>
      <trkpt lat="47.25769" lon="-1.669">
        <ele>108</ele>
        <time>2022-05-14T08:45:43Z</time>
      </trkpt>
      <trkpt lat="47.25779" lon="-1.66902">
        <ele>108</ele>
        <time>2022-05-14T08:45:45Z</time>
      </trkpt>
      <trkpt lat="47.2579" lon="-1.66903">
        <ele>108</ele>
        <time>2022-05-14T08:45:47Z</time>
      </trkpt>
      <trkpt lat="47.258" lon="-1.66905">
        <ele>108</ele>
        <time>2022-05-14T08:45:49Z</time>
      </trkpt>
      <trkpt lat="47.2581" lon="-1.66908">
        <ele>108</ele>
        <time>2022-05-14T08:45:51Z</time>
      </trkpt>
      <trkpt lat="47.2582" lon="-1.6691">
        <ele>109</ele>
        <time>2022-05-14T08:45:53Z</time>
      </trkpt>
      <trkpt lat="47.2583" lon="-1.66912">
        <ele>109</ele>
        <time>2022-05-14T08:45:55Z</time>
      </trkpt>
      <trkpt lat="47.2584" lon="-1.66915">
        <ele>109</ele>
        <time>2022-05-14T08:45:57Z</time>
      </trkpt>
      <trkpt lat="47.2585" lon="-1.66918">
        <ele>109</ele>
        <time>2022-05-14T08:45:59Z</time>
      </trkpt>
      <trkpt lat="47.2586" lon="-1.66921">
        <ele>109</ele>
        <time>2022-05-14T08:46:01Z</time>
      </trkpt>
      <trkpt lat="47.2587" lon="-1.66923">
        <ele>110</ele>
        <time>2022-05-14T08:46:03Z</time>
      </trkpt>
      <trkpt lat="47.2588" lon="-1.66927">
        <ele>110</ele>
        <time>2022-05-14T08:46:05Z</time>
      </trkpt>
      <trkpt lat="47.2589" lon="-1.6693">
        <ele>110</ele>
        <time>2022-05-14T08:46:07Z</time>
      </trkpt>
      <trkpt lat="47.259" lon="-1.66933">
        <ele>110</ele>
        <time>2022-05-14T08:46:09Z</time>
      </trkpt>
      <trkpt lat="47.2591" lon="-1.66936">
        <ele>111</ele>
        <time>2022-05-14T08:46:11Z</time>
      </trkpt>
      <trkpt lat="47.2592" lon="-1.66941">
        <ele>111</ele>
        <time>2022-05-14T08:46:13Z</time>
      </trkpt>
      <trkpt lat="47.2593" lon="-1.66945">
        <ele>111</ele>
        <time>2022-05-14T08:46:15Z</time>
      </trkpt>
      <trkpt lat="47.2594" lon="-1.66949">
        <ele>112</ele>
        <time>2022-05-14T08:46:17Z</time>
      </trkpt>
      <trkpt lat="47.25949" lon="-1.66954">
        <ele>112</ele>
        <time>2022-05-14T08:46:19Z</time>
      </trkpt>
      <trkpt lat="47.25959" lon="-1.66958">
        <ele>112</ele>
        <time>2022-05-14T08:46:21Z</time>
      </trkpt>
      <trkpt lat="47.25969" lon="-1.66962">
        <ele>112</ele>
        <time>2022-05-14T08:46:23Z</time>
      </trkpt>
      <trkpt lat="47.25978" lon="-1.66966">
        <ele>111</ele>
        <time>2022-05-14T08:46:25Z</time>
      </trkpt>
      <trkpt lat="47.25988" lon="-1.66971">
        <ele>112</ele>
        <time>2022-05-14T08:46:27Z</time>
      </trkpt>
      <trkpt lat="47.25997" lon="-1.66975">
        <ele>112</ele>
        <time>2022-05-14T08:46:29Z</time>
      </trkpt>
      <trkpt lat="47.26007" lon="-1.66979">
        <ele>112</ele>
        <time>2022-05-14T08:46:31Z</time>
      </trkpt>
      <trkpt lat="47.26017" lon="-1.66983">
        <ele>112</ele>
        <time>2022-05-14T08:46:33Z</time>
      </trkpt>
      <trkpt lat="47.26027" lon="-1.66988">
        <ele>112</ele>
        <time>2022-05-14T08:46:35Z</time>
      </trkpt>
      <trkpt lat="47.26036" lon="-1.66993">
        <ele>112</ele>
        <time>2022-05-14T08:46:37Z</time>
      </trkpt>
      <trkpt lat="47.26046" lon="-1.66997">
        <ele>112</ele>
        <time>2022-05-14T08:46:39Z</time>
      </trkpt>
      <trkpt lat="47.26055" lon="-1.67001">
        <ele>113</ele>
        <time>2022-05-14T08:46:41Z</time>
      </trkpt>
      <trkpt lat="47.26065" lon="-1.67005">
        <ele>113</ele>
        <time>2022-05-14T08:46:43Z</time>
      </trkpt>
      <trkpt lat="47.26074" lon="-1.67009">
        <ele>113</ele>
        <time>2022-05-14T08:46:45Z</time>
      </trkpt>
      <trkpt lat="47.26084" lon="-1.67013">
        <ele>114</ele>
        <time>2022-05-14T08:46:47Z</time>
      </trkpt>
      <trkpt lat="47.26094" lon="-1.67018">
        <ele>114</ele>
        <time>2022-05-14T08:46:49Z</time>
      </trkpt>
      <trkpt lat="47.26104" lon="-1.67023">
        <ele>115</ele>
        <time>2022-05-14T08:46:51Z</time>
      </trkpt>
      <trkpt lat="47.26114" lon="-1.67027">
        <ele>115</ele>
        <time>2022-05-14T08:46:53Z</time>
      </trkpt>
      <trkpt lat="47.26123" lon="-1.67032">
        <ele>116</ele>
        <time>2022-05-14T08:46:55Z</time>
      </trkpt>
      <trkpt lat="47.26133" lon="-1.67036">
        <ele>116</ele>
        <time>2022-05-14T08:46:57Z</time>
      </trkpt>
      <trkpt lat="47.26143" lon="-1.67041">
        <ele>116</ele>
        <time>2022-05-14T08:46:59Z</time>
      </trkpt>
      <trkpt lat="47.26153" lon="-1.67046">
        <ele>116</ele>
        <time>2022-05-14T08:47:01Z</time>
      </trkpt>
      <trkpt lat="47.26163" lon="-1.6705">
        <ele>116</ele>
        <time>2022-05-14T08:47:03Z</time>
      </trkpt>
      <trkpt lat="47.26173" lon="-1.67055">
        <ele>117</ele>
        <time>2022-05-14T08:47:05Z</time>
      </trkpt>
      <trkpt lat="47.26185" lon="-1.67061">
        <ele>118</ele>
        <time>2022-05-14T08:47:08Z</time>
      </trkpt>
      <trkpt lat="47.26196" lon="-1.6706">
        <ele>119</ele>
        <time>2022-05-14T08:47:11Z</time>
      </trkpt>
      <trkpt lat="47.26205" lon="-1.67065">
        <ele>118</ele>
        <time>2022-05-14T08:47:13Z</time>
      </trkpt>
      <trkpt lat="47.26209" lon="-1.67079">
        <ele>118</ele>
        <time>2022-05-14T08:47:15Z</time>
      </trkpt>
      <trkpt lat="47.26212" lon="-1.67095">
        <ele>117</ele>
        <time>2022-05-14T08:47:17Z</time>
      </trkpt>
      <trkpt lat="47.26215" lon="-1.67111">
        <ele>118</ele>
        <time>2022-05-14T08:47:19Z</time>
      </trkpt>
      <trkpt lat="47.26218" lon="-1.67128">
        <ele>118</ele>
        <time>2022-05-14T08:47:21Z</time>
      </trkpt>
      <trkpt lat="47.26221" lon="-1.67144">
        <ele>118</ele>
        <time>2022-05-14T08:47:23Z</time>
      </trkpt>
      <trkpt lat="47.26224" lon="-1.6716">
        <ele>119</ele>
        <time>2022-05-14T08:47:25Z</time>
      </trkpt>
      <trkpt lat="47.26227" lon="-1.67176">
        <ele>119</ele>
        <time>2022-05-14T08:47:27Z</time>
      </trkpt>
      <trkpt lat="47.2623" lon="-1.67191">
        <ele>119</ele>
        <time>2022-05-14T08:47:29Z</time>
      </trkpt>
      <trkpt lat="47.26233" lon="-1.67206">
        <ele>119</ele>
        <time>2022-05-14T08:47:31Z</time>
      </trkpt>
      <trkpt lat="47.26236" lon="-1.67221">
        <ele>119</ele>
        <time>2022-05-14T08:47:33Z</time>
      </trkpt>
      <trkpt lat="47.26241" lon="-1.67235">
        <ele>119</ele>
        <time>2022-05-14T08:47:35Z</time>
      </trkpt>
      <trkpt lat="47.26249" lon="-1.67244">
        <ele>122</ele>
        <time>2022-05-14T08:47:38Z</time>
      </trkpt>
      <trkpt lat="47.26262" lon="-1.67239">
        <ele>122</ele>
        <time>2022-05-14T08:47:40Z</time>
      </trkpt>
      <trkpt lat="47.26275" lon="-1.67236">
        <ele>122</ele>
        <time>2022-05-14T08:47:42Z</time>
      </trkpt>
      <trkpt lat="47.26284" lon="-1.67232">
        <ele>122</ele>
        <time>2022-05-14T08:47:44Z</time>
      </trkpt>
      <trkpt lat="47.26295" lon="-1.67228">
        <ele>122</ele>
        <time>2022-05-14T08:47:46Z</time>
      </trkpt>
      <trkpt lat="47.26305" lon="-1.67224">
        <ele>123</ele>
        <time>2022-05-14T08:47:48Z</time>
      </trkpt>
      <trkpt lat="47.26317" lon="-1.67221">
        <ele>123</ele>
        <time>2022-05-14T08:47:50Z</time>
      </trkpt>
      <trkpt lat="47.26328" lon="-1.67219">
        <ele>124</ele>
        <time>2022-05-14T08:47:52Z</time>
      </trkpt>
      <trkpt lat="47.26341" lon="-1.67218">
        <ele>123</ele>
        <time>2022-05-14T08:47:54Z</time>
      </trkpt>
      <trkpt lat="47.26354" lon="-1.67225">
        <ele>123</ele>
        <time>2022-05-14T08:47:56Z</time>
      </trkpt>
      <trkpt lat="47.26361" lon="-1.6724">
        <ele>122</ele>
        <time>2022-05-14T08:47:58Z</time>
      </trkpt>
      <trkpt lat="47.26364" lon="-1.67256">
        <ele>120</ele>
        <time>2022-05-14T08:48:00Z</time>
      </trkpt>
      <trkpt lat="47.26366" lon="-1.67273">
        <ele>119</ele>
        <time>2022-05-14T08:48:02Z</time>
      </trkpt>
      <trkpt lat="47.26371" lon="-1.67285">
        <ele>119</ele>
        <time>2022-05-14T08:48:04Z</time>
      </trkpt>
      <trkpt lat="47.26384" lon="-1.6729">
        <ele>119</ele>
        <time>2022-05-14T08:48:07Z</time>
      </trkpt>
      <trkpt lat="47.26394" lon="-1.67293">
        <ele>119</ele>
        <time>2022-05-14T08:48:09Z</time>
      </trkpt>
      <trkpt lat="47.26405" lon="-1.67298">
        <ele>119</ele>
        <time>2022-05-14T08:48:11Z</time>
      </trkpt>
      <trkpt lat="47.26416" lon="-1.67302">
        <ele>119</ele>
        <time>2022-05-14T08:48:13Z</time>
      </trkpt>
      <trkpt lat="47.26427" lon="-1.67308">
        <ele>118</ele>
        <time>2022-05-14T08:48:15Z</time>
      </trkpt>
      <trkpt lat="47.26436" lon="-1.67313">
        <ele>117</ele>
        <time>2022-05-14T08:48:17Z</time>
      </trkpt>
      <trkpt lat="47.26448" lon="-1.67308">
        <ele>116</ele>
        <time>2022-05-14T08:48:20Z</time>
      </trkpt>
      <trkpt lat="47.26454" lon="-1.67295">
        <ele>116</ele>
        <time>2022-05-14T08:48:22Z</time>
      </trkpt>
      <trkpt lat="47.2646" lon="-1.6728">
        <ele>116</ele>
        <time>2022-05-14T08:48:24Z</time>
      </trkpt>
      <trkpt lat="47.26466" lon="-1.67265">
        <ele>116</ele>
        <time>2022-05-14T08:48:26Z</time>
      </trkpt>
      <trkpt lat="47.26473" lon="-1.67249">
        <ele>116</ele>
        <time>2022-05-14T08:48:28Z</time>
      </trkpt>
      <trkpt lat="47.26479" lon="-1.67234">
        <ele>115</ele>
        <time>2022-05-14T08:48:30Z</time>
      </trkpt>
      <trkpt lat="47.26486" lon="-1.67218">
        <ele>115</ele>
        <time>2022-05-14T08:48:32Z</time>
      </trkpt>
      <trkpt lat="47.26494" lon="-1.67201">
        <ele>115</ele>
        <time>2022-05-14T08:48:34Z</time>
      </trkpt>
      <trkpt lat="47.26503" lon="-1.67185">
        <ele>114</ele>
        <time>2022-05-14T08:48:36Z</time>
      </trkpt>
      <trkpt lat="47.26512" lon="-1.67169">
        <ele>114</ele>
        <time>2022-05-14T08:48:38Z</time>
      </trkpt>
      <trkpt lat="47.26524" lon="-1.67154">
        <ele>112</ele>
        <time>2022-05-14T08:48:40Z</time>
      </trkpt>
      <trkpt lat="47.26536" lon="-1.67141">
        <ele>112</ele>
        <time>2022-05-14T08:48:42Z</time>
      </trkpt>
      <trkpt lat="47.26549" lon="-1.67129">
        <ele>111</ele>
        <time>2022-05-14T08:48:44Z</time>
      </trkpt>
      <trkpt lat="47.26563" lon="-1.6712">
        <ele>111</ele>
        <time>2022-05-14T08:48:46Z</time>
      </trkpt>
      <trkpt lat="47.26577" lon="-1.67109">
        <ele>111</ele>
        <time>2022-05-14T08:48:48Z</time>
      </trkpt>
      <trkpt lat="47.26591" lon="-1.67097">
        <ele>110</ele>
        <time>2022-05-14T08:48:50Z</time>
      </trkpt>
      <trkpt lat="47.26608" lon="-1.6709">
        <ele>109</ele>
        <time>2022-05-14T08:48:52Z</time>
      </trkpt>
      <trkpt lat="47.26624" lon="-1.6708">
        <ele>108</ele>
        <time>2022-05-14T08:48:54Z</time>
      </trkpt>
      <trkpt lat="47.2664" lon="-1.6707">
        <ele>106</ele>
        <time>2022-05-14T08:48:56Z</time>
      </trkpt>
      <trkpt lat="47.26655" lon="-1.67059">
        <ele>105</ele>
        <time>2022-05-14T08:48:58Z</time>
      </trkpt>
      <trkpt lat="47.26671" lon="-1.67048">
        <ele>103</ele>
        <time>2022-05-14T08:49:00Z</time>
      </trkpt>
      <trkpt lat="47.26687" lon="-1.67038">
        <ele>103</ele>
        <time>2022-05-14T08:49:02Z</time>
      </trkpt>
      <trkpt lat="47.26703" lon="-1.67027">
        <ele>102</ele>
        <time>2022-05-14T08:49:04Z</time>
      </trkpt>
      <trkpt lat="47.26718" lon="-1.67017">
        <ele>102</ele>
        <time>2022-05-14T08:49:06Z</time>
      </trkpt>
      <trkpt lat="47.26735" lon="-1.6701">
        <ele>102</ele>
        <time>2022-05-14T08:49:08Z</time>
      </trkpt>
      <trkpt lat="47.26745" lon="-1.67009">
        <ele>102</ele>
        <time>2022-05-14T08:49:09Z</time>
      </trkpt>
      <trkpt lat="47.26755" lon="-1.67011">
        <ele>101</ele>
        <time>2022-05-14T08:49:10Z</time>
      </trkpt>
      <trkpt lat="47.26765" lon="-1.67014">
        <ele>100</ele>
        <time>2022-05-14T08:49:11Z</time>
      </trkpt>
      <trkpt lat="47.26774" lon="-1.67019">
        <ele>99</ele>
        <time>2022-05-14T08:49:12Z</time>
      </trkpt>
      <trkpt lat="47.26782" lon="-1.67026">
        <ele>98</ele>
        <time>2022-05-14T08:49:13Z</time>
      </trkpt>
      <trkpt lat="47.2679" lon="-1.67034">
        <ele>97</ele>
        <time>2022-05-14T08:49:14Z</time>
      </trkpt>
      <trkpt lat="47.26798" lon="-1.67043">
        <ele>97</ele>
        <time>2022-05-14T08:49:15Z</time>
      </trkpt>
      <trkpt lat="47.26806" lon="-1.67052">
        <ele>97</ele>
        <time>2022-05-14T08:49:16Z</time>
      </trkpt>
      <trkpt lat="47.26813" lon="-1.67063">
        <ele>96</ele>
        <time>2022-05-14T08:49:17Z</time>
      </trkpt>
      <trkpt lat="47.26819" lon="-1.67075">
        <ele>96</ele>
        <time>2022-05-14T08:49:18Z</time>
      </trkpt>
      <trkpt lat="47.26826" lon="-1.67087">
        <ele>95</ele>
        <time>2022-05-14T08:49:19Z</time>
      </trkpt>
      <trkpt lat="47.26833" lon="-1.67097">
        <ele>94</ele>
        <time>2022-05-14T08:49:20Z</time>
      </trkpt>
      <trkpt lat="47.26841" lon="-1.67105">
        <ele>93</ele>
        <time>2022-05-14T08:49:21Z</time>
      </trkpt>
      <trkpt lat="47.26849" lon="-1.67112">
        <ele>93</ele>
        <time>2022-05-14T08:49:22Z</time>
      </trkpt>
      <trkpt lat="47.26856" lon="-1.67121">
        <ele>92</ele>
        <time>2022-05-14T08:49:23Z</time>
      </trkpt>
      <trkpt lat="47.26863" lon="-1.67132">
        <ele>92</ele>
        <time>2022-05-14T08:49:24Z</time>
      </trkpt>
      <trkpt lat="47.2687" lon="-1.67142">
        <ele>91</ele>
        <time>2022-05-14T08:49:25Z</time>
      </trkpt>
      <trkpt lat="47.26877" lon="-1.67151">
        <ele>91</ele>
        <time>2022-05-14T08:49:26Z</time>
      </trkpt>
      <trkpt lat="47.26893" lon="-1.6716">
        <ele>90</ele>
        <time>2022-05-14T08:49:28Z</time>
      </trkpt>
      <trkpt lat="47.26908" lon="-1.67163">
        <ele>93</ele>
        <time>2022-05-14T08:49:30Z</time>
      </trkpt>
      <trkpt lat="47.26917" lon="-1.67162">
        <ele>93</ele>
        <time>2022-05-14T08:49:32Z</time>
      </trkpt>
      <trkpt lat="47.26927" lon="-1.67157">
        <ele>95</ele>
        <time>2022-05-14T08:49:34Z</time>
      </trkpt>
      <trkpt lat="47.26937" lon="-1.67152">
        <ele>96</ele>
        <time>2022-05-14T08:49:36Z</time>
      </trkpt>
      <trkpt lat="47.26946" lon="-1.67147">
        <ele>96</ele>
        <time>2022-05-14T08:49:38Z</time>
      </trkpt>
      <trkpt lat="47.26956" lon="-1.6714">
        <ele>98</ele>
        <time>2022-05-14T08:49:41Z</time>
      </trkpt>
      <trkpt lat="47.26966" lon="-1.67135">
        <ele>100</ele>
        <time>2022-05-14T08:49:44Z</time>
      </trkpt>
      <trkpt lat="47.26977" lon="-1.67129">
        <ele>101</ele>
        <time>2022-05-14T08:49:47Z</time>
      </trkpt>
      <trkpt lat="47.2699" lon="-1.67125">
        <ele>101</ele>
        <time>2022-05-14T08:49:50Z</time>
      </trkpt>
      <trkpt lat="47.27002" lon="-1.6712">
        <ele>102</ele>
        <time>2022-05-14T08:49:53Z</time>
      </trkpt>
      <trkpt lat="47.27014" lon="-1.67115">
        <ele>102</ele>
        <time>2022-05-14T08:49:56Z</time>
      </trkpt>
      <trkpt lat="47.27027" lon="-1.67113">
        <ele>103</ele>
        <time>2022-05-14T08:49:59Z</time>
      </trkpt>
      <trkpt lat="47.27037" lon="-1.67112">
        <ele>104</ele>
        <time>2022-05-14T08:50:01Z</time>
      </trkpt>
      <trkpt lat="47.2705" lon="-1.67112">
        <ele>106</ele>
        <time>2022-05-14T08:50:03Z</time>
      </trkpt>
      <trkpt lat="47.27061" lon="-1.67112">
        <ele>107</ele>
        <time>2022-05-14T08:50:05Z</time>
      </trkpt>
      <trkpt lat="47.27072" lon="-1.67113">
        <ele>108</ele>
        <time>2022-05-14T08:50:08Z</time>
      </trkpt>
      <trkpt lat="47.27083" lon="-1.67116">
        <ele>108</ele>
        <time>2022-05-14T08:50:11Z</time>
      </trkpt>
      <trkpt lat="47.27093" lon="-1.67121">
        <ele>111</ele>
        <time>2022-05-14T08:50:14Z</time>
      </trkpt>
      <trkpt lat="47.27104" lon="-1.67124">
        <ele>115</ele>
        <time>2022-05-14T08:50:17Z</time>
      </trkpt>
      <trkpt lat="47.27114" lon="-1.67127">
        <ele>118</ele>
        <time>2022-05-14T08:50:20Z</time>
      </trkpt>
      <trkpt lat="47.27125" lon="-1.67129">
        <ele>121</ele>
        <time>2022-05-14T08:50:23Z</time>
      </trkpt>
      <trkpt lat="47.27134" lon="-1.67131">
        <ele>122</ele>
        <time>2022-05-14T08:50:25Z</time>
      </trkpt>
      <trkpt lat="47.27145" lon="-1.67137">
        <ele>123</ele>
        <time>2022-05-14T08:50:27Z</time>
      </trkpt>
      <trkpt lat="47.27159" lon="-1.67145">
        <ele>124</ele>
        <time>2022-05-14T08:50:29Z</time>
      </trkpt>
      <trkpt lat="47.27172" lon="-1.67155">
        <ele>124</ele>
        <time>2022-05-14T08:50:31Z</time>
      </trkpt>
      <trkpt lat="47.27182" lon="-1.67161">
        <ele>122</ele>
        <time>2022-05-14T08:50:33Z</time>
      </trkpt>
      <trkpt lat="47.27195" lon="-1.67168">
        <ele>120</ele>
        <time>2022-05-14T08:50:35Z</time>
      </trkpt>
      <trkpt lat="47.27208" lon="-1.67174">
        <ele>118</ele>
        <time>2022-05-14T08:50:37Z</time>
      </trkpt>
      <trkpt lat="47.27218" lon="-1.67179">
        <ele>118</ele>
        <time>2022-05-14T08:50:39Z</time>
      </trkpt>
      <trkpt lat="47.27228" lon="-1.67184">
        <ele>118</ele>
        <time>2022-05-14T08:50:41Z</time>
      </trkpt>
      <trkpt lat="47.27239" lon="-1.67189">
        <ele>118</ele>
        <time>2022-05-14T08:50:43Z</time>
      </trkpt>
      <trkpt lat="47.2725" lon="-1.67191">
        <ele>119</ele>
        <time>2022-05-14T08:50:45Z</time>
      </trkpt>
      <trkpt lat="47.2726" lon="-1.67193">
        <ele>119</ele>
        <time>2022-05-14T08:50:47Z</time>
      </trkpt>
      <trkpt lat="47.27271" lon="-1.67197">
        <ele>120</ele>
        <time>2022-05-14T08:50:49Z</time>
      </trkpt>
      <trkpt lat="47.27281" lon="-1.67201">
        <ele>119</ele>
        <time>2022-05-14T08:50:51Z</time>
      </trkpt>
      <trkpt lat="47.27292" lon="-1.67206">
        <ele>119</ele>
        <time>2022-05-14T08:50:53Z</time>
      </trkpt>
      <trkpt lat="47.27303" lon="-1.67211">
        <ele>119</ele>
        <time>2022-05-14T08:50:55Z</time>
      </trkpt>
      <trkpt lat="47.27315" lon="-1.67213">
        <ele>119</ele>
        <time>2022-05-14T08:50:58Z</time>
      </trkpt>
      <trkpt lat="47.27328" lon="-1.67213">
        <ele>120</ele>
        <time>2022-05-14T08:51:01Z</time>
      </trkpt>
      <trkpt lat="47.27343" lon="-1.6721">
        <ele>122</ele>
        <time>2022-05-14T08:51:04Z</time>
      </trkpt>
      <trkpt lat="47.27352" lon="-1.67207">
        <ele>124</ele>
        <time>2022-05-14T08:51:06Z</time>
      </trkpt>
      <trkpt lat="47.27361" lon="-1.67203">
        <ele>124</ele>
        <time>2022-05-14T08:51:08Z</time>
      </trkpt>
      <trkpt lat="47.27372" lon="-1.67197">
        <ele>123</ele>
        <time>2022-05-14T08:51:10Z</time>
      </trkpt>
      <trkpt lat="47.27381" lon="-1.67191">
        <ele>123</ele>
        <time>2022-05-14T08:51:12Z</time>
      </trkpt>
      <trkpt lat="47.2739" lon="-1.67184">
        <ele>123</ele>
        <time>2022-05-14T08:51:14Z</time>
      </trkpt>
      <trkpt lat="47.274" lon="-1.67178">
        <ele>123</ele>
        <time>2022-05-14T08:51:16Z</time>
      </trkpt>
      <trkpt lat="47.27408" lon="-1.6717">
        <ele>123</ele>
        <time>2022-05-14T08:51:18Z</time>
      </trkpt>
      <trkpt lat="47.27416" lon="-1.67162">
        <ele>123</ele>
        <time>2022-05-14T08:51:20Z</time>
      </trkpt>
      <trkpt lat="47.27426" lon="-1.67153">
        <ele>123</ele>
        <time>2022-05-14T08:51:22Z</time>
      </trkpt>
      <trkpt lat="47.27435" lon="-1.67144">
        <ele>121</ele>
        <time>2022-05-14T08:51:24Z</time>
      </trkpt>
      <trkpt lat="47.27445" lon="-1.67137">
        <ele>121</ele>
        <time>2022-05-14T08:51:26Z</time>
      </trkpt>
      <trkpt lat="47.27455" lon="-1.67129">
        <ele>120</ele>
        <time>2022-05-14T08:51:28Z</time>
      </trkpt>
      <trkpt lat="47.27464" lon="-1.67121">
        <ele>120</ele>
        <time>2022-05-14T08:51:30Z</time>
      </trkpt>
      <trkpt lat="47.27473" lon="-1.67112">
        <ele>119</ele>
        <time>2022-05-14T08:51:32Z</time>
      </trkpt>
      <trkpt lat="47.27482" lon="-1.67105">
        <ele>118</ele>
        <time>2022-05-14T08:51:34Z</time>
      </trkpt>
      <trkpt lat="47.27491" lon="-1.67097">
        <ele>117</ele>
        <time>2022-05-14T08:51:36Z</time>
      </trkpt>
      <trkpt lat="47.27501" lon="-1.67089">
        <ele>117</ele>
        <time>2022-05-14T08:51:38Z</time>
      </trkpt>
      <trkpt lat="47.2751" lon="-1.67081">
        <ele>115</ele>
        <time>2022-05-14T08:51:40Z</time>
      </trkpt>
      <trkpt lat="47.27519" lon="-1.67075">
        <ele>115</ele>
        <time>2022-05-14T08:51:42Z</time>
      </trkpt>
      <trkpt lat="47.27528" lon="-1.6708">
        <ele>115</ele>
        <time>2022-05-14T08:51:44Z</time>
      </trkpt>
      <trkpt lat="47.27532" lon="-1.67095">
        <ele>116</ele>
        <time>2022-05-14T08:51:46Z</time>
      </trkpt>
      <trkpt lat="47.27535" lon="-1.6711">
        <ele>116</ele>
        <time>2022-05-14T08:51:48Z</time>
      </trkpt>
      <trkpt lat="47.27538" lon="-1.67126">
        <ele>115</ele>
        <time>2022-05-14T08:51:50Z</time>
      </trkpt>
      <trkpt lat="47.27541" lon="-1.67141">
        <ele>115</ele>
        <time>2022-05-14T08:51:52Z</time>
      </trkpt>
      <trkpt lat="47.27544" lon="-1.67157">
        <ele>115</ele>
        <time>2022-05-14T08:51:54Z</time>
      </trkpt>
      <trkpt lat="47.27547" lon="-1.67171">
        <ele>115</ele>
        <time>2022-05-14T08:51:56Z</time>
      </trkpt>
      <trkpt lat="47.2755" lon="-1.67186">
        <ele>116</ele>
        <time>2022-05-14T08:51:58Z</time>
      </trkpt>
      <trkpt lat="47.27553" lon="-1.67201">
        <ele>116</ele>
        <time>2022-05-14T08:52:00Z</time>
      </trkpt>
      <trkpt lat="47.27556" lon="-1.67215">
        <ele>116</ele>
        <time>2022-05-14T08:52:02Z</time>
      </trkpt>
      <trkpt lat="47.27558" lon="-1.67229">
        <ele>117</ele>
        <time>2022-05-14T08:52:04Z</time>
      </trkpt>
      <trkpt lat="47.27561" lon="-1.67243">
        <ele>117</ele>
        <time>2022-05-14T08:52:06Z</time>
      </trkpt>
      <trkpt lat="47.27564" lon="-1.67259">
        <ele>117</ele>
        <time>2022-05-14T08:52:08Z</time>
      </trkpt>
      <trkpt lat="47.27569" lon="-1.67273">
        <ele>117</ele>
        <time>2022-05-14T08:52:10Z</time>
      </trkpt>
      <trkpt lat="47.27578" lon="-1.67295">
        <ele>117</ele>
        <time>2022-05-14T08:52:13Z</time>
      </trkpt>
      <trkpt lat="47.27586" lon="-1.67308">
        <ele>117</ele>
        <time>2022-05-14T08:52:15Z</time>
      </trkpt>
      <trkpt lat="47.27594" lon="-1.6732">
        <ele>117</ele>
        <time>2022-05-14T08:52:17Z</time>
      </trkpt>
      <trkpt lat="47.27602" lon="-1.67332">
        <ele>117</ele>
        <time>2022-05-14T08:52:19Z</time>
      </trkpt>
      <trkpt lat="47.27615" lon="-1.6735">
        <ele>118</ele>
        <time>2022-05-14T08:52:22Z</time>
      </trkpt>
      <trkpt lat="47.27624" lon="-1.67363">
        <ele>117</ele>
        <time>2022-05-14T08:52:24Z</time>
      </trkpt>
      <trkpt lat="47.27633" lon="-1.67374">
        <ele>117</ele>
        <time>2022-05-14T08:52:26Z</time>
      </trkpt>
      <trkpt lat="47.27644" lon="-1.67384">
        <ele>117</ele>
        <time>2022-05-14T08:52:28Z</time>
      </trkpt>
      <trkpt lat="47.27655" lon="-1.67392">
        <ele>117</ele>
        <time>2022-05-14T08:52:30Z</time>
      </trkpt>
      <trkpt lat="47.27666" lon="-1.67397">
        <ele>117</ele>
        <time>2022-05-14T08:52:32Z</time>
      </trkpt>
      <trkpt lat="47.27676" lon="-1.67402">
        <ele>118</ele>
        <time>2022-05-14T08:52:34Z</time>
      </trkpt>
      <trkpt lat="47.27688" lon="-1.67406">
        <ele>119</ele>
        <time>2022-05-14T08:52:36Z</time>
      </trkpt>
      <trkpt lat="47.277" lon="-1.67409">
        <ele>120</ele>
        <time>2022-05-14T08:52:38Z</time>
      </trkpt>
      <trkpt lat="47.27713" lon="-1.67414">
        <ele>121</ele>
        <time>2022-05-14T08:52:40Z</time>
      </trkpt>
      <trkpt lat="47.27727" lon="-1.67419">
        <ele>121</ele>
        <time>2022-05-14T08:52:42Z</time>
      </trkpt>
      <trkpt lat="47.27741" lon="-1.67423">
        <ele>121</ele>
        <time>2022-05-14T08:52:44Z</time>
      </trkpt>
      <trkpt lat="47.27756" lon="-1.67427">
        <ele>120</ele>
        <time>2022-05-14T08:52:46Z</time>
      </trkpt>
      <trkpt lat="47.2777" lon="-1.67429">
        <ele>120</ele>
        <time>2022-05-14T08:52:48Z</time>
      </trkpt>
      <trkpt lat="47.27785" lon="-1.6743">
        <ele>119</ele>
        <time>2022-05-14T08:52:50Z</time>
      </trkpt>
      <trkpt lat="47.27801" lon="-1.6743">
        <ele>119</ele>
        <time>2022-05-14T08:52:52Z</time>
      </trkpt>
      <trkpt lat="47.27815" lon="-1.6743">
        <ele>118</ele>
        <time>2022-05-14T08:52:54Z</time>
      </trkpt>
      <trkpt lat="47.2783" lon="-1.6743">
        <ele>117</ele>
        <time>2022-05-14T08:52:56Z</time>
      </trkpt>
      <trkpt lat="47.27846" lon="-1.67429">
        <ele>116</ele>
        <time>2022-05-14T08:52:58Z</time>
      </trkpt>
      <trkpt lat="47.27861" lon="-1.67428">
        <ele>115</ele>
        <time>2022-05-14T08:53:00Z</time>
      </trkpt>
      <trkpt lat="47.27877" lon="-1.67428">
        <ele>115</ele>
        <time>2022-05-14T08:53:02Z</time>
      </trkpt>
      <trkpt lat="47.27892" lon="-1.67429">
        <ele>114</ele>
        <time>2022-05-14T08:53:04Z</time>
      </trkpt>
      <trkpt lat="47.27908" lon="-1.67431">
        <ele>114</ele>
        <time>2022-05-14T08:53:06Z</time>
      </trkpt>
      <trkpt lat="47.27924" lon="-1.67433">
        <ele>114</ele>
        <time>2022-05-14T08:53:08Z</time>
      </trkpt>
      <trkpt lat="47.27939" lon="-1.67438">
        <ele>113</ele>
        <time>2022-05-14T08:53:10Z</time>
      </trkpt>
      <trkpt lat="47.27954" lon="-1.67443">
        <ele>111</ele>
        <time>2022-05-14T08:53:12Z</time>
      </trkpt>
      <trkpt lat="47.27967" lon="-1.67449">
        <ele>111</ele>
        <time>2022-05-14T08:53:14Z</time>
      </trkpt>
      <trkpt lat="47.27981" lon="-1.67455">
        <ele>111</ele>
        <time>2022-05-14T08:53:16Z</time>
      </trkpt>
      <trkpt lat="47.27995" lon="-1.67461">
        <ele>111</ele>
        <time>2022-05-14T08:53:18Z</time>
      </trkpt>
      <trkpt lat="47.28008" lon="-1.67469">
        <ele>111</ele>
        <time>2022-05-14T08:53:20Z</time>
      </trkpt>
      <trkpt lat="47.28021" lon="-1.67477">
        <ele>112</ele>
        <time>2022-05-14T08:53:22Z</time>
      </trkpt>
      <trkpt lat="47.28033" lon="-1.67484">
        <ele>112</ele>
        <time>2022-05-14T08:53:24Z</time>
      </trkpt>
      <trkpt lat="47.28045" lon="-1.67491">
        <ele>112</ele>
        <time>2022-05-14T08:53:26Z</time>
      </trkpt>
      <trkpt lat="47.28057" lon="-1.67497">
        <ele>112</ele>
        <time>2022-05-14T08:53:28Z</time>
      </trkpt>
      <trkpt lat="47.28068" lon="-1.67503">
        <ele>112</ele>
        <time>2022-05-14T08:53:30Z</time>
      </trkpt>
      <trkpt lat="47.28079" lon="-1.6751">
        <ele>112</ele>
        <time>2022-05-14T08:53:32Z</time>
      </trkpt>
      <trkpt lat="47.2809" lon="-1.67517">
        <ele>112</ele>
        <time>2022-05-14T08:53:34Z</time>
      </trkpt>
      <trkpt lat="47.28102" lon="-1.67523">
        <ele>112</ele>
        <time>2022-05-14T08:53:36Z</time>
      </trkpt>
      <trkpt lat="47.28113" lon="-1.6753">
        <ele>112</ele>
        <time>2022-05-14T08:53:38Z</time>
      </trkpt>
      <trkpt lat="47.28125" lon="-1.67537">
        <ele>113</ele>
        <time>2022-05-14T08:53:40Z</time>
      </trkpt>
      <trkpt lat="47.28136" lon="-1.67544">
        <ele>113</ele>
        <time>2022-05-14T08:53:42Z</time>
      </trkpt>
      <trkpt lat="47.28147" lon="-1.6755">
        <ele>112</ele>
        <time>2022-05-14T08:53:44Z</time>
      </trkpt>
      <trkpt lat="47.28158" lon="-1.67557">
        <ele>112</ele>
        <time>2022-05-14T08:53:46Z</time>
      </trkpt>
      <trkpt lat="47.28169" lon="-1.67563">
        <ele>112</ele>
        <time>2022-05-14T08:53:48Z</time>
      </trkpt>
      <trkpt lat="47.2818" lon="-1.6757">
        <ele>112</ele>
        <time>2022-05-14T08:53:50Z</time>
      </trkpt>
      <trkpt lat="47.28192" lon="-1.67577">
        <ele>112</ele>
        <time>2022-05-14T08:53:52Z</time>
      </trkpt>
      <trkpt lat="47.28204" lon="-1.67583">
        <ele>112</ele>
        <time>2022-05-14T08:53:54Z</time>
      </trkpt>
      <trkpt lat="47.28215" lon="-1.6759">
        <ele>112</ele>
        <time>2022-05-14T08:53:56Z</time>
      </trkpt>
      <trkpt lat="47.28226" lon="-1.67596">
        <ele>112</ele>
        <time>2022-05-14T08:53:58Z</time>
      </trkpt>
      <trkpt lat="47.28238" lon="-1.67602">
        <ele>112</ele>
        <time>2022-05-14T08:54:00Z</time>
      </trkpt>
      <trkpt lat="47.28249" lon="-1.67608">
        <ele>113</ele>
        <time>2022-05-14T08:54:02Z</time>
      </trkpt>
      <trkpt lat="47.2826" lon="-1.67613">
        <ele>113</ele>
        <time>2022-05-14T08:54:04Z</time>
      </trkpt>
      <trkpt lat="47.28274" lon="-1.67615">
        <ele>113</ele>
        <time>2022-05-14T08:54:06Z</time>
      </trkpt>
      <trkpt lat="47.28287" lon="-1.67615">
        <ele>113</ele>
        <time>2022-05-14T08:54:08Z</time>
      </trkpt>
      <trkpt lat="47.28299" lon="-1.67614">
        <ele>113</ele>
        <time>2022-05-14T08:54:10Z</time>
      </trkpt>
      <trkpt lat="47.28312" lon="-1.67613">
        <ele>113</ele>
        <time>2022-05-14T08:54:12Z</time>
      </trkpt>
      <trkpt lat="47.28325" lon="-1.67611">
        <ele>113</ele>
        <time>2022-05-14T08:54:14Z</time>
      </trkpt>
      <trkpt lat="47.28339" lon="-1.67609">
        <ele>112</ele>
        <time>2022-05-14T08:54:16Z</time>
      </trkpt>
      <trkpt lat="47.28352" lon="-1.67606">
        <ele>112</ele>
        <time>2022-05-14T08:54:18Z</time>
      </trkpt>
      <trkpt lat="47.28365" lon="-1.67604">
        <ele>112</ele>
        <time>2022-05-14T08:54:20Z</time>
      </trkpt>
      <trkpt lat="47.28379" lon="-1.67602">
        <ele>112</ele>
        <time>2022-05-14T08:54:22Z</time>
      </trkpt>
      <trkpt lat="47.28392" lon="-1.676">
        <ele>111</ele>
        <time>2022-05-14T08:54:24Z</time>
      </trkpt>
      <trkpt lat="47.28405" lon="-1.67598">
        <ele>111</ele>
        <time>2022-05-14T08:54:26Z</time>
      </trkpt>
      <trkpt lat="47.28418" lon="-1.67597">
        <ele>111</ele>
        <time>2022-05-14T08:54:28Z</time>
      </trkpt>
      <trkpt lat="47.28432" lon="-1.67597">
        <ele>111</ele>
        <time>2022-05-14T08:54:30Z</time>
      </trkpt>
      <trkpt lat="47.28444" lon="-1.67597">
        <ele>112</ele>
        <time>2022-05-14T08:54:32Z</time>
      </trkpt>
      <trkpt lat="47.28457" lon="-1.67599">
        <ele>112</ele>
        <time>2022-05-14T08:54:34Z</time>
      </trkpt>
      <trkpt lat="47.2847" lon="-1.67605">
        <ele>112</ele>
        <time>2022-05-14T08:54:36Z</time>
      </trkpt>
      <trkpt lat="47.28483" lon="-1.6761">
        <ele>112</ele>
        <time>2022-05-14T08:54:38Z</time>
      </trkpt>
      <trkpt lat="47.28495" lon="-1.67615">
        <ele>111</ele>
        <time>2022-05-14T08:54:40Z</time>
      </trkpt>
      <trkpt lat="47.28508" lon="-1.67619">
        <ele>112</ele>
        <time>2022-05-14T08:54:42Z</time>
      </trkpt>
      <trkpt lat="47.28521" lon="-1.6762">
        <ele>112</ele>
        <time>2022-05-14T08:54:44Z</time>
      </trkpt>
      <trkpt lat="47.28533" lon="-1.67619">
        <ele>112</ele>
        <time>2022-05-14T08:54:46Z</time>
      </trkpt>
      <trkpt lat="47.28546" lon="-1.67616">
        <ele>112</ele>
        <time>2022-05-14T08:54:48Z</time>
      </trkpt>
      <trkpt lat="47.28558" lon="-1.6761">
        <ele>112</ele>
        <time>2022-05-14T08:54:50Z</time>
      </trkpt>
      <trkpt lat="47.28571" lon="-1.67604">
        <ele>112</ele>
        <time>2022-05-14T08:54:52Z</time>
      </trkpt>
      <trkpt lat="47.28583" lon="-1.67596">
        <ele>111</ele>
        <time>2022-05-14T08:54:54Z</time>
      </trkpt>
      <trkpt lat="47.28596" lon="-1.67589">
        <ele>110</ele>
        <time>2022-05-14T08:54:56Z</time>
      </trkpt>
      <trkpt lat="47.28609" lon="-1.67582">
        <ele>110</ele>
        <time>2022-05-14T08:54:58Z</time>
      </trkpt>
      <trkpt lat="47.28622" lon="-1.67577">
        <ele>110</ele>
        <time>2022-05-14T08:55:00Z</time>
      </trkpt>
      <trkpt lat="47.28635" lon="-1.67574">
        <ele>110</ele>
        <time>2022-05-14T08:55:02Z</time>
      </trkpt>
      <trkpt lat="47.2865" lon="-1.67575">
        <ele>110</ele>
        <time>2022-05-14T08:55:04Z</time>
      </trkpt>
      <trkpt lat="47.28664" lon="-1.67579">
        <ele>110</ele>
        <time>2022-05-14T08:55:06Z</time>
      </trkpt>
      <trkpt lat="47.28679" lon="-1.67587">
        <ele>109</ele>
        <time>2022-05-14T08:55:08Z</time>
      </trkpt>
      <trkpt lat="47.28692" lon="-1.67596">
        <ele>108</ele>
        <time>2022-05-14T08:55:10Z</time>
      </trkpt>
      <trkpt lat="47.28705" lon="-1.67605">
        <ele>108</ele>
        <time>2022-05-14T08:55:12Z</time>
      </trkpt>
      <trkpt lat="47.28718" lon="-1.67613">
        <ele>108</ele>
        <time>2022-05-14T08:55:14Z</time>
      </trkpt>
      <trkpt lat="47.28731" lon="-1.67621">
        <ele>108</ele>
        <time>2022-05-14T08:55:16Z</time>
      </trkpt>
      <trkpt lat="47.28741" lon="-1.67626">
        <ele>108</ele>
        <time>2022-05-14T08:55:18Z</time>
      </trkpt>
      <trkpt lat="47.28752" lon="-1.67625">
        <ele>109</ele>
        <time>2022-05-14T08:55:21Z</time>
      </trkpt>
      <trkpt lat="47.28757" lon="-1.67611">
        <ele>110</ele>
        <time>2022-05-14T08:55:23Z</time>
      </trkpt>
      <trkpt lat="47.2876" lon="-1.67593">
        <ele>110</ele>
        <time>2022-05-14T08:55:25Z</time>
      </trkpt>
      <trkpt lat="47.28765" lon="-1.67575">
        <ele>110</ele>
        <time>2022-05-14T08:55:27Z</time>
      </trkpt>
      <trkpt lat="47.28769" lon="-1.67557">
        <ele>110</ele>
        <time>2022-05-14T08:55:29Z</time>
      </trkpt>
      <trkpt lat="47.28773" lon="-1.67539">
        <ele>110</ele>
        <time>2022-05-14T08:55:31Z</time>
      </trkpt>
      <trkpt lat="47.28778" lon="-1.67522">
        <ele>110</ele>
        <time>2022-05-14T08:55:33Z</time>
      </trkpt>
      <trkpt lat="47.28783" lon="-1.67505">
        <ele>110</ele>
        <time>2022-05-14T08:55:35Z</time>
      </trkpt>
      <trkpt lat="47.28787" lon="-1.67488">
        <ele>111</ele>
        <time>2022-05-14T08:55:37Z</time>
      </trkpt>
      <trkpt lat="47.28791" lon="-1.67471">
        <ele>111</ele>
        <time>2022-05-14T08:55:39Z</time>
      </trkpt>
      <trkpt lat="47.28794" lon="-1.67456">
        <ele>111</ele>
        <time>2022-05-14T08:55:41Z</time>
      </trkpt>
      <trkpt lat="47.28798" lon="-1.67441">
        <ele>112</ele>
        <time>2022-05-14T08:55:43Z</time>
      </trkpt>
      <trkpt lat="47.28804" lon="-1.67427">
        <ele>112</ele>
        <time>2022-05-14T08:55:45Z</time>
      </trkpt>
      <trkpt lat="47.2881" lon="-1.67412">
        <ele>111</ele>
        <time>2022-05-14T08:55:47Z</time>
      </trkpt>
      <trkpt lat="47.28815" lon="-1.67397">
        <ele>111</ele>
        <time>2022-05-14T08:55:49Z</time>
      </trkpt>
      <trkpt lat="47.2882" lon="-1.67382">
        <ele>111</ele>
        <time>2022-05-14T08:55:51Z</time>
      </trkpt>
      <trkpt lat="47.28826" lon="-1.67369">
        <ele>111</ele>
        <time>2022-05-14T08:55:53Z</time>
      </trkpt>
      <trkpt lat="47.28833" lon="-1.67355">
        <ele>111</ele>
        <time>2022-05-14T08:55:55Z</time>
      </trkpt>
      <trkpt lat="47.28842" lon="-1.67345">
        <ele>110</ele>
        <time>2022-05-14T08:55:57Z</time>
      </trkpt>
      <trkpt lat="47.28852" lon="-1.67338">
        <ele>110</ele>
        <time>2022-05-14T08:55:59Z</time>
      </trkpt>
      <trkpt lat="47.28863" lon="-1.67334">
        <ele>111</ele>
        <time>2022-05-14T08:56:01Z</time>
      </trkpt>
      <trkpt lat="47.28874" lon="-1.67333">
        <ele>111</ele>
        <time>2022-05-14T08:56:03Z</time>
      </trkpt>
      <trkpt lat="47.28886" lon="-1.67331">
        <ele>111</ele>
        <time>2022-05-14T08:56:05Z</time>
      </trkpt>
      <trkpt lat="47.28897" lon="-1.6733">
        <ele>111</ele>
        <time>2022-05-14T08:56:07Z</time>
      </trkpt>
      <trkpt lat="47.28908" lon="-1.67329">
        <ele>112</ele>
        <time>2022-05-14T08:56:09Z</time>
      </trkpt>
      <trkpt lat="47.28919" lon="-1.6733">
        <ele>112</ele>
        <time>2022-05-14T08:56:11Z</time>
      </trkpt>
      <trkpt lat="47.28931" lon="-1.67334">
        <ele>112</ele>
        <time>2022-05-14T08:56:13Z</time>
      </trkpt>
      <trkpt lat="47.28942" lon="-1.67338">
        <ele>112</ele>
        <time>2022-05-14T08:56:15Z</time>
      </trkpt>
      <trkpt lat="47.28954" lon="-1.67343">
        <ele>113</ele>
        <time>2022-05-14T08:56:17Z</time>
      </trkpt>
      <trkpt lat="47.28966" lon="-1.67349">
        <ele>112</ele>
        <time>2022-05-14T08:56:19Z</time>
      </trkpt>
      <trkpt lat="47.28978" lon="-1.67353">
        <ele>112</ele>
        <time>2022-05-14T08:56:21Z</time>
      </trkpt>
      <trkpt lat="47.28989" lon="-1.67355">
        <ele>112</ele>
        <time>2022-05-14T08:56:23Z</time>
      </trkpt>
      <trkpt lat="47.29001" lon="-1.67354">
        <ele>112</ele>
        <time>2022-05-14T08:56:25Z</time>
      </trkpt>
      <trkpt lat="47.29012" lon="-1.67351">
        <ele>112</ele>
        <time>2022-05-14T08:56:27Z</time>
      </trkpt>
      <trkpt lat="47.29023" lon="-1.67347">
        <ele>112</ele>
        <time>2022-05-14T08:56:29Z</time>
      </trkpt>
      <trkpt lat="47.29035" lon="-1.67342">
        <ele>113</ele>
        <time>2022-05-14T08:56:31Z</time>
      </trkpt>
      <trkpt lat="47.29046" lon="-1.67339">
        <ele>113</ele>
        <time>2022-05-14T08:56:33Z</time>
      </trkpt>
      <trkpt lat="47.29057" lon="-1.67335">
        <ele>113</ele>
        <time>2022-05-14T08:56:35Z</time>
      </trkpt>
      <trkpt lat="47.29069" lon="-1.6733">
        <ele>114</ele>
        <time>2022-05-14T08:56:37Z</time>
      </trkpt>
      <trkpt lat="47.2908" lon="-1.67326">
        <ele>114</ele>
        <time>2022-05-14T08:56:39Z</time>
      </trkpt>
      <trkpt lat="47.29091" lon="-1.67321">
        <ele>114</ele>
        <time>2022-05-14T08:56:41Z</time>
      </trkpt>
      <trkpt lat="47.29102" lon="-1.67317">
        <ele>115</ele>
        <time>2022-05-14T08:56:43Z</time>
      </trkpt>
      <trkpt lat="47.29113" lon="-1.67315">
        <ele>116</ele>
        <time>2022-05-14T08:56:45Z</time>
      </trkpt>
      <trkpt lat="47.29122" lon="-1.67313">
        <ele>117</ele>
        <time>2022-05-14T08:56:47Z</time>
      </trkpt>
      <trkpt lat="47.29132" lon="-1.67311">
        <ele>118</ele>
        <time>2022-05-14T08:56:49Z</time>
      </trkpt>
      <trkpt lat="47.29143" lon="-1.6731">
        <ele>119</ele>
        <time>2022-05-14T08:56:51Z</time>
      </trkpt>
      <trkpt lat="47.29154" lon="-1.67312">
        <ele>119</ele>
        <time>2022-05-14T08:56:53Z</time>
      </trkpt>
      <trkpt lat="47.29165" lon="-1.67316">
        <ele>119</ele>
        <time>2022-05-14T08:56:55Z</time>
      </trkpt>
      <trkpt lat="47.29176" lon="-1.67318">
        <ele>120</ele>
        <time>2022-05-14T08:56:57Z</time>
      </trkpt>
      <trkpt lat="47.29185" lon="-1.67321">
        <ele>120</ele>
        <time>2022-05-14T08:56:59Z</time>
      </trkpt>
      <trkpt lat="47.29199" lon="-1.67322">
        <ele>121</ele>
        <time>2022-05-14T08:57:02Z</time>
      </trkpt>
      <trkpt lat="47.29208" lon="-1.67323">
        <ele>123</ele>
        <time>2022-05-14T08:57:04Z</time>
      </trkpt>
      <trkpt lat="47.2922" lon="-1.67324">
        <ele>124</ele>
        <time>2022-05-14T08:57:06Z</time>
      </trkpt>
      <trkpt lat="47.29234" lon="-1.67323">
        <ele>125</ele>
        <time>2022-05-14T08:57:08Z</time>
      </trkpt>
      <trkpt lat="47.29248" lon="-1.67322">
        <ele>124</ele>
        <time>2022-05-14T08:57:10Z</time>
      </trkpt>
      <trkpt lat="47.2926" lon="-1.67319">
        <ele>123</ele>
        <time>2022-05-14T08:57:12Z</time>
      </trkpt>
      <trkpt lat="47.29272" lon="-1.67312">
        <ele>122</ele>
        <time>2022-05-14T08:57:14Z</time>
      </trkpt>
      <trkpt lat="47.29282" lon="-1.67301">
        <ele>122</ele>
        <time>2022-05-14T08:57:16Z</time>
      </trkpt>
      <trkpt lat="47.2929" lon="-1.67288">
        <ele>121</ele>
        <time>2022-05-14T08:57:18Z</time>
      </trkpt>
      <trkpt lat="47.29296" lon="-1.67275">
        <ele>122</ele>
        <time>2022-05-14T08:57:20Z</time>
      </trkpt>
      <trkpt lat="47.29303" lon="-1.67261">
        <ele>122</ele>
        <time>2022-05-14T08:57:22Z</time>
      </trkpt>
      <trkpt lat="47.29311" lon="-1.67247">
        <ele>122</ele>
        <time>2022-05-14T08:57:24Z</time>
      </trkpt>
      <trkpt lat="47.29319" lon="-1.67232">
        <ele>122</ele>
        <time>2022-05-14T08:57:26Z</time>
      </trkpt>
      <trkpt lat="47.29326" lon="-1.67217">
        <ele>121</ele>
        <time>2022-05-14T08:57:28Z</time>
      </trkpt>
      <trkpt lat="47.29334" lon="-1.67204">
        <ele>121</ele>
        <time>2022-05-14T08:57:30Z</time>
      </trkpt>
      <trkpt lat="47.29341" lon="-1.6719">
        <ele>122</ele>
        <time>2022-05-14T08:57:32Z</time>
      </trkpt>
      <trkpt lat="47.29347" lon="-1.67177">
        <ele>122</ele>
        <time>2022-05-14T08:57:34Z</time>
      </trkpt>
      <trkpt lat="47.29353" lon="-1.67164">
        <ele>123</ele>
        <time>2022-05-14T08:57:36Z</time>
      </trkpt>
      <trkpt lat="47.29359" lon="-1.6715">
        <ele>123</ele>
        <time>2022-05-14T08:57:38Z</time>
      </trkpt>
      <trkpt lat="47.29367" lon="-1.67136">
        <ele>123</ele>
        <time>2022-05-14T08:57:40Z</time>
      </trkpt>
      <trkpt lat="47.29375" lon="-1.67121">
        <ele>123</ele>
        <time>2022-05-14T08:57:42Z</time>
      </trkpt>
      <trkpt lat="47.29383" lon="-1.67106">
        <ele>122</ele>
        <time>2022-05-14T08:57:44Z</time>
      </trkpt>
      <trkpt lat="47.2939" lon="-1.67091">
        <ele>122</ele>
        <time>2022-05-14T08:57:46Z</time>
      </trkpt>
      <trkpt lat="47.29397" lon="-1.67077">
        <ele>122</ele>
        <time>2022-05-14T08:57:48Z</time>
      </trkpt>
      <trkpt lat="47.29404" lon="-1.67063">
        <ele>122</ele>
        <time>2022-05-14T08:57:50Z</time>
      </trkpt>
      <trkpt lat="47.29412" lon="-1.67049">
        <ele>122</ele>
        <time>2022-05-14T08:57:52Z</time>
      </trkpt>
      <trkpt lat="47.29419" lon="-1.67034">
        <ele>122</ele>
        <time>2022-05-14T08:57:54Z</time>
      </trkpt>
      <trkpt lat="47.29426" lon="-1.67019">
        <ele>122</ele>
        <time>2022-05-14T08:57:56Z</time>
      </trkpt>
      <trkpt lat="47.29434" lon="-1.67005">
        <ele>122</ele>
        <time>2022-05-14T08:57:58Z</time>
      </trkpt>
      <trkpt lat="47.29443" lon="-1.66992">
        <ele>121</ele>
        <time>2022-05-14T08:58:00Z</time>
      </trkpt>
      <trkpt lat="47.29452" lon="-1.66982">
        <ele>122</ele>
        <time>2022-05-14T08:58:02Z</time>
      </trkpt>
      <trkpt lat="47.29463" lon="-1.66972">
        <ele>121</ele>
        <time>2022-05-14T08:58:04Z</time>
      </trkpt>
      <trkpt lat="47.29474" lon="-1.66966">
        <ele>122</ele>
        <time>2022-05-14T08:58:06Z</time>
      </trkpt>
      <trkpt lat="47.29485" lon="-1.66959">
        <ele>122</ele>
        <time>2022-05-14T08:58:08Z</time>
      </trkpt>
      <trkpt lat="47.29497" lon="-1.66952">
        <ele>122</ele>
        <time>2022-05-14T08:58:10Z</time>
      </trkpt>
      <trkpt lat="47.29509" lon="-1.66946">
        <ele>121</ele>
        <time>2022-05-14T08:58:12Z</time>
      </trkpt>
      <trkpt lat="47.2952" lon="-1.66939">
        <ele>121</ele>
        <time>2022-05-14T08:58:14Z</time>
      </trkpt>
      <trkpt lat="47.29532" lon="-1.66933">
        <ele>121</ele>
        <time>2022-05-14T08:58:16Z</time>
      </trkpt>
      <trkpt lat="47.29544" lon="-1.66927">
        <ele>120</ele>
        <time>2022-05-14T08:58:18Z</time>
      </trkpt>
      <trkpt lat="47.29556" lon="-1.6692">
        <ele>120</ele>
        <time>2022-05-14T08:58:20Z</time>
      </trkpt>
      <trkpt lat="47.29568" lon="-1.66914">
        <ele>120</ele>
        <time>2022-05-14T08:58:22Z</time>
      </trkpt>
      <trkpt lat="47.2958" lon="-1.66906">
        <ele>119</ele>
        <time>2022-05-14T08:58:24Z</time>
      </trkpt>
      <trkpt lat="47.29593" lon="-1.66898">
        <ele>119</ele>
        <time>2022-05-14T08:58:26Z</time>
      </trkpt>
      <trkpt lat="47.29607" lon="-1.6689">
        <ele>119</ele>
        <time>2022-05-14T08:58:28Z</time>
      </trkpt>
      <trkpt lat="47.29621" lon="-1.66883">
        <ele>119</ele>
        <time>2022-05-14T08:58:30Z</time>
      </trkpt>
      <trkpt lat="47.29636" lon="-1.66874">
        <ele>118</ele>
        <time>2022-05-14T08:58:32Z</time>
      </trkpt>
      <trkpt lat="47.29649" lon="-1.66865">
        <ele>118</ele>
        <time>2022-05-14T08:58:34Z</time>
      </trkpt>
      <trkpt lat="47.2966" lon="-1.66854">
        <ele>117</ele>
        <time>2022-05-14T08:58:36Z</time>
      </trkpt>
      <trkpt lat="47.29672" lon="-1.6684">
        <ele>117</ele>
        <time>2022-05-14T08:58:38Z</time>
      </trkpt>
      <trkpt lat="47.29682" lon="-1.66825">
        <ele>117</ele>
        <time>2022-05-14T08:58:40Z</time>
      </trkpt>
      <trkpt lat="47.29691" lon="-1.66809">
        <ele>117</ele>
        <time>2022-05-14T08:58:42Z</time>
      </trkpt>
      <trkpt lat="47.297" lon="-1.66793">
        <ele>117</ele>
        <time>2022-05-14T08:58:44Z</time>
      </trkpt>
      <trkpt lat="47.29709" lon="-1.66778">
        <ele>118</ele>
        <time>2022-05-14T08:58:46Z</time>
      </trkpt>
      <trkpt lat="47.29718" lon="-1.66762">
        <ele>118</ele>
        <time>2022-05-14T08:58:48Z</time>
      </trkpt>
      <trkpt lat="47.29727" lon="-1.66746">
        <ele>118</ele>
        <time>2022-05-14T08:58:50Z</time>
      </trkpt>
      <trkpt lat="47.29736" lon="-1.66731">
        <ele>118</ele>
        <time>2022-05-14T08:58:52Z</time>
      </trkpt>
      <trkpt lat="47.29746" lon="-1.66717">
        <ele>118</ele>
        <time>2022-05-14T08:58:54Z</time>
      </trkpt>
      <trkpt lat="47.29755" lon="-1.66702">
        <ele>118</ele>
        <time>2022-05-14T08:58:56Z</time>
      </trkpt>
      <trkpt lat="47.29766" lon="-1.66689">
        <ele>118</ele>
        <time>2022-05-14T08:58:58Z</time>
      </trkpt>
      <trkpt lat="47.29776" lon="-1.66676">
        <ele>119</ele>
        <time>2022-05-14T08:59:00Z</time>
      </trkpt>
      <trkpt lat="47.29786" lon="-1.66664">
        <ele>118</ele>
        <time>2022-05-14T08:59:02Z</time>
      </trkpt>
      <trkpt lat="47.29796" lon="-1.66655">
        <ele>119</ele>
        <time>2022-05-14T08:59:04Z</time>
      </trkpt>
      <trkpt lat="47.29806" lon="-1.66645">
        <ele>120</ele>
        <time>2022-05-14T08:59:06Z</time>
      </trkpt>
      <trkpt lat="47.29817" lon="-1.66635">
        <ele>122</ele>
        <time>2022-05-14T08:59:08Z</time>
      </trkpt>
      <trkpt lat="47.29827" lon="-1.66622">
        <ele>122</ele>
        <time>2022-05-14T08:59:10Z</time>
      </trkpt>
      <trkpt lat="47.29838" lon="-1.6661">
        <ele>122</ele>
        <time>2022-05-14T08:59:12Z</time>
      </trkpt>
      <trkpt lat="47.29848" lon="-1.66598">
        <ele>123</ele>
        <time>2022-05-14T08:59:14Z</time>
      </trkpt>
      <trkpt lat="47.29858" lon="-1.66585">
        <ele>124</ele>
        <time>2022-05-14T08:59:16Z</time>
      </trkpt>
      <trkpt lat="47.29867" lon="-1.66571">
        <ele>124</ele>
        <time>2022-05-14T08:59:18Z</time>
      </trkpt>
      <trkpt lat="47.29875" lon="-1.66558">
        <ele>124</ele>
        <time>2022-05-14T08:59:20Z</time>
      </trkpt>
      <trkpt lat="47.29884" lon="-1.66545">
        <ele>125</ele>
        <time>2022-05-14T08:59:22Z</time>
      </trkpt>
      <trkpt lat="47.29892" lon="-1.66532">
        <ele>126</ele>
        <time>2022-05-14T08:59:24Z</time>
      </trkpt>
      <trkpt lat="47.299" lon="-1.66519">
        <ele>126</ele>
        <time>2022-05-14T08:59:26Z</time>
      </trkpt>
      <trkpt lat="47.29907" lon="-1.66505">
        <ele>126</ele>
        <time>2022-05-14T08:59:28Z</time>
      </trkpt>
      <trkpt lat="47.29915" lon="-1.6649">
        <ele>126</ele>
        <time>2022-05-14T08:59:30Z</time>
      </trkpt>
      <trkpt lat="47.29922" lon="-1.66479">
        <ele>126</ele>
        <time>2022-05-14T08:59:32Z</time>
      </trkpt>
      <trkpt lat="47.2993" lon="-1.66467">
        <ele>126</ele>
        <time>2022-05-14T08:59:34Z</time>
      </trkpt>
      <trkpt lat="47.29935" lon="-1.66456">
        <ele>125</ele>
        <time>2022-05-14T08:59:36Z</time>
      </trkpt>
      <trkpt lat="47.29943" lon="-1.66445">
        <ele>125</ele>
        <time>2022-05-14T08:59:40Z</time>
      </trkpt>
      <trkpt lat="47.29951" lon="-1.66436">
        <ele>124</ele>
        <time>2022-05-14T08:59:42Z</time>
      </trkpt>
      <trkpt lat="47.29959" lon="-1.66425">
        <ele>123</ele>
        <time>2022-05-14T08:59:44Z</time>
      </trkpt>
      <trkpt lat="47.29967" lon="-1.66414">
        <ele>122</ele>
        <time>2022-05-14T08:59:46Z</time>
      </trkpt>
      <trkpt lat="47.29975" lon="-1.66401">
        <ele>122</ele>
        <time>2022-05-14T08:59:48Z</time>
      </trkpt>
      <trkpt lat="47.29984" lon="-1.66387">
        <ele>121</ele>
        <time>2022-05-14T08:59:50Z</time>
      </trkpt>
      <trkpt lat="47.29993" lon="-1.66373">
        <ele>121</ele>
        <time>2022-05-14T08:59:52Z</time>
      </trkpt>
      <trkpt lat="47.30002" lon="-1.66359">
        <ele>120</ele>
        <time>2022-05-14T08:59:54Z</time>
      </trkpt>
      <trkpt lat="47.3001" lon="-1.66345">
        <ele>120</ele>
        <time>2022-05-14T08:59:56Z</time>
      </trkpt>
      <trkpt lat="47.3002" lon="-1.6633">
        <ele>120</ele>
        <time>2022-05-14T08:59:58Z</time>
      </trkpt>
      <trkpt lat="47.30029" lon="-1.66316">
        <ele>119</ele>
        <time>2022-05-14T09:00:00Z</time>
      </trkpt>
      <trkpt lat="47.30039" lon="-1.66302">
        <ele>119</ele>
        <time>2022-05-14T09:00:02Z</time>
      </trkpt>
      <trkpt lat="47.30048" lon="-1.66287">
        <ele>119</ele>
        <time>2022-05-14T09:00:04Z</time>
      </trkpt>
      <trkpt lat="47.30056" lon="-1.66273">
        <ele>119</ele>
        <time>2022-05-14T09:00:06Z</time>
      </trkpt>
      <trkpt lat="47.30066" lon="-1.66259">
        <ele>119</ele>
        <time>2022-05-14T09:00:08Z</time>
      </trkpt>
      <trkpt lat="47.30075" lon="-1.66243">
        <ele>119</ele>
        <time>2022-05-14T09:00:10Z</time>
      </trkpt>
      <trkpt lat="47.30085" lon="-1.66228">
        <ele>119</ele>
        <time>2022-05-14T09:00:12Z</time>
      </trkpt>
      <trkpt lat="47.30094" lon="-1.66214">
        <ele>119</ele>
        <time>2022-05-14T09:00:14Z</time>
      </trkpt>
      <trkpt lat="47.30104" lon="-1.662">
        <ele>119</ele>
        <time>2022-05-14T09:00:16Z</time>
      </trkpt>
      <trkpt lat="47.30113" lon="-1.66188">
        <ele>119</ele>
        <time>2022-05-14T09:00:18Z</time>
      </trkpt>
      <trkpt lat="47.30123" lon="-1.66177">
        <ele>119</ele>
        <time>2022-05-14T09:00:20Z</time>
      </trkpt>
      <trkpt lat="47.30133" lon="-1.66166">
        <ele>119</ele>
        <time>2022-05-14T09:00:22Z</time>
      </trkpt>
      <trkpt lat="47.30143" lon="-1.66155">
        <ele>119</ele>
        <time>2022-05-14T09:00:24Z</time>
      </trkpt>
      <trkpt lat="47.30152" lon="-1.66145">
        <ele>119</ele>
        <time>2022-05-14T09:00:26Z</time>
      </trkpt>
      <trkpt lat="47.30162" lon="-1.66135">
        <ele>120</ele>
        <time>2022-05-14T09:00:28Z</time>
      </trkpt>
      <trkpt lat="47.30171" lon="-1.66127">
        <ele>120</ele>
        <time>2022-05-14T09:00:30Z</time>
      </trkpt>
      <trkpt lat="47.3018" lon="-1.66117">
        <ele>120</ele>
        <time>2022-05-14T09:00:32Z</time>
      </trkpt>
      <trkpt lat="47.3019" lon="-1.66108">
        <ele>120</ele>
        <time>2022-05-14T09:00:34Z</time>
      </trkpt>
      <trkpt lat="47.302" lon="-1.66098">
        <ele>121</ele>
        <time>2022-05-14T09:00:36Z</time>
      </trkpt>
      <trkpt lat="47.30208" lon="-1.66089">
        <ele>122</ele>
        <time>2022-05-14T09:00:38Z</time>
      </trkpt>
      <trkpt lat="47.30218" lon="-1.66078">
        <ele>122</ele>
        <time>2022-05-14T09:00:40Z</time>
      </trkpt>
      <trkpt lat="47.30227" lon="-1.66068">
        <ele>123</ele>
        <time>2022-05-14T09:00:42Z</time>
      </trkpt>
      <trkpt lat="47.30237" lon="-1.66057">
        <ele>122</ele>
        <time>2022-05-14T09:00:44Z</time>
      </trkpt>
      <trkpt lat="47.30248" lon="-1.66046">
        <ele>121</ele>
        <time>2022-05-14T09:00:46Z</time>
      </trkpt>
      <trkpt lat="47.30258" lon="-1.66035">
        <ele>121</ele>
        <time>2022-05-14T09:00:48Z</time>
      </trkpt>
      <trkpt lat="47.30268" lon="-1.66026">
        <ele>121</ele>
        <time>2022-05-14T09:00:50Z</time>
      </trkpt>
      <trkpt lat="47.30277" lon="-1.66016">
        <ele>121</ele>
        <time>2022-05-14T09:00:52Z</time>
      </trkpt>
      <trkpt lat="47.30287" lon="-1.66005">
        <ele>121</ele>
        <time>2022-05-14T09:00:54Z</time>
      </trkpt>
      <trkpt lat="47.30298" lon="-1.65994">
        <ele>121</ele>
        <time>2022-05-14T09:00:56Z</time>
      </trkpt>
      <trkpt lat="47.30308" lon="-1.65983">
        <ele>121</ele>
        <time>2022-05-14T09:00:58Z</time>
      </trkpt>
      <trkpt lat="47.30318" lon="-1.65972">
        <ele>121</ele>
        <time>2022-05-14T09:01:00Z</time>
      </trkpt>
      <trkpt lat="47.30328" lon="-1.65962">
        <ele>121</ele>
        <time>2022-05-14T09:01:02Z</time>
      </trkpt>
      <trkpt lat="47.30339" lon="-1.65952">
        <ele>121</ele>
        <time>2022-05-14T09:01:04Z</time>
      </trkpt>
      <trkpt lat="47.30349" lon="-1.65941">
        <ele>120</ele>
        <time>2022-05-14T09:01:06Z</time>
      </trkpt>
      <trkpt lat="47.30359" lon="-1.6593">
        <ele>120</ele>
        <time>2022-05-14T09:01:08Z</time>
      </trkpt>
      <trkpt lat="47.3037" lon="-1.6592">
        <ele>120</ele>
        <time>2022-05-14T09:01:10Z</time>
      </trkpt>
      <trkpt lat="47.3038" lon="-1.65909">
        <ele>120</ele>
        <time>2022-05-14T09:01:12Z</time>
      </trkpt>
      <trkpt lat="47.3039" lon="-1.65899">
        <ele>121</ele>
        <time>2022-05-14T09:01:14Z</time>
      </trkpt>
      <trkpt lat="47.304" lon="-1.65888">
        <ele>120</ele>
        <time>2022-05-14T09:01:16Z</time>
      </trkpt>
      <trkpt lat="47.30411" lon="-1.65877">
        <ele>120</ele>
        <time>2022-05-14T09:01:18Z</time>
      </trkpt>
      <trkpt lat="47.30421" lon="-1.65867">
        <ele>121</ele>
        <time>2022-05-14T09:01:20Z</time>
      </trkpt>
      <trkpt lat="47.30431" lon="-1.65856">
        <ele>121</ele>
        <time>2022-05-14T09:01:22Z</time>
      </trkpt>
      <trkpt lat="47.30441" lon="-1.65846">
        <ele>121</ele>
        <time>2022-05-14T09:01:24Z</time>
      </trkpt>
      <trkpt lat="47.30452" lon="-1.65836">
        <ele>121</ele>
        <time>2022-05-14T09:01:26Z</time>
      </trkpt>
      <trkpt lat="47.30463" lon="-1.65825">
        <ele>121</ele>
        <time>2022-05-14T09:01:28Z</time>
      </trkpt>
      <trkpt lat="47.30473" lon="-1.65814">
        <ele>121</ele>
        <time>2022-05-14T09:01:30Z</time>
      </trkpt>
      <trkpt lat="47.30484" lon="-1.65803">
        <ele>121</ele>
        <time>2022-05-14T09:01:32Z</time>
      </trkpt>
      <trkpt lat="47.30495" lon="-1.65792">
        <ele>121</ele>
        <time>2022-05-14T09:01:34Z</time>
      </trkpt>
      <trkpt lat="47.30505" lon="-1.65782">
        <ele>121</ele>
        <time>2022-05-14T09:01:36Z</time>
      </trkpt>
      <trkpt lat="47.30515" lon="-1.65771">
        <ele>121</ele>
        <time>2022-05-14T09:01:38Z</time>
      </trkpt>
      <trkpt lat="47.30525" lon="-1.6576">
        <ele>121</ele>
        <time>2022-05-14T09:01:40Z</time>
      </trkpt>
      <trkpt lat="47.30535" lon="-1.65749">
        <ele>121</ele>
        <time>2022-05-14T09:01:42Z</time>
      </trkpt>
      <trkpt lat="47.30545" lon="-1.65738">
        <ele>121</ele>
        <time>2022-05-14T09:01:44Z</time>
      </trkpt>
      <trkpt lat="47.30555" lon="-1.65728">
        <ele>121</ele>
        <time>2022-05-14T09:01:46Z</time>
      </trkpt>
      <trkpt lat="47.30565" lon="-1.65718">
        <ele>121</ele>
        <time>2022-05-14T09:01:48Z</time>
      </trkpt>
      <trkpt lat="47.30575" lon="-1.65708">
        <ele>121</ele>
        <time>2022-05-14T09:01:50Z</time>
      </trkpt>
      <trkpt lat="47.30585" lon="-1.65698">
        <ele>121</ele>
        <time>2022-05-14T09:01:52Z</time>
      </trkpt>
      <trkpt lat="47.30595" lon="-1.65687">
        <ele>121</ele>
        <time>2022-05-14T09:01:54Z</time>
      </trkpt>
      <trkpt lat="47.30606" lon="-1.65676">
        <ele>120</ele>
        <time>2022-05-14T09:01:56Z</time>
      </trkpt>
      <trkpt lat="47.30616" lon="-1.65666">
        <ele>120</ele>
        <time>2022-05-14T09:01:58Z</time>
      </trkpt>
      <trkpt lat="47.30626" lon="-1.65656">
        <ele>120</ele>
        <time>2022-05-14T09:02:00Z</time>
      </trkpt>
      <trkpt lat="47.30636" lon="-1.65645">
        <ele>120</ele>
        <time>2022-05-14T09:02:02Z</time>
      </trkpt>
      <trkpt lat="47.30646" lon="-1.65635">
        <ele>120</ele>
        <time>2022-05-14T09:02:04Z</time>
      </trkpt>
      <trkpt lat="47.30656" lon="-1.65624">
        <ele>121</ele>
        <time>2022-05-14T09:02:06Z</time>
      </trkpt>
      <trkpt lat="47.30667" lon="-1.65614">
        <ele>121</ele>
        <time>2022-05-14T09:02:08Z</time>
      </trkpt>
      <trkpt lat="47.30678" lon="-1.65602">
        <ele>121</ele>
        <time>2022-05-14T09:02:10Z</time>
      </trkpt>
      <trkpt lat="47.30688" lon="-1.65592">
        <ele>121</ele>
        <time>2022-05-14T09:02:12Z</time>
      </trkpt>
      <trkpt lat="47.30698" lon="-1.65581">
        <ele>122</ele>
        <time>2022-05-14T09:02:14Z</time>
      </trkpt>
      <trkpt lat="47.30707" lon="-1.6557">
        <ele>122</ele>
        <time>2022-05-14T09:02:16Z</time>
      </trkpt>
      <trkpt lat="47.30717" lon="-1.65558">
        <ele>122</ele>
        <time>2022-05-14T09:02:18Z</time>
      </trkpt>
      <trkpt lat="47.30727" lon="-1.65545">
        <ele>121</ele>
        <time>2022-05-14T09:02:20Z</time>
      </trkpt>
      <trkpt lat="47.30736" lon="-1.65531">
        <ele>121</ele>
        <time>2022-05-14T09:02:22Z</time>
      </trkpt>
      <trkpt lat="47.30742" lon="-1.65516">
        <ele>120</ele>
        <time>2022-05-14T09:02:24Z</time>
      </trkpt>
      <trkpt lat="47.30748" lon="-1.65501">
        <ele>120</ele>
        <time>2022-05-14T09:02:26Z</time>
      </trkpt>
      <trkpt lat="47.30756" lon="-1.65487">
        <ele>120</ele>
        <time>2022-05-14T09:02:28Z</time>
      </trkpt>
      <trkpt lat="47.30764" lon="-1.65473">
        <ele>120</ele>
        <time>2022-05-14T09:02:30Z</time>
      </trkpt>
      <trkpt lat="47.30771" lon="-1.6546">
        <ele>120</ele>
        <time>2022-05-14T09:02:32Z</time>
      </trkpt>
      <trkpt lat="47.30779" lon="-1.65445">
        <ele>120</ele>
        <time>2022-05-14T09:02:34Z</time>
      </trkpt>
      <trkpt lat="47.30787" lon="-1.65431">
        <ele>120</ele>
        <time>2022-05-14T09:02:36Z</time>
      </trkpt>
      <trkpt lat="47.30795" lon="-1.65417">
        <ele>120</ele>
        <time>2022-05-14T09:02:38Z</time>
      </trkpt>
      <trkpt lat="47.30803" lon="-1.65403">
        <ele>120</ele>
        <time>2022-05-14T09:02:40Z</time>
      </trkpt>
      <trkpt lat="47.3081" lon="-1.6539">
        <ele>120</ele>
        <time>2022-05-14T09:02:42Z</time>
      </trkpt>
      <trkpt lat="47.30818" lon="-1.65376">
        <ele>120</ele>
        <time>2022-05-14T09:02:44Z</time>
      </trkpt>
      <trkpt lat="47.30826" lon="-1.65362">
        <ele>119</ele>
        <time>2022-05-14T09:02:46Z</time>
      </trkpt>
      <trkpt lat="47.30834" lon="-1.65348">
        <ele>119</ele>
        <time>2022-05-14T09:02:48Z</time>
      </trkpt>
      <trkpt lat="47.30842" lon="-1.65335">
        <ele>119</ele>
        <time>2022-05-14T09:02:50Z</time>
      </trkpt>
      <trkpt lat="47.3085" lon="-1.65321">
        <ele>119</ele>
        <time>2022-05-14T09:02:52Z</time>
      </trkpt>
      <trkpt lat="47.30858" lon="-1.65306">
        <ele>118</ele>
        <time>2022-05-14T09:02:54Z</time>
      </trkpt>
      <trkpt lat="47.30866" lon="-1.65292">
        <ele>118</ele>
        <time>2022-05-14T09:02:56Z</time>
      </trkpt>
      <trkpt lat="47.30875" lon="-1.65277">
        <ele>118</ele>
        <time>2022-05-14T09:02:58Z</time>
      </trkpt>
      <trkpt lat="47.30884" lon="-1.65261">
        <ele>118</ele>
        <time>2022-05-14T09:03:00Z</time>
      </trkpt>
      <trkpt lat="47.30892" lon="-1.65245">
        <ele>117</ele>
        <time>2022-05-14T09:03:02Z</time>
      </trkpt>
      <trkpt lat="47.30901" lon="-1.6523">
        <ele>117</ele>
        <time>2022-05-14T09:03:04Z</time>
      </trkpt>
      <trkpt lat="47.3091" lon="-1.65214">
        <ele>117</ele>
        <time>2022-05-14T09:03:06Z</time>
      </trkpt>
      <trkpt lat="47.30918" lon="-1.65199">
        <ele>117</ele>
        <time>2022-05-14T09:03:08Z</time>
      </trkpt>
      <trkpt lat="47.30928" lon="-1.65182">
        <ele>116</ele>
        <time>2022-05-14T09:03:10Z</time>
      </trkpt>
      <trkpt lat="47.30938" lon="-1.65165">
        <ele>116</ele>
        <time>2022-05-14T09:03:12Z</time>
      </trkpt>
      <trkpt lat="47.30947" lon="-1.65148">
        <ele>115</ele>
        <time>2022-05-14T09:03:14Z</time>
      </trkpt>
      <trkpt lat="47.30956" lon="-1.65132">
        <ele>115</ele>
        <time>2022-05-14T09:03:16Z</time>
      </trkpt>
      <trkpt lat="47.30965" lon="-1.65115">
        <ele>114</ele>
        <time>2022-05-14T09:03:18Z</time>
      </trkpt>
      <trkpt lat="47.30974" lon="-1.651">
        <ele>115</ele>
        <time>2022-05-14T09:03:20Z</time>
      </trkpt>
      <trkpt lat="47.30984" lon="-1.65087">
        <ele>115</ele>
        <time>2022-05-14T09:03:22Z</time>
      </trkpt>
      <trkpt lat="47.31002" lon="-1.65074">
        <ele>115</ele>
        <time>2022-05-14T09:03:25Z</time>
      </trkpt>
      <trkpt lat="47.31014" lon="-1.65068">
        <ele>116</ele>
        <time>2022-05-14T09:03:27Z</time>
      </trkpt>
      <trkpt lat="47.31027" lon="-1.65061">
        <ele>116</ele>
        <time>2022-05-14T09:03:29Z</time>
      </trkpt>
      <trkpt lat="47.31047" lon="-1.65052">
        <ele>116</ele>
        <time>2022-05-14T09:03:32Z</time>
      </trkpt>
      <trkpt lat="47.31061" lon="-1.65046">
        <ele>116</ele>
        <time>2022-05-14T09:03:34Z</time>
      </trkpt>
      <trkpt lat="47.31074" lon="-1.65041">
        <ele>116</ele>
        <time>2022-05-14T09:03:36Z</time>
      </trkpt>
      <trkpt lat="47.31088" lon="-1.65037">
        <ele>116</ele>
        <time>2022-05-14T09:03:38Z</time>
      </trkpt>
      <trkpt lat="47.31101" lon="-1.65035">
        <ele>116</ele>
        <time>2022-05-14T09:03:40Z</time>
      </trkpt>
      <trkpt lat="47.31114" lon="-1.65033">
        <ele>117</ele>
        <time>2022-05-14T09:03:42Z</time>
      </trkpt>
      <trkpt lat="47.31126" lon="-1.65035">
        <ele>118</ele>
        <time>2022-05-14T09:03:44Z</time>
      </trkpt>
      <trkpt lat="47.3114" lon="-1.6504">
        <ele>117</ele>
        <time>2022-05-14T09:03:46Z</time>
      </trkpt>
      <trkpt lat="47.31159" lon="-1.6505">
        <ele>115</ele>
        <time>2022-05-14T09:03:49Z</time>
      </trkpt>
      <trkpt lat="47.31171" lon="-1.65055">
        <ele>114</ele>
        <time>2022-05-14T09:03:51Z</time>
      </trkpt>
      <trkpt lat="47.31183" lon="-1.65057">
        <ele>114</ele>
        <time>2022-05-14T09:03:53Z</time>
      </trkpt>
      <trkpt lat="47.31194" lon="-1.65055">
        <ele>114</ele>
        <time>2022-05-14T09:03:55Z</time>
      </trkpt>
      <trkpt lat="47.31204" lon="-1.65051">
        <ele>114</ele>
        <time>2022-05-14T09:03:57Z</time>
      </trkpt>
      <trkpt lat="47.31213" lon="-1.65046">
        <ele>115</ele>
        <time>2022-05-14T09:03:59Z</time>
      </trkpt>
      <trkpt lat="47.31223" lon="-1.65041">
        <ele>115</ele>
        <time>2022-05-14T09:04:01Z</time>
      </trkpt>
      <trkpt lat="47.31232" lon="-1.65035">
        <ele>115</ele>
        <time>2022-05-14T09:04:03Z</time>
      </trkpt>
      <trkpt lat="47.31241" lon="-1.65029">
        <ele>116</ele>
        <time>2022-05-14T09:04:05Z</time>
      </trkpt>
      <trkpt lat="47.31251" lon="-1.65023">
        <ele>117</ele>
        <time>2022-05-14T09:04:07Z</time>
      </trkpt>
      <trkpt lat="47.3126" lon="-1.65019">
        <ele>117</ele>
        <time>2022-05-14T09:04:09Z</time>
      </trkpt>
      <trkpt lat="47.31269" lon="-1.65013">
        <ele>118</ele>
        <time>2022-05-14T09:04:11Z</time>
      </trkpt>
      <trkpt lat="47.31279" lon="-1.65008">
        <ele>118</ele>
        <time>2022-05-14T09:04:13Z</time>
      </trkpt>
      <trkpt lat="47.31289" lon="-1.65002">
        <ele>118</ele>
        <time>2022-05-14T09:04:15Z</time>
      </trkpt>
      <trkpt lat="47.31298" lon="-1.64996">
        <ele>118</ele>
        <time>2022-05-14T09:04:17Z</time>
      </trkpt>
      <trkpt lat="47.31308" lon="-1.6499">
        <ele>118</ele>
        <time>2022-05-14T09:04:19Z</time>
      </trkpt>
      <trkpt lat="47.31318" lon="-1.64984">
        <ele>118</ele>
        <time>2022-05-14T09:04:21Z</time>
      </trkpt>
      <trkpt lat="47.31328" lon="-1.64978">
        <ele>119</ele>
        <time>2022-05-14T09:04:23Z</time>
      </trkpt>
      <trkpt lat="47.31337" lon="-1.64971">
        <ele>118</ele>
        <time>2022-05-14T09:04:25Z</time>
      </trkpt>
      <trkpt lat="47.31348" lon="-1.64965">
        <ele>119</ele>
        <time>2022-05-14T09:04:27Z</time>
      </trkpt>
      <trkpt lat="47.31358" lon="-1.64959">
        <ele>119</ele>
        <time>2022-05-14T09:04:29Z</time>
      </trkpt>
      <trkpt lat="47.31368" lon="-1.64952">
        <ele>119</ele>
        <time>2022-05-14T09:04:31Z</time>
      </trkpt>
      <trkpt lat="47.31378" lon="-1.64945">
        <ele>119</ele>
        <time>2022-05-14T09:04:33Z</time>
      </trkpt>
      <trkpt lat="47.31389" lon="-1.64939">
        <ele>119</ele>
        <time>2022-05-14T09:04:35Z</time>
      </trkpt>
      <trkpt lat="47.314" lon="-1.64932">
        <ele>119</ele>
        <time>2022-05-14T09:04:37Z</time>
      </trkpt>
      <trkpt lat="47.3141" lon="-1.64926">
        <ele>120</ele>
        <time>2022-05-14T09:04:39Z</time>
      </trkpt>
      <trkpt lat="47.31421" lon="-1.64919">
        <ele>120</ele>
        <time>2022-05-14T09:04:41Z</time>
      </trkpt>
      <trkpt lat="47.31433" lon="-1.64915">
        <ele>120</ele>
        <time>2022-05-14T09:04:43Z</time>
      </trkpt>
      <trkpt lat="47.31447" lon="-1.64913">
        <ele>120</ele>
        <time>2022-05-14T09:04:45Z</time>
      </trkpt>
      <trkpt lat="47.31462" lon="-1.64913">
        <ele>120</ele>
        <time>2022-05-14T09:04:47Z</time>
      </trkpt>
      <trkpt lat="47.31478" lon="-1.64912">
        <ele>120</ele>
        <time>2022-05-14T09:04:49Z</time>
      </trkpt>
      <trkpt lat="47.31493" lon="-1.64912">
        <ele>120</ele>
        <time>2022-05-14T09:04:51Z</time>
      </trkpt>
      <trkpt lat="47.31505" lon="-1.64911">
        <ele>118</ele>
        <time>2022-05-14T09:04:53Z</time>
      </trkpt>
      <trkpt lat="47.31514" lon="-1.64909">
        <ele>119</ele>
        <time>2022-05-14T09:04:55Z</time>
      </trkpt>
      <trkpt lat="47.31523" lon="-1.64905">
        <ele>118</ele>
        <time>2022-05-14T09:04:57Z</time>
      </trkpt>
      <trkpt lat="47.31536" lon="-1.64899">
        <ele>117</ele>
        <time>2022-05-14T09:04:59Z</time>
      </trkpt>
      <trkpt lat="47.31548" lon="-1.6489">
        <ele>117</ele>
        <time>2022-05-14T09:05:01Z</time>
      </trkpt>
      <trkpt lat="47.3156" lon="-1.64881">
        <ele>116</ele>
        <time>2022-05-14T09:05:03Z</time>
      </trkpt>
      <trkpt lat="47.31572" lon="-1.64872">
        <ele>116</ele>
        <time>2022-05-14T09:05:05Z</time>
      </trkpt>
      <trkpt lat="47.31584" lon="-1.64863">
        <ele>115</ele>
        <time>2022-05-14T09:05:07Z</time>
      </trkpt>
      <trkpt lat="47.31597" lon="-1.64853">
        <ele>115</ele>
        <time>2022-05-14T09:05:09Z</time>
      </trkpt>
      <trkpt lat="47.31609" lon="-1.64843">
        <ele>114</ele>
        <time>2022-05-14T09:05:11Z</time>
      </trkpt>
      <trkpt lat="47.3162" lon="-1.64832">
        <ele>114</ele>
        <time>2022-05-14T09:05:13Z</time>
      </trkpt>
      <trkpt lat="47.31632" lon="-1.64819">
        <ele>114</ele>
        <time>2022-05-14T09:05:15Z</time>
      </trkpt>
      <trkpt lat="47.31644" lon="-1.64805">
        <ele>113</ele>
        <time>2022-05-14T09:05:17Z</time>
      </trkpt>
      <trkpt lat="47.31656" lon="-1.64791">
        <ele>111</ele>
        <time>2022-05-14T09:05:19Z</time>
      </trkpt>
      <trkpt lat="47.31669" lon="-1.64778">
        <ele>110</ele>
        <time>2022-05-14T09:05:21Z</time>
      </trkpt>
      <trkpt lat="47.31683" lon="-1.64764">
        <ele>109</ele>
        <time>2022-05-14T09:05:23Z</time>
      </trkpt>
      <trkpt lat="47.31696" lon="-1.6475">
        <ele>108</ele>
        <time>2022-05-14T09:05:25Z</time>
      </trkpt>
      <trkpt lat="47.31709" lon="-1.64737">
        <ele>108</ele>
        <time>2022-05-14T09:05:27Z</time>
      </trkpt>
      <trkpt lat="47.31721" lon="-1.64726">
        <ele>107</ele>
        <time>2022-05-14T09:05:29Z</time>
      </trkpt>
      <trkpt lat="47.31734" lon="-1.64715">
        <ele>107</ele>
        <time>2022-05-14T09:05:31Z</time>
      </trkpt>
      <trkpt lat="47.31747" lon="-1.64704">
        <ele>107</ele>
        <time>2022-05-14T09:05:33Z</time>
      </trkpt>
      <trkpt lat="47.31759" lon="-1.64695">
        <ele>107</ele>
        <time>2022-05-14T09:05:35Z</time>
      </trkpt>
      <trkpt lat="47.31773" lon="-1.64688">
        <ele>107</ele>
        <time>2022-05-14T09:05:37Z</time>
      </trkpt>
      <trkpt lat="47.31787" lon="-1.64684">
        <ele>108</ele>
        <time>2022-05-14T09:05:39Z</time>
      </trkpt>
      <trkpt lat="47.318" lon="-1.64679">
        <ele>108</ele>
        <time>2022-05-14T09:05:41Z</time>
      </trkpt>
      <trkpt lat="47.31815" lon="-1.64673">
        <ele>108</ele>
        <time>2022-05-14T09:05:43Z</time>
      </trkpt>
      <trkpt lat="47.3183" lon="-1.64667">
        <ele>108</ele>
        <time>2022-05-14T09:05:45Z</time>
      </trkpt>
      <trkpt lat="47.31845" lon="-1.64662">
        <ele>108</ele>
        <time>2022-05-14T09:05:47Z</time>
      </trkpt>
      <trkpt lat="47.31859" lon="-1.64658">
        <ele>108</ele>
        <time>2022-05-14T09:05:49Z</time>
      </trkpt>
      <trkpt lat="47.31874" lon="-1.64651">
        <ele>107</ele>
        <time>2022-05-14T09:05:51Z</time>
      </trkpt>
      <trkpt lat="47.31889" lon="-1.64645">
        <ele>107</ele>
        <time>2022-05-14T09:05:53Z</time>
      </trkpt>
      <trkpt lat="47.31903" lon="-1.6464">
        <ele>106</ele>
        <time>2022-05-14T09:05:55Z</time>
      </trkpt>
      <trkpt lat="47.31918" lon="-1.64633">
        <ele>106</ele>
        <time>2022-05-14T09:05:57Z</time>
      </trkpt>
      <trkpt lat="47.31933" lon="-1.64628">
        <ele>105</ele>
        <time>2022-05-14T09:05:59Z</time>
      </trkpt>
      <trkpt lat="47.31949" lon="-1.64622">
        <ele>104</ele>
        <time>2022-05-14T09:06:01Z</time>
      </trkpt>
      <trkpt lat="47.31964" lon="-1.64616">
        <ele>103</ele>
        <time>2022-05-14T09:06:03Z</time>
      </trkpt>
      <trkpt lat="47.31979" lon="-1.6461">
        <ele>103</ele>
        <time>2022-05-14T09:06:05Z</time>
      </trkpt>
      <trkpt lat="47.31996" lon="-1.64605">
        <ele>103</ele>
        <time>2022-05-14T09:06:07Z</time>
      </trkpt>
      <trkpt lat="47.32012" lon="-1.646">
        <ele>102</ele>
        <time>2022-05-14T09:06:09Z</time>
      </trkpt>
      <trkpt lat="47.32027" lon="-1.64594">
        <ele>101</ele>
        <time>2022-05-14T09:06:11Z</time>
      </trkpt>
      <trkpt lat="47.32042" lon="-1.64588">
        <ele>101</ele>
        <time>2022-05-14T09:06:13Z</time>
      </trkpt>
      <trkpt lat="47.32058" lon="-1.64582">
        <ele>100</ele>
        <time>2022-05-14T09:06:15Z</time>
      </trkpt>
      <trkpt lat="47.32073" lon="-1.64576">
        <ele>99</ele>
        <time>2022-05-14T09:06:17Z</time>
      </trkpt>
      <trkpt lat="47.32089" lon="-1.6457">
        <ele>98</ele>
        <time>2022-05-14T09:06:19Z</time>
      </trkpt>
      <trkpt lat="47.32105" lon="-1.64564">
        <ele>96</ele>
        <time>2022-05-14T09:06:21Z</time>
      </trkpt>
      <trkpt lat="47.32121" lon="-1.64558">
        <ele>95</ele>
        <time>2022-05-14T09:06:23Z</time>
      </trkpt>
      <trkpt lat="47.32138" lon="-1.64551">
        <ele>93</ele>
        <time>2022-05-14T09:06:25Z</time>
      </trkpt>
      <trkpt lat="47.32154" lon="-1.64541">
        <ele>93</ele>
        <time>2022-05-14T09:06:27Z</time>
      </trkpt>
      <trkpt lat="47.32162" lon="-1.64534">
        <ele>92</ele>
        <time>2022-05-14T09:06:28Z</time>
      </trkpt>
      <trkpt lat="47.3217" lon="-1.64526">
        <ele>91</ele>
        <time>2022-05-14T09:06:29Z</time>
      </trkpt>
      <trkpt lat="47.32178" lon="-1.64516">
        <ele>91</ele>
        <time>2022-05-14T09:06:30Z</time>
      </trkpt>
      <trkpt lat="47.32185" lon="-1.64504">
        <ele>90</ele>
        <time>2022-05-14T09:06:31Z</time>
      </trkpt>
      <trkpt lat="47.32192" lon="-1.64492">
        <ele>90</ele>
        <time>2022-05-14T09:06:32Z</time>
      </trkpt>
      <trkpt lat="47.32198" lon="-1.64479">
        <ele>90</ele>
        <time>2022-05-14T09:06:33Z</time>
      </trkpt>
      <trkpt lat="47.32203" lon="-1.64467">
        <ele>89</ele>
        <time>2022-05-14T09:06:34Z</time>
      </trkpt>
      <trkpt lat="47.32209" lon="-1.64455">
        <ele>88</ele>
        <time>2022-05-14T09:06:35Z</time>
      </trkpt>
      <trkpt lat="47.32215" lon="-1.64443">
        <ele>88</ele>
        <time>2022-05-14T09:06:36Z</time>
      </trkpt>
      <trkpt lat="47.32221" lon="-1.64431">
        <ele>87</ele>
        <time>2022-05-14T09:06:37Z</time>
      </trkpt>
      <trkpt lat="47.32226" lon="-1.64419">
        <ele>86</ele>
        <time>2022-05-14T09:06:38Z</time>
      </trkpt>
      <trkpt lat="47.32231" lon="-1.64407">
        <ele>85</ele>
        <time>2022-05-14T09:06:39Z</time>
      </trkpt>
      <trkpt lat="47.32236" lon="-1.64394">
        <ele>84</ele>
        <time>2022-05-14T09:06:40Z</time>
      </trkpt>
      <trkpt lat="47.3224" lon="-1.64379">
        <ele>82</ele>
        <time>2022-05-14T09:06:41Z</time>
      </trkpt>
      <trkpt lat="47.32244" lon="-1.64365">
        <ele>81</ele>
        <time>2022-05-14T09:06:42Z</time>
      </trkpt>
      <trkpt lat="47.32247" lon="-1.6435">
        <ele>79</ele>
        <time>2022-05-14T09:06:43Z</time>
      </trkpt>
      <trkpt lat="47.3225" lon="-1.64336">
        <ele>79</ele>
        <time>2022-05-14T09:06:44Z</time>
      </trkpt>
      <trkpt lat="47.32254" lon="-1.64313">
        <ele>79</ele>
        <time>2022-05-14T09:06:46Z</time>
      </trkpt>
      <trkpt lat="47.32264" lon="-1.64305">
        <ele>78</ele>
        <time>2022-05-14T09:06:48Z</time>
      </trkpt>
      <trkpt lat="47.32278" lon="-1.64311">
        <ele>78</ele>
        <time>2022-05-14T09:06:50Z</time>
      </trkpt>
      <trkpt lat="47.32293" lon="-1.64318">
        <ele>76</ele>
        <time>2022-05-14T09:06:52Z</time>
      </trkpt>
      <trkpt lat="47.32308" lon="-1.64325">
        <ele>75</ele>
        <time>2022-05-14T09:06:54Z</time>
      </trkpt>
      <trkpt lat="47.32323" lon="-1.64331">
        <ele>74</ele>
        <time>2022-05-14T09:06:56Z</time>
      </trkpt>
      <trkpt lat="47.32338" lon="-1.64338">
        <ele>72</ele>
        <time>2022-05-14T09:06:58Z</time>
      </trkpt>
      <trkpt lat="47.32353" lon="-1.64341">
        <ele>72</ele>
        <time>2022-05-14T09:07:00Z</time>
      </trkpt>
      <trkpt lat="47.32368" lon="-1.64344">
        <ele>71</ele>
        <time>2022-05-14T09:07:02Z</time>
      </trkpt>
      <trkpt lat="47.32383" lon="-1.64347">
        <ele>71</ele>
        <time>2022-05-14T09:07:04Z</time>
      </trkpt>
      <trkpt lat="47.32396" lon="-1.6435">
        <ele>71</ele>
        <time>2022-05-14T09:07:06Z</time>
      </trkpt>
      <trkpt lat="47.32409" lon="-1.64352">
        <ele>71</ele>
        <time>2022-05-14T09:07:08Z</time>
      </trkpt>
      <trkpt lat="47.32423" lon="-1.64354">
        <ele>71</ele>
        <time>2022-05-14T09:07:10Z</time>
      </trkpt>
      <trkpt lat="47.32437" lon="-1.64357">
        <ele>71</ele>
        <time>2022-05-14T09:07:12Z</time>
      </trkpt>
      <trkpt lat="47.32451" lon="-1.64361">
        <ele>71</ele>
        <time>2022-05-14T09:07:14Z</time>
      </trkpt>
      <trkpt lat="47.32464" lon="-1.64368">
        <ele>71</ele>
        <time>2022-05-14T09:07:16Z</time>
      </trkpt>
      <trkpt lat="47.32476" lon="-1.64378">
        <ele>71</ele>
        <time>2022-05-14T09:07:18Z</time>
      </trkpt>
      <trkpt lat="47.32489" lon="-1.64385">
        <ele>71</ele>
        <time>2022-05-14T09:07:20Z</time>
      </trkpt>
      <trkpt lat="47.32501" lon="-1.64392">
        <ele>71</ele>
        <time>2022-05-14T09:07:22Z</time>
      </trkpt>
      <trkpt lat="47.32514" lon="-1.64397">
        <ele>72</ele>
        <time>2022-05-14T09:07:24Z</time>
      </trkpt>
      <trkpt lat="47.32526" lon="-1.64399">
        <ele>72</ele>
        <time>2022-05-14T09:07:26Z</time>
      </trkpt>
      <trkpt lat="47.32537" lon="-1.64399">
        <ele>73</ele>
        <time>2022-05-14T09:07:28Z</time>
      </trkpt>
      <trkpt lat="47.32548" lon="-1.64396">
        <ele>74</ele>
        <time>2022-05-14T09:07:30Z</time>
      </trkpt>
      <trkpt lat="47.32558" lon="-1.64394">
        <ele>75</ele>
        <time>2022-05-14T09:07:32Z</time>
      </trkpt>
      <trkpt lat="47.32567" lon="-1.64391">
        <ele>76</ele>
        <time>2022-05-14T09:07:34Z</time>
      </trkpt>
      <trkpt lat="47.32576" lon="-1.64389">
        <ele>76</ele>
        <time>2022-05-14T09:07:36Z</time>
      </trkpt>
      <trkpt lat="47.3259" lon="-1.64385">
        <ele>77</ele>
        <time>2022-05-14T09:07:39Z</time>
      </trkpt>
      <trkpt lat="47.32602" lon="-1.64382">
        <ele>77</ele>
        <time>2022-05-14T09:07:42Z</time>
      </trkpt>
      <trkpt lat="47.32614" lon="-1.64378">
        <ele>78</ele>
        <time>2022-05-14T09:07:45Z</time>
      </trkpt>
      <trkpt lat="47.32626" lon="-1.64374">
        <ele>78</ele>
        <time>2022-05-14T09:07:48Z</time>
      </trkpt>
      <trkpt lat="47.3264" lon="-1.6437">
        <ele>78</ele>
        <time>2022-05-14T09:07:51Z</time>
      </trkpt>
      <trkpt lat="47.32653" lon="-1.64366">
        <ele>78</ele>
        <time>2022-05-14T09:07:54Z</time>
      </trkpt>
      <trkpt lat="47.32666" lon="-1.64362">
        <ele>79</ele>
        <time>2022-05-14T09:07:57Z</time>
      </trkpt>
      <trkpt lat="47.32679" lon="-1.64358">
        <ele>79</ele>
        <time>2022-05-14T09:08:00Z</time>
      </trkpt>
      <trkpt lat="47.32692" lon="-1.64355">
        <ele>80</ele>
        <time>2022-05-14T09:08:03Z</time>
      </trkpt>
      <trkpt lat="47.32705" lon="-1.64351">
        <ele>80</ele>
        <time>2022-05-14T09:08:06Z</time>
      </trkpt>
      <trkpt lat="47.32717" lon="-1.64346">
        <ele>80</ele>
        <time>2022-05-14T09:08:09Z</time>
      </trkpt>
      <trkpt lat="47.32726" lon="-1.64343">
        <ele>81</ele>
        <time>2022-05-14T09:08:11Z</time>
      </trkpt>
      <trkpt lat="47.32738" lon="-1.6434">
        <ele>82</ele>
        <time>2022-05-14T09:08:14Z</time>
      </trkpt>
      <trkpt lat="47.32751" lon="-1.64337">
        <ele>83</ele>
        <time>2022-05-14T09:08:17Z</time>
      </trkpt>
      <trkpt lat="47.3276" lon="-1.64337">
        <ele>83</ele>
        <time>2022-05-14T09:08:19Z</time>
      </trkpt>
      <trkpt lat="47.32772" lon="-1.64335">
        <ele>84</ele>
        <time>2022-05-14T09:08:22Z</time>
      </trkpt>
      <trkpt lat="47.32785" lon="-1.64334">
        <ele>85</ele>
        <time>2022-05-14T09:08:25Z</time>
      </trkpt>
      <trkpt lat="47.32798" lon="-1.64332">
        <ele>86</ele>
        <time>2022-05-14T09:08:28Z</time>
      </trkpt>
      <trkpt lat="47.32811" lon="-1.64329">
        <ele>85</ele>
        <time>2022-05-14T09:08:31Z</time>
      </trkpt>
      <trkpt lat="47.32824" lon="-1.64328">
        <ele>86</ele>
        <time>2022-05-14T09:08:34Z</time>
      </trkpt>
      <trkpt lat="47.32837" lon="-1.64327">
        <ele>87</ele>
        <time>2022-05-14T09:08:37Z</time>
      </trkpt>
      <trkpt lat="47.32849" lon="-1.64324">
        <ele>88</ele>
        <time>2022-05-14T09:08:40Z</time>
      </trkpt>
      <trkpt lat="47.32861" lon="-1.64321">
        <ele>89</ele>
        <time>2022-05-14T09:08:43Z</time>
      </trkpt>
      <trkpt lat="47.32874" lon="-1.64321">
        <ele>90</ele>
        <time>2022-05-14T09:08:46Z</time>
      </trkpt>
      <trkpt lat="47.32885" lon="-1.64319">
        <ele>91</ele>
        <time>2022-05-14T09:08:49Z</time>
      </trkpt>
      <trkpt lat="47.32897" lon="-1.64315">
        <ele>92</ele>
        <time>2022-05-14T09:08:52Z</time>
      </trkpt>
      <trkpt lat="47.32906" lon="-1.64314">
        <ele>93</ele>
        <time>2022-05-14T09:08:54Z</time>
      </trkpt>
      <trkpt lat="47.3292" lon="-1.64311">
        <ele>93</ele>
        <time>2022-05-14T09:08:57Z</time>
      </trkpt>
      <trkpt lat="47.3293" lon="-1.64309">
        <ele>93</ele>
        <time>2022-05-14T09:08:59Z</time>
      </trkpt>
      <trkpt lat="47.32939" lon="-1.64308">
        <ele>94</ele>
        <time>2022-05-14T09:09:01Z</time>
      </trkpt>
      <trkpt lat="47.32949" lon="-1.64308">
        <ele>94</ele>
        <time>2022-05-14T09:09:03Z</time>
      </trkpt>
      <trkpt lat="47.32958" lon="-1.64309">
        <ele>95</ele>
        <time>2022-05-14T09:09:05Z</time>
      </trkpt>
      <trkpt lat="47.3297" lon="-1.64309">
        <ele>95</ele>
        <time>2022-05-14T09:09:08Z</time>
      </trkpt>
      <trkpt lat="47.32981" lon="-1.64309">
        <ele>97</ele>
        <time>2022-05-14T09:09:11Z</time>
      </trkpt>
      <trkpt lat="47.32993" lon="-1.64312">
        <ele>98</ele>
        <time>2022-05-14T09:09:14Z</time>
      </trkpt>
      <trkpt lat="47.33006" lon="-1.64316">
        <ele>98</ele>
        <time>2022-05-14T09:09:17Z</time>
      </trkpt>
      <trkpt lat="47.33017" lon="-1.64319">
        <ele>99</ele>
        <time>2022-05-14T09:09:20Z</time>
      </trkpt>
      <trkpt lat="47.33028" lon="-1.64322">
        <ele>99</ele>
        <time>2022-05-14T09:09:23Z</time>
      </trkpt>
      <trkpt lat="47.33039" lon="-1.64325">
        <ele>100</ele>
        <time>2022-05-14T09:09:26Z</time>
      </trkpt>
      <trkpt lat="47.33051" lon="-1.64329">
        <ele>100</ele>
        <time>2022-05-14T09:09:29Z</time>
      </trkpt>
      <trkpt lat="47.33063" lon="-1.64333">
        <ele>101</ele>
        <time>2022-05-14T09:09:32Z</time>
      </trkpt>
      <trkpt lat="47.33075" lon="-1.64337">
        <ele>102</ele>
        <time>2022-05-14T09:09:35Z</time>
      </trkpt>
      <trkpt lat="47.33087" lon="-1.64342">
        <ele>102</ele>
        <time>2022-05-14T09:09:38Z</time>
      </trkpt>
      <trkpt lat="47.33098" lon="-1.64346">
        <ele>103</ele>
        <time>2022-05-14T09:09:41Z</time>
      </trkpt>
      <trkpt lat="47.33107" lon="-1.64346">
        <ele>103</ele>
        <time>2022-05-14T09:09:44Z</time>
      </trkpt>
      <trkpt lat="47.33119" lon="-1.64345">
        <ele>104</ele>
        <time>2022-05-14T09:09:47Z</time>
      </trkpt>
      <trkpt lat="47.33128" lon="-1.64343">
        <ele>104</ele>
        <time>2022-05-14T09:09:49Z</time>
      </trkpt>
      <trkpt lat="47.33141" lon="-1.6434">
        <ele>104</ele>
        <time>2022-05-14T09:09:52Z</time>
      </trkpt>
      <trkpt lat="47.33153" lon="-1.64336">
        <ele>105</ele>
        <time>2022-05-14T09:09:55Z</time>
      </trkpt>
      <trkpt lat="47.33165" lon="-1.64333">
        <ele>106</ele>
        <time>2022-05-14T09:09:58Z</time>
      </trkpt>
      <trkpt lat="47.33177" lon="-1.64329">
        <ele>106</ele>
        <time>2022-05-14T09:10:01Z</time>
      </trkpt>
      <trkpt lat="47.33188" lon="-1.64326">
        <ele>107</ele>
        <time>2022-05-14T09:10:04Z</time>
      </trkpt>
      <trkpt lat="47.33199" lon="-1.64323">
        <ele>107</ele>
        <time>2022-05-14T09:10:07Z</time>
      </trkpt>
      <trkpt lat="47.3321" lon="-1.6432">
        <ele>108</ele>
        <time>2022-05-14T09:10:10Z</time>
      </trkpt>
      <trkpt lat="47.33222" lon="-1.64316">
        <ele>109</ele>
        <time>2022-05-14T09:10:13Z</time>
      </trkpt>
      <trkpt lat="47.33234" lon="-1.64311">
        <ele>109</ele>
        <time>2022-05-14T09:10:16Z</time>
      </trkpt>
      <trkpt lat="47.33246" lon="-1.64306">
        <ele>109</ele>
        <time>2022-05-14T09:10:19Z</time>
      </trkpt>
      <trkpt lat="47.33257" lon="-1.64296">
        <ele>110</ele>
        <time>2022-05-14T09:10:22Z</time>
      </trkpt>
      <trkpt lat="47.33269" lon="-1.64285">
        <ele>109</ele>
        <time>2022-05-14T09:10:25Z</time>
      </trkpt>
      <trkpt lat="47.33279" lon="-1.64273">
        <ele>110</ele>
        <time>2022-05-14T09:10:28Z</time>
      </trkpt>
      <trkpt lat="47.33287" lon="-1.64263">
        <ele>110</ele>
        <time>2022-05-14T09:10:30Z</time>
      </trkpt>
      <trkpt lat="47.33294" lon="-1.64255">
        <ele>110</ele>
        <time>2022-05-14T09:10:32Z</time>
      </trkpt>
      <trkpt lat="47.33305" lon="-1.64242">
        <ele>111</ele>
        <time>2022-05-14T09:10:35Z</time>
      </trkpt>
      <trkpt lat="47.33314" lon="-1.64233">
        <ele>111</ele>
        <time>2022-05-14T09:10:37Z</time>
      </trkpt>
      <trkpt lat="47.33322" lon="-1.64224">
        <ele>112</ele>
        <time>2022-05-14T09:10:39Z</time>
      </trkpt>
      <trkpt lat="47.33331" lon="-1.64214">
        <ele>112</ele>
        <time>2022-05-14T09:10:41Z</time>
      </trkpt>
      <trkpt lat="47.33339" lon="-1.64204">
        <ele>112</ele>
        <time>2022-05-14T09:10:43Z</time>
      </trkpt>
      <trkpt lat="47.33347" lon="-1.64194">
        <ele>113</ele>
        <time>2022-05-14T09:10:45Z</time>
      </trkpt>
      <trkpt lat="47.33356" lon="-1.64184">
        <ele>113</ele>
        <time>2022-05-14T09:10:47Z</time>
      </trkpt>
      <trkpt lat="47.33365" lon="-1.64174">
        <ele>113</ele>
        <time>2022-05-14T09:10:49Z</time>
      </trkpt>
      <trkpt lat="47.33373" lon="-1.64165">
        <ele>113</ele>
        <time>2022-05-14T09:10:51Z</time>
      </trkpt>
      <trkpt lat="47.33381" lon="-1.64155">
        <ele>113</ele>
        <time>2022-05-14T09:10:53Z</time>
      </trkpt>
      <trkpt lat="47.3339" lon="-1.64145">
        <ele>113</ele>
        <time>2022-05-14T09:10:55Z</time>
      </trkpt>
      <trkpt lat="47.33399" lon="-1.64134">
        <ele>114</ele>
        <time>2022-05-14T09:10:57Z</time>
      </trkpt>
      <trkpt lat="47.33408" lon="-1.64123">
        <ele>113</ele>
        <time>2022-05-14T09:10:59Z</time>
      </trkpt>
      <trkpt lat="47.33417" lon="-1.64114">
        <ele>113</ele>
        <time>2022-05-14T09:11:01Z</time>
      </trkpt>
      <trkpt lat="47.33426" lon="-1.64104">
        <ele>113</ele>
        <time>2022-05-14T09:11:03Z</time>
      </trkpt>
      <trkpt lat="47.33434" lon="-1.64093">
        <ele>112</ele>
        <time>2022-05-14T09:11:05Z</time>
      </trkpt>
      <trkpt lat="47.33442" lon="-1.64083">
        <ele>112</ele>
        <time>2022-05-14T09:11:07Z</time>
      </trkpt>
      <trkpt lat="47.33451" lon="-1.64073">
        <ele>112</ele>
        <time>2022-05-14T09:11:09Z</time>
      </trkpt>
      <trkpt lat="47.3346" lon="-1.64063">
        <ele>112</ele>
        <time>2022-05-14T09:11:11Z</time>
      </trkpt>
      <trkpt lat="47.3347" lon="-1.64052">
        <ele>111</ele>
        <time>2022-05-14T09:11:13Z</time>
      </trkpt>
      <trkpt lat="47.33478" lon="-1.64042">
        <ele>111</ele>
        <time>2022-05-14T09:11:15Z</time>
      </trkpt>
      <trkpt lat="47.33487" lon="-1.64032">
        <ele>111</ele>
        <time>2022-05-14T09:11:17Z</time>
      </trkpt>
      <trkpt lat="47.33495" lon="-1.64022">
        <ele>111</ele>
        <time>2022-05-14T09:11:19Z</time>
      </trkpt>
      <trkpt lat="47.33504" lon="-1.64012">
        <ele>111</ele>
        <time>2022-05-14T09:11:21Z</time>
      </trkpt>
      <trkpt lat="47.33513" lon="-1.64001">
        <ele>110</ele>
        <time>2022-05-14T09:11:23Z</time>
      </trkpt>
      <trkpt lat="47.33521" lon="-1.63991">
        <ele>110</ele>
        <time>2022-05-14T09:11:25Z</time>
      </trkpt>
      <trkpt lat="47.33529" lon="-1.63981">
        <ele>110</ele>
        <time>2022-05-14T09:11:27Z</time>
      </trkpt>
      <trkpt lat="47.33537" lon="-1.63971">
        <ele>110</ele>
        <time>2022-05-14T09:11:29Z</time>
      </trkpt>
      <trkpt lat="47.33546" lon="-1.63962">
        <ele>111</ele>
        <time>2022-05-14T09:11:31Z</time>
      </trkpt>
      <trkpt lat="47.33554" lon="-1.63952">
        <ele>111</ele>
        <time>2022-05-14T09:11:33Z</time>
      </trkpt>
      <trkpt lat="47.33563" lon="-1.63943">
        <ele>112</ele>
        <time>2022-05-14T09:11:35Z</time>
      </trkpt>
      <trkpt lat="47.33572" lon="-1.63932">
        <ele>112</ele>
        <time>2022-05-14T09:11:37Z</time>
      </trkpt>
      <trkpt lat="47.33581" lon="-1.63922">
        <ele>112</ele>
        <time>2022-05-14T09:11:39Z</time>
      </trkpt>
      <trkpt lat="47.3359" lon="-1.63909">
        <ele>112</ele>
        <time>2022-05-14T09:11:41Z</time>
      </trkpt>
      <trkpt lat="47.336" lon="-1.63897">
        <ele>112</ele>
        <time>2022-05-14T09:11:43Z</time>
      </trkpt>
      <trkpt lat="47.3361" lon="-1.63888">
        <ele>113</ele>
        <time>2022-05-14T09:11:45Z</time>
      </trkpt>
      <trkpt lat="47.33619" lon="-1.63878">
        <ele>113</ele>
        <time>2022-05-14T09:11:47Z</time>
      </trkpt>
      <trkpt lat="47.33628" lon="-1.63868">
        <ele>114</ele>
        <time>2022-05-14T09:11:49Z</time>
      </trkpt>
      <trkpt lat="47.33638" lon="-1.63856">
        <ele>114</ele>
        <time>2022-05-14T09:11:51Z</time>
      </trkpt>
      <trkpt lat="47.33647" lon="-1.63843">
        <ele>114</ele>
        <time>2022-05-14T09:11:53Z</time>
      </trkpt>
      <trkpt lat="47.33657" lon="-1.63831">
        <ele>114</ele>
        <time>2022-05-14T09:11:55Z</time>
      </trkpt>
      <trkpt lat="47.33667" lon="-1.6382">
        <ele>114</ele>
        <time>2022-05-14T09:11:57Z</time>
      </trkpt>
      <trkpt lat="47.33676" lon="-1.63809">
        <ele>113</ele>
        <time>2022-05-14T09:11:59Z</time>
      </trkpt>
      <trkpt lat="47.33686" lon="-1.63798">
        <ele>113</ele>
        <time>2022-05-14T09:12:01Z</time>
      </trkpt>
      <trkpt lat="47.33695" lon="-1.63786">
        <ele>113</ele>
        <time>2022-05-14T09:12:03Z</time>
      </trkpt>
      <trkpt lat="47.33705" lon="-1.63775">
        <ele>113</ele>
        <time>2022-05-14T09:12:05Z</time>
      </trkpt>
      <trkpt lat="47.33713" lon="-1.63765">
        <ele>113</ele>
        <time>2022-05-14T09:12:07Z</time>
      </trkpt>
      <trkpt lat="47.33722" lon="-1.63755">
        <ele>114</ele>
        <time>2022-05-14T09:12:09Z</time>
      </trkpt>
      <trkpt lat="47.3373" lon="-1.63746">
        <ele>114</ele>
        <time>2022-05-14T09:12:11Z</time>
      </trkpt>
      <trkpt lat="47.33739" lon="-1.63735">
        <ele>115</ele>
        <time>2022-05-14T09:12:13Z</time>
      </trkpt>
      <trkpt lat="47.33748" lon="-1.63724">
        <ele>115</ele>
        <time>2022-05-14T09:12:15Z</time>
      </trkpt>
      <trkpt lat="47.33756" lon="-1.63714">
        <ele>117</ele>
        <time>2022-05-14T09:12:17Z</time>
      </trkpt>
      <trkpt lat="47.33764" lon="-1.63704">
        <ele>118</ele>
        <time>2022-05-14T09:12:19Z</time>
      </trkpt>
      <trkpt lat="47.33774" lon="-1.63693">
        <ele>119</ele>
        <time>2022-05-14T09:12:21Z</time>
      </trkpt>
      <trkpt lat="47.33784" lon="-1.63681">
        <ele>120</ele>
        <time>2022-05-14T09:12:23Z</time>
      </trkpt>
      <trkpt lat="47.33794" lon="-1.63669">
        <ele>120</ele>
        <time>2022-05-14T09:12:25Z</time>
      </trkpt>
      <trkpt lat="47.33804" lon="-1.63656">
        <ele>120</ele>
        <time>2022-05-14T09:12:27Z</time>
      </trkpt>
      <trkpt lat="47.33814" lon="-1.63644">
        <ele>119</ele>
        <time>2022-05-14T09:12:29Z</time>
      </trkpt>
      <trkpt lat="47.33825" lon="-1.63632">
        <ele>119</ele>
        <time>2022-05-14T09:12:31Z</time>
      </trkpt>
      <trkpt lat="47.33835" lon="-1.6362">
        <ele>118</ele>
        <time>2022-05-14T09:12:33Z</time>
      </trkpt>
      <trkpt lat="47.33844" lon="-1.63609">
        <ele>117</ele>
        <time>2022-05-14T09:12:35Z</time>
      </trkpt>
      <trkpt lat="47.33852" lon="-1.636">
        <ele>116</ele>
        <time>2022-05-14T09:12:37Z</time>
      </trkpt>
      <trkpt lat="47.33862" lon="-1.6359">
        <ele>115</ele>
        <time>2022-05-14T09:12:40Z</time>
      </trkpt>
      <trkpt lat="47.33869" lon="-1.63581">
        <ele>114</ele>
        <time>2022-05-14T09:12:42Z</time>
      </trkpt>
      <trkpt lat="47.33878" lon="-1.6357">
        <ele>114</ele>
        <time>2022-05-14T09:12:44Z</time>
      </trkpt>
      <trkpt lat="47.33888" lon="-1.63559">
        <ele>113</ele>
        <time>2022-05-14T09:12:46Z</time>
      </trkpt>
      <trkpt lat="47.33899" lon="-1.63547">
        <ele>113</ele>
        <time>2022-05-14T09:12:48Z</time>
      </trkpt>
      <trkpt lat="47.33909" lon="-1.63536">
        <ele>113</ele>
        <time>2022-05-14T09:12:50Z</time>
      </trkpt>
      <trkpt lat="47.33919" lon="-1.63526">
        <ele>113</ele>
        <time>2022-05-14T09:12:52Z</time>
      </trkpt>
      <trkpt lat="47.33929" lon="-1.63517">
        <ele>113</ele>
        <time>2022-05-14T09:12:54Z</time>
      </trkpt>
      <trkpt lat="47.33939" lon="-1.6351">
        <ele>114</ele>
        <time>2022-05-14T09:12:56Z</time>
      </trkpt>
      <trkpt lat="47.33951" lon="-1.63503">
        <ele>114</ele>
        <time>2022-05-14T09:12:58Z</time>
      </trkpt>
      <trkpt lat="47.33962" lon="-1.63496">
        <ele>115</ele>
        <time>2022-05-14T09:13:00Z</time>
      </trkpt>
      <trkpt lat="47.33972" lon="-1.6349">
        <ele>116</ele>
        <time>2022-05-14T09:13:02Z</time>
      </trkpt>
      <trkpt lat="47.33983" lon="-1.63486">
        <ele>116</ele>
        <time>2022-05-14T09:13:04Z</time>
      </trkpt>
      <trkpt lat="47.33994" lon="-1.63483">
        <ele>118</ele>
        <time>2022-05-14T09:13:06Z</time>
      </trkpt>
      <trkpt lat="47.34004" lon="-1.63478">
        <ele>119</ele>
        <time>2022-05-14T09:13:08Z</time>
      </trkpt>
      <trkpt lat="47.34015" lon="-1.63469">
        <ele>121</ele>
        <time>2022-05-14T09:13:10Z</time>
      </trkpt>
      <trkpt lat="47.34028" lon="-1.63461">
        <ele>121</ele>
        <time>2022-05-14T09:13:12Z</time>
      </trkpt>
      <trkpt lat="47.3404" lon="-1.63453">
        <ele>121</ele>
        <time>2022-05-14T09:13:14Z</time>
      </trkpt>
      <trkpt lat="47.34051" lon="-1.63447">
        <ele>121</ele>
        <time>2022-05-14T09:13:16Z</time>
      </trkpt>
      <trkpt lat="47.34063" lon="-1.6344">
        <ele>122</ele>
        <time>2022-05-14T09:13:18Z</time>
      </trkpt>
      <trkpt lat="47.34079" lon="-1.63431">
        <ele>122</ele>
        <time>2022-05-14T09:13:21Z</time>
      </trkpt>
      <trkpt lat="47.3409" lon="-1.63424">
        <ele>123</ele>
        <time>2022-05-14T09:13:23Z</time>
      </trkpt>
      <trkpt lat="47.34102" lon="-1.63418">
        <ele>124</ele>
        <time>2022-05-14T09:13:25Z</time>
      </trkpt>
      <trkpt lat="47.34113" lon="-1.63411">
        <ele>124</ele>
        <time>2022-05-14T09:13:27Z</time>
      </trkpt>
      <trkpt lat="47.34125" lon="-1.63403">
        <ele>124</ele>
        <time>2022-05-14T09:13:29Z</time>
      </trkpt>
      <trkpt lat="47.34136" lon="-1.63395">
        <ele>124</ele>
        <time>2022-05-14T09:13:31Z</time>
      </trkpt>
      <trkpt lat="47.34149" lon="-1.63385">
        <ele>123</ele>
        <time>2022-05-14T09:13:33Z</time>
      </trkpt>
      <trkpt lat="47.34161" lon="-1.63374">
        <ele>122</ele>
        <time>2022-05-14T09:13:35Z</time>
      </trkpt>
      <trkpt lat="47.34172" lon="-1.63363">
        <ele>121</ele>
        <time>2022-05-14T09:13:37Z</time>
      </trkpt>
      <trkpt lat="47.34183" lon="-1.63352">
        <ele>121</ele>
        <time>2022-05-14T09:13:39Z</time>
      </trkpt>
      <trkpt lat="47.34194" lon="-1.6334">
        <ele>120</ele>
        <time>2022-05-14T09:13:41Z</time>
      </trkpt>
      <trkpt lat="47.34205" lon="-1.63329">
        <ele>119</ele>
        <time>2022-05-14T09:13:43Z</time>
      </trkpt>
      <trkpt lat="47.34215" lon="-1.63318">
        <ele>118</ele>
        <time>2022-05-14T09:13:45Z</time>
      </trkpt>
      <trkpt lat="47.34225" lon="-1.63305">
        <ele>118</ele>
        <time>2022-05-14T09:13:47Z</time>
      </trkpt>
      <trkpt lat="47.34234" lon="-1.6329">
        <ele>118</ele>
        <time>2022-05-14T09:13:49Z</time>
      </trkpt>
      <trkpt lat="47.34241" lon="-1.63274">
        <ele>117</ele>
        <time>2022-05-14T09:13:51Z</time>
      </trkpt>
      <trkpt lat="47.34249" lon="-1.63258">
        <ele>116</ele>
        <time>2022-05-14T09:13:53Z</time>
      </trkpt>
      <trkpt lat="47.34255" lon="-1.63241">
        <ele>115</ele>
        <time>2022-05-14T09:13:55Z</time>
      </trkpt>
      <trkpt lat="47.34261" lon="-1.63223">
        <ele>115</ele>
        <time>2022-05-14T09:13:57Z</time>
      </trkpt>
      <trkpt lat="47.34267" lon="-1.63206">
        <ele>113</ele>
        <time>2022-05-14T09:13:59Z</time>
      </trkpt>
      <trkpt lat="47.34274" lon="-1.6319">
        <ele>113</ele>
        <time>2022-05-14T09:14:01Z</time>
      </trkpt>
      <trkpt lat="47.34283" lon="-1.63174">
        <ele>112</ele>
        <time>2022-05-14T09:14:03Z</time>
      </trkpt>
      <trkpt lat="47.34293" lon="-1.63162">
        <ele>111</ele>
        <time>2022-05-14T09:14:05Z</time>
      </trkpt>
      <trkpt lat="47.34304" lon="-1.63149">
        <ele>111</ele>
        <time>2022-05-14T09:14:07Z</time>
      </trkpt>
      <trkpt lat="47.34315" lon="-1.63136">
        <ele>110</ele>
        <time>2022-05-14T09:14:09Z</time>
      </trkpt>
      <trkpt lat="47.34326" lon="-1.63123">
        <ele>109</ele>
        <time>2022-05-14T09:14:11Z</time>
      </trkpt>
      <trkpt lat="47.34338" lon="-1.63111">
        <ele>109</ele>
        <time>2022-05-14T09:14:13Z</time>
      </trkpt>
      <trkpt lat="47.34349" lon="-1.63099">
        <ele>108</ele>
        <time>2022-05-14T09:14:15Z</time>
      </trkpt>
      <trkpt lat="47.34361" lon="-1.63087">
        <ele>108</ele>
        <time>2022-05-14T09:14:17Z</time>
      </trkpt>
      <trkpt lat="47.34372" lon="-1.63076">
        <ele>108</ele>
        <time>2022-05-14T09:14:19Z</time>
      </trkpt>
      <trkpt lat="47.34383" lon="-1.63064">
        <ele>108</ele>
        <time>2022-05-14T09:14:21Z</time>
      </trkpt>
      <trkpt lat="47.34395" lon="-1.63052">
        <ele>107</ele>
        <time>2022-05-14T09:14:23Z</time>
      </trkpt>
      <trkpt lat="47.34405" lon="-1.6304">
        <ele>107</ele>
        <time>2022-05-14T09:14:25Z</time>
      </trkpt>
      <trkpt lat="47.34416" lon="-1.63029">
        <ele>107</ele>
        <time>2022-05-14T09:14:27Z</time>
      </trkpt>
      <trkpt lat="47.34427" lon="-1.63018">
        <ele>107</ele>
        <time>2022-05-14T09:14:29Z</time>
      </trkpt>
      <trkpt lat="47.34438" lon="-1.63007">
        <ele>108</ele>
        <time>2022-05-14T09:14:31Z</time>
      </trkpt>
      <trkpt lat="47.34448" lon="-1.62996">
        <ele>108</ele>
        <time>2022-05-14T09:14:33Z</time>
      </trkpt>
      <trkpt lat="47.34459" lon="-1.62985">
        <ele>108</ele>
        <time>2022-05-14T09:14:35Z</time>
      </trkpt>
      <trkpt lat="47.34469" lon="-1.62974">
        <ele>108</ele>
        <time>2022-05-14T09:14:37Z</time>
      </trkpt>
      <trkpt lat="47.3448" lon="-1.62963">
        <ele>108</ele>
        <time>2022-05-14T09:14:39Z</time>
      </trkpt>
      <trkpt lat="47.34491" lon="-1.62952">
        <ele>108</ele>
        <time>2022-05-14T09:14:41Z</time>
      </trkpt>
      <trkpt lat="47.34501" lon="-1.62942">
        <ele>108</ele>
        <time>2022-05-14T09:14:43Z</time>
      </trkpt>
      <trkpt lat="47.34511" lon="-1.62931">
        <ele>107</ele>
        <time>2022-05-14T09:14:45Z</time>
      </trkpt>
      <trkpt lat="47.34522" lon="-1.62921">
        <ele>107</ele>
        <time>2022-05-14T09:14:47Z</time>
      </trkpt>
      <trkpt lat="47.34533" lon="-1.62909">
        <ele>108</ele>
        <time>2022-05-14T09:14:49Z</time>
      </trkpt>
      <trkpt lat="47.34543" lon="-1.62897">
        <ele>108</ele>
        <time>2022-05-14T09:14:51Z</time>
      </trkpt>
      <trkpt lat="47.34553" lon="-1.62886">
        <ele>108</ele>
        <time>2022-05-14T09:14:53Z</time>
      </trkpt>
      <trkpt lat="47.34563" lon="-1.62875">
        <ele>108</ele>
        <time>2022-05-14T09:14:55Z</time>
      </trkpt>
      <trkpt lat="47.34573" lon="-1.62864">
        <ele>108</ele>
        <time>2022-05-14T09:14:57Z</time>
      </trkpt>
      <trkpt lat="47.34583" lon="-1.62853">
        <ele>109</ele>
        <time>2022-05-14T09:14:59Z</time>
      </trkpt>
      <trkpt lat="47.34594" lon="-1.62842">
        <ele>109</ele>
        <time>2022-05-14T09:15:01Z</time>
      </trkpt>
      <trkpt lat="47.34603" lon="-1.62831">
        <ele>109</ele>
        <time>2022-05-14T09:15:03Z</time>
      </trkpt>
      <trkpt lat="47.34613" lon="-1.62819">
        <ele>109</ele>
        <time>2022-05-14T09:15:05Z</time>
      </trkpt>
      <trkpt lat="47.34623" lon="-1.62808">
        <ele>110</ele>
        <time>2022-05-14T09:15:07Z</time>
      </trkpt>
      <trkpt lat="47.34632" lon="-1.62796">
        <ele>109</ele>
        <time>2022-05-14T09:15:09Z</time>
      </trkpt>
      <trkpt lat="47.34641" lon="-1.62783">
        <ele>109</ele>
        <time>2022-05-14T09:15:11Z</time>
      </trkpt>
      <trkpt lat="47.3465" lon="-1.6277">
        <ele>108</ele>
        <time>2022-05-14T09:15:13Z</time>
      </trkpt>
      <trkpt lat="47.34658" lon="-1.62757">
        <ele>107</ele>
        <time>2022-05-14T09:15:15Z</time>
      </trkpt>
      <trkpt lat="47.34666" lon="-1.62742">
        <ele>107</ele>
        <time>2022-05-14T09:15:17Z</time>
      </trkpt>
      <trkpt lat="47.34673" lon="-1.62727">
        <ele>106</ele>
        <time>2022-05-14T09:15:19Z</time>
      </trkpt>
      <trkpt lat="47.3468" lon="-1.62711">
        <ele>106</ele>
        <time>2022-05-14T09:15:21Z</time>
      </trkpt>
      <trkpt lat="47.34687" lon="-1.62695">
        <ele>106</ele>
        <time>2022-05-14T09:15:23Z</time>
      </trkpt>
      <trkpt lat="47.34693" lon="-1.62679">
        <ele>106</ele>
        <time>2022-05-14T09:15:25Z</time>
      </trkpt>
      <trkpt lat="47.347" lon="-1.62663">
        <ele>106</ele>
        <time>2022-05-14T09:15:27Z</time>
      </trkpt>
      <trkpt lat="47.34706" lon="-1.62647">
        <ele>105</ele>
        <time>2022-05-14T09:15:29Z</time>
      </trkpt>
      <trkpt lat="47.34712" lon="-1.62633">
        <ele>105</ele>
        <time>2022-05-14T09:15:31Z</time>
      </trkpt>
      <trkpt lat="47.34718" lon="-1.6262">
        <ele>105</ele>
        <time>2022-05-14T09:15:33Z</time>
      </trkpt>
      <trkpt lat="47.34723" lon="-1.62606">
        <ele>105</ele>
        <time>2022-05-14T09:15:35Z</time>
      </trkpt>
      <trkpt lat="47.34728" lon="-1.6259">
        <ele>105</ele>
        <time>2022-05-14T09:15:38Z</time>
      </trkpt>
      <trkpt lat="47.34732" lon="-1.62577">
        <ele>105</ele>
        <time>2022-05-14T09:15:42Z</time>
      </trkpt>
      <trkpt lat="47.34737" lon="-1.62564">
        <ele>105</ele>
        <time>2022-05-14T09:15:44Z</time>
      </trkpt>
      <trkpt lat="47.34744" lon="-1.62549">
        <ele>105</ele>
        <time>2022-05-14T09:15:46Z</time>
      </trkpt>
      <trkpt lat="47.3475" lon="-1.62533">
        <ele>106</ele>
        <time>2022-05-14T09:15:48Z</time>
      </trkpt>
      <trkpt lat="47.34756" lon="-1.62517">
        <ele>106</ele>
        <time>2022-05-14T09:15:50Z</time>
      </trkpt>
      <trkpt lat="47.34761" lon="-1.62504">
        <ele>107</ele>
        <time>2022-05-14T09:15:52Z</time>
      </trkpt>
      <trkpt lat="47.34767" lon="-1.62492">
        <ele>108</ele>
        <time>2022-05-14T09:15:54Z</time>
      </trkpt>
      <trkpt lat="47.34773" lon="-1.62477">
        <ele>109</ele>
        <time>2022-05-14T09:15:56Z</time>
      </trkpt>
      <trkpt lat="47.34782" lon="-1.6246">
        <ele>110</ele>
        <time>2022-05-14T09:15:58Z</time>
      </trkpt>
      <trkpt lat="47.34792" lon="-1.62445">
        <ele>109</ele>
        <time>2022-05-14T09:16:00Z</time>
      </trkpt>
      <trkpt lat="47.34801" lon="-1.6243">
        <ele>109</ele>
        <time>2022-05-14T09:16:02Z</time>
      </trkpt>
      <trkpt lat="47.3481" lon="-1.62416">
        <ele>109</ele>
        <time>2022-05-14T09:16:04Z</time>
      </trkpt>
      <trkpt lat="47.34817" lon="-1.62403">
        <ele>110</ele>
        <time>2022-05-14T09:16:06Z</time>
      </trkpt>
      <trkpt lat="47.34825" lon="-1.62389">
        <ele>110</ele>
        <time>2022-05-14T09:16:08Z</time>
      </trkpt>
      <trkpt lat="47.34833" lon="-1.62377">
        <ele>111</ele>
        <time>2022-05-14T09:16:10Z</time>
      </trkpt>
      <trkpt lat="47.34841" lon="-1.62365">
        <ele>111</ele>
        <time>2022-05-14T09:16:12Z</time>
      </trkpt>
      <trkpt lat="47.3485" lon="-1.62351">
        <ele>112</ele>
        <time>2022-05-14T09:16:14Z</time>
      </trkpt>
      <trkpt lat="47.34858" lon="-1.62338">
        <ele>112</ele>
        <time>2022-05-14T09:16:16Z</time>
      </trkpt>
      <trkpt lat="47.34866" lon="-1.62323">
        <ele>112</ele>
        <time>2022-05-14T09:16:18Z</time>
      </trkpt>
      <trkpt lat="47.34875" lon="-1.6231">
        <ele>112</ele>
        <time>2022-05-14T09:16:20Z</time>
      </trkpt>
      <trkpt lat="47.34884" lon="-1.62297">
        <ele>112</ele>
        <time>2022-05-14T09:16:22Z</time>
      </trkpt>
      <trkpt lat="47.34892" lon="-1.62283">
        <ele>112</ele>
        <time>2022-05-14T09:16:24Z</time>
      </trkpt>
      <trkpt lat="47.34901" lon="-1.6227">
        <ele>112</ele>
        <time>2022-05-14T09:16:26Z</time>
      </trkpt>
      <trkpt lat="47.34911" lon="-1.62256">
        <ele>112</ele>
        <time>2022-05-14T09:16:28Z</time>
      </trkpt>
      <trkpt lat="47.3492" lon="-1.62245">
        <ele>111</ele>
        <time>2022-05-14T09:16:30Z</time>
      </trkpt>
      <trkpt lat="47.34931" lon="-1.62235">
        <ele>111</ele>
        <time>2022-05-14T09:16:32Z</time>
      </trkpt>
      <trkpt lat="47.34944" lon="-1.62227">
        <ele>110</ele>
        <time>2022-05-14T09:16:34Z</time>
      </trkpt>
      <trkpt lat="47.34956" lon="-1.6222">
        <ele>109</ele>
        <time>2022-05-14T09:16:36Z</time>
      </trkpt>
      <trkpt lat="47.34968" lon="-1.62214">
        <ele>109</ele>
        <time>2022-05-14T09:16:38Z</time>
      </trkpt>
      <trkpt lat="47.3498" lon="-1.62208">
        <ele>109</ele>
        <time>2022-05-14T09:16:40Z</time>
      </trkpt>
      <trkpt lat="47.34992" lon="-1.62201">
        <ele>109</ele>
        <time>2022-05-14T09:16:42Z</time>
      </trkpt>
      <trkpt lat="47.35004" lon="-1.62192">
        <ele>108</ele>
        <time>2022-05-14T09:16:44Z</time>
      </trkpt>
      <trkpt lat="47.35015" lon="-1.62181">
        <ele>108</ele>
        <time>2022-05-14T09:16:46Z</time>
      </trkpt>
      <trkpt lat="47.35025" lon="-1.62168">
        <ele>108</ele>
        <time>2022-05-14T09:16:48Z</time>
      </trkpt>
      <trkpt lat="47.35035" lon="-1.62154">
        <ele>107</ele>
        <time>2022-05-14T09:16:50Z</time>
      </trkpt>
      <trkpt lat="47.35044" lon="-1.6214">
        <ele>106</ele>
        <time>2022-05-14T09:16:52Z</time>
      </trkpt>
      <trkpt lat="47.35054" lon="-1.62127">
        <ele>105</ele>
        <time>2022-05-14T09:16:54Z</time>
      </trkpt>
      <trkpt lat="47.35065" lon="-1.62113">
        <ele>104</ele>
        <time>2022-05-14T09:16:56Z</time>
      </trkpt>
      <trkpt lat="47.35076" lon="-1.62098">
        <ele>103</ele>
        <time>2022-05-14T09:16:58Z</time>
      </trkpt>
      <trkpt lat="47.35087" lon="-1.62084">
        <ele>102</ele>
        <time>2022-05-14T09:17:00Z</time>
      </trkpt>
      <trkpt lat="47.35098" lon="-1.62069">
        <ele>101</ele>
        <time>2022-05-14T09:17:02Z</time>
      </trkpt>
      <trkpt lat="47.3511" lon="-1.62054">
        <ele>101</ele>
        <time>2022-05-14T09:17:04Z</time>
      </trkpt>
      <trkpt lat="47.35121" lon="-1.62038">
        <ele>100</ele>
        <time>2022-05-14T09:17:06Z</time>
      </trkpt>
      <trkpt lat="47.35133" lon="-1.62024">
        <ele>99</ele>
        <time>2022-05-14T09:17:08Z</time>
      </trkpt>
      <trkpt lat="47.35145" lon="-1.62009">
        <ele>98</ele>
        <time>2022-05-14T09:17:10Z</time>
      </trkpt>
      <trkpt lat="47.35157" lon="-1.61994">
        <ele>98</ele>
        <time>2022-05-14T09:17:12Z</time>
      </trkpt>
      <trkpt lat="47.35168" lon="-1.61979">
        <ele>97</ele>
        <time>2022-05-14T09:17:14Z</time>
      </trkpt>
      <trkpt lat="47.3518" lon="-1.61965">
        <ele>96</ele>
        <time>2022-05-14T09:17:16Z</time>
      </trkpt>
      <trkpt lat="47.3519" lon="-1.6195">
        <ele>97</ele>
        <time>2022-05-14T09:17:18Z</time>
      </trkpt>
      <trkpt lat="47.35202" lon="-1.61936">
        <ele>96</ele>
        <time>2022-05-14T09:17:20Z</time>
      </trkpt>
      <trkpt lat="47.35213" lon="-1.61922">
        <ele>96</ele>
        <time>2022-05-14T09:17:22Z</time>
      </trkpt>
      <trkpt lat="47.35224" lon="-1.61909">
        <ele>96</ele>
        <time>2022-05-14T09:17:24Z</time>
      </trkpt>
      <trkpt lat="47.35234" lon="-1.61896">
        <ele>96</ele>
        <time>2022-05-14T09:17:26Z</time>
      </trkpt>
      <trkpt lat="47.35245" lon="-1.61882">
        <ele>96</ele>
        <time>2022-05-14T09:17:28Z</time>
      </trkpt>
      <trkpt lat="47.35255" lon="-1.6187">
        <ele>96</ele>
        <time>2022-05-14T09:17:30Z</time>
      </trkpt>
      <trkpt lat="47.35266" lon="-1.61857">
        <ele>96</ele>
        <time>2022-05-14T09:17:32Z</time>
      </trkpt>
      <trkpt lat="47.35277" lon="-1.61845">
        <ele>96</ele>
        <time>2022-05-14T09:17:34Z</time>
      </trkpt>
      <trkpt lat="47.35288" lon="-1.61833">
        <ele>95</ele>
        <time>2022-05-14T09:17:36Z</time>
      </trkpt>
      <trkpt lat="47.35299" lon="-1.6182">
        <ele>95</ele>
        <time>2022-05-14T09:17:38Z</time>
      </trkpt>
      <trkpt lat="47.3531" lon="-1.61807">
        <ele>95</ele>
        <time>2022-05-14T09:17:40Z</time>
      </trkpt>
      <trkpt lat="47.35321" lon="-1.61794">
        <ele>95</ele>
        <time>2022-05-14T09:17:42Z</time>
      </trkpt>
      <trkpt lat="47.35333" lon="-1.61781">
        <ele>94</ele>
        <time>2022-05-14T09:17:44Z</time>
      </trkpt>
      <trkpt lat="47.35344" lon="-1.61769">
        <ele>95</ele>
        <time>2022-05-14T09:17:46Z</time>
      </trkpt>
      <trkpt lat="47.35355" lon="-1.61756">
        <ele>95</ele>
        <time>2022-05-14T09:17:48Z</time>
      </trkpt>
      <trkpt lat="47.35367" lon="-1.61745">
        <ele>94</ele>
        <time>2022-05-14T09:17:50Z</time>
      </trkpt>
      <trkpt lat="47.35379" lon="-1.61734">
        <ele>94</ele>
        <time>2022-05-14T09:17:52Z</time>
      </trkpt>
      <trkpt lat="47.35391" lon="-1.61724">
        <ele>95</ele>
        <time>2022-05-14T09:17:54Z</time>
      </trkpt>
      <trkpt lat="47.35404" lon="-1.61713">
        <ele>95</ele>
        <time>2022-05-14T09:17:56Z</time>
      </trkpt>
      <trkpt lat="47.35417" lon="-1.61702">
        <ele>94</ele>
        <time>2022-05-14T09:17:58Z</time>
      </trkpt>
      <trkpt lat="47.35429" lon="-1.61692">
        <ele>95</ele>
        <time>2022-05-14T09:18:00Z</time>
      </trkpt>
      <trkpt lat="47.35441" lon="-1.61682">
        <ele>95</ele>
        <time>2022-05-14T09:18:02Z</time>
      </trkpt>
      <trkpt lat="47.35452" lon="-1.61672">
        <ele>95</ele>
        <time>2022-05-14T09:18:04Z</time>
      </trkpt>
      <trkpt lat="47.35464" lon="-1.61661">
        <ele>94</ele>
        <time>2022-05-14T09:18:06Z</time>
      </trkpt>
      <trkpt lat="47.35476" lon="-1.61651">
        <ele>94</ele>
        <time>2022-05-14T09:18:08Z</time>
      </trkpt>
      <trkpt lat="47.35487" lon="-1.61642">
        <ele>93</ele>
        <time>2022-05-14T09:18:10Z</time>
      </trkpt>
      <trkpt lat="47.35497" lon="-1.61633">
        <ele>94</ele>
        <time>2022-05-14T09:18:12Z</time>
      </trkpt>
      <trkpt lat="47.35507" lon="-1.61625">
        <ele>94</ele>
        <time>2022-05-14T09:18:14Z</time>
      </trkpt>
      <trkpt lat="47.35511" lon="-1.61612">
        <ele>95</ele>
        <time>2022-05-14T09:18:16Z</time>
      </trkpt>
      <trkpt lat="47.35508" lon="-1.61594">
        <ele>95</ele>
        <time>2022-05-14T09:18:18Z</time>
      </trkpt>
      <trkpt lat="47.35504" lon="-1.61575">
        <ele>95</ele>
        <time>2022-05-14T09:18:20Z</time>
      </trkpt>
      <trkpt lat="47.355" lon="-1.61555">
        <ele>95</ele>
        <time>2022-05-14T09:18:22Z</time>
      </trkpt>
      <trkpt lat="47.35498" lon="-1.61535">
        <ele>94</ele>
        <time>2022-05-14T09:18:24Z</time>
      </trkpt>
      <trkpt lat="47.35495" lon="-1.61516">
        <ele>93</ele>
        <time>2022-05-14T09:18:26Z</time>
      </trkpt>
      <trkpt lat="47.35492" lon="-1.61496">
        <ele>94</ele>
        <time>2022-05-14T09:18:28Z</time>
      </trkpt>
      <trkpt lat="47.3549" lon="-1.61474">
        <ele>93</ele>
        <time>2022-05-14T09:18:30Z</time>
      </trkpt>
      <trkpt lat="47.35487" lon="-1.61451">
        <ele>92</ele>
        <time>2022-05-14T09:18:32Z</time>
      </trkpt>
      <trkpt lat="47.35483" lon="-1.61429">
        <ele>92</ele>
        <time>2022-05-14T09:18:34Z</time>
      </trkpt>
      <trkpt lat="47.35478" lon="-1.61406">
        <ele>91</ele>
        <time>2022-05-14T09:18:36Z</time>
      </trkpt>
      <trkpt lat="47.35474" lon="-1.61383">
        <ele>91</ele>
        <time>2022-05-14T09:18:38Z</time>
      </trkpt>
      <trkpt lat="47.35469" lon="-1.61361">
        <ele>91</ele>
        <time>2022-05-14T09:18:40Z</time>
      </trkpt>
      <trkpt lat="47.35465" lon="-1.61337">
        <ele>91</ele>
        <time>2022-05-14T09:18:42Z</time>
      </trkpt>
      <trkpt lat="47.3546" lon="-1.61314">
        <ele>90</ele>
        <time>2022-05-14T09:18:44Z</time>
      </trkpt>
      <trkpt lat="47.35455" lon="-1.61292">
        <ele>90</ele>
        <time>2022-05-14T09:18:46Z</time>
      </trkpt>
      <trkpt lat="47.3545" lon="-1.61271">
        <ele>90</ele>
        <time>2022-05-14T09:18:48Z</time>
      </trkpt>
      <trkpt lat="47.35445" lon="-1.61249">
        <ele>90</ele>
        <time>2022-05-14T09:18:50Z</time>
      </trkpt>
      <trkpt lat="47.3544" lon="-1.61226">
        <ele>89</ele>
        <time>2022-05-14T09:18:52Z</time>
      </trkpt>
      <trkpt lat="47.35437" lon="-1.61204">
        <ele>89</ele>
        <time>2022-05-14T09:18:54Z</time>
      </trkpt>
      <trkpt lat="47.35435" lon="-1.61183">
        <ele>89</ele>
        <time>2022-05-14T09:18:56Z</time>
      </trkpt>
      <trkpt lat="47.35434" lon="-1.61161">
        <ele>89</ele>
        <time>2022-05-14T09:18:58Z</time>
      </trkpt>
      <trkpt lat="47.35435" lon="-1.61141">
        <ele>89</ele>
        <time>2022-05-14T09:19:00Z</time>
      </trkpt>
      <trkpt lat="47.35435" lon="-1.6112">
        <ele>88</ele>
        <time>2022-05-14T09:19:02Z</time>
      </trkpt>
      <trkpt lat="47.35435" lon="-1.611">
        <ele>89</ele>
        <time>2022-05-14T09:19:04Z</time>
      </trkpt>
      <trkpt lat="47.35435" lon="-1.6108">
        <ele>89</ele>
        <time>2022-05-14T09:19:06Z</time>
      </trkpt>
      <trkpt lat="47.35435" lon="-1.6106">
        <ele>88</ele>
        <time>2022-05-14T09:19:08Z</time>
      </trkpt>
      <trkpt lat="47.35435" lon="-1.61041">
        <ele>89</ele>
        <time>2022-05-14T09:19:10Z</time>
      </trkpt>
      <trkpt lat="47.35435" lon="-1.61022">
        <ele>89</ele>
        <time>2022-05-14T09:19:12Z</time>
      </trkpt>
      <trkpt lat="47.35435" lon="-1.61003">
        <ele>90</ele>
        <time>2022-05-14T09:19:14Z</time>
      </trkpt>
      <trkpt lat="47.35436" lon="-1.60985">
        <ele>89</ele>
        <time>2022-05-14T09:19:16Z</time>
      </trkpt>
      <trkpt lat="47.35436" lon="-1.60967">
        <ele>89</ele>
        <time>2022-05-14T09:19:18Z</time>
      </trkpt>
      <trkpt lat="47.35436" lon="-1.6095">
        <ele>90</ele>
        <time>2022-05-14T09:19:20Z</time>
      </trkpt>
      <trkpt lat="47.35436" lon="-1.60933">
        <ele>90</ele>
        <time>2022-05-14T09:19:22Z</time>
      </trkpt>
      <trkpt lat="47.35436" lon="-1.60916">
        <ele>89</ele>
        <time>2022-05-14T09:19:24Z</time>
      </trkpt>
      <trkpt lat="47.35435" lon="-1.60899">
        <ele>89</ele>
        <time>2022-05-14T09:19:26Z</time>
      </trkpt>
      <trkpt lat="47.35434" lon="-1.60883">
        <ele>89</ele>
        <time>2022-05-14T09:19:28Z</time>
      </trkpt>
      <trkpt lat="47.35432" lon="-1.60867">
        <ele>89</ele>
        <time>2022-05-14T09:19:30Z</time>
      </trkpt>
      <trkpt lat="47.35428" lon="-1.60852">
        <ele>89</ele>
        <time>2022-05-14T09:19:32Z</time>
      </trkpt>
      <trkpt lat="47.35425" lon="-1.60836">
        <ele>89</ele>
        <time>2022-05-14T09:19:34Z</time>
      </trkpt>
      <trkpt lat="47.35423" lon="-1.60821">
        <ele>89</ele>
        <time>2022-05-14T09:19:36Z</time>
      </trkpt>
      <trkpt lat="47.3542" lon="-1.60805">
        <ele>88</ele>
        <time>2022-05-14T09:19:38Z</time>
      </trkpt>
      <trkpt lat="47.35418" lon="-1.6079">
        <ele>89</ele>
        <time>2022-05-14T09:19:40Z</time>
      </trkpt>
      <trkpt lat="47.35415" lon="-1.60774">
        <ele>89</ele>
        <time>2022-05-14T09:19:42Z</time>
      </trkpt>
      <trkpt lat="47.35412" lon="-1.60759">
        <ele>89</ele>
        <time>2022-05-14T09:19:44Z</time>
      </trkpt>
      <trkpt lat="47.3541" lon="-1.60744">
        <ele>90</ele>
        <time>2022-05-14T09:19:46Z</time>
      </trkpt>
      <trkpt lat="47.35409" lon="-1.60728">
        <ele>90</ele>
        <time>2022-05-14T09:19:48Z</time>
      </trkpt>
      <trkpt lat="47.35408" lon="-1.60711">
        <ele>90</ele>
        <time>2022-05-14T09:19:50Z</time>
      </trkpt>
      <trkpt lat="47.35408" lon="-1.60696">
        <ele>90</ele>
        <time>2022-05-14T09:19:52Z</time>
      </trkpt>
      <trkpt lat="47.35408" lon="-1.6068">
        <ele>91</ele>
        <time>2022-05-14T09:19:54Z</time>
      </trkpt>
      <trkpt lat="47.35407" lon="-1.60665">
        <ele>91</ele>
        <time>2022-05-14T09:19:56Z</time>
      </trkpt>
      <trkpt lat="47.35408" lon="-1.6065">
        <ele>91</ele>
        <time>2022-05-14T09:19:58Z</time>
      </trkpt>
      <trkpt lat="47.35408" lon="-1.60635">
        <ele>92</ele>
        <time>2022-05-14T09:20:00Z</time>
      </trkpt>
      <trkpt lat="47.35408" lon="-1.6062">
        <ele>92</ele>
        <time>2022-05-14T09:20:02Z</time>
      </trkpt>
      <trkpt lat="47.35408" lon="-1.60604">
        <ele>92</ele>
        <time>2022-05-14T09:20:04Z</time>
      </trkpt>
      <trkpt lat="47.35408" lon="-1.60588">
        <ele>92</ele>
        <time>2022-05-14T09:20:06Z</time>
      </trkpt>
      <trkpt lat="47.35409" lon="-1.60574">
        <ele>92</ele>
        <time>2022-05-14T09:20:08Z</time>
      </trkpt>
      <trkpt lat="47.35409" lon="-1.60559">
        <ele>92</ele>
        <time>2022-05-14T09:20:10Z</time>
      </trkpt>
      <trkpt lat="47.3541" lon="-1.60545">
        <ele>93</ele>
        <time>2022-05-14T09:20:12Z</time>
      </trkpt>
      <trkpt lat="47.3541" lon="-1.60531">
        <ele>93</ele>
        <time>2022-05-14T09:20:14Z</time>
      </trkpt>
      <trkpt lat="47.35411" lon="-1.60513">
        <ele>93</ele>
        <time>2022-05-14T09:20:17Z</time>
      </trkpt>
      <trkpt lat="47.35411" lon="-1.60494">
        <ele>93</ele>
        <time>2022-05-14T09:20:20Z</time>
      </trkpt>
      <trkpt lat="47.35411" lon="-1.60478">
        <ele>93</ele>
        <time>2022-05-14T09:20:22Z</time>
      </trkpt>
      <trkpt lat="47.35411" lon="-1.6046">
        <ele>93</ele>
        <time>2022-05-14T09:20:24Z</time>
      </trkpt>
      <trkpt lat="47.35412" lon="-1.60444">
        <ele>93</ele>
        <time>2022-05-14T09:20:26Z</time>
      </trkpt>
      <trkpt lat="47.35413" lon="-1.60426">
        <ele>93</ele>
        <time>2022-05-14T09:20:28Z</time>
      </trkpt>
      <trkpt lat="47.35414" lon="-1.60408">
        <ele>92</ele>
        <time>2022-05-14T09:20:30Z</time>
      </trkpt>
      <trkpt lat="47.35414" lon="-1.6039">
        <ele>92</ele>
        <time>2022-05-14T09:20:32Z</time>
      </trkpt>
      <trkpt lat="47.35415" lon="-1.60372">
        <ele>92</ele>
        <time>2022-05-14T09:20:34Z</time>
      </trkpt>
      <trkpt lat="47.35416" lon="-1.60355">
        <ele>93</ele>
        <time>2022-05-14T09:20:36Z</time>
      </trkpt>
      <trkpt lat="47.35416" lon="-1.60338">
        <ele>93</ele>
        <time>2022-05-14T09:20:38Z</time>
      </trkpt>
      <trkpt lat="47.35416" lon="-1.6032">
        <ele>93</ele>
        <time>2022-05-14T09:20:40Z</time>
      </trkpt>
      <trkpt lat="47.35417" lon="-1.60303">
        <ele>93</ele>
        <time>2022-05-14T09:20:42Z</time>
      </trkpt>
      <trkpt lat="47.35417" lon="-1.60286">
        <ele>93</ele>
        <time>2022-05-14T09:20:44Z</time>
      </trkpt>
      <trkpt lat="47.35417" lon="-1.60268">
        <ele>93</ele>
        <time>2022-05-14T09:20:46Z</time>
      </trkpt>
      <trkpt lat="47.35418" lon="-1.6025">
        <ele>93</ele>
        <time>2022-05-14T09:20:48Z</time>
      </trkpt>
      <trkpt lat="47.35418" lon="-1.60233">
        <ele>93</ele>
        <time>2022-05-14T09:20:50Z</time>
      </trkpt>
      <trkpt lat="47.35419" lon="-1.60216">
        <ele>93</ele>
        <time>2022-05-14T09:20:52Z</time>
      </trkpt>
      <trkpt lat="47.3542" lon="-1.60198">
        <ele>93</ele>
        <time>2022-05-14T09:20:54Z</time>
      </trkpt>
      <trkpt lat="47.3542" lon="-1.6018">
        <ele>93</ele>
        <time>2022-05-14T09:20:56Z</time>
      </trkpt>
      <trkpt lat="47.35419" lon="-1.60162">
        <ele>92</ele>
        <time>2022-05-14T09:20:58Z</time>
      </trkpt>
      <trkpt lat="47.35417" lon="-1.60144">
        <ele>92</ele>
        <time>2022-05-14T09:21:00Z</time>
      </trkpt>
      <trkpt lat="47.35416" lon="-1.60126">
        <ele>92</ele>
        <time>2022-05-14T09:21:02Z</time>
      </trkpt>
      <trkpt lat="47.35415" lon="-1.60108">
        <ele>92</ele>
        <time>2022-05-14T09:21:04Z</time>
      </trkpt>
      <trkpt lat="47.35417" lon="-1.6009">
        <ele>92</ele>
        <time>2022-05-14T09:21:06Z</time>
      </trkpt>
      <trkpt lat="47.3542" lon="-1.60072">
        <ele>92</ele>
        <time>2022-05-14T09:21:08Z</time>
      </trkpt>
      <trkpt lat="47.35425" lon="-1.60055">
        <ele>92</ele>
        <time>2022-05-14T09:21:10Z</time>
      </trkpt>
      <trkpt lat="47.35429" lon="-1.60038">
        <ele>92</ele>
        <time>2022-05-14T09:21:12Z</time>
      </trkpt>
      <trkpt lat="47.35434" lon="-1.60022">
        <ele>92</ele>
        <time>2022-05-14T09:21:14Z</time>
      </trkpt>
      <trkpt lat="47.35438" lon="-1.60004">
        <ele>91</ele>
        <time>2022-05-14T09:21:16Z</time>
      </trkpt>
      <trkpt lat="47.35443" lon="-1.59987">
        <ele>91</ele>
        <time>2022-05-14T09:21:18Z</time>
      </trkpt>
      <trkpt lat="47.35446" lon="-1.5997">
        <ele>91</ele>
        <time>2022-05-14T09:21:20Z</time>
      </trkpt>
      <trkpt lat="47.35449" lon="-1.59952">
        <ele>91</ele>
        <time>2022-05-14T09:21:22Z</time>
      </trkpt>
      <trkpt lat="47.35451" lon="-1.59936">
        <ele>92</ele>
        <time>2022-05-14T09:21:24Z</time>
      </trkpt>
      <trkpt lat="47.35452" lon="-1.59919">
        <ele>92</ele>
        <time>2022-05-14T09:21:26Z</time>
      </trkpt>
      <trkpt lat="47.35454" lon="-1.59902">
        <ele>92</ele>
        <time>2022-05-14T09:21:28Z</time>
      </trkpt>
      <trkpt lat="47.35456" lon="-1.59886">
        <ele>92</ele>
        <time>2022-05-14T09:21:30Z</time>
      </trkpt>
      <trkpt lat="47.35458" lon="-1.5987">
        <ele>92</ele>
        <time>2022-05-14T09:21:32Z</time>
      </trkpt>
      <trkpt lat="47.3546" lon="-1.59854">
        <ele>93</ele>
        <time>2022-05-14T09:21:34Z</time>
      </trkpt>
      <trkpt lat="47.35462" lon="-1.59837">
        <ele>93</ele>
        <time>2022-05-14T09:21:36Z</time>
      </trkpt>
      <trkpt lat="47.35464" lon="-1.59821">
        <ele>93</ele>
        <time>2022-05-14T09:21:38Z</time>
      </trkpt>
      <trkpt lat="47.35466" lon="-1.59807">
        <ele>93</ele>
        <time>2022-05-14T09:21:40Z</time>
      </trkpt>
      <trkpt lat="47.35462" lon="-1.59793">
        <ele>92</ele>
        <time>2022-05-14T09:21:50Z</time>
      </trkpt>
      <trkpt lat="47.35451" lon="-1.59787">
        <ele>92</ele>
        <time>2022-05-14T09:21:53Z</time>
      </trkpt>
      <trkpt lat="47.35441" lon="-1.59783">
        <ele>91</ele>
        <time>2022-05-14T09:21:55Z</time>
      </trkpt>
      <trkpt lat="47.3543" lon="-1.5978">
        <ele>91</ele>
        <time>2022-05-14T09:21:57Z</time>
      </trkpt>
      <trkpt lat="47.35418" lon="-1.59776">
        <ele>91</ele>
        <time>2022-05-14T09:21:59Z</time>
      </trkpt>
      <trkpt lat="47.35406" lon="-1.59772">
        <ele>91</ele>
        <time>2022-05-14T09:22:01Z</time>
      </trkpt>
      <trkpt lat="47.35394" lon="-1.59768">
        <ele>90</ele>
        <time>2022-05-14T09:22:03Z</time>
      </trkpt>
      <trkpt lat="47.35381" lon="-1.59764">
        <ele>90</ele>
        <time>2022-05-14T09:22:05Z</time>
      </trkpt>
      <trkpt lat="47.35369" lon="-1.59759">
        <ele>90</ele>
        <time>2022-05-14T09:22:07Z</time>
      </trkpt>
      <trkpt lat="47.35356" lon="-1.59753">
        <ele>89</ele>
        <time>2022-05-14T09:22:09Z</time>
      </trkpt>
      <trkpt lat="47.35343" lon="-1.59744">
        <ele>89</ele>
        <time>2022-05-14T09:22:11Z</time>
      </trkpt>
      <trkpt lat="47.3533" lon="-1.59733">
        <ele>88</ele>
        <time>2022-05-14T09:22:13Z</time>
      </trkpt>
      <trkpt lat="47.35317" lon="-1.5972">
        <ele>87</ele>
        <time>2022-05-14T09:22:15Z</time>
      </trkpt>
      <trkpt lat="47.35304" lon="-1.59705">
        <ele>87</ele>
        <time>2022-05-14T09:22:17Z</time>
      </trkpt>
      <trkpt lat="47.35291" lon="-1.5969">
        <ele>86</ele>
        <time>2022-05-14T09:22:19Z</time>
      </trkpt>
      <trkpt lat="47.35278" lon="-1.59676">
        <ele>86</ele>
        <time>2022-05-14T09:22:21Z</time>
      </trkpt>
      <trkpt lat="47.35266" lon="-1.5966">
        <ele>86</ele>
        <time>2022-05-14T09:22:23Z</time>
      </trkpt>
      <trkpt lat="47.35252" lon="-1.59644">
        <ele>85</ele>
        <time>2022-05-14T09:22:25Z</time>
      </trkpt>
      <trkpt lat="47.35239" lon="-1.59628">
        <ele>85</ele>
        <time>2022-05-14T09:22:27Z</time>
      </trkpt>
      <trkpt lat="47.35226" lon="-1.59612">
        <ele>84</ele>
        <time>2022-05-14T09:22:29Z</time>
      </trkpt>
      <trkpt lat="47.35218" lon="-1.59604">
        <ele>84</ele>
        <time>2022-05-14T09:22:30Z</time>
      </trkpt>
      <trkpt lat="47.35211" lon="-1.59596">
        <ele>84</ele>
        <time>2022-05-14T09:22:31Z</time>
      </trkpt>
      <trkpt lat="47.35197" lon="-1.5958">
        <ele>84</ele>
        <time>2022-05-14T09:22:33Z</time>
      </trkpt>
      <trkpt lat="47.3519" lon="-1.59571">
        <ele>84</ele>
        <time>2022-05-14T09:22:34Z</time>
      </trkpt>
      <trkpt lat="47.35184" lon="-1.59562">
        <ele>84</ele>
        <time>2022-05-14T09:22:35Z</time>
      </trkpt>
      <trkpt lat="47.3517" lon="-1.59544">
        <ele>82</ele>
        <time>2022-05-14T09:22:37Z</time>
      </trkpt>
      <trkpt lat="47.35163" lon="-1.59535">
        <ele>82</ele>
        <time>2022-05-14T09:22:38Z</time>
      </trkpt>
      <trkpt lat="47.35156" lon="-1.59526">
        <ele>81</ele>
        <time>2022-05-14T09:22:39Z</time>
      </trkpt>
      <trkpt lat="47.35148" lon="-1.59518">
        <ele>80</ele>
        <time>2022-05-14T09:22:40Z</time>
      </trkpt>
      <trkpt lat="47.35141" lon="-1.59508">
        <ele>79</ele>
        <time>2022-05-14T09:22:41Z</time>
      </trkpt>
      <trkpt lat="47.35134" lon="-1.59499">
        <ele>79</ele>
        <time>2022-05-14T09:22:42Z</time>
      </trkpt>
      <trkpt lat="47.35127" lon="-1.5949">
        <ele>78</ele>
        <time>2022-05-14T09:22:43Z</time>
      </trkpt>
      <trkpt lat="47.3512" lon="-1.59481">
        <ele>77</ele>
        <time>2022-05-14T09:22:44Z</time>
      </trkpt>
      <trkpt lat="47.35113" lon="-1.59472">
        <ele>76</ele>
        <time>2022-05-14T09:22:45Z</time>
      </trkpt>
      <trkpt lat="47.35106" lon="-1.59464">
        <ele>76</ele>
        <time>2022-05-14T09:22:46Z</time>
      </trkpt>
      <trkpt lat="47.35098" lon="-1.59455">
        <ele>75</ele>
        <time>2022-05-14T09:22:47Z</time>
      </trkpt>
      <trkpt lat="47.35092" lon="-1.59447">
        <ele>75</ele>
        <time>2022-05-14T09:22:48Z</time>
      </trkpt>
      <trkpt lat="47.35085" lon="-1.59438">
        <ele>75</ele>
        <time>2022-05-14T09:22:49Z</time>
      </trkpt>
      <trkpt lat="47.35072" lon="-1.59423">
        <ele>75</ele>
        <time>2022-05-14T09:22:51Z</time>
      </trkpt>
      <trkpt lat="47.3506" lon="-1.59409">
        <ele>75</ele>
        <time>2022-05-14T09:22:53Z</time>
      </trkpt>
      <trkpt lat="47.3505" lon="-1.59396">
        <ele>75</ele>
        <time>2022-05-14T09:22:55Z</time>
      </trkpt>
      <trkpt lat="47.35041" lon="-1.59385">
        <ele>76</ele>
        <time>2022-05-14T09:22:57Z</time>
      </trkpt>
      <trkpt lat="47.35032" lon="-1.59375">
        <ele>76</ele>
        <time>2022-05-14T09:22:59Z</time>
      </trkpt>
      <trkpt lat="47.35025" lon="-1.59365">
        <ele>76</ele>
        <time>2022-05-14T09:23:01Z</time>
      </trkpt>
      <trkpt lat="47.35018" lon="-1.59356">
        <ele>77</ele>
        <time>2022-05-14T09:23:03Z</time>
      </trkpt>
      <trkpt lat="47.3501" lon="-1.59347">
        <ele>78</ele>
        <time>2022-05-14T09:23:05Z</time>
      </trkpt>
      <trkpt lat="47.35003" lon="-1.59337">
        <ele>78</ele>
        <time>2022-05-14T09:23:07Z</time>
      </trkpt>
      <trkpt lat="47.34996" lon="-1.59328">
        <ele>79</ele>
        <time>2022-05-14T09:23:09Z</time>
      </trkpt>
      <trkpt lat="47.34988" lon="-1.59318">
        <ele>79</ele>
        <time>2022-05-14T09:23:11Z</time>
      </trkpt>
      <trkpt lat="47.34981" lon="-1.5931">
        <ele>80</ele>
        <time>2022-05-14T09:23:13Z</time>
      </trkpt>
      <trkpt lat="47.34971" lon="-1.59297">
        <ele>82</ele>
        <time>2022-05-14T09:23:16Z</time>
      </trkpt>
      <trkpt lat="47.3496" lon="-1.59282">
        <ele>84</ele>
        <time>2022-05-14T09:23:20Z</time>
      </trkpt>
      <trkpt lat="47.34951" lon="-1.59269">
        <ele>86</ele>
        <time>2022-05-14T09:23:23Z</time>
      </trkpt>
      <trkpt lat="47.3494" lon="-1.59257">
        <ele>87</ele>
        <time>2022-05-14T09:23:26Z</time>
      </trkpt>
      <trkpt lat="47.34929" lon="-1.59246">
        <ele>88</ele>
        <time>2022-05-14T09:23:29Z</time>
      </trkpt>
      <trkpt lat="47.34917" lon="-1.59234">
        <ele>88</ele>
        <time>2022-05-14T09:23:32Z</time>
      </trkpt>
      <trkpt lat="47.34909" lon="-1.59225">
        <ele>89</ele>
        <time>2022-05-14T09:23:34Z</time>
      </trkpt>
      <trkpt lat="47.34902" lon="-1.59215">
        <ele>90</ele>
        <time>2022-05-14T09:23:36Z</time>
      </trkpt>
      <trkpt lat="47.34894" lon="-1.59206">
        <ele>90</ele>
        <time>2022-05-14T09:23:38Z</time>
      </trkpt>
      <trkpt lat="47.34887" lon="-1.59198">
        <ele>91</ele>
        <time>2022-05-14T09:23:40Z</time>
      </trkpt>
      <trkpt lat="47.34876" lon="-1.59185">
        <ele>92</ele>
        <time>2022-05-14T09:23:43Z</time>
      </trkpt>
      <trkpt lat="47.34868" lon="-1.59176">
        <ele>91</ele>
        <time>2022-05-14T09:23:45Z</time>
      </trkpt>
      <trkpt lat="47.34858" lon="-1.59164">
        <ele>91</ele>
        <time>2022-05-14T09:23:48Z</time>
      </trkpt>
      <trkpt lat="47.34851" lon="-1.59156">
        <ele>91</ele>
        <time>2022-05-14T09:23:50Z</time>
      </trkpt>
      <trkpt lat="47.34843" lon="-1.59146">
        <ele>91</ele>
        <time>2022-05-14T09:23:52Z</time>
      </trkpt>
      <trkpt lat="47.34836" lon="-1.59138">
        <ele>91</ele>
        <time>2022-05-14T09:23:54Z</time>
      </trkpt>
      <trkpt lat="47.34829" lon="-1.59128">
        <ele>91</ele>
        <time>2022-05-14T09:23:56Z</time>
      </trkpt>
      <trkpt lat="47.34823" lon="-1.59119">
        <ele>91</ele>
        <time>2022-05-14T09:23:58Z</time>
      </trkpt>
      <trkpt lat="47.34813" lon="-1.59107">
        <ele>91</ele>
        <time>2022-05-14T09:24:01Z</time>
      </trkpt>
      <trkpt lat="47.34806" lon="-1.59098">
        <ele>92</ele>
        <time>2022-05-14T09:24:03Z</time>
      </trkpt>
      <trkpt lat="47.34796" lon="-1.59086">
        <ele>92</ele>
        <time>2022-05-14T09:24:06Z</time>
      </trkpt>
      <trkpt lat="47.34788" lon="-1.59076">
        <ele>92</ele>
        <time>2022-05-14T09:24:08Z</time>
      </trkpt>
      <trkpt lat="47.34781" lon="-1.59067">
        <ele>92</ele>
        <time>2022-05-14T09:24:10Z</time>
      </trkpt>
      <trkpt lat="47.34771" lon="-1.59054">
        <ele>92</ele>
        <time>2022-05-14T09:24:13Z</time>
      </trkpt>
      <trkpt lat="47.34763" lon="-1.59045">
        <ele>92</ele>
        <time>2022-05-14T09:24:15Z</time>
      </trkpt>
      <trkpt lat="47.34755" lon="-1.59037">
        <ele>92</ele>
        <time>2022-05-14T09:24:17Z</time>
      </trkpt>
      <trkpt lat="47.34747" lon="-1.59027">
        <ele>92</ele>
        <time>2022-05-14T09:24:19Z</time>
      </trkpt>
      <trkpt lat="47.3474" lon="-1.59017">
        <ele>92</ele>
        <time>2022-05-14T09:24:21Z</time>
      </trkpt>
      <trkpt lat="47.34732" lon="-1.59008">
        <ele>92</ele>
        <time>2022-05-14T09:24:23Z</time>
      </trkpt>
      <trkpt lat="47.34725" lon="-1.58998">
        <ele>91</ele>
        <time>2022-05-14T09:24:25Z</time>
      </trkpt>
      <trkpt lat="47.34717" lon="-1.58988">
        <ele>91</ele>
        <time>2022-05-14T09:24:27Z</time>
      </trkpt>
      <trkpt lat="47.34709" lon="-1.58978">
        <ele>91</ele>
        <time>2022-05-14T09:24:29Z</time>
      </trkpt>
      <trkpt lat="47.34701" lon="-1.58968">
        <ele>92</ele>
        <time>2022-05-14T09:24:31Z</time>
      </trkpt>
      <trkpt lat="47.34694" lon="-1.58959">
        <ele>92</ele>
        <time>2022-05-14T09:24:33Z</time>
      </trkpt>
      <trkpt lat="47.34686" lon="-1.5895">
        <ele>92</ele>
        <time>2022-05-14T09:24:35Z</time>
      </trkpt>
      <trkpt lat="47.34678" lon="-1.5894">
        <ele>92</ele>
        <time>2022-05-14T09:24:37Z</time>
      </trkpt>
      <trkpt lat="47.3467" lon="-1.58931">
        <ele>93</ele>
        <time>2022-05-14T09:24:39Z</time>
      </trkpt>
      <trkpt lat="47.34661" lon="-1.58921">
        <ele>92</ele>
        <time>2022-05-14T09:24:41Z</time>
      </trkpt>
      <trkpt lat="47.34653" lon="-1.58911">
        <ele>92</ele>
        <time>2022-05-14T09:24:43Z</time>
      </trkpt>
      <trkpt lat="47.34644" lon="-1.589">
        <ele>92</ele>
        <time>2022-05-14T09:24:45Z</time>
      </trkpt>
      <trkpt lat="47.34635" lon="-1.5889">
        <ele>92</ele>
        <time>2022-05-14T09:24:47Z</time>
      </trkpt>
      <trkpt lat="47.34626" lon="-1.5888">
        <ele>91</ele>
        <time>2022-05-14T09:24:49Z</time>
      </trkpt>
      <trkpt lat="47.34617" lon="-1.58869">
        <ele>91</ele>
        <time>2022-05-14T09:24:51Z</time>
      </trkpt>
      <trkpt lat="47.34608" lon="-1.58857">
        <ele>91</ele>
        <time>2022-05-14T09:24:53Z</time>
      </trkpt>
      <trkpt lat="47.34598" lon="-1.58846">
        <ele>91</ele>
        <time>2022-05-14T09:24:55Z</time>
      </trkpt>
      <trkpt lat="47.34589" lon="-1.58834">
        <ele>91</ele>
        <time>2022-05-14T09:24:57Z</time>
      </trkpt>
      <trkpt lat="47.3458" lon="-1.58821">
        <ele>90</ele>
        <time>2022-05-14T09:24:59Z</time>
      </trkpt>
      <trkpt lat="47.34569" lon="-1.58809">
        <ele>90</ele>
        <time>2022-05-14T09:25:01Z</time>
      </trkpt>
      <trkpt lat="47.34559" lon="-1.58797">
        <ele>90</ele>
        <time>2022-05-14T09:25:03Z</time>
      </trkpt>
      <trkpt lat="47.34549" lon="-1.58784">
        <ele>90</ele>
        <time>2022-05-14T09:25:05Z</time>
      </trkpt>
      <trkpt lat="47.34538" lon="-1.58772">
        <ele>90</ele>
        <time>2022-05-14T09:25:07Z</time>
      </trkpt>
      <trkpt lat="47.34528" lon="-1.58759">
        <ele>90</ele>
        <time>2022-05-14T09:25:09Z</time>
      </trkpt>
      <trkpt lat="47.34518" lon="-1.58747">
        <ele>90</ele>
        <time>2022-05-14T09:25:11Z</time>
      </trkpt>
      <trkpt lat="47.34508" lon="-1.58735">
        <ele>90</ele>
        <time>2022-05-14T09:25:13Z</time>
      </trkpt>
      <trkpt lat="47.34499" lon="-1.58723">
        <ele>91</ele>
        <time>2022-05-14T09:25:15Z</time>
      </trkpt>
      <trkpt lat="47.34491" lon="-1.58711">
        <ele>91</ele>
        <time>2022-05-14T09:25:17Z</time>
      </trkpt>
      <trkpt lat="47.34483" lon="-1.58699">
        <ele>91</ele>
        <time>2022-05-14T09:25:19Z</time>
      </trkpt>
      <trkpt lat="47.34475" lon="-1.58687">
        <ele>91</ele>
        <time>2022-05-14T09:25:21Z</time>
      </trkpt>
      <trkpt lat="47.34466" lon="-1.58675">
        <ele>91</ele>
        <time>2022-05-14T09:25:23Z</time>
      </trkpt>
      <trkpt lat="47.34458" lon="-1.58662">
        <ele>92</ele>
        <time>2022-05-14T09:25:25Z</time>
      </trkpt>
      <trkpt lat="47.34449" lon="-1.5865">
        <ele>92</ele>
        <time>2022-05-14T09:25:27Z</time>
      </trkpt>
      <trkpt lat="47.34441" lon="-1.58637">
        <ele>92</ele>
        <time>2022-05-14T09:25:29Z</time>
      </trkpt>
      <trkpt lat="47.34433" lon="-1.58626">
        <ele>93</ele>
        <time>2022-05-14T09:25:31Z</time>
      </trkpt>
      <trkpt lat="47.34425" lon="-1.58615">
        <ele>93</ele>
        <time>2022-05-14T09:25:33Z</time>
      </trkpt>
      <trkpt lat="47.34417" lon="-1.58603">
        <ele>94</ele>
        <time>2022-05-14T09:25:35Z</time>
      </trkpt>
      <trkpt lat="47.34409" lon="-1.58592">
        <ele>94</ele>
        <time>2022-05-14T09:25:37Z</time>
      </trkpt>
      <trkpt lat="47.344" lon="-1.58581">
        <ele>94</ele>
        <time>2022-05-14T09:25:39Z</time>
      </trkpt>
      <trkpt lat="47.34392" lon="-1.5857">
        <ele>94</ele>
        <time>2022-05-14T09:25:41Z</time>
      </trkpt>
      <trkpt lat="47.34384" lon="-1.58559">
        <ele>94</ele>
        <time>2022-05-14T09:25:43Z</time>
      </trkpt>
      <trkpt lat="47.34375" lon="-1.58549">
        <ele>95</ele>
        <time>2022-05-14T09:25:45Z</time>
      </trkpt>
      <trkpt lat="47.34367" lon="-1.58539">
        <ele>96</ele>
        <time>2022-05-14T09:25:47Z</time>
      </trkpt>
      <trkpt lat="47.34358" lon="-1.58529">
        <ele>96</ele>
        <time>2022-05-14T09:25:49Z</time>
      </trkpt>
      <trkpt lat="47.3435" lon="-1.58517">
        <ele>96</ele>
        <time>2022-05-14T09:25:51Z</time>
      </trkpt>
      <trkpt lat="47.34342" lon="-1.58507">
        <ele>96</ele>
        <time>2022-05-14T09:25:53Z</time>
      </trkpt>
      <trkpt lat="47.34334" lon="-1.58496">
        <ele>96</ele>
        <time>2022-05-14T09:25:55Z</time>
      </trkpt>
      <trkpt lat="47.34326" lon="-1.58484">
        <ele>96</ele>
        <time>2022-05-14T09:25:57Z</time>
      </trkpt>
      <trkpt lat="47.34319" lon="-1.58472">
        <ele>96</ele>
        <time>2022-05-14T09:25:59Z</time>
      </trkpt>
      <trkpt lat="47.34311" lon="-1.5846">
        <ele>96</ele>
        <time>2022-05-14T09:26:01Z</time>
      </trkpt>
      <trkpt lat="47.34303" lon="-1.58447">
        <ele>96</ele>
        <time>2022-05-14T09:26:03Z</time>
      </trkpt>
      <trkpt lat="47.34294" lon="-1.58435">
        <ele>95</ele>
        <time>2022-05-14T09:26:05Z</time>
      </trkpt>
      <trkpt lat="47.34284" lon="-1.58422">
        <ele>95</ele>
        <time>2022-05-14T09:26:07Z</time>
      </trkpt>
      <trkpt lat="47.34274" lon="-1.5841">
        <ele>94</ele>
        <time>2022-05-14T09:26:09Z</time>
      </trkpt>
      <trkpt lat="47.34264" lon="-1.58397">
        <ele>94</ele>
        <time>2022-05-14T09:26:11Z</time>
      </trkpt>
      <trkpt lat="47.34254" lon="-1.58383">
        <ele>93</ele>
        <time>2022-05-14T09:26:13Z</time>
      </trkpt>
      <trkpt lat="47.34244" lon="-1.58369">
        <ele>93</ele>
        <time>2022-05-14T09:26:15Z</time>
      </trkpt>
      <trkpt lat="47.34234" lon="-1.58355">
        <ele>92</ele>
        <time>2022-05-14T09:26:17Z</time>
      </trkpt>
      <trkpt lat="47.34224" lon="-1.58341">
        <ele>92</ele>
        <time>2022-05-14T09:26:19Z</time>
      </trkpt>
      <trkpt lat="47.34214" lon="-1.58327">
        <ele>92</ele>
        <time>2022-05-14T09:26:21Z</time>
      </trkpt>
      <trkpt lat="47.34204" lon="-1.58313">
        <ele>92</ele>
        <time>2022-05-14T09:26:23Z</time>
      </trkpt>
      <trkpt lat="47.34193" lon="-1.58299">
        <ele>92</ele>
        <time>2022-05-14T09:26:25Z</time>
      </trkpt>
      <trkpt lat="47.34183" lon="-1.58285">
        <ele>91</ele>
        <time>2022-05-14T09:26:27Z</time>
      </trkpt>
      <trkpt lat="47.34173" lon="-1.58271">
        <ele>91</ele>
        <time>2022-05-14T09:26:29Z</time>
      </trkpt>
      <trkpt lat="47.34162" lon="-1.58256">
        <ele>91</ele>
        <time>2022-05-14T09:26:31Z</time>
      </trkpt>
      <trkpt lat="47.34151" lon="-1.58241">
        <ele>91</ele>
        <time>2022-05-14T09:26:33Z</time>
      </trkpt>
      <trkpt lat="47.34141" lon="-1.58226">
        <ele>90</ele>
        <time>2022-05-14T09:26:35Z</time>
      </trkpt>
      <trkpt lat="47.34129" lon="-1.5821">
        <ele>90</ele>
        <time>2022-05-14T09:26:37Z</time>
      </trkpt>
      <trkpt lat="47.34118" lon="-1.58195">
        <ele>90</ele>
        <time>2022-05-14T09:26:39Z</time>
      </trkpt>
      <trkpt lat="47.34107" lon="-1.58181">
        <ele>90</ele>
        <time>2022-05-14T09:26:41Z</time>
      </trkpt>
      <trkpt lat="47.34098" lon="-1.58167">
        <ele>91</ele>
        <time>2022-05-14T09:26:43Z</time>
      </trkpt>
      <trkpt lat="47.34089" lon="-1.58153">
        <ele>91</ele>
        <time>2022-05-14T09:26:45Z</time>
      </trkpt>
      <trkpt lat="47.34077" lon="-1.58139">
        <ele>90</ele>
        <time>2022-05-14T09:26:47Z</time>
      </trkpt>
      <trkpt lat="47.34066" lon="-1.58123">
        <ele>90</ele>
        <time>2022-05-14T09:26:49Z</time>
      </trkpt>
      <trkpt lat="47.34055" lon="-1.58107">
        <ele>90</ele>
        <time>2022-05-14T09:26:51Z</time>
      </trkpt>
      <trkpt lat="47.34044" lon="-1.58091">
        <ele>90</ele>
        <time>2022-05-14T09:26:53Z</time>
      </trkpt>
      <trkpt lat="47.34033" lon="-1.58075">
        <ele>90</ele>
        <time>2022-05-14T09:26:55Z</time>
      </trkpt>
      <trkpt lat="47.34023" lon="-1.5806">
        <ele>90</ele>
        <time>2022-05-14T09:26:57Z</time>
      </trkpt>
      <trkpt lat="47.34013" lon="-1.58045">
        <ele>91</ele>
        <time>2022-05-14T09:26:59Z</time>
      </trkpt>
      <trkpt lat="47.33999" lon="-1.5803">
        <ele>90</ele>
        <time>2022-05-14T09:27:01Z</time>
      </trkpt>
      <trkpt lat="47.33986" lon="-1.58015">
        <ele>88</ele>
        <time>2022-05-14T09:27:03Z</time>
      </trkpt>
      <trkpt lat="47.33975" lon="-1.58001">
        <ele>88</ele>
        <time>2022-05-14T09:27:05Z</time>
      </trkpt>
      <trkpt lat="47.33964" lon="-1.57987">
        <ele>88</ele>
        <time>2022-05-14T09:27:07Z</time>
      </trkpt>
      <trkpt lat="47.33955" lon="-1.57972">
        <ele>87</ele>
        <time>2022-05-14T09:27:09Z</time>
      </trkpt>
      <trkpt lat="47.33946" lon="-1.57959">
        <ele>87</ele>
        <time>2022-05-14T09:27:11Z</time>
      </trkpt>
      <trkpt lat="47.33936" lon="-1.57946">
        <ele>87</ele>
        <time>2022-05-14T09:27:13Z</time>
      </trkpt>
      <trkpt lat="47.33926" lon="-1.57934">
        <ele>88</ele>
        <time>2022-05-14T09:27:15Z</time>
      </trkpt>
      <trkpt lat="47.33918" lon="-1.57921">
        <ele>88</ele>
        <time>2022-05-14T09:27:17Z</time>
      </trkpt>
      <trkpt lat="47.33909" lon="-1.57909">
        <ele>88</ele>
        <time>2022-05-14T09:27:19Z</time>
      </trkpt>
      <trkpt lat="47.339" lon="-1.57898">
        <ele>88</ele>
        <time>2022-05-14T09:27:21Z</time>
      </trkpt>
      <trkpt lat="47.33891" lon="-1.57887">
        <ele>88</ele>
        <time>2022-05-14T09:27:23Z</time>
      </trkpt>
      <trkpt lat="47.33883" lon="-1.57877">
        <ele>88</ele>
        <time>2022-05-14T09:27:25Z</time>
      </trkpt>
      <trkpt lat="47.33874" lon="-1.57867">
        <ele>89</ele>
        <time>2022-05-14T09:27:27Z</time>
      </trkpt>
      <trkpt lat="47.33866" lon="-1.57857">
        <ele>89</ele>
        <time>2022-05-14T09:27:29Z</time>
      </trkpt>
      <trkpt lat="47.33857" lon="-1.57849">
        <ele>89</ele>
        <time>2022-05-14T09:27:31Z</time>
      </trkpt>
      <trkpt lat="47.33849" lon="-1.57843">
        <ele>89</ele>
        <time>2022-05-14T09:27:33Z</time>
      </trkpt>
      <trkpt lat="47.33839" lon="-1.57831">
        <ele>89</ele>
        <time>2022-05-14T09:27:36Z</time>
      </trkpt>
      <trkpt lat="47.33837" lon="-1.57812">
        <ele>89</ele>
        <time>2022-05-14T09:27:39Z</time>
      </trkpt>
      <trkpt lat="47.33841" lon="-1.57798">
        <ele>90</ele>
        <time>2022-05-14T09:27:41Z</time>
      </trkpt>
      <trkpt lat="47.33845" lon="-1.57782">
        <ele>90</ele>
        <time>2022-05-14T09:27:43Z</time>
      </trkpt>
      <trkpt lat="47.3385" lon="-1.57767">
        <ele>91</ele>
        <time>2022-05-14T09:27:45Z</time>
      </trkpt>
      <trkpt lat="47.33855" lon="-1.57752">
        <ele>91</ele>
        <time>2022-05-14T09:27:47Z</time>
      </trkpt>
      <trkpt lat="47.33859" lon="-1.57738">
        <ele>90</ele>
        <time>2022-05-14T09:27:49Z</time>
      </trkpt>
      <trkpt lat="47.33863" lon="-1.57722">
        <ele>91</ele>
        <time>2022-05-14T09:27:51Z</time>
      </trkpt>
      <trkpt lat="47.33867" lon="-1.57707">
        <ele>91</ele>
        <time>2022-05-14T09:27:53Z</time>
      </trkpt>
      <trkpt lat="47.33871" lon="-1.57692">
        <ele>92</ele>
        <time>2022-05-14T09:27:55Z</time>
      </trkpt>
      <trkpt lat="47.33876" lon="-1.57677">
        <ele>92</ele>
        <time>2022-05-14T09:27:57Z</time>
      </trkpt>
      <trkpt lat="47.3388" lon="-1.57662">
        <ele>91</ele>
        <time>2022-05-14T09:27:59Z</time>
      </trkpt>
      <trkpt lat="47.33884" lon="-1.57647">
        <ele>91</ele>
        <time>2022-05-14T09:28:01Z</time>
      </trkpt>
      <trkpt lat="47.33889" lon="-1.57632">
        <ele>91</ele>
        <time>2022-05-14T09:28:03Z</time>
      </trkpt>
      <trkpt lat="47.33894" lon="-1.57616">
        <ele>91</ele>
        <time>2022-05-14T09:28:05Z</time>
      </trkpt>
      <trkpt lat="47.33898" lon="-1.57601">
        <ele>91</ele>
        <time>2022-05-14T09:28:07Z</time>
      </trkpt>
      <trkpt lat="47.33903" lon="-1.57585">
        <ele>92</ele>
        <time>2022-05-14T09:28:09Z</time>
      </trkpt>
      <trkpt lat="47.33908" lon="-1.57568">
        <ele>91</ele>
        <time>2022-05-14T09:28:11Z</time>
      </trkpt>
      <trkpt lat="47.33912" lon="-1.57551">
        <ele>91</ele>
        <time>2022-05-14T09:28:13Z</time>
      </trkpt>
      <trkpt lat="47.33917" lon="-1.57534">
        <ele>91</ele>
        <time>2022-05-14T09:28:15Z</time>
      </trkpt>
      <trkpt lat="47.33921" lon="-1.57516">
        <ele>91</ele>
        <time>2022-05-14T09:28:17Z</time>
      </trkpt>
      <trkpt lat="47.33926" lon="-1.57498">
        <ele>91</ele>
        <time>2022-05-14T09:28:19Z</time>
      </trkpt>
      <trkpt lat="47.33931" lon="-1.5748">
        <ele>90</ele>
        <time>2022-05-14T09:28:21Z</time>
      </trkpt>
      <trkpt lat="47.33936" lon="-1.57462">
        <ele>89</ele>
        <time>2022-05-14T09:28:23Z</time>
      </trkpt>
      <trkpt lat="47.33942" lon="-1.57444">
        <ele>89</ele>
        <time>2022-05-14T09:28:25Z</time>
      </trkpt>
      <trkpt lat="47.33947" lon="-1.57425">
        <ele>88</ele>
        <time>2022-05-14T09:28:27Z</time>
      </trkpt>
      <trkpt lat="47.33953" lon="-1.57406">
        <ele>87</ele>
        <time>2022-05-14T09:28:29Z</time>
      </trkpt>
      <trkpt lat="47.33959" lon="-1.57387">
        <ele>87</ele>
        <time>2022-05-14T09:28:31Z</time>
      </trkpt>
      <trkpt lat="47.33964" lon="-1.57366">
        <ele>87</ele>
        <time>2022-05-14T09:28:33Z</time>
      </trkpt>
      <trkpt lat="47.3397" lon="-1.57346">
        <ele>86</ele>
        <time>2022-05-14T09:28:35Z</time>
      </trkpt>
      <trkpt lat="47.33975" lon="-1.57326">
        <ele>85</ele>
        <time>2022-05-14T09:28:37Z</time>
      </trkpt>
      <trkpt lat="47.33979" lon="-1.57305">
        <ele>84</ele>
        <time>2022-05-14T09:28:39Z</time>
      </trkpt>
      <trkpt lat="47.33982" lon="-1.57282">
        <ele>83</ele>
        <time>2022-05-14T09:28:41Z</time>
      </trkpt>
      <trkpt lat="47.33984" lon="-1.5726">
        <ele>83</ele>
        <time>2022-05-14T09:28:43Z</time>
      </trkpt>
      <trkpt lat="47.33986" lon="-1.57238">
        <ele>82</ele>
        <time>2022-05-14T09:28:45Z</time>
      </trkpt>
      <trkpt lat="47.33989" lon="-1.57216">
        <ele>82</ele>
        <time>2022-05-14T09:28:47Z</time>
      </trkpt>
      <trkpt lat="47.3399" lon="-1.57194">
        <ele>82</ele>
        <time>2022-05-14T09:28:49Z</time>
      </trkpt>
      <trkpt lat="47.33991" lon="-1.57173">
        <ele>82</ele>
        <time>2022-05-14T09:28:51Z</time>
      </trkpt>
      <trkpt lat="47.33992" lon="-1.57152">
        <ele>82</ele>
        <time>2022-05-14T09:28:53Z</time>
      </trkpt>
      <trkpt lat="47.33991" lon="-1.57131">
        <ele>82</ele>
        <time>2022-05-14T09:28:55Z</time>
      </trkpt>
      <trkpt lat="47.33992" lon="-1.57111">
        <ele>82</ele>
        <time>2022-05-14T09:28:57Z</time>
      </trkpt>
      <trkpt lat="47.33992" lon="-1.57091">
        <ele>81</ele>
        <time>2022-05-14T09:28:59Z</time>
      </trkpt>
      <trkpt lat="47.33992" lon="-1.57071">
        <ele>81</ele>
        <time>2022-05-14T09:29:01Z</time>
      </trkpt>
      <trkpt lat="47.33992" lon="-1.5705">
        <ele>81</ele>
        <time>2022-05-14T09:29:03Z</time>
      </trkpt>
      <trkpt lat="47.33992" lon="-1.57029">
        <ele>80</ele>
        <time>2022-05-14T09:29:05Z</time>
      </trkpt>
      <trkpt lat="47.33992" lon="-1.57007">
        <ele>80</ele>
        <time>2022-05-14T09:29:07Z</time>
      </trkpt>
      <trkpt lat="47.33994" lon="-1.56986">
        <ele>79</ele>
        <time>2022-05-14T09:29:09Z</time>
      </trkpt>
      <trkpt lat="47.33995" lon="-1.56966">
        <ele>79</ele>
        <time>2022-05-14T09:29:11Z</time>
      </trkpt>
      <trkpt lat="47.33996" lon="-1.56945">
        <ele>79</ele>
        <time>2022-05-14T09:29:13Z</time>
      </trkpt>
      <trkpt lat="47.33997" lon="-1.56924">
        <ele>79</ele>
        <time>2022-05-14T09:29:15Z</time>
      </trkpt>
      <trkpt lat="47.33998" lon="-1.56901">
        <ele>78</ele>
        <time>2022-05-14T09:29:17Z</time>
      </trkpt>
      <trkpt lat="47.34" lon="-1.5688">
        <ele>78</ele>
        <time>2022-05-14T09:29:19Z</time>
      </trkpt>
      <trkpt lat="47.34" lon="-1.56858">
        <ele>78</ele>
        <time>2022-05-14T09:29:21Z</time>
      </trkpt>
      <trkpt lat="47.34" lon="-1.56839">
        <ele>78</ele>
        <time>2022-05-14T09:29:23Z</time>
      </trkpt>
      <trkpt lat="47.34001" lon="-1.5682">
        <ele>79</ele>
        <time>2022-05-14T09:29:25Z</time>
      </trkpt>
      <trkpt lat="47.34002" lon="-1.56801">
        <ele>78</ele>
        <time>2022-05-14T09:29:27Z</time>
      </trkpt>
      <trkpt lat="47.34003" lon="-1.56782">
        <ele>78</ele>
        <time>2022-05-14T09:29:29Z</time>
      </trkpt>
      <trkpt lat="47.34004" lon="-1.56762">
        <ele>78</ele>
        <time>2022-05-14T09:29:31Z</time>
      </trkpt>
      <trkpt lat="47.34004" lon="-1.56742">
        <ele>79</ele>
        <time>2022-05-14T09:29:33Z</time>
      </trkpt>
      <trkpt lat="47.34005" lon="-1.56723">
        <ele>79</ele>
        <time>2022-05-14T09:29:35Z</time>
      </trkpt>
      <trkpt lat="47.34006" lon="-1.56704">
        <ele>79</ele>
        <time>2022-05-14T09:29:37Z</time>
      </trkpt>
      <trkpt lat="47.34006" lon="-1.56686">
        <ele>78</ele>
        <time>2022-05-14T09:29:39Z</time>
      </trkpt>
      <trkpt lat="47.34007" lon="-1.56667">
        <ele>78</ele>
        <time>2022-05-14T09:29:41Z</time>
      </trkpt>
      <trkpt lat="47.34008" lon="-1.56648">
        <ele>77</ele>
        <time>2022-05-14T09:29:43Z</time>
      </trkpt>
      <trkpt lat="47.34009" lon="-1.56629">
        <ele>76</ele>
        <time>2022-05-14T09:29:45Z</time>
      </trkpt>
      <trkpt lat="47.34009" lon="-1.56609">
        <ele>76</ele>
        <time>2022-05-14T09:29:47Z</time>
      </trkpt>
      <trkpt lat="47.3401" lon="-1.56589">
        <ele>75</ele>
        <time>2022-05-14T09:29:49Z</time>
      </trkpt>
      <trkpt lat="47.34011" lon="-1.56568">
        <ele>74</ele>
        <time>2022-05-14T09:29:51Z</time>
      </trkpt>
      <trkpt lat="47.34012" lon="-1.56547">
        <ele>74</ele>
        <time>2022-05-14T09:29:53Z</time>
      </trkpt>
      <trkpt lat="47.34013" lon="-1.56525">
        <ele>74</ele>
        <time>2022-05-14T09:29:55Z</time>
      </trkpt>
      <trkpt lat="47.34014" lon="-1.56504">
        <ele>73</ele>
        <time>2022-05-14T09:29:57Z</time>
      </trkpt>
      <trkpt lat="47.34015" lon="-1.56482">
        <ele>73</ele>
        <time>2022-05-14T09:29:59Z</time>
      </trkpt>
      <trkpt lat="47.34016" lon="-1.5646">
        <ele>72</ele>
        <time>2022-05-14T09:30:01Z</time>
      </trkpt>
      <trkpt lat="47.34017" lon="-1.56439">
        <ele>72</ele>
        <time>2022-05-14T09:30:03Z</time>
      </trkpt>
      <trkpt lat="47.34018" lon="-1.56418">
        <ele>72</ele>
        <time>2022-05-14T09:30:05Z</time>
      </trkpt>
      <trkpt lat="47.34019" lon="-1.56397">
        <ele>72</ele>
        <time>2022-05-14T09:30:07Z</time>
      </trkpt>
      <trkpt lat="47.34019" lon="-1.56377">
        <ele>73</ele>
        <time>2022-05-14T09:30:09Z</time>
      </trkpt>
      <trkpt lat="47.34018" lon="-1.56359">
        <ele>73</ele>
        <time>2022-05-14T09:30:11Z</time>
      </trkpt>
      <trkpt lat="47.34017" lon="-1.56341">
        <ele>75</ele>
        <time>2022-05-14T09:30:13Z</time>
      </trkpt>
      <trkpt lat="47.34014" lon="-1.56321">
        <ele>75</ele>
        <time>2022-05-14T09:30:15Z</time>
      </trkpt>
      <trkpt lat="47.34011" lon="-1.56301">
        <ele>76</ele>
        <time>2022-05-14T09:30:17Z</time>
      </trkpt>
      <trkpt lat="47.3401" lon="-1.5628">
        <ele>76</ele>
        <time>2022-05-14T09:30:19Z</time>
      </trkpt>
      <trkpt lat="47.34006" lon="-1.5626">
        <ele>75</ele>
        <time>2022-05-14T09:30:21Z</time>
      </trkpt>
      <trkpt lat="47.34002" lon="-1.56239">
        <ele>75</ele>
        <time>2022-05-14T09:30:23Z</time>
      </trkpt>
      <trkpt lat="47.33999" lon="-1.56217">
        <ele>75</ele>
        <time>2022-05-14T09:30:25Z</time>
      </trkpt>
      <trkpt lat="47.33997" lon="-1.56194">
        <ele>75</ele>
        <time>2022-05-14T09:30:27Z</time>
      </trkpt>
      <trkpt lat="47.33993" lon="-1.56169">
        <ele>74</ele>
        <time>2022-05-14T09:30:29Z</time>
      </trkpt>
      <trkpt lat="47.3399" lon="-1.56143">
        <ele>74</ele>
        <time>2022-05-14T09:30:31Z</time>
      </trkpt>
      <trkpt lat="47.33986" lon="-1.56117">
        <ele>72</ele>
        <time>2022-05-14T09:30:33Z</time>
      </trkpt>
      <trkpt lat="47.33983" lon="-1.56091">
        <ele>71</ele>
        <time>2022-05-14T09:30:35Z</time>
      </trkpt>
      <trkpt lat="47.33982" lon="-1.56078">
        <ele>71</ele>
        <time>2022-05-14T09:30:36Z</time>
      </trkpt>
      <trkpt lat="47.33981" lon="-1.56064">
        <ele>70</ele>
        <time>2022-05-14T09:30:37Z</time>
      </trkpt>
      <trkpt lat="47.33982" lon="-1.5605">
        <ele>69</ele>
        <time>2022-05-14T09:30:38Z</time>
      </trkpt>
      <trkpt lat="47.33988" lon="-1.56027">
        <ele>67</ele>
        <time>2022-05-14T09:30:40Z</time>
      </trkpt>
      <trkpt lat="47.33998" lon="-1.56006">
        <ele>67</ele>
        <time>2022-05-14T09:30:42Z</time>
      </trkpt>
      <trkpt lat="47.34011" lon="-1.55986">
        <ele>67</ele>
        <time>2022-05-14T09:30:44Z</time>
      </trkpt>
      <trkpt lat="47.34019" lon="-1.55976">
        <ele>67</ele>
        <time>2022-05-14T09:30:45Z</time>
      </trkpt>
      <trkpt lat="47.34026" lon="-1.55968">
        <ele>67</ele>
        <time>2022-05-14T09:30:46Z</time>
      </trkpt>
      <trkpt lat="47.34039" lon="-1.55951">
        <ele>68</ele>
        <time>2022-05-14T09:30:48Z</time>
      </trkpt>
      <trkpt lat="47.34052" lon="-1.55934">
        <ele>68</ele>
        <time>2022-05-14T09:30:50Z</time>
      </trkpt>
      <trkpt lat="47.34061" lon="-1.55916">
        <ele>68</ele>
        <time>2022-05-14T09:30:52Z</time>
      </trkpt>
      <trkpt lat="47.34064" lon="-1.55897">
        <ele>67</ele>
        <time>2022-05-14T09:30:54Z</time>
      </trkpt>
      <trkpt lat="47.34062" lon="-1.55879">
        <ele>68</ele>
        <time>2022-05-14T09:30:56Z</time>
      </trkpt>
      <trkpt lat="47.3406" lon="-1.55864">
        <ele>68</ele>
        <time>2022-05-14T09:30:58Z</time>
      </trkpt>
      <trkpt lat="47.34057" lon="-1.55851">
        <ele>69</ele>
        <time>2022-05-14T09:31:00Z</time>
      </trkpt>
      <trkpt lat="47.34055" lon="-1.55832">
        <ele>69</ele>
        <time>2022-05-14T09:31:03Z</time>
      </trkpt>
      <trkpt lat="47.34053" lon="-1.55813">
        <ele>70</ele>
        <time>2022-05-14T09:31:06Z</time>
      </trkpt>
      <trkpt lat="47.34052" lon="-1.55798">
        <ele>70</ele>
        <time>2022-05-14T09:31:08Z</time>
      </trkpt>
      <trkpt lat="47.34052" lon="-1.55782">
        <ele>70</ele>
        <time>2022-05-14T09:31:10Z</time>
      </trkpt>
      <trkpt lat="47.34052" lon="-1.55766">
        <ele>70</ele>
        <time>2022-05-14T09:31:12Z</time>
      </trkpt>
      <trkpt lat="47.34054" lon="-1.55752">
        <ele>71</ele>
        <time>2022-05-14T09:31:14Z</time>
      </trkpt>
      <trkpt lat="47.34056" lon="-1.55737">
        <ele>71</ele>
        <time>2022-05-14T09:31:16Z</time>
      </trkpt>
      <trkpt lat="47.34059" lon="-1.55722">
        <ele>70</ele>
        <time>2022-05-14T09:31:18Z</time>
      </trkpt>
      <trkpt lat="47.34062" lon="-1.55707">
        <ele>70</ele>
        <time>2022-05-14T09:31:20Z</time>
      </trkpt>
      <trkpt lat="47.34065" lon="-1.55692">
        <ele>70</ele>
        <time>2022-05-14T09:31:22Z</time>
      </trkpt>
      <trkpt lat="47.34069" lon="-1.55677">
        <ele>70</ele>
        <time>2022-05-14T09:31:24Z</time>
      </trkpt>
      <trkpt lat="47.34072" lon="-1.55661">
        <ele>70</ele>
        <time>2022-05-14T09:31:26Z</time>
      </trkpt>
      <trkpt lat="47.34075" lon="-1.55646">
        <ele>70</ele>
        <time>2022-05-14T09:31:28Z</time>
      </trkpt>
      <trkpt lat="47.34078" lon="-1.5563">
        <ele>70</ele>
        <time>2022-05-14T09:31:30Z</time>
      </trkpt>
      <trkpt lat="47.34082" lon="-1.55613">
        <ele>70</ele>
        <time>2022-05-14T09:31:32Z</time>
      </trkpt>
      <trkpt lat="47.34087" lon="-1.55597">
        <ele>71</ele>
        <time>2022-05-14T09:31:34Z</time>
      </trkpt>
      <trkpt lat="47.34092" lon="-1.55581">
        <ele>71</ele>
        <time>2022-05-14T09:31:36Z</time>
      </trkpt>
      <trkpt lat="47.34098" lon="-1.55564">
        <ele>72</ele>
        <time>2022-05-14T09:31:38Z</time>
      </trkpt>
      <trkpt lat="47.34104" lon="-1.55546">
        <ele>72</ele>
        <time>2022-05-14T09:31:40Z</time>
      </trkpt>
      <trkpt lat="47.34111" lon="-1.5553">
        <ele>72</ele>
        <time>2022-05-14T09:31:42Z</time>
      </trkpt>
      <trkpt lat="47.34118" lon="-1.55513">
        <ele>71</ele>
        <time>2022-05-14T09:31:44Z</time>
      </trkpt>
      <trkpt lat="47.34126" lon="-1.55498">
        <ele>72</ele>
        <time>2022-05-14T09:31:46Z</time>
      </trkpt>
      <trkpt lat="47.34134" lon="-1.55485">
        <ele>73</ele>
        <time>2022-05-14T09:31:48Z</time>
      </trkpt>
      <trkpt lat="47.34142" lon="-1.55471">
        <ele>74</ele>
        <time>2022-05-14T09:31:50Z</time>
      </trkpt>
      <trkpt lat="47.3415" lon="-1.55457">
        <ele>74</ele>
        <time>2022-05-14T09:31:52Z</time>
      </trkpt>
      <trkpt lat="47.3416" lon="-1.55443">
        <ele>74</ele>
        <time>2022-05-14T09:31:54Z</time>
      </trkpt>
      <trkpt lat="47.34169" lon="-1.55429">
        <ele>73</ele>
        <time>2022-05-14T09:31:56Z</time>
      </trkpt>
      <trkpt lat="47.34178" lon="-1.55415">
        <ele>72</ele>
        <time>2022-05-14T09:31:58Z</time>
      </trkpt>
      <trkpt lat="47.34187" lon="-1.55401">
        <ele>72</ele>
        <time>2022-05-14T09:32:00Z</time>
      </trkpt>
      <trkpt lat="47.34196" lon="-1.55389">
        <ele>72</ele>
        <time>2022-05-14T09:32:02Z</time>
      </trkpt>
      <trkpt lat="47.34204" lon="-1.55375">
        <ele>71</ele>
        <time>2022-05-14T09:32:04Z</time>
      </trkpt>
      <trkpt lat="47.34213" lon="-1.55362">
        <ele>71</ele>
        <time>2022-05-14T09:32:06Z</time>
      </trkpt>
      <trkpt lat="47.34222" lon="-1.55348">
        <ele>70</ele>
        <time>2022-05-14T09:32:08Z</time>
      </trkpt>
      <trkpt lat="47.34231" lon="-1.55335">
        <ele>69</ele>
        <time>2022-05-14T09:32:10Z</time>
      </trkpt>
      <trkpt lat="47.34241" lon="-1.55321">
        <ele>69</ele>
        <time>2022-05-14T09:32:12Z</time>
      </trkpt>
      <trkpt lat="47.3425" lon="-1.55307">
        <ele>69</ele>
        <time>2022-05-14T09:32:14Z</time>
      </trkpt>
      <trkpt lat="47.34259" lon="-1.55293">
        <ele>69</ele>
        <time>2022-05-14T09:32:16Z</time>
      </trkpt>
      <trkpt lat="47.34268" lon="-1.55279">
        <ele>70</ele>
        <time>2022-05-14T09:32:18Z</time>
      </trkpt>
      <trkpt lat="47.34277" lon="-1.55264">
        <ele>70</ele>
        <time>2022-05-14T09:32:20Z</time>
      </trkpt>
      <trkpt lat="47.34286" lon="-1.55248">
        <ele>70</ele>
        <time>2022-05-14T09:32:22Z</time>
      </trkpt>
      <trkpt lat="47.34294" lon="-1.5523">
        <ele>70</ele>
        <time>2022-05-14T09:32:24Z</time>
      </trkpt>
      <trkpt lat="47.343" lon="-1.5521">
        <ele>68</ele>
        <time>2022-05-14T09:32:26Z</time>
      </trkpt>
      <trkpt lat="47.34304" lon="-1.55189">
        <ele>67</ele>
        <time>2022-05-14T09:32:28Z</time>
      </trkpt>
      <trkpt lat="47.34308" lon="-1.55166">
        <ele>66</ele>
        <time>2022-05-14T09:32:30Z</time>
      </trkpt>
      <trkpt lat="47.34311" lon="-1.55144">
        <ele>64</ele>
        <time>2022-05-14T09:32:32Z</time>
      </trkpt>
      <trkpt lat="47.34314" lon="-1.55121">
        <ele>63</ele>
        <time>2022-05-14T09:32:34Z</time>
      </trkpt>
      <trkpt lat="47.34316" lon="-1.55099">
        <ele>63</ele>
        <time>2022-05-14T09:32:36Z</time>
      </trkpt>
      <trkpt lat="47.34317" lon="-1.55078">
        <ele>64</ele>
        <time>2022-05-14T09:32:38Z</time>
      </trkpt>
      <trkpt lat="47.34319" lon="-1.55059">
        <ele>64</ele>
        <time>2022-05-14T09:32:40Z</time>
      </trkpt>
      <trkpt lat="47.3432" lon="-1.55042">
        <ele>65</ele>
        <time>2022-05-14T09:32:42Z</time>
      </trkpt>
      <trkpt lat="47.34321" lon="-1.55027">
        <ele>65</ele>
        <time>2022-05-14T09:32:44Z</time>
      </trkpt>
      <trkpt lat="47.34323" lon="-1.55008">
        <ele>65</ele>
        <time>2022-05-14T09:32:47Z</time>
      </trkpt>
      <trkpt lat="47.34326" lon="-1.54988">
        <ele>66</ele>
        <time>2022-05-14T09:32:50Z</time>
      </trkpt>
      <trkpt lat="47.34328" lon="-1.5497">
        <ele>67</ele>
        <time>2022-05-14T09:32:53Z</time>
      </trkpt>
      <trkpt lat="47.34329" lon="-1.54956">
        <ele>67</ele>
        <time>2022-05-14T09:32:55Z</time>
      </trkpt>
      <trkpt lat="47.34331" lon="-1.54936">
        <ele>67</ele>
        <time>2022-05-14T09:32:58Z</time>
      </trkpt>
      <trkpt lat="47.34332" lon="-1.54918">
        <ele>68</ele>
        <time>2022-05-14T09:33:01Z</time>
      </trkpt>
      <trkpt lat="47.34334" lon="-1.549">
        <ele>69</ele>
        <time>2022-05-14T09:33:04Z</time>
      </trkpt>
      <trkpt lat="47.34336" lon="-1.54881">
        <ele>70</ele>
        <time>2022-05-14T09:33:07Z</time>
      </trkpt>
      <trkpt lat="47.34338" lon="-1.54861">
        <ele>71</ele>
        <time>2022-05-14T09:33:10Z</time>
      </trkpt>
      <trkpt lat="47.34339" lon="-1.54848">
        <ele>71</ele>
        <time>2022-05-14T09:33:12Z</time>
      </trkpt>
      <trkpt lat="47.34341" lon="-1.54831">
        <ele>72</ele>
        <time>2022-05-14T09:33:15Z</time>
      </trkpt>
      <trkpt lat="47.34342" lon="-1.54811">
        <ele>73</ele>
        <time>2022-05-14T09:33:18Z</time>
      </trkpt>
      <trkpt lat="47.34343" lon="-1.54798">
        <ele>74</ele>
        <time>2022-05-14T09:33:20Z</time>
      </trkpt>
      <trkpt lat="47.34345" lon="-1.54778">
        <ele>74</ele>
        <time>2022-05-14T09:33:23Z</time>
      </trkpt>
      <trkpt lat="47.34348" lon="-1.5476">
        <ele>74</ele>
        <time>2022-05-14T09:33:26Z</time>
      </trkpt>
      <trkpt lat="47.34353" lon="-1.54742">
        <ele>75</ele>
        <time>2022-05-14T09:33:29Z</time>
      </trkpt>
      <trkpt lat="47.34361" lon="-1.54726">
        <ele>75</ele>
        <time>2022-05-14T09:33:32Z</time>
      </trkpt>
      <trkpt lat="47.34369" lon="-1.54711">
        <ele>76</ele>
        <time>2022-05-14T09:33:35Z</time>
      </trkpt>
      <trkpt lat="47.34376" lon="-1.54702">
        <ele>76</ele>
        <time>2022-05-14T09:33:37Z</time>
      </trkpt>
      <trkpt lat="47.34386" lon="-1.54689">
        <ele>77</ele>
        <time>2022-05-14T09:33:40Z</time>
      </trkpt>
      <trkpt lat="47.34394" lon="-1.54681">
        <ele>77</ele>
        <time>2022-05-14T09:33:42Z</time>
      </trkpt>
      <trkpt lat="47.34405" lon="-1.54669">
        <ele>77</ele>
        <time>2022-05-14T09:33:45Z</time>
      </trkpt>
      <trkpt lat="47.34412" lon="-1.5466">
        <ele>78</ele>
        <time>2022-05-14T09:33:47Z</time>
      </trkpt>
      <trkpt lat="47.34418" lon="-1.5465">
        <ele>78</ele>
        <time>2022-05-14T09:33:49Z</time>
      </trkpt>
      <trkpt lat="47.34423" lon="-1.54639">
        <ele>78</ele>
        <time>2022-05-14T09:33:51Z</time>
      </trkpt>
      <trkpt lat="47.34425" lon="-1.54626">
        <ele>79</ele>
        <time>2022-05-14T09:33:53Z</time>
      </trkpt>
      <trkpt lat="47.34426" lon="-1.54606">
        <ele>79</ele>
        <time>2022-05-14T09:33:56Z</time>
      </trkpt>
      <trkpt lat="47.34425" lon="-1.54593">
        <ele>79</ele>
        <time>2022-05-14T09:33:58Z</time>
      </trkpt>
      <trkpt lat="47.34423" lon="-1.5458">
        <ele>79</ele>
        <time>2022-05-14T09:34:00Z</time>
      </trkpt>
      <trkpt lat="47.34421" lon="-1.54566">
        <ele>80</ele>
        <time>2022-05-14T09:34:02Z</time>
      </trkpt>
      <trkpt lat="47.34417" lon="-1.54548">
        <ele>80</ele>
        <time>2022-05-14T09:34:05Z</time>
      </trkpt>
      <trkpt lat="47.34413" lon="-1.54529">
        <ele>80</ele>
        <time>2022-05-14T09:34:08Z</time>
      </trkpt>
      <trkpt lat="47.3441" lon="-1.54511">
        <ele>81</ele>
        <time>2022-05-14T09:34:11Z</time>
      </trkpt>
      <trkpt lat="47.34406" lon="-1.54494">
        <ele>81</ele>
        <time>2022-05-14T09:34:14Z</time>
      </trkpt>
      <trkpt lat="47.34403" lon="-1.54475">
        <ele>82</ele>
        <time>2022-05-14T09:34:17Z</time>
      </trkpt>
      <trkpt lat="47.34399" lon="-1.54457">
        <ele>82</ele>
        <time>2022-05-14T09:34:20Z</time>
      </trkpt>
      <trkpt lat="47.34396" lon="-1.54439">
        <ele>83</ele>
        <time>2022-05-14T09:34:23Z</time>
      </trkpt>
      <trkpt lat="47.34392" lon="-1.54421">
        <ele>83</ele>
        <time>2022-05-14T09:34:26Z</time>
      </trkpt>
      <trkpt lat="47.34387" lon="-1.54403">
        <ele>83</ele>
        <time>2022-05-14T09:34:29Z</time>
      </trkpt>
      <trkpt lat="47.34384" lon="-1.5439">
        <ele>83</ele>
        <time>2022-05-14T09:34:31Z</time>
      </trkpt>
      <trkpt lat="47.34379" lon="-1.54372">
        <ele>84</ele>
        <time>2022-05-14T09:34:34Z</time>
      </trkpt>
      <trkpt lat="47.34374" lon="-1.54353">
        <ele>84</ele>
        <time>2022-05-14T09:34:37Z</time>
      </trkpt>
      <trkpt lat="47.34368" lon="-1.54336">
        <ele>85</ele>
        <time>2022-05-14T09:34:40Z</time>
      </trkpt>
      <trkpt lat="47.34362" lon="-1.54318">
        <ele>85</ele>
        <time>2022-05-14T09:34:43Z</time>
      </trkpt>
      <trkpt lat="47.34358" lon="-1.54305">
        <ele>86</ele>
        <time>2022-05-14T09:34:45Z</time>
      </trkpt>
      <trkpt lat="47.34353" lon="-1.54293">
        <ele>86</ele>
        <time>2022-05-14T09:34:47Z</time>
      </trkpt>
      <trkpt lat="47.34347" lon="-1.54275">
        <ele>87</ele>
        <time>2022-05-14T09:34:50Z</time>
      </trkpt>
      <trkpt lat="47.34342" lon="-1.54262">
        <ele>87</ele>
        <time>2022-05-14T09:34:52Z</time>
      </trkpt>
      <trkpt lat="47.34335" lon="-1.54249">
        <ele>86</ele>
        <time>2022-05-14T09:34:54Z</time>
      </trkpt>
      <trkpt lat="47.3433" lon="-1.54235">
        <ele>86</ele>
        <time>2022-05-14T09:34:56Z</time>
      </trkpt>
      <trkpt lat="47.34324" lon="-1.54221">
        <ele>86</ele>
        <time>2022-05-14T09:34:58Z</time>
      </trkpt>
      <trkpt lat="47.34318" lon="-1.54207">
        <ele>86</ele>
        <time>2022-05-14T09:35:00Z</time>
      </trkpt>
      <trkpt lat="47.34312" lon="-1.54192">
        <ele>85</ele>
        <time>2022-05-14T09:35:02Z</time>
      </trkpt>
      <trkpt lat="47.34307" lon="-1.54178">
        <ele>85</ele>
        <time>2022-05-14T09:35:04Z</time>
      </trkpt>
      <trkpt lat="47.34302" lon="-1.54163">
        <ele>85</ele>
        <time>2022-05-14T09:35:06Z</time>
      </trkpt>
      <trkpt lat="47.34297" lon="-1.54148">
        <ele>85</ele>
        <time>2022-05-14T09:35:08Z</time>
      </trkpt>
      <trkpt lat="47.34294" lon="-1.54131">
        <ele>84</ele>
        <time>2022-05-14T09:35:10Z</time>
      </trkpt>
      <trkpt lat="47.34291" lon="-1.54113">
        <ele>84</ele>
        <time>2022-05-14T09:35:12Z</time>
      </trkpt>
      <trkpt lat="47.34288" lon="-1.54095">
        <ele>84</ele>
        <time>2022-05-14T09:35:14Z</time>
      </trkpt>
      <trkpt lat="47.34286" lon="-1.54077">
        <ele>83</ele>
        <time>2022-05-14T09:35:16Z</time>
      </trkpt>
      <trkpt lat="47.34282" lon="-1.54058">
        <ele>83</ele>
        <time>2022-05-14T09:35:18Z</time>
      </trkpt>
      <trkpt lat="47.34279" lon="-1.54039">
        <ele>83</ele>
        <time>2022-05-14T09:35:20Z</time>
      </trkpt>
      <trkpt lat="47.34275" lon="-1.54021">
        <ele>82</ele>
        <time>2022-05-14T09:35:22Z</time>
      </trkpt>
      <trkpt lat="47.3427" lon="-1.54005">
        <ele>82</ele>
        <time>2022-05-14T09:35:24Z</time>
      </trkpt>
      <trkpt lat="47.34263" lon="-1.53989">
        <ele>82</ele>
        <time>2022-05-14T09:35:26Z</time>
      </trkpt>
      <trkpt lat="47.34257" lon="-1.53973">
        <ele>82</ele>
        <time>2022-05-14T09:35:28Z</time>
      </trkpt>
      <trkpt lat="47.34251" lon="-1.53956">
        <ele>82</ele>
        <time>2022-05-14T09:35:30Z</time>
      </trkpt>
      <trkpt lat="47.34245" lon="-1.5394">
        <ele>82</ele>
        <time>2022-05-14T09:35:32Z</time>
      </trkpt>
      <trkpt lat="47.34237" lon="-1.53926">
        <ele>82</ele>
        <time>2022-05-14T09:35:34Z</time>
      </trkpt>
      <trkpt lat="47.34229" lon="-1.53912">
        <ele>81</ele>
        <time>2022-05-14T09:35:36Z</time>
      </trkpt>
      <trkpt lat="47.3422" lon="-1.53899">
        <ele>81</ele>
        <time>2022-05-14T09:35:38Z</time>
      </trkpt>
      <trkpt lat="47.34212" lon="-1.53887">
        <ele>81</ele>
        <time>2022-05-14T09:35:40Z</time>
      </trkpt>
      <trkpt lat="47.34203" lon="-1.53875">
        <ele>82</ele>
        <time>2022-05-14T09:35:42Z</time>
      </trkpt>
      <trkpt lat="47.34193" lon="-1.53865">
        <ele>82</ele>
        <time>2022-05-14T09:35:44Z</time>
      </trkpt>
      <trkpt lat="47.34183" lon="-1.53854">
        <ele>82</ele>
        <time>2022-05-14T09:35:46Z</time>
      </trkpt>
      <trkpt lat="47.34172" lon="-1.53845">
        <ele>82</ele>
        <time>2022-05-14T09:35:48Z</time>
      </trkpt>
      <trkpt lat="47.34162" lon="-1.53835">
        <ele>83</ele>
        <time>2022-05-14T09:35:50Z</time>
      </trkpt>
      <trkpt lat="47.34152" lon="-1.53823">
        <ele>83</ele>
        <time>2022-05-14T09:35:52Z</time>
      </trkpt>
      <trkpt lat="47.34142" lon="-1.53812">
        <ele>83</ele>
        <time>2022-05-14T09:35:54Z</time>
      </trkpt>
      <trkpt lat="47.34131" lon="-1.53801">
        <ele>83</ele>
        <time>2022-05-14T09:35:56Z</time>
      </trkpt>
      <trkpt lat="47.34121" lon="-1.5379">
        <ele>83</ele>
        <time>2022-05-14T09:35:58Z</time>
      </trkpt>
      <trkpt lat="47.34111" lon="-1.53779">
        <ele>83</ele>
        <time>2022-05-14T09:36:00Z</time>
      </trkpt>
      <trkpt lat="47.34101" lon="-1.53769">
        <ele>83</ele>
        <time>2022-05-14T09:36:02Z</time>
      </trkpt>
      <trkpt lat="47.34091" lon="-1.53759">
        <ele>83</ele>
        <time>2022-05-14T09:36:04Z</time>
      </trkpt>
      <trkpt lat="47.34081" lon="-1.53749">
        <ele>83</ele>
        <time>2022-05-14T09:36:06Z</time>
      </trkpt>
      <trkpt lat="47.34071" lon="-1.53739">
        <ele>83</ele>
        <time>2022-05-14T09:36:08Z</time>
      </trkpt>
      <trkpt lat="47.34061" lon="-1.53728">
        <ele>83</ele>
        <time>2022-05-14T09:36:10Z</time>
      </trkpt>
      <trkpt lat="47.3405" lon="-1.53717">
        <ele>83</ele>
        <time>2022-05-14T09:36:12Z</time>
      </trkpt>
      <trkpt lat="47.34041" lon="-1.53707">
        <ele>83</ele>
        <time>2022-05-14T09:36:14Z</time>
      </trkpt>
      <trkpt lat="47.34032" lon="-1.53697">
        <ele>83</ele>
        <time>2022-05-14T09:36:16Z</time>
      </trkpt>
      <trkpt lat="47.34022" lon="-1.53687">
        <ele>83</ele>
        <time>2022-05-14T09:36:18Z</time>
      </trkpt>
      <trkpt lat="47.34012" lon="-1.53677">
        <ele>83</ele>
        <time>2022-05-14T09:36:20Z</time>
      </trkpt>
      <trkpt lat="47.34" lon="-1.53667">
        <ele>83</ele>
        <time>2022-05-14T09:36:22Z</time>
      </trkpt>
      <trkpt lat="47.33989" lon="-1.53656">
        <ele>82</ele>
        <time>2022-05-14T09:36:24Z</time>
      </trkpt>
      <trkpt lat="47.33978" lon="-1.53646">
        <ele>81</ele>
        <time>2022-05-14T09:36:26Z</time>
      </trkpt>
      <trkpt lat="47.33967" lon="-1.53634">
        <ele>81</ele>
        <time>2022-05-14T09:36:28Z</time>
      </trkpt>
      <trkpt lat="47.33955" lon="-1.53621">
        <ele>80</ele>
        <time>2022-05-14T09:36:30Z</time>
      </trkpt>
      <trkpt lat="47.33944" lon="-1.53609">
        <ele>80</ele>
        <time>2022-05-14T09:36:32Z</time>
      </trkpt>
      <trkpt lat="47.33932" lon="-1.53595">
        <ele>79</ele>
        <time>2022-05-14T09:36:34Z</time>
      </trkpt>
      <trkpt lat="47.3392" lon="-1.53579">
        <ele>79</ele>
        <time>2022-05-14T09:36:36Z</time>
      </trkpt>
      <trkpt lat="47.33913" lon="-1.53559">
        <ele>78</ele>
        <time>2022-05-14T09:36:38Z</time>
      </trkpt>
      <trkpt lat="47.33912" lon="-1.53536">
        <ele>76</ele>
        <time>2022-05-14T09:36:40Z</time>
      </trkpt>
      <trkpt lat="47.33912" lon="-1.53513">
        <ele>75</ele>
        <time>2022-05-14T09:36:42Z</time>
      </trkpt>
      <trkpt lat="47.33913" lon="-1.53489">
        <ele>74</ele>
        <time>2022-05-14T09:36:44Z</time>
      </trkpt>
      <trkpt lat="47.33913" lon="-1.53465">
        <ele>73</ele>
        <time>2022-05-14T09:36:46Z</time>
      </trkpt>
      <trkpt lat="47.33909" lon="-1.53442">
        <ele>72</ele>
        <time>2022-05-14T09:36:48Z</time>
      </trkpt>
      <trkpt lat="47.339" lon="-1.53423">
        <ele>71</ele>
        <time>2022-05-14T09:36:50Z</time>
      </trkpt>
      <trkpt lat="47.33896" lon="-1.53402">
        <ele>70</ele>
        <time>2022-05-14T09:36:52Z</time>
      </trkpt>
      <trkpt lat="47.33894" lon="-1.53379">
        <ele>69</ele>
        <time>2022-05-14T09:36:54Z</time>
      </trkpt>
      <trkpt lat="47.339" lon="-1.53357">
        <ele>69</ele>
        <time>2022-05-14T09:36:56Z</time>
      </trkpt>
      <trkpt lat="47.33908" lon="-1.53338">
        <ele>68</ele>
        <time>2022-05-14T09:36:58Z</time>
      </trkpt>
      <trkpt lat="47.33916" lon="-1.53318">
        <ele>67</ele>
        <time>2022-05-14T09:37:00Z</time>
      </trkpt>
      <trkpt lat="47.33924" lon="-1.53298">
        <ele>67</ele>
        <time>2022-05-14T09:37:02Z</time>
      </trkpt>
      <trkpt lat="47.33932" lon="-1.53278">
        <ele>66</ele>
        <time>2022-05-14T09:37:04Z</time>
      </trkpt>
      <trkpt lat="47.33939" lon="-1.53258">
        <ele>66</ele>
        <time>2022-05-14T09:37:06Z</time>
      </trkpt>
      <trkpt lat="47.33947" lon="-1.53242">
        <ele>65</ele>
        <time>2022-05-14T09:37:08Z</time>
      </trkpt>
      <trkpt lat="47.33953" lon="-1.53229">
        <ele>64</ele>
        <time>2022-05-14T09:37:10Z</time>
      </trkpt>
      <trkpt lat="47.33957" lon="-1.53217">
        <ele>64</ele>
        <time>2022-05-14T09:37:13Z</time>
      </trkpt>
      <trkpt lat="47.33955" lon="-1.53203">
        <ele>64</ele>
        <time>2022-05-14T09:37:17Z</time>
      </trkpt>
      <trkpt lat="47.33949" lon="-1.5319">
        <ele>63</ele>
        <time>2022-05-14T09:37:19Z</time>
      </trkpt>
      <trkpt lat="47.33943" lon="-1.53175">
        <ele>63</ele>
        <time>2022-05-14T09:37:21Z</time>
      </trkpt>
      <trkpt lat="47.33935" lon="-1.5316">
        <ele>63</ele>
        <time>2022-05-14T09:37:23Z</time>
      </trkpt>
      <trkpt lat="47.33928" lon="-1.53144">
        <ele>62</ele>
        <time>2022-05-14T09:37:25Z</time>
      </trkpt>
      <trkpt lat="47.33919" lon="-1.53127">
        <ele>61</ele>
        <time>2022-05-14T09:37:27Z</time>
      </trkpt>
      <trkpt lat="47.33912" lon="-1.5311">
        <ele>61</ele>
        <time>2022-05-14T09:37:29Z</time>
      </trkpt>
      <trkpt lat="47.33904" lon="-1.53093">
        <ele>60</ele>
        <time>2022-05-14T09:37:31Z</time>
      </trkpt>
      <trkpt lat="47.33897" lon="-1.53079">
        <ele>60</ele>
        <time>2022-05-14T09:37:33Z</time>
      </trkpt>
      <trkpt lat="47.33894" lon="-1.53061">
        <ele>59</ele>
        <time>2022-05-14T09:37:36Z</time>
      </trkpt>
      <trkpt lat="47.339" lon="-1.53044">
        <ele>58</ele>
        <time>2022-05-14T09:37:38Z</time>
      </trkpt>
      <trkpt lat="47.33907" lon="-1.53027">
        <ele>57</ele>
        <time>2022-05-14T09:37:40Z</time>
      </trkpt>
      <trkpt lat="47.33913" lon="-1.53011">
        <ele>56</ele>
        <time>2022-05-14T09:37:42Z</time>
      </trkpt>
      <trkpt lat="47.3392" lon="-1.52995">
        <ele>56</ele>
        <time>2022-05-14T09:37:44Z</time>
      </trkpt>
      <trkpt lat="47.33926" lon="-1.52978">
        <ele>56</ele>
        <time>2022-05-14T09:37:46Z</time>
      </trkpt>
      <trkpt lat="47.33932" lon="-1.52962">
        <ele>57</ele>
        <time>2022-05-14T09:37:48Z</time>
      </trkpt>
      <trkpt lat="47.33937" lon="-1.52944">
        <ele>57</ele>
        <time>2022-05-14T09:37:50Z</time>
      </trkpt>
      <trkpt lat="47.33943" lon="-1.52928">
        <ele>57</ele>
        <time>2022-05-14T09:37:52Z</time>
      </trkpt>
      <trkpt lat="47.33949" lon="-1.52911">
        <ele>58</ele>
        <time>2022-05-14T09:37:54Z</time>
      </trkpt>
      <trkpt lat="47.33956" lon="-1.52895">
        <ele>58</ele>
        <time>2022-05-14T09:37:56Z</time>
      </trkpt>
      <trkpt lat="47.33962" lon="-1.52881">
        <ele>58</ele>
        <time>2022-05-14T09:37:58Z</time>
      </trkpt>
      <trkpt lat="47.33966" lon="-1.5287">
        <ele>58</ele>
        <time>2022-05-14T09:38:00Z</time>
      </trkpt>
      <trkpt lat="47.33965" lon="-1.52854">
        <ele>58</ele>
        <time>2022-05-14T09:38:05Z</time>
      </trkpt>
      <trkpt lat="47.33954" lon="-1.52846">
        <ele>60</ele>
        <time>2022-05-14T09:38:07Z</time>
      </trkpt>
      <trkpt lat="47.33941" lon="-1.52836">
        <ele>60</ele>
        <time>2022-05-14T09:38:09Z</time>
      </trkpt>
      <trkpt lat="47.3393" lon="-1.52827">
        <ele>60</ele>
        <time>2022-05-14T09:38:11Z</time>
      </trkpt>
      <trkpt lat="47.33918" lon="-1.52815">
        <ele>60</ele>
        <time>2022-05-14T09:38:13Z</time>
      </trkpt>
      <trkpt lat="47.3391" lon="-1.52799">
        <ele>59</ele>
        <time>2022-05-14T09:38:15Z</time>
      </trkpt>
      <trkpt lat="47.33911" lon="-1.52779">
        <ele>58</ele>
        <time>2022-05-14T09:38:17Z</time>
      </trkpt>
      <trkpt lat="47.33914" lon="-1.52765">
        <ele>58</ele>
        <time>2022-05-14T09:38:19Z</time>
      </trkpt>
      <trkpt lat="47.33918" lon="-1.52746">
        <ele>58</ele>
        <time>2022-05-14T09:38:22Z</time>
      </trkpt>
      <trkpt lat="47.3392" lon="-1.52731">
        <ele>58</ele>
        <time>2022-05-14T09:38:24Z</time>
      </trkpt>
      <trkpt lat="47.33921" lon="-1.52715">
        <ele>59</ele>
        <time>2022-05-14T09:38:26Z</time>
      </trkpt>
      <trkpt lat="47.33923" lon="-1.52697">
        <ele>59</ele>
        <time>2022-05-14T09:38:28Z</time>
      </trkpt>
      <trkpt lat="47.33925" lon="-1.52679">
        <ele>60</ele>
        <time>2022-05-14T09:38:30Z</time>
      </trkpt>
      <trkpt lat="47.33928" lon="-1.52663">
        <ele>59</ele>
        <time>2022-05-14T09:38:32Z</time>
      </trkpt>
      <trkpt lat="47.33932" lon="-1.52646">
        <ele>60</ele>
        <time>2022-05-14T09:38:34Z</time>
      </trkpt>
      <trkpt lat="47.33935" lon="-1.52628">
        <ele>60</ele>
        <time>2022-05-14T09:38:36Z</time>
      </trkpt>
      <trkpt lat="47.33936" lon="-1.52614">
        <ele>61</ele>
        <time>2022-05-14T09:38:38Z</time>
      </trkpt>
      <trkpt lat="47.33926" lon="-1.526">
        <ele>60</ele>
        <time>2022-05-14T09:38:41Z</time>
      </trkpt>
      <trkpt lat="47.33917" lon="-1.52595">
        <ele>59</ele>
        <time>2022-05-14T09:38:43Z</time>
      </trkpt>
      <trkpt lat="47.33905" lon="-1.52589">
        <ele>58</ele>
        <time>2022-05-14T09:38:45Z</time>
      </trkpt>
      <trkpt lat="47.33893" lon="-1.52584">
        <ele>58</ele>
        <time>2022-05-14T09:38:47Z</time>
      </trkpt>
      <trkpt lat="47.33881" lon="-1.52579">
        <ele>59</ele>
        <time>2022-05-14T09:38:49Z</time>
      </trkpt>
      <trkpt lat="47.3387" lon="-1.52575">
        <ele>59</ele>
        <time>2022-05-14T09:38:51Z</time>
      </trkpt>
      <trkpt lat="47.33858" lon="-1.52569">
        <ele>60</ele>
        <time>2022-05-14T09:38:53Z</time>
      </trkpt>
      <trkpt lat="47.33846" lon="-1.52564">
        <ele>60</ele>
        <time>2022-05-14T09:38:55Z</time>
      </trkpt>
      <trkpt lat="47.33835" lon="-1.52561">
        <ele>61</ele>
        <time>2022-05-14T09:38:57Z</time>
      </trkpt>
      <trkpt lat="47.33824" lon="-1.52556">
        <ele>61</ele>
        <time>2022-05-14T09:38:59Z</time>
      </trkpt>
      <trkpt lat="47.33813" lon="-1.52552">
        <ele>62</ele>
        <time>2022-05-14T09:39:01Z</time>
      </trkpt>
      <trkpt lat="47.33802" lon="-1.52547">
        <ele>62</ele>
        <time>2022-05-14T09:39:03Z</time>
      </trkpt>
      <trkpt lat="47.3379" lon="-1.52543">
        <ele>62</ele>
        <time>2022-05-14T09:39:05Z</time>
      </trkpt>
      <trkpt lat="47.33778" lon="-1.52537">
        <ele>62</ele>
        <time>2022-05-14T09:39:07Z</time>
      </trkpt>
      <trkpt lat="47.33764" lon="-1.52533">
        <ele>61</ele>
        <time>2022-05-14T09:39:09Z</time>
      </trkpt>
      <trkpt lat="47.33749" lon="-1.52529">
        <ele>62</ele>
        <time>2022-05-14T09:39:11Z</time>
      </trkpt>
      <trkpt lat="47.33735" lon="-1.52523">
        <ele>61</ele>
        <time>2022-05-14T09:39:13Z</time>
      </trkpt>
      <trkpt lat="47.3372" lon="-1.52514">
        <ele>61</ele>
        <time>2022-05-14T09:39:15Z</time>
      </trkpt>
      <trkpt lat="47.33708" lon="-1.52503">
        <ele>61</ele>
        <time>2022-05-14T09:39:17Z</time>
      </trkpt>
      <trkpt lat="47.33698" lon="-1.5249">
        <ele>61</ele>
        <time>2022-05-14T09:39:19Z</time>
      </trkpt>
      <trkpt lat="47.33692" lon="-1.52477">
        <ele>61</ele>
        <time>2022-05-14T09:39:21Z</time>
      </trkpt>
      <trkpt lat="47.33696" lon="-1.52462">
        <ele>61</ele>
        <time>2022-05-14T09:39:23Z</time>
      </trkpt>
      <trkpt lat="47.33702" lon="-1.52447">
        <ele>62</ele>
        <time>2022-05-14T09:39:25Z</time>
      </trkpt>
      <trkpt lat="47.33705" lon="-1.5243">
        <ele>62</ele>
        <time>2022-05-14T09:39:27Z</time>
      </trkpt>
      <trkpt lat="47.33708" lon="-1.52414">
        <ele>62</ele>
        <time>2022-05-14T09:39:29Z</time>
      </trkpt>
      <trkpt lat="47.33711" lon="-1.52397">
        <ele>63</ele>
        <time>2022-05-14T09:39:31Z</time>
      </trkpt>
      <trkpt lat="47.33713" lon="-1.5238">
        <ele>63</ele>
        <time>2022-05-14T09:39:33Z</time>
      </trkpt>
      <trkpt lat="47.33716" lon="-1.52364">
        <ele>64</ele>
        <time>2022-05-14T09:39:35Z</time>
      </trkpt>
      <trkpt lat="47.33719" lon="-1.52349">
        <ele>65</ele>
        <time>2022-05-14T09:39:37Z</time>
      </trkpt>
      <trkpt lat="47.33722" lon="-1.52335">
        <ele>65</ele>
        <time>2022-05-14T09:39:39Z</time>
      </trkpt>
      <trkpt lat="47.33724" lon="-1.52321">
        <ele>65</ele>
        <time>2022-05-14T09:39:41Z</time>
      </trkpt>
      <trkpt lat="47.33727" lon="-1.52307">
        <ele>66</ele>
        <time>2022-05-14T09:39:43Z</time>
      </trkpt>
      <trkpt lat="47.3373" lon="-1.52292">
        <ele>66</ele>
        <time>2022-05-14T09:39:45Z</time>
      </trkpt>
      <trkpt lat="47.33733" lon="-1.52277">
        <ele>67</ele>
        <time>2022-05-14T09:39:47Z</time>
      </trkpt>
      <trkpt lat="47.33737" lon="-1.52262">
        <ele>67</ele>
        <time>2022-05-14T09:39:49Z</time>
      </trkpt>
      <trkpt lat="47.3374" lon="-1.52246">
        <ele>67</ele>
        <time>2022-05-14T09:39:51Z</time>
      </trkpt>
      <trkpt lat="47.33743" lon="-1.52229">
        <ele>67</ele>
        <time>2022-05-14T09:39:53Z</time>
      </trkpt>
      <trkpt lat="47.33746" lon="-1.52212">
        <ele>67</ele>
        <time>2022-05-14T09:39:55Z</time>
      </trkpt>
      <trkpt lat="47.33749" lon="-1.52196">
        <ele>67</ele>
        <time>2022-05-14T09:39:57Z</time>
      </trkpt>
      <trkpt lat="47.3375" lon="-1.52179">
        <ele>67</ele>
        <time>2022-05-14T09:39:59Z</time>
      </trkpt>
      <trkpt lat="47.33752" lon="-1.52163">
        <ele>68</ele>
        <time>2022-05-14T09:40:01Z</time>
      </trkpt>
      <trkpt lat="47.33753" lon="-1.52146">
        <ele>68</ele>
        <time>2022-05-14T09:40:03Z</time>
      </trkpt>
      <trkpt lat="47.33753" lon="-1.52129">
        <ele>69</ele>
        <time>2022-05-14T09:40:05Z</time>
      </trkpt>
      <trkpt lat="47.33754" lon="-1.52113">
        <ele>69</ele>
        <time>2022-05-14T09:40:07Z</time>
      </trkpt>
      <trkpt lat="47.33756" lon="-1.52099">
        <ele>70</ele>
        <time>2022-05-14T09:40:09Z</time>
      </trkpt>
      <trkpt lat="47.33757" lon="-1.52084">
        <ele>70</ele>
        <time>2022-05-14T09:40:11Z</time>
      </trkpt>
      <trkpt lat="47.33759" lon="-1.5207">
        <ele>71</ele>
        <time>2022-05-14T09:40:13Z</time>
      </trkpt>
      <trkpt lat="47.33759" lon="-1.52055">
        <ele>71</ele>
        <time>2022-05-14T09:40:15Z</time>
      </trkpt>
      <trkpt lat="47.33757" lon="-1.52041">
        <ele>72</ele>
        <time>2022-05-14T09:40:17Z</time>
      </trkpt>
      <trkpt lat="47.33758" lon="-1.52026">
        <ele>72</ele>
        <time>2022-05-14T09:40:19Z</time>
      </trkpt>
      <trkpt lat="47.33758" lon="-1.52011">
        <ele>73</ele>
        <time>2022-05-14T09:40:21Z</time>
      </trkpt>
      <trkpt lat="47.33756" lon="-1.51996">
        <ele>74</ele>
        <time>2022-05-14T09:40:23Z</time>
      </trkpt>
      <trkpt lat="47.33754" lon="-1.51981">
        <ele>74</ele>
        <time>2022-05-14T09:40:25Z</time>
      </trkpt>
      <trkpt lat="47.33752" lon="-1.51967">
        <ele>75</ele>
        <time>2022-05-14T09:40:27Z</time>
      </trkpt>
      <trkpt lat="47.3375" lon="-1.51954">
        <ele>76</ele>
        <time>2022-05-14T09:40:29Z</time>
      </trkpt>
      <trkpt lat="47.33748" lon="-1.51939">
        <ele>76</ele>
        <time>2022-05-14T09:40:31Z</time>
      </trkpt>
      <trkpt lat="47.33747" lon="-1.51924">
        <ele>76</ele>
        <time>2022-05-14T09:40:33Z</time>
      </trkpt>
      <trkpt lat="47.33746" lon="-1.51908">
        <ele>76</ele>
        <time>2022-05-14T09:40:35Z</time>
      </trkpt>
      <trkpt lat="47.33746" lon="-1.51891">
        <ele>76</ele>
        <time>2022-05-14T09:40:37Z</time>
      </trkpt>
      <trkpt lat="47.33744" lon="-1.51876">
        <ele>76</ele>
        <time>2022-05-14T09:40:39Z</time>
      </trkpt>
      <trkpt lat="47.33744" lon="-1.5186">
        <ele>76</ele>
        <time>2022-05-14T09:40:41Z</time>
      </trkpt>
      <trkpt lat="47.33743" lon="-1.51844">
        <ele>77</ele>
        <time>2022-05-14T09:40:43Z</time>
      </trkpt>
      <trkpt lat="47.33743" lon="-1.51829">
        <ele>77</ele>
        <time>2022-05-14T09:40:45Z</time>
      </trkpt>
      <trkpt lat="47.33742" lon="-1.51813">
        <ele>77</ele>
        <time>2022-05-14T09:40:47Z</time>
      </trkpt>
      <trkpt lat="47.33741" lon="-1.51797">
        <ele>77</ele>
        <time>2022-05-14T09:40:49Z</time>
      </trkpt>
      <trkpt lat="47.3374" lon="-1.51782">
        <ele>77</ele>
        <time>2022-05-14T09:40:51Z</time>
      </trkpt>
      <trkpt lat="47.3374" lon="-1.51767">
        <ele>77</ele>
        <time>2022-05-14T09:40:53Z</time>
      </trkpt>
      <trkpt lat="47.33739" lon="-1.51751">
        <ele>77</ele>
        <time>2022-05-14T09:40:55Z</time>
      </trkpt>
      <trkpt lat="47.33738" lon="-1.51736">
        <ele>77</ele>
        <time>2022-05-14T09:40:57Z</time>
      </trkpt>
      <trkpt lat="47.33738" lon="-1.51721">
        <ele>77</ele>
        <time>2022-05-14T09:40:59Z</time>
      </trkpt>
      <trkpt lat="47.33737" lon="-1.51706">
        <ele>77</ele>
        <time>2022-05-14T09:41:01Z</time>
      </trkpt>
      <trkpt lat="47.33735" lon="-1.51691">
        <ele>77</ele>
        <time>2022-05-14T09:41:03Z</time>
      </trkpt>
      <trkpt lat="47.33733" lon="-1.51676">
        <ele>77</ele>
        <time>2022-05-14T09:41:05Z</time>
      </trkpt>
      <trkpt lat="47.3373" lon="-1.51661">
        <ele>76</ele>
        <time>2022-05-14T09:41:07Z</time>
      </trkpt>
      <trkpt lat="47.33726" lon="-1.51645">
        <ele>76</ele>
        <time>2022-05-14T09:41:09Z</time>
      </trkpt>
      <trkpt lat="47.33722" lon="-1.5163">
        <ele>76</ele>
        <time>2022-05-14T09:41:11Z</time>
      </trkpt>
      <trkpt lat="47.33718" lon="-1.51614">
        <ele>76</ele>
        <time>2022-05-14T09:41:13Z</time>
      </trkpt>
      <trkpt lat="47.33713" lon="-1.51598">
        <ele>76</ele>
        <time>2022-05-14T09:41:15Z</time>
      </trkpt>
      <trkpt lat="47.33709" lon="-1.51581">
        <ele>76</ele>
        <time>2022-05-14T09:41:17Z</time>
      </trkpt>
      <trkpt lat="47.33705" lon="-1.51562">
        <ele>76</ele>
        <time>2022-05-14T09:41:19Z</time>
      </trkpt>
      <trkpt lat="47.337" lon="-1.51543">
        <ele>75</ele>
        <time>2022-05-14T09:41:21Z</time>
      </trkpt>
      <trkpt lat="47.33697" lon="-1.51524">
        <ele>75</ele>
        <time>2022-05-14T09:41:23Z</time>
      </trkpt>
      <trkpt lat="47.33694" lon="-1.51505">
        <ele>74</ele>
        <time>2022-05-14T09:41:25Z</time>
      </trkpt>
      <trkpt lat="47.33692" lon="-1.51484">
        <ele>73</ele>
        <time>2022-05-14T09:41:27Z</time>
      </trkpt>
      <trkpt lat="47.33691" lon="-1.51464">
        <ele>72</ele>
        <time>2022-05-14T09:41:29Z</time>
      </trkpt>
      <trkpt lat="47.3369" lon="-1.51443">
        <ele>72</ele>
        <time>2022-05-14T09:41:31Z</time>
      </trkpt>
      <trkpt lat="47.33687" lon="-1.51423">
        <ele>71</ele>
        <time>2022-05-14T09:41:33Z</time>
      </trkpt>
      <trkpt lat="47.33682" lon="-1.51402">
        <ele>71</ele>
        <time>2022-05-14T09:41:35Z</time>
      </trkpt>
      <trkpt lat="47.33677" lon="-1.51382">
        <ele>70</ele>
        <time>2022-05-14T09:41:37Z</time>
      </trkpt>
      <trkpt lat="47.33673" lon="-1.51362">
        <ele>70</ele>
        <time>2022-05-14T09:41:39Z</time>
      </trkpt>
      <trkpt lat="47.33669" lon="-1.51342">
        <ele>69</ele>
        <time>2022-05-14T09:41:41Z</time>
      </trkpt>
      <trkpt lat="47.33665" lon="-1.51322">
        <ele>69</ele>
        <time>2022-05-14T09:41:43Z</time>
      </trkpt>
      <trkpt lat="47.33661" lon="-1.51301">
        <ele>68</ele>
        <time>2022-05-14T09:41:45Z</time>
      </trkpt>
      <trkpt lat="47.33658" lon="-1.51282">
        <ele>68</ele>
        <time>2022-05-14T09:41:47Z</time>
      </trkpt>
      <trkpt lat="47.33655" lon="-1.51264">
        <ele>68</ele>
        <time>2022-05-14T09:41:49Z</time>
      </trkpt>
      <trkpt lat="47.33653" lon="-1.51244">
        <ele>68</ele>
        <time>2022-05-14T09:41:51Z</time>
      </trkpt>
      <trkpt lat="47.33652" lon="-1.51226">
        <ele>68</ele>
        <time>2022-05-14T09:41:53Z</time>
      </trkpt>
      <trkpt lat="47.33651" lon="-1.51206">
        <ele>68</ele>
        <time>2022-05-14T09:41:55Z</time>
      </trkpt>
      <trkpt lat="47.3365" lon="-1.51187">
        <ele>67</ele>
        <time>2022-05-14T09:41:57Z</time>
      </trkpt>
      <trkpt lat="47.33649" lon="-1.51168">
        <ele>67</ele>
        <time>2022-05-14T09:41:59Z</time>
      </trkpt>
      <trkpt lat="47.33649" lon="-1.51148">
        <ele>67</ele>
        <time>2022-05-14T09:42:01Z</time>
      </trkpt>
      <trkpt lat="47.33648" lon="-1.51129">
        <ele>67</ele>
        <time>2022-05-14T09:42:03Z</time>
      </trkpt>
      <trkpt lat="47.33648" lon="-1.5111">
        <ele>67</ele>
        <time>2022-05-14T09:42:05Z</time>
      </trkpt>
      <trkpt lat="47.33649" lon="-1.5109">
        <ele>66</ele>
        <time>2022-05-14T09:42:07Z</time>
      </trkpt>
      <trkpt lat="47.33653" lon="-1.51072">
        <ele>66</ele>
        <time>2022-05-14T09:42:09Z</time>
      </trkpt>
      <trkpt lat="47.33659" lon="-1.51054">
        <ele>66</ele>
        <time>2022-05-14T09:42:11Z</time>
      </trkpt>
      <trkpt lat="47.33665" lon="-1.51036">
        <ele>66</ele>
        <time>2022-05-14T09:42:13Z</time>
      </trkpt>
      <trkpt lat="47.3367" lon="-1.51017">
        <ele>66</ele>
        <time>2022-05-14T09:42:15Z</time>
      </trkpt>
      <trkpt lat="47.33673" lon="-1.50997">
        <ele>66</ele>
        <time>2022-05-14T09:42:17Z</time>
      </trkpt>
      <trkpt lat="47.33678" lon="-1.50978">
        <ele>65</ele>
        <time>2022-05-14T09:42:19Z</time>
      </trkpt>
      <trkpt lat="47.33682" lon="-1.50957">
        <ele>65</ele>
        <time>2022-05-14T09:42:21Z</time>
      </trkpt>
      <trkpt lat="47.33685" lon="-1.50934">
        <ele>65</ele>
        <time>2022-05-14T09:42:23Z</time>
      </trkpt>
      <trkpt lat="47.33689" lon="-1.5091">
        <ele>64</ele>
        <time>2022-05-14T09:42:25Z</time>
      </trkpt>
      <trkpt lat="47.33694" lon="-1.50887">
        <ele>63</ele>
        <time>2022-05-14T09:42:27Z</time>
      </trkpt>
      <trkpt lat="47.33698" lon="-1.50865">
        <ele>62</ele>
        <time>2022-05-14T09:42:29Z</time>
      </trkpt>
      <trkpt lat="47.33703" lon="-1.50842">
        <ele>62</ele>
        <time>2022-05-14T09:42:31Z</time>
      </trkpt>
      <trkpt lat="47.33707" lon="-1.50818">
        <ele>62</ele>
        <time>2022-05-14T09:42:33Z</time>
      </trkpt>
      <trkpt lat="47.33711" lon="-1.50795">
        <ele>61</ele>
        <time>2022-05-14T09:42:35Z</time>
      </trkpt>
      <trkpt lat="47.33716" lon="-1.50773">
        <ele>61</ele>
        <time>2022-05-14T09:42:37Z</time>
      </trkpt>
      <trkpt lat="47.3372" lon="-1.5075">
        <ele>61</ele>
        <time>2022-05-14T09:42:39Z</time>
      </trkpt>
      <trkpt lat="47.33724" lon="-1.50729">
        <ele>61</ele>
        <time>2022-05-14T09:42:41Z</time>
      </trkpt>
      <trkpt lat="47.33729" lon="-1.50707">
        <ele>61</ele>
        <time>2022-05-14T09:42:43Z</time>
      </trkpt>
      <trkpt lat="47.33733" lon="-1.50685">
        <ele>61</ele>
        <time>2022-05-14T09:42:45Z</time>
      </trkpt>
      <trkpt lat="47.33737" lon="-1.50663">
        <ele>60</ele>
        <time>2022-05-14T09:42:47Z</time>
      </trkpt>
      <trkpt lat="47.33741" lon="-1.50642">
        <ele>61</ele>
        <time>2022-05-14T09:42:49Z</time>
      </trkpt>
      <trkpt lat="47.33745" lon="-1.50621">
        <ele>61</ele>
        <time>2022-05-14T09:42:51Z</time>
      </trkpt>
      <trkpt lat="47.33749" lon="-1.506">
        <ele>60</ele>
        <time>2022-05-14T09:42:53Z</time>
      </trkpt>
      <trkpt lat="47.33753" lon="-1.50579">
        <ele>60</ele>
        <time>2022-05-14T09:42:55Z</time>
      </trkpt>
      <trkpt lat="47.33757" lon="-1.50558">
        <ele>60</ele>
        <time>2022-05-14T09:42:57Z</time>
      </trkpt>
      <trkpt lat="47.33761" lon="-1.50537">
        <ele>60</ele>
        <time>2022-05-14T09:42:59Z</time>
      </trkpt>
      <trkpt lat="47.33765" lon="-1.50516">
        <ele>60</ele>
        <time>2022-05-14T09:43:01Z</time>
      </trkpt>
      <trkpt lat="47.33769" lon="-1.50496">
        <ele>60</ele>
        <time>2022-05-14T09:43:03Z</time>
      </trkpt>
      <trkpt lat="47.33773" lon="-1.50477">
        <ele>60</ele>
        <time>2022-05-14T09:43:05Z</time>
      </trkpt>
      <trkpt lat="47.33777" lon="-1.50456">
        <ele>61</ele>
        <time>2022-05-14T09:43:07Z</time>
      </trkpt>
      <trkpt lat="47.3378" lon="-1.50436">
        <ele>61</ele>
        <time>2022-05-14T09:43:09Z</time>
      </trkpt>
      <trkpt lat="47.33785" lon="-1.50416">
        <ele>61</ele>
        <time>2022-05-14T09:43:11Z</time>
      </trkpt>
      <trkpt lat="47.33788" lon="-1.50396">
        <ele>61</ele>
        <time>2022-05-14T09:43:13Z</time>
      </trkpt>
      <trkpt lat="47.33789" lon="-1.50375">
        <ele>60</ele>
        <time>2022-05-14T09:43:15Z</time>
      </trkpt>
      <trkpt lat="47.33787" lon="-1.50354">
        <ele>60</ele>
        <time>2022-05-14T09:43:17Z</time>
      </trkpt>
      <trkpt lat="47.33784" lon="-1.50333">
        <ele>60</ele>
        <time>2022-05-14T09:43:19Z</time>
      </trkpt>
      <trkpt lat="47.33781" lon="-1.50314">
        <ele>61</ele>
        <time>2022-05-14T09:43:21Z</time>
      </trkpt>
      <trkpt lat="47.33779" lon="-1.50294">
        <ele>61</ele>
        <time>2022-05-14T09:43:23Z</time>
      </trkpt>
      <trkpt lat="47.33776" lon="-1.50275">
        <ele>61</ele>
        <time>2022-05-14T09:43:25Z</time>
      </trkpt>
      <trkpt lat="47.33773" lon="-1.50257">
        <ele>62</ele>
        <time>2022-05-14T09:43:27Z</time>
      </trkpt>
      <trkpt lat="47.3377" lon="-1.50239">
        <ele>62</ele>
        <time>2022-05-14T09:43:29Z</time>
      </trkpt>
      <trkpt lat="47.33767" lon="-1.50221">
        <ele>62</ele>
        <time>2022-05-14T09:43:31Z</time>
      </trkpt>
      <trkpt lat="47.33764" lon="-1.50203">
        <ele>63</ele>
        <time>2022-05-14T09:43:33Z</time>
      </trkpt>
      <trkpt lat="47.33761" lon="-1.50184">
        <ele>63</ele>
        <time>2022-05-14T09:43:35Z</time>
      </trkpt>
      <trkpt lat="47.33759" lon="-1.50166">
        <ele>63</ele>
        <time>2022-05-14T09:43:37Z</time>
      </trkpt>
      <trkpt lat="47.33756" lon="-1.50148">
        <ele>64</ele>
        <time>2022-05-14T09:43:39Z</time>
      </trkpt>
      <trkpt lat="47.33754" lon="-1.5013">
        <ele>64</ele>
        <time>2022-05-14T09:43:41Z</time>
      </trkpt>
      <trkpt lat="47.33752" lon="-1.50104">
        <ele>65</ele>
        <time>2022-05-14T09:43:44Z</time>
      </trkpt>
      <trkpt lat="47.33751" lon="-1.50085">
        <ele>66</ele>
        <time>2022-05-14T09:43:46Z</time>
      </trkpt>
      <trkpt lat="47.33751" lon="-1.50065">
        <ele>66</ele>
        <time>2022-05-14T09:43:48Z</time>
      </trkpt>
      <trkpt lat="47.33749" lon="-1.50046">
        <ele>66</ele>
        <time>2022-05-14T09:43:50Z</time>
      </trkpt>
      <trkpt lat="47.33746" lon="-1.5003">
        <ele>66</ele>
        <time>2022-05-14T09:43:52Z</time>
      </trkpt>
      <trkpt lat="47.33742" lon="-1.50012">
        <ele>66</ele>
        <time>2022-05-14T09:43:54Z</time>
      </trkpt>
      <trkpt lat="47.33739" lon="-1.49996">
        <ele>66</ele>
        <time>2022-05-14T09:43:56Z</time>
      </trkpt>
      <trkpt lat="47.33735" lon="-1.49979">
        <ele>66</ele>
        <time>2022-05-14T09:43:58Z</time>
      </trkpt>
      <trkpt lat="47.3373" lon="-1.49963">
        <ele>66</ele>
        <time>2022-05-14T09:44:00Z</time>
      </trkpt>
      <trkpt lat="47.33724" lon="-1.49944">
        <ele>66</ele>
        <time>2022-05-14T09:44:02Z</time>
      </trkpt>
      <trkpt lat="47.33715" lon="-1.49928">
        <ele>65</ele>
        <time>2022-05-14T09:44:04Z</time>
      </trkpt>
      <trkpt lat="47.33704" lon="-1.49912">
        <ele>63</ele>
        <time>2022-05-14T09:44:06Z</time>
      </trkpt>
      <trkpt lat="47.3369" lon="-1.49898">
        <ele>62</ele>
        <time>2022-05-14T09:44:08Z</time>
      </trkpt>
      <trkpt lat="47.33678" lon="-1.49881">
        <ele>60</ele>
        <time>2022-05-14T09:44:10Z</time>
      </trkpt>
      <trkpt lat="47.33668" lon="-1.49861">
        <ele>60</ele>
        <time>2022-05-14T09:44:12Z</time>
      </trkpt>
      <trkpt lat="47.3366" lon="-1.49839">
        <ele>59</ele>
        <time>2022-05-14T09:44:14Z</time>
      </trkpt>
      <trkpt lat="47.33655" lon="-1.49816">
        <ele>58</ele>
        <time>2022-05-14T09:44:16Z</time>
      </trkpt>
      <trkpt lat="47.33653" lon="-1.49794">
        <ele>58</ele>
        <time>2022-05-14T09:44:18Z</time>
      </trkpt>
      <trkpt lat="47.33651" lon="-1.49772">
        <ele>58</ele>
        <time>2022-05-14T09:44:20Z</time>
      </trkpt>
      <trkpt lat="47.33649" lon="-1.4975">
        <ele>58</ele>
        <time>2022-05-14T09:44:22Z</time>
      </trkpt>
      <trkpt lat="47.33647" lon="-1.49729">
        <ele>58</ele>
        <time>2022-05-14T09:44:24Z</time>
      </trkpt>
      <trkpt lat="47.33644" lon="-1.49708">
        <ele>57</ele>
        <time>2022-05-14T09:44:26Z</time>
      </trkpt>
      <trkpt lat="47.33641" lon="-1.49688">
        <ele>58</ele>
        <time>2022-05-14T09:44:28Z</time>
      </trkpt>
      <trkpt lat="47.33639" lon="-1.49667">
        <ele>58</ele>
        <time>2022-05-14T09:44:30Z</time>
      </trkpt>
      <trkpt lat="47.33638" lon="-1.49648">
        <ele>59</ele>
        <time>2022-05-14T09:44:32Z</time>
      </trkpt>
      <trkpt lat="47.33638" lon="-1.49628">
        <ele>59</ele>
        <time>2022-05-14T09:44:34Z</time>
      </trkpt>
      <trkpt lat="47.33639" lon="-1.49608">
        <ele>59</ele>
        <time>2022-05-14T09:44:36Z</time>
      </trkpt>
      <trkpt lat="47.33639" lon="-1.49588">
        <ele>60</ele>
        <time>2022-05-14T09:44:38Z</time>
      </trkpt>
      <trkpt lat="47.33639" lon="-1.49569">
        <ele>60</ele>
        <time>2022-05-14T09:44:40Z</time>
      </trkpt>
      <trkpt lat="47.33638" lon="-1.49552">
        <ele>61</ele>
        <time>2022-05-14T09:44:42Z</time>
      </trkpt>
      <trkpt lat="47.33635" lon="-1.49533">
        <ele>62</ele>
        <time>2022-05-14T09:44:44Z</time>
      </trkpt>
      <trkpt lat="47.33631" lon="-1.49515">
        <ele>62</ele>
        <time>2022-05-14T09:44:46Z</time>
      </trkpt>
      <trkpt lat="47.33627" lon="-1.49498">
        <ele>63</ele>
        <time>2022-05-14T09:44:48Z</time>
      </trkpt>
      <trkpt lat="47.33623" lon="-1.49479">
        <ele>64</ele>
        <time>2022-05-14T09:44:50Z</time>
      </trkpt>
      <trkpt lat="47.33616" lon="-1.49461">
        <ele>62</ele>
        <time>2022-05-14T09:44:52Z</time>
      </trkpt>
      <trkpt lat="47.33606" lon="-1.49443">
        <ele>60</ele>
        <time>2022-05-14T09:44:54Z</time>
      </trkpt>
      <trkpt lat="47.33598" lon="-1.49426">
        <ele>60</ele>
        <time>2022-05-14T09:44:56Z</time>
      </trkpt>
      <trkpt lat="47.3359" lon="-1.4941">
        <ele>60</ele>
        <time>2022-05-14T09:44:58Z</time>
      </trkpt>
      <trkpt lat="47.33583" lon="-1.49394">
        <ele>59</ele>
        <time>2022-05-14T09:45:00Z</time>
      </trkpt>
      <trkpt lat="47.33576" lon="-1.49378">
        <ele>59</ele>
        <time>2022-05-14T09:45:02Z</time>
      </trkpt>
      <trkpt lat="47.3357" lon="-1.49362">
        <ele>59</ele>
        <time>2022-05-14T09:45:04Z</time>
      </trkpt>
      <trkpt lat="47.33564" lon="-1.49347">
        <ele>59</ele>
        <time>2022-05-14T09:45:06Z</time>
      </trkpt>
      <trkpt lat="47.33564" lon="-1.49329">
        <ele>60</ele>
        <time>2022-05-14T09:45:08Z</time>
      </trkpt>
      <trkpt lat="47.33572" lon="-1.49316">
        <ele>60</ele>
        <time>2022-05-14T09:45:10Z</time>
      </trkpt>
      <trkpt lat="47.33581" lon="-1.49304">
        <ele>61</ele>
        <time>2022-05-14T09:45:12Z</time>
      </trkpt>
      <trkpt lat="47.33591" lon="-1.49292">
        <ele>61</ele>
        <time>2022-05-14T09:45:14Z</time>
      </trkpt>
      <trkpt lat="47.33601" lon="-1.49279">
        <ele>62</ele>
        <time>2022-05-14T09:45:16Z</time>
      </trkpt>
      <trkpt lat="47.33611" lon="-1.49266">
        <ele>62</ele>
        <time>2022-05-14T09:45:18Z</time>
      </trkpt>
      <trkpt lat="47.3362" lon="-1.49253">
        <ele>62</ele>
        <time>2022-05-14T09:45:20Z</time>
      </trkpt>
      <trkpt lat="47.3363" lon="-1.49242">
        <ele>63</ele>
        <time>2022-05-14T09:45:22Z</time>
      </trkpt>
      <trkpt lat="47.33639" lon="-1.4923">
        <ele>63</ele>
        <time>2022-05-14T09:45:24Z</time>
      </trkpt>
      <trkpt lat="47.33648" lon="-1.49221">
        <ele>63</ele>
        <time>2022-05-14T09:45:26Z</time>
      </trkpt>
      <trkpt lat="47.33656" lon="-1.4921">
        <ele>63</ele>
        <time>2022-05-14T09:45:28Z</time>
      </trkpt>
      <trkpt lat="47.33665" lon="-1.49199">
        <ele>63</ele>
        <time>2022-05-14T09:45:30Z</time>
      </trkpt>
      <trkpt lat="47.33673" lon="-1.49188">
        <ele>63</ele>
        <time>2022-05-14T09:45:32Z</time>
      </trkpt>
      <trkpt lat="47.33682" lon="-1.49177">
        <ele>63</ele>
        <time>2022-05-14T09:45:34Z</time>
      </trkpt>
      <trkpt lat="47.33688" lon="-1.49164">
        <ele>63</ele>
        <time>2022-05-14T09:45:36Z</time>
      </trkpt>
      <trkpt lat="47.33693" lon="-1.49149">
        <ele>63</ele>
        <time>2022-05-14T09:45:38Z</time>
      </trkpt>
      <trkpt lat="47.33696" lon="-1.49132">
        <ele>62</ele>
        <time>2022-05-14T09:45:40Z</time>
      </trkpt>
      <trkpt lat="47.33698" lon="-1.49116">
        <ele>62</ele>
        <time>2022-05-14T09:45:42Z</time>
      </trkpt>
      <trkpt lat="47.337" lon="-1.491">
        <ele>62</ele>
        <time>2022-05-14T09:45:44Z</time>
      </trkpt>
      <trkpt lat="47.33705" lon="-1.49085">
        <ele>62</ele>
        <time>2022-05-14T09:45:46Z</time>
      </trkpt>
      <trkpt lat="47.33712" lon="-1.49072">
        <ele>63</ele>
        <time>2022-05-14T09:45:48Z</time>
      </trkpt>
      <trkpt lat="47.3372" lon="-1.49061">
        <ele>63</ele>
        <time>2022-05-14T09:45:50Z</time>
      </trkpt>
      <trkpt lat="47.33728" lon="-1.4905">
        <ele>64</ele>
        <time>2022-05-14T09:45:52Z</time>
      </trkpt>
      <trkpt lat="47.33737" lon="-1.4904">
        <ele>64</ele>
        <time>2022-05-14T09:45:54Z</time>
      </trkpt>
      <trkpt lat="47.33746" lon="-1.49031">
        <ele>65</ele>
        <time>2022-05-14T09:45:56Z</time>
      </trkpt>
      <trkpt lat="47.33754" lon="-1.49022">
        <ele>65</ele>
        <time>2022-05-14T09:45:58Z</time>
      </trkpt>
      <trkpt lat="47.33763" lon="-1.49012">
        <ele>65</ele>
        <time>2022-05-14T09:46:00Z</time>
      </trkpt>
      <trkpt lat="47.33771" lon="-1.49002">
        <ele>65</ele>
        <time>2022-05-14T09:46:02Z</time>
      </trkpt>
      <trkpt lat="47.3378" lon="-1.48992">
        <ele>65</ele>
        <time>2022-05-14T09:46:04Z</time>
      </trkpt>
      <trkpt lat="47.33789" lon="-1.48981">
        <ele>65</ele>
        <time>2022-05-14T09:46:06Z</time>
      </trkpt>
      <trkpt lat="47.33798" lon="-1.4897">
        <ele>65</ele>
        <time>2022-05-14T09:46:08Z</time>
      </trkpt>
      <trkpt lat="47.33806" lon="-1.48957">
        <ele>64</ele>
        <time>2022-05-14T09:46:10Z</time>
      </trkpt>
      <trkpt lat="47.33814" lon="-1.48944">
        <ele>64</ele>
        <time>2022-05-14T09:46:12Z</time>
      </trkpt>
      <trkpt lat="47.33823" lon="-1.48931">
        <ele>64</ele>
        <time>2022-05-14T09:46:14Z</time>
      </trkpt>
      <trkpt lat="47.33831" lon="-1.48917">
        <ele>64</ele>
        <time>2022-05-14T09:46:16Z</time>
      </trkpt>
      <trkpt lat="47.3384" lon="-1.48904">
        <ele>63</ele>
        <time>2022-05-14T09:46:18Z</time>
      </trkpt>
      <trkpt lat="47.33849" lon="-1.4889">
        <ele>63</ele>
        <time>2022-05-14T09:46:20Z</time>
      </trkpt>
      <trkpt lat="47.33858" lon="-1.48876">
        <ele>63</ele>
        <time>2022-05-14T09:46:22Z</time>
      </trkpt>
      <trkpt lat="47.33866" lon="-1.48862">
        <ele>62</ele>
        <time>2022-05-14T09:46:24Z</time>
      </trkpt>
      <trkpt lat="47.33875" lon="-1.48849">
        <ele>62</ele>
        <time>2022-05-14T09:46:26Z</time>
      </trkpt>
      <trkpt lat="47.33885" lon="-1.48834">
        <ele>62</ele>
        <time>2022-05-14T09:46:28Z</time>
      </trkpt>
      <trkpt lat="47.33894" lon="-1.4882">
        <ele>62</ele>
        <time>2022-05-14T09:46:30Z</time>
      </trkpt>
      <trkpt lat="47.33903" lon="-1.48805">
        <ele>61</ele>
        <time>2022-05-14T09:46:32Z</time>
      </trkpt>
      <trkpt lat="47.33913" lon="-1.4879">
        <ele>61</ele>
        <time>2022-05-14T09:46:34Z</time>
      </trkpt>
      <trkpt lat="47.33923" lon="-1.48774">
        <ele>60</ele>
        <time>2022-05-14T09:46:36Z</time>
      </trkpt>
      <trkpt lat="47.33933" lon="-1.48758">
        <ele>59</ele>
        <time>2022-05-14T09:46:38Z</time>
      </trkpt>
      <trkpt lat="47.33942" lon="-1.48743">
        <ele>59</ele>
        <time>2022-05-14T09:46:40Z</time>
      </trkpt>
      <trkpt lat="47.33952" lon="-1.48727">
        <ele>58</ele>
        <time>2022-05-14T09:46:42Z</time>
      </trkpt>
      <trkpt lat="47.33962" lon="-1.48711">
        <ele>58</ele>
        <time>2022-05-14T09:46:44Z</time>
      </trkpt>
      <trkpt lat="47.33972" lon="-1.48695">
        <ele>58</ele>
        <time>2022-05-14T09:46:46Z</time>
      </trkpt>
      <trkpt lat="47.33982" lon="-1.4868">
        <ele>58</ele>
        <time>2022-05-14T09:46:48Z</time>
      </trkpt>
      <trkpt lat="47.33992" lon="-1.48664">
        <ele>58</ele>
        <time>2022-05-14T09:46:50Z</time>
      </trkpt>
      <trkpt lat="47.34001" lon="-1.48647">
        <ele>57</ele>
        <time>2022-05-14T09:46:52Z</time>
      </trkpt>
      <trkpt lat="47.3401" lon="-1.48631">
        <ele>57</ele>
        <time>2022-05-14T09:46:54Z</time>
      </trkpt>
      <trkpt lat="47.34019" lon="-1.48615">
        <ele>57</ele>
        <time>2022-05-14T09:46:56Z</time>
      </trkpt>
      <trkpt lat="47.34028" lon="-1.486">
        <ele>57</ele>
        <time>2022-05-14T09:46:58Z</time>
      </trkpt>
      <trkpt lat="47.34036" lon="-1.48585">
        <ele>58</ele>
        <time>2022-05-14T09:47:00Z</time>
      </trkpt>
      <trkpt lat="47.34044" lon="-1.4857">
        <ele>58</ele>
        <time>2022-05-14T09:47:02Z</time>
      </trkpt>
      <trkpt lat="47.34051" lon="-1.48554">
        <ele>59</ele>
        <time>2022-05-14T09:47:04Z</time>
      </trkpt>
      <trkpt lat="47.34058" lon="-1.48539">
        <ele>59</ele>
        <time>2022-05-14T09:47:06Z</time>
      </trkpt>
      <trkpt lat="47.34066" lon="-1.48524">
        <ele>59</ele>
        <time>2022-05-14T09:47:08Z</time>
      </trkpt>
      <trkpt lat="47.34074" lon="-1.48507">
        <ele>59</ele>
        <time>2022-05-14T09:47:10Z</time>
      </trkpt>
      <trkpt lat="47.34081" lon="-1.48491">
        <ele>58</ele>
        <time>2022-05-14T09:47:12Z</time>
      </trkpt>
      <trkpt lat="47.34089" lon="-1.48475">
        <ele>58</ele>
        <time>2022-05-14T09:47:14Z</time>
      </trkpt>
      <trkpt lat="47.34097" lon="-1.48459">
        <ele>58</ele>
        <time>2022-05-14T09:47:16Z</time>
      </trkpt>
      <trkpt lat="47.34105" lon="-1.48443">
        <ele>58</ele>
        <time>2022-05-14T09:47:18Z</time>
      </trkpt>
      <trkpt lat="47.34112" lon="-1.48426">
        <ele>57</ele>
        <time>2022-05-14T09:47:20Z</time>
      </trkpt>
      <trkpt lat="47.34119" lon="-1.4841">
        <ele>57</ele>
        <time>2022-05-14T09:47:22Z</time>
      </trkpt>
      <trkpt lat="47.34127" lon="-1.48395">
        <ele>58</ele>
        <time>2022-05-14T09:47:24Z</time>
      </trkpt>
      <trkpt lat="47.34134" lon="-1.4838">
        <ele>58</ele>
        <time>2022-05-14T09:47:26Z</time>
      </trkpt>
      <trkpt lat="47.34141" lon="-1.48366">
        <ele>58</ele>
        <time>2022-05-14T09:47:28Z</time>
      </trkpt>
      <trkpt lat="47.34148" lon="-1.4835">
        <ele>59</ele>
        <time>2022-05-14T09:47:30Z</time>
      </trkpt>
      <trkpt lat="47.34156" lon="-1.48334">
        <ele>59</ele>
        <time>2022-05-14T09:47:32Z</time>
      </trkpt>
      <trkpt lat="47.34163" lon="-1.48318">
        <ele>59</ele>
        <time>2022-05-14T09:47:34Z</time>
      </trkpt>
      <trkpt lat="47.3417" lon="-1.48303">
        <ele>59</ele>
        <time>2022-05-14T09:47:36Z</time>
      </trkpt>
      <trkpt lat="47.34177" lon="-1.48289">
        <ele>60</ele>
        <time>2022-05-14T09:47:38Z</time>
      </trkpt>
      <trkpt lat="47.34184" lon="-1.48274">
        <ele>59</ele>
        <time>2022-05-14T09:47:40Z</time>
      </trkpt>
      <trkpt lat="47.34192" lon="-1.48259">
        <ele>59</ele>
        <time>2022-05-14T09:47:42Z</time>
      </trkpt>
      <trkpt lat="47.342" lon="-1.48246">
        <ele>59</ele>
        <time>2022-05-14T09:47:44Z</time>
      </trkpt>
      <trkpt lat="47.34208" lon="-1.48232">
        <ele>59</ele>
        <time>2022-05-14T09:47:46Z</time>
      </trkpt>
      <trkpt lat="47.34216" lon="-1.48219">
        <ele>59</ele>
        <time>2022-05-14T09:47:48Z</time>
      </trkpt>
      <trkpt lat="47.34225" lon="-1.48205">
        <ele>59</ele>
        <time>2022-05-14T09:47:50Z</time>
      </trkpt>
      <trkpt lat="47.34233" lon="-1.48192">
        <ele>59</ele>
        <time>2022-05-14T09:47:52Z</time>
      </trkpt>
      <trkpt lat="47.34241" lon="-1.48179">
        <ele>58</ele>
        <time>2022-05-14T09:47:54Z</time>
      </trkpt>
      <trkpt lat="47.3425" lon="-1.48165">
        <ele>57</ele>
        <time>2022-05-14T09:47:56Z</time>
      </trkpt>
      <trkpt lat="47.34259" lon="-1.48152">
        <ele>57</ele>
        <time>2022-05-14T09:47:58Z</time>
      </trkpt>
      <trkpt lat="47.34267" lon="-1.48139">
        <ele>57</ele>
        <time>2022-05-14T09:48:00Z</time>
      </trkpt>
      <trkpt lat="47.34275" lon="-1.48126">
        <ele>57</ele>
        <time>2022-05-14T09:48:02Z</time>
      </trkpt>
      <trkpt lat="47.34283" lon="-1.48113">
        <ele>57</ele>
        <time>2022-05-14T09:48:04Z</time>
      </trkpt>
      <trkpt lat="47.34291" lon="-1.48101">
        <ele>57</ele>
        <time>2022-05-14T09:48:06Z</time>
      </trkpt>
      <trkpt lat="47.34299" lon="-1.48087">
        <ele>58</ele>
        <time>2022-05-14T09:48:08Z</time>
      </trkpt>
      <trkpt lat="47.34307" lon="-1.48073">
        <ele>58</ele>
        <time>2022-05-14T09:48:10Z</time>
      </trkpt>
      <trkpt lat="47.34315" lon="-1.4806">
        <ele>58</ele>
        <time>2022-05-14T09:48:12Z</time>
      </trkpt>
      <trkpt lat="47.34322" lon="-1.48047">
        <ele>58</ele>
        <time>2022-05-14T09:48:14Z</time>
      </trkpt>
      <trkpt lat="47.34331" lon="-1.48034">
        <ele>58</ele>
        <time>2022-05-14T09:48:16Z</time>
      </trkpt>
      <trkpt lat="47.34339" lon="-1.48021">
        <ele>58</ele>
        <time>2022-05-14T09:48:18Z</time>
      </trkpt>
      <trkpt lat="47.34347" lon="-1.48009">
        <ele>59</ele>
        <time>2022-05-14T09:48:20Z</time>
      </trkpt>
      <trkpt lat="47.34356" lon="-1.47995">
        <ele>59</ele>
        <time>2022-05-14T09:48:22Z</time>
      </trkpt>
      <trkpt lat="47.34365" lon="-1.47981">
        <ele>58</ele>
        <time>2022-05-14T09:48:24Z</time>
      </trkpt>
      <trkpt lat="47.34373" lon="-1.47968">
        <ele>58</ele>
        <time>2022-05-14T09:48:26Z</time>
      </trkpt>
      <trkpt lat="47.34382" lon="-1.47955">
        <ele>58</ele>
        <time>2022-05-14T09:48:28Z</time>
      </trkpt>
      <trkpt lat="47.34391" lon="-1.47941">
        <ele>58</ele>
        <time>2022-05-14T09:48:30Z</time>
      </trkpt>
      <trkpt lat="47.344" lon="-1.47928">
        <ele>58</ele>
        <time>2022-05-14T09:48:32Z</time>
      </trkpt>
      <trkpt lat="47.3441" lon="-1.47915">
        <ele>58</ele>
        <time>2022-05-14T09:48:34Z</time>
      </trkpt>
      <trkpt lat="47.34419" lon="-1.47903">
        <ele>58</ele>
        <time>2022-05-14T09:48:36Z</time>
      </trkpt>
      <trkpt lat="47.34429" lon="-1.47891">
        <ele>58</ele>
        <time>2022-05-14T09:48:38Z</time>
      </trkpt>
      <trkpt lat="47.34439" lon="-1.47879">
        <ele>58</ele>
        <time>2022-05-14T09:48:40Z</time>
      </trkpt>
      <trkpt lat="47.3445" lon="-1.47868">
        <ele>58</ele>
        <time>2022-05-14T09:48:42Z</time>
      </trkpt>
      <trkpt lat="47.34461" lon="-1.47857">
        <ele>58</ele>
        <time>2022-05-14T09:48:44Z</time>
      </trkpt>
      <trkpt lat="47.34471" lon="-1.47844">
        <ele>58</ele>
        <time>2022-05-14T09:48:46Z</time>
      </trkpt>
      <trkpt lat="47.34481" lon="-1.47831">
        <ele>57</ele>
        <time>2022-05-14T09:48:48Z</time>
      </trkpt>
      <trkpt lat="47.34491" lon="-1.4782">
        <ele>57</ele>
        <time>2022-05-14T09:48:50Z</time>
      </trkpt>
      <trkpt lat="47.34501" lon="-1.47808">
        <ele>57</ele>
        <time>2022-05-14T09:48:52Z</time>
      </trkpt>
      <trkpt lat="47.34511" lon="-1.47797">
        <ele>57</ele>
        <time>2022-05-14T09:48:54Z</time>
      </trkpt>
      <trkpt lat="47.3452" lon="-1.47785">
        <ele>57</ele>
        <time>2022-05-14T09:48:56Z</time>
      </trkpt>
      <trkpt lat="47.3453" lon="-1.47774">
        <ele>56</ele>
        <time>2022-05-14T09:48:58Z</time>
      </trkpt>
      <trkpt lat="47.3454" lon="-1.47763">
        <ele>57</ele>
        <time>2022-05-14T09:49:00Z</time>
      </trkpt>
      <trkpt lat="47.3455" lon="-1.47752">
        <ele>56</ele>
        <time>2022-05-14T09:49:02Z</time>
      </trkpt>
      <trkpt lat="47.3456" lon="-1.47741">
        <ele>57</ele>
        <time>2022-05-14T09:49:04Z</time>
      </trkpt>
      <trkpt lat="47.3457" lon="-1.4773">
        <ele>56</ele>
        <time>2022-05-14T09:49:06Z</time>
      </trkpt>
      <trkpt lat="47.34579" lon="-1.47719">
        <ele>56</ele>
        <time>2022-05-14T09:49:08Z</time>
      </trkpt>
      <trkpt lat="47.34589" lon="-1.47708">
        <ele>56</ele>
        <time>2022-05-14T09:49:10Z</time>
      </trkpt>
      <trkpt lat="47.34598" lon="-1.47697">
        <ele>56</ele>
        <time>2022-05-14T09:49:12Z</time>
      </trkpt>
      <trkpt lat="47.34608" lon="-1.47687">
        <ele>57</ele>
        <time>2022-05-14T09:49:14Z</time>
      </trkpt>
      <trkpt lat="47.34617" lon="-1.47677">
        <ele>57</ele>
        <time>2022-05-14T09:49:16Z</time>
      </trkpt>
      <trkpt lat="47.34626" lon="-1.47666">
        <ele>57</ele>
        <time>2022-05-14T09:49:18Z</time>
      </trkpt>
      <trkpt lat="47.34635" lon="-1.47657">
        <ele>56</ele>
        <time>2022-05-14T09:49:20Z</time>
      </trkpt>
      <trkpt lat="47.34644" lon="-1.47647">
        <ele>56</ele>
        <time>2022-05-14T09:49:22Z</time>
      </trkpt>
      <trkpt lat="47.34653" lon="-1.47636">
        <ele>56</ele>
        <time>2022-05-14T09:49:24Z</time>
      </trkpt>
      <trkpt lat="47.34663" lon="-1.47626">
        <ele>57</ele>
        <time>2022-05-14T09:49:26Z</time>
      </trkpt>
      <trkpt lat="47.34672" lon="-1.47616">
        <ele>57</ele>
        <time>2022-05-14T09:49:28Z</time>
      </trkpt>
      <trkpt lat="47.34681" lon="-1.47606">
        <ele>57</ele>
        <time>2022-05-14T09:49:30Z</time>
      </trkpt>
      <trkpt lat="47.3469" lon="-1.47595">
        <ele>57</ele>
        <time>2022-05-14T09:49:32Z</time>
      </trkpt>
      <trkpt lat="47.34699" lon="-1.47586">
        <ele>57</ele>
        <time>2022-05-14T09:49:34Z</time>
      </trkpt>
      <trkpt lat="47.34708" lon="-1.47575">
        <ele>57</ele>
        <time>2022-05-14T09:49:36Z</time>
      </trkpt>
      <trkpt lat="47.34717" lon="-1.47565">
        <ele>57</ele>
        <time>2022-05-14T09:49:38Z</time>
      </trkpt>
      <trkpt lat="47.34726" lon="-1.47554">
        <ele>57</ele>
        <time>2022-05-14T09:49:40Z</time>
      </trkpt>
      <trkpt lat="47.34736" lon="-1.47543">
        <ele>57</ele>
        <time>2022-05-14T09:49:42Z</time>
      </trkpt>
      <trkpt lat="47.34745" lon="-1.47532">
        <ele>57</ele>
        <time>2022-05-14T09:49:44Z</time>
      </trkpt>
      <trkpt lat="47.34754" lon="-1.4752">
        <ele>57</ele>
        <time>2022-05-14T09:49:46Z</time>
      </trkpt>
      <trkpt lat="47.34763" lon="-1.47508">
        <ele>57</ele>
        <time>2022-05-14T09:49:48Z</time>
      </trkpt>
      <trkpt lat="47.34771" lon="-1.47495">
        <ele>56</ele>
        <time>2022-05-14T09:49:50Z</time>
      </trkpt>
      <trkpt lat="47.34778" lon="-1.47481">
        <ele>56</ele>
        <time>2022-05-14T09:49:52Z</time>
      </trkpt>
      <trkpt lat="47.34785" lon="-1.47466">
        <ele>56</ele>
        <time>2022-05-14T09:49:54Z</time>
      </trkpt>
      <trkpt lat="47.34792" lon="-1.4745">
        <ele>56</ele>
        <time>2022-05-14T09:49:56Z</time>
      </trkpt>
      <trkpt lat="47.34798" lon="-1.47434">
        <ele>57</ele>
        <time>2022-05-14T09:49:58Z</time>
      </trkpt>
      <trkpt lat="47.34803" lon="-1.47418">
        <ele>57</ele>
        <time>2022-05-14T09:50:00Z</time>
      </trkpt>
      <trkpt lat="47.3481" lon="-1.47403">
        <ele>57</ele>
        <time>2022-05-14T09:50:02Z</time>
      </trkpt>
      <trkpt lat="47.34816" lon="-1.47388">
        <ele>57</ele>
        <time>2022-05-14T09:50:04Z</time>
      </trkpt>
      <trkpt lat="47.34823" lon="-1.47374">
        <ele>57</ele>
        <time>2022-05-14T09:50:06Z</time>
      </trkpt>
      <trkpt lat="47.34831" lon="-1.47361">
        <ele>57</ele>
        <time>2022-05-14T09:50:08Z</time>
      </trkpt>
      <trkpt lat="47.3484" lon="-1.47348">
        <ele>58</ele>
        <time>2022-05-14T09:50:10Z</time>
      </trkpt>
      <trkpt lat="47.34849" lon="-1.47336">
        <ele>58</ele>
        <time>2022-05-14T09:50:12Z</time>
      </trkpt>
      <trkpt lat="47.34859" lon="-1.47326">
        <ele>59</ele>
        <time>2022-05-14T09:50:14Z</time>
      </trkpt>
      <trkpt lat="47.3487" lon="-1.47318">
        <ele>58</ele>
        <time>2022-05-14T09:50:16Z</time>
      </trkpt>
      <trkpt lat="47.3488" lon="-1.47309">
        <ele>58</ele>
        <time>2022-05-14T09:50:18Z</time>
      </trkpt>
      <trkpt lat="47.34891" lon="-1.47301">
        <ele>58</ele>
        <time>2022-05-14T09:50:20Z</time>
      </trkpt>
      <trkpt lat="47.349" lon="-1.47294">
        <ele>58</ele>
        <time>2022-05-14T09:50:22Z</time>
      </trkpt>
      <trkpt lat="47.34911" lon="-1.47286">
        <ele>58</ele>
        <time>2022-05-14T09:50:24Z</time>
      </trkpt>
      <trkpt lat="47.34921" lon="-1.47278">
        <ele>58</ele>
        <time>2022-05-14T09:50:26Z</time>
      </trkpt>
      <trkpt lat="47.34931" lon="-1.47272">
        <ele>59</ele>
        <time>2022-05-14T09:50:28Z</time>
      </trkpt>
      <trkpt lat="47.34941" lon="-1.47265">
        <ele>59</ele>
        <time>2022-05-14T09:50:30Z</time>
      </trkpt>
      <trkpt lat="47.34952" lon="-1.47259">
        <ele>59</ele>
        <time>2022-05-14T09:50:32Z</time>
      </trkpt>
      <trkpt lat="47.34964" lon="-1.47254">
        <ele>60</ele>
        <time>2022-05-14T09:50:34Z</time>
      </trkpt>
      <trkpt lat="47.34975" lon="-1.47249">
        <ele>61</ele>
        <time>2022-05-14T09:50:36Z</time>
      </trkpt>
      <trkpt lat="47.34986" lon="-1.47243">
        <ele>61</ele>
        <time>2022-05-14T09:50:38Z</time>
      </trkpt>
      <trkpt lat="47.34995" lon="-1.47234">
        <ele>61</ele>
        <time>2022-05-14T09:50:40Z</time>
      </trkpt>
      <trkpt lat="47.35004" lon="-1.47225">
        <ele>61</ele>
        <time>2022-05-14T09:50:42Z</time>
      </trkpt>
      <trkpt lat="47.35013" lon="-1.47218">
        <ele>61</ele>
        <time>2022-05-14T09:50:44Z</time>
      </trkpt>
      <trkpt lat="47.35022" lon="-1.47212">
        <ele>62</ele>
        <time>2022-05-14T09:50:46Z</time>
      </trkpt>
      <trkpt lat="47.35032" lon="-1.47212">
        <ele>62</ele>
        <time>2022-05-14T09:50:48Z</time>
      </trkpt>
      <trkpt lat="47.35043" lon="-1.47216">
        <ele>62</ele>
        <time>2022-05-14T09:50:50Z</time>
      </trkpt>
      <trkpt lat="47.35054" lon="-1.47221">
        <ele>63</ele>
        <time>2022-05-14T09:50:52Z</time>
      </trkpt>
      <trkpt lat="47.35065" lon="-1.47225">
        <ele>62</ele>
        <time>2022-05-14T09:50:54Z</time>
      </trkpt>
      <trkpt lat="47.35077" lon="-1.47229">
        <ele>62</ele>
        <time>2022-05-14T09:50:56Z</time>
      </trkpt>
      <trkpt lat="47.35089" lon="-1.47231">
        <ele>62</ele>
        <time>2022-05-14T09:50:58Z</time>
      </trkpt>
      <trkpt lat="47.35101" lon="-1.47234">
        <ele>62</ele>
        <time>2022-05-14T09:51:00Z</time>
      </trkpt>
      <trkpt lat="47.35113" lon="-1.47238">
        <ele>61</ele>
        <time>2022-05-14T09:51:02Z</time>
      </trkpt>
      <trkpt lat="47.35125" lon="-1.4724">
        <ele>61</ele>
        <time>2022-05-14T09:51:04Z</time>
      </trkpt>
      <trkpt lat="47.35137" lon="-1.47242">
        <ele>61</ele>
        <time>2022-05-14T09:51:06Z</time>
      </trkpt>
      <trkpt lat="47.35149" lon="-1.47243">
        <ele>61</ele>
        <time>2022-05-14T09:51:08Z</time>
      </trkpt>
      <trkpt lat="47.35161" lon="-1.47242">
        <ele>62</ele>
        <time>2022-05-14T09:51:10Z</time>
      </trkpt>
      <trkpt lat="47.35172" lon="-1.47239">
        <ele>62</ele>
        <time>2022-05-14T09:51:12Z</time>
      </trkpt>
      <trkpt lat="47.35184" lon="-1.47235">
        <ele>62</ele>
        <time>2022-05-14T09:51:14Z</time>
      </trkpt>
      <trkpt lat="47.35195" lon="-1.47232">
        <ele>62</ele>
        <time>2022-05-14T09:51:16Z</time>
      </trkpt>
      <trkpt lat="47.35207" lon="-1.47234">
        <ele>62</ele>
        <time>2022-05-14T09:51:18Z</time>
      </trkpt>
      <trkpt lat="47.35218" lon="-1.47245">
        <ele>62</ele>
        <time>2022-05-14T09:51:20Z</time>
      </trkpt>
      <trkpt lat="47.35225" lon="-1.47258">
        <ele>62</ele>
        <time>2022-05-14T09:51:22Z</time>
      </trkpt>
      <trkpt lat="47.35233" lon="-1.47272">
        <ele>61</ele>
        <time>2022-05-14T09:51:24Z</time>
      </trkpt>
      <trkpt lat="47.3524" lon="-1.47285">
        <ele>61</ele>
        <time>2022-05-14T09:51:26Z</time>
      </trkpt>
      <trkpt lat="47.35248" lon="-1.47298">
        <ele>61</ele>
        <time>2022-05-14T09:51:28Z</time>
      </trkpt>
      <trkpt lat="47.35257" lon="-1.47305">
        <ele>62</ele>
        <time>2022-05-14T09:51:30Z</time>
      </trkpt>
      <trkpt lat="47.35267" lon="-1.47295">
        <ele>63</ele>
        <time>2022-05-14T09:51:32Z</time>
      </trkpt>
      <trkpt lat="47.35277" lon="-1.47287">
        <ele>63</ele>
        <time>2022-05-14T09:51:34Z</time>
      </trkpt>
      <trkpt lat="47.35288" lon="-1.47283">
        <ele>63</ele>
        <time>2022-05-14T09:51:36Z</time>
      </trkpt>
      <trkpt lat="47.353" lon="-1.4728">
        <ele>62</ele>
        <time>2022-05-14T09:51:38Z</time>
      </trkpt>
      <trkpt lat="47.35311" lon="-1.47279">
        <ele>63</ele>
        <time>2022-05-14T09:51:40Z</time>
      </trkpt>
      <trkpt lat="47.35322" lon="-1.47278">
        <ele>62</ele>
        <time>2022-05-14T09:51:42Z</time>
      </trkpt>
      <trkpt lat="47.35332" lon="-1.47277">
        <ele>63</ele>
        <time>2022-05-14T09:51:44Z</time>
      </trkpt>
      <trkpt lat="47.35341" lon="-1.47277">
        <ele>63</ele>
        <time>2022-05-14T09:51:46Z</time>
      </trkpt>
      <trkpt lat="47.35354" lon="-1.47276">
        <ele>64</ele>
        <time>2022-05-14T09:51:49Z</time>
      </trkpt>
      <trkpt lat="47.35366" lon="-1.47273">
        <ele>65</ele>
        <time>2022-05-14T09:51:52Z</time>
      </trkpt>
      <trkpt lat="47.35377" lon="-1.47266">
        <ele>67</ele>
        <time>2022-05-14T09:51:55Z</time>
      </trkpt>
      <trkpt lat="47.35388" lon="-1.47256">
        <ele>68</ele>
        <time>2022-05-14T09:51:58Z</time>
      </trkpt>
      <trkpt lat="47.35399" lon="-1.47247">
        <ele>69</ele>
        <time>2022-05-14T09:52:01Z</time>
      </trkpt>
      <trkpt lat="47.35411" lon="-1.47236">
        <ele>69</ele>
        <time>2022-05-14T09:52:04Z</time>
      </trkpt>
      <trkpt lat="47.35419" lon="-1.4723">
        <ele>70</ele>
        <time>2022-05-14T09:52:06Z</time>
      </trkpt>
      <trkpt lat="47.3543" lon="-1.4722">
        <ele>70</ele>
        <time>2022-05-14T09:52:09Z</time>
      </trkpt>
      <trkpt lat="47.35441" lon="-1.47209">
        <ele>71</ele>
        <time>2022-05-14T09:52:12Z</time>
      </trkpt>
      <trkpt lat="47.35449" lon="-1.47203">
        <ele>71</ele>
        <time>2022-05-14T09:52:14Z</time>
      </trkpt>
      <trkpt lat="47.35461" lon="-1.47193">
        <ele>71</ele>
        <time>2022-05-14T09:52:17Z</time>
      </trkpt>
      <trkpt lat="47.35471" lon="-1.47184">
        <ele>72</ele>
        <time>2022-05-14T09:52:20Z</time>
      </trkpt>
      <trkpt lat="47.35483" lon="-1.47175">
        <ele>72</ele>
        <time>2022-05-14T09:52:23Z</time>
      </trkpt>
      <trkpt lat="47.35494" lon="-1.47165">
        <ele>73</ele>
        <time>2022-05-14T09:52:26Z</time>
      </trkpt>
      <trkpt lat="47.35506" lon="-1.47155">
        <ele>73</ele>
        <time>2022-05-14T09:52:29Z</time>
      </trkpt>
      <trkpt lat="47.35514" lon="-1.47147">
        <ele>73</ele>
        <time>2022-05-14T09:52:31Z</time>
      </trkpt>
      <trkpt lat="47.35522" lon="-1.4714">
        <ele>73</ele>
        <time>2022-05-14T09:52:33Z</time>
      </trkpt>
      <trkpt lat="47.3553" lon="-1.47133">
        <ele>73</ele>
        <time>2022-05-14T09:52:35Z</time>
      </trkpt>
      <trkpt lat="47.35539" lon="-1.47126">
        <ele>74</ele>
        <time>2022-05-14T09:52:37Z</time>
      </trkpt>
      <trkpt lat="47.35549" lon="-1.47118">
        <ele>74</ele>
        <time>2022-05-14T09:52:39Z</time>
      </trkpt>
      <trkpt lat="47.35558" lon="-1.47111">
        <ele>74</ele>
        <time>2022-05-14T09:52:41Z</time>
      </trkpt>
      <trkpt lat="47.35566" lon="-1.47103">
        <ele>74</ele>
        <time>2022-05-14T09:52:43Z</time>
      </trkpt>
      <trkpt lat="47.35574" lon="-1.47095">
        <ele>74</ele>
        <time>2022-05-14T09:52:45Z</time>
      </trkpt>
      <trkpt lat="47.35583" lon="-1.47087">
        <ele>73</ele>
        <time>2022-05-14T09:52:47Z</time>
      </trkpt>
      <trkpt lat="47.35592" lon="-1.4708">
        <ele>73</ele>
        <time>2022-05-14T09:52:49Z</time>
      </trkpt>
      <trkpt lat="47.35601" lon="-1.47072">
        <ele>72</ele>
        <time>2022-05-14T09:52:51Z</time>
      </trkpt>
      <trkpt lat="47.35611" lon="-1.47064">
        <ele>71</ele>
        <time>2022-05-14T09:52:53Z</time>
      </trkpt>
      <trkpt lat="47.35623" lon="-1.47054">
        <ele>70</ele>
        <time>2022-05-14T09:52:55Z</time>
      </trkpt>
      <trkpt lat="47.35636" lon="-1.47043">
        <ele>69</ele>
        <time>2022-05-14T09:52:57Z</time>
      </trkpt>
      <trkpt lat="47.3565" lon="-1.4703">
        <ele>68</ele>
        <time>2022-05-14T09:52:59Z</time>
      </trkpt>
      <trkpt lat="47.35658" lon="-1.47023">
        <ele>67</ele>
        <time>2022-05-14T09:53:00Z</time>
      </trkpt>
      <trkpt lat="47.35666" lon="-1.47016">
        <ele>66</ele>
        <time>2022-05-14T09:53:01Z</time>
      </trkpt>
      <trkpt lat="47.35674" lon="-1.47009">
        <ele>65</ele>
        <time>2022-05-14T09:53:02Z</time>
      </trkpt>
      <trkpt lat="47.35683" lon="-1.47002">
        <ele>64</ele>
        <time>2022-05-14T09:53:03Z</time>
      </trkpt>
      <trkpt lat="47.35693" lon="-1.46993">
        <ele>63</ele>
        <time>2022-05-14T09:53:04Z</time>
      </trkpt>
      <trkpt lat="47.35703" lon="-1.46985">
        <ele>61</ele>
        <time>2022-05-14T09:53:05Z</time>
      </trkpt>
      <trkpt lat="47.35712" lon="-1.46977">
        <ele>61</ele>
        <time>2022-05-14T09:53:06Z</time>
      </trkpt>
      <trkpt lat="47.3572" lon="-1.46969">
        <ele>60</ele>
        <time>2022-05-14T09:53:07Z</time>
      </trkpt>
      <trkpt lat="47.35734" lon="-1.46957">
        <ele>60</ele>
        <time>2022-05-14T09:53:09Z</time>
      </trkpt>
      <trkpt lat="47.35742" lon="-1.46945">
        <ele>61</ele>
        <time>2022-05-14T09:53:11Z</time>
      </trkpt>
      <trkpt lat="47.35744" lon="-1.46929">
        <ele>62</ele>
        <time>2022-05-14T09:53:13Z</time>
      </trkpt>
      <trkpt lat="47.35741" lon="-1.46908">
        <ele>62</ele>
        <time>2022-05-14T09:53:15Z</time>
      </trkpt>
      <trkpt lat="47.35739" lon="-1.46884">
        <ele>61</ele>
        <time>2022-05-14T09:53:17Z</time>
      </trkpt>
      <trkpt lat="47.35737" lon="-1.46863">
        <ele>60</ele>
        <time>2022-05-14T09:53:19Z</time>
      </trkpt>
      <trkpt lat="47.35734" lon="-1.46843">
        <ele>60</ele>
        <time>2022-05-14T09:53:21Z</time>
      </trkpt>
      <trkpt lat="47.35732" lon="-1.46823">
        <ele>59</ele>
        <time>2022-05-14T09:53:23Z</time>
      </trkpt>
      <trkpt lat="47.35732" lon="-1.46803">
        <ele>58</ele>
        <time>2022-05-14T09:53:25Z</time>
      </trkpt>
      <trkpt lat="47.35735" lon="-1.46782">
        <ele>58</ele>
        <time>2022-05-14T09:53:27Z</time>
      </trkpt>
      <trkpt lat="47.35737" lon="-1.46764">
        <ele>58</ele>
        <time>2022-05-14T09:53:29Z</time>
      </trkpt>
      <trkpt lat="47.3574" lon="-1.46746">
        <ele>58</ele>
        <time>2022-05-14T09:53:31Z</time>
      </trkpt>
      <trkpt lat="47.35743" lon="-1.46727">
        <ele>58</ele>
        <time>2022-05-14T09:53:33Z</time>
      </trkpt>
      <trkpt lat="47.35746" lon="-1.4671">
        <ele>59</ele>
        <time>2022-05-14T09:53:35Z</time>
      </trkpt>
      <trkpt lat="47.35748" lon="-1.46692">
        <ele>59</ele>
        <time>2022-05-14T09:53:37Z</time>
      </trkpt>
      <trkpt lat="47.35752" lon="-1.46674">
        <ele>59</ele>
        <time>2022-05-14T09:53:39Z</time>
      </trkpt>
      <trkpt lat="47.35757" lon="-1.46656">
        <ele>59</ele>
        <time>2022-05-14T09:53:41Z</time>
      </trkpt>
      <trkpt lat="47.35763" lon="-1.46641">
        <ele>59</ele>
        <time>2022-05-14T09:53:43Z</time>
      </trkpt>
      <trkpt lat="47.35773" lon="-1.46629">
        <ele>60</ele>
        <time>2022-05-14T09:53:45Z</time>
      </trkpt>
      <trkpt lat="47.35785" lon="-1.4662">
        <ele>60</ele>
        <time>2022-05-14T09:53:47Z</time>
      </trkpt>
      <trkpt lat="47.35797" lon="-1.46611">
        <ele>59</ele>
        <time>2022-05-14T09:53:49Z</time>
      </trkpt>
      <trkpt lat="47.35808" lon="-1.46602">
        <ele>59</ele>
        <time>2022-05-14T09:53:51Z</time>
      </trkpt>
      <trkpt lat="47.35819" lon="-1.46593">
        <ele>60</ele>
        <time>2022-05-14T09:53:53Z</time>
      </trkpt>
      <trkpt lat="47.3583" lon="-1.46583">
        <ele>60</ele>
        <time>2022-05-14T09:53:55Z</time>
      </trkpt>
      <trkpt lat="47.35842" lon="-1.46575">
        <ele>59</ele>
        <time>2022-05-14T09:53:57Z</time>
      </trkpt>
      <trkpt lat="47.35854" lon="-1.46566">
        <ele>59</ele>
        <time>2022-05-14T09:53:59Z</time>
      </trkpt>
      <trkpt lat="47.35865" lon="-1.46556">
        <ele>59</ele>
        <time>2022-05-14T09:54:01Z</time>
      </trkpt>
      <trkpt lat="47.35876" lon="-1.46546">
        <ele>59</ele>
        <time>2022-05-14T09:54:03Z</time>
      </trkpt>
      <trkpt lat="47.35884" lon="-1.46535">
        <ele>58</ele>
        <time>2022-05-14T09:54:05Z</time>
      </trkpt>
      <trkpt lat="47.35889" lon="-1.46517">
        <ele>58</ele>
        <time>2022-05-14T09:54:07Z</time>
      </trkpt>
      <trkpt lat="47.35892" lon="-1.46498">
        <ele>57</ele>
        <time>2022-05-14T09:54:09Z</time>
      </trkpt>
      <trkpt lat="47.35895" lon="-1.46479">
        <ele>58</ele>
        <time>2022-05-14T09:54:11Z</time>
      </trkpt>
      <trkpt lat="47.35899" lon="-1.4646">
        <ele>58</ele>
        <time>2022-05-14T09:54:13Z</time>
      </trkpt>
      <trkpt lat="47.35903" lon="-1.46443">
        <ele>58</ele>
        <time>2022-05-14T09:54:15Z</time>
      </trkpt>
      <trkpt lat="47.35905" lon="-1.46425">
        <ele>59</ele>
        <time>2022-05-14T09:54:17Z</time>
      </trkpt>
      <trkpt lat="47.35907" lon="-1.46407">
        <ele>59</ele>
        <time>2022-05-14T09:54:19Z</time>
      </trkpt>
      <trkpt lat="47.35909" lon="-1.4639">
        <ele>59</ele>
        <time>2022-05-14T09:54:21Z</time>
      </trkpt>
      <trkpt lat="47.35907" lon="-1.46377">
        <ele>60</ele>
        <time>2022-05-14T09:54:23Z</time>
      </trkpt>
      <trkpt lat="47.359" lon="-1.46365">
        <ele>61</ele>
        <time>2022-05-14T09:54:25Z</time>
      </trkpt>
      <trkpt lat="47.3589" lon="-1.46351">
        <ele>61</ele>
        <time>2022-05-14T09:54:27Z</time>
      </trkpt>
      <trkpt lat="47.35881" lon="-1.46338">
        <ele>60</ele>
        <time>2022-05-14T09:54:29Z</time>
      </trkpt>
      <trkpt lat="47.35871" lon="-1.46326">
        <ele>60</ele>
        <time>2022-05-14T09:54:31Z</time>
      </trkpt>
      <trkpt lat="47.35861" lon="-1.46312">
        <ele>59</ele>
        <time>2022-05-14T09:54:33Z</time>
      </trkpt>
      <trkpt lat="47.35853" lon="-1.46299">
        <ele>58</ele>
        <time>2022-05-14T09:54:35Z</time>
      </trkpt>
      <trkpt lat="47.35847" lon="-1.46284">
        <ele>58</ele>
        <time>2022-05-14T09:54:37Z</time>
      </trkpt>
      <trkpt lat="47.35841" lon="-1.46268">
        <ele>58</ele>
        <time>2022-05-14T09:54:39Z</time>
      </trkpt>
      <trkpt lat="47.35836" lon="-1.46251">
        <ele>58</ele>
        <time>2022-05-14T09:54:41Z</time>
      </trkpt>
      <trkpt lat="47.35835" lon="-1.46233">
        <ele>58</ele>
        <time>2022-05-14T09:54:43Z</time>
      </trkpt>
      <trkpt lat="47.35839" lon="-1.46217">
        <ele>58</ele>
        <time>2022-05-14T09:54:45Z</time>
      </trkpt>
      <trkpt lat="47.35844" lon="-1.462">
        <ele>58</ele>
        <time>2022-05-14T09:54:47Z</time>
      </trkpt>
      <trkpt lat="47.35847" lon="-1.46185">
        <ele>58</ele>
        <time>2022-05-14T09:54:49Z</time>
      </trkpt>
      <trkpt lat="47.35845" lon="-1.46167">
        <ele>59</ele>
        <time>2022-05-14T09:54:51Z</time>
      </trkpt>
      <trkpt lat="47.35842" lon="-1.46149">
        <ele>59</ele>
        <time>2022-05-14T09:54:53Z</time>
      </trkpt>
      <trkpt lat="47.35838" lon="-1.46132">
        <ele>59</ele>
        <time>2022-05-14T09:54:55Z</time>
      </trkpt>
      <trkpt lat="47.35835" lon="-1.46115">
        <ele>60</ele>
        <time>2022-05-14T09:54:57Z</time>
      </trkpt>
      <trkpt lat="47.35831" lon="-1.46099">
        <ele>60</ele>
        <time>2022-05-14T09:54:59Z</time>
      </trkpt>
      <trkpt lat="47.35827" lon="-1.46083">
        <ele>60</ele>
        <time>2022-05-14T09:55:01Z</time>
      </trkpt>
      <trkpt lat="47.35821" lon="-1.46069">
        <ele>60</ele>
        <time>2022-05-14T09:55:03Z</time>
      </trkpt>
      <trkpt lat="47.35816" lon="-1.46054">
        <ele>61</ele>
        <time>2022-05-14T09:55:05Z</time>
      </trkpt>
      <trkpt lat="47.35811" lon="-1.4604">
        <ele>61</ele>
        <time>2022-05-14T09:55:07Z</time>
      </trkpt>
      <trkpt lat="47.35807" lon="-1.46027">
        <ele>61</ele>
        <time>2022-05-14T09:55:09Z</time>
      </trkpt>
      <trkpt lat="47.35804" lon="-1.46014">
        <ele>60</ele>
        <time>2022-05-14T09:55:11Z</time>
      </trkpt>
      <trkpt lat="47.35801" lon="-1.46">
        <ele>60</ele>
        <time>2022-05-14T09:55:13Z</time>
      </trkpt>
      <trkpt lat="47.358" lon="-1.45985">
        <ele>61</ele>
        <time>2022-05-14T09:55:15Z</time>
      </trkpt>
      <trkpt lat="47.35801" lon="-1.45969">
        <ele>61</ele>
        <time>2022-05-14T09:55:17Z</time>
      </trkpt>
      <trkpt lat="47.35801" lon="-1.45954">
        <ele>61</ele>
        <time>2022-05-14T09:55:19Z</time>
      </trkpt>
      <trkpt lat="47.358" lon="-1.45938">
        <ele>61</ele>
        <time>2022-05-14T09:55:21Z</time>
      </trkpt>
      <trkpt lat="47.358" lon="-1.45924">
        <ele>61</ele>
        <time>2022-05-14T09:55:23Z</time>
      </trkpt>
      <trkpt lat="47.358" lon="-1.4591">
        <ele>61</ele>
        <time>2022-05-14T09:55:25Z</time>
      </trkpt>
      <trkpt lat="47.35801" lon="-1.45895">
        <ele>62</ele>
        <time>2022-05-14T09:55:27Z</time>
      </trkpt>
      <trkpt lat="47.358" lon="-1.45881">
        <ele>62</ele>
        <time>2022-05-14T09:55:29Z</time>
      </trkpt>
      <trkpt lat="47.358" lon="-1.45866">
        <ele>62</ele>
        <time>2022-05-14T09:55:31Z</time>
      </trkpt>
      <trkpt lat="47.35799" lon="-1.45851">
        <ele>62</ele>
        <time>2022-05-14T09:55:33Z</time>
      </trkpt>
      <trkpt lat="47.35799" lon="-1.45837">
        <ele>62</ele>
        <time>2022-05-14T09:55:35Z</time>
      </trkpt>
      <trkpt lat="47.35798" lon="-1.45822">
        <ele>63</ele>
        <time>2022-05-14T09:55:37Z</time>
      </trkpt>
      <trkpt lat="47.35797" lon="-1.45807">
        <ele>63</ele>
        <time>2022-05-14T09:55:39Z</time>
      </trkpt>
      <trkpt lat="47.35796" lon="-1.45793">
        <ele>63</ele>
        <time>2022-05-14T09:55:41Z</time>
      </trkpt>
      <trkpt lat="47.35796" lon="-1.45778">
        <ele>63</ele>
        <time>2022-05-14T09:55:43Z</time>
      </trkpt>
      <trkpt lat="47.35796" lon="-1.45764">
        <ele>63</ele>
        <time>2022-05-14T09:55:45Z</time>
      </trkpt>
      <trkpt lat="47.35794" lon="-1.45745">
        <ele>63</ele>
        <time>2022-05-14T09:55:48Z</time>
      </trkpt>
      <trkpt lat="47.35792" lon="-1.45731">
        <ele>64</ele>
        <time>2022-05-14T09:55:51Z</time>
      </trkpt>
      <trkpt lat="47.35788" lon="-1.45718">
        <ele>64</ele>
        <time>2022-05-14T09:55:55Z</time>
      </trkpt>
      <trkpt lat="47.35784" lon="-1.45705">
        <ele>65</ele>
        <time>2022-05-14T09:55:57Z</time>
      </trkpt>
      <trkpt lat="47.35781" lon="-1.45692">
        <ele>65</ele>
        <time>2022-05-14T09:55:59Z</time>
      </trkpt>
      <trkpt lat="47.35778" lon="-1.45678">
        <ele>65</ele>
        <time>2022-05-14T09:56:01Z</time>
      </trkpt>
      <trkpt lat="47.35775" lon="-1.45663">
        <ele>66</ele>
        <time>2022-05-14T09:56:03Z</time>
      </trkpt>
      <trkpt lat="47.35772" lon="-1.45648">
        <ele>66</ele>
        <time>2022-05-14T09:56:05Z</time>
      </trkpt>
      <trkpt lat="47.35769" lon="-1.45632">
        <ele>66</ele>
        <time>2022-05-14T09:56:07Z</time>
      </trkpt>
      <trkpt lat="47.35766" lon="-1.45616">
        <ele>66</ele>
        <time>2022-05-14T09:56:09Z</time>
      </trkpt>
      <trkpt lat="47.35764" lon="-1.456">
        <ele>66</ele>
        <time>2022-05-14T09:56:11Z</time>
      </trkpt>
      <trkpt lat="47.35764" lon="-1.45584">
        <ele>66</ele>
        <time>2022-05-14T09:56:13Z</time>
      </trkpt>
      <trkpt lat="47.35765" lon="-1.45568">
        <ele>66</ele>
        <time>2022-05-14T09:56:15Z</time>
      </trkpt>
      <trkpt lat="47.35767" lon="-1.45552">
        <ele>67</ele>
        <time>2022-05-14T09:56:17Z</time>
      </trkpt>
      <trkpt lat="47.35769" lon="-1.45536">
        <ele>67</ele>
        <time>2022-05-14T09:56:19Z</time>
      </trkpt>
      <trkpt lat="47.35773" lon="-1.4552">
        <ele>67</ele>
        <time>2022-05-14T09:56:21Z</time>
      </trkpt>
      <trkpt lat="47.35778" lon="-1.45505">
        <ele>67</ele>
        <time>2022-05-14T09:56:23Z</time>
      </trkpt>
      <trkpt lat="47.35784" lon="-1.45489">
        <ele>67</ele>
        <time>2022-05-14T09:56:25Z</time>
      </trkpt>
      <trkpt lat="47.35789" lon="-1.45475">
        <ele>68</ele>
        <time>2022-05-14T09:56:27Z</time>
      </trkpt>
      <trkpt lat="47.35793" lon="-1.45459">
        <ele>68</ele>
        <time>2022-05-14T09:56:29Z</time>
      </trkpt>
      <trkpt lat="47.35797" lon="-1.45442">
        <ele>68</ele>
        <time>2022-05-14T09:56:31Z</time>
      </trkpt>
      <trkpt lat="47.35799" lon="-1.45425">
        <ele>68</ele>
        <time>2022-05-14T09:56:33Z</time>
      </trkpt>
      <trkpt lat="47.358" lon="-1.45409">
        <ele>68</ele>
        <time>2022-05-14T09:56:35Z</time>
      </trkpt>
      <trkpt lat="47.358" lon="-1.45391">
        <ele>67</ele>
        <time>2022-05-14T09:56:37Z</time>
      </trkpt>
      <trkpt lat="47.35799" lon="-1.45374">
        <ele>67</ele>
        <time>2022-05-14T09:56:39Z</time>
      </trkpt>
      <trkpt lat="47.35796" lon="-1.45358">
        <ele>68</ele>
        <time>2022-05-14T09:56:41Z</time>
      </trkpt>
      <trkpt lat="47.35793" lon="-1.45342">
        <ele>67</ele>
        <time>2022-05-14T09:56:43Z</time>
      </trkpt>
      <trkpt lat="47.35791" lon="-1.45326">
        <ele>67</ele>
        <time>2022-05-14T09:56:45Z</time>
      </trkpt>
      <trkpt lat="47.35788" lon="-1.4531">
        <ele>67</ele>
        <time>2022-05-14T09:56:47Z</time>
      </trkpt>
      <trkpt lat="47.35785" lon="-1.45294">
        <ele>67</ele>
        <time>2022-05-14T09:56:49Z</time>
      </trkpt>
      <trkpt lat="47.35782" lon="-1.45279">
        <ele>68</ele>
        <time>2022-05-14T09:56:51Z</time>
      </trkpt>
      <trkpt lat="47.3578" lon="-1.45263">
        <ele>67</ele>
        <time>2022-05-14T09:56:53Z</time>
      </trkpt>
      <trkpt lat="47.35777" lon="-1.45247">
        <ele>68</ele>
        <time>2022-05-14T09:56:55Z</time>
      </trkpt>
      <trkpt lat="47.35775" lon="-1.45232">
        <ele>68</ele>
        <time>2022-05-14T09:56:57Z</time>
      </trkpt>
      <trkpt lat="47.35773" lon="-1.45217">
        <ele>68</ele>
        <time>2022-05-14T09:56:59Z</time>
      </trkpt>
      <trkpt lat="47.3577" lon="-1.45202">
        <ele>68</ele>
        <time>2022-05-14T09:57:01Z</time>
      </trkpt>
      <trkpt lat="47.35768" lon="-1.45187">
        <ele>68</ele>
        <time>2022-05-14T09:57:03Z</time>
      </trkpt>
      <trkpt lat="47.35766" lon="-1.45172">
        <ele>68</ele>
        <time>2022-05-14T09:57:05Z</time>
      </trkpt>
      <trkpt lat="47.35765" lon="-1.45157">
        <ele>69</ele>
        <time>2022-05-14T09:57:07Z</time>
      </trkpt>
      <trkpt lat="47.35765" lon="-1.45142">
        <ele>69</ele>
        <time>2022-05-14T09:57:09Z</time>
      </trkpt>
      <trkpt lat="47.35765" lon="-1.45127">
        <ele>69</ele>
        <time>2022-05-14T09:57:11Z</time>
      </trkpt>
      <trkpt lat="47.35766" lon="-1.45112">
        <ele>69</ele>
        <time>2022-05-14T09:57:13Z</time>
      </trkpt>
      <trkpt lat="47.35768" lon="-1.45097">
        <ele>69</ele>
        <time>2022-05-14T09:57:15Z</time>
      </trkpt>
      <trkpt lat="47.35771" lon="-1.45081">
        <ele>69</ele>
        <time>2022-05-14T09:57:17Z</time>
      </trkpt>
      <trkpt lat="47.35773" lon="-1.45066">
        <ele>70</ele>
        <time>2022-05-14T09:57:19Z</time>
      </trkpt>
      <trkpt lat="47.35775" lon="-1.45052">
        <ele>70</ele>
        <time>2022-05-14T09:57:21Z</time>
      </trkpt>
      <trkpt lat="47.35776" lon="-1.45037">
        <ele>70</ele>
        <time>2022-05-14T09:57:23Z</time>
      </trkpt>
      <trkpt lat="47.35778" lon="-1.45022">
        <ele>70</ele>
        <time>2022-05-14T09:57:25Z</time>
      </trkpt>
      <trkpt lat="47.35779" lon="-1.45007">
        <ele>70</ele>
        <time>2022-05-14T09:57:27Z</time>
      </trkpt>
      <trkpt lat="47.3578" lon="-1.44993">
        <ele>71</ele>
        <time>2022-05-14T09:57:29Z</time>
      </trkpt>
      <trkpt lat="47.35781" lon="-1.44978">
        <ele>71</ele>
        <time>2022-05-14T09:57:31Z</time>
      </trkpt>
      <trkpt lat="47.35781" lon="-1.44964">
        <ele>71</ele>
        <time>2022-05-14T09:57:33Z</time>
      </trkpt>
      <trkpt lat="47.35781" lon="-1.4495">
        <ele>71</ele>
        <time>2022-05-14T09:57:35Z</time>
      </trkpt>
      <trkpt lat="47.35782" lon="-1.44936">
        <ele>71</ele>
        <time>2022-05-14T09:57:37Z</time>
      </trkpt>
      <trkpt lat="47.35782" lon="-1.44922">
        <ele>72</ele>
        <time>2022-05-14T09:57:39Z</time>
      </trkpt>
      <trkpt lat="47.35783" lon="-1.44908">
        <ele>72</ele>
        <time>2022-05-14T09:57:41Z</time>
      </trkpt>
      <trkpt lat="47.35783" lon="-1.44895">
        <ele>73</ele>
        <time>2022-05-14T09:57:43Z</time>
      </trkpt>
      <trkpt lat="47.35783" lon="-1.44882">
        <ele>72</ele>
        <time>2022-05-14T09:57:45Z</time>
      </trkpt>
      <trkpt lat="47.35783" lon="-1.44868">
        <ele>73</ele>
        <time>2022-05-14T09:57:47Z</time>
      </trkpt>
      <trkpt lat="47.35783" lon="-1.44855">
        <ele>73</ele>
        <time>2022-05-14T09:57:49Z</time>
      </trkpt>
      <trkpt lat="47.35784" lon="-1.44841">
        <ele>74</ele>
        <time>2022-05-14T09:57:51Z</time>
      </trkpt>
      <trkpt lat="47.35784" lon="-1.44822">
        <ele>74</ele>
        <time>2022-05-14T09:57:54Z</time>
      </trkpt>
      <trkpt lat="47.35784" lon="-1.44803">
        <ele>74</ele>
        <time>2022-05-14T09:57:57Z</time>
      </trkpt>
      <trkpt lat="47.35785" lon="-1.44784">
        <ele>75</ele>
        <time>2022-05-14T09:58:00Z</time>
      </trkpt>
      <trkpt lat="47.35785" lon="-1.44764">
        <ele>76</ele>
        <time>2022-05-14T09:58:03Z</time>
      </trkpt>
      <trkpt lat="47.35786" lon="-1.44745">
        <ele>76</ele>
        <time>2022-05-14T09:58:06Z</time>
      </trkpt>
      <trkpt lat="47.35786" lon="-1.44725">
        <ele>77</ele>
        <time>2022-05-14T09:58:09Z</time>
      </trkpt>
      <trkpt lat="47.35787" lon="-1.44706">
        <ele>77</ele>
        <time>2022-05-14T09:58:12Z</time>
      </trkpt>
      <trkpt lat="47.35787" lon="-1.44687">
        <ele>78</ele>
        <time>2022-05-14T09:58:15Z</time>
      </trkpt>
      <trkpt lat="47.35788" lon="-1.44669">
        <ele>78</ele>
        <time>2022-05-14T09:58:18Z</time>
      </trkpt>
      <trkpt lat="47.35789" lon="-1.44649">
        <ele>79</ele>
        <time>2022-05-14T09:58:21Z</time>
      </trkpt>
      <trkpt lat="47.35789" lon="-1.4463">
        <ele>79</ele>
        <time>2022-05-14T09:58:24Z</time>
      </trkpt>
      <trkpt lat="47.3579" lon="-1.44611">
        <ele>80</ele>
        <time>2022-05-14T09:58:27Z</time>
      </trkpt>
      <trkpt lat="47.35791" lon="-1.44593">
        <ele>81</ele>
        <time>2022-05-14T09:58:30Z</time>
      </trkpt>
      <trkpt lat="47.35793" lon="-1.44579">
        <ele>82</ele>
        <time>2022-05-14T09:58:32Z</time>
      </trkpt>
      <trkpt lat="47.35795" lon="-1.44561">
        <ele>83</ele>
        <time>2022-05-14T09:58:35Z</time>
      </trkpt>
      <trkpt lat="47.35797" lon="-1.44542">
        <ele>83</ele>
        <time>2022-05-14T09:58:38Z</time>
      </trkpt>
      <trkpt lat="47.35799" lon="-1.44522">
        <ele>84</ele>
        <time>2022-05-14T09:58:41Z</time>
      </trkpt>
      <trkpt lat="47.358" lon="-1.44503">
        <ele>84</ele>
        <time>2022-05-14T09:58:44Z</time>
      </trkpt>
      <trkpt lat="47.35801" lon="-1.4449">
        <ele>84</ele>
        <time>2022-05-14T09:58:46Z</time>
      </trkpt>
      <trkpt lat="47.35803" lon="-1.44477">
        <ele>84</ele>
        <time>2022-05-14T09:58:48Z</time>
      </trkpt>
      <trkpt lat="47.35804" lon="-1.44463">
        <ele>84</ele>
        <time>2022-05-14T09:58:50Z</time>
      </trkpt>
      <trkpt lat="47.35805" lon="-1.44448">
        <ele>84</ele>
        <time>2022-05-14T09:58:52Z</time>
      </trkpt>
      <trkpt lat="47.35805" lon="-1.44434">
        <ele>84</ele>
        <time>2022-05-14T09:58:54Z</time>
      </trkpt>
      <trkpt lat="47.35806" lon="-1.44419">
        <ele>85</ele>
        <time>2022-05-14T09:58:56Z</time>
      </trkpt>
      <trkpt lat="47.35806" lon="-1.44403">
        <ele>85</ele>
        <time>2022-05-14T09:58:58Z</time>
      </trkpt>
      <trkpt lat="47.35807" lon="-1.44388">
        <ele>85</ele>
        <time>2022-05-14T09:59:00Z</time>
      </trkpt>
      <trkpt lat="47.35807" lon="-1.44371">
        <ele>85</ele>
        <time>2022-05-14T09:59:02Z</time>
      </trkpt>
      <trkpt lat="47.35807" lon="-1.44354">
        <ele>84</ele>
        <time>2022-05-14T09:59:04Z</time>
      </trkpt>
      <trkpt lat="47.35807" lon="-1.44337">
        <ele>84</ele>
        <time>2022-05-14T09:59:06Z</time>
      </trkpt>
      <trkpt lat="47.35808" lon="-1.4432">
        <ele>84</ele>
        <time>2022-05-14T09:59:08Z</time>
      </trkpt>
      <trkpt lat="47.35809" lon="-1.44303">
        <ele>84</ele>
        <time>2022-05-14T09:59:10Z</time>
      </trkpt>
      <trkpt lat="47.35812" lon="-1.44287">
        <ele>84</ele>
        <time>2022-05-14T09:59:12Z</time>
      </trkpt>
      <trkpt lat="47.35816" lon="-1.44271">
        <ele>83</ele>
        <time>2022-05-14T09:59:14Z</time>
      </trkpt>
      <trkpt lat="47.35823" lon="-1.44257">
        <ele>83</ele>
        <time>2022-05-14T09:59:16Z</time>
      </trkpt>
      <trkpt lat="47.35831" lon="-1.44244">
        <ele>83</ele>
        <time>2022-05-14T09:59:18Z</time>
      </trkpt>
      <trkpt lat="47.35839" lon="-1.44232">
        <ele>83</ele>
        <time>2022-05-14T09:59:20Z</time>
      </trkpt>
      <trkpt lat="47.35847" lon="-1.4422">
        <ele>83</ele>
        <time>2022-05-14T09:59:22Z</time>
      </trkpt>
      <trkpt lat="47.35855" lon="-1.44209">
        <ele>83</ele>
        <time>2022-05-14T09:59:24Z</time>
      </trkpt>
      <trkpt lat="47.35864" lon="-1.44198">
        <ele>84</ele>
        <time>2022-05-14T09:59:26Z</time>
      </trkpt>
      <trkpt lat="47.35872" lon="-1.44186">
        <ele>83</ele>
        <time>2022-05-14T09:59:28Z</time>
      </trkpt>
      <trkpt lat="47.3588" lon="-1.44173">
        <ele>84</ele>
        <time>2022-05-14T09:59:30Z</time>
      </trkpt>
      <trkpt lat="47.35888" lon="-1.44161">
        <ele>84</ele>
        <time>2022-05-14T09:59:32Z</time>
      </trkpt>
      <trkpt lat="47.35896" lon="-1.4415">
        <ele>84</ele>
        <time>2022-05-14T09:59:34Z</time>
      </trkpt>
      <trkpt lat="47.35904" lon="-1.44139">
        <ele>84</ele>
        <time>2022-05-14T09:59:36Z</time>
      </trkpt>
      <trkpt lat="47.35912" lon="-1.44127">
        <ele>85</ele>
        <time>2022-05-14T09:59:38Z</time>
      </trkpt>
      <trkpt lat="47.3592" lon="-1.44115">
        <ele>86</ele>
        <time>2022-05-14T09:59:40Z</time>
      </trkpt>
      <trkpt lat="47.35929" lon="-1.44103">
        <ele>86</ele>
        <time>2022-05-14T09:59:42Z</time>
      </trkpt>
      <trkpt lat="47.35938" lon="-1.44092">
        <ele>86</ele>
        <time>2022-05-14T09:59:44Z</time>
      </trkpt>
      <trkpt lat="47.35948" lon="-1.4408">
        <ele>86</ele>
        <time>2022-05-14T09:59:46Z</time>
      </trkpt>
      <trkpt lat="47.35957" lon="-1.4407">
        <ele>85</ele>
        <time>2022-05-14T09:59:48Z</time>
      </trkpt>
      <trkpt lat="47.35965" lon="-1.44059">
        <ele>85</ele>
        <time>2022-05-14T09:59:50Z</time>
      </trkpt>
      <trkpt lat="47.35974" lon="-1.44048">
        <ele>86</ele>
        <time>2022-05-14T09:59:52Z</time>
      </trkpt>
      <trkpt lat="47.35982" lon="-1.44037">
        <ele>86</ele>
        <time>2022-05-14T09:59:54Z</time>
      </trkpt>
      <trkpt lat="47.35991" lon="-1.44026">
        <ele>86</ele>
        <time>2022-05-14T09:59:56Z</time>
      </trkpt>
      <trkpt lat="47.36" lon="-1.44016">
        <ele>86</ele>
        <time>2022-05-14T09:59:58Z</time>
      </trkpt>
      <trkpt lat="47.3601" lon="-1.44005">
        <ele>86</ele>
        <time>2022-05-14T10:00:00Z</time>
      </trkpt>
      <trkpt lat="47.36019" lon="-1.43993">
        <ele>85</ele>
        <time>2022-05-14T10:00:02Z</time>
      </trkpt>
      <trkpt lat="47.36028" lon="-1.43979">
        <ele>84</ele>
        <time>2022-05-14T10:00:04Z</time>
      </trkpt>
      <trkpt lat="47.36037" lon="-1.43964">
        <ele>83</ele>
        <time>2022-05-14T10:00:06Z</time>
      </trkpt>
      <trkpt lat="47.36044" lon="-1.43948">
        <ele>83</ele>
        <time>2022-05-14T10:00:08Z</time>
      </trkpt>
      <trkpt lat="47.36051" lon="-1.43931">
        <ele>83</ele>
        <time>2022-05-14T10:00:10Z</time>
      </trkpt>
      <trkpt lat="47.36056" lon="-1.43913">
        <ele>83</ele>
        <time>2022-05-14T10:00:12Z</time>
      </trkpt>
      <trkpt lat="47.3606" lon="-1.43894">
        <ele>83</ele>
        <time>2022-05-14T10:00:14Z</time>
      </trkpt>
      <trkpt lat="47.36063" lon="-1.43875">
        <ele>83</ele>
        <time>2022-05-14T10:00:16Z</time>
      </trkpt>
      <trkpt lat="47.36066" lon="-1.43854">
        <ele>83</ele>
        <time>2022-05-14T10:00:18Z</time>
      </trkpt>
      <trkpt lat="47.36069" lon="-1.43831">
        <ele>82</ele>
        <time>2022-05-14T10:00:20Z</time>
      </trkpt>
      <trkpt lat="47.36071" lon="-1.43808">
        <ele>82</ele>
        <time>2022-05-14T10:00:22Z</time>
      </trkpt>
      <trkpt lat="47.36075" lon="-1.43785">
        <ele>81</ele>
        <time>2022-05-14T10:00:24Z</time>
      </trkpt>
      <trkpt lat="47.3608" lon="-1.43762">
        <ele>80</ele>
        <time>2022-05-14T10:00:26Z</time>
      </trkpt>
      <trkpt lat="47.36086" lon="-1.4374">
        <ele>80</ele>
        <time>2022-05-14T10:00:28Z</time>
      </trkpt>
      <trkpt lat="47.36093" lon="-1.43719">
        <ele>80</ele>
        <time>2022-05-14T10:00:30Z</time>
      </trkpt>
      <trkpt lat="47.36102" lon="-1.43698">
        <ele>80</ele>
        <time>2022-05-14T10:00:32Z</time>
      </trkpt>
      <trkpt lat="47.36113" lon="-1.43679">
        <ele>79</ele>
        <time>2022-05-14T10:00:34Z</time>
      </trkpt>
      <trkpt lat="47.36124" lon="-1.43662">
        <ele>78</ele>
        <time>2022-05-14T10:00:36Z</time>
      </trkpt>
      <trkpt lat="47.36134" lon="-1.43647">
        <ele>78</ele>
        <time>2022-05-14T10:00:38Z</time>
      </trkpt>
      <trkpt lat="47.36142" lon="-1.43631">
        <ele>78</ele>
        <time>2022-05-14T10:00:40Z</time>
      </trkpt>
      <trkpt lat="47.3615" lon="-1.43614">
        <ele>78</ele>
        <time>2022-05-14T10:00:42Z</time>
      </trkpt>
      <trkpt lat="47.36158" lon="-1.43597">
        <ele>78</ele>
        <time>2022-05-14T10:00:44Z</time>
      </trkpt>
      <trkpt lat="47.36166" lon="-1.43581">
        <ele>78</ele>
        <time>2022-05-14T10:00:46Z</time>
      </trkpt>
      <trkpt lat="47.36173" lon="-1.43565">
        <ele>78</ele>
        <time>2022-05-14T10:00:48Z</time>
      </trkpt>
      <trkpt lat="47.36181" lon="-1.4355">
        <ele>78</ele>
        <time>2022-05-14T10:00:50Z</time>
      </trkpt>
      <trkpt lat="47.36189" lon="-1.43535">
        <ele>78</ele>
        <time>2022-05-14T10:00:52Z</time>
      </trkpt>
      <trkpt lat="47.36197" lon="-1.43522">
        <ele>78</ele>
        <time>2022-05-14T10:00:54Z</time>
      </trkpt>
      <trkpt lat="47.36206" lon="-1.43509">
        <ele>78</ele>
        <time>2022-05-14T10:00:56Z</time>
      </trkpt>
      <trkpt lat="47.36214" lon="-1.43498">
        <ele>78</ele>
        <time>2022-05-14T10:00:58Z</time>
      </trkpt>
      <trkpt lat="47.36221" lon="-1.43487">
        <ele>78</ele>
        <time>2022-05-14T10:01:00Z</time>
      </trkpt>
      <trkpt lat="47.36228" lon="-1.43478">
        <ele>78</ele>
        <time>2022-05-14T10:01:02Z</time>
      </trkpt>
      <trkpt lat="47.36236" lon="-1.43469">
        <ele>78</ele>
        <time>2022-05-14T10:01:04Z</time>
      </trkpt>
      <trkpt lat="47.36244" lon="-1.4346">
        <ele>78</ele>
        <time>2022-05-14T10:01:06Z</time>
      </trkpt>
      <trkpt lat="47.36252" lon="-1.43453">
        <ele>78</ele>
        <time>2022-05-14T10:01:08Z</time>
      </trkpt>
      <trkpt lat="47.36262" lon="-1.43442">
        <ele>79</ele>
        <time>2022-05-14T10:01:11Z</time>
      </trkpt>
      <trkpt lat="47.36272" lon="-1.43432">
        <ele>79</ele>
        <time>2022-05-14T10:01:14Z</time>
      </trkpt>
      <trkpt lat="47.36282" lon="-1.43422">
        <ele>80</ele>
        <time>2022-05-14T10:01:17Z</time>
      </trkpt>
      <trkpt lat="47.36292" lon="-1.43412">
        <ele>81</ele>
        <time>2022-05-14T10:01:20Z</time>
      </trkpt>
      <trkpt lat="47.36302" lon="-1.43402">
        <ele>82</ele>
        <time>2022-05-14T10:01:23Z</time>
      </trkpt>
      <trkpt lat="47.36312" lon="-1.43392">
        <ele>82</ele>
        <time>2022-05-14T10:01:26Z</time>
      </trkpt>
      <trkpt lat="47.36322" lon="-1.43381">
        <ele>83</ele>
        <time>2022-05-14T10:01:29Z</time>
      </trkpt>
      <trkpt lat="47.36331" lon="-1.43371">
        <ele>84</ele>
        <time>2022-05-14T10:01:32Z</time>
      </trkpt>
      <trkpt lat="47.36341" lon="-1.43361">
        <ele>85</ele>
        <time>2022-05-14T10:01:35Z</time>
      </trkpt>
      <trkpt lat="47.36351" lon="-1.4335">
        <ele>85</ele>
        <time>2022-05-14T10:01:38Z</time>
      </trkpt>
      <trkpt lat="47.36361" lon="-1.4334">
        <ele>86</ele>
        <time>2022-05-14T10:01:41Z</time>
      </trkpt>
      <trkpt lat="47.36371" lon="-1.43331">
        <ele>87</ele>
        <time>2022-05-14T10:01:44Z</time>
      </trkpt>
      <trkpt lat="47.3638" lon="-1.43321">
        <ele>87</ele>
        <time>2022-05-14T10:01:47Z</time>
      </trkpt>
      <trkpt lat="47.36389" lon="-1.4331">
        <ele>88</ele>
        <time>2022-05-14T10:01:50Z</time>
      </trkpt>
      <trkpt lat="47.36399" lon="-1.43301">
        <ele>89</ele>
        <time>2022-05-14T10:01:53Z</time>
      </trkpt>
      <trkpt lat="47.36409" lon="-1.43291">
        <ele>90</ele>
        <time>2022-05-14T10:01:56Z</time>
      </trkpt>
      <trkpt lat="47.36417" lon="-1.43282">
        <ele>91</ele>
        <time>2022-05-14T10:01:59Z</time>
      </trkpt>
      <trkpt lat="47.36426" lon="-1.43271">
        <ele>92</ele>
        <time>2022-05-14T10:02:02Z</time>
      </trkpt>
      <trkpt lat="47.36434" lon="-1.4326">
        <ele>93</ele>
        <time>2022-05-14T10:02:05Z</time>
      </trkpt>
      <trkpt lat="47.36442" lon="-1.43248">
        <ele>94</ele>
        <time>2022-05-14T10:02:08Z</time>
      </trkpt>
      <trkpt lat="47.36449" lon="-1.43234">
        <ele>94</ele>
        <time>2022-05-14T10:02:11Z</time>
      </trkpt>
      <trkpt lat="47.36456" lon="-1.43219">
        <ele>95</ele>
        <time>2022-05-14T10:02:14Z</time>
      </trkpt>
      <trkpt lat="47.36463" lon="-1.43204">
        <ele>96</ele>
        <time>2022-05-14T10:02:17Z</time>
      </trkpt>
      <trkpt lat="47.3647" lon="-1.4319">
        <ele>96</ele>
        <time>2022-05-14T10:02:20Z</time>
      </trkpt>
      <trkpt lat="47.36477" lon="-1.43175">
        <ele>96</ele>
        <time>2022-05-14T10:02:23Z</time>
      </trkpt>
      <trkpt lat="47.36483" lon="-1.4316">
        <ele>96</ele>
        <time>2022-05-14T10:02:26Z</time>
      </trkpt>
      <trkpt lat="47.36489" lon="-1.43147">
        <ele>97</ele>
        <time>2022-05-14T10:02:35Z</time>
      </trkpt>
      <trkpt lat="47.36497" lon="-1.43132">
        <ele>98</ele>
        <time>2022-05-14T10:02:39Z</time>
      </trkpt>
      <trkpt lat="47.36503" lon="-1.43115">
        <ele>98</ele>
        <time>2022-05-14T10:02:42Z</time>
      </trkpt>
      <trkpt lat="47.36509" lon="-1.43097">
        <ele>98</ele>
        <time>2022-05-14T10:02:45Z</time>
      </trkpt>
      <trkpt lat="47.36511" lon="-1.43083">
        <ele>97</ele>
        <time>2022-05-14T10:02:47Z</time>
      </trkpt>
      <trkpt lat="47.36514" lon="-1.43069">
        <ele>98</ele>
        <time>2022-05-14T10:02:49Z</time>
      </trkpt>
      <trkpt lat="47.36516" lon="-1.43055">
        <ele>98</ele>
        <time>2022-05-14T10:02:51Z</time>
      </trkpt>
      <trkpt lat="47.36517" lon="-1.43041">
        <ele>98</ele>
        <time>2022-05-14T10:02:53Z</time>
      </trkpt>
      <trkpt lat="47.36519" lon="-1.43027">
        <ele>98</ele>
        <time>2022-05-14T10:02:55Z</time>
      </trkpt>
      <trkpt lat="47.3652" lon="-1.43013">
        <ele>98</ele>
        <time>2022-05-14T10:02:57Z</time>
      </trkpt>
      <trkpt lat="47.36526" lon="-1.42995">
        <ele>98</ele>
        <time>2022-05-14T10:03:00Z</time>
      </trkpt>
      <trkpt lat="47.36533" lon="-1.42986">
        <ele>98</ele>
        <time>2022-05-14T10:03:02Z</time>
      </trkpt>
      <trkpt lat="47.36542" lon="-1.42981">
        <ele>98</ele>
        <time>2022-05-14T10:03:04Z</time>
      </trkpt>
      <trkpt lat="47.36551" lon="-1.4298">
        <ele>99</ele>
        <time>2022-05-14T10:03:06Z</time>
      </trkpt>
      <trkpt lat="47.36562" lon="-1.42979">
        <ele>99</ele>
        <time>2022-05-14T10:03:08Z</time>
      </trkpt>
      <trkpt lat="47.36574" lon="-1.42979">
        <ele>99</ele>
        <time>2022-05-14T10:03:10Z</time>
      </trkpt>
      <trkpt lat="47.36586" lon="-1.42979">
        <ele>99</ele>
        <time>2022-05-14T10:03:12Z</time>
      </trkpt>
      <trkpt lat="47.36598" lon="-1.42978">
        <ele>99</ele>
        <time>2022-05-14T10:03:14Z</time>
      </trkpt>
      <trkpt lat="47.3661" lon="-1.42977">
        <ele>100</ele>
        <time>2022-05-14T10:03:16Z</time>
      </trkpt>
      <trkpt lat="47.36622" lon="-1.42977">
        <ele>100</ele>
        <time>2022-05-14T10:03:18Z</time>
      </trkpt>
      <trkpt lat="47.36634" lon="-1.42977">
        <ele>100</ele>
        <time>2022-05-14T10:03:20Z</time>
      </trkpt>
      <trkpt lat="47.36646" lon="-1.42977">
        <ele>100</ele>
        <time>2022-05-14T10:03:22Z</time>
      </trkpt>
      <trkpt lat="47.36658" lon="-1.42977">
        <ele>100</ele>
        <time>2022-05-14T10:03:24Z</time>
      </trkpt>
      <trkpt lat="47.36669" lon="-1.42977">
        <ele>100</ele>
        <time>2022-05-14T10:03:26Z</time>
      </trkpt>
      <trkpt lat="47.36679" lon="-1.42976">
        <ele>100</ele>
        <time>2022-05-14T10:03:28Z</time>
      </trkpt>
      <trkpt lat="47.36692" lon="-1.42971">
        <ele>100</ele>
        <time>2022-05-14T10:03:31Z</time>
      </trkpt>
      <trkpt lat="47.36696" lon="-1.42954">
        <ele>100</ele>
        <time>2022-05-14T10:03:33Z</time>
      </trkpt>
      <trkpt lat="47.367" lon="-1.42936">
        <ele>101</ele>
        <time>2022-05-14T10:03:35Z</time>
      </trkpt>
      <trkpt lat="47.36704" lon="-1.42919">
        <ele>101</ele>
        <time>2022-05-14T10:03:37Z</time>
      </trkpt>
      <trkpt lat="47.36709" lon="-1.42904">
        <ele>101</ele>
        <time>2022-05-14T10:03:39Z</time>
      </trkpt>
      <trkpt lat="47.36713" lon="-1.42887">
        <ele>101</ele>
        <time>2022-05-14T10:03:41Z</time>
      </trkpt>
      <trkpt lat="47.36718" lon="-1.4287">
        <ele>101</ele>
        <time>2022-05-14T10:03:43Z</time>
      </trkpt>
      <trkpt lat="47.36722" lon="-1.42854">
        <ele>101</ele>
        <time>2022-05-14T10:03:45Z</time>
      </trkpt>
      <trkpt lat="47.36725" lon="-1.42837">
        <ele>101</ele>
        <time>2022-05-14T10:03:47Z</time>
      </trkpt>
      <trkpt lat="47.36729" lon="-1.4282">
        <ele>101</ele>
        <time>2022-05-14T10:03:49Z</time>
      </trkpt>
      <trkpt lat="47.36731" lon="-1.42803">
        <ele>101</ele>
        <time>2022-05-14T10:03:51Z</time>
      </trkpt>
      <trkpt lat="47.36734" lon="-1.42785">
        <ele>101</ele>
        <time>2022-05-14T10:03:53Z</time>
      </trkpt>
      <trkpt lat="47.36736" lon="-1.42768">
        <ele>101</ele>
        <time>2022-05-14T10:03:55Z</time>
      </trkpt>
      <trkpt lat="47.36737" lon="-1.42751">
        <ele>101</ele>
        <time>2022-05-14T10:03:57Z</time>
      </trkpt>
      <trkpt lat="47.36738" lon="-1.42733">
        <ele>101</ele>
        <time>2022-05-14T10:03:59Z</time>
      </trkpt>
      <trkpt lat="47.36738" lon="-1.42715">
        <ele>101</ele>
        <time>2022-05-14T10:04:01Z</time>
      </trkpt>
      <trkpt lat="47.36737" lon="-1.42698">
        <ele>101</ele>
        <time>2022-05-14T10:04:03Z</time>
      </trkpt>
      <trkpt lat="47.36736" lon="-1.4268">
        <ele>101</ele>
        <time>2022-05-14T10:04:05Z</time>
      </trkpt>
      <trkpt lat="47.36734" lon="-1.42663">
        <ele>101</ele>
        <time>2022-05-14T10:04:07Z</time>
      </trkpt>
      <trkpt lat="47.36732" lon="-1.42645">
        <ele>101</ele>
        <time>2022-05-14T10:04:09Z</time>
      </trkpt>
      <trkpt lat="47.3673" lon="-1.42628">
        <ele>101</ele>
        <time>2022-05-14T10:04:11Z</time>
      </trkpt>
      <trkpt lat="47.36728" lon="-1.4261">
        <ele>101</ele>
        <time>2022-05-14T10:04:13Z</time>
      </trkpt>
      <trkpt lat="47.36725" lon="-1.42593">
        <ele>101</ele>
        <time>2022-05-14T10:04:15Z</time>
      </trkpt>
      <trkpt lat="47.36723" lon="-1.42576">
        <ele>101</ele>
        <time>2022-05-14T10:04:17Z</time>
      </trkpt>
      <trkpt lat="47.3672" lon="-1.42559">
        <ele>101</ele>
        <time>2022-05-14T10:04:19Z</time>
      </trkpt>
      <trkpt lat="47.36717" lon="-1.42542">
        <ele>101</ele>
        <time>2022-05-14T10:04:21Z</time>
      </trkpt>
      <trkpt lat="47.36714" lon="-1.42525">
        <ele>101</ele>
        <time>2022-05-14T10:04:23Z</time>
      </trkpt>
      <trkpt lat="47.36711" lon="-1.42508">
        <ele>102</ele>
        <time>2022-05-14T10:04:25Z</time>
      </trkpt>
      <trkpt lat="47.36709" lon="-1.42491">
        <ele>102</ele>
        <time>2022-05-14T10:04:27Z</time>
      </trkpt>
      <trkpt lat="47.36706" lon="-1.42475">
        <ele>102</ele>
        <time>2022-05-14T10:04:29Z</time>
      </trkpt>
      <trkpt lat="47.36704" lon="-1.42458">
        <ele>102</ele>
        <time>2022-05-14T10:04:31Z</time>
      </trkpt>
      <trkpt lat="47.36701" lon="-1.42442">
        <ele>102</ele>
        <time>2022-05-14T10:04:33Z</time>
      </trkpt>
      <trkpt lat="47.36698" lon="-1.42425">
        <ele>102</ele>
        <time>2022-05-14T10:04:35Z</time>
      </trkpt>
      <trkpt lat="47.36695" lon="-1.42409">
        <ele>103</ele>
        <time>2022-05-14T10:04:37Z</time>
      </trkpt>
      <trkpt lat="47.36693" lon="-1.42392">
        <ele>103</ele>
        <time>2022-05-14T10:04:39Z</time>
      </trkpt>
      <trkpt lat="47.3669" lon="-1.42377">
        <ele>103</ele>
        <time>2022-05-14T10:04:41Z</time>
      </trkpt>
      <trkpt lat="47.36687" lon="-1.4236">
        <ele>103</ele>
        <time>2022-05-14T10:04:43Z</time>
      </trkpt>
      <trkpt lat="47.36685" lon="-1.42344">
        <ele>103</ele>
        <time>2022-05-14T10:04:45Z</time>
      </trkpt>
      <trkpt lat="47.36683" lon="-1.42329">
        <ele>103</ele>
        <time>2022-05-14T10:04:47Z</time>
      </trkpt>
      <trkpt lat="47.36681" lon="-1.42313">
        <ele>103</ele>
        <time>2022-05-14T10:04:49Z</time>
      </trkpt>
      <trkpt lat="47.36679" lon="-1.42298">
        <ele>103</ele>
        <time>2022-05-14T10:04:51Z</time>
      </trkpt>
      <trkpt lat="47.36678" lon="-1.42282">
        <ele>103</ele>
        <time>2022-05-14T10:04:53Z</time>
      </trkpt>
      <trkpt lat="47.36676" lon="-1.42268">
        <ele>103</ele>
        <time>2022-05-14T10:04:55Z</time>
      </trkpt>
      <trkpt lat="47.36675" lon="-1.42252">
        <ele>103</ele>
        <time>2022-05-14T10:04:57Z</time>
      </trkpt>
      <trkpt lat="47.36673" lon="-1.42238">
        <ele>103</ele>
        <time>2022-05-14T10:04:59Z</time>
      </trkpt>
      <trkpt lat="47.36672" lon="-1.42223">
        <ele>103</ele>
        <time>2022-05-14T10:05:01Z</time>
      </trkpt>
      <trkpt lat="47.3667" lon="-1.42209">
        <ele>104</ele>
        <time>2022-05-14T10:05:03Z</time>
      </trkpt>
      <trkpt lat="47.36669" lon="-1.42194">
        <ele>104</ele>
        <time>2022-05-14T10:05:05Z</time>
      </trkpt>
      <trkpt lat="47.36668" lon="-1.42179">
        <ele>104</ele>
        <time>2022-05-14T10:05:07Z</time>
      </trkpt>
      <trkpt lat="47.36667" lon="-1.42165">
        <ele>104</ele>
        <time>2022-05-14T10:05:09Z</time>
      </trkpt>
      <trkpt lat="47.36665" lon="-1.42151">
        <ele>105</ele>
        <time>2022-05-14T10:05:11Z</time>
      </trkpt>
      <trkpt lat="47.36664" lon="-1.42136">
        <ele>105</ele>
        <time>2022-05-14T10:05:13Z</time>
      </trkpt>
      <trkpt lat="47.36662" lon="-1.42121">
        <ele>105</ele>
        <time>2022-05-14T10:05:15Z</time>
      </trkpt>
      <trkpt lat="47.36661" lon="-1.42106">
        <ele>106</ele>
        <time>2022-05-14T10:05:17Z</time>
      </trkpt>
      <trkpt lat="47.3666" lon="-1.42091">
        <ele>106</ele>
        <time>2022-05-14T10:05:19Z</time>
      </trkpt>
      <trkpt lat="47.36659" lon="-1.42076">
        <ele>106</ele>
        <time>2022-05-14T10:05:21Z</time>
      </trkpt>
      <trkpt lat="47.36657" lon="-1.42061">
        <ele>107</ele>
        <time>2022-05-14T10:05:23Z</time>
      </trkpt>
      <trkpt lat="47.36656" lon="-1.42046">
        <ele>107</ele>
        <time>2022-05-14T10:05:25Z</time>
      </trkpt>
      <trkpt lat="47.36655" lon="-1.42031">
        <ele>107</ele>
        <time>2022-05-14T10:05:27Z</time>
      </trkpt>
      <trkpt lat="47.36654" lon="-1.42016">
        <ele>107</ele>
        <time>2022-05-14T10:05:29Z</time>
      </trkpt>
      <trkpt lat="47.36653" lon="-1.42001">
        <ele>108</ele>
        <time>2022-05-14T10:05:31Z</time>
      </trkpt>
      <trkpt lat="47.36652" lon="-1.41986">
        <ele>108</ele>
        <time>2022-05-14T10:05:33Z</time>
      </trkpt>
      <trkpt lat="47.3665" lon="-1.41972">
        <ele>109</ele>
        <time>2022-05-14T10:05:35Z</time>
      </trkpt>
      <trkpt lat="47.36649" lon="-1.41957">
        <ele>109</ele>
        <time>2022-05-14T10:05:37Z</time>
      </trkpt>
      <trkpt lat="47.36648" lon="-1.41942">
        <ele>109</ele>
        <time>2022-05-14T10:05:39Z</time>
      </trkpt>
      <trkpt lat="47.36646" lon="-1.41927">
        <ele>109</ele>
        <time>2022-05-14T10:05:41Z</time>
      </trkpt>
      <trkpt lat="47.36645" lon="-1.41912">
        <ele>109</ele>
        <time>2022-05-14T10:05:43Z</time>
      </trkpt>
      <trkpt lat="47.36644" lon="-1.41897">
        <ele>110</ele>
        <time>2022-05-14T10:05:45Z</time>
      </trkpt>
      <trkpt lat="47.36642" lon="-1.41882">
        <ele>110</ele>
        <time>2022-05-14T10:05:47Z</time>
      </trkpt>
      <trkpt lat="47.36641" lon="-1.41867">
        <ele>110</ele>
        <time>2022-05-14T10:05:49Z</time>
      </trkpt>
      <trkpt lat="47.3664" lon="-1.41852">
        <ele>110</ele>
        <time>2022-05-14T10:05:51Z</time>
      </trkpt>
      <trkpt lat="47.36638" lon="-1.41838">
        <ele>110</ele>
        <time>2022-05-14T10:05:53Z</time>
      </trkpt>
      <trkpt lat="47.36637" lon="-1.41824">
        <ele>111</ele>
        <time>2022-05-14T10:05:55Z</time>
      </trkpt>
      <trkpt lat="47.36635" lon="-1.41809">
        <ele>111</ele>
        <time>2022-05-14T10:05:57Z</time>
      </trkpt>
      <trkpt lat="47.36634" lon="-1.41795">
        <ele>111</ele>
        <time>2022-05-14T10:05:59Z</time>
      </trkpt>
      <trkpt lat="47.36633" lon="-1.41781">
        <ele>112</ele>
        <time>2022-05-14T10:06:01Z</time>
      </trkpt>
      <trkpt lat="47.36632" lon="-1.41766">
        <ele>112</ele>
        <time>2022-05-14T10:06:03Z</time>
      </trkpt>
      <trkpt lat="47.3663" lon="-1.41752">
        <ele>113</ele>
        <time>2022-05-14T10:06:05Z</time>
      </trkpt>
      <trkpt lat="47.36629" lon="-1.41737">
        <ele>113</ele>
        <time>2022-05-14T10:06:07Z</time>
      </trkpt>
      <trkpt lat="47.36628" lon="-1.41722">
        <ele>113</ele>
        <time>2022-05-14T10:06:09Z</time>
      </trkpt>
      <trkpt lat="47.36627" lon="-1.41707">
        <ele>113</ele>
        <time>2022-05-14T10:06:11Z</time>
      </trkpt>
      <trkpt lat="47.36626" lon="-1.41692">
        <ele>113</ele>
        <time>2022-05-14T10:06:13Z</time>
      </trkpt>
      <trkpt lat="47.36625" lon="-1.41678">
        <ele>113</ele>
        <time>2022-05-14T10:06:15Z</time>
      </trkpt>
      <trkpt lat="47.36625" lon="-1.41663">
        <ele>113</ele>
        <time>2022-05-14T10:06:17Z</time>
      </trkpt>
      <trkpt lat="47.36624" lon="-1.41646">
        <ele>113</ele>
        <time>2022-05-14T10:06:19Z</time>
      </trkpt>
      <trkpt lat="47.36625" lon="-1.41631">
        <ele>113</ele>
        <time>2022-05-14T10:06:21Z</time>
      </trkpt>
      <trkpt lat="47.36625" lon="-1.41617">
        <ele>114</ele>
        <time>2022-05-14T10:06:23Z</time>
      </trkpt>
      <trkpt lat="47.36625" lon="-1.41603">
        <ele>114</ele>
        <time>2022-05-14T10:06:25Z</time>
      </trkpt>
      <trkpt lat="47.36626" lon="-1.41588">
        <ele>113</ele>
        <time>2022-05-14T10:06:27Z</time>
      </trkpt>
      <trkpt lat="47.36628" lon="-1.41574">
        <ele>113</ele>
        <time>2022-05-14T10:06:29Z</time>
      </trkpt>
      <trkpt lat="47.36629" lon="-1.4156">
        <ele>114</ele>
        <time>2022-05-14T10:06:31Z</time>
      </trkpt>
      <trkpt lat="47.36629" lon="-1.41544">
        <ele>115</ele>
        <time>2022-05-14T10:06:33Z</time>
      </trkpt>
      <trkpt lat="47.36632" lon="-1.4153">
        <ele>115</ele>
        <time>2022-05-14T10:06:35Z</time>
      </trkpt>
      <trkpt lat="47.36637" lon="-1.41515">
        <ele>115</ele>
        <time>2022-05-14T10:06:37Z</time>
      </trkpt>
      <trkpt lat="47.36641" lon="-1.415">
        <ele>114</ele>
        <time>2022-05-14T10:06:39Z</time>
      </trkpt>
      <trkpt lat="47.36645" lon="-1.41484">
        <ele>114</ele>
        <time>2022-05-14T10:06:41Z</time>
      </trkpt>
      <trkpt lat="47.36649" lon="-1.41468">
        <ele>114</ele>
        <time>2022-05-14T10:06:43Z</time>
      </trkpt>
      <trkpt lat="47.36653" lon="-1.41453">
        <ele>114</ele>
        <time>2022-05-14T10:06:45Z</time>
      </trkpt>
      <trkpt lat="47.36658" lon="-1.41436">
        <ele>114</ele>
        <time>2022-05-14T10:06:47Z</time>
      </trkpt>
      <trkpt lat="47.36662" lon="-1.41421">
        <ele>114</ele>
        <time>2022-05-14T10:06:49Z</time>
      </trkpt>
      <trkpt lat="47.36668" lon="-1.41407">
        <ele>114</ele>
        <time>2022-05-14T10:06:51Z</time>
      </trkpt>
      <trkpt lat="47.36673" lon="-1.41393">
        <ele>114</ele>
        <time>2022-05-14T10:06:53Z</time>
      </trkpt>
      <trkpt lat="47.36678" lon="-1.41379">
        <ele>114</ele>
        <time>2022-05-14T10:06:55Z</time>
      </trkpt>
      <trkpt lat="47.36683" lon="-1.41364">
        <ele>114</ele>
        <time>2022-05-14T10:06:57Z</time>
      </trkpt>
      <trkpt lat="47.36689" lon="-1.4135">
        <ele>114</ele>
        <time>2022-05-14T10:06:59Z</time>
      </trkpt>
      <trkpt lat="47.36694" lon="-1.41335">
        <ele>113</ele>
        <time>2022-05-14T10:07:01Z</time>
      </trkpt>
      <trkpt lat="47.36699" lon="-1.4132">
        <ele>113</ele>
        <time>2022-05-14T10:07:03Z</time>
      </trkpt>
      <trkpt lat="47.36705" lon="-1.41305">
        <ele>112</ele>
        <time>2022-05-14T10:07:05Z</time>
      </trkpt>
      <trkpt lat="47.36711" lon="-1.4129">
        <ele>112</ele>
        <time>2022-05-14T10:07:07Z</time>
      </trkpt>
      <trkpt lat="47.36717" lon="-1.41275">
        <ele>112</ele>
        <time>2022-05-14T10:07:09Z</time>
      </trkpt>
      <trkpt lat="47.36723" lon="-1.41259">
        <ele>111</ele>
        <time>2022-05-14T10:07:11Z</time>
      </trkpt>
      <trkpt lat="47.36729" lon="-1.41242">
        <ele>111</ele>
        <time>2022-05-14T10:07:13Z</time>
      </trkpt>
      <trkpt lat="47.36735" lon="-1.41226">
        <ele>111</ele>
        <time>2022-05-14T10:07:15Z</time>
      </trkpt>
      <trkpt lat="47.36739" lon="-1.41208">
        <ele>111</ele>
        <time>2022-05-14T10:07:17Z</time>
      </trkpt>
      <trkpt lat="47.3674" lon="-1.41189">
        <ele>110</ele>
        <time>2022-05-14T10:07:19Z</time>
      </trkpt>
      <trkpt lat="47.3674" lon="-1.4117">
        <ele>110</ele>
        <time>2022-05-14T10:07:21Z</time>
      </trkpt>
      <trkpt lat="47.36738" lon="-1.41152">
        <ele>111</ele>
        <time>2022-05-14T10:07:23Z</time>
      </trkpt>
      <trkpt lat="47.36735" lon="-1.41133">
        <ele>110</ele>
        <time>2022-05-14T10:07:25Z</time>
      </trkpt>
      <trkpt lat="47.36731" lon="-1.41116">
        <ele>110</ele>
        <time>2022-05-14T10:07:27Z</time>
      </trkpt>
      <trkpt lat="47.36726" lon="-1.41099">
        <ele>109</ele>
        <time>2022-05-14T10:07:29Z</time>
      </trkpt>
      <trkpt lat="47.36722" lon="-1.41082">
        <ele>109</ele>
        <time>2022-05-14T10:07:31Z</time>
      </trkpt>
      <trkpt lat="47.36718" lon="-1.41064">
        <ele>108</ele>
        <time>2022-05-14T10:07:33Z</time>
      </trkpt>
      <trkpt lat="47.36714" lon="-1.41047">
        <ele>108</ele>
        <time>2022-05-14T10:07:35Z</time>
      </trkpt>
      <trkpt lat="47.36709" lon="-1.4103">
        <ele>108</ele>
        <time>2022-05-14T10:07:37Z</time>
      </trkpt>
      <trkpt lat="47.36704" lon="-1.41013">
        <ele>108</ele>
        <time>2022-05-14T10:07:39Z</time>
      </trkpt>
      <trkpt lat="47.367" lon="-1.40996">
        <ele>108</ele>
        <time>2022-05-14T10:07:41Z</time>
      </trkpt>
      <trkpt lat="47.36696" lon="-1.40979">
        <ele>108</ele>
        <time>2022-05-14T10:07:43Z</time>
      </trkpt>
      <trkpt lat="47.36693" lon="-1.40963">
        <ele>109</ele>
        <time>2022-05-14T10:07:45Z</time>
      </trkpt>
      <trkpt lat="47.36691" lon="-1.40947">
        <ele>109</ele>
        <time>2022-05-14T10:07:47Z</time>
      </trkpt>
      <trkpt lat="47.3669" lon="-1.40932">
        <ele>109</ele>
        <time>2022-05-14T10:07:49Z</time>
      </trkpt>
      <trkpt lat="47.36689" lon="-1.40918">
        <ele>110</ele>
        <time>2022-05-14T10:07:51Z</time>
      </trkpt>
      <trkpt lat="47.36689" lon="-1.40903">
        <ele>110</ele>
        <time>2022-05-14T10:07:53Z</time>
      </trkpt>
      <trkpt lat="47.36689" lon="-1.40888">
        <ele>110</ele>
        <time>2022-05-14T10:07:55Z</time>
      </trkpt>
      <trkpt lat="47.36689" lon="-1.40872">
        <ele>110</ele>
        <time>2022-05-14T10:07:57Z</time>
      </trkpt>
      <trkpt lat="47.36689" lon="-1.40857">
        <ele>110</ele>
        <time>2022-05-14T10:07:59Z</time>
      </trkpt>
      <trkpt lat="47.3669" lon="-1.40842">
        <ele>110</ele>
        <time>2022-05-14T10:08:01Z</time>
      </trkpt>
      <trkpt lat="47.36691" lon="-1.40826">
        <ele>110</ele>
        <time>2022-05-14T10:08:03Z</time>
      </trkpt>
      <trkpt lat="47.36691" lon="-1.4081">
        <ele>110</ele>
        <time>2022-05-14T10:08:05Z</time>
      </trkpt>
      <trkpt lat="47.36691" lon="-1.40794">
        <ele>110</ele>
        <time>2022-05-14T10:08:07Z</time>
      </trkpt>
      <trkpt lat="47.36692" lon="-1.40778">
        <ele>111</ele>
        <time>2022-05-14T10:08:09Z</time>
      </trkpt>
      <trkpt lat="47.36693" lon="-1.40761">
        <ele>111</ele>
        <time>2022-05-14T10:08:11Z</time>
      </trkpt>
      <trkpt lat="47.36693" lon="-1.40745">
        <ele>111</ele>
        <time>2022-05-14T10:08:13Z</time>
      </trkpt>
      <trkpt lat="47.36694" lon="-1.40729">
        <ele>111</ele>
        <time>2022-05-14T10:08:15Z</time>
      </trkpt>
      <trkpt lat="47.36695" lon="-1.40712">
        <ele>110</ele>
        <time>2022-05-14T10:08:17Z</time>
      </trkpt>
      <trkpt lat="47.36695" lon="-1.40696">
        <ele>111</ele>
        <time>2022-05-14T10:08:19Z</time>
      </trkpt>
      <trkpt lat="47.36695" lon="-1.40678">
        <ele>111</ele>
        <time>2022-05-14T10:08:21Z</time>
      </trkpt>
      <trkpt lat="47.36695" lon="-1.40662">
        <ele>110</ele>
        <time>2022-05-14T10:08:23Z</time>
      </trkpt>
      <trkpt lat="47.36696" lon="-1.40647">
        <ele>110</ele>
        <time>2022-05-14T10:08:25Z</time>
      </trkpt>
      <trkpt lat="47.36697" lon="-1.4063">
        <ele>110</ele>
        <time>2022-05-14T10:08:27Z</time>
      </trkpt>
      <trkpt lat="47.36697" lon="-1.40613">
        <ele>110</ele>
        <time>2022-05-14T10:08:29Z</time>
      </trkpt>
      <trkpt lat="47.36698" lon="-1.40595">
        <ele>109</ele>
        <time>2022-05-14T10:08:31Z</time>
      </trkpt>
      <trkpt lat="47.36699" lon="-1.40577">
        <ele>109</ele>
        <time>2022-05-14T10:08:33Z</time>
      </trkpt>
      <trkpt lat="47.36699" lon="-1.40559">
        <ele>109</ele>
        <time>2022-05-14T10:08:35Z</time>
      </trkpt>
      <trkpt lat="47.36699" lon="-1.40541">
        <ele>108</ele>
        <time>2022-05-14T10:08:37Z</time>
      </trkpt>
      <trkpt lat="47.36697" lon="-1.40528">
        <ele>108</ele>
        <time>2022-05-14T10:08:39Z</time>
      </trkpt>
      <trkpt lat="47.36705" lon="-1.40515">
        <ele>108</ele>
        <time>2022-05-14T10:08:42Z</time>
      </trkpt>
      <trkpt lat="47.36715" lon="-1.40513">
        <ele>108</ele>
        <time>2022-05-14T10:08:44Z</time>
      </trkpt>
      <trkpt lat="47.36725" lon="-1.40506">
        <ele>107</ele>
        <time>2022-05-14T10:08:46Z</time>
      </trkpt>
      <trkpt lat="47.36727" lon="-1.40488">
        <ele>106</ele>
        <time>2022-05-14T10:08:48Z</time>
      </trkpt>
      <trkpt lat="47.36729" lon="-1.4047">
        <ele>106</ele>
        <time>2022-05-14T10:08:50Z</time>
      </trkpt>
      <trkpt lat="47.3673" lon="-1.40452">
        <ele>106</ele>
        <time>2022-05-14T10:08:52Z</time>
      </trkpt>
      <trkpt lat="47.3673" lon="-1.40434">
        <ele>106</ele>
        <time>2022-05-14T10:08:54Z</time>
      </trkpt>
      <trkpt lat="47.36733" lon="-1.40417">
        <ele>106</ele>
        <time>2022-05-14T10:08:56Z</time>
      </trkpt>
      <trkpt lat="47.36736" lon="-1.40399">
        <ele>106</ele>
        <time>2022-05-14T10:08:58Z</time>
      </trkpt>
      <trkpt lat="47.36738" lon="-1.40381">
        <ele>105</ele>
        <time>2022-05-14T10:09:00Z</time>
      </trkpt>
      <trkpt lat="47.36741" lon="-1.40364">
        <ele>104</ele>
        <time>2022-05-14T10:09:02Z</time>
      </trkpt>
      <trkpt lat="47.36744" lon="-1.40346">
        <ele>104</ele>
        <time>2022-05-14T10:09:04Z</time>
      </trkpt>
      <trkpt lat="47.36746" lon="-1.40328">
        <ele>104</ele>
        <time>2022-05-14T10:09:06Z</time>
      </trkpt>
      <trkpt lat="47.36749" lon="-1.40312">
        <ele>104</ele>
        <time>2022-05-14T10:09:08Z</time>
      </trkpt>
      <trkpt lat="47.36751" lon="-1.40294">
        <ele>103</ele>
        <time>2022-05-14T10:09:10Z</time>
      </trkpt>
      <trkpt lat="47.36754" lon="-1.40276">
        <ele>103</ele>
        <time>2022-05-14T10:09:12Z</time>
      </trkpt>
      <trkpt lat="47.36756" lon="-1.40258">
        <ele>103</ele>
        <time>2022-05-14T10:09:14Z</time>
      </trkpt>
      <trkpt lat="47.36759" lon="-1.40239">
        <ele>103</ele>
        <time>2022-05-14T10:09:16Z</time>
      </trkpt>
      <trkpt lat="47.36761" lon="-1.40221">
        <ele>103</ele>
        <time>2022-05-14T10:09:18Z</time>
      </trkpt>
      <trkpt lat="47.36762" lon="-1.40203">
        <ele>103</ele>
        <time>2022-05-14T10:09:20Z</time>
      </trkpt>
      <trkpt lat="47.36762" lon="-1.40184">
        <ele>103</ele>
        <time>2022-05-14T10:09:22Z</time>
      </trkpt>
      <trkpt lat="47.36763" lon="-1.40166">
        <ele>102</ele>
        <time>2022-05-14T10:09:24Z</time>
      </trkpt>
      <trkpt lat="47.36764" lon="-1.40147">
        <ele>102</ele>
        <time>2022-05-14T10:09:26Z</time>
      </trkpt>
      <trkpt lat="47.36764" lon="-1.40128">
        <ele>102</ele>
        <time>2022-05-14T10:09:28Z</time>
      </trkpt>
      <trkpt lat="47.36764" lon="-1.40111">
        <ele>103</ele>
        <time>2022-05-14T10:09:30Z</time>
      </trkpt>
      <trkpt lat="47.36764" lon="-1.40095">
        <ele>104</ele>
        <time>2022-05-14T10:09:32Z</time>
      </trkpt>
      <trkpt lat="47.36763" lon="-1.4008">
        <ele>104</ele>
        <time>2022-05-14T10:09:34Z</time>
      </trkpt>
      <trkpt lat="47.36763" lon="-1.40067">
        <ele>105</ele>
        <time>2022-05-14T10:09:36Z</time>
      </trkpt>
      <trkpt lat="47.36763" lon="-1.40053">
        <ele>105</ele>
        <time>2022-05-14T10:09:38Z</time>
      </trkpt>
      <trkpt lat="47.36764" lon="-1.40033">
        <ele>105</ele>
        <time>2022-05-14T10:09:41Z</time>
      </trkpt>
      <trkpt lat="47.36764" lon="-1.40019">
        <ele>105</ele>
        <time>2022-05-14T10:09:43Z</time>
      </trkpt>
      <trkpt lat="47.36764" lon="-1.40006">
        <ele>105</ele>
        <time>2022-05-14T10:09:45Z</time>
      </trkpt>
      <trkpt lat="47.36764" lon="-1.39992">
        <ele>106</ele>
        <time>2022-05-14T10:09:47Z</time>
      </trkpt>
      <trkpt lat="47.36764" lon="-1.39978">
        <ele>107</ele>
        <time>2022-05-14T10:09:49Z</time>
      </trkpt>
      <trkpt lat="47.36764" lon="-1.39959">
        <ele>107</ele>
        <time>2022-05-14T10:09:52Z</time>
      </trkpt>
      <trkpt lat="47.36764" lon="-1.39944">
        <ele>107</ele>
        <time>2022-05-14T10:09:54Z</time>
      </trkpt>
      <trkpt lat="47.36764" lon="-1.39926">
        <ele>109</ele>
        <time>2022-05-14T10:09:57Z</time>
      </trkpt>
      <trkpt lat="47.36765" lon="-1.39907">
        <ele>109</ele>
        <time>2022-05-14T10:10:00Z</time>
      </trkpt>
      <trkpt lat="47.36766" lon="-1.39893">
        <ele>110</ele>
        <time>2022-05-14T10:10:02Z</time>
      </trkpt>
      <trkpt lat="47.36765" lon="-1.3988">
        <ele>110</ele>
        <time>2022-05-14T10:10:04Z</time>
      </trkpt>
      <trkpt lat="47.36765" lon="-1.39866">
        <ele>110</ele>
        <time>2022-05-14T10:10:06Z</time>
      </trkpt>
      <trkpt lat="47.36765" lon="-1.39852">
        <ele>110</ele>
        <time>2022-05-14T10:10:08Z</time>
      </trkpt>
      <trkpt lat="47.36765" lon="-1.39839">
        <ele>110</ele>
        <time>2022-05-14T10:10:10Z</time>
      </trkpt>
      <trkpt lat="47.36764" lon="-1.39825">
        <ele>110</ele>
        <time>2022-05-14T10:10:12Z</time>
      </trkpt>
      <trkpt lat="47.36764" lon="-1.39812">
        <ele>110</ele>
        <time>2022-05-14T10:10:14Z</time>
      </trkpt>
      <trkpt lat="47.36765" lon="-1.39793">
        <ele>110</ele>
        <time>2022-05-14T10:10:17Z</time>
      </trkpt>
      <trkpt lat="47.36764" lon="-1.39779">
        <ele>111</ele>
        <time>2022-05-14T10:10:19Z</time>
      </trkpt>
      <trkpt lat="47.36764" lon="-1.39765">
        <ele>111</ele>
        <time>2022-05-14T10:10:21Z</time>
      </trkpt>
      <trkpt lat="47.36764" lon="-1.39752">
        <ele>111</ele>
        <time>2022-05-14T10:10:23Z</time>
      </trkpt>
      <trkpt lat="47.36764" lon="-1.39738">
        <ele>111</ele>
        <time>2022-05-14T10:10:25Z</time>
      </trkpt>
      <trkpt lat="47.36764" lon="-1.39723">
        <ele>111</ele>
        <time>2022-05-14T10:10:27Z</time>
      </trkpt>
      <trkpt lat="47.36764" lon="-1.3971">
        <ele>112</ele>
        <time>2022-05-14T10:10:29Z</time>
      </trkpt>
      <trkpt lat="47.36764" lon="-1.39696">
        <ele>112</ele>
        <time>2022-05-14T10:10:31Z</time>
      </trkpt>
      <trkpt lat="47.36764" lon="-1.39682">
        <ele>112</ele>
        <time>2022-05-14T10:10:33Z</time>
      </trkpt>
      <trkpt lat="47.36764" lon="-1.39668">
        <ele>112</ele>
        <time>2022-05-14T10:10:35Z</time>
      </trkpt>
      <trkpt lat="47.36765" lon="-1.39655">
        <ele>112</ele>
        <time>2022-05-14T10:10:37Z</time>
      </trkpt>
      <trkpt lat="47.36765" lon="-1.39641">
        <ele>113</ele>
        <time>2022-05-14T10:10:39Z</time>
      </trkpt>
      <trkpt lat="47.36765" lon="-1.39627">
        <ele>113</ele>
        <time>2022-05-14T10:10:41Z</time>
      </trkpt>
      <trkpt lat="47.36765" lon="-1.39614">
        <ele>113</ele>
        <time>2022-05-14T10:10:43Z</time>
      </trkpt>
      <trkpt lat="47.36765" lon="-1.39598">
        <ele>114</ele>
        <time>2022-05-14T10:10:45Z</time>
      </trkpt>
      <trkpt lat="47.36765" lon="-1.39585">
        <ele>114</ele>
        <time>2022-05-14T10:10:47Z</time>
      </trkpt>
      <trkpt lat="47.36765" lon="-1.39565">
        <ele>114</ele>
        <time>2022-05-14T10:10:50Z</time>
      </trkpt>
      <trkpt lat="47.36765" lon="-1.39551">
        <ele>115</ele>
        <time>2022-05-14T10:10:52Z</time>
      </trkpt>
      <trkpt lat="47.36765" lon="-1.39531">
        <ele>115</ele>
        <time>2022-05-14T10:10:55Z</time>
      </trkpt>
      <trkpt lat="47.36765" lon="-1.39516">
        <ele>115</ele>
        <time>2022-05-14T10:10:57Z</time>
      </trkpt>
      <trkpt lat="47.36765" lon="-1.39502">
        <ele>115</ele>
        <time>2022-05-14T10:10:59Z</time>
      </trkpt>
      <trkpt lat="47.36765" lon="-1.39488">
        <ele>115</ele>
        <time>2022-05-14T10:11:01Z</time>
      </trkpt>
      <trkpt lat="47.36765" lon="-1.39474">
        <ele>115</ele>
        <time>2022-05-14T10:11:03Z</time>
      </trkpt>
      <trkpt lat="47.36765" lon="-1.39459">
        <ele>115</ele>
        <time>2022-05-14T10:11:05Z</time>
      </trkpt>
      <trkpt lat="47.36766" lon="-1.39444">
        <ele>115</ele>
        <time>2022-05-14T10:11:07Z</time>
      </trkpt>
      <trkpt lat="47.36766" lon="-1.39429">
        <ele>114</ele>
        <time>2022-05-14T10:11:09Z</time>
      </trkpt>
      <trkpt lat="47.36765" lon="-1.39415">
        <ele>114</ele>
        <time>2022-05-14T10:11:11Z</time>
      </trkpt>
      <trkpt lat="47.36766" lon="-1.39401">
        <ele>114</ele>
        <time>2022-05-14T10:11:13Z</time>
      </trkpt>
      <trkpt lat="47.36766" lon="-1.39386">
        <ele>114</ele>
        <time>2022-05-14T10:11:15Z</time>
      </trkpt>
      <trkpt lat="47.36766" lon="-1.39372">
        <ele>114</ele>
        <time>2022-05-14T10:11:17Z</time>
      </trkpt>
      <trkpt lat="47.36765" lon="-1.39357">
        <ele>114</ele>
        <time>2022-05-14T10:11:19Z</time>
      </trkpt>
      <trkpt lat="47.36764" lon="-1.39342">
        <ele>114</ele>
        <time>2022-05-14T10:11:21Z</time>
      </trkpt>
      <trkpt lat="47.36762" lon="-1.39328">
        <ele>114</ele>
        <time>2022-05-14T10:11:23Z</time>
      </trkpt>
      <trkpt lat="47.3676" lon="-1.39314">
        <ele>114</ele>
        <time>2022-05-14T10:11:25Z</time>
      </trkpt>
      <trkpt lat="47.36757" lon="-1.393">
        <ele>114</ele>
        <time>2022-05-14T10:11:27Z</time>
      </trkpt>
      <trkpt lat="47.36754" lon="-1.39287">
        <ele>114</ele>
        <time>2022-05-14T10:11:29Z</time>
      </trkpt>
      <trkpt lat="47.3675" lon="-1.39274">
        <ele>114</ele>
        <time>2022-05-14T10:11:31Z</time>
      </trkpt>
      <trkpt lat="47.36745" lon="-1.39261">
        <ele>114</ele>
        <time>2022-05-14T10:11:33Z</time>
      </trkpt>
      <trkpt lat="47.3674" lon="-1.39249">
        <ele>114</ele>
        <time>2022-05-14T10:11:35Z</time>
      </trkpt>
      <trkpt lat="47.36735" lon="-1.39237">
        <ele>114</ele>
        <time>2022-05-14T10:11:37Z</time>
      </trkpt>
      <trkpt lat="47.36729" lon="-1.39225">
        <ele>114</ele>
        <time>2022-05-14T10:11:39Z</time>
      </trkpt>
      <trkpt lat="47.36723" lon="-1.39213">
        <ele>115</ele>
        <time>2022-05-14T10:11:41Z</time>
      </trkpt>
      <trkpt lat="47.36718" lon="-1.39201">
        <ele>115</ele>
        <time>2022-05-14T10:11:43Z</time>
      </trkpt>
      <trkpt lat="47.36712" lon="-1.39189">
        <ele>115</ele>
        <time>2022-05-14T10:11:45Z</time>
      </trkpt>
      <trkpt lat="47.36706" lon="-1.39176">
        <ele>115</ele>
        <time>2022-05-14T10:11:47Z</time>
      </trkpt>
      <trkpt lat="47.367" lon="-1.39164">
        <ele>116</ele>
        <time>2022-05-14T10:11:49Z</time>
      </trkpt>
      <trkpt lat="47.36694" lon="-1.39152">
        <ele>116</ele>
        <time>2022-05-14T10:11:51Z</time>
      </trkpt>
      <trkpt lat="47.36688" lon="-1.39139">
        <ele>116</ele>
        <time>2022-05-14T10:11:53Z</time>
      </trkpt>
      <trkpt lat="47.36682" lon="-1.39126">
        <ele>116</ele>
        <time>2022-05-14T10:11:55Z</time>
      </trkpt>
      <trkpt lat="47.36676" lon="-1.39114">
        <ele>116</ele>
        <time>2022-05-14T10:11:57Z</time>
      </trkpt>
      <trkpt lat="47.3667" lon="-1.39101">
        <ele>116</ele>
        <time>2022-05-14T10:11:59Z</time>
      </trkpt>
      <trkpt lat="47.36664" lon="-1.39089">
        <ele>116</ele>
        <time>2022-05-14T10:12:01Z</time>
      </trkpt>
      <trkpt lat="47.36658" lon="-1.39076">
        <ele>117</ele>
        <time>2022-05-14T10:12:03Z</time>
      </trkpt>
      <trkpt lat="47.36652" lon="-1.39062">
        <ele>117</ele>
        <time>2022-05-14T10:12:05Z</time>
      </trkpt>
      <trkpt lat="47.36645" lon="-1.39049">
        <ele>117</ele>
        <time>2022-05-14T10:12:07Z</time>
      </trkpt>
      <trkpt lat="47.36639" lon="-1.39037">
        <ele>117</ele>
        <time>2022-05-14T10:12:09Z</time>
      </trkpt>
      <trkpt lat="47.36633" lon="-1.39023">
        <ele>117</ele>
        <time>2022-05-14T10:12:11Z</time>
      </trkpt>
      <trkpt lat="47.36626" lon="-1.3901">
        <ele>116</ele>
        <time>2022-05-14T10:12:13Z</time>
      </trkpt>
      <trkpt lat="47.3662" lon="-1.38997">
        <ele>117</ele>
        <time>2022-05-14T10:12:15Z</time>
      </trkpt>
      <trkpt lat="47.36614" lon="-1.38984">
        <ele>117</ele>
        <time>2022-05-14T10:12:17Z</time>
      </trkpt>
      <trkpt lat="47.36608" lon="-1.38971">
        <ele>118</ele>
        <time>2022-05-14T10:12:19Z</time>
      </trkpt>
      <trkpt lat="47.36602" lon="-1.38958">
        <ele>118</ele>
        <time>2022-05-14T10:12:21Z</time>
      </trkpt>
      <trkpt lat="47.36597" lon="-1.38945">
        <ele>118</ele>
        <time>2022-05-14T10:12:23Z</time>
      </trkpt>
      <trkpt lat="47.36591" lon="-1.38933">
        <ele>119</ele>
        <time>2022-05-14T10:12:25Z</time>
      </trkpt>
      <trkpt lat="47.36585" lon="-1.3892">
        <ele>118</ele>
        <time>2022-05-14T10:12:27Z</time>
      </trkpt>
      <trkpt lat="47.36578" lon="-1.38907">
        <ele>119</ele>
        <time>2022-05-14T10:12:29Z</time>
      </trkpt>
      <trkpt lat="47.36571" lon="-1.38893">
        <ele>118</ele>
        <time>2022-05-14T10:12:31Z</time>
      </trkpt>
      <trkpt lat="47.36565" lon="-1.3888">
        <ele>118</ele>
        <time>2022-05-14T10:12:33Z</time>
      </trkpt>
      <trkpt lat="47.36559" lon="-1.38867">
        <ele>118</ele>
        <time>2022-05-14T10:12:35Z</time>
      </trkpt>
      <trkpt lat="47.36553" lon="-1.38854">
        <ele>118</ele>
        <time>2022-05-14T10:12:37Z</time>
      </trkpt>
      <trkpt lat="47.36547" lon="-1.38842">
        <ele>119</ele>
        <time>2022-05-14T10:12:39Z</time>
      </trkpt>
      <trkpt lat="47.36541" lon="-1.3883">
        <ele>119</ele>
        <time>2022-05-14T10:12:41Z</time>
      </trkpt>
      <trkpt lat="47.36535" lon="-1.38817">
        <ele>119</ele>
        <time>2022-05-14T10:12:43Z</time>
      </trkpt>
      <trkpt lat="47.36529" lon="-1.38804">
        <ele>119</ele>
        <time>2022-05-14T10:12:45Z</time>
      </trkpt>
      <trkpt lat="47.36523" lon="-1.38791">
        <ele>119</ele>
        <time>2022-05-14T10:12:47Z</time>
      </trkpt>
      <trkpt lat="47.36517" lon="-1.38779">
        <ele>119</ele>
        <time>2022-05-14T10:12:49Z</time>
      </trkpt>
      <trkpt lat="47.36511" lon="-1.38767">
        <ele>119</ele>
        <time>2022-05-14T10:12:51Z</time>
      </trkpt>
      <trkpt lat="47.36505" lon="-1.38754">
        <ele>119</ele>
        <time>2022-05-14T10:12:53Z</time>
      </trkpt>
      <trkpt lat="47.36498" lon="-1.38741">
        <ele>119</ele>
        <time>2022-05-14T10:12:55Z</time>
      </trkpt>
      <trkpt lat="47.36492" lon="-1.38728">
        <ele>119</ele>
        <time>2022-05-14T10:12:57Z</time>
      </trkpt>
      <trkpt lat="47.36487" lon="-1.38716">
        <ele>120</ele>
        <time>2022-05-14T10:12:59Z</time>
      </trkpt>
      <trkpt lat="47.36481" lon="-1.38704">
        <ele>121</ele>
        <time>2022-05-14T10:13:01Z</time>
      </trkpt>
      <trkpt lat="47.36475" lon="-1.38691">
        <ele>121</ele>
        <time>2022-05-14T10:13:03Z</time>
      </trkpt>
      <trkpt lat="47.36469" lon="-1.38678">
        <ele>121</ele>
        <time>2022-05-14T10:13:05Z</time>
      </trkpt>
      <trkpt lat="47.36463" lon="-1.38665">
        <ele>121</ele>
        <time>2022-05-14T10:13:07Z</time>
      </trkpt>
      <trkpt lat="47.36457" lon="-1.38652">
        <ele>121</ele>
        <time>2022-05-14T10:13:09Z</time>
      </trkpt>
      <trkpt lat="47.3645" lon="-1.38639">
        <ele>121</ele>
        <time>2022-05-14T10:13:11Z</time>
      </trkpt>
      <trkpt lat="47.36444" lon="-1.38626">
        <ele>120</ele>
        <time>2022-05-14T10:13:13Z</time>
      </trkpt>
      <trkpt lat="47.36438" lon="-1.38613">
        <ele>120</ele>
        <time>2022-05-14T10:13:15Z</time>
      </trkpt>
      <trkpt lat="47.36432" lon="-1.386">
        <ele>120</ele>
        <time>2022-05-14T10:13:17Z</time>
      </trkpt>
      <trkpt lat="47.36425" lon="-1.38587">
        <ele>120</ele>
        <time>2022-05-14T10:13:19Z</time>
      </trkpt>
      <trkpt lat="47.36415" lon="-1.38569">
        <ele>120</ele>
        <time>2022-05-14T10:13:22Z</time>
      </trkpt>
      <trkpt lat="47.36405" lon="-1.38551">
        <ele>120</ele>
        <time>2022-05-14T10:13:25Z</time>
      </trkpt>
      <trkpt lat="47.36397" lon="-1.3854">
        <ele>120</ele>
        <time>2022-05-14T10:13:27Z</time>
      </trkpt>
      <trkpt lat="47.3639" lon="-1.38528">
        <ele>120</ele>
        <time>2022-05-14T10:13:29Z</time>
      </trkpt>
      <trkpt lat="47.36378" lon="-1.38511">
        <ele>119</ele>
        <time>2022-05-14T10:13:32Z</time>
      </trkpt>
      <trkpt lat="47.36371" lon="-1.38499">
        <ele>119</ele>
        <time>2022-05-14T10:13:34Z</time>
      </trkpt>
      <trkpt lat="47.36363" lon="-1.38487">
        <ele>119</ele>
        <time>2022-05-14T10:13:36Z</time>
      </trkpt>
      <trkpt lat="47.36355" lon="-1.38476">
        <ele>119</ele>
        <time>2022-05-14T10:13:38Z</time>
      </trkpt>
      <trkpt lat="47.36347" lon="-1.38464">
        <ele>119</ele>
        <time>2022-05-14T10:13:40Z</time>
      </trkpt>
      <trkpt lat="47.36339" lon="-1.38452">
        <ele>119</ele>
        <time>2022-05-14T10:13:42Z</time>
      </trkpt>
      <trkpt lat="47.36331" lon="-1.3844">
        <ele>119</ele>
        <time>2022-05-14T10:13:44Z</time>
      </trkpt>
      <trkpt lat="47.36324" lon="-1.38428">
        <ele>119</ele>
        <time>2022-05-14T10:13:46Z</time>
      </trkpt>
      <trkpt lat="47.36316" lon="-1.38417">
        <ele>119</ele>
        <time>2022-05-14T10:13:48Z</time>
      </trkpt>
      <trkpt lat="47.36308" lon="-1.38405">
        <ele>119</ele>
        <time>2022-05-14T10:13:50Z</time>
      </trkpt>
      <trkpt lat="47.363" lon="-1.38393">
        <ele>119</ele>
        <time>2022-05-14T10:13:52Z</time>
      </trkpt>
      <trkpt lat="47.36293" lon="-1.38382">
        <ele>119</ele>
        <time>2022-05-14T10:13:54Z</time>
      </trkpt>
      <trkpt lat="47.36285" lon="-1.38371">
        <ele>119</ele>
        <time>2022-05-14T10:13:56Z</time>
      </trkpt>
      <trkpt lat="47.36277" lon="-1.38359">
        <ele>119</ele>
        <time>2022-05-14T10:13:58Z</time>
      </trkpt>
      <trkpt lat="47.36269" lon="-1.38347">
        <ele>119</ele>
        <time>2022-05-14T10:14:00Z</time>
      </trkpt>
      <trkpt lat="47.36262" lon="-1.38335">
        <ele>119</ele>
        <time>2022-05-14T10:14:02Z</time>
      </trkpt>
      <trkpt lat="47.36254" lon="-1.38324">
        <ele>119</ele>
        <time>2022-05-14T10:14:04Z</time>
      </trkpt>
      <trkpt lat="47.36246" lon="-1.38313">
        <ele>119</ele>
        <time>2022-05-14T10:14:06Z</time>
      </trkpt>
      <trkpt lat="47.36239" lon="-1.38302">
        <ele>118</ele>
        <time>2022-05-14T10:14:08Z</time>
      </trkpt>
      <trkpt lat="47.36232" lon="-1.3829">
        <ele>118</ele>
        <time>2022-05-14T10:14:10Z</time>
      </trkpt>
      <trkpt lat="47.36225" lon="-1.38278">
        <ele>118</ele>
        <time>2022-05-14T10:14:12Z</time>
      </trkpt>
      <trkpt lat="47.36217" lon="-1.38267">
        <ele>118</ele>
        <time>2022-05-14T10:14:14Z</time>
      </trkpt>
      <trkpt lat="47.36209" lon="-1.38256">
        <ele>118</ele>
        <time>2022-05-14T10:14:16Z</time>
      </trkpt>
      <trkpt lat="47.36202" lon="-1.38244">
        <ele>118</ele>
        <time>2022-05-14T10:14:18Z</time>
      </trkpt>
      <trkpt lat="47.36194" lon="-1.38233">
        <ele>118</ele>
        <time>2022-05-14T10:14:20Z</time>
      </trkpt>
      <trkpt lat="47.36186" lon="-1.38222">
        <ele>118</ele>
        <time>2022-05-14T10:14:22Z</time>
      </trkpt>
      <trkpt lat="47.36178" lon="-1.3821">
        <ele>118</ele>
        <time>2022-05-14T10:14:24Z</time>
      </trkpt>
      <trkpt lat="47.36171" lon="-1.38199">
        <ele>118</ele>
        <time>2022-05-14T10:14:26Z</time>
      </trkpt>
      <trkpt lat="47.36164" lon="-1.38188">
        <ele>119</ele>
        <time>2022-05-14T10:14:28Z</time>
      </trkpt>
      <trkpt lat="47.36157" lon="-1.38177">
        <ele>119</ele>
        <time>2022-05-14T10:14:30Z</time>
      </trkpt>
      <trkpt lat="47.36149" lon="-1.38166">
        <ele>119</ele>
        <time>2022-05-14T10:14:32Z</time>
      </trkpt>
      <trkpt lat="47.36142" lon="-1.38155">
        <ele>119</ele>
        <time>2022-05-14T10:14:34Z</time>
      </trkpt>
      <trkpt lat="47.36135" lon="-1.38144">
        <ele>120</ele>
        <time>2022-05-14T10:14:36Z</time>
      </trkpt>
      <trkpt lat="47.36127" lon="-1.38133">
        <ele>120</ele>
        <time>2022-05-14T10:14:38Z</time>
      </trkpt>
      <trkpt lat="47.3612" lon="-1.38122">
        <ele>120</ele>
        <time>2022-05-14T10:14:40Z</time>
      </trkpt>
      <trkpt lat="47.36113" lon="-1.38111">
        <ele>120</ele>
        <time>2022-05-14T10:14:42Z</time>
      </trkpt>
      <trkpt lat="47.36107" lon="-1.38101">
        <ele>120</ele>
        <time>2022-05-14T10:14:44Z</time>
      </trkpt>
      <trkpt lat="47.361" lon="-1.3809">
        <ele>120</ele>
        <time>2022-05-14T10:14:46Z</time>
      </trkpt>
      <trkpt lat="47.36093" lon="-1.3808">
        <ele>121</ele>
        <time>2022-05-14T10:14:48Z</time>
      </trkpt>
      <trkpt lat="47.36086" lon="-1.3807">
        <ele>121</ele>
        <time>2022-05-14T10:14:50Z</time>
      </trkpt>
      <trkpt lat="47.36079" lon="-1.38059">
        <ele>121</ele>
        <time>2022-05-14T10:14:52Z</time>
      </trkpt>
      <trkpt lat="47.36072" lon="-1.38048">
        <ele>121</ele>
        <time>2022-05-14T10:14:54Z</time>
      </trkpt>
      <trkpt lat="47.36064" lon="-1.38037">
        <ele>120</ele>
        <time>2022-05-14T10:14:56Z</time>
      </trkpt>
      <trkpt lat="47.36057" lon="-1.38028">
        <ele>121</ele>
        <time>2022-05-14T10:14:58Z</time>
      </trkpt>
      <trkpt lat="47.3605" lon="-1.38017">
        <ele>121</ele>
        <time>2022-05-14T10:15:00Z</time>
      </trkpt>
      <trkpt lat="47.36044" lon="-1.38006">
        <ele>121</ele>
        <time>2022-05-14T10:15:02Z</time>
      </trkpt>
      <trkpt lat="47.36037" lon="-1.37996">
        <ele>121</ele>
        <time>2022-05-14T10:15:04Z</time>
      </trkpt>
      <trkpt lat="47.3603" lon="-1.37986">
        <ele>121</ele>
        <time>2022-05-14T10:15:06Z</time>
      </trkpt>
      <trkpt lat="47.36022" lon="-1.37975">
        <ele>122</ele>
        <time>2022-05-14T10:15:08Z</time>
      </trkpt>
      <trkpt lat="47.36015" lon="-1.37965">
        <ele>122</ele>
        <time>2022-05-14T10:15:10Z</time>
      </trkpt>
      <trkpt lat="47.36008" lon="-1.37953">
        <ele>122</ele>
        <time>2022-05-14T10:15:12Z</time>
      </trkpt>
      <trkpt lat="47.36001" lon="-1.37942">
        <ele>122</ele>
        <time>2022-05-14T10:15:14Z</time>
      </trkpt>
      <trkpt lat="47.35993" lon="-1.37931">
        <ele>122</ele>
        <time>2022-05-14T10:15:16Z</time>
      </trkpt>
      <trkpt lat="47.35986" lon="-1.3792">
        <ele>122</ele>
        <time>2022-05-14T10:15:18Z</time>
      </trkpt>
      <trkpt lat="47.35979" lon="-1.37909">
        <ele>123</ele>
        <time>2022-05-14T10:15:20Z</time>
      </trkpt>
      <trkpt lat="47.35971" lon="-1.37899">
        <ele>123</ele>
        <time>2022-05-14T10:15:22Z</time>
      </trkpt>
      <trkpt lat="47.35964" lon="-1.37887">
        <ele>123</ele>
        <time>2022-05-14T10:15:24Z</time>
      </trkpt>
      <trkpt lat="47.35957" lon="-1.37875">
        <ele>123</ele>
        <time>2022-05-14T10:15:26Z</time>
      </trkpt>
      <trkpt lat="47.35949" lon="-1.37865">
        <ele>123</ele>
        <time>2022-05-14T10:15:28Z</time>
      </trkpt>
      <trkpt lat="47.35942" lon="-1.37854">
        <ele>123</ele>
        <time>2022-05-14T10:15:30Z</time>
      </trkpt>
      <trkpt lat="47.35935" lon="-1.37844">
        <ele>124</ele>
        <time>2022-05-14T10:15:32Z</time>
      </trkpt>
      <trkpt lat="47.35928" lon="-1.37833">
        <ele>124</ele>
        <time>2022-05-14T10:15:34Z</time>
      </trkpt>
      <trkpt lat="47.35922" lon="-1.37823">
        <ele>124</ele>
        <time>2022-05-14T10:15:36Z</time>
      </trkpt>
      <trkpt lat="47.35914" lon="-1.37812">
        <ele>125</ele>
        <time>2022-05-14T10:15:38Z</time>
      </trkpt>
      <trkpt lat="47.35907" lon="-1.37801">
        <ele>125</ele>
        <time>2022-05-14T10:15:40Z</time>
      </trkpt>
      <trkpt lat="47.359" lon="-1.37791">
        <ele>125</ele>
        <time>2022-05-14T10:15:42Z</time>
      </trkpt>
      <trkpt lat="47.35893" lon="-1.3778">
        <ele>125</ele>
        <time>2022-05-14T10:15:44Z</time>
      </trkpt>
      <trkpt lat="47.35885" lon="-1.37769">
        <ele>125</ele>
        <time>2022-05-14T10:15:46Z</time>
      </trkpt>
      <trkpt lat="47.35878" lon="-1.37758">
        <ele>125</ele>
        <time>2022-05-14T10:15:48Z</time>
      </trkpt>
      <trkpt lat="47.35871" lon="-1.37747">
        <ele>125</ele>
        <time>2022-05-14T10:15:50Z</time>
      </trkpt>
      <trkpt lat="47.35864" lon="-1.37737">
        <ele>126</ele>
        <time>2022-05-14T10:15:52Z</time>
      </trkpt>
      <trkpt lat="47.35857" lon="-1.37727">
        <ele>126</ele>
        <time>2022-05-14T10:15:54Z</time>
      </trkpt>
      <trkpt lat="47.35851" lon="-1.37716">
        <ele>126</ele>
        <time>2022-05-14T10:15:56Z</time>
      </trkpt>
      <trkpt lat="47.35844" lon="-1.37706">
        <ele>126</ele>
        <time>2022-05-14T10:15:58Z</time>
      </trkpt>
      <trkpt lat="47.35837" lon="-1.37697">
        <ele>126</ele>
        <time>2022-05-14T10:16:00Z</time>
      </trkpt>
      <trkpt lat="47.3583" lon="-1.37686">
        <ele>126</ele>
        <time>2022-05-14T10:16:02Z</time>
      </trkpt>
      <trkpt lat="47.35824" lon="-1.37676">
        <ele>126</ele>
        <time>2022-05-14T10:16:04Z</time>
      </trkpt>
      <trkpt lat="47.35817" lon="-1.37666">
        <ele>126</ele>
        <time>2022-05-14T10:16:06Z</time>
      </trkpt>
      <trkpt lat="47.35811" lon="-1.37656">
        <ele>127</ele>
        <time>2022-05-14T10:16:08Z</time>
      </trkpt>
      <trkpt lat="47.35804" lon="-1.37646">
        <ele>127</ele>
        <time>2022-05-14T10:16:10Z</time>
      </trkpt>
      <trkpt lat="47.35797" lon="-1.37636">
        <ele>127</ele>
        <time>2022-05-14T10:16:12Z</time>
      </trkpt>
      <trkpt lat="47.3579" lon="-1.37626">
        <ele>128</ele>
        <time>2022-05-14T10:16:14Z</time>
      </trkpt>
      <trkpt lat="47.35783" lon="-1.37616">
        <ele>128</ele>
        <time>2022-05-14T10:16:16Z</time>
      </trkpt>
      <trkpt lat="47.35776" lon="-1.37604">
        <ele>128</ele>
        <time>2022-05-14T10:16:18Z</time>
      </trkpt>
      <trkpt lat="47.35768" lon="-1.37594">
        <ele>128</ele>
        <time>2022-05-14T10:16:20Z</time>
      </trkpt>
      <trkpt lat="47.35761" lon="-1.37583">
        <ele>128</ele>
        <time>2022-05-14T10:16:22Z</time>
      </trkpt>
      <trkpt lat="47.35754" lon="-1.37572">
        <ele>129</ele>
        <time>2022-05-14T10:16:24Z</time>
      </trkpt>
      <trkpt lat="47.35747" lon="-1.37561">
        <ele>129</ele>
        <time>2022-05-14T10:16:26Z</time>
      </trkpt>
      <trkpt lat="47.3574" lon="-1.37549">
        <ele>129</ele>
        <time>2022-05-14T10:16:28Z</time>
      </trkpt>
      <trkpt lat="47.35732" lon="-1.37538">
        <ele>129</ele>
        <time>2022-05-14T10:16:30Z</time>
      </trkpt>
      <trkpt lat="47.35725" lon="-1.37528">
        <ele>129</ele>
        <time>2022-05-14T10:16:32Z</time>
      </trkpt>
      <trkpt lat="47.35718" lon="-1.37517">
        <ele>129</ele>
        <time>2022-05-14T10:16:34Z</time>
      </trkpt>
      <trkpt lat="47.3571" lon="-1.37505">
        <ele>129</ele>
        <time>2022-05-14T10:16:36Z</time>
      </trkpt>
      <trkpt lat="47.35703" lon="-1.37494">
        <ele>129</ele>
        <time>2022-05-14T10:16:38Z</time>
      </trkpt>
      <trkpt lat="47.35696" lon="-1.37482">
        <ele>129</ele>
        <time>2022-05-14T10:16:40Z</time>
      </trkpt>
      <trkpt lat="47.35688" lon="-1.37472">
        <ele>129</ele>
        <time>2022-05-14T10:16:42Z</time>
      </trkpt>
      <trkpt lat="47.35681" lon="-1.37461">
        <ele>130</ele>
        <time>2022-05-14T10:16:44Z</time>
      </trkpt>
      <trkpt lat="47.35674" lon="-1.3745">
        <ele>130</ele>
        <time>2022-05-14T10:16:46Z</time>
      </trkpt>
      <trkpt lat="47.35666" lon="-1.37439">
        <ele>130</ele>
        <time>2022-05-14T10:16:48Z</time>
      </trkpt>
      <trkpt lat="47.35659" lon="-1.37428">
        <ele>130</ele>
        <time>2022-05-14T10:16:50Z</time>
      </trkpt>
      <trkpt lat="47.35652" lon="-1.37416">
        <ele>130</ele>
        <time>2022-05-14T10:16:52Z</time>
      </trkpt>
      <trkpt lat="47.35643" lon="-1.37404">
        <ele>130</ele>
        <time>2022-05-14T10:16:54Z</time>
      </trkpt>
      <trkpt lat="47.35636" lon="-1.37392">
        <ele>130</ele>
        <time>2022-05-14T10:16:56Z</time>
      </trkpt>
      <trkpt lat="47.35627" lon="-1.3738">
        <ele>130</ele>
        <time>2022-05-14T10:16:58Z</time>
      </trkpt>
      <trkpt lat="47.35619" lon="-1.37367">
        <ele>129</ele>
        <time>2022-05-14T10:17:00Z</time>
      </trkpt>
      <trkpt lat="47.3561" lon="-1.37353">
        <ele>129</ele>
        <time>2022-05-14T10:17:02Z</time>
      </trkpt>
      <trkpt lat="47.35601" lon="-1.37341">
        <ele>129</ele>
        <time>2022-05-14T10:17:04Z</time>
      </trkpt>
      <trkpt lat="47.35593" lon="-1.37328">
        <ele>129</ele>
        <time>2022-05-14T10:17:06Z</time>
      </trkpt>
      <trkpt lat="47.35584" lon="-1.37315">
        <ele>129</ele>
        <time>2022-05-14T10:17:08Z</time>
      </trkpt>
      <trkpt lat="47.35576" lon="-1.37301">
        <ele>129</ele>
        <time>2022-05-14T10:17:10Z</time>
      </trkpt>
      <trkpt lat="47.35567" lon="-1.37288">
        <ele>129</ele>
        <time>2022-05-14T10:17:12Z</time>
      </trkpt>
      <trkpt lat="47.35558" lon="-1.37276">
        <ele>130</ele>
        <time>2022-05-14T10:17:14Z</time>
      </trkpt>
      <trkpt lat="47.35549" lon="-1.37264">
        <ele>130</ele>
        <time>2022-05-14T10:17:16Z</time>
      </trkpt>
      <trkpt lat="47.35541" lon="-1.37251">
        <ele>131</ele>
        <time>2022-05-14T10:17:18Z</time>
      </trkpt>
      <trkpt lat="47.35533" lon="-1.37237">
        <ele>131</ele>
        <time>2022-05-14T10:17:20Z</time>
      </trkpt>
      <trkpt lat="47.35523" lon="-1.37223">
        <ele>131</ele>
        <time>2022-05-14T10:17:22Z</time>
      </trkpt>
      <trkpt lat="47.35515" lon="-1.37208">
        <ele>132</ele>
        <time>2022-05-14T10:17:24Z</time>
      </trkpt>
      <trkpt lat="47.35507" lon="-1.37196">
        <ele>132</ele>
        <time>2022-05-14T10:17:26Z</time>
      </trkpt>
      <trkpt lat="47.355" lon="-1.37183">
        <ele>133</ele>
        <time>2022-05-14T10:17:28Z</time>
      </trkpt>
      <trkpt lat="47.35492" lon="-1.37171">
        <ele>133</ele>
        <time>2022-05-14T10:17:30Z</time>
      </trkpt>
      <trkpt lat="47.35484" lon="-1.3716">
        <ele>133</ele>
        <time>2022-05-14T10:17:32Z</time>
      </trkpt>
      <trkpt lat="47.35475" lon="-1.37148">
        <ele>133</ele>
        <time>2022-05-14T10:17:34Z</time>
      </trkpt>
      <trkpt lat="47.35466" lon="-1.37136">
        <ele>133</ele>
        <time>2022-05-14T10:17:36Z</time>
      </trkpt>
      <trkpt lat="47.35457" lon="-1.37124">
        <ele>134</ele>
        <time>2022-05-14T10:17:38Z</time>
      </trkpt>
      <trkpt lat="47.35449" lon="-1.37111">
        <ele>134</ele>
        <time>2022-05-14T10:17:40Z</time>
      </trkpt>
      <trkpt lat="47.35442" lon="-1.37098">
        <ele>134</ele>
        <time>2022-05-14T10:17:42Z</time>
      </trkpt>
      <trkpt lat="47.35433" lon="-1.37087">
        <ele>134</ele>
        <time>2022-05-14T10:17:44Z</time>
      </trkpt>
      <trkpt lat="47.35424" lon="-1.37076">
        <ele>135</ele>
        <time>2022-05-14T10:17:46Z</time>
      </trkpt>
      <trkpt lat="47.35416" lon="-1.37063">
        <ele>135</ele>
        <time>2022-05-14T10:17:48Z</time>
      </trkpt>
      <trkpt lat="47.35408" lon="-1.3705">
        <ele>135</ele>
        <time>2022-05-14T10:17:50Z</time>
      </trkpt>
      <trkpt lat="47.354" lon="-1.37038">
        <ele>135</ele>
        <time>2022-05-14T10:17:52Z</time>
      </trkpt>
      <trkpt lat="47.35391" lon="-1.37025">
        <ele>134</ele>
        <time>2022-05-14T10:17:54Z</time>
      </trkpt>
      <trkpt lat="47.35383" lon="-1.37013">
        <ele>134</ele>
        <time>2022-05-14T10:17:56Z</time>
      </trkpt>
      <trkpt lat="47.35375" lon="-1.37001">
        <ele>134</ele>
        <time>2022-05-14T10:17:58Z</time>
      </trkpt>
      <trkpt lat="47.35367" lon="-1.36988">
        <ele>133</ele>
        <time>2022-05-14T10:18:00Z</time>
      </trkpt>
      <trkpt lat="47.35358" lon="-1.36975">
        <ele>133</ele>
        <time>2022-05-14T10:18:02Z</time>
      </trkpt>
      <trkpt lat="47.3535" lon="-1.36962">
        <ele>133</ele>
        <time>2022-05-14T10:18:04Z</time>
      </trkpt>
      <trkpt lat="47.35342" lon="-1.3695">
        <ele>133</ele>
        <time>2022-05-14T10:18:06Z</time>
      </trkpt>
      <trkpt lat="47.35334" lon="-1.36938">
        <ele>133</ele>
        <time>2022-05-14T10:18:08Z</time>
      </trkpt>
      <trkpt lat="47.35326" lon="-1.36926">
        <ele>133</ele>
        <time>2022-05-14T10:18:10Z</time>
      </trkpt>
      <trkpt lat="47.35317" lon="-1.36914">
        <ele>133</ele>
        <time>2022-05-14T10:18:12Z</time>
      </trkpt>
      <trkpt lat="47.35309" lon="-1.36901">
        <ele>133</ele>
        <time>2022-05-14T10:18:14Z</time>
      </trkpt>
      <trkpt lat="47.35301" lon="-1.36889">
        <ele>133</ele>
        <time>2022-05-14T10:18:16Z</time>
      </trkpt>
      <trkpt lat="47.35293" lon="-1.36877">
        <ele>133</ele>
        <time>2022-05-14T10:18:18Z</time>
      </trkpt>
      <trkpt lat="47.35284" lon="-1.36864">
        <ele>133</ele>
        <time>2022-05-14T10:18:20Z</time>
      </trkpt>
      <trkpt lat="47.35276" lon="-1.36851">
        <ele>133</ele>
        <time>2022-05-14T10:18:22Z</time>
      </trkpt>
      <trkpt lat="47.35268" lon="-1.36838">
        <ele>132</ele>
        <time>2022-05-14T10:18:24Z</time>
      </trkpt>
      <trkpt lat="47.3526" lon="-1.36826">
        <ele>133</ele>
        <time>2022-05-14T10:18:26Z</time>
      </trkpt>
      <trkpt lat="47.35251" lon="-1.36813">
        <ele>132</ele>
        <time>2022-05-14T10:18:28Z</time>
      </trkpt>
      <trkpt lat="47.35243" lon="-1.36801">
        <ele>132</ele>
        <time>2022-05-14T10:18:30Z</time>
      </trkpt>
      <trkpt lat="47.35235" lon="-1.36789">
        <ele>133</ele>
        <time>2022-05-14T10:18:32Z</time>
      </trkpt>
      <trkpt lat="47.35227" lon="-1.36778">
        <ele>133</ele>
        <time>2022-05-14T10:18:34Z</time>
      </trkpt>
      <trkpt lat="47.35218" lon="-1.36766">
        <ele>133</ele>
        <time>2022-05-14T10:18:36Z</time>
      </trkpt>
      <trkpt lat="47.3521" lon="-1.36754">
        <ele>133</ele>
        <time>2022-05-14T10:18:38Z</time>
      </trkpt>
      <trkpt lat="47.35202" lon="-1.36741">
        <ele>134</ele>
        <time>2022-05-14T10:18:40Z</time>
      </trkpt>
      <trkpt lat="47.35194" lon="-1.36728">
        <ele>134</ele>
        <time>2022-05-14T10:18:42Z</time>
      </trkpt>
      <trkpt lat="47.35186" lon="-1.36715">
        <ele>133</ele>
        <time>2022-05-14T10:18:44Z</time>
      </trkpt>
      <trkpt lat="47.35177" lon="-1.36701">
        <ele>133</ele>
        <time>2022-05-14T10:18:46Z</time>
      </trkpt>
      <trkpt lat="47.35169" lon="-1.36689">
        <ele>133</ele>
        <time>2022-05-14T10:18:48Z</time>
      </trkpt>
      <trkpt lat="47.35162" lon="-1.36676">
        <ele>132</ele>
        <time>2022-05-14T10:18:50Z</time>
      </trkpt>
      <trkpt lat="47.35153" lon="-1.36663">
        <ele>132</ele>
        <time>2022-05-14T10:18:52Z</time>
      </trkpt>
      <trkpt lat="47.35145" lon="-1.3665">
        <ele>132</ele>
        <time>2022-05-14T10:18:54Z</time>
      </trkpt>
      <trkpt lat="47.35136" lon="-1.36638">
        <ele>132</ele>
        <time>2022-05-14T10:18:56Z</time>
      </trkpt>
      <trkpt lat="47.35128" lon="-1.36625">
        <ele>132</ele>
        <time>2022-05-14T10:18:58Z</time>
      </trkpt>
      <trkpt lat="47.3512" lon="-1.36613">
        <ele>133</ele>
        <time>2022-05-14T10:19:00Z</time>
      </trkpt>
      <trkpt lat="47.35111" lon="-1.36602">
        <ele>133</ele>
        <time>2022-05-14T10:19:02Z</time>
      </trkpt>
      <trkpt lat="47.35102" lon="-1.36591">
        <ele>133</ele>
        <time>2022-05-14T10:19:04Z</time>
      </trkpt>
      <trkpt lat="47.35093" lon="-1.36579">
        <ele>134</ele>
        <time>2022-05-14T10:19:06Z</time>
      </trkpt>
      <trkpt lat="47.35085" lon="-1.36568">
        <ele>134</ele>
        <time>2022-05-14T10:19:08Z</time>
      </trkpt>
      <trkpt lat="47.35077" lon="-1.36554">
        <ele>134</ele>
        <time>2022-05-14T10:19:10Z</time>
      </trkpt>
      <trkpt lat="47.35069" lon="-1.3654">
        <ele>134</ele>
        <time>2022-05-14T10:19:12Z</time>
      </trkpt>
      <trkpt lat="47.35062" lon="-1.36527">
        <ele>134</ele>
        <time>2022-05-14T10:19:14Z</time>
      </trkpt>
      <trkpt lat="47.35054" lon="-1.36514">
        <ele>134</ele>
        <time>2022-05-14T10:19:16Z</time>
      </trkpt>
      <trkpt lat="47.35047" lon="-1.36501">
        <ele>133</ele>
        <time>2022-05-14T10:19:18Z</time>
      </trkpt>
      <trkpt lat="47.35039" lon="-1.36488">
        <ele>133</ele>
        <time>2022-05-14T10:19:20Z</time>
      </trkpt>
      <trkpt lat="47.35031" lon="-1.36475">
        <ele>132</ele>
        <time>2022-05-14T10:19:22Z</time>
      </trkpt>
      <trkpt lat="47.35022" lon="-1.36462">
        <ele>132</ele>
        <time>2022-05-14T10:19:24Z</time>
      </trkpt>
      <trkpt lat="47.35013" lon="-1.36451">
        <ele>132</ele>
        <time>2022-05-14T10:19:26Z</time>
      </trkpt>
      <trkpt lat="47.35005" lon="-1.36439">
        <ele>131</ele>
        <time>2022-05-14T10:19:28Z</time>
      </trkpt>
      <trkpt lat="47.34995" lon="-1.36428">
        <ele>131</ele>
        <time>2022-05-14T10:19:30Z</time>
      </trkpt>
      <trkpt lat="47.34987" lon="-1.36418">
        <ele>131</ele>
        <time>2022-05-14T10:19:32Z</time>
      </trkpt>
      <trkpt lat="47.34978" lon="-1.36407">
        <ele>131</ele>
        <time>2022-05-14T10:19:34Z</time>
      </trkpt>
      <trkpt lat="47.34969" lon="-1.36396">
        <ele>131</ele>
        <time>2022-05-14T10:19:36Z</time>
      </trkpt>
      <trkpt lat="47.34959" lon="-1.36385">
        <ele>131</ele>
        <time>2022-05-14T10:19:38Z</time>
      </trkpt>
      <trkpt lat="47.34951" lon="-1.36373">
        <ele>130</ele>
        <time>2022-05-14T10:19:40Z</time>
      </trkpt>
      <trkpt lat="47.34942" lon="-1.36362">
        <ele>130</ele>
        <time>2022-05-14T10:19:42Z</time>
      </trkpt>
      <trkpt lat="47.34933" lon="-1.36351">
        <ele>130</ele>
        <time>2022-05-14T10:19:44Z</time>
      </trkpt>
      <trkpt lat="47.34924" lon="-1.3634">
        <ele>130</ele>
        <time>2022-05-14T10:19:46Z</time>
      </trkpt>
      <trkpt lat="47.34915" lon="-1.36328">
        <ele>130</ele>
        <time>2022-05-14T10:19:48Z</time>
      </trkpt>
      <trkpt lat="47.34906" lon="-1.36316">
        <ele>130</ele>
        <time>2022-05-14T10:19:50Z</time>
      </trkpt>
      <trkpt lat="47.34897" lon="-1.36303">
        <ele>130</ele>
        <time>2022-05-14T10:19:52Z</time>
      </trkpt>
      <trkpt lat="47.3489" lon="-1.3629">
        <ele>130</ele>
        <time>2022-05-14T10:19:54Z</time>
      </trkpt>
      <trkpt lat="47.34882" lon="-1.36277">
        <ele>130</ele>
        <time>2022-05-14T10:19:56Z</time>
      </trkpt>
      <trkpt lat="47.34874" lon="-1.36265">
        <ele>131</ele>
        <time>2022-05-14T10:19:58Z</time>
      </trkpt>
      <trkpt lat="47.34866" lon="-1.36253">
        <ele>131</ele>
        <time>2022-05-14T10:20:00Z</time>
      </trkpt>
      <trkpt lat="47.34859" lon="-1.36241">
        <ele>131</ele>
        <time>2022-05-14T10:20:02Z</time>
      </trkpt>
      <trkpt lat="47.34852" lon="-1.36229">
        <ele>131</ele>
        <time>2022-05-14T10:20:04Z</time>
      </trkpt>
      <trkpt lat="47.34844" lon="-1.36217">
        <ele>131</ele>
        <time>2022-05-14T10:20:06Z</time>
      </trkpt>
      <trkpt lat="47.34837" lon="-1.36205">
        <ele>132</ele>
        <time>2022-05-14T10:20:08Z</time>
      </trkpt>
      <trkpt lat="47.34829" lon="-1.36193">
        <ele>132</ele>
        <time>2022-05-14T10:20:10Z</time>
      </trkpt>
      <trkpt lat="47.34821" lon="-1.36181">
        <ele>132</ele>
        <time>2022-05-14T10:20:12Z</time>
      </trkpt>
      <trkpt lat="47.34813" lon="-1.36169">
        <ele>132</ele>
        <time>2022-05-14T10:20:14Z</time>
      </trkpt>
      <trkpt lat="47.34806" lon="-1.36157">
        <ele>132</ele>
        <time>2022-05-14T10:20:16Z</time>
      </trkpt>
      <trkpt lat="47.34797" lon="-1.36147">
        <ele>132</ele>
        <time>2022-05-14T10:20:18Z</time>
      </trkpt>
      <trkpt lat="47.34789" lon="-1.36136">
        <ele>132</ele>
        <time>2022-05-14T10:20:20Z</time>
      </trkpt>
      <trkpt lat="47.34781" lon="-1.36125">
        <ele>132</ele>
        <time>2022-05-14T10:20:22Z</time>
      </trkpt>
      <trkpt lat="47.34773" lon="-1.36115">
        <ele>132</ele>
        <time>2022-05-14T10:20:24Z</time>
      </trkpt>
      <trkpt lat="47.34764" lon="-1.36106">
        <ele>132</ele>
        <time>2022-05-14T10:20:26Z</time>
      </trkpt>
      <trkpt lat="47.34756" lon="-1.36095">
        <ele>133</ele>
        <time>2022-05-14T10:20:28Z</time>
      </trkpt>
      <trkpt lat="47.34747" lon="-1.36085">
        <ele>133</ele>
        <time>2022-05-14T10:20:30Z</time>
      </trkpt>
      <trkpt lat="47.34738" lon="-1.36075">
        <ele>132</ele>
        <time>2022-05-14T10:20:32Z</time>
      </trkpt>
      <trkpt lat="47.34729" lon="-1.36064">
        <ele>132</ele>
        <time>2022-05-14T10:20:34Z</time>
      </trkpt>
      <trkpt lat="47.3472" lon="-1.36053">
        <ele>132</ele>
        <time>2022-05-14T10:20:36Z</time>
      </trkpt>
      <trkpt lat="47.34712" lon="-1.36042">
        <ele>131</ele>
        <time>2022-05-14T10:20:38Z</time>
      </trkpt>
      <trkpt lat="47.34703" lon="-1.36031">
        <ele>131</ele>
        <time>2022-05-14T10:20:40Z</time>
      </trkpt>
      <trkpt lat="47.34693" lon="-1.36021">
        <ele>130</ele>
        <time>2022-05-14T10:20:42Z</time>
      </trkpt>
      <trkpt lat="47.34683" lon="-1.3601">
        <ele>130</ele>
        <time>2022-05-14T10:20:44Z</time>
      </trkpt>
      <trkpt lat="47.34673" lon="-1.36">
        <ele>130</ele>
        <time>2022-05-14T10:20:46Z</time>
      </trkpt>
      <trkpt lat="47.34663" lon="-1.35989">
        <ele>129</ele>
        <time>2022-05-14T10:20:48Z</time>
      </trkpt>
      <trkpt lat="47.34652" lon="-1.35977">
        <ele>128</ele>
        <time>2022-05-14T10:20:50Z</time>
      </trkpt>
      <trkpt lat="47.34641" lon="-1.35965">
        <ele>128</ele>
        <time>2022-05-14T10:20:52Z</time>
      </trkpt>
      <trkpt lat="47.3463" lon="-1.35953">
        <ele>128</ele>
        <time>2022-05-14T10:20:54Z</time>
      </trkpt>
      <trkpt lat="47.3462" lon="-1.35942">
        <ele>127</ele>
        <time>2022-05-14T10:20:56Z</time>
      </trkpt>
      <trkpt lat="47.34609" lon="-1.3593">
        <ele>127</ele>
        <time>2022-05-14T10:20:58Z</time>
      </trkpt>
      <trkpt lat="47.34599" lon="-1.35918">
        <ele>127</ele>
        <time>2022-05-14T10:21:00Z</time>
      </trkpt>
      <trkpt lat="47.34589" lon="-1.35907">
        <ele>127</ele>
        <time>2022-05-14T10:21:02Z</time>
      </trkpt>
      <trkpt lat="47.34579" lon="-1.35895">
        <ele>128</ele>
        <time>2022-05-14T10:21:04Z</time>
      </trkpt>
      <trkpt lat="47.34571" lon="-1.35883">
        <ele>128</ele>
        <time>2022-05-14T10:21:06Z</time>
      </trkpt>
      <trkpt lat="47.34562" lon="-1.35871">
        <ele>128</ele>
        <time>2022-05-14T10:21:08Z</time>
      </trkpt>
      <trkpt lat="47.34553" lon="-1.35858">
        <ele>128</ele>
        <time>2022-05-14T10:21:10Z</time>
      </trkpt>
      <trkpt lat="47.34545" lon="-1.35844">
        <ele>129</ele>
        <time>2022-05-14T10:21:12Z</time>
      </trkpt>
      <trkpt lat="47.34537" lon="-1.35831">
        <ele>129</ele>
        <time>2022-05-14T10:21:14Z</time>
      </trkpt>
      <trkpt lat="47.3453" lon="-1.35818">
        <ele>129</ele>
        <time>2022-05-14T10:21:16Z</time>
      </trkpt>
      <trkpt lat="47.34522" lon="-1.35804">
        <ele>130</ele>
        <time>2022-05-14T10:21:18Z</time>
      </trkpt>
      <trkpt lat="47.34513" lon="-1.3579">
        <ele>131</ele>
        <time>2022-05-14T10:21:20Z</time>
      </trkpt>
      <trkpt lat="47.34505" lon="-1.35775">
        <ele>131</ele>
        <time>2022-05-14T10:21:22Z</time>
      </trkpt>
      <trkpt lat="47.34497" lon="-1.35762">
        <ele>132</ele>
        <time>2022-05-14T10:21:24Z</time>
      </trkpt>
      <trkpt lat="47.3449" lon="-1.35749">
        <ele>132</ele>
        <time>2022-05-14T10:21:26Z</time>
      </trkpt>
      <trkpt lat="47.34482" lon="-1.35736">
        <ele>132</ele>
        <time>2022-05-14T10:21:28Z</time>
      </trkpt>
      <trkpt lat="47.34475" lon="-1.35723">
        <ele>133</ele>
        <time>2022-05-14T10:21:30Z</time>
      </trkpt>
      <trkpt lat="47.34469" lon="-1.35709">
        <ele>133</ele>
        <time>2022-05-14T10:21:32Z</time>
      </trkpt>
      <trkpt lat="47.34463" lon="-1.35696">
        <ele>133</ele>
        <time>2022-05-14T10:21:34Z</time>
      </trkpt>
      <trkpt lat="47.34455" lon="-1.35684">
        <ele>134</ele>
        <time>2022-05-14T10:21:36Z</time>
      </trkpt>
      <trkpt lat="47.34447" lon="-1.35673">
        <ele>135</ele>
        <time>2022-05-14T10:21:38Z</time>
      </trkpt>
      <trkpt lat="47.3444" lon="-1.35661">
        <ele>135</ele>
        <time>2022-05-14T10:21:40Z</time>
      </trkpt>
      <trkpt lat="47.34433" lon="-1.3565">
        <ele>135</ele>
        <time>2022-05-14T10:21:42Z</time>
      </trkpt>
      <trkpt lat="47.34425" lon="-1.35641">
        <ele>135</ele>
        <time>2022-05-14T10:21:44Z</time>
      </trkpt>
      <trkpt lat="47.34417" lon="-1.35629">
        <ele>137</ele>
        <time>2022-05-14T10:21:46Z</time>
      </trkpt>
      <trkpt lat="47.3441" lon="-1.35615">
        <ele>137</ele>
        <time>2022-05-14T10:21:48Z</time>
      </trkpt>
      <trkpt lat="47.34402" lon="-1.35601">
        <ele>136</ele>
        <time>2022-05-14T10:21:50Z</time>
      </trkpt>
      <trkpt lat="47.34395" lon="-1.35587">
        <ele>136</ele>
        <time>2022-05-14T10:21:52Z</time>
      </trkpt>
      <trkpt lat="47.34386" lon="-1.35574">
        <ele>136</ele>
        <time>2022-05-14T10:21:54Z</time>
      </trkpt>
      <trkpt lat="47.34379" lon="-1.3556">
        <ele>135</ele>
        <time>2022-05-14T10:21:56Z</time>
      </trkpt>
      <trkpt lat="47.34371" lon="-1.35545">
        <ele>134</ele>
        <time>2022-05-14T10:21:58Z</time>
      </trkpt>
      <trkpt lat="47.34363" lon="-1.35532">
        <ele>134</ele>
        <time>2022-05-14T10:22:00Z</time>
      </trkpt>
      <trkpt lat="47.34355" lon="-1.35518">
        <ele>134</ele>
        <time>2022-05-14T10:22:02Z</time>
      </trkpt>
      <trkpt lat="47.34348" lon="-1.35504">
        <ele>133</ele>
        <time>2022-05-14T10:22:04Z</time>
      </trkpt>
      <trkpt lat="47.3434" lon="-1.3549">
        <ele>133</ele>
        <time>2022-05-14T10:22:06Z</time>
      </trkpt>
      <trkpt lat="47.34332" lon="-1.35477">
        <ele>133</ele>
        <time>2022-05-14T10:22:08Z</time>
      </trkpt>
      <trkpt lat="47.34325" lon="-1.35464">
        <ele>133</ele>
        <time>2022-05-14T10:22:10Z</time>
      </trkpt>
      <trkpt lat="47.34317" lon="-1.3545">
        <ele>133</ele>
        <time>2022-05-14T10:22:12Z</time>
      </trkpt>
      <trkpt lat="47.34309" lon="-1.35437">
        <ele>133</ele>
        <time>2022-05-14T10:22:14Z</time>
      </trkpt>
      <trkpt lat="47.34302" lon="-1.35424">
        <ele>133</ele>
        <time>2022-05-14T10:22:16Z</time>
      </trkpt>
      <trkpt lat="47.34294" lon="-1.35411">
        <ele>133</ele>
        <time>2022-05-14T10:22:18Z</time>
      </trkpt>
      <trkpt lat="47.34286" lon="-1.35398">
        <ele>133</ele>
        <time>2022-05-14T10:22:20Z</time>
      </trkpt>
      <trkpt lat="47.34278" lon="-1.35384">
        <ele>133</ele>
        <time>2022-05-14T10:22:22Z</time>
      </trkpt>
      <trkpt lat="47.3427" lon="-1.35372">
        <ele>133</ele>
        <time>2022-05-14T10:22:24Z</time>
      </trkpt>
      <trkpt lat="47.34263" lon="-1.35359">
        <ele>133</ele>
        <time>2022-05-14T10:22:26Z</time>
      </trkpt>
      <trkpt lat="47.34255" lon="-1.35346">
        <ele>133</ele>
        <time>2022-05-14T10:22:28Z</time>
      </trkpt>
      <trkpt lat="47.34247" lon="-1.35333">
        <ele>133</ele>
        <time>2022-05-14T10:22:30Z</time>
      </trkpt>
      <trkpt lat="47.3424" lon="-1.3532">
        <ele>133</ele>
        <time>2022-05-14T10:22:32Z</time>
      </trkpt>
      <trkpt lat="47.34232" lon="-1.35307">
        <ele>133</ele>
        <time>2022-05-14T10:22:34Z</time>
      </trkpt>
      <trkpt lat="47.34225" lon="-1.35294">
        <ele>133</ele>
        <time>2022-05-14T10:22:36Z</time>
      </trkpt>
      <trkpt lat="47.34217" lon="-1.35281">
        <ele>133</ele>
        <time>2022-05-14T10:22:38Z</time>
      </trkpt>
      <trkpt lat="47.34208" lon="-1.35268">
        <ele>133</ele>
        <time>2022-05-14T10:22:40Z</time>
      </trkpt>
      <trkpt lat="47.342" lon="-1.35255">
        <ele>133</ele>
        <time>2022-05-14T10:22:42Z</time>
      </trkpt>
      <trkpt lat="47.34193" lon="-1.35242">
        <ele>133</ele>
        <time>2022-05-14T10:22:44Z</time>
      </trkpt>
      <trkpt lat="47.34185" lon="-1.35228">
        <ele>133</ele>
        <time>2022-05-14T10:22:46Z</time>
      </trkpt>
      <trkpt lat="47.34177" lon="-1.35215">
        <ele>132</ele>
        <time>2022-05-14T10:22:48Z</time>
      </trkpt>
      <trkpt lat="47.34169" lon="-1.35201">
        <ele>132</ele>
        <time>2022-05-14T10:22:50Z</time>
      </trkpt>
      <trkpt lat="47.34161" lon="-1.35188">
        <ele>131</ele>
        <time>2022-05-14T10:22:52Z</time>
      </trkpt>
      <trkpt lat="47.34153" lon="-1.35174">
        <ele>131</ele>
        <time>2022-05-14T10:22:54Z</time>
      </trkpt>
      <trkpt lat="47.34145" lon="-1.35161">
        <ele>131</ele>
        <time>2022-05-14T10:22:56Z</time>
      </trkpt>
      <trkpt lat="47.34137" lon="-1.35148">
        <ele>131</ele>
        <time>2022-05-14T10:22:58Z</time>
      </trkpt>
      <trkpt lat="47.34129" lon="-1.35135">
        <ele>131</ele>
        <time>2022-05-14T10:23:00Z</time>
      </trkpt>
      <trkpt lat="47.34121" lon="-1.35122">
        <ele>131</ele>
        <time>2022-05-14T10:23:02Z</time>
      </trkpt>
      <trkpt lat="47.34113" lon="-1.35108">
        <ele>131</ele>
        <time>2022-05-14T10:23:04Z</time>
      </trkpt>
      <trkpt lat="47.34105" lon="-1.35095">
        <ele>132</ele>
        <time>2022-05-14T10:23:06Z</time>
      </trkpt>
      <trkpt lat="47.34098" lon="-1.35083">
        <ele>132</ele>
        <time>2022-05-14T10:23:08Z</time>
      </trkpt>
      <trkpt lat="47.3409" lon="-1.3507">
        <ele>132</ele>
        <time>2022-05-14T10:23:10Z</time>
      </trkpt>
      <trkpt lat="47.34082" lon="-1.35056">
        <ele>132</ele>
        <time>2022-05-14T10:23:12Z</time>
      </trkpt>
      <trkpt lat="47.34075" lon="-1.35043">
        <ele>132</ele>
        <time>2022-05-14T10:23:14Z</time>
      </trkpt>
      <trkpt lat="47.34067" lon="-1.3503">
        <ele>131</ele>
        <time>2022-05-14T10:23:16Z</time>
      </trkpt>
      <trkpt lat="47.34059" lon="-1.35016">
        <ele>131</ele>
        <time>2022-05-14T10:23:18Z</time>
      </trkpt>
      <trkpt lat="47.34051" lon="-1.35003">
        <ele>131</ele>
        <time>2022-05-14T10:23:20Z</time>
      </trkpt>
      <trkpt lat="47.34043" lon="-1.34991">
        <ele>132</ele>
        <time>2022-05-14T10:23:22Z</time>
      </trkpt>
      <trkpt lat="47.34035" lon="-1.34981">
        <ele>131</ele>
        <time>2022-05-14T10:23:24Z</time>
      </trkpt>
      <trkpt lat="47.34027" lon="-1.34971">
        <ele>131</ele>
        <time>2022-05-14T10:23:26Z</time>
      </trkpt>
      <trkpt lat="47.34018" lon="-1.34964">
        <ele>131</ele>
        <time>2022-05-14T10:23:28Z</time>
      </trkpt>
      <trkpt lat="47.34005" lon="-1.34959">
        <ele>130</ele>
        <time>2022-05-14T10:23:31Z</time>
      </trkpt>
      <trkpt lat="47.33996" lon="-1.34953">
        <ele>131</ele>
        <time>2022-05-14T10:23:33Z</time>
      </trkpt>
      <trkpt lat="47.33988" lon="-1.3494">
        <ele>130</ele>
        <time>2022-05-14T10:23:35Z</time>
      </trkpt>
      <trkpt lat="47.33983" lon="-1.34924">
        <ele>130</ele>
        <time>2022-05-14T10:23:37Z</time>
      </trkpt>
      <trkpt lat="47.3397" lon="-1.34907">
        <ele>130</ele>
        <time>2022-05-14T10:23:40Z</time>
      </trkpt>
      <trkpt lat="47.33956" lon="-1.34891">
        <ele>130</ele>
        <time>2022-05-14T10:23:43Z</time>
      </trkpt>
      <trkpt lat="47.33946" lon="-1.34883">
        <ele>130</ele>
        <time>2022-05-14T10:23:45Z</time>
      </trkpt>
      <trkpt lat="47.33936" lon="-1.34874">
        <ele>130</ele>
        <time>2022-05-14T10:23:47Z</time>
      </trkpt>
      <trkpt lat="47.33926" lon="-1.34864">
        <ele>130</ele>
        <time>2022-05-14T10:23:49Z</time>
      </trkpt>
      <trkpt lat="47.33916" lon="-1.34855">
        <ele>130</ele>
        <time>2022-05-14T10:23:51Z</time>
      </trkpt>
      <trkpt lat="47.33907" lon="-1.34845">
        <ele>130</ele>
        <time>2022-05-14T10:23:53Z</time>
      </trkpt>
      <trkpt lat="47.33898" lon="-1.34835">
        <ele>131</ele>
        <time>2022-05-14T10:23:55Z</time>
      </trkpt>
      <trkpt lat="47.33889" lon="-1.34823">
        <ele>131</ele>
        <time>2022-05-14T10:23:57Z</time>
      </trkpt>
      <trkpt lat="47.3388" lon="-1.34811">
        <ele>131</ele>
        <time>2022-05-14T10:23:59Z</time>
      </trkpt>
      <trkpt lat="47.33871" lon="-1.34799">
        <ele>130</ele>
        <time>2022-05-14T10:24:01Z</time>
      </trkpt>
      <trkpt lat="47.33862" lon="-1.34786">
        <ele>130</ele>
        <time>2022-05-14T10:24:03Z</time>
      </trkpt>
      <trkpt lat="47.33853" lon="-1.34774">
        <ele>130</ele>
        <time>2022-05-14T10:24:05Z</time>
      </trkpt>
      <trkpt lat="47.33845" lon="-1.34762">
        <ele>130</ele>
        <time>2022-05-14T10:24:07Z</time>
      </trkpt>
      <trkpt lat="47.33836" lon="-1.34749">
        <ele>130</ele>
        <time>2022-05-14T10:24:09Z</time>
      </trkpt>
      <trkpt lat="47.33827" lon="-1.34736">
        <ele>129</ele>
        <time>2022-05-14T10:24:11Z</time>
      </trkpt>
      <trkpt lat="47.33818" lon="-1.34724">
        <ele>129</ele>
        <time>2022-05-14T10:24:13Z</time>
      </trkpt>
      <trkpt lat="47.33809" lon="-1.34711">
        <ele>129</ele>
        <time>2022-05-14T10:24:15Z</time>
      </trkpt>
      <trkpt lat="47.338" lon="-1.34698">
        <ele>129</ele>
        <time>2022-05-14T10:24:17Z</time>
      </trkpt>
      <trkpt lat="47.33791" lon="-1.34686">
        <ele>129</ele>
        <time>2022-05-14T10:24:19Z</time>
      </trkpt>
      <trkpt lat="47.33782" lon="-1.34674">
        <ele>129</ele>
        <time>2022-05-14T10:24:21Z</time>
      </trkpt>
      <trkpt lat="47.33773" lon="-1.34663">
        <ele>129</ele>
        <time>2022-05-14T10:24:23Z</time>
      </trkpt>
      <trkpt lat="47.33764" lon="-1.3465">
        <ele>129</ele>
        <time>2022-05-14T10:24:25Z</time>
      </trkpt>
      <trkpt lat="47.33756" lon="-1.34639">
        <ele>130</ele>
        <time>2022-05-14T10:24:27Z</time>
      </trkpt>
      <trkpt lat="47.33747" lon="-1.34627">
        <ele>130</ele>
        <time>2022-05-14T10:24:29Z</time>
      </trkpt>
      <trkpt lat="47.33739" lon="-1.34614">
        <ele>130</ele>
        <time>2022-05-14T10:24:31Z</time>
      </trkpt>
      <trkpt lat="47.3373" lon="-1.34602">
        <ele>129</ele>
        <time>2022-05-14T10:24:33Z</time>
      </trkpt>
      <trkpt lat="47.33721" lon="-1.3459">
        <ele>129</ele>
        <time>2022-05-14T10:24:35Z</time>
      </trkpt>
      <trkpt lat="47.33713" lon="-1.34578">
        <ele>129</ele>
        <time>2022-05-14T10:24:37Z</time>
      </trkpt>
      <trkpt lat="47.33704" lon="-1.34566">
        <ele>130</ele>
        <time>2022-05-14T10:24:39Z</time>
      </trkpt>
      <trkpt lat="47.33695" lon="-1.34555">
        <ele>130</ele>
        <time>2022-05-14T10:24:41Z</time>
      </trkpt>
      <trkpt lat="47.33686" lon="-1.34543">
        <ele>130</ele>
        <time>2022-05-14T10:24:43Z</time>
      </trkpt>
      <trkpt lat="47.33678" lon="-1.3453">
        <ele>130</ele>
        <time>2022-05-14T10:24:45Z</time>
      </trkpt>
      <trkpt lat="47.33669" lon="-1.34518">
        <ele>129</ele>
        <time>2022-05-14T10:24:47Z</time>
      </trkpt>
      <trkpt lat="47.3366" lon="-1.34506">
        <ele>129</ele>
        <time>2022-05-14T10:24:49Z</time>
      </trkpt>
      <trkpt lat="47.33651" lon="-1.34494">
        <ele>129</ele>
        <time>2022-05-14T10:24:51Z</time>
      </trkpt>
      <trkpt lat="47.33642" lon="-1.34483">
        <ele>129</ele>
        <time>2022-05-14T10:24:53Z</time>
      </trkpt>
      <trkpt lat="47.33632" lon="-1.34473">
        <ele>129</ele>
        <time>2022-05-14T10:24:55Z</time>
      </trkpt>
      <trkpt lat="47.33621" lon="-1.34464">
        <ele>129</ele>
        <time>2022-05-14T10:24:57Z</time>
      </trkpt>
      <trkpt lat="47.33609" lon="-1.34457">
        <ele>129</ele>
        <time>2022-05-14T10:24:59Z</time>
      </trkpt>
      <trkpt lat="47.33597" lon="-1.34451">
        <ele>129</ele>
        <time>2022-05-14T10:25:01Z</time>
      </trkpt>
      <trkpt lat="47.33585" lon="-1.34446">
        <ele>128</ele>
        <time>2022-05-14T10:25:03Z</time>
      </trkpt>
      <trkpt lat="47.33573" lon="-1.3444">
        <ele>128</ele>
        <time>2022-05-14T10:25:05Z</time>
      </trkpt>
      <trkpt lat="47.33561" lon="-1.34433">
        <ele>128</ele>
        <time>2022-05-14T10:25:07Z</time>
      </trkpt>
      <trkpt lat="47.33549" lon="-1.34428">
        <ele>128</ele>
        <time>2022-05-14T10:25:09Z</time>
      </trkpt>
      <trkpt lat="47.33536" lon="-1.34423">
        <ele>128</ele>
        <time>2022-05-14T10:25:11Z</time>
      </trkpt>
      <trkpt lat="47.33525" lon="-1.34417">
        <ele>128</ele>
        <time>2022-05-14T10:25:13Z</time>
      </trkpt>
      <trkpt lat="47.33512" lon="-1.34411">
        <ele>128</ele>
        <time>2022-05-14T10:25:15Z</time>
      </trkpt>
      <trkpt lat="47.335" lon="-1.34405">
        <ele>128</ele>
        <time>2022-05-14T10:25:17Z</time>
      </trkpt>
      <trkpt lat="47.33487" lon="-1.34399">
        <ele>128</ele>
        <time>2022-05-14T10:25:19Z</time>
      </trkpt>
      <trkpt lat="47.33474" lon="-1.34392">
        <ele>128</ele>
        <time>2022-05-14T10:25:21Z</time>
      </trkpt>
      <trkpt lat="47.33461" lon="-1.34386">
        <ele>128</ele>
        <time>2022-05-14T10:25:23Z</time>
      </trkpt>
      <trkpt lat="47.33448" lon="-1.3438">
        <ele>128</ele>
        <time>2022-05-14T10:25:25Z</time>
      </trkpt>
      <trkpt lat="47.33435" lon="-1.34374">
        <ele>128</ele>
        <time>2022-05-14T10:25:27Z</time>
      </trkpt>
      <trkpt lat="47.33422" lon="-1.34368">
        <ele>128</ele>
        <time>2022-05-14T10:25:29Z</time>
      </trkpt>
      <trkpt lat="47.33409" lon="-1.34361">
        <ele>128</ele>
        <time>2022-05-14T10:25:31Z</time>
      </trkpt>
      <trkpt lat="47.33396" lon="-1.34355">
        <ele>128</ele>
        <time>2022-05-14T10:25:33Z</time>
      </trkpt>
      <trkpt lat="47.33382" lon="-1.34348">
        <ele>127</ele>
        <time>2022-05-14T10:25:35Z</time>
      </trkpt>
      <trkpt lat="47.33369" lon="-1.34341">
        <ele>127</ele>
        <time>2022-05-14T10:25:37Z</time>
      </trkpt>
      <trkpt lat="47.33356" lon="-1.34335">
        <ele>127</ele>
        <time>2022-05-14T10:25:39Z</time>
      </trkpt>
      <trkpt lat="47.33343" lon="-1.34329">
        <ele>127</ele>
        <time>2022-05-14T10:25:41Z</time>
      </trkpt>
      <trkpt lat="47.33331" lon="-1.34322">
        <ele>126</ele>
        <time>2022-05-14T10:25:43Z</time>
      </trkpt>
      <trkpt lat="47.33318" lon="-1.34318">
        <ele>126</ele>
        <time>2022-05-14T10:25:45Z</time>
      </trkpt>
      <trkpt lat="47.33306" lon="-1.34313">
        <ele>126</ele>
        <time>2022-05-14T10:25:47Z</time>
      </trkpt>
      <trkpt lat="47.33294" lon="-1.34309">
        <ele>126</ele>
        <time>2022-05-14T10:25:49Z</time>
      </trkpt>
      <trkpt lat="47.33282" lon="-1.34307">
        <ele>126</ele>
        <time>2022-05-14T10:25:51Z</time>
      </trkpt>
      <trkpt lat="47.33269" lon="-1.34305">
        <ele>126</ele>
        <time>2022-05-14T10:25:53Z</time>
      </trkpt>
      <trkpt lat="47.33255" lon="-1.34303">
        <ele>125</ele>
        <time>2022-05-14T10:25:55Z</time>
      </trkpt>
      <trkpt lat="47.33243" lon="-1.34301">
        <ele>125</ele>
        <time>2022-05-14T10:25:57Z</time>
      </trkpt>
      <trkpt lat="47.3323" lon="-1.34299">
        <ele>125</ele>
        <time>2022-05-14T10:25:59Z</time>
      </trkpt>
      <trkpt lat="47.33217" lon="-1.34298">
        <ele>125</ele>
        <time>2022-05-14T10:26:01Z</time>
      </trkpt>
      <trkpt lat="47.33204" lon="-1.34296">
        <ele>125</ele>
        <time>2022-05-14T10:26:03Z</time>
      </trkpt>
      <trkpt lat="47.33191" lon="-1.34294">
        <ele>125</ele>
        <time>2022-05-14T10:26:05Z</time>
      </trkpt>
      <trkpt lat="47.33178" lon="-1.34292">
        <ele>124</ele>
        <time>2022-05-14T10:26:07Z</time>
      </trkpt>
      <trkpt lat="47.33165" lon="-1.34288">
        <ele>124</ele>
        <time>2022-05-14T10:26:09Z</time>
      </trkpt>
      <trkpt lat="47.33152" lon="-1.34282">
        <ele>123</ele>
        <time>2022-05-14T10:26:11Z</time>
      </trkpt>
      <trkpt lat="47.33139" lon="-1.34274">
        <ele>122</ele>
        <time>2022-05-14T10:26:13Z</time>
      </trkpt>
      <trkpt lat="47.33126" lon="-1.34267">
        <ele>122</ele>
        <time>2022-05-14T10:26:15Z</time>
      </trkpt>
      <trkpt lat="47.33113" lon="-1.34258">
        <ele>121</ele>
        <time>2022-05-14T10:26:17Z</time>
      </trkpt>
      <trkpt lat="47.331" lon="-1.34249">
        <ele>121</ele>
        <time>2022-05-14T10:26:19Z</time>
      </trkpt>
      <trkpt lat="47.33088" lon="-1.34241">
        <ele>120</ele>
        <time>2022-05-14T10:26:21Z</time>
      </trkpt>
      <trkpt lat="47.33075" lon="-1.34232">
        <ele>120</ele>
        <time>2022-05-14T10:26:23Z</time>
      </trkpt>
      <trkpt lat="47.33062" lon="-1.34223">
        <ele>119</ele>
        <time>2022-05-14T10:26:25Z</time>
      </trkpt>
      <trkpt lat="47.33048" lon="-1.34214">
        <ele>118</ele>
        <time>2022-05-14T10:26:27Z</time>
      </trkpt>
      <trkpt lat="47.33034" lon="-1.34204">
        <ele>118</ele>
        <time>2022-05-14T10:26:29Z</time>
      </trkpt>
      <trkpt lat="47.3302" lon="-1.34195">
        <ele>118</ele>
        <time>2022-05-14T10:26:31Z</time>
      </trkpt>
      <trkpt lat="47.33007" lon="-1.34186">
        <ele>117</ele>
        <time>2022-05-14T10:26:33Z</time>
      </trkpt>
      <trkpt lat="47.32992" lon="-1.34175">
        <ele>117</ele>
        <time>2022-05-14T10:26:35Z</time>
      </trkpt>
      <trkpt lat="47.32977" lon="-1.34164">
        <ele>118</ele>
        <time>2022-05-14T10:26:37Z</time>
      </trkpt>
      <trkpt lat="47.32963" lon="-1.34148">
        <ele>118</ele>
        <time>2022-05-14T10:26:39Z</time>
      </trkpt>
      <trkpt lat="47.32957" lon="-1.34138">
        <ele>117</ele>
        <time>2022-05-14T10:26:40Z</time>
      </trkpt>
      <trkpt lat="47.32952" lon="-1.34127">
        <ele>116</ele>
        <time>2022-05-14T10:26:41Z</time>
      </trkpt>
      <trkpt lat="47.32948" lon="-1.34114">
        <ele>116</ele>
        <time>2022-05-14T10:26:42Z</time>
      </trkpt>
      <trkpt lat="47.32943" lon="-1.34102">
        <ele>116</ele>
        <time>2022-05-14T10:26:43Z</time>
      </trkpt>
      <trkpt lat="47.32938" lon="-1.34078">
        <ele>115</ele>
        <time>2022-05-14T10:26:45Z</time>
      </trkpt>
      <trkpt lat="47.32937" lon="-1.34053">
        <ele>114</ele>
        <time>2022-05-14T10:26:47Z</time>
      </trkpt>
      <trkpt lat="47.32942" lon="-1.34028">
        <ele>114</ele>
        <time>2022-05-14T10:26:49Z</time>
      </trkpt>
      <trkpt lat="47.32949" lon="-1.34003">
        <ele>114</ele>
        <time>2022-05-14T10:26:51Z</time>
      </trkpt>
      <trkpt lat="47.32957" lon="-1.3398">
        <ele>114</ele>
        <time>2022-05-14T10:26:53Z</time>
      </trkpt>
      <trkpt lat="47.32965" lon="-1.33958">
        <ele>114</ele>
        <time>2022-05-14T10:26:55Z</time>
      </trkpt>
      <trkpt lat="47.32973" lon="-1.33935">
        <ele>114</ele>
        <time>2022-05-14T10:26:57Z</time>
      </trkpt>
      <trkpt lat="47.32978" lon="-1.33923">
        <ele>113</ele>
        <time>2022-05-14T10:26:58Z</time>
      </trkpt>
      <trkpt lat="47.32986" lon="-1.33904">
        <ele>113</ele>
        <time>2022-05-14T10:27:00Z</time>
      </trkpt>
      <trkpt lat="47.32992" lon="-1.33895">
        <ele>113</ele>
        <time>2022-05-14T10:27:02Z</time>
      </trkpt>
      <trkpt lat="47.33002" lon="-1.33895">
        <ele>112</ele>
        <time>2022-05-14T10:27:16Z</time>
      </trkpt>
      <trkpt lat="47.33003" lon="-1.33896">
        <ele>110</ele>
        <time>2022-05-14T10:29:17Z</time>
      </trkpt>
      <trkpt lat="47.33003" lon="-1.33882">
        <ele>110</ele>
        <time>2022-05-14T10:29:37Z</time>
      </trkpt>
      <trkpt lat="47.33001" lon="-1.33864">
        <ele>108</ele>
        <time>2022-05-14T10:29:40Z</time>
      </trkpt>
      <trkpt lat="47.33005" lon="-1.33851">
        <ele>107</ele>
        <time>2022-05-14T10:29:42Z</time>
      </trkpt>
      <trkpt lat="47.3301" lon="-1.33836">
        <ele>108</ele>
        <time>2022-05-14T10:29:44Z</time>
      </trkpt>
      <trkpt lat="47.33015" lon="-1.33822">
        <ele>108</ele>
        <time>2022-05-14T10:29:46Z</time>
      </trkpt>
      <trkpt lat="47.33021" lon="-1.33807">
        <ele>108</ele>
        <time>2022-05-14T10:29:48Z</time>
      </trkpt>
      <trkpt lat="47.33029" lon="-1.33791">
        <ele>108</ele>
        <time>2022-05-14T10:29:50Z</time>
      </trkpt>
      <trkpt lat="47.33036" lon="-1.33774">
        <ele>108</ele>
        <time>2022-05-14T10:29:52Z</time>
      </trkpt>
      <trkpt lat="47.33044" lon="-1.33757">
        <ele>108</ele>
        <time>2022-05-14T10:29:54Z</time>
      </trkpt>
      <trkpt lat="47.33054" lon="-1.33741">
        <ele>108</ele>
        <time>2022-05-14T10:29:56Z</time>
      </trkpt>
      <trkpt lat="47.33064" lon="-1.33724">
        <ele>106</ele>
        <time>2022-05-14T10:29:58Z</time>
      </trkpt>
      <trkpt lat="47.33073" lon="-1.33704">
        <ele>105</ele>
        <time>2022-05-14T10:30:00Z</time>
      </trkpt>
      <trkpt lat="47.33081" lon="-1.33685">
        <ele>104</ele>
        <time>2022-05-14T10:30:02Z</time>
      </trkpt>
      <trkpt lat="47.33087" lon="-1.33664">
        <ele>104</ele>
        <time>2022-05-14T10:30:04Z</time>
      </trkpt>
      <trkpt lat="47.33094" lon="-1.33643">
        <ele>105</ele>
        <time>2022-05-14T10:30:06Z</time>
      </trkpt>
      <trkpt lat="47.331" lon="-1.3362">
        <ele>104</ele>
        <time>2022-05-14T10:30:08Z</time>
      </trkpt>
      <trkpt lat="47.33106" lon="-1.33597">
        <ele>105</ele>
        <time>2022-05-14T10:30:10Z</time>
      </trkpt>
      <trkpt lat="47.33109" lon="-1.33585">
        <ele>105</ele>
        <time>2022-05-14T10:30:11Z</time>
      </trkpt>
      <trkpt lat="47.33115" lon="-1.33561">
        <ele>104</ele>
        <time>2022-05-14T10:30:13Z</time>
      </trkpt>
      <trkpt lat="47.33119" lon="-1.33536">
        <ele>103</ele>
        <time>2022-05-14T10:30:15Z</time>
      </trkpt>
      <trkpt lat="47.33119" lon="-1.33523">
        <ele>102</ele>
        <time>2022-05-14T10:30:16Z</time>
      </trkpt>
      <trkpt lat="47.33115" lon="-1.33497">
        <ele>102</ele>
        <time>2022-05-14T10:30:18Z</time>
      </trkpt>
      <trkpt lat="47.33111" lon="-1.33483">
        <ele>101</ele>
        <time>2022-05-14T10:30:19Z</time>
      </trkpt>
      <trkpt lat="47.33106" lon="-1.33471">
        <ele>100</ele>
        <time>2022-05-14T10:30:20Z</time>
      </trkpt>
      <trkpt lat="47.33096" lon="-1.33451">
        <ele>100</ele>
        <time>2022-05-14T10:30:22Z</time>
      </trkpt>
      <trkpt lat="47.33084" lon="-1.33434">
        <ele>100</ele>
        <time>2022-05-14T10:30:24Z</time>
      </trkpt>
      <trkpt lat="47.33077" lon="-1.33425">
        <ele>99</ele>
        <time>2022-05-14T10:30:25Z</time>
      </trkpt>
      <trkpt lat="47.33064" lon="-1.33408">
        <ele>97</ele>
        <time>2022-05-14T10:30:27Z</time>
      </trkpt>
      <trkpt lat="47.33057" lon="-1.33401">
        <ele>97</ele>
        <time>2022-05-14T10:30:28Z</time>
      </trkpt>
      <trkpt lat="47.33049" lon="-1.33392">
        <ele>97</ele>
        <time>2022-05-14T10:30:29Z</time>
      </trkpt>
      <trkpt lat="47.33041" lon="-1.33385">
        <ele>97</ele>
        <time>2022-05-14T10:30:30Z</time>
      </trkpt>
      <trkpt lat="47.33026" lon="-1.33371">
        <ele>97</ele>
        <time>2022-05-14T10:30:32Z</time>
      </trkpt>
      <trkpt lat="47.33012" lon="-1.33356">
        <ele>96</ele>
        <time>2022-05-14T10:30:34Z</time>
      </trkpt>
      <trkpt lat="47.33005" lon="-1.33349">
        <ele>96</ele>
        <time>2022-05-14T10:30:35Z</time>
      </trkpt>
      <trkpt lat="47.32997" lon="-1.33342">
        <ele>96</ele>
        <time>2022-05-14T10:30:36Z</time>
      </trkpt>
      <trkpt lat="47.32989" lon="-1.33333">
        <ele>96</ele>
        <time>2022-05-14T10:30:37Z</time>
      </trkpt>
      <trkpt lat="47.32982" lon="-1.33324">
        <ele>96</ele>
        <time>2022-05-14T10:30:38Z</time>
      </trkpt>
      <trkpt lat="47.32969" lon="-1.33308">
        <ele>95</ele>
        <time>2022-05-14T10:30:40Z</time>
      </trkpt>
      <trkpt lat="47.32955" lon="-1.33293">
        <ele>94</ele>
        <time>2022-05-14T10:30:42Z</time>
      </trkpt>
      <trkpt lat="47.32948" lon="-1.33284">
        <ele>94</ele>
        <time>2022-05-14T10:30:43Z</time>
      </trkpt>
      <trkpt lat="47.32941" lon="-1.33275">
        <ele>93</ele>
        <time>2022-05-14T10:30:44Z</time>
      </trkpt>
      <trkpt lat="47.32933" lon="-1.33267">
        <ele>92</ele>
        <time>2022-05-14T10:30:45Z</time>
      </trkpt>
      <trkpt lat="47.32925" lon="-1.33258">
        <ele>91</ele>
        <time>2022-05-14T10:30:46Z</time>
      </trkpt>
      <trkpt lat="47.32918" lon="-1.33249">
        <ele>90</ele>
        <time>2022-05-14T10:30:47Z</time>
      </trkpt>
      <trkpt lat="47.3291" lon="-1.33241">
        <ele>90</ele>
        <time>2022-05-14T10:30:48Z</time>
      </trkpt>
      <trkpt lat="47.32903" lon="-1.33232">
        <ele>89</ele>
        <time>2022-05-14T10:30:49Z</time>
      </trkpt>
      <trkpt lat="47.32894" lon="-1.33224">
        <ele>88</ele>
        <time>2022-05-14T10:30:50Z</time>
      </trkpt>
      <trkpt lat="47.32887" lon="-1.33217">
        <ele>87</ele>
        <time>2022-05-14T10:30:51Z</time>
      </trkpt>
      <trkpt lat="47.32878" lon="-1.33211">
        <ele>86</ele>
        <time>2022-05-14T10:30:52Z</time>
      </trkpt>
      <trkpt lat="47.32871" lon="-1.33204">
        <ele>85</ele>
        <time>2022-05-14T10:30:53Z</time>
      </trkpt>
      <trkpt lat="47.32855" lon="-1.33191">
        <ele>84</ele>
        <time>2022-05-14T10:30:55Z</time>
      </trkpt>
      <trkpt lat="47.32847" lon="-1.33185">
        <ele>83</ele>
        <time>2022-05-14T10:30:56Z</time>
      </trkpt>
      <trkpt lat="47.32839" lon="-1.33178">
        <ele>82</ele>
        <time>2022-05-14T10:30:57Z</time>
      </trkpt>
      <trkpt lat="47.32824" lon="-1.33166">
        <ele>81</ele>
        <time>2022-05-14T10:30:59Z</time>
      </trkpt>
      <trkpt lat="47.3281" lon="-1.33152">
        <ele>81</ele>
        <time>2022-05-14T10:31:01Z</time>
      </trkpt>
      <trkpt lat="47.32795" lon="-1.33137">
        <ele>80</ele>
        <time>2022-05-14T10:31:03Z</time>
      </trkpt>
      <trkpt lat="47.3278" lon="-1.33123">
        <ele>79</ele>
        <time>2022-05-14T10:31:05Z</time>
      </trkpt>
      <trkpt lat="47.32772" lon="-1.33116">
        <ele>79</ele>
        <time>2022-05-14T10:31:06Z</time>
      </trkpt>
      <trkpt lat="47.32764" lon="-1.33107">
        <ele>78</ele>
        <time>2022-05-14T10:31:07Z</time>
      </trkpt>
      <trkpt lat="47.32756" lon="-1.33099">
        <ele>77</ele>
        <time>2022-05-14T10:31:08Z</time>
      </trkpt>
      <trkpt lat="47.32748" lon="-1.3309">
        <ele>77</ele>
        <time>2022-05-14T10:31:09Z</time>
      </trkpt>
      <trkpt lat="47.3274" lon="-1.33083">
        <ele>76</ele>
        <time>2022-05-14T10:31:10Z</time>
      </trkpt>
      <trkpt lat="47.32732" lon="-1.33075">
        <ele>76</ele>
        <time>2022-05-14T10:31:11Z</time>
      </trkpt>
      <trkpt lat="47.32724" lon="-1.33067">
        <ele>76</ele>
        <time>2022-05-14T10:31:12Z</time>
      </trkpt>
      <trkpt lat="47.32717" lon="-1.33059">
        <ele>75</ele>
        <time>2022-05-14T10:31:13Z</time>
      </trkpt>
      <trkpt lat="47.3271" lon="-1.33051">
        <ele>74</ele>
        <time>2022-05-14T10:31:14Z</time>
      </trkpt>
      <trkpt lat="47.32701" lon="-1.33044">
        <ele>74</ele>
        <time>2022-05-14T10:31:15Z</time>
      </trkpt>
      <trkpt lat="47.32693" lon="-1.33037">
        <ele>74</ele>
        <time>2022-05-14T10:31:16Z</time>
      </trkpt>
      <trkpt lat="47.32684" lon="-1.3303">
        <ele>74</ele>
        <time>2022-05-14T10:31:17Z</time>
      </trkpt>
      <trkpt lat="47.32676" lon="-1.33024">
        <ele>73</ele>
        <time>2022-05-14T10:31:18Z</time>
      </trkpt>
      <trkpt lat="47.32668" lon="-1.33016">
        <ele>73</ele>
        <time>2022-05-14T10:31:19Z</time>
      </trkpt>
      <trkpt lat="47.32654" lon="-1.33001">
        <ele>70</ele>
        <time>2022-05-14T10:31:21Z</time>
      </trkpt>
      <trkpt lat="47.3264" lon="-1.32986">
        <ele>69</ele>
        <time>2022-05-14T10:31:23Z</time>
      </trkpt>
      <trkpt lat="47.32631" lon="-1.32971">
        <ele>66</ele>
        <time>2022-05-14T10:31:25Z</time>
      </trkpt>
      <trkpt lat="47.32623" lon="-1.32958">
        <ele>65</ele>
        <time>2022-05-14T10:31:27Z</time>
      </trkpt>
      <trkpt lat="47.32611" lon="-1.32957">
        <ele>63</ele>
        <time>2022-05-14T10:31:30Z</time>
      </trkpt>
      <trkpt lat="47.32603" lon="-1.32966">
        <ele>61</ele>
        <time>2022-05-14T10:31:33Z</time>
      </trkpt>
      <trkpt lat="47.32596" lon="-1.32975">
        <ele>61</ele>
        <time>2022-05-14T10:31:37Z</time>
      </trkpt>
      <trkpt lat="47.32588" lon="-1.32987">
        <ele>62</ele>
        <time>2022-05-14T10:31:42Z</time>
      </trkpt>
      <trkpt lat="47.32577" lon="-1.33">
        <ele>62</ele>
        <time>2022-05-14T10:31:45Z</time>
      </trkpt>
      <trkpt lat="47.32569" lon="-1.33009">
        <ele>62</ele>
        <time>2022-05-14T10:31:47Z</time>
      </trkpt>
      <trkpt lat="47.3256" lon="-1.33019">
        <ele>61</ele>
        <time>2022-05-14T10:31:49Z</time>
      </trkpt>
      <trkpt lat="47.3255" lon="-1.33028">
        <ele>61</ele>
        <time>2022-05-14T10:31:51Z</time>
      </trkpt>
      <trkpt lat="47.32539" lon="-1.33037">
        <ele>60</ele>
        <time>2022-05-14T10:31:53Z</time>
      </trkpt>
      <trkpt lat="47.32527" lon="-1.33049">
        <ele>60</ele>
        <time>2022-05-14T10:31:55Z</time>
      </trkpt>
      <trkpt lat="47.32516" lon="-1.3306">
        <ele>60</ele>
        <time>2022-05-14T10:31:57Z</time>
      </trkpt>
      <trkpt lat="47.32505" lon="-1.33072">
        <ele>60</ele>
        <time>2022-05-14T10:31:59Z</time>
      </trkpt>
      <trkpt lat="47.32495" lon="-1.33083">
        <ele>60</ele>
        <time>2022-05-14T10:32:01Z</time>
      </trkpt>
      <trkpt lat="47.32485" lon="-1.33095">
        <ele>60</ele>
        <time>2022-05-14T10:32:03Z</time>
      </trkpt>
      <trkpt lat="47.32474" lon="-1.33106">
        <ele>60</ele>
        <time>2022-05-14T10:32:05Z</time>
      </trkpt>
      <trkpt lat="47.32464" lon="-1.33118">
        <ele>60</ele>
        <time>2022-05-14T10:32:07Z</time>
      </trkpt>
      <trkpt lat="47.32455" lon="-1.3313">
        <ele>60</ele>
        <time>2022-05-14T10:32:09Z</time>
      </trkpt>
      <trkpt lat="47.32447" lon="-1.3314">
        <ele>60</ele>
        <time>2022-05-14T10:32:11Z</time>
      </trkpt>
      <trkpt lat="47.32438" lon="-1.33143">
        <ele>60</ele>
        <time>2022-05-14T10:32:13Z</time>
      </trkpt>
      <trkpt lat="47.32426" lon="-1.33142">
        <ele>60</ele>
        <time>2022-05-14T10:32:16Z</time>
      </trkpt>
      <trkpt lat="47.32415" lon="-1.33155">
        <ele>60</ele>
        <time>2022-05-14T10:32:19Z</time>
      </trkpt>
      <trkpt lat="47.32405" lon="-1.33167">
        <ele>60</ele>
        <time>2022-05-14T10:32:21Z</time>
      </trkpt>
      <trkpt lat="47.32396" lon="-1.33179">
        <ele>60</ele>
        <time>2022-05-14T10:32:23Z</time>
      </trkpt>
      <trkpt lat="47.32387" lon="-1.33191">
        <ele>60</ele>
        <time>2022-05-14T10:32:25Z</time>
      </trkpt>
      <trkpt lat="47.32379" lon="-1.33205">
        <ele>60</ele>
        <time>2022-05-14T10:32:27Z</time>
      </trkpt>
      <trkpt lat="47.3237" lon="-1.33219">
        <ele>59</ele>
        <time>2022-05-14T10:32:29Z</time>
      </trkpt>
      <trkpt lat="47.32363" lon="-1.33234">
        <ele>59</ele>
        <time>2022-05-14T10:32:31Z</time>
      </trkpt>
      <trkpt lat="47.32356" lon="-1.33248">
        <ele>58</ele>
        <time>2022-05-14T10:32:33Z</time>
      </trkpt>
      <trkpt lat="47.32348" lon="-1.33265">
        <ele>57</ele>
        <time>2022-05-14T10:32:35Z</time>
      </trkpt>
      <trkpt lat="47.32342" lon="-1.3328">
        <ele>57</ele>
        <time>2022-05-14T10:32:37Z</time>
      </trkpt>
      <trkpt lat="47.32335" lon="-1.33297">
        <ele>56</ele>
        <time>2022-05-14T10:32:39Z</time>
      </trkpt>
      <trkpt lat="47.32329" lon="-1.33312">
        <ele>56</ele>
        <time>2022-05-14T10:32:41Z</time>
      </trkpt>
      <trkpt lat="47.32323" lon="-1.33329">
        <ele>55</ele>
        <time>2022-05-14T10:32:43Z</time>
      </trkpt>
      <trkpt lat="47.32318" lon="-1.33345">
        <ele>55</ele>
        <time>2022-05-14T10:32:45Z</time>
      </trkpt>
      <trkpt lat="47.32312" lon="-1.33362">
        <ele>55</ele>
        <time>2022-05-14T10:32:47Z</time>
      </trkpt>
      <trkpt lat="47.32305" lon="-1.33377">
        <ele>55</ele>
        <time>2022-05-14T10:32:49Z</time>
      </trkpt>
      <trkpt lat="47.32298" lon="-1.33393">
        <ele>55</ele>
        <time>2022-05-14T10:32:51Z</time>
      </trkpt>
      <trkpt lat="47.32292" lon="-1.33408">
        <ele>55</ele>
        <time>2022-05-14T10:32:53Z</time>
      </trkpt>
      <trkpt lat="47.32285" lon="-1.33424">
        <ele>55</ele>
        <time>2022-05-14T10:32:55Z</time>
      </trkpt>
      <trkpt lat="47.32277" lon="-1.33438">
        <ele>55</ele>
        <time>2022-05-14T10:32:57Z</time>
      </trkpt>
      <trkpt lat="47.3227" lon="-1.33453">
        <ele>54</ele>
        <time>2022-05-14T10:32:59Z</time>
      </trkpt>
      <trkpt lat="47.32263" lon="-1.33469">
        <ele>54</ele>
        <time>2022-05-14T10:33:01Z</time>
      </trkpt>
      <trkpt lat="47.32257" lon="-1.33484">
        <ele>54</ele>
        <time>2022-05-14T10:33:03Z</time>
      </trkpt>
      <trkpt lat="47.3225" lon="-1.335">
        <ele>54</ele>
        <time>2022-05-14T10:33:05Z</time>
      </trkpt>
      <trkpt lat="47.32242" lon="-1.33515">
        <ele>54</ele>
        <time>2022-05-14T10:33:07Z</time>
      </trkpt>
      <trkpt lat="47.32235" lon="-1.3353">
        <ele>53</ele>
        <time>2022-05-14T10:33:09Z</time>
      </trkpt>
      <trkpt lat="47.32228" lon="-1.33544">
        <ele>53</ele>
        <time>2022-05-14T10:33:11Z</time>
      </trkpt>
      <trkpt lat="47.3222" lon="-1.33556">
        <ele>53</ele>
        <time>2022-05-14T10:33:13Z</time>
      </trkpt>
      <trkpt lat="47.32212" lon="-1.33571">
        <ele>53</ele>
        <time>2022-05-14T10:33:15Z</time>
      </trkpt>
      <trkpt lat="47.32205" lon="-1.33586">
        <ele>53</ele>
        <time>2022-05-14T10:33:17Z</time>
      </trkpt>
      <trkpt lat="47.32199" lon="-1.33602">
        <ele>53</ele>
        <time>2022-05-14T10:33:19Z</time>
      </trkpt>
      <trkpt lat="47.32193" lon="-1.33617">
        <ele>53</ele>
        <time>2022-05-14T10:33:21Z</time>
      </trkpt>
      <trkpt lat="47.32188" lon="-1.33631">
        <ele>53</ele>
        <time>2022-05-14T10:33:23Z</time>
      </trkpt>
      <trkpt lat="47.32181" lon="-1.33642">
        <ele>53</ele>
        <time>2022-05-14T10:33:25Z</time>
      </trkpt>
      <trkpt lat="47.32173" lon="-1.33656">
        <ele>54</ele>
        <time>2022-05-14T10:33:28Z</time>
      </trkpt>
      <trkpt lat="47.32168" lon="-1.33669">
        <ele>54</ele>
        <time>2022-05-14T10:33:30Z</time>
      </trkpt>
      <trkpt lat="47.32161" lon="-1.33683">
        <ele>55</ele>
        <time>2022-05-14T10:33:32Z</time>
      </trkpt>
      <trkpt lat="47.32155" lon="-1.33699">
        <ele>55</ele>
        <time>2022-05-14T10:33:34Z</time>
      </trkpt>
      <trkpt lat="47.3215" lon="-1.33716">
        <ele>55</ele>
        <time>2022-05-14T10:33:36Z</time>
      </trkpt>
      <trkpt lat="47.32144" lon="-1.33733">
        <ele>55</ele>
        <time>2022-05-14T10:33:38Z</time>
      </trkpt>
      <trkpt lat="47.32139" lon="-1.33749">
        <ele>56</ele>
        <time>2022-05-14T10:33:40Z</time>
      </trkpt>
      <trkpt lat="47.32133" lon="-1.33765">
        <ele>56</ele>
        <time>2022-05-14T10:33:42Z</time>
      </trkpt>
      <trkpt lat="47.32126" lon="-1.3378">
        <ele>56</ele>
        <time>2022-05-14T10:33:44Z</time>
      </trkpt>
      <trkpt lat="47.3212" lon="-1.33796">
        <ele>56</ele>
        <time>2022-05-14T10:33:46Z</time>
      </trkpt>
      <trkpt lat="47.32113" lon="-1.33812">
        <ele>56</ele>
        <time>2022-05-14T10:33:48Z</time>
      </trkpt>
      <trkpt lat="47.32108" lon="-1.33829">
        <ele>56</ele>
        <time>2022-05-14T10:33:50Z</time>
      </trkpt>
      <trkpt lat="47.321" lon="-1.33845">
        <ele>56</ele>
        <time>2022-05-14T10:33:52Z</time>
      </trkpt>
      <trkpt lat="47.32093" lon="-1.33859">
        <ele>55</ele>
        <time>2022-05-14T10:33:54Z</time>
      </trkpt>
      <trkpt lat="47.32086" lon="-1.33873">
        <ele>55</ele>
        <time>2022-05-14T10:33:56Z</time>
      </trkpt>
      <trkpt lat="47.32078" lon="-1.33887">
        <ele>54</ele>
        <time>2022-05-14T10:33:58Z</time>
      </trkpt>
      <trkpt lat="47.32069" lon="-1.33902">
        <ele>54</ele>
        <time>2022-05-14T10:34:00Z</time>
      </trkpt>
      <trkpt lat="47.3206" lon="-1.33916">
        <ele>53</ele>
        <time>2022-05-14T10:34:02Z</time>
      </trkpt>
      <trkpt lat="47.32052" lon="-1.3393">
        <ele>53</ele>
        <time>2022-05-14T10:34:04Z</time>
      </trkpt>
      <trkpt lat="47.32045" lon="-1.33944">
        <ele>53</ele>
        <time>2022-05-14T10:34:06Z</time>
      </trkpt>
      <trkpt lat="47.32039" lon="-1.33957">
        <ele>54</ele>
        <time>2022-05-14T10:34:08Z</time>
      </trkpt>
      <trkpt lat="47.32034" lon="-1.33969">
        <ele>54</ele>
        <time>2022-05-14T10:34:10Z</time>
      </trkpt>
      <trkpt lat="47.32027" lon="-1.3398">
        <ele>54</ele>
        <time>2022-05-14T10:34:12Z</time>
      </trkpt>
      <trkpt lat="47.32019" lon="-1.33991">
        <ele>53</ele>
        <time>2022-05-14T10:34:14Z</time>
      </trkpt>
      <trkpt lat="47.3201" lon="-1.34002">
        <ele>53</ele>
        <time>2022-05-14T10:34:16Z</time>
      </trkpt>
      <trkpt lat="47.32003" lon="-1.34015">
        <ele>53</ele>
        <time>2022-05-14T10:34:18Z</time>
      </trkpt>
      <trkpt lat="47.31995" lon="-1.34027">
        <ele>54</ele>
        <time>2022-05-14T10:34:20Z</time>
      </trkpt>
      <trkpt lat="47.31987" lon="-1.34039">
        <ele>54</ele>
        <time>2022-05-14T10:34:22Z</time>
      </trkpt>
      <trkpt lat="47.31979" lon="-1.34052">
        <ele>55</ele>
        <time>2022-05-14T10:34:24Z</time>
      </trkpt>
      <trkpt lat="47.31971" lon="-1.34065">
        <ele>55</ele>
        <time>2022-05-14T10:34:26Z</time>
      </trkpt>
      <trkpt lat="47.31962" lon="-1.34078">
        <ele>55</ele>
        <time>2022-05-14T10:34:28Z</time>
      </trkpt>
      <trkpt lat="47.31954" lon="-1.34091">
        <ele>54</ele>
        <time>2022-05-14T10:34:30Z</time>
      </trkpt>
      <trkpt lat="47.31946" lon="-1.34103">
        <ele>55</ele>
        <time>2022-05-14T10:34:32Z</time>
      </trkpt>
      <trkpt lat="47.31938" lon="-1.34116">
        <ele>54</ele>
        <time>2022-05-14T10:34:34Z</time>
      </trkpt>
      <trkpt lat="47.31931" lon="-1.34128">
        <ele>54</ele>
        <time>2022-05-14T10:34:36Z</time>
      </trkpt>
      <trkpt lat="47.31922" lon="-1.3414">
        <ele>54</ele>
        <time>2022-05-14T10:34:38Z</time>
      </trkpt>
      <trkpt lat="47.31914" lon="-1.34152">
        <ele>53</ele>
        <time>2022-05-14T10:34:40Z</time>
      </trkpt>
      <trkpt lat="47.31905" lon="-1.34164">
        <ele>53</ele>
        <time>2022-05-14T10:34:42Z</time>
      </trkpt>
      <trkpt lat="47.31896" lon="-1.34176">
        <ele>53</ele>
        <time>2022-05-14T10:34:44Z</time>
      </trkpt>
      <trkpt lat="47.31887" lon="-1.3419">
        <ele>54</ele>
        <time>2022-05-14T10:34:46Z</time>
      </trkpt>
      <trkpt lat="47.31877" lon="-1.34203">
        <ele>54</ele>
        <time>2022-05-14T10:34:48Z</time>
      </trkpt>
      <trkpt lat="47.31868" lon="-1.34217">
        <ele>54</ele>
        <time>2022-05-14T10:34:50Z</time>
      </trkpt>
      <trkpt lat="47.3186" lon="-1.34231">
        <ele>55</ele>
        <time>2022-05-14T10:34:52Z</time>
      </trkpt>
      <trkpt lat="47.31851" lon="-1.34243">
        <ele>55</ele>
        <time>2022-05-14T10:34:54Z</time>
      </trkpt>
      <trkpt lat="47.31843" lon="-1.34256">
        <ele>54</ele>
        <time>2022-05-14T10:34:56Z</time>
      </trkpt>
      <trkpt lat="47.31834" lon="-1.3427">
        <ele>54</ele>
        <time>2022-05-14T10:34:58Z</time>
      </trkpt>
      <trkpt lat="47.31826" lon="-1.34283">
        <ele>54</ele>
        <time>2022-05-14T10:35:00Z</time>
      </trkpt>
      <trkpt lat="47.31817" lon="-1.34297">
        <ele>54</ele>
        <time>2022-05-14T10:35:02Z</time>
      </trkpt>
      <trkpt lat="47.31809" lon="-1.34311">
        <ele>54</ele>
        <time>2022-05-14T10:35:04Z</time>
      </trkpt>
      <trkpt lat="47.318" lon="-1.34325">
        <ele>54</ele>
        <time>2022-05-14T10:35:06Z</time>
      </trkpt>
      <trkpt lat="47.31792" lon="-1.34338">
        <ele>55</ele>
        <time>2022-05-14T10:35:08Z</time>
      </trkpt>
      <trkpt lat="47.31783" lon="-1.34352">
        <ele>55</ele>
        <time>2022-05-14T10:35:10Z</time>
      </trkpt>
      <trkpt lat="47.31775" lon="-1.34364">
        <ele>55</ele>
        <time>2022-05-14T10:35:12Z</time>
      </trkpt>
      <trkpt lat="47.31767" lon="-1.34377">
        <ele>56</ele>
        <time>2022-05-14T10:35:14Z</time>
      </trkpt>
      <trkpt lat="47.31761" lon="-1.34389">
        <ele>56</ele>
        <time>2022-05-14T10:35:16Z</time>
      </trkpt>
      <trkpt lat="47.31755" lon="-1.34402">
        <ele>57</ele>
        <time>2022-05-14T10:35:18Z</time>
      </trkpt>
      <trkpt lat="47.31747" lon="-1.34415">
        <ele>57</ele>
        <time>2022-05-14T10:35:20Z</time>
      </trkpt>
      <trkpt lat="47.31739" lon="-1.34428">
        <ele>57</ele>
        <time>2022-05-14T10:35:22Z</time>
      </trkpt>
      <trkpt lat="47.31731" lon="-1.34441">
        <ele>57</ele>
        <time>2022-05-14T10:35:24Z</time>
      </trkpt>
      <trkpt lat="47.31723" lon="-1.34454">
        <ele>57</ele>
        <time>2022-05-14T10:35:26Z</time>
      </trkpt>
      <trkpt lat="47.31715" lon="-1.34465">
        <ele>58</ele>
        <time>2022-05-14T10:35:28Z</time>
      </trkpt>
      <trkpt lat="47.31705" lon="-1.34478">
        <ele>58</ele>
        <time>2022-05-14T10:35:30Z</time>
      </trkpt>
      <trkpt lat="47.31696" lon="-1.34491">
        <ele>59</ele>
        <time>2022-05-14T10:35:32Z</time>
      </trkpt>
      <trkpt lat="47.31687" lon="-1.34505">
        <ele>58</ele>
        <time>2022-05-14T10:35:34Z</time>
      </trkpt>
      <trkpt lat="47.31678" lon="-1.34518">
        <ele>59</ele>
        <time>2022-05-14T10:35:36Z</time>
      </trkpt>
      <trkpt lat="47.3167" lon="-1.34531">
        <ele>59</ele>
        <time>2022-05-14T10:35:38Z</time>
      </trkpt>
      <trkpt lat="47.31662" lon="-1.34545">
        <ele>59</ele>
        <time>2022-05-14T10:35:40Z</time>
      </trkpt>
      <trkpt lat="47.31653" lon="-1.34557">
        <ele>58</ele>
        <time>2022-05-14T10:35:42Z</time>
      </trkpt>
      <trkpt lat="47.31646" lon="-1.3457">
        <ele>58</ele>
        <time>2022-05-14T10:35:44Z</time>
      </trkpt>
      <trkpt lat="47.31641" lon="-1.34581">
        <ele>58</ele>
        <time>2022-05-14T10:35:46Z</time>
      </trkpt>
      <trkpt lat="47.31633" lon="-1.34594">
        <ele>59</ele>
        <time>2022-05-14T10:35:48Z</time>
      </trkpt>
      <trkpt lat="47.31625" lon="-1.34607">
        <ele>59</ele>
        <time>2022-05-14T10:35:50Z</time>
      </trkpt>
      <trkpt lat="47.31618" lon="-1.3462">
        <ele>59</ele>
        <time>2022-05-14T10:35:52Z</time>
      </trkpt>
      <trkpt lat="47.31609" lon="-1.34633">
        <ele>59</ele>
        <time>2022-05-14T10:35:54Z</time>
      </trkpt>
      <trkpt lat="47.31601" lon="-1.34647">
        <ele>60</ele>
        <time>2022-05-14T10:35:56Z</time>
      </trkpt>
      <trkpt lat="47.31593" lon="-1.34661">
        <ele>60</ele>
        <time>2022-05-14T10:35:58Z</time>
      </trkpt>
      <trkpt lat="47.31585" lon="-1.34674">
        <ele>60</ele>
        <time>2022-05-14T10:36:00Z</time>
      </trkpt>
      <trkpt lat="47.31577" lon="-1.34686">
        <ele>61</ele>
        <time>2022-05-14T10:36:02Z</time>
      </trkpt>
      <trkpt lat="47.31569" lon="-1.34698">
        <ele>61</ele>
        <time>2022-05-14T10:36:04Z</time>
      </trkpt>
      <trkpt lat="47.31561" lon="-1.34711">
        <ele>61</ele>
        <time>2022-05-14T10:36:06Z</time>
      </trkpt>
      <trkpt lat="47.31553" lon="-1.34725">
        <ele>61</ele>
        <time>2022-05-14T10:36:08Z</time>
      </trkpt>
      <trkpt lat="47.31543" lon="-1.34738">
        <ele>60</ele>
        <time>2022-05-14T10:36:10Z</time>
      </trkpt>
      <trkpt lat="47.31534" lon="-1.3475">
        <ele>60</ele>
        <time>2022-05-14T10:36:12Z</time>
      </trkpt>
      <trkpt lat="47.31526" lon="-1.34762">
        <ele>60</ele>
        <time>2022-05-14T10:36:14Z</time>
      </trkpt>
      <trkpt lat="47.31518" lon="-1.34775">
        <ele>60</ele>
        <time>2022-05-14T10:36:16Z</time>
      </trkpt>
      <trkpt lat="47.31509" lon="-1.34787">
        <ele>60</ele>
        <time>2022-05-14T10:36:18Z</time>
      </trkpt>
      <trkpt lat="47.31501" lon="-1.34799">
        <ele>60</ele>
        <time>2022-05-14T10:36:20Z</time>
      </trkpt>
      <trkpt lat="47.31493" lon="-1.34811">
        <ele>59</ele>
        <time>2022-05-14T10:36:22Z</time>
      </trkpt>
      <trkpt lat="47.31486" lon="-1.34823">
        <ele>60</ele>
        <time>2022-05-14T10:36:24Z</time>
      </trkpt>
      <trkpt lat="47.31479" lon="-1.34835">
        <ele>61</ele>
        <time>2022-05-14T10:36:26Z</time>
      </trkpt>
      <trkpt lat="47.3147" lon="-1.34847">
        <ele>61</ele>
        <time>2022-05-14T10:36:28Z</time>
      </trkpt>
      <trkpt lat="47.31463" lon="-1.34861">
        <ele>61</ele>
        <time>2022-05-14T10:36:30Z</time>
      </trkpt>
      <trkpt lat="47.31456" lon="-1.34874">
        <ele>62</ele>
        <time>2022-05-14T10:36:32Z</time>
      </trkpt>
      <trkpt lat="47.31448" lon="-1.34887">
        <ele>61</ele>
        <time>2022-05-14T10:36:34Z</time>
      </trkpt>
      <trkpt lat="47.31439" lon="-1.34901">
        <ele>61</ele>
        <time>2022-05-14T10:36:36Z</time>
      </trkpt>
      <trkpt lat="47.31431" lon="-1.34914">
        <ele>61</ele>
        <time>2022-05-14T10:36:38Z</time>
      </trkpt>
      <trkpt lat="47.31423" lon="-1.34928">
        <ele>62</ele>
        <time>2022-05-14T10:36:40Z</time>
      </trkpt>
      <trkpt lat="47.31415" lon="-1.34941">
        <ele>62</ele>
        <time>2022-05-14T10:36:42Z</time>
      </trkpt>
      <trkpt lat="47.31406" lon="-1.34954">
        <ele>62</ele>
        <time>2022-05-14T10:36:44Z</time>
      </trkpt>
      <trkpt lat="47.31396" lon="-1.34966">
        <ele>61</ele>
        <time>2022-05-14T10:36:46Z</time>
      </trkpt>
      <trkpt lat="47.31389" lon="-1.3498">
        <ele>61</ele>
        <time>2022-05-14T10:36:48Z</time>
      </trkpt>
      <trkpt lat="47.31382" lon="-1.34993">
        <ele>61</ele>
        <time>2022-05-14T10:36:50Z</time>
      </trkpt>
      <trkpt lat="47.31373" lon="-1.35007">
        <ele>61</ele>
        <time>2022-05-14T10:36:52Z</time>
      </trkpt>
      <trkpt lat="47.31364" lon="-1.35021">
        <ele>60</ele>
        <time>2022-05-14T10:36:54Z</time>
      </trkpt>
      <trkpt lat="47.31356" lon="-1.35034">
        <ele>60</ele>
        <time>2022-05-14T10:36:56Z</time>
      </trkpt>
      <trkpt lat="47.31348" lon="-1.35047">
        <ele>60</ele>
        <time>2022-05-14T10:36:58Z</time>
      </trkpt>
      <trkpt lat="47.3134" lon="-1.35059">
        <ele>60</ele>
        <time>2022-05-14T10:37:00Z</time>
      </trkpt>
      <trkpt lat="47.31332" lon="-1.35071">
        <ele>60</ele>
        <time>2022-05-14T10:37:02Z</time>
      </trkpt>
      <trkpt lat="47.31325" lon="-1.35082">
        <ele>60</ele>
        <time>2022-05-14T10:37:04Z</time>
      </trkpt>
      <trkpt lat="47.31315" lon="-1.35087">
        <ele>60</ele>
        <time>2022-05-14T10:37:06Z</time>
      </trkpt>
      <trkpt lat="47.31303" lon="-1.35096">
        <ele>59</ele>
        <time>2022-05-14T10:37:08Z</time>
      </trkpt>
      <trkpt lat="47.31296" lon="-1.35108">
        <ele>59</ele>
        <time>2022-05-14T10:37:10Z</time>
      </trkpt>
      <trkpt lat="47.3129" lon="-1.35119">
        <ele>58</ele>
        <time>2022-05-14T10:37:12Z</time>
      </trkpt>
      <trkpt lat="47.31284" lon="-1.35132">
        <ele>58</ele>
        <time>2022-05-14T10:37:14Z</time>
      </trkpt>
      <trkpt lat="47.31278" lon="-1.35147">
        <ele>57</ele>
        <time>2022-05-14T10:37:16Z</time>
      </trkpt>
      <trkpt lat="47.31271" lon="-1.35161">
        <ele>58</ele>
        <time>2022-05-14T10:37:18Z</time>
      </trkpt>
      <trkpt lat="47.31263" lon="-1.35175">
        <ele>58</ele>
        <time>2022-05-14T10:37:20Z</time>
      </trkpt>
      <trkpt lat="47.31254" lon="-1.35189">
        <ele>57</ele>
        <time>2022-05-14T10:37:22Z</time>
      </trkpt>
      <trkpt lat="47.31246" lon="-1.35202">
        <ele>57</ele>
        <time>2022-05-14T10:37:24Z</time>
      </trkpt>
      <trkpt lat="47.31238" lon="-1.35214">
        <ele>57</ele>
        <time>2022-05-14T10:37:26Z</time>
      </trkpt>
      <trkpt lat="47.31229" lon="-1.35226">
        <ele>57</ele>
        <time>2022-05-14T10:37:28Z</time>
      </trkpt>
      <trkpt lat="47.31221" lon="-1.35239">
        <ele>57</ele>
        <time>2022-05-14T10:37:30Z</time>
      </trkpt>
      <trkpt lat="47.31213" lon="-1.35252">
        <ele>58</ele>
        <time>2022-05-14T10:37:32Z</time>
      </trkpt>
      <trkpt lat="47.31206" lon="-1.35264">
        <ele>58</ele>
        <time>2022-05-14T10:37:34Z</time>
      </trkpt>
      <trkpt lat="47.31198" lon="-1.35276">
        <ele>59</ele>
        <time>2022-05-14T10:37:36Z</time>
      </trkpt>
      <trkpt lat="47.3119" lon="-1.3529">
        <ele>60</ele>
        <time>2022-05-14T10:37:38Z</time>
      </trkpt>
      <trkpt lat="47.31182" lon="-1.35304">
        <ele>60</ele>
        <time>2022-05-14T10:37:40Z</time>
      </trkpt>
      <trkpt lat="47.31174" lon="-1.35317">
        <ele>60</ele>
        <time>2022-05-14T10:37:42Z</time>
      </trkpt>
      <trkpt lat="47.31166" lon="-1.35329">
        <ele>60</ele>
        <time>2022-05-14T10:37:44Z</time>
      </trkpt>
      <trkpt lat="47.31157" lon="-1.35341">
        <ele>60</ele>
        <time>2022-05-14T10:37:46Z</time>
      </trkpt>
      <trkpt lat="47.31149" lon="-1.35354">
        <ele>60</ele>
        <time>2022-05-14T10:37:48Z</time>
      </trkpt>
      <trkpt lat="47.3114" lon="-1.35368">
        <ele>60</ele>
        <time>2022-05-14T10:37:50Z</time>
      </trkpt>
      <trkpt lat="47.31131" lon="-1.3538">
        <ele>59</ele>
        <time>2022-05-14T10:37:52Z</time>
      </trkpt>
      <trkpt lat="47.31123" lon="-1.35394">
        <ele>59</ele>
        <time>2022-05-14T10:37:54Z</time>
      </trkpt>
      <trkpt lat="47.31114" lon="-1.35407">
        <ele>59</ele>
        <time>2022-05-14T10:37:56Z</time>
      </trkpt>
      <trkpt lat="47.31105" lon="-1.3542">
        <ele>59</ele>
        <time>2022-05-14T10:37:58Z</time>
      </trkpt>
      <trkpt lat="47.31097" lon="-1.35433">
        <ele>59</ele>
        <time>2022-05-14T10:38:00Z</time>
      </trkpt>
      <trkpt lat="47.31088" lon="-1.35445">
        <ele>59</ele>
        <time>2022-05-14T10:38:02Z</time>
      </trkpt>
      <trkpt lat="47.31078" lon="-1.35457">
        <ele>59</ele>
        <time>2022-05-14T10:38:04Z</time>
      </trkpt>
      <trkpt lat="47.3107" lon="-1.35469">
        <ele>59</ele>
        <time>2022-05-14T10:38:06Z</time>
      </trkpt>
      <trkpt lat="47.31061" lon="-1.35482">
        <ele>59</ele>
        <time>2022-05-14T10:38:08Z</time>
      </trkpt>
      <trkpt lat="47.31051" lon="-1.35494">
        <ele>59</ele>
        <time>2022-05-14T10:38:10Z</time>
      </trkpt>
      <trkpt lat="47.31041" lon="-1.35505">
        <ele>58</ele>
        <time>2022-05-14T10:38:12Z</time>
      </trkpt>
      <trkpt lat="47.31031" lon="-1.35516">
        <ele>58</ele>
        <time>2022-05-14T10:38:14Z</time>
      </trkpt>
      <trkpt lat="47.31022" lon="-1.35527">
        <ele>58</ele>
        <time>2022-05-14T10:38:16Z</time>
      </trkpt>
      <trkpt lat="47.31013" lon="-1.35539">
        <ele>59</ele>
        <time>2022-05-14T10:38:18Z</time>
      </trkpt>
      <trkpt lat="47.31003" lon="-1.35549">
        <ele>59</ele>
        <time>2022-05-14T10:38:20Z</time>
      </trkpt>
      <trkpt lat="47.30992" lon="-1.3556">
        <ele>59</ele>
        <time>2022-05-14T10:38:22Z</time>
      </trkpt>
      <trkpt lat="47.30982" lon="-1.35572">
        <ele>59</ele>
        <time>2022-05-14T10:38:24Z</time>
      </trkpt>
      <trkpt lat="47.30972" lon="-1.35583">
        <ele>59</ele>
        <time>2022-05-14T10:38:26Z</time>
      </trkpt>
      <trkpt lat="47.30962" lon="-1.35594">
        <ele>58</ele>
        <time>2022-05-14T10:38:28Z</time>
      </trkpt>
      <trkpt lat="47.30953" lon="-1.35606">
        <ele>59</ele>
        <time>2022-05-14T10:38:30Z</time>
      </trkpt>
      <trkpt lat="47.30943" lon="-1.35617">
        <ele>58</ele>
        <time>2022-05-14T10:38:32Z</time>
      </trkpt>
      <trkpt lat="47.30934" lon="-1.3563">
        <ele>58</ele>
        <time>2022-05-14T10:38:34Z</time>
      </trkpt>
      <trkpt lat="47.30924" lon="-1.35641">
        <ele>58</ele>
        <time>2022-05-14T10:38:36Z</time>
      </trkpt>
      <trkpt lat="47.30914" lon="-1.35652">
        <ele>58</ele>
        <time>2022-05-14T10:38:38Z</time>
      </trkpt>
      <trkpt lat="47.30905" lon="-1.35664">
        <ele>58</ele>
        <time>2022-05-14T10:38:40Z</time>
      </trkpt>
      <trkpt lat="47.30896" lon="-1.35675">
        <ele>59</ele>
        <time>2022-05-14T10:38:42Z</time>
      </trkpt>
      <trkpt lat="47.30886" lon="-1.35686">
        <ele>59</ele>
        <time>2022-05-14T10:38:44Z</time>
      </trkpt>
      <trkpt lat="47.30876" lon="-1.35698">
        <ele>60</ele>
        <time>2022-05-14T10:38:46Z</time>
      </trkpt>
      <trkpt lat="47.30867" lon="-1.3571">
        <ele>60</ele>
        <time>2022-05-14T10:38:48Z</time>
      </trkpt>
      <trkpt lat="47.30857" lon="-1.35721">
        <ele>60</ele>
        <time>2022-05-14T10:38:50Z</time>
      </trkpt>
      <trkpt lat="47.30847" lon="-1.35733">
        <ele>61</ele>
        <time>2022-05-14T10:38:52Z</time>
      </trkpt>
      <trkpt lat="47.30837" lon="-1.35744">
        <ele>60</ele>
        <time>2022-05-14T10:38:54Z</time>
      </trkpt>
      <trkpt lat="47.30827" lon="-1.35756">
        <ele>60</ele>
        <time>2022-05-14T10:38:56Z</time>
      </trkpt>
      <trkpt lat="47.30816" lon="-1.35768">
        <ele>60</ele>
        <time>2022-05-14T10:38:58Z</time>
      </trkpt>
      <trkpt lat="47.30806" lon="-1.3578">
        <ele>60</ele>
        <time>2022-05-14T10:39:00Z</time>
      </trkpt>
      <trkpt lat="47.30797" lon="-1.35791">
        <ele>60</ele>
        <time>2022-05-14T10:39:02Z</time>
      </trkpt>
      <trkpt lat="47.30787" lon="-1.35803">
        <ele>61</ele>
        <time>2022-05-14T10:39:04Z</time>
      </trkpt>
      <trkpt lat="47.30777" lon="-1.35815">
        <ele>62</ele>
        <time>2022-05-14T10:39:06Z</time>
      </trkpt>
      <trkpt lat="47.30767" lon="-1.35826">
        <ele>62</ele>
        <time>2022-05-14T10:39:08Z</time>
      </trkpt>
      <trkpt lat="47.30757" lon="-1.35838">
        <ele>62</ele>
        <time>2022-05-14T10:39:10Z</time>
      </trkpt>
      <trkpt lat="47.30748" lon="-1.35849">
        <ele>63</ele>
        <time>2022-05-14T10:39:12Z</time>
      </trkpt>
      <trkpt lat="47.30739" lon="-1.35861">
        <ele>63</ele>
        <time>2022-05-14T10:39:14Z</time>
      </trkpt>
      <trkpt lat="47.30729" lon="-1.35872">
        <ele>64</ele>
        <time>2022-05-14T10:39:16Z</time>
      </trkpt>
      <trkpt lat="47.30718" lon="-1.35883">
        <ele>63</ele>
        <time>2022-05-14T10:39:18Z</time>
      </trkpt>
      <trkpt lat="47.30708" lon="-1.35895">
        <ele>63</ele>
        <time>2022-05-14T10:39:20Z</time>
      </trkpt>
      <trkpt lat="47.30697" lon="-1.35906">
        <ele>63</ele>
        <time>2022-05-14T10:39:22Z</time>
      </trkpt>
      <trkpt lat="47.30687" lon="-1.35918">
        <ele>63</ele>
        <time>2022-05-14T10:39:24Z</time>
      </trkpt>
      <trkpt lat="47.30678" lon="-1.35931">
        <ele>63</ele>
        <time>2022-05-14T10:39:26Z</time>
      </trkpt>
      <trkpt lat="47.30668" lon="-1.35943">
        <ele>63</ele>
        <time>2022-05-14T10:39:28Z</time>
      </trkpt>
      <trkpt lat="47.30658" lon="-1.35955">
        <ele>63</ele>
        <time>2022-05-14T10:39:30Z</time>
      </trkpt>
      <trkpt lat="47.30647" lon="-1.35966">
        <ele>62</ele>
        <time>2022-05-14T10:39:32Z</time>
      </trkpt>
      <trkpt lat="47.30637" lon="-1.35978">
        <ele>62</ele>
        <time>2022-05-14T10:39:34Z</time>
      </trkpt>
      <trkpt lat="47.30627" lon="-1.35989">
        <ele>62</ele>
        <time>2022-05-14T10:39:36Z</time>
      </trkpt>
      <trkpt lat="47.30616" lon="-1.35999">
        <ele>62</ele>
        <time>2022-05-14T10:39:38Z</time>
      </trkpt>
      <trkpt lat="47.30606" lon="-1.36009">
        <ele>61</ele>
        <time>2022-05-14T10:39:40Z</time>
      </trkpt>
      <trkpt lat="47.30596" lon="-1.36018">
        <ele>61</ele>
        <time>2022-05-14T10:39:42Z</time>
      </trkpt>
      <trkpt lat="47.30588" lon="-1.36026">
        <ele>60</ele>
        <time>2022-05-14T10:39:44Z</time>
      </trkpt>
      <trkpt lat="47.30583" lon="-1.3604">
        <ele>60</ele>
        <time>2022-05-14T10:39:47Z</time>
      </trkpt>
      <trkpt lat="47.30576" lon="-1.36052">
        <ele>61</ele>
        <time>2022-05-14T10:39:49Z</time>
      </trkpt>
      <trkpt lat="47.30566" lon="-1.36066">
        <ele>61</ele>
        <time>2022-05-14T10:39:51Z</time>
      </trkpt>
      <trkpt lat="47.30557" lon="-1.36078">
        <ele>61</ele>
        <time>2022-05-14T10:39:53Z</time>
      </trkpt>
      <trkpt lat="47.30548" lon="-1.36091">
        <ele>60</ele>
        <time>2022-05-14T10:39:55Z</time>
      </trkpt>
      <trkpt lat="47.3054" lon="-1.36103">
        <ele>60</ele>
        <time>2022-05-14T10:39:57Z</time>
      </trkpt>
      <trkpt lat="47.30534" lon="-1.36115">
        <ele>61</ele>
        <time>2022-05-14T10:39:59Z</time>
      </trkpt>
      <trkpt lat="47.30527" lon="-1.36129">
        <ele>61</ele>
        <time>2022-05-14T10:40:01Z</time>
      </trkpt>
      <trkpt lat="47.30521" lon="-1.36143">
        <ele>62</ele>
        <time>2022-05-14T10:40:03Z</time>
      </trkpt>
      <trkpt lat="47.30513" lon="-1.36157">
        <ele>63</ele>
        <time>2022-05-14T10:40:05Z</time>
      </trkpt>
      <trkpt lat="47.30506" lon="-1.36172">
        <ele>63</ele>
        <time>2022-05-14T10:40:07Z</time>
      </trkpt>
      <trkpt lat="47.30497" lon="-1.36187">
        <ele>63</ele>
        <time>2022-05-14T10:40:09Z</time>
      </trkpt>
      <trkpt lat="47.30488" lon="-1.36201">
        <ele>63</ele>
        <time>2022-05-14T10:40:11Z</time>
      </trkpt>
      <trkpt lat="47.30479" lon="-1.36215">
        <ele>62</ele>
        <time>2022-05-14T10:40:13Z</time>
      </trkpt>
      <trkpt lat="47.30472" lon="-1.36229">
        <ele>62</ele>
        <time>2022-05-14T10:40:15Z</time>
      </trkpt>
      <trkpt lat="47.30464" lon="-1.36244">
        <ele>61</ele>
        <time>2022-05-14T10:40:17Z</time>
      </trkpt>
      <trkpt lat="47.30458" lon="-1.3626">
        <ele>62</ele>
        <time>2022-05-14T10:40:19Z</time>
      </trkpt>
      <trkpt lat="47.30451" lon="-1.36275">
        <ele>61</ele>
        <time>2022-05-14T10:40:21Z</time>
      </trkpt>
      <trkpt lat="47.30444" lon="-1.3629">
        <ele>61</ele>
        <time>2022-05-14T10:40:23Z</time>
      </trkpt>
      <trkpt lat="47.30436" lon="-1.36304">
        <ele>61</ele>
        <time>2022-05-14T10:40:25Z</time>
      </trkpt>
      <trkpt lat="47.30429" lon="-1.36319">
        <ele>61</ele>
        <time>2022-05-14T10:40:27Z</time>
      </trkpt>
      <trkpt lat="47.30423" lon="-1.36332">
        <ele>61</ele>
        <time>2022-05-14T10:40:29Z</time>
      </trkpt>
      <trkpt lat="47.30415" lon="-1.36347">
        <ele>61</ele>
        <time>2022-05-14T10:40:31Z</time>
      </trkpt>
      <trkpt lat="47.30407" lon="-1.36362">
        <ele>61</ele>
        <time>2022-05-14T10:40:33Z</time>
      </trkpt>
      <trkpt lat="47.30401" lon="-1.36378">
        <ele>61</ele>
        <time>2022-05-14T10:40:35Z</time>
      </trkpt>
      <trkpt lat="47.30393" lon="-1.36394">
        <ele>61</ele>
        <time>2022-05-14T10:40:37Z</time>
      </trkpt>
      <trkpt lat="47.30385" lon="-1.3641">
        <ele>60</ele>
        <time>2022-05-14T10:40:39Z</time>
      </trkpt>
      <trkpt lat="47.30378" lon="-1.36425">
        <ele>59</ele>
        <time>2022-05-14T10:40:41Z</time>
      </trkpt>
      <trkpt lat="47.30371" lon="-1.3644">
        <ele>59</ele>
        <time>2022-05-14T10:40:43Z</time>
      </trkpt>
      <trkpt lat="47.30363" lon="-1.36455">
        <ele>59</ele>
        <time>2022-05-14T10:40:45Z</time>
      </trkpt>
      <trkpt lat="47.30356" lon="-1.36471">
        <ele>58</ele>
        <time>2022-05-14T10:40:47Z</time>
      </trkpt>
      <trkpt lat="47.3035" lon="-1.36486">
        <ele>58</ele>
        <time>2022-05-14T10:40:49Z</time>
      </trkpt>
      <trkpt lat="47.30341" lon="-1.36501">
        <ele>58</ele>
        <time>2022-05-14T10:40:51Z</time>
      </trkpt>
      <trkpt lat="47.30334" lon="-1.36516">
        <ele>58</ele>
        <time>2022-05-14T10:40:53Z</time>
      </trkpt>
      <trkpt lat="47.30327" lon="-1.36531">
        <ele>58</ele>
        <time>2022-05-14T10:40:55Z</time>
      </trkpt>
      <trkpt lat="47.3032" lon="-1.36546">
        <ele>58</ele>
        <time>2022-05-14T10:40:57Z</time>
      </trkpt>
      <trkpt lat="47.30314" lon="-1.3656">
        <ele>58</ele>
        <time>2022-05-14T10:40:59Z</time>
      </trkpt>
      <trkpt lat="47.30306" lon="-1.36576">
        <ele>59</ele>
        <time>2022-05-14T10:41:01Z</time>
      </trkpt>
      <trkpt lat="47.30299" lon="-1.36591">
        <ele>59</ele>
        <time>2022-05-14T10:41:03Z</time>
      </trkpt>
      <trkpt lat="47.30292" lon="-1.36605">
        <ele>59</ele>
        <time>2022-05-14T10:41:05Z</time>
      </trkpt>
      <trkpt lat="47.30286" lon="-1.36619">
        <ele>59</ele>
        <time>2022-05-14T10:41:07Z</time>
      </trkpt>
      <trkpt lat="47.30279" lon="-1.36634">
        <ele>59</ele>
        <time>2022-05-14T10:41:09Z</time>
      </trkpt>
      <trkpt lat="47.30271" lon="-1.36649">
        <ele>59</ele>
        <time>2022-05-14T10:41:11Z</time>
      </trkpt>
      <trkpt lat="47.30263" lon="-1.36664">
        <ele>59</ele>
        <time>2022-05-14T10:41:13Z</time>
      </trkpt>
      <trkpt lat="47.30256" lon="-1.36678">
        <ele>59</ele>
        <time>2022-05-14T10:41:15Z</time>
      </trkpt>
      <trkpt lat="47.30247" lon="-1.36693">
        <ele>59</ele>
        <time>2022-05-14T10:41:17Z</time>
      </trkpt>
      <trkpt lat="47.30239" lon="-1.36708">
        <ele>59</ele>
        <time>2022-05-14T10:41:19Z</time>
      </trkpt>
      <trkpt lat="47.30233" lon="-1.36722">
        <ele>59</ele>
        <time>2022-05-14T10:41:21Z</time>
      </trkpt>
      <trkpt lat="47.30226" lon="-1.36736">
        <ele>59</ele>
        <time>2022-05-14T10:41:23Z</time>
      </trkpt>
      <trkpt lat="47.30219" lon="-1.36751">
        <ele>59</ele>
        <time>2022-05-14T10:41:25Z</time>
      </trkpt>
      <trkpt lat="47.30213" lon="-1.36766">
        <ele>59</ele>
        <time>2022-05-14T10:41:27Z</time>
      </trkpt>
      <trkpt lat="47.30206" lon="-1.3678">
        <ele>59</ele>
        <time>2022-05-14T10:41:29Z</time>
      </trkpt>
      <trkpt lat="47.302" lon="-1.36794">
        <ele>59</ele>
        <time>2022-05-14T10:41:31Z</time>
      </trkpt>
      <trkpt lat="47.30194" lon="-1.36809">
        <ele>58</ele>
        <time>2022-05-14T10:41:33Z</time>
      </trkpt>
      <trkpt lat="47.30188" lon="-1.36822">
        <ele>58</ele>
        <time>2022-05-14T10:41:35Z</time>
      </trkpt>
      <trkpt lat="47.30181" lon="-1.36836">
        <ele>58</ele>
        <time>2022-05-14T10:41:37Z</time>
      </trkpt>
      <trkpt lat="47.30174" lon="-1.36851">
        <ele>59</ele>
        <time>2022-05-14T10:41:39Z</time>
      </trkpt>
      <trkpt lat="47.30167" lon="-1.36866">
        <ele>59</ele>
        <time>2022-05-14T10:41:41Z</time>
      </trkpt>
      <trkpt lat="47.3016" lon="-1.36879">
        <ele>59</ele>
        <time>2022-05-14T10:41:43Z</time>
      </trkpt>
      <trkpt lat="47.30152" lon="-1.36893">
        <ele>59</ele>
        <time>2022-05-14T10:41:45Z</time>
      </trkpt>
      <trkpt lat="47.30144" lon="-1.36907">
        <ele>59</ele>
        <time>2022-05-14T10:41:47Z</time>
      </trkpt>
      <trkpt lat="47.30137" lon="-1.36923">
        <ele>58</ele>
        <time>2022-05-14T10:41:49Z</time>
      </trkpt>
      <trkpt lat="47.30129" lon="-1.36937">
        <ele>58</ele>
        <time>2022-05-14T10:41:51Z</time>
      </trkpt>
      <trkpt lat="47.30122" lon="-1.36952">
        <ele>57</ele>
        <time>2022-05-14T10:41:53Z</time>
      </trkpt>
      <trkpt lat="47.30118" lon="-1.36967">
        <ele>57</ele>
        <time>2022-05-14T10:41:55Z</time>
      </trkpt>
      <trkpt lat="47.30111" lon="-1.36981">
        <ele>57</ele>
        <time>2022-05-14T10:41:57Z</time>
      </trkpt>
      <trkpt lat="47.30104" lon="-1.36996">
        <ele>57</ele>
        <time>2022-05-14T10:41:59Z</time>
      </trkpt>
      <trkpt lat="47.30098" lon="-1.37011">
        <ele>57</ele>
        <time>2022-05-14T10:42:01Z</time>
      </trkpt>
      <trkpt lat="47.3009" lon="-1.37025">
        <ele>57</ele>
        <time>2022-05-14T10:42:03Z</time>
      </trkpt>
      <trkpt lat="47.30083" lon="-1.37039">
        <ele>56</ele>
        <time>2022-05-14T10:42:05Z</time>
      </trkpt>
      <trkpt lat="47.30075" lon="-1.37053">
        <ele>55</ele>
        <time>2022-05-14T10:42:07Z</time>
      </trkpt>
      <trkpt lat="47.30067" lon="-1.37066">
        <ele>55</ele>
        <time>2022-05-14T10:42:09Z</time>
      </trkpt>
      <trkpt lat="47.30059" lon="-1.3708">
        <ele>55</ele>
        <time>2022-05-14T10:42:11Z</time>
      </trkpt>
      <trkpt lat="47.30051" lon="-1.37094">
        <ele>54</ele>
        <time>2022-05-14T10:42:13Z</time>
      </trkpt>
      <trkpt lat="47.30044" lon="-1.37107">
        <ele>54</ele>
        <time>2022-05-14T10:42:15Z</time>
      </trkpt>
      <trkpt lat="47.30036" lon="-1.3712">
        <ele>54</ele>
        <time>2022-05-14T10:42:17Z</time>
      </trkpt>
      <trkpt lat="47.30028" lon="-1.37134">
        <ele>54</ele>
        <time>2022-05-14T10:42:19Z</time>
      </trkpt>
      <trkpt lat="47.30019" lon="-1.37146">
        <ele>54</ele>
        <time>2022-05-14T10:42:21Z</time>
      </trkpt>
      <trkpt lat="47.30011" lon="-1.37159">
        <ele>53</ele>
        <time>2022-05-14T10:42:23Z</time>
      </trkpt>
      <trkpt lat="47.30003" lon="-1.37172">
        <ele>53</ele>
        <time>2022-05-14T10:42:25Z</time>
      </trkpt>
      <trkpt lat="47.29994" lon="-1.37186">
        <ele>52</ele>
        <time>2022-05-14T10:42:27Z</time>
      </trkpt>
      <trkpt lat="47.29986" lon="-1.37199">
        <ele>52</ele>
        <time>2022-05-14T10:42:29Z</time>
      </trkpt>
      <trkpt lat="47.29977" lon="-1.37213">
        <ele>51</ele>
        <time>2022-05-14T10:42:31Z</time>
      </trkpt>
      <trkpt lat="47.29969" lon="-1.37225">
        <ele>51</ele>
        <time>2022-05-14T10:42:33Z</time>
      </trkpt>
      <trkpt lat="47.29962" lon="-1.37237">
        <ele>51</ele>
        <time>2022-05-14T10:42:35Z</time>
      </trkpt>
      <trkpt lat="47.29954" lon="-1.3725">
        <ele>51</ele>
        <time>2022-05-14T10:42:37Z</time>
      </trkpt>
      <trkpt lat="47.29945" lon="-1.37263">
        <ele>50</ele>
        <time>2022-05-14T10:42:39Z</time>
      </trkpt>
      <trkpt lat="47.29936" lon="-1.37276">
        <ele>50</ele>
        <time>2022-05-14T10:42:41Z</time>
      </trkpt>
      <trkpt lat="47.29928" lon="-1.37289">
        <ele>51</ele>
        <time>2022-05-14T10:42:43Z</time>
      </trkpt>
      <trkpt lat="47.2992" lon="-1.37302">
        <ele>51</ele>
        <time>2022-05-14T10:42:45Z</time>
      </trkpt>
      <trkpt lat="47.29911" lon="-1.37315">
        <ele>51</ele>
        <time>2022-05-14T10:42:47Z</time>
      </trkpt>
      <trkpt lat="47.29903" lon="-1.37329">
        <ele>51</ele>
        <time>2022-05-14T10:42:49Z</time>
      </trkpt>
      <trkpt lat="47.29895" lon="-1.37342">
        <ele>51</ele>
        <time>2022-05-14T10:42:51Z</time>
      </trkpt>
      <trkpt lat="47.29886" lon="-1.37355">
        <ele>51</ele>
        <time>2022-05-14T10:42:53Z</time>
      </trkpt>
      <trkpt lat="47.29878" lon="-1.37368">
        <ele>51</ele>
        <time>2022-05-14T10:42:55Z</time>
      </trkpt>
      <trkpt lat="47.29869" lon="-1.3738">
        <ele>51</ele>
        <time>2022-05-14T10:42:57Z</time>
      </trkpt>
      <trkpt lat="47.29861" lon="-1.37394">
        <ele>51</ele>
        <time>2022-05-14T10:42:59Z</time>
      </trkpt>
      <trkpt lat="47.29852" lon="-1.37406">
        <ele>51</ele>
        <time>2022-05-14T10:43:01Z</time>
      </trkpt>
      <trkpt lat="47.29844" lon="-1.37419">
        <ele>51</ele>
        <time>2022-05-14T10:43:03Z</time>
      </trkpt>
      <trkpt lat="47.29836" lon="-1.37431">
        <ele>52</ele>
        <time>2022-05-14T10:43:05Z</time>
      </trkpt>
      <trkpt lat="47.29829" lon="-1.37443">
        <ele>52</ele>
        <time>2022-05-14T10:43:07Z</time>
      </trkpt>
      <trkpt lat="47.29821" lon="-1.37456">
        <ele>52</ele>
        <time>2022-05-14T10:43:09Z</time>
      </trkpt>
      <trkpt lat="47.29813" lon="-1.37469">
        <ele>52</ele>
        <time>2022-05-14T10:43:11Z</time>
      </trkpt>
      <trkpt lat="47.29804" lon="-1.37482">
        <ele>52</ele>
        <time>2022-05-14T10:43:13Z</time>
      </trkpt>
      <trkpt lat="47.29796" lon="-1.37496">
        <ele>52</ele>
        <time>2022-05-14T10:43:15Z</time>
      </trkpt>
      <trkpt lat="47.29788" lon="-1.3751">
        <ele>52</ele>
        <time>2022-05-14T10:43:17Z</time>
      </trkpt>
      <trkpt lat="47.2978" lon="-1.37524">
        <ele>52</ele>
        <time>2022-05-14T10:43:19Z</time>
      </trkpt>
      <trkpt lat="47.29772" lon="-1.37538">
        <ele>51</ele>
        <time>2022-05-14T10:43:21Z</time>
      </trkpt>
      <trkpt lat="47.29765" lon="-1.37552">
        <ele>51</ele>
        <time>2022-05-14T10:43:23Z</time>
      </trkpt>
      <trkpt lat="47.29758" lon="-1.37568">
        <ele>51</ele>
        <time>2022-05-14T10:43:25Z</time>
      </trkpt>
      <trkpt lat="47.2975" lon="-1.37583">
        <ele>51</ele>
        <time>2022-05-14T10:43:27Z</time>
      </trkpt>
      <trkpt lat="47.29742" lon="-1.37598">
        <ele>50</ele>
        <time>2022-05-14T10:43:29Z</time>
      </trkpt>
      <trkpt lat="47.29735" lon="-1.37613">
        <ele>51</ele>
        <time>2022-05-14T10:43:31Z</time>
      </trkpt>
      <trkpt lat="47.29727" lon="-1.37629">
        <ele>51</ele>
        <time>2022-05-14T10:43:33Z</time>
      </trkpt>
      <trkpt lat="47.29719" lon="-1.37642">
        <ele>51</ele>
        <time>2022-05-14T10:43:35Z</time>
      </trkpt>
      <trkpt lat="47.29712" lon="-1.37656">
        <ele>51</ele>
        <time>2022-05-14T10:43:37Z</time>
      </trkpt>
      <trkpt lat="47.29704" lon="-1.37671">
        <ele>51</ele>
        <time>2022-05-14T10:43:39Z</time>
      </trkpt>
      <trkpt lat="47.29696" lon="-1.37685">
        <ele>51</ele>
        <time>2022-05-14T10:43:41Z</time>
      </trkpt>
      <trkpt lat="47.29689" lon="-1.37699">
        <ele>52</ele>
        <time>2022-05-14T10:43:43Z</time>
      </trkpt>
      <trkpt lat="47.29682" lon="-1.37714">
        <ele>52</ele>
        <time>2022-05-14T10:43:45Z</time>
      </trkpt>
      <trkpt lat="47.29675" lon="-1.37728">
        <ele>52</ele>
        <time>2022-05-14T10:43:47Z</time>
      </trkpt>
      <trkpt lat="47.29668" lon="-1.37742">
        <ele>52</ele>
        <time>2022-05-14T10:43:49Z</time>
      </trkpt>
      <trkpt lat="47.2966" lon="-1.37755">
        <ele>52</ele>
        <time>2022-05-14T10:43:51Z</time>
      </trkpt>
      <trkpt lat="47.29653" lon="-1.37769">
        <ele>51</ele>
        <time>2022-05-14T10:43:53Z</time>
      </trkpt>
      <trkpt lat="47.29646" lon="-1.37783">
        <ele>51</ele>
        <time>2022-05-14T10:43:55Z</time>
      </trkpt>
      <trkpt lat="47.29638" lon="-1.37796">
        <ele>51</ele>
        <time>2022-05-14T10:43:57Z</time>
      </trkpt>
      <trkpt lat="47.2963" lon="-1.37809">
        <ele>52</ele>
        <time>2022-05-14T10:43:59Z</time>
      </trkpt>
      <trkpt lat="47.29623" lon="-1.37823">
        <ele>51</ele>
        <time>2022-05-14T10:44:01Z</time>
      </trkpt>
      <trkpt lat="47.29615" lon="-1.37838">
        <ele>51</ele>
        <time>2022-05-14T10:44:03Z</time>
      </trkpt>
      <trkpt lat="47.29608" lon="-1.37852">
        <ele>51</ele>
        <time>2022-05-14T10:44:05Z</time>
      </trkpt>
      <trkpt lat="47.29601" lon="-1.37867">
        <ele>51</ele>
        <time>2022-05-14T10:44:07Z</time>
      </trkpt>
      <trkpt lat="47.29595" lon="-1.37882">
        <ele>51</ele>
        <time>2022-05-14T10:44:09Z</time>
      </trkpt>
      <trkpt lat="47.29588" lon="-1.37896">
        <ele>52</ele>
        <time>2022-05-14T10:44:11Z</time>
      </trkpt>
      <trkpt lat="47.29583" lon="-1.37911">
        <ele>52</ele>
        <time>2022-05-14T10:44:13Z</time>
      </trkpt>
      <trkpt lat="47.29576" lon="-1.37925">
        <ele>52</ele>
        <time>2022-05-14T10:44:15Z</time>
      </trkpt>
      <trkpt lat="47.2957" lon="-1.37939">
        <ele>53</ele>
        <time>2022-05-14T10:44:17Z</time>
      </trkpt>
      <trkpt lat="47.29564" lon="-1.37954">
        <ele>52</ele>
        <time>2022-05-14T10:44:19Z</time>
      </trkpt>
      <trkpt lat="47.29559" lon="-1.3797">
        <ele>53</ele>
        <time>2022-05-14T10:44:21Z</time>
      </trkpt>
      <trkpt lat="47.29553" lon="-1.37985">
        <ele>53</ele>
        <time>2022-05-14T10:44:23Z</time>
      </trkpt>
      <trkpt lat="47.29548" lon="-1.38001">
        <ele>53</ele>
        <time>2022-05-14T10:44:25Z</time>
      </trkpt>
      <trkpt lat="47.29542" lon="-1.38018">
        <ele>53</ele>
        <time>2022-05-14T10:44:27Z</time>
      </trkpt>
      <trkpt lat="47.29536" lon="-1.38035">
        <ele>53</ele>
        <time>2022-05-14T10:44:29Z</time>
      </trkpt>
      <trkpt lat="47.2953" lon="-1.3805">
        <ele>53</ele>
        <time>2022-05-14T10:44:31Z</time>
      </trkpt>
      <trkpt lat="47.29525" lon="-1.38066">
        <ele>54</ele>
        <time>2022-05-14T10:44:33Z</time>
      </trkpt>
      <trkpt lat="47.2952" lon="-1.38083">
        <ele>54</ele>
        <time>2022-05-14T10:44:35Z</time>
      </trkpt>
      <trkpt lat="47.29516" lon="-1.381">
        <ele>54</ele>
        <time>2022-05-14T10:44:37Z</time>
      </trkpt>
      <trkpt lat="47.29511" lon="-1.38116">
        <ele>54</ele>
        <time>2022-05-14T10:44:39Z</time>
      </trkpt>
      <trkpt lat="47.29506" lon="-1.38133">
        <ele>54</ele>
        <time>2022-05-14T10:44:41Z</time>
      </trkpt>
      <trkpt lat="47.29502" lon="-1.3815">
        <ele>54</ele>
        <time>2022-05-14T10:44:43Z</time>
      </trkpt>
      <trkpt lat="47.29497" lon="-1.38166">
        <ele>54</ele>
        <time>2022-05-14T10:44:45Z</time>
      </trkpt>
      <trkpt lat="47.29492" lon="-1.38184">
        <ele>53</ele>
        <time>2022-05-14T10:44:47Z</time>
      </trkpt>
      <trkpt lat="47.29488" lon="-1.38201">
        <ele>53</ele>
        <time>2022-05-14T10:44:49Z</time>
      </trkpt>
      <trkpt lat="47.29484" lon="-1.38217">
        <ele>54</ele>
        <time>2022-05-14T10:44:51Z</time>
      </trkpt>
      <trkpt lat="47.2948" lon="-1.38234">
        <ele>53</ele>
        <time>2022-05-14T10:44:53Z</time>
      </trkpt>
      <trkpt lat="47.29475" lon="-1.38251">
        <ele>54</ele>
        <time>2022-05-14T10:44:55Z</time>
      </trkpt>
      <trkpt lat="47.2947" lon="-1.38267">
        <ele>54</ele>
        <time>2022-05-14T10:44:57Z</time>
      </trkpt>
      <trkpt lat="47.29466" lon="-1.38284">
        <ele>54</ele>
        <time>2022-05-14T10:44:59Z</time>
      </trkpt>
      <trkpt lat="47.29461" lon="-1.383">
        <ele>54</ele>
        <time>2022-05-14T10:45:01Z</time>
      </trkpt>
      <trkpt lat="47.29457" lon="-1.38315">
        <ele>54</ele>
        <time>2022-05-14T10:45:03Z</time>
      </trkpt>
      <trkpt lat="47.29451" lon="-1.38326">
        <ele>55</ele>
        <time>2022-05-14T10:45:05Z</time>
      </trkpt>
      <trkpt lat="47.29445" lon="-1.38335">
        <ele>56</ele>
        <time>2022-05-14T10:45:07Z</time>
      </trkpt>
      <trkpt lat="47.29442" lon="-1.38352">
        <ele>55</ele>
        <time>2022-05-14T10:45:09Z</time>
      </trkpt>
      <trkpt lat="47.29439" lon="-1.3837">
        <ele>54</ele>
        <time>2022-05-14T10:45:11Z</time>
      </trkpt>
      <trkpt lat="47.29435" lon="-1.38388">
        <ele>55</ele>
        <time>2022-05-14T10:45:13Z</time>
      </trkpt>
      <trkpt lat="47.2943" lon="-1.38407">
        <ele>54</ele>
        <time>2022-05-14T10:45:15Z</time>
      </trkpt>
      <trkpt lat="47.29425" lon="-1.38426">
        <ele>54</ele>
        <time>2022-05-14T10:45:17Z</time>
      </trkpt>
      <trkpt lat="47.29421" lon="-1.38445">
        <ele>54</ele>
        <time>2022-05-14T10:45:19Z</time>
      </trkpt>
      <trkpt lat="47.29416" lon="-1.38464">
        <ele>53</ele>
        <time>2022-05-14T10:45:21Z</time>
      </trkpt>
      <trkpt lat="47.29411" lon="-1.38482">
        <ele>53</ele>
        <time>2022-05-14T10:45:23Z</time>
      </trkpt>
      <trkpt lat="47.29405" lon="-1.38499">
        <ele>53</ele>
        <time>2022-05-14T10:45:25Z</time>
      </trkpt>
      <trkpt lat="47.29396" lon="-1.38512">
        <ele>53</ele>
        <time>2022-05-14T10:45:27Z</time>
      </trkpt>
      <trkpt lat="47.29389" lon="-1.38526">
        <ele>53</ele>
        <time>2022-05-14T10:45:29Z</time>
      </trkpt>
      <trkpt lat="47.29382" lon="-1.38542">
        <ele>53</ele>
        <time>2022-05-14T10:45:31Z</time>
      </trkpt>
      <trkpt lat="47.29377" lon="-1.38557">
        <ele>54</ele>
        <time>2022-05-14T10:45:33Z</time>
      </trkpt>
      <trkpt lat="47.29372" lon="-1.38574">
        <ele>53</ele>
        <time>2022-05-14T10:45:35Z</time>
      </trkpt>
      <trkpt lat="47.29366" lon="-1.38591">
        <ele>53</ele>
        <time>2022-05-14T10:45:37Z</time>
      </trkpt>
      <trkpt lat="47.2936" lon="-1.3861">
        <ele>53</ele>
        <time>2022-05-14T10:45:39Z</time>
      </trkpt>
      <trkpt lat="47.29355" lon="-1.38629">
        <ele>53</ele>
        <time>2022-05-14T10:45:41Z</time>
      </trkpt>
      <trkpt lat="47.29349" lon="-1.38648">
        <ele>53</ele>
        <time>2022-05-14T10:45:43Z</time>
      </trkpt>
      <trkpt lat="47.29343" lon="-1.38667">
        <ele>53</ele>
        <time>2022-05-14T10:45:45Z</time>
      </trkpt>
      <trkpt lat="47.29337" lon="-1.38683">
        <ele>53</ele>
        <time>2022-05-14T10:45:47Z</time>
      </trkpt>
      <trkpt lat="47.29332" lon="-1.387">
        <ele>53</ele>
        <time>2022-05-14T10:45:49Z</time>
      </trkpt>
      <trkpt lat="47.29327" lon="-1.38716">
        <ele>53</ele>
        <time>2022-05-14T10:45:51Z</time>
      </trkpt>
      <trkpt lat="47.29325" lon="-1.38731">
        <ele>52</ele>
        <time>2022-05-14T10:46:28Z</time>
      </trkpt>
      <trkpt lat="47.29321" lon="-1.38747">
        <ele>53</ele>
        <time>2022-05-14T10:46:31Z</time>
      </trkpt>
      <trkpt lat="47.29318" lon="-1.3876">
        <ele>53</ele>
        <time>2022-05-14T10:46:33Z</time>
      </trkpt>
      <trkpt lat="47.29314" lon="-1.38776">
        <ele>54</ele>
        <time>2022-05-14T10:46:35Z</time>
      </trkpt>
      <trkpt lat="47.2931" lon="-1.38792">
        <ele>55</ele>
        <time>2022-05-14T10:46:37Z</time>
      </trkpt>
      <trkpt lat="47.29305" lon="-1.38809">
        <ele>55</ele>
        <time>2022-05-14T10:46:39Z</time>
      </trkpt>
      <trkpt lat="47.293" lon="-1.38826">
        <ele>56</ele>
        <time>2022-05-14T10:46:41Z</time>
      </trkpt>
      <trkpt lat="47.29296" lon="-1.38844">
        <ele>56</ele>
        <time>2022-05-14T10:46:43Z</time>
      </trkpt>
      <trkpt lat="47.29291" lon="-1.38861">
        <ele>56</ele>
        <time>2022-05-14T10:46:45Z</time>
      </trkpt>
      <trkpt lat="47.29285" lon="-1.38878">
        <ele>56</ele>
        <time>2022-05-14T10:46:47Z</time>
      </trkpt>
      <trkpt lat="47.29281" lon="-1.38896">
        <ele>56</ele>
        <time>2022-05-14T10:46:49Z</time>
      </trkpt>
      <trkpt lat="47.29276" lon="-1.38914">
        <ele>56</ele>
        <time>2022-05-14T10:46:51Z</time>
      </trkpt>
      <trkpt lat="47.29272" lon="-1.38931">
        <ele>56</ele>
        <time>2022-05-14T10:46:53Z</time>
      </trkpt>
      <trkpt lat="47.29267" lon="-1.38948">
        <ele>56</ele>
        <time>2022-05-14T10:46:55Z</time>
      </trkpt>
      <trkpt lat="47.29262" lon="-1.38965">
        <ele>56</ele>
        <time>2022-05-14T10:46:57Z</time>
      </trkpt>
      <trkpt lat="47.29257" lon="-1.38983">
        <ele>56</ele>
        <time>2022-05-14T10:46:59Z</time>
      </trkpt>
      <trkpt lat="47.29253" lon="-1.39">
        <ele>56</ele>
        <time>2022-05-14T10:47:01Z</time>
      </trkpt>
      <trkpt lat="47.29248" lon="-1.39018">
        <ele>56</ele>
        <time>2022-05-14T10:47:03Z</time>
      </trkpt>
      <trkpt lat="47.29244" lon="-1.39035">
        <ele>56</ele>
        <time>2022-05-14T10:47:05Z</time>
      </trkpt>
      <trkpt lat="47.29239" lon="-1.39053">
        <ele>56</ele>
        <time>2022-05-14T10:47:07Z</time>
      </trkpt>
      <trkpt lat="47.29233" lon="-1.39071">
        <ele>56</ele>
        <time>2022-05-14T10:47:09Z</time>
      </trkpt>
      <trkpt lat="47.29227" lon="-1.39088">
        <ele>56</ele>
        <time>2022-05-14T10:47:11Z</time>
      </trkpt>
      <trkpt lat="47.2922" lon="-1.39104">
        <ele>56</ele>
        <time>2022-05-14T10:47:13Z</time>
      </trkpt>
      <trkpt lat="47.29212" lon="-1.39119">
        <ele>56</ele>
        <time>2022-05-14T10:47:15Z</time>
      </trkpt>
      <trkpt lat="47.29202" lon="-1.39132">
        <ele>56</ele>
        <time>2022-05-14T10:47:17Z</time>
      </trkpt>
      <trkpt lat="47.29192" lon="-1.39145">
        <ele>56</ele>
        <time>2022-05-14T10:47:19Z</time>
      </trkpt>
      <trkpt lat="47.29181" lon="-1.39157">
        <ele>56</ele>
        <time>2022-05-14T10:47:21Z</time>
      </trkpt>
      <trkpt lat="47.29171" lon="-1.39169">
        <ele>56</ele>
        <time>2022-05-14T10:47:23Z</time>
      </trkpt>
      <trkpt lat="47.29161" lon="-1.3918">
        <ele>56</ele>
        <time>2022-05-14T10:47:25Z</time>
      </trkpt>
      <trkpt lat="47.29151" lon="-1.39193">
        <ele>55</ele>
        <time>2022-05-14T10:47:27Z</time>
      </trkpt>
      <trkpt lat="47.29141" lon="-1.39204">
        <ele>55</ele>
        <time>2022-05-14T10:47:29Z</time>
      </trkpt>
      <trkpt lat="47.2913" lon="-1.39216">
        <ele>55</ele>
        <time>2022-05-14T10:47:31Z</time>
      </trkpt>
      <trkpt lat="47.2912" lon="-1.39229">
        <ele>55</ele>
        <time>2022-05-14T10:47:33Z</time>
      </trkpt>
      <trkpt lat="47.29111" lon="-1.39242">
        <ele>55</ele>
        <time>2022-05-14T10:47:35Z</time>
      </trkpt>
      <trkpt lat="47.29102" lon="-1.39256">
        <ele>55</ele>
        <time>2022-05-14T10:47:37Z</time>
      </trkpt>
      <trkpt lat="47.29094" lon="-1.3927">
        <ele>55</ele>
        <time>2022-05-14T10:47:39Z</time>
      </trkpt>
      <trkpt lat="47.29085" lon="-1.39284">
        <ele>55</ele>
        <time>2022-05-14T10:47:41Z</time>
      </trkpt>
      <trkpt lat="47.29076" lon="-1.39296">
        <ele>56</ele>
        <time>2022-05-14T10:47:43Z</time>
      </trkpt>
      <trkpt lat="47.29066" lon="-1.39308">
        <ele>55</ele>
        <time>2022-05-14T10:47:45Z</time>
      </trkpt>
      <trkpt lat="47.29056" lon="-1.39318">
        <ele>56</ele>
        <time>2022-05-14T10:47:47Z</time>
      </trkpt>
      <trkpt lat="47.29046" lon="-1.3933">
        <ele>56</ele>
        <time>2022-05-14T10:47:49Z</time>
      </trkpt>
      <trkpt lat="47.29037" lon="-1.39343">
        <ele>57</ele>
        <time>2022-05-14T10:47:51Z</time>
      </trkpt>
      <trkpt lat="47.29028" lon="-1.39356">
        <ele>58</ele>
        <time>2022-05-14T10:47:53Z</time>
      </trkpt>
      <trkpt lat="47.2902" lon="-1.3937">
        <ele>59</ele>
        <time>2022-05-14T10:47:55Z</time>
      </trkpt>
      <trkpt lat="47.2901" lon="-1.39384">
        <ele>59</ele>
        <time>2022-05-14T10:47:57Z</time>
      </trkpt>
      <trkpt lat="47.29" lon="-1.39397">
        <ele>59</ele>
        <time>2022-05-14T10:47:59Z</time>
      </trkpt>
      <trkpt lat="47.28988" lon="-1.39409">
        <ele>58</ele>
        <time>2022-05-14T10:48:01Z</time>
      </trkpt>
      <trkpt lat="47.28978" lon="-1.39421">
        <ele>59</ele>
        <time>2022-05-14T10:48:03Z</time>
      </trkpt>
      <trkpt lat="47.28968" lon="-1.39434">
        <ele>58</ele>
        <time>2022-05-14T10:48:05Z</time>
      </trkpt>
      <trkpt lat="47.28958" lon="-1.39447">
        <ele>58</ele>
        <time>2022-05-14T10:48:07Z</time>
      </trkpt>
      <trkpt lat="47.28947" lon="-1.39459">
        <ele>58</ele>
        <time>2022-05-14T10:48:09Z</time>
      </trkpt>
      <trkpt lat="47.28937" lon="-1.39471">
        <ele>59</ele>
        <time>2022-05-14T10:48:11Z</time>
      </trkpt>
      <trkpt lat="47.28928" lon="-1.39484">
        <ele>59</ele>
        <time>2022-05-14T10:48:13Z</time>
      </trkpt>
      <trkpt lat="47.28918" lon="-1.39496">
        <ele>60</ele>
        <time>2022-05-14T10:48:15Z</time>
      </trkpt>
      <trkpt lat="47.28908" lon="-1.39508">
        <ele>60</ele>
        <time>2022-05-14T10:48:17Z</time>
      </trkpt>
      <trkpt lat="47.28897" lon="-1.39521">
        <ele>59</ele>
        <time>2022-05-14T10:48:19Z</time>
      </trkpt>
      <trkpt lat="47.28886" lon="-1.39533">
        <ele>59</ele>
        <time>2022-05-14T10:48:21Z</time>
      </trkpt>
      <trkpt lat="47.28875" lon="-1.39545">
        <ele>59</ele>
        <time>2022-05-14T10:48:23Z</time>
      </trkpt>
      <trkpt lat="47.28865" lon="-1.39558">
        <ele>59</ele>
        <time>2022-05-14T10:48:25Z</time>
      </trkpt>
      <trkpt lat="47.28855" lon="-1.39571">
        <ele>59</ele>
        <time>2022-05-14T10:48:27Z</time>
      </trkpt>
      <trkpt lat="47.28844" lon="-1.39583">
        <ele>59</ele>
        <time>2022-05-14T10:48:29Z</time>
      </trkpt>
      <trkpt lat="47.28834" lon="-1.39595">
        <ele>59</ele>
        <time>2022-05-14T10:48:31Z</time>
      </trkpt>
      <trkpt lat="47.28824" lon="-1.39608">
        <ele>59</ele>
        <time>2022-05-14T10:48:33Z</time>
      </trkpt>
      <trkpt lat="47.28814" lon="-1.3962">
        <ele>59</ele>
        <time>2022-05-14T10:48:35Z</time>
      </trkpt>
      <trkpt lat="47.28803" lon="-1.39632">
        <ele>59</ele>
        <time>2022-05-14T10:48:37Z</time>
      </trkpt>
      <trkpt lat="47.28793" lon="-1.39644">
        <ele>59</ele>
        <time>2022-05-14T10:48:39Z</time>
      </trkpt>
      <trkpt lat="47.28783" lon="-1.39656">
        <ele>59</ele>
        <time>2022-05-14T10:48:41Z</time>
      </trkpt>
      <trkpt lat="47.28773" lon="-1.39668">
        <ele>59</ele>
        <time>2022-05-14T10:48:43Z</time>
      </trkpt>
      <trkpt lat="47.28764" lon="-1.39679">
        <ele>60</ele>
        <time>2022-05-14T10:48:45Z</time>
      </trkpt>
      <trkpt lat="47.28754" lon="-1.39692">
        <ele>60</ele>
        <time>2022-05-14T10:48:47Z</time>
      </trkpt>
      <trkpt lat="47.28745" lon="-1.39705">
        <ele>60</ele>
        <time>2022-05-14T10:48:49Z</time>
      </trkpt>
      <trkpt lat="47.28735" lon="-1.39716">
        <ele>61</ele>
        <time>2022-05-14T10:48:51Z</time>
      </trkpt>
      <trkpt lat="47.28724" lon="-1.39728">
        <ele>61</ele>
        <time>2022-05-14T10:48:53Z</time>
      </trkpt>
      <trkpt lat="47.28714" lon="-1.3974">
        <ele>60</ele>
        <time>2022-05-14T10:48:55Z</time>
      </trkpt>
      <trkpt lat="47.28704" lon="-1.39752">
        <ele>60</ele>
        <time>2022-05-14T10:48:57Z</time>
      </trkpt>
      <trkpt lat="47.28694" lon="-1.39763">
        <ele>59</ele>
        <time>2022-05-14T10:48:59Z</time>
      </trkpt>
      <trkpt lat="47.28683" lon="-1.39774">
        <ele>59</ele>
        <time>2022-05-14T10:49:01Z</time>
      </trkpt>
      <trkpt lat="47.28674" lon="-1.39786">
        <ele>59</ele>
        <time>2022-05-14T10:49:03Z</time>
      </trkpt>
      <trkpt lat="47.28666" lon="-1.39799">
        <ele>59</ele>
        <time>2022-05-14T10:49:05Z</time>
      </trkpt>
      <trkpt lat="47.28657" lon="-1.39813">
        <ele>59</ele>
        <time>2022-05-14T10:49:07Z</time>
      </trkpt>
      <trkpt lat="47.28648" lon="-1.39826">
        <ele>58</ele>
        <time>2022-05-14T10:49:09Z</time>
      </trkpt>
      <trkpt lat="47.28639" lon="-1.39839">
        <ele>58</ele>
        <time>2022-05-14T10:49:11Z</time>
      </trkpt>
      <trkpt lat="47.2863" lon="-1.39852">
        <ele>58</ele>
        <time>2022-05-14T10:49:13Z</time>
      </trkpt>
      <trkpt lat="47.28622" lon="-1.39866">
        <ele>58</ele>
        <time>2022-05-14T10:49:15Z</time>
      </trkpt>
      <trkpt lat="47.28613" lon="-1.3988">
        <ele>58</ele>
        <time>2022-05-14T10:49:17Z</time>
      </trkpt>
      <trkpt lat="47.28605" lon="-1.39894">
        <ele>58</ele>
        <time>2022-05-14T10:49:19Z</time>
      </trkpt>
      <trkpt lat="47.28597" lon="-1.39907">
        <ele>59</ele>
        <time>2022-05-14T10:49:21Z</time>
      </trkpt>
      <trkpt lat="47.28588" lon="-1.3992">
        <ele>59</ele>
        <time>2022-05-14T10:49:23Z</time>
      </trkpt>
      <trkpt lat="47.2858" lon="-1.39934">
        <ele>59</ele>
        <time>2022-05-14T10:49:25Z</time>
      </trkpt>
      <trkpt lat="47.2857" lon="-1.39947">
        <ele>60</ele>
        <time>2022-05-14T10:49:27Z</time>
      </trkpt>
      <trkpt lat="47.28561" lon="-1.3996">
        <ele>60</ele>
        <time>2022-05-14T10:49:29Z</time>
      </trkpt>
      <trkpt lat="47.28552" lon="-1.39973">
        <ele>59</ele>
        <time>2022-05-14T10:49:31Z</time>
      </trkpt>
      <trkpt lat="47.28543" lon="-1.39986">
        <ele>60</ele>
        <time>2022-05-14T10:49:33Z</time>
      </trkpt>
      <trkpt lat="47.28534" lon="-1.39998">
        <ele>60</ele>
        <time>2022-05-14T10:49:35Z</time>
      </trkpt>
      <trkpt lat="47.28525" lon="-1.4001">
        <ele>60</ele>
        <time>2022-05-14T10:49:37Z</time>
      </trkpt>
      <trkpt lat="47.28518" lon="-1.40023">
        <ele>61</ele>
        <time>2022-05-14T10:49:39Z</time>
      </trkpt>
      <trkpt lat="47.2851" lon="-1.40037">
        <ele>62</ele>
        <time>2022-05-14T10:49:41Z</time>
      </trkpt>
      <trkpt lat="47.28502" lon="-1.40051">
        <ele>62</ele>
        <time>2022-05-14T10:49:43Z</time>
      </trkpt>
      <trkpt lat="47.28494" lon="-1.40065">
        <ele>63</ele>
        <time>2022-05-14T10:49:45Z</time>
      </trkpt>
      <trkpt lat="47.28487" lon="-1.40079">
        <ele>64</ele>
        <time>2022-05-14T10:49:47Z</time>
      </trkpt>
      <trkpt lat="47.2848" lon="-1.40095">
        <ele>64</ele>
        <time>2022-05-14T10:49:49Z</time>
      </trkpt>
      <trkpt lat="47.28472" lon="-1.40108">
        <ele>64</ele>
        <time>2022-05-14T10:49:51Z</time>
      </trkpt>
      <trkpt lat="47.28466" lon="-1.40124">
        <ele>65</ele>
        <time>2022-05-14T10:49:53Z</time>
      </trkpt>
      <trkpt lat="47.28461" lon="-1.40142">
        <ele>65</ele>
        <time>2022-05-14T10:49:55Z</time>
      </trkpt>
      <trkpt lat="47.28455" lon="-1.4016">
        <ele>66</ele>
        <time>2022-05-14T10:49:57Z</time>
      </trkpt>
      <trkpt lat="47.28449" lon="-1.40177">
        <ele>66</ele>
        <time>2022-05-14T10:49:59Z</time>
      </trkpt>
      <trkpt lat="47.28443" lon="-1.40193">
        <ele>66</ele>
        <time>2022-05-14T10:50:01Z</time>
      </trkpt>
      <trkpt lat="47.28436" lon="-1.40208">
        <ele>66</ele>
        <time>2022-05-14T10:50:03Z</time>
      </trkpt>
      <trkpt lat="47.2843" lon="-1.40223">
        <ele>66</ele>
        <time>2022-05-14T10:50:05Z</time>
      </trkpt>
      <trkpt lat="47.28423" lon="-1.40236">
        <ele>66</ele>
        <time>2022-05-14T10:50:07Z</time>
      </trkpt>
      <trkpt lat="47.28417" lon="-1.40252">
        <ele>66</ele>
        <time>2022-05-14T10:50:09Z</time>
      </trkpt>
      <trkpt lat="47.2841" lon="-1.40269">
        <ele>66</ele>
        <time>2022-05-14T10:50:11Z</time>
      </trkpt>
      <trkpt lat="47.28402" lon="-1.40286">
        <ele>65</ele>
        <time>2022-05-14T10:50:13Z</time>
      </trkpt>
      <trkpt lat="47.28394" lon="-1.40302">
        <ele>64</ele>
        <time>2022-05-14T10:50:15Z</time>
      </trkpt>
      <trkpt lat="47.28386" lon="-1.40317">
        <ele>63</ele>
        <time>2022-05-14T10:50:17Z</time>
      </trkpt>
      <trkpt lat="47.28377" lon="-1.40332">
        <ele>62</ele>
        <time>2022-05-14T10:50:19Z</time>
      </trkpt>
      <trkpt lat="47.28367" lon="-1.40346">
        <ele>61</ele>
        <time>2022-05-14T10:50:21Z</time>
      </trkpt>
      <trkpt lat="47.28358" lon="-1.40358">
        <ele>61</ele>
        <time>2022-05-14T10:50:23Z</time>
      </trkpt>
      <trkpt lat="47.28349" lon="-1.4037">
        <ele>61</ele>
        <time>2022-05-14T10:50:25Z</time>
      </trkpt>
      <trkpt lat="47.28341" lon="-1.40384">
        <ele>60</ele>
        <time>2022-05-14T10:50:27Z</time>
      </trkpt>
      <trkpt lat="47.28332" lon="-1.40397">
        <ele>60</ele>
        <time>2022-05-14T10:50:29Z</time>
      </trkpt>
      <trkpt lat="47.28322" lon="-1.40408">
        <ele>59</ele>
        <time>2022-05-14T10:50:31Z</time>
      </trkpt>
      <trkpt lat="47.28312" lon="-1.40419">
        <ele>59</ele>
        <time>2022-05-14T10:50:33Z</time>
      </trkpt>
      <trkpt lat="47.28301" lon="-1.4043">
        <ele>59</ele>
        <time>2022-05-14T10:50:35Z</time>
      </trkpt>
      <trkpt lat="47.28291" lon="-1.40441">
        <ele>58</ele>
        <time>2022-05-14T10:50:37Z</time>
      </trkpt>
      <trkpt lat="47.2828" lon="-1.40451">
        <ele>58</ele>
        <time>2022-05-14T10:50:39Z</time>
      </trkpt>
      <trkpt lat="47.28269" lon="-1.4046">
        <ele>58</ele>
        <time>2022-05-14T10:50:41Z</time>
      </trkpt>
      <trkpt lat="47.28259" lon="-1.4047">
        <ele>58</ele>
        <time>2022-05-14T10:50:43Z</time>
      </trkpt>
      <trkpt lat="47.28249" lon="-1.4048">
        <ele>58</ele>
        <time>2022-05-14T10:50:45Z</time>
      </trkpt>
      <trkpt lat="47.28239" lon="-1.4049">
        <ele>58</ele>
        <time>2022-05-14T10:50:47Z</time>
      </trkpt>
      <trkpt lat="47.28229" lon="-1.405">
        <ele>58</ele>
        <time>2022-05-14T10:50:49Z</time>
      </trkpt>
      <trkpt lat="47.28218" lon="-1.4051">
        <ele>58</ele>
        <time>2022-05-14T10:50:51Z</time>
      </trkpt>
      <trkpt lat="47.28208" lon="-1.4052">
        <ele>57</ele>
        <time>2022-05-14T10:50:53Z</time>
      </trkpt>
      <trkpt lat="47.28198" lon="-1.4053">
        <ele>57</ele>
        <time>2022-05-14T10:50:55Z</time>
      </trkpt>
      <trkpt lat="47.28187" lon="-1.4054">
        <ele>57</ele>
        <time>2022-05-14T10:50:57Z</time>
      </trkpt>
      <trkpt lat="47.28177" lon="-1.4055">
        <ele>57</ele>
        <time>2022-05-14T10:50:59Z</time>
      </trkpt>
      <trkpt lat="47.28167" lon="-1.40559">
        <ele>56</ele>
        <time>2022-05-14T10:51:01Z</time>
      </trkpt>
      <trkpt lat="47.28157" lon="-1.40569">
        <ele>56</ele>
        <time>2022-05-14T10:51:03Z</time>
      </trkpt>
      <trkpt lat="47.28146" lon="-1.4058">
        <ele>56</ele>
        <time>2022-05-14T10:51:05Z</time>
      </trkpt>
      <trkpt lat="47.28136" lon="-1.4059">
        <ele>56</ele>
        <time>2022-05-14T10:51:07Z</time>
      </trkpt>
      <trkpt lat="47.28125" lon="-1.406">
        <ele>56</ele>
        <time>2022-05-14T10:51:09Z</time>
      </trkpt>
      <trkpt lat="47.28115" lon="-1.40609">
        <ele>57</ele>
        <time>2022-05-14T10:51:11Z</time>
      </trkpt>
      <trkpt lat="47.28105" lon="-1.40619">
        <ele>57</ele>
        <time>2022-05-14T10:51:13Z</time>
      </trkpt>
      <trkpt lat="47.28096" lon="-1.40629">
        <ele>57</ele>
        <time>2022-05-14T10:51:15Z</time>
      </trkpt>
      <trkpt lat="47.28086" lon="-1.40639">
        <ele>58</ele>
        <time>2022-05-14T10:51:17Z</time>
      </trkpt>
      <trkpt lat="47.28075" lon="-1.40649">
        <ele>58</ele>
        <time>2022-05-14T10:51:19Z</time>
      </trkpt>
      <trkpt lat="47.28064" lon="-1.40659">
        <ele>58</ele>
        <time>2022-05-14T10:51:21Z</time>
      </trkpt>
      <trkpt lat="47.28054" lon="-1.4067">
        <ele>58</ele>
        <time>2022-05-14T10:51:23Z</time>
      </trkpt>
      <trkpt lat="47.28043" lon="-1.4068">
        <ele>58</ele>
        <time>2022-05-14T10:51:25Z</time>
      </trkpt>
      <trkpt lat="47.28033" lon="-1.4069">
        <ele>58</ele>
        <time>2022-05-14T10:51:27Z</time>
      </trkpt>
      <trkpt lat="47.28022" lon="-1.40701">
        <ele>58</ele>
        <time>2022-05-14T10:51:29Z</time>
      </trkpt>
      <trkpt lat="47.28012" lon="-1.40711">
        <ele>57</ele>
        <time>2022-05-14T10:51:31Z</time>
      </trkpt>
      <trkpt lat="47.28002" lon="-1.40721">
        <ele>57</ele>
        <time>2022-05-14T10:51:33Z</time>
      </trkpt>
      <trkpt lat="47.27991" lon="-1.40731">
        <ele>57</ele>
        <time>2022-05-14T10:51:35Z</time>
      </trkpt>
      <trkpt lat="47.2798" lon="-1.40741">
        <ele>57</ele>
        <time>2022-05-14T10:51:37Z</time>
      </trkpt>
      <trkpt lat="47.2797" lon="-1.40751">
        <ele>57</ele>
        <time>2022-05-14T10:51:39Z</time>
      </trkpt>
      <trkpt lat="47.27959" lon="-1.4076">
        <ele>56</ele>
        <time>2022-05-14T10:51:41Z</time>
      </trkpt>
      <trkpt lat="47.27948" lon="-1.4077">
        <ele>56</ele>
        <time>2022-05-14T10:51:43Z</time>
      </trkpt>
      <trkpt lat="47.27937" lon="-1.4078">
        <ele>56</ele>
        <time>2022-05-14T10:51:45Z</time>
      </trkpt>
      <trkpt lat="47.27926" lon="-1.4079">
        <ele>56</ele>
        <time>2022-05-14T10:51:47Z</time>
      </trkpt>
      <trkpt lat="47.27916" lon="-1.408">
        <ele>56</ele>
        <time>2022-05-14T10:51:49Z</time>
      </trkpt>
      <trkpt lat="47.27905" lon="-1.4081">
        <ele>56</ele>
        <time>2022-05-14T10:51:51Z</time>
      </trkpt>
      <trkpt lat="47.27895" lon="-1.4082">
        <ele>56</ele>
        <time>2022-05-14T10:51:53Z</time>
      </trkpt>
      <trkpt lat="47.27885" lon="-1.40832">
        <ele>56</ele>
        <time>2022-05-14T10:51:55Z</time>
      </trkpt>
      <trkpt lat="47.27878" lon="-1.40845">
        <ele>56</ele>
        <time>2022-05-14T10:51:57Z</time>
      </trkpt>
      <trkpt lat="47.27871" lon="-1.40861">
        <ele>56</ele>
        <time>2022-05-14T10:51:59Z</time>
      </trkpt>
      <trkpt lat="47.27864" lon="-1.40876">
        <ele>56</ele>
        <time>2022-05-14T10:52:01Z</time>
      </trkpt>
      <trkpt lat="47.27858" lon="-1.40891">
        <ele>56</ele>
        <time>2022-05-14T10:52:03Z</time>
      </trkpt>
      <trkpt lat="47.27851" lon="-1.40905">
        <ele>56</ele>
        <time>2022-05-14T10:52:05Z</time>
      </trkpt>
      <trkpt lat="47.27844" lon="-1.40919">
        <ele>56</ele>
        <time>2022-05-14T10:52:07Z</time>
      </trkpt>
      <trkpt lat="47.27837" lon="-1.40933">
        <ele>56</ele>
        <time>2022-05-14T10:52:09Z</time>
      </trkpt>
      <trkpt lat="47.2783" lon="-1.40948">
        <ele>56</ele>
        <time>2022-05-14T10:52:11Z</time>
      </trkpt>
      <trkpt lat="47.27823" lon="-1.40963">
        <ele>56</ele>
        <time>2022-05-14T10:52:13Z</time>
      </trkpt>
      <trkpt lat="47.27815" lon="-1.40977">
        <ele>57</ele>
        <time>2022-05-14T10:52:15Z</time>
      </trkpt>
      <trkpt lat="47.27806" lon="-1.40991">
        <ele>56</ele>
        <time>2022-05-14T10:52:17Z</time>
      </trkpt>
      <trkpt lat="47.27798" lon="-1.41004">
        <ele>57</ele>
        <time>2022-05-14T10:52:19Z</time>
      </trkpt>
      <trkpt lat="47.27789" lon="-1.41016">
        <ele>57</ele>
        <time>2022-05-14T10:52:21Z</time>
      </trkpt>
      <trkpt lat="47.27781" lon="-1.41028">
        <ele>57</ele>
        <time>2022-05-14T10:52:23Z</time>
      </trkpt>
      <trkpt lat="47.27776" lon="-1.41042">
        <ele>57</ele>
        <time>2022-05-14T10:52:25Z</time>
      </trkpt>
      <trkpt lat="47.27771" lon="-1.41058">
        <ele>57</ele>
        <time>2022-05-14T10:52:27Z</time>
      </trkpt>
      <trkpt lat="47.27762" lon="-1.41074">
        <ele>57</ele>
        <time>2022-05-14T10:52:29Z</time>
      </trkpt>
      <trkpt lat="47.27751" lon="-1.41085">
        <ele>57</ele>
        <time>2022-05-14T10:52:31Z</time>
      </trkpt>
      <trkpt lat="47.2774" lon="-1.41095">
        <ele>57</ele>
        <time>2022-05-14T10:52:33Z</time>
      </trkpt>
      <trkpt lat="47.2773" lon="-1.41106">
        <ele>57</ele>
        <time>2022-05-14T10:52:35Z</time>
      </trkpt>
      <trkpt lat="47.27719" lon="-1.41117">
        <ele>57</ele>
        <time>2022-05-14T10:52:37Z</time>
      </trkpt>
      <trkpt lat="47.27708" lon="-1.41128">
        <ele>56</ele>
        <time>2022-05-14T10:52:39Z</time>
      </trkpt>
      <trkpt lat="47.27698" lon="-1.41139">
        <ele>56</ele>
        <time>2022-05-14T10:52:41Z</time>
      </trkpt>
      <trkpt lat="47.27688" lon="-1.4115">
        <ele>57</ele>
        <time>2022-05-14T10:52:43Z</time>
      </trkpt>
      <trkpt lat="47.27678" lon="-1.41161">
        <ele>56</ele>
        <time>2022-05-14T10:52:45Z</time>
      </trkpt>
      <trkpt lat="47.27668" lon="-1.41173">
        <ele>56</ele>
        <time>2022-05-14T10:52:47Z</time>
      </trkpt>
      <trkpt lat="47.27659" lon="-1.41184">
        <ele>56</ele>
        <time>2022-05-14T10:52:49Z</time>
      </trkpt>
      <trkpt lat="47.27648" lon="-1.41194">
        <ele>56</ele>
        <time>2022-05-14T10:52:51Z</time>
      </trkpt>
      <trkpt lat="47.27638" lon="-1.41205">
        <ele>56</ele>
        <time>2022-05-14T10:52:53Z</time>
      </trkpt>
      <trkpt lat="47.27627" lon="-1.41215">
        <ele>56</ele>
        <time>2022-05-14T10:52:55Z</time>
      </trkpt>
      <trkpt lat="47.27616" lon="-1.41225">
        <ele>55</ele>
        <time>2022-05-14T10:52:57Z</time>
      </trkpt>
      <trkpt lat="47.27605" lon="-1.41236">
        <ele>55</ele>
        <time>2022-05-14T10:52:59Z</time>
      </trkpt>
      <trkpt lat="47.27596" lon="-1.41247">
        <ele>55</ele>
        <time>2022-05-14T10:53:01Z</time>
      </trkpt>
      <trkpt lat="47.27585" lon="-1.41258">
        <ele>55</ele>
        <time>2022-05-14T10:53:03Z</time>
      </trkpt>
      <trkpt lat="47.27575" lon="-1.41269">
        <ele>55</ele>
        <time>2022-05-14T10:53:05Z</time>
      </trkpt>
      <trkpt lat="47.27566" lon="-1.41281">
        <ele>55</ele>
        <time>2022-05-14T10:53:07Z</time>
      </trkpt>
      <trkpt lat="47.27556" lon="-1.41293">
        <ele>55</ele>
        <time>2022-05-14T10:53:09Z</time>
      </trkpt>
      <trkpt lat="47.27547" lon="-1.41305">
        <ele>55</ele>
        <time>2022-05-14T10:53:11Z</time>
      </trkpt>
      <trkpt lat="47.27538" lon="-1.41318">
        <ele>56</ele>
        <time>2022-05-14T10:53:13Z</time>
      </trkpt>
      <trkpt lat="47.27529" lon="-1.41331">
        <ele>55</ele>
        <time>2022-05-14T10:53:15Z</time>
      </trkpt>
      <trkpt lat="47.27519" lon="-1.41343">
        <ele>55</ele>
        <time>2022-05-14T10:53:17Z</time>
      </trkpt>
      <trkpt lat="47.2751" lon="-1.41356">
        <ele>55</ele>
        <time>2022-05-14T10:53:19Z</time>
      </trkpt>
      <trkpt lat="47.27502" lon="-1.4137">
        <ele>55</ele>
        <time>2022-05-14T10:53:21Z</time>
      </trkpt>
      <trkpt lat="47.27494" lon="-1.41383">
        <ele>56</ele>
        <time>2022-05-14T10:53:23Z</time>
      </trkpt>
      <trkpt lat="47.27485" lon="-1.41397">
        <ele>57</ele>
        <time>2022-05-14T10:53:25Z</time>
      </trkpt>
      <trkpt lat="47.27477" lon="-1.41411">
        <ele>56</ele>
        <time>2022-05-14T10:53:27Z</time>
      </trkpt>
      <trkpt lat="47.27469" lon="-1.41426">
        <ele>56</ele>
        <time>2022-05-14T10:53:29Z</time>
      </trkpt>
      <trkpt lat="47.27461" lon="-1.4144">
        <ele>56</ele>
        <time>2022-05-14T10:53:31Z</time>
      </trkpt>
      <trkpt lat="47.27453" lon="-1.41454">
        <ele>56</ele>
        <time>2022-05-14T10:53:33Z</time>
      </trkpt>
      <trkpt lat="47.27445" lon="-1.41468">
        <ele>56</ele>
        <time>2022-05-14T10:53:35Z</time>
      </trkpt>
      <trkpt lat="47.27437" lon="-1.41482">
        <ele>56</ele>
        <time>2022-05-14T10:53:37Z</time>
      </trkpt>
      <trkpt lat="47.27429" lon="-1.41497">
        <ele>57</ele>
        <time>2022-05-14T10:53:39Z</time>
      </trkpt>
      <trkpt lat="47.27421" lon="-1.41512">
        <ele>57</ele>
        <time>2022-05-14T10:53:41Z</time>
      </trkpt>
      <trkpt lat="47.27413" lon="-1.41525">
        <ele>57</ele>
        <time>2022-05-14T10:53:43Z</time>
      </trkpt>
      <trkpt lat="47.27405" lon="-1.41538">
        <ele>58</ele>
        <time>2022-05-14T10:53:45Z</time>
      </trkpt>
      <trkpt lat="47.27396" lon="-1.41552">
        <ele>58</ele>
        <time>2022-05-14T10:53:47Z</time>
      </trkpt>
      <trkpt lat="47.27388" lon="-1.41565">
        <ele>58</ele>
        <time>2022-05-14T10:53:49Z</time>
      </trkpt>
      <trkpt lat="47.27379" lon="-1.41578">
        <ele>58</ele>
        <time>2022-05-14T10:53:51Z</time>
      </trkpt>
      <trkpt lat="47.27371" lon="-1.41591">
        <ele>58</ele>
        <time>2022-05-14T10:53:53Z</time>
      </trkpt>
      <trkpt lat="47.27362" lon="-1.41605">
        <ele>58</ele>
        <time>2022-05-14T10:53:55Z</time>
      </trkpt>
      <trkpt lat="47.27353" lon="-1.41617">
        <ele>58</ele>
        <time>2022-05-14T10:53:57Z</time>
      </trkpt>
      <trkpt lat="47.27344" lon="-1.4163">
        <ele>58</ele>
        <time>2022-05-14T10:53:59Z</time>
      </trkpt>
      <trkpt lat="47.27336" lon="-1.41643">
        <ele>58</ele>
        <time>2022-05-14T10:54:01Z</time>
      </trkpt>
      <trkpt lat="47.27328" lon="-1.41656">
        <ele>58</ele>
        <time>2022-05-14T10:54:03Z</time>
      </trkpt>
      <trkpt lat="47.27322" lon="-1.41669">
        <ele>59</ele>
        <time>2022-05-14T10:54:05Z</time>
      </trkpt>
      <trkpt lat="47.27315" lon="-1.41683">
        <ele>59</ele>
        <time>2022-05-14T10:54:07Z</time>
      </trkpt>
      <trkpt lat="47.27306" lon="-1.41697">
        <ele>59</ele>
        <time>2022-05-14T10:54:09Z</time>
      </trkpt>
      <trkpt lat="47.27298" lon="-1.41711">
        <ele>59</ele>
        <time>2022-05-14T10:54:11Z</time>
      </trkpt>
      <trkpt lat="47.2729" lon="-1.41728">
        <ele>59</ele>
        <time>2022-05-14T10:54:13Z</time>
      </trkpt>
      <trkpt lat="47.27282" lon="-1.41743">
        <ele>58</ele>
        <time>2022-05-14T10:54:15Z</time>
      </trkpt>
      <trkpt lat="47.27274" lon="-1.41759">
        <ele>57</ele>
        <time>2022-05-14T10:54:17Z</time>
      </trkpt>
      <trkpt lat="47.27267" lon="-1.41773">
        <ele>58</ele>
        <time>2022-05-14T10:54:19Z</time>
      </trkpt>
      <trkpt lat="47.27259" lon="-1.41787">
        <ele>58</ele>
        <time>2022-05-14T10:54:21Z</time>
      </trkpt>
      <trkpt lat="47.27253" lon="-1.41802">
        <ele>59</ele>
        <time>2022-05-14T10:54:23Z</time>
      </trkpt>
      <trkpt lat="47.27246" lon="-1.41816">
        <ele>60</ele>
        <time>2022-05-14T10:54:25Z</time>
      </trkpt>
      <trkpt lat="47.27238" lon="-1.41829">
        <ele>61</ele>
        <time>2022-05-14T10:54:27Z</time>
      </trkpt>
      <trkpt lat="47.27231" lon="-1.41844">
        <ele>61</ele>
        <time>2022-05-14T10:54:29Z</time>
      </trkpt>
      <trkpt lat="47.27223" lon="-1.41859">
        <ele>61</ele>
        <time>2022-05-14T10:54:31Z</time>
      </trkpt>
      <trkpt lat="47.27209" lon="-1.41882">
        <ele>61</ele>
        <time>2022-05-14T10:54:34Z</time>
      </trkpt>
      <trkpt lat="47.27201" lon="-1.41896">
        <ele>60</ele>
        <time>2022-05-14T10:54:36Z</time>
      </trkpt>
      <trkpt lat="47.27193" lon="-1.41909">
        <ele>60</ele>
        <time>2022-05-14T10:54:38Z</time>
      </trkpt>
      <trkpt lat="47.27184" lon="-1.41924">
        <ele>60</ele>
        <time>2022-05-14T10:54:40Z</time>
      </trkpt>
      <trkpt lat="47.27176" lon="-1.41937">
        <ele>60</ele>
        <time>2022-05-14T10:54:42Z</time>
      </trkpt>
      <trkpt lat="47.27168" lon="-1.41951">
        <ele>60</ele>
        <time>2022-05-14T10:54:44Z</time>
      </trkpt>
      <trkpt lat="47.2716" lon="-1.41965">
        <ele>60</ele>
        <time>2022-05-14T10:54:46Z</time>
      </trkpt>
      <trkpt lat="47.27152" lon="-1.4198">
        <ele>60</ele>
        <time>2022-05-14T10:54:48Z</time>
      </trkpt>
      <trkpt lat="47.27144" lon="-1.41995">
        <ele>60</ele>
        <time>2022-05-14T10:54:50Z</time>
      </trkpt>
      <trkpt lat="47.27136" lon="-1.4201">
        <ele>59</ele>
        <time>2022-05-14T10:54:52Z</time>
      </trkpt>
      <trkpt lat="47.27126" lon="-1.42023">
        <ele>58</ele>
        <time>2022-05-14T10:54:54Z</time>
      </trkpt>
      <trkpt lat="47.27117" lon="-1.42037">
        <ele>58</ele>
        <time>2022-05-14T10:54:56Z</time>
      </trkpt>
      <trkpt lat="47.27108" lon="-1.4205">
        <ele>58</ele>
        <time>2022-05-14T10:54:58Z</time>
      </trkpt>
      <trkpt lat="47.271" lon="-1.42063">
        <ele>58</ele>
        <time>2022-05-14T10:55:00Z</time>
      </trkpt>
      <trkpt lat="47.27091" lon="-1.42076">
        <ele>58</ele>
        <time>2022-05-14T10:55:02Z</time>
      </trkpt>
      <trkpt lat="47.27082" lon="-1.42089">
        <ele>58</ele>
        <time>2022-05-14T10:55:04Z</time>
      </trkpt>
      <trkpt lat="47.27074" lon="-1.42104">
        <ele>58</ele>
        <time>2022-05-14T10:55:06Z</time>
      </trkpt>
      <trkpt lat="47.27067" lon="-1.42118">
        <ele>57</ele>
        <time>2022-05-14T10:55:08Z</time>
      </trkpt>
      <trkpt lat="47.27059" lon="-1.42132">
        <ele>56</ele>
        <time>2022-05-14T10:55:10Z</time>
      </trkpt>
      <trkpt lat="47.27053" lon="-1.42147">
        <ele>57</ele>
        <time>2022-05-14T10:55:12Z</time>
      </trkpt>
      <trkpt lat="47.27046" lon="-1.42161">
        <ele>58</ele>
        <time>2022-05-14T10:55:14Z</time>
      </trkpt>
      <trkpt lat="47.27039" lon="-1.42174">
        <ele>58</ele>
        <time>2022-05-14T10:55:16Z</time>
      </trkpt>
      <trkpt lat="47.27032" lon="-1.42187">
        <ele>60</ele>
        <time>2022-05-14T10:55:18Z</time>
      </trkpt>
      <trkpt lat="47.27024" lon="-1.422">
        <ele>61</ele>
        <time>2022-05-14T10:55:20Z</time>
      </trkpt>
      <trkpt lat="47.27016" lon="-1.42213">
        <ele>61</ele>
        <time>2022-05-14T10:55:22Z</time>
      </trkpt>
      <trkpt lat="47.27007" lon="-1.42228">
        <ele>61</ele>
        <time>2022-05-14T10:55:24Z</time>
      </trkpt>
      <trkpt lat="47.26994" lon="-1.4225">
        <ele>60</ele>
        <time>2022-05-14T10:55:27Z</time>
      </trkpt>
      <trkpt lat="47.26986" lon="-1.42265">
        <ele>60</ele>
        <time>2022-05-14T10:55:29Z</time>
      </trkpt>
      <trkpt lat="47.26978" lon="-1.4228">
        <ele>59</ele>
        <time>2022-05-14T10:55:31Z</time>
      </trkpt>
      <trkpt lat="47.2697" lon="-1.42294">
        <ele>58</ele>
        <time>2022-05-14T10:55:33Z</time>
      </trkpt>
      <trkpt lat="47.26962" lon="-1.42308">
        <ele>58</ele>
        <time>2022-05-14T10:55:35Z</time>
      </trkpt>
      <trkpt lat="47.26955" lon="-1.42323">
        <ele>58</ele>
        <time>2022-05-14T10:55:37Z</time>
      </trkpt>
      <trkpt lat="47.26948" lon="-1.42337">
        <ele>59</ele>
        <time>2022-05-14T10:55:39Z</time>
      </trkpt>
      <trkpt lat="47.2694" lon="-1.42352">
        <ele>59</ele>
        <time>2022-05-14T10:55:41Z</time>
      </trkpt>
      <trkpt lat="47.26933" lon="-1.42366">
        <ele>59</ele>
        <time>2022-05-14T10:55:43Z</time>
      </trkpt>
      <trkpt lat="47.26925" lon="-1.42381">
        <ele>59</ele>
        <time>2022-05-14T10:55:45Z</time>
      </trkpt>
      <trkpt lat="47.26918" lon="-1.42395">
        <ele>58</ele>
        <time>2022-05-14T10:55:47Z</time>
      </trkpt>
      <trkpt lat="47.2691" lon="-1.4241">
        <ele>58</ele>
        <time>2022-05-14T10:55:49Z</time>
      </trkpt>
      <trkpt lat="47.26902" lon="-1.42425">
        <ele>57</ele>
        <time>2022-05-14T10:55:51Z</time>
      </trkpt>
      <trkpt lat="47.26894" lon="-1.4244">
        <ele>57</ele>
        <time>2022-05-14T10:55:53Z</time>
      </trkpt>
      <trkpt lat="47.26887" lon="-1.42454">
        <ele>57</ele>
        <time>2022-05-14T10:55:55Z</time>
      </trkpt>
      <trkpt lat="47.26879" lon="-1.42468">
        <ele>57</ele>
        <time>2022-05-14T10:55:57Z</time>
      </trkpt>
      <trkpt lat="47.26871" lon="-1.42483">
        <ele>57</ele>
        <time>2022-05-14T10:55:59Z</time>
      </trkpt>
      <trkpt lat="47.26863" lon="-1.42497">
        <ele>57</ele>
        <time>2022-05-14T10:56:01Z</time>
      </trkpt>
      <trkpt lat="47.26855" lon="-1.42512">
        <ele>57</ele>
        <time>2022-05-14T10:56:03Z</time>
      </trkpt>
      <trkpt lat="47.26848" lon="-1.42527">
        <ele>57</ele>
        <time>2022-05-14T10:56:05Z</time>
      </trkpt>
      <trkpt lat="47.2684" lon="-1.42543">
        <ele>57</ele>
        <time>2022-05-14T10:56:07Z</time>
      </trkpt>
      <trkpt lat="47.26832" lon="-1.42558">
        <ele>57</ele>
        <time>2022-05-14T10:56:09Z</time>
      </trkpt>
      <trkpt lat="47.26826" lon="-1.42573">
        <ele>58</ele>
        <time>2022-05-14T10:56:11Z</time>
      </trkpt>
      <trkpt lat="47.26819" lon="-1.42588">
        <ele>57</ele>
        <time>2022-05-14T10:56:13Z</time>
      </trkpt>
      <trkpt lat="47.26812" lon="-1.42603">
        <ele>57</ele>
        <time>2022-05-14T10:56:15Z</time>
      </trkpt>
      <trkpt lat="47.26805" lon="-1.42619">
        <ele>57</ele>
        <time>2022-05-14T10:56:17Z</time>
      </trkpt>
      <trkpt lat="47.268" lon="-1.42634">
        <ele>58</ele>
        <time>2022-05-14T10:56:19Z</time>
      </trkpt>
      <trkpt lat="47.26794" lon="-1.4265">
        <ele>57</ele>
        <time>2022-05-14T10:56:21Z</time>
      </trkpt>
      <trkpt lat="47.26788" lon="-1.42666">
        <ele>58</ele>
        <time>2022-05-14T10:56:23Z</time>
      </trkpt>
      <trkpt lat="47.26782" lon="-1.42682">
        <ele>57</ele>
        <time>2022-05-14T10:56:25Z</time>
      </trkpt>
      <trkpt lat="47.26776" lon="-1.42699">
        <ele>57</ele>
        <time>2022-05-14T10:56:27Z</time>
      </trkpt>
      <trkpt lat="47.26769" lon="-1.42715">
        <ele>57</ele>
        <time>2022-05-14T10:56:29Z</time>
      </trkpt>
      <trkpt lat="47.26762" lon="-1.4273">
        <ele>57</ele>
        <time>2022-05-14T10:56:31Z</time>
      </trkpt>
      <trkpt lat="47.26754" lon="-1.42744">
        <ele>57</ele>
        <time>2022-05-14T10:56:33Z</time>
      </trkpt>
      <trkpt lat="47.26746" lon="-1.42758">
        <ele>57</ele>
        <time>2022-05-14T10:56:35Z</time>
      </trkpt>
      <trkpt lat="47.26738" lon="-1.42775">
        <ele>57</ele>
        <time>2022-05-14T10:56:37Z</time>
      </trkpt>
      <trkpt lat="47.26733" lon="-1.42792">
        <ele>58</ele>
        <time>2022-05-14T10:56:39Z</time>
      </trkpt>
      <trkpt lat="47.26729" lon="-1.42807">
        <ele>57</ele>
        <time>2022-05-14T10:56:41Z</time>
      </trkpt>
      <trkpt lat="47.26725" lon="-1.4282">
        <ele>58</ele>
        <time>2022-05-14T10:56:43Z</time>
      </trkpt>
      <trkpt lat="47.26718" lon="-1.42836">
        <ele>59</ele>
        <time>2022-05-14T10:56:45Z</time>
      </trkpt>
      <trkpt lat="47.26712" lon="-1.42854">
        <ele>59</ele>
        <time>2022-05-14T10:56:47Z</time>
      </trkpt>
      <trkpt lat="47.26706" lon="-1.42872">
        <ele>59</ele>
        <time>2022-05-14T10:56:49Z</time>
      </trkpt>
      <trkpt lat="47.26698" lon="-1.42888">
        <ele>59</ele>
        <time>2022-05-14T10:56:51Z</time>
      </trkpt>
      <trkpt lat="47.26689" lon="-1.42905">
        <ele>59</ele>
        <time>2022-05-14T10:56:53Z</time>
      </trkpt>
      <trkpt lat="47.26681" lon="-1.42921">
        <ele>58</ele>
        <time>2022-05-14T10:56:55Z</time>
      </trkpt>
      <trkpt lat="47.26673" lon="-1.42938">
        <ele>57</ele>
        <time>2022-05-14T10:56:57Z</time>
      </trkpt>
      <trkpt lat="47.26665" lon="-1.42953">
        <ele>57</ele>
        <time>2022-05-14T10:56:59Z</time>
      </trkpt>
      <trkpt lat="47.26658" lon="-1.42969">
        <ele>56</ele>
        <time>2022-05-14T10:57:01Z</time>
      </trkpt>
      <trkpt lat="47.2665" lon="-1.42983">
        <ele>56</ele>
        <time>2022-05-14T10:57:03Z</time>
      </trkpt>
      <trkpt lat="47.26642" lon="-1.42999">
        <ele>55</ele>
        <time>2022-05-14T10:57:05Z</time>
      </trkpt>
      <trkpt lat="47.26635" lon="-1.43013">
        <ele>55</ele>
        <time>2022-05-14T10:57:07Z</time>
      </trkpt>
      <trkpt lat="47.26628" lon="-1.43027">
        <ele>56</ele>
        <time>2022-05-14T10:57:09Z</time>
      </trkpt>
      <trkpt lat="47.26621" lon="-1.43041">
        <ele>56</ele>
        <time>2022-05-14T10:57:11Z</time>
      </trkpt>
      <trkpt lat="47.26614" lon="-1.43056">
        <ele>55</ele>
        <time>2022-05-14T10:57:13Z</time>
      </trkpt>
      <trkpt lat="47.26607" lon="-1.4307">
        <ele>55</ele>
        <time>2022-05-14T10:57:15Z</time>
      </trkpt>
      <trkpt lat="47.26599" lon="-1.43083">
        <ele>55</ele>
        <time>2022-05-14T10:57:17Z</time>
      </trkpt>
      <trkpt lat="47.26591" lon="-1.43097">
        <ele>55</ele>
        <time>2022-05-14T10:57:19Z</time>
      </trkpt>
      <trkpt lat="47.26583" lon="-1.43111">
        <ele>54</ele>
        <time>2022-05-14T10:57:21Z</time>
      </trkpt>
      <trkpt lat="47.26575" lon="-1.43122">
        <ele>55</ele>
        <time>2022-05-14T10:57:23Z</time>
      </trkpt>
      <trkpt lat="47.26567" lon="-1.43133">
        <ele>56</ele>
        <time>2022-05-14T10:57:25Z</time>
      </trkpt>
      <trkpt lat="47.26559" lon="-1.43145">
        <ele>56</ele>
        <time>2022-05-14T10:57:27Z</time>
      </trkpt>
      <trkpt lat="47.2655" lon="-1.43156">
        <ele>57</ele>
        <time>2022-05-14T10:57:29Z</time>
      </trkpt>
      <trkpt lat="47.26541" lon="-1.43168">
        <ele>57</ele>
        <time>2022-05-14T10:57:31Z</time>
      </trkpt>
      <trkpt lat="47.26532" lon="-1.43181">
        <ele>57</ele>
        <time>2022-05-14T10:57:33Z</time>
      </trkpt>
      <trkpt lat="47.26524" lon="-1.43193">
        <ele>57</ele>
        <time>2022-05-14T10:57:35Z</time>
      </trkpt>
      <trkpt lat="47.26516" lon="-1.43205">
        <ele>57</ele>
        <time>2022-05-14T10:57:37Z</time>
      </trkpt>
      <trkpt lat="47.26507" lon="-1.43217">
        <ele>58</ele>
        <time>2022-05-14T10:57:39Z</time>
      </trkpt>
      <trkpt lat="47.26499" lon="-1.43228">
        <ele>58</ele>
        <time>2022-05-14T10:57:41Z</time>
      </trkpt>
      <trkpt lat="47.26492" lon="-1.4324">
        <ele>58</ele>
        <time>2022-05-14T10:57:43Z</time>
      </trkpt>
      <trkpt lat="47.26484" lon="-1.43253">
        <ele>59</ele>
        <time>2022-05-14T10:57:45Z</time>
      </trkpt>
      <trkpt lat="47.26476" lon="-1.43264">
        <ele>59</ele>
        <time>2022-05-14T10:57:47Z</time>
      </trkpt>
      <trkpt lat="47.26468" lon="-1.43277">
        <ele>59</ele>
        <time>2022-05-14T10:57:49Z</time>
      </trkpt>
      <trkpt lat="47.26458" lon="-1.43293">
        <ele>60</ele>
        <time>2022-05-14T10:57:51Z</time>
      </trkpt>
      <trkpt lat="47.2645" lon="-1.43308">
        <ele>60</ele>
        <time>2022-05-14T10:57:53Z</time>
      </trkpt>
      <trkpt lat="47.26441" lon="-1.43324">
        <ele>59</ele>
        <time>2022-05-14T10:57:55Z</time>
      </trkpt>
      <trkpt lat="47.26432" lon="-1.43336">
        <ele>59</ele>
        <time>2022-05-14T10:57:57Z</time>
      </trkpt>
      <trkpt lat="47.26423" lon="-1.43347">
        <ele>58</ele>
        <time>2022-05-14T10:57:59Z</time>
      </trkpt>
      <trkpt lat="47.26414" lon="-1.43359">
        <ele>58</ele>
        <time>2022-05-14T10:58:01Z</time>
      </trkpt>
      <trkpt lat="47.26404" lon="-1.4337">
        <ele>57</ele>
        <time>2022-05-14T10:58:03Z</time>
      </trkpt>
      <trkpt lat="47.26394" lon="-1.43381">
        <ele>57</ele>
        <time>2022-05-14T10:58:05Z</time>
      </trkpt>
      <trkpt lat="47.26384" lon="-1.43393">
        <ele>57</ele>
        <time>2022-05-14T10:58:07Z</time>
      </trkpt>
      <trkpt lat="47.26374" lon="-1.43404">
        <ele>56</ele>
        <time>2022-05-14T10:58:09Z</time>
      </trkpt>
      <trkpt lat="47.26364" lon="-1.43414">
        <ele>55</ele>
        <time>2022-05-14T10:58:11Z</time>
      </trkpt>
      <trkpt lat="47.26354" lon="-1.43425">
        <ele>55</ele>
        <time>2022-05-14T10:58:13Z</time>
      </trkpt>
      <trkpt lat="47.26344" lon="-1.43435">
        <ele>55</ele>
        <time>2022-05-14T10:58:15Z</time>
      </trkpt>
      <trkpt lat="47.26334" lon="-1.43445">
        <ele>54</ele>
        <time>2022-05-14T10:58:17Z</time>
      </trkpt>
      <trkpt lat="47.26325" lon="-1.43455">
        <ele>54</ele>
        <time>2022-05-14T10:58:19Z</time>
      </trkpt>
      <trkpt lat="47.26314" lon="-1.43465">
        <ele>54</ele>
        <time>2022-05-14T10:58:21Z</time>
      </trkpt>
      <trkpt lat="47.26305" lon="-1.43474">
        <ele>54</ele>
        <time>2022-05-14T10:58:23Z</time>
      </trkpt>
      <trkpt lat="47.26295" lon="-1.43484">
        <ele>55</ele>
        <time>2022-05-14T10:58:25Z</time>
      </trkpt>
      <trkpt lat="47.26286" lon="-1.43489">
        <ele>56</ele>
        <time>2022-05-14T10:58:27Z</time>
      </trkpt>
      <trkpt lat="47.26275" lon="-1.43491">
        <ele>56</ele>
        <time>2022-05-14T10:58:29Z</time>
      </trkpt>
      <trkpt lat="47.26264" lon="-1.43495">
        <ele>56</ele>
        <time>2022-05-14T10:58:31Z</time>
      </trkpt>
      <trkpt lat="47.26253" lon="-1.43503">
        <ele>56</ele>
        <time>2022-05-14T10:58:33Z</time>
      </trkpt>
      <trkpt lat="47.26243" lon="-1.43512">
        <ele>56</ele>
        <time>2022-05-14T10:58:35Z</time>
      </trkpt>
      <trkpt lat="47.26233" lon="-1.43523">
        <ele>56</ele>
        <time>2022-05-14T10:58:37Z</time>
      </trkpt>
      <trkpt lat="47.26224" lon="-1.43535">
        <ele>56</ele>
        <time>2022-05-14T10:58:39Z</time>
      </trkpt>
      <trkpt lat="47.26217" lon="-1.43547">
        <ele>56</ele>
        <time>2022-05-14T10:58:41Z</time>
      </trkpt>
      <trkpt lat="47.26216" lon="-1.43562">
        <ele>57</ele>
        <time>2022-05-14T10:58:43Z</time>
      </trkpt>
      <trkpt lat="47.26212" lon="-1.4358">
        <ele>58</ele>
        <time>2022-05-14T10:58:45Z</time>
      </trkpt>
      <trkpt lat="47.26204" lon="-1.43595">
        <ele>58</ele>
        <time>2022-05-14T10:58:47Z</time>
      </trkpt>
      <trkpt lat="47.26194" lon="-1.43609">
        <ele>56</ele>
        <time>2022-05-14T10:58:49Z</time>
      </trkpt>
      <trkpt lat="47.26187" lon="-1.43621">
        <ele>56</ele>
        <time>2022-05-14T10:58:51Z</time>
      </trkpt>
      <trkpt lat="47.2618" lon="-1.43635">
        <ele>56</ele>
        <time>2022-05-14T10:58:53Z</time>
      </trkpt>
      <trkpt lat="47.26172" lon="-1.4365">
        <ele>56</ele>
        <time>2022-05-14T10:58:55Z</time>
      </trkpt>
      <trkpt lat="47.26164" lon="-1.43664">
        <ele>56</ele>
        <time>2022-05-14T10:58:57Z</time>
      </trkpt>
      <trkpt lat="47.26155" lon="-1.43676">
        <ele>56</ele>
        <time>2022-05-14T10:58:59Z</time>
      </trkpt>
      <trkpt lat="47.26148" lon="-1.43689">
        <ele>56</ele>
        <time>2022-05-14T10:59:01Z</time>
      </trkpt>
      <trkpt lat="47.2614" lon="-1.43702">
        <ele>56</ele>
        <time>2022-05-14T10:59:03Z</time>
      </trkpt>
      <trkpt lat="47.26133" lon="-1.43713">
        <ele>57</ele>
        <time>2022-05-14T10:59:05Z</time>
      </trkpt>
      <trkpt lat="47.26126" lon="-1.43725">
        <ele>57</ele>
        <time>2022-05-14T10:59:07Z</time>
      </trkpt>
      <trkpt lat="47.26116" lon="-1.43738">
        <ele>58</ele>
        <time>2022-05-14T10:59:09Z</time>
      </trkpt>
      <trkpt lat="47.26106" lon="-1.43749">
        <ele>58</ele>
        <time>2022-05-14T10:59:11Z</time>
      </trkpt>
      <trkpt lat="47.26096" lon="-1.4376">
        <ele>59</ele>
        <time>2022-05-14T10:59:13Z</time>
      </trkpt>
      <trkpt lat="47.26087" lon="-1.43772">
        <ele>59</ele>
        <time>2022-05-14T10:59:15Z</time>
      </trkpt>
      <trkpt lat="47.26078" lon="-1.43784">
        <ele>60</ele>
        <time>2022-05-14T10:59:17Z</time>
      </trkpt>
      <trkpt lat="47.26067" lon="-1.43797">
        <ele>60</ele>
        <time>2022-05-14T10:59:19Z</time>
      </trkpt>
      <trkpt lat="47.26057" lon="-1.43811">
        <ele>60</ele>
        <time>2022-05-14T10:59:21Z</time>
      </trkpt>
      <trkpt lat="47.2605" lon="-1.43827">
        <ele>59</ele>
        <time>2022-05-14T10:59:23Z</time>
      </trkpt>
      <trkpt lat="47.26044" lon="-1.43843">
        <ele>58</ele>
        <time>2022-05-14T10:59:25Z</time>
      </trkpt>
      <trkpt lat="47.26036" lon="-1.43859">
        <ele>58</ele>
        <time>2022-05-14T10:59:27Z</time>
      </trkpt>
      <trkpt lat="47.26026" lon="-1.43869">
        <ele>58</ele>
        <time>2022-05-14T10:59:29Z</time>
      </trkpt>
      <trkpt lat="47.26015" lon="-1.43877">
        <ele>58</ele>
        <time>2022-05-14T10:59:31Z</time>
      </trkpt>
      <trkpt lat="47.26006" lon="-1.43888">
        <ele>58</ele>
        <time>2022-05-14T10:59:33Z</time>
      </trkpt>
      <trkpt lat="47.25996" lon="-1.43898">
        <ele>59</ele>
        <time>2022-05-14T10:59:35Z</time>
      </trkpt>
      <trkpt lat="47.25984" lon="-1.43909">
        <ele>60</ele>
        <time>2022-05-14T10:59:37Z</time>
      </trkpt>
      <trkpt lat="47.25971" lon="-1.4392">
        <ele>60</ele>
        <time>2022-05-14T10:59:39Z</time>
      </trkpt>
      <trkpt lat="47.2596" lon="-1.43931">
        <ele>60</ele>
        <time>2022-05-14T10:59:41Z</time>
      </trkpt>
      <trkpt lat="47.2595" lon="-1.43944">
        <ele>61</ele>
        <time>2022-05-14T10:59:43Z</time>
      </trkpt>
      <trkpt lat="47.25941" lon="-1.43958">
        <ele>61</ele>
        <time>2022-05-14T10:59:45Z</time>
      </trkpt>
      <trkpt lat="47.25929" lon="-1.43971">
        <ele>61</ele>
        <time>2022-05-14T10:59:47Z</time>
      </trkpt>
      <trkpt lat="47.25919" lon="-1.43982">
        <ele>60</ele>
        <time>2022-05-14T10:59:49Z</time>
      </trkpt>
      <trkpt lat="47.25909" lon="-1.43993">
        <ele>60</ele>
        <time>2022-05-14T10:59:51Z</time>
      </trkpt>
      <trkpt lat="47.25897" lon="-1.44005">
        <ele>59</ele>
        <time>2022-05-14T10:59:53Z</time>
      </trkpt>
      <trkpt lat="47.25886" lon="-1.44018">
        <ele>59</ele>
        <time>2022-05-14T10:59:55Z</time>
      </trkpt>
      <trkpt lat="47.25877" lon="-1.4403">
        <ele>58</ele>
        <time>2022-05-14T10:59:57Z</time>
      </trkpt>
      <trkpt lat="47.2587" lon="-1.44045">
        <ele>59</ele>
        <time>2022-05-14T10:59:59Z</time>
      </trkpt>
      <trkpt lat="47.25865" lon="-1.44065">
        <ele>58</ele>
        <time>2022-05-14T11:00:01Z</time>
      </trkpt>
      <trkpt lat="47.25858" lon="-1.44082">
        <ele>58</ele>
        <time>2022-05-14T11:00:03Z</time>
      </trkpt>
      <trkpt lat="47.25849" lon="-1.44098">
        <ele>58</ele>
        <time>2022-05-14T11:00:05Z</time>
      </trkpt>
      <trkpt lat="47.25839" lon="-1.44111">
        <ele>58</ele>
        <time>2022-05-14T11:00:07Z</time>
      </trkpt>
      <trkpt lat="47.25829" lon="-1.44122">
        <ele>58</ele>
        <time>2022-05-14T11:00:09Z</time>
      </trkpt>
      <trkpt lat="47.25819" lon="-1.44134">
        <ele>57</ele>
        <time>2022-05-14T11:00:11Z</time>
      </trkpt>
      <trkpt lat="47.25809" lon="-1.44145">
        <ele>57</ele>
        <time>2022-05-14T11:00:13Z</time>
      </trkpt>
      <trkpt lat="47.25799" lon="-1.44157">
        <ele>56</ele>
        <time>2022-05-14T11:00:15Z</time>
      </trkpt>
      <trkpt lat="47.25788" lon="-1.44169">
        <ele>56</ele>
        <time>2022-05-14T11:00:17Z</time>
      </trkpt>
      <trkpt lat="47.25779" lon="-1.44181">
        <ele>56</ele>
        <time>2022-05-14T11:00:19Z</time>
      </trkpt>
      <trkpt lat="47.25769" lon="-1.44192">
        <ele>56</ele>
        <time>2022-05-14T11:00:21Z</time>
      </trkpt>
      <trkpt lat="47.25759" lon="-1.44204">
        <ele>56</ele>
        <time>2022-05-14T11:00:23Z</time>
      </trkpt>
      <trkpt lat="47.25749" lon="-1.44216">
        <ele>56</ele>
        <time>2022-05-14T11:00:25Z</time>
      </trkpt>
      <trkpt lat="47.2574" lon="-1.44229">
        <ele>55</ele>
        <time>2022-05-14T11:00:27Z</time>
      </trkpt>
      <trkpt lat="47.25731" lon="-1.44241">
        <ele>55</ele>
        <time>2022-05-14T11:00:29Z</time>
      </trkpt>
      <trkpt lat="47.25721" lon="-1.44253">
        <ele>55</ele>
        <time>2022-05-14T11:00:31Z</time>
      </trkpt>
      <trkpt lat="47.25711" lon="-1.44265">
        <ele>54</ele>
        <time>2022-05-14T11:00:33Z</time>
      </trkpt>
      <trkpt lat="47.25701" lon="-1.44276">
        <ele>54</ele>
        <time>2022-05-14T11:00:35Z</time>
      </trkpt>
      <trkpt lat="47.25692" lon="-1.44288">
        <ele>55</ele>
        <time>2022-05-14T11:00:37Z</time>
      </trkpt>
      <trkpt lat="47.25682" lon="-1.443">
        <ele>55</ele>
        <time>2022-05-14T11:00:39Z</time>
      </trkpt>
      <trkpt lat="47.25673" lon="-1.44312">
        <ele>54</ele>
        <time>2022-05-14T11:00:41Z</time>
      </trkpt>
      <trkpt lat="47.25663" lon="-1.44323">
        <ele>54</ele>
        <time>2022-05-14T11:00:43Z</time>
      </trkpt>
      <trkpt lat="47.25654" lon="-1.44334">
        <ele>55</ele>
        <time>2022-05-14T11:00:45Z</time>
      </trkpt>
      <trkpt lat="47.25644" lon="-1.44344">
        <ele>55</ele>
        <time>2022-05-14T11:00:47Z</time>
      </trkpt>
      <trkpt lat="47.25634" lon="-1.44355">
        <ele>55</ele>
        <time>2022-05-14T11:00:49Z</time>
      </trkpt>
      <trkpt lat="47.25625" lon="-1.44367">
        <ele>55</ele>
        <time>2022-05-14T11:00:51Z</time>
      </trkpt>
      <trkpt lat="47.25615" lon="-1.44378">
        <ele>56</ele>
        <time>2022-05-14T11:00:53Z</time>
      </trkpt>
      <trkpt lat="47.25605" lon="-1.44389">
        <ele>56</ele>
        <time>2022-05-14T11:00:55Z</time>
      </trkpt>
      <trkpt lat="47.25594" lon="-1.44401">
        <ele>56</ele>
        <time>2022-05-14T11:00:57Z</time>
      </trkpt>
      <trkpt lat="47.25584" lon="-1.44413">
        <ele>56</ele>
        <time>2022-05-14T11:00:59Z</time>
      </trkpt>
      <trkpt lat="47.25574" lon="-1.44425">
        <ele>56</ele>
        <time>2022-05-14T11:01:01Z</time>
      </trkpt>
      <trkpt lat="47.25565" lon="-1.44437">
        <ele>56</ele>
        <time>2022-05-14T11:01:03Z</time>
      </trkpt>
      <trkpt lat="47.25555" lon="-1.4445">
        <ele>55</ele>
        <time>2022-05-14T11:01:05Z</time>
      </trkpt>
      <trkpt lat="47.25546" lon="-1.44464">
        <ele>55</ele>
        <time>2022-05-14T11:01:07Z</time>
      </trkpt>
      <trkpt lat="47.25538" lon="-1.44478">
        <ele>55</ele>
        <time>2022-05-14T11:01:09Z</time>
      </trkpt>
      <trkpt lat="47.25529" lon="-1.44491">
        <ele>56</ele>
        <time>2022-05-14T11:01:11Z</time>
      </trkpt>
      <trkpt lat="47.2552" lon="-1.44505">
        <ele>56</ele>
        <time>2022-05-14T11:01:13Z</time>
      </trkpt>
      <trkpt lat="47.25511" lon="-1.44518">
        <ele>56</ele>
        <time>2022-05-14T11:01:15Z</time>
      </trkpt>
      <trkpt lat="47.25502" lon="-1.44532">
        <ele>55</ele>
        <time>2022-05-14T11:01:17Z</time>
      </trkpt>
      <trkpt lat="47.25492" lon="-1.44544">
        <ele>55</ele>
        <time>2022-05-14T11:01:19Z</time>
      </trkpt>
      <trkpt lat="47.25483" lon="-1.44558">
        <ele>54</ele>
        <time>2022-05-14T11:01:21Z</time>
      </trkpt>
      <trkpt lat="47.25474" lon="-1.44571">
        <ele>54</ele>
        <time>2022-05-14T11:01:23Z</time>
      </trkpt>
      <trkpt lat="47.25466" lon="-1.44584">
        <ele>54</ele>
        <time>2022-05-14T11:01:25Z</time>
      </trkpt>
      <trkpt lat="47.25457" lon="-1.44598">
        <ele>54</ele>
        <time>2022-05-14T11:01:27Z</time>
      </trkpt>
      <trkpt lat="47.25448" lon="-1.4461">
        <ele>54</ele>
        <time>2022-05-14T11:01:29Z</time>
      </trkpt>
      <trkpt lat="47.25439" lon="-1.44623">
        <ele>54</ele>
        <time>2022-05-14T11:01:31Z</time>
      </trkpt>
      <trkpt lat="47.25429" lon="-1.44635">
        <ele>54</ele>
        <time>2022-05-14T11:01:33Z</time>
      </trkpt>
      <trkpt lat="47.2542" lon="-1.44646">
        <ele>54</ele>
        <time>2022-05-14T11:01:35Z</time>
      </trkpt>
      <trkpt lat="47.2541" lon="-1.44659">
        <ele>54</ele>
        <time>2022-05-14T11:01:37Z</time>
      </trkpt>
      <trkpt lat="47.254" lon="-1.44672">
        <ele>54</ele>
        <time>2022-05-14T11:01:39Z</time>
      </trkpt>
      <trkpt lat="47.25391" lon="-1.44683">
        <ele>54</ele>
        <time>2022-05-14T11:01:41Z</time>
      </trkpt>
      <trkpt lat="47.25381" lon="-1.44695">
        <ele>54</ele>
        <time>2022-05-14T11:01:43Z</time>
      </trkpt>
      <trkpt lat="47.25371" lon="-1.44707">
        <ele>55</ele>
        <time>2022-05-14T11:01:45Z</time>
      </trkpt>
      <trkpt lat="47.25362" lon="-1.44719">
        <ele>55</ele>
        <time>2022-05-14T11:01:47Z</time>
      </trkpt>
      <trkpt lat="47.25351" lon="-1.4473">
        <ele>55</ele>
        <time>2022-05-14T11:01:49Z</time>
      </trkpt>
      <trkpt lat="47.25341" lon="-1.4474">
        <ele>55</ele>
        <time>2022-05-14T11:01:51Z</time>
      </trkpt>
      <trkpt lat="47.25331" lon="-1.44752">
        <ele>55</ele>
        <time>2022-05-14T11:01:53Z</time>
      </trkpt>
      <trkpt lat="47.25321" lon="-1.44763">
        <ele>55</ele>
        <time>2022-05-14T11:01:55Z</time>
      </trkpt>
      <trkpt lat="47.25311" lon="-1.44774">
        <ele>56</ele>
        <time>2022-05-14T11:01:57Z</time>
      </trkpt>
      <trkpt lat="47.25301" lon="-1.44785">
        <ele>56</ele>
        <time>2022-05-14T11:01:59Z</time>
      </trkpt>
      <trkpt lat="47.25291" lon="-1.44796">
        <ele>56</ele>
        <time>2022-05-14T11:02:01Z</time>
      </trkpt>
      <trkpt lat="47.25281" lon="-1.44806">
        <ele>56</ele>
        <time>2022-05-14T11:02:03Z</time>
      </trkpt>
      <trkpt lat="47.2527" lon="-1.44818">
        <ele>56</ele>
        <time>2022-05-14T11:02:05Z</time>
      </trkpt>
      <trkpt lat="47.2526" lon="-1.4483">
        <ele>58</ele>
        <time>2022-05-14T11:02:07Z</time>
      </trkpt>
      <trkpt lat="47.25251" lon="-1.44841">
        <ele>58</ele>
        <time>2022-05-14T11:02:09Z</time>
      </trkpt>
      <trkpt lat="47.25241" lon="-1.44852">
        <ele>57</ele>
        <time>2022-05-14T11:02:11Z</time>
      </trkpt>
      <trkpt lat="47.2523" lon="-1.44863">
        <ele>57</ele>
        <time>2022-05-14T11:02:13Z</time>
      </trkpt>
      <trkpt lat="47.25219" lon="-1.44872">
        <ele>57</ele>
        <time>2022-05-14T11:02:15Z</time>
      </trkpt>
      <trkpt lat="47.25208" lon="-1.44881">
        <ele>58</ele>
        <time>2022-05-14T11:02:17Z</time>
      </trkpt>
      <trkpt lat="47.25196" lon="-1.4489">
        <ele>59</ele>
        <time>2022-05-14T11:02:19Z</time>
      </trkpt>
      <trkpt lat="47.25185" lon="-1.44899">
        <ele>59</ele>
        <time>2022-05-14T11:02:21Z</time>
      </trkpt>
      <trkpt lat="47.25173" lon="-1.44908">
        <ele>59</ele>
        <time>2022-05-14T11:02:23Z</time>
      </trkpt>
      <trkpt lat="47.25162" lon="-1.44919">
        <ele>58</ele>
        <time>2022-05-14T11:02:25Z</time>
      </trkpt>
      <trkpt lat="47.25151" lon="-1.4493">
        <ele>58</ele>
        <time>2022-05-14T11:02:27Z</time>
      </trkpt>
      <trkpt lat="47.25141" lon="-1.44941">
        <ele>57</ele>
        <time>2022-05-14T11:02:29Z</time>
      </trkpt>
      <trkpt lat="47.2513" lon="-1.44951">
        <ele>57</ele>
        <time>2022-05-14T11:02:31Z</time>
      </trkpt>
      <trkpt lat="47.2512" lon="-1.44961">
        <ele>57</ele>
        <time>2022-05-14T11:02:33Z</time>
      </trkpt>
      <trkpt lat="47.25109" lon="-1.44971">
        <ele>57</ele>
        <time>2022-05-14T11:02:35Z</time>
      </trkpt>
      <trkpt lat="47.25098" lon="-1.44981">
        <ele>57</ele>
        <time>2022-05-14T11:02:37Z</time>
      </trkpt>
      <trkpt lat="47.25088" lon="-1.44989">
        <ele>58</ele>
        <time>2022-05-14T11:02:39Z</time>
      </trkpt>
      <trkpt lat="47.25076" lon="-1.44997">
        <ele>58</ele>
        <time>2022-05-14T11:02:41Z</time>
      </trkpt>
      <trkpt lat="47.25065" lon="-1.45005">
        <ele>58</ele>
        <time>2022-05-14T11:02:43Z</time>
      </trkpt>
      <trkpt lat="47.25054" lon="-1.45013">
        <ele>58</ele>
        <time>2022-05-14T11:02:45Z</time>
      </trkpt>
      <trkpt lat="47.25043" lon="-1.45022">
        <ele>58</ele>
        <time>2022-05-14T11:02:47Z</time>
      </trkpt>
      <trkpt lat="47.25032" lon="-1.45031">
        <ele>58</ele>
        <time>2022-05-14T11:02:49Z</time>
      </trkpt>
      <trkpt lat="47.2502" lon="-1.45041">
        <ele>58</ele>
        <time>2022-05-14T11:02:51Z</time>
      </trkpt>
      <trkpt lat="47.25009" lon="-1.45051">
        <ele>58</ele>
        <time>2022-05-14T11:02:53Z</time>
      </trkpt>
      <trkpt lat="47.25" lon="-1.45062">
        <ele>59</ele>
        <time>2022-05-14T11:02:55Z</time>
      </trkpt>
      <trkpt lat="47.2499" lon="-1.45073">
        <ele>59</ele>
        <time>2022-05-14T11:02:57Z</time>
      </trkpt>
      <trkpt lat="47.2498" lon="-1.45085">
        <ele>59</ele>
        <time>2022-05-14T11:02:59Z</time>
      </trkpt>
      <trkpt lat="47.2497" lon="-1.45098">
        <ele>59</ele>
        <time>2022-05-14T11:03:01Z</time>
      </trkpt>
      <trkpt lat="47.2496" lon="-1.45109">
        <ele>59</ele>
        <time>2022-05-14T11:03:03Z</time>
      </trkpt>
      <trkpt lat="47.2495" lon="-1.45121">
        <ele>58</ele>
        <time>2022-05-14T11:03:05Z</time>
      </trkpt>
      <trkpt lat="47.24939" lon="-1.45132">
        <ele>58</ele>
        <time>2022-05-14T11:03:07Z</time>
      </trkpt>
      <trkpt lat="47.24929" lon="-1.45142">
        <ele>57</ele>
        <time>2022-05-14T11:03:09Z</time>
      </trkpt>
      <trkpt lat="47.24919" lon="-1.45153">
        <ele>58</ele>
        <time>2022-05-14T11:03:11Z</time>
      </trkpt>
      <trkpt lat="47.24908" lon="-1.45163">
        <ele>58</ele>
        <time>2022-05-14T11:03:13Z</time>
      </trkpt>
      <trkpt lat="47.24899" lon="-1.45173">
        <ele>58</ele>
        <time>2022-05-14T11:03:15Z</time>
      </trkpt>
      <trkpt lat="47.24891" lon="-1.45185">
        <ele>58</ele>
        <time>2022-05-14T11:03:17Z</time>
      </trkpt>
      <trkpt lat="47.24883" lon="-1.45198">
        <ele>59</ele>
        <time>2022-05-14T11:03:19Z</time>
      </trkpt>
      <trkpt lat="47.24875" lon="-1.45208">
        <ele>59</ele>
        <time>2022-05-14T11:03:21Z</time>
      </trkpt>
      <trkpt lat="47.24867" lon="-1.45221">
        <ele>59</ele>
        <time>2022-05-14T11:03:23Z</time>
      </trkpt>
      <trkpt lat="47.24862" lon="-1.45234">
        <ele>59</ele>
        <time>2022-05-14T11:03:25Z</time>
      </trkpt>
      <trkpt lat="47.24854" lon="-1.45247">
        <ele>60</ele>
        <time>2022-05-14T11:03:27Z</time>
      </trkpt>
      <trkpt lat="47.24846" lon="-1.45261">
        <ele>61</ele>
        <time>2022-05-14T11:03:29Z</time>
      </trkpt>
      <trkpt lat="47.24837" lon="-1.45273">
        <ele>60</ele>
        <time>2022-05-14T11:03:31Z</time>
      </trkpt>
      <trkpt lat="47.24829" lon="-1.45286">
        <ele>61</ele>
        <time>2022-05-14T11:03:33Z</time>
      </trkpt>
      <trkpt lat="47.24822" lon="-1.45298">
        <ele>61</ele>
        <time>2022-05-14T11:03:35Z</time>
      </trkpt>
      <trkpt lat="47.24816" lon="-1.4531">
        <ele>62</ele>
        <time>2022-05-14T11:03:37Z</time>
      </trkpt>
      <trkpt lat="47.24809" lon="-1.45323">
        <ele>63</ele>
        <time>2022-05-14T11:03:39Z</time>
      </trkpt>
      <trkpt lat="47.24802" lon="-1.45336">
        <ele>64</ele>
        <time>2022-05-14T11:03:41Z</time>
      </trkpt>
      <trkpt lat="47.24795" lon="-1.45349">
        <ele>64</ele>
        <time>2022-05-14T11:03:43Z</time>
      </trkpt>
      <trkpt lat="47.24788" lon="-1.45364">
        <ele>64</ele>
        <time>2022-05-14T11:03:45Z</time>
      </trkpt>
      <trkpt lat="47.24782" lon="-1.45382">
        <ele>64</ele>
        <time>2022-05-14T11:03:47Z</time>
      </trkpt>
      <trkpt lat="47.24777" lon="-1.45398">
        <ele>63</ele>
        <time>2022-05-14T11:03:49Z</time>
      </trkpt>
      <trkpt lat="47.24771" lon="-1.45413">
        <ele>63</ele>
        <time>2022-05-14T11:03:51Z</time>
      </trkpt>
      <trkpt lat="47.24766" lon="-1.45428">
        <ele>62</ele>
        <time>2022-05-14T11:03:53Z</time>
      </trkpt>
      <trkpt lat="47.2476" lon="-1.45442">
        <ele>61</ele>
        <time>2022-05-14T11:03:55Z</time>
      </trkpt>
      <trkpt lat="47.24754" lon="-1.45457">
        <ele>60</ele>
        <time>2022-05-14T11:03:57Z</time>
      </trkpt>
      <trkpt lat="47.24749" lon="-1.45472">
        <ele>59</ele>
        <time>2022-05-14T11:03:59Z</time>
      </trkpt>
      <trkpt lat="47.24742" lon="-1.45488">
        <ele>58</ele>
        <time>2022-05-14T11:04:01Z</time>
      </trkpt>
      <trkpt lat="47.24737" lon="-1.45504">
        <ele>58</ele>
        <time>2022-05-14T11:04:03Z</time>
      </trkpt>
      <trkpt lat="47.2473" lon="-1.45519">
        <ele>57</ele>
        <time>2022-05-14T11:04:05Z</time>
      </trkpt>
      <trkpt lat="47.24725" lon="-1.45534">
        <ele>57</ele>
        <time>2022-05-14T11:04:07Z</time>
      </trkpt>
      <trkpt lat="47.24719" lon="-1.45549">
        <ele>56</ele>
        <time>2022-05-14T11:04:09Z</time>
      </trkpt>
      <trkpt lat="47.24714" lon="-1.45565">
        <ele>56</ele>
        <time>2022-05-14T11:04:11Z</time>
      </trkpt>
      <trkpt lat="47.24709" lon="-1.4558">
        <ele>56</ele>
        <time>2022-05-14T11:04:13Z</time>
      </trkpt>
      <trkpt lat="47.24704" lon="-1.45596">
        <ele>56</ele>
        <time>2022-05-14T11:04:15Z</time>
      </trkpt>
      <trkpt lat="47.24699" lon="-1.45611">
        <ele>56</ele>
        <time>2022-05-14T11:04:17Z</time>
      </trkpt>
      <trkpt lat="47.24695" lon="-1.45625">
        <ele>55</ele>
        <time>2022-05-14T11:04:19Z</time>
      </trkpt>
      <trkpt lat="47.2469" lon="-1.4564">
        <ele>56</ele>
        <time>2022-05-14T11:04:21Z</time>
      </trkpt>
      <trkpt lat="47.24684" lon="-1.45655">
        <ele>56</ele>
        <time>2022-05-14T11:04:23Z</time>
      </trkpt>
      <trkpt lat="47.24681" lon="-1.45669">
        <ele>56</ele>
        <time>2022-05-14T11:04:25Z</time>
      </trkpt>
      <trkpt lat="47.24678" lon="-1.45684">
        <ele>56</ele>
        <time>2022-05-14T11:04:27Z</time>
      </trkpt>
      <trkpt lat="47.24676" lon="-1.457">
        <ele>57</ele>
        <time>2022-05-14T11:04:29Z</time>
      </trkpt>
      <trkpt lat="47.24672" lon="-1.45717">
        <ele>58</ele>
        <time>2022-05-14T11:04:31Z</time>
      </trkpt>
      <trkpt lat="47.24667" lon="-1.45734">
        <ele>58</ele>
        <time>2022-05-14T11:04:33Z</time>
      </trkpt>
      <trkpt lat="47.24662" lon="-1.4575">
        <ele>58</ele>
        <time>2022-05-14T11:04:35Z</time>
      </trkpt>
      <trkpt lat="47.24658" lon="-1.45763">
        <ele>58</ele>
        <time>2022-05-14T11:04:37Z</time>
      </trkpt>
      <trkpt lat="47.24653" lon="-1.45779">
        <ele>58</ele>
        <time>2022-05-14T11:04:39Z</time>
      </trkpt>
      <trkpt lat="47.24648" lon="-1.45792">
        <ele>58</ele>
        <time>2022-05-14T11:04:41Z</time>
      </trkpt>
      <trkpt lat="47.24643" lon="-1.45807">
        <ele>58</ele>
        <time>2022-05-14T11:04:43Z</time>
      </trkpt>
      <trkpt lat="47.24637" lon="-1.45822">
        <ele>59</ele>
        <time>2022-05-14T11:04:45Z</time>
      </trkpt>
      <trkpt lat="47.24632" lon="-1.45834">
        <ele>60</ele>
        <time>2022-05-14T11:04:47Z</time>
      </trkpt>
      <trkpt lat="47.24628" lon="-1.45848">
        <ele>62</ele>
        <time>2022-05-14T11:04:49Z</time>
      </trkpt>
      <trkpt lat="47.24624" lon="-1.45864">
        <ele>64</ele>
        <time>2022-05-14T11:04:51Z</time>
      </trkpt>
      <trkpt lat="47.2462" lon="-1.45881">
        <ele>66</ele>
        <time>2022-05-14T11:04:53Z</time>
      </trkpt>
      <trkpt lat="47.2461" lon="-1.45903">
        <ele>67</ele>
        <time>2022-05-14T11:04:56Z</time>
      </trkpt>
      <trkpt lat="47.24603" lon="-1.45928">
        <ele>67</ele>
        <time>2022-05-14T11:04:59Z</time>
      </trkpt>
      <trkpt lat="47.246" lon="-1.45943">
        <ele>67</ele>
        <time>2022-05-14T11:05:01Z</time>
      </trkpt>
      <trkpt lat="47.24595" lon="-1.45956">
        <ele>66</ele>
        <time>2022-05-14T11:05:03Z</time>
      </trkpt>
      <trkpt lat="47.2459" lon="-1.45969">
        <ele>66</ele>
        <time>2022-05-14T11:05:05Z</time>
      </trkpt>
      <trkpt lat="47.24584" lon="-1.45986">
        <ele>68</ele>
        <time>2022-05-14T11:05:07Z</time>
      </trkpt>
      <trkpt lat="47.24576" lon="-1.46004">
        <ele>69</ele>
        <time>2022-05-14T11:05:09Z</time>
      </trkpt>
      <trkpt lat="47.2457" lon="-1.46022">
        <ele>71</ele>
        <time>2022-05-14T11:05:11Z</time>
      </trkpt>
      <trkpt lat="47.24562" lon="-1.46037">
        <ele>71</ele>
        <time>2022-05-14T11:05:13Z</time>
      </trkpt>
      <trkpt lat="47.24553" lon="-1.46052">
        <ele>72</ele>
        <time>2022-05-14T11:05:15Z</time>
      </trkpt>
      <trkpt lat="47.24546" lon="-1.46067">
        <ele>73</ele>
        <time>2022-05-14T11:05:17Z</time>
      </trkpt>
      <trkpt lat="47.24538" lon="-1.46081">
        <ele>72</ele>
        <time>2022-05-14T11:05:19Z</time>
      </trkpt>
      <trkpt lat="47.2453" lon="-1.46095">
        <ele>72</ele>
        <time>2022-05-14T11:05:21Z</time>
      </trkpt>
      <trkpt lat="47.2452" lon="-1.46107">
        <ele>71</ele>
        <time>2022-05-14T11:05:23Z</time>
      </trkpt>
      <trkpt lat="47.24509" lon="-1.46118">
        <ele>71</ele>
        <time>2022-05-14T11:05:25Z</time>
      </trkpt>
      <trkpt lat="47.24499" lon="-1.4613">
        <ele>70</ele>
        <time>2022-05-14T11:05:27Z</time>
      </trkpt>
      <trkpt lat="47.2449" lon="-1.46142">
        <ele>69</ele>
        <time>2022-05-14T11:05:29Z</time>
      </trkpt>
      <trkpt lat="47.24481" lon="-1.46154">
        <ele>69</ele>
        <time>2022-05-14T11:05:31Z</time>
      </trkpt>
      <trkpt lat="47.24472" lon="-1.46165">
        <ele>68</ele>
        <time>2022-05-14T11:05:33Z</time>
      </trkpt>
      <trkpt lat="47.24463" lon="-1.46175">
        <ele>68</ele>
        <time>2022-05-14T11:05:35Z</time>
      </trkpt>
      <trkpt lat="47.24454" lon="-1.46186">
        <ele>67</ele>
        <time>2022-05-14T11:05:37Z</time>
      </trkpt>
      <trkpt lat="47.24445" lon="-1.46198">
        <ele>67</ele>
        <time>2022-05-14T11:05:39Z</time>
      </trkpt>
      <trkpt lat="47.24437" lon="-1.46209">
        <ele>66</ele>
        <time>2022-05-14T11:05:41Z</time>
      </trkpt>
      <trkpt lat="47.24429" lon="-1.46221">
        <ele>66</ele>
        <time>2022-05-14T11:05:43Z</time>
      </trkpt>
      <trkpt lat="47.24421" lon="-1.46233">
        <ele>66</ele>
        <time>2022-05-14T11:05:45Z</time>
      </trkpt>
      <trkpt lat="47.24413" lon="-1.46245">
        <ele>67</ele>
        <time>2022-05-14T11:05:47Z</time>
      </trkpt>
      <trkpt lat="47.24404" lon="-1.46256">
        <ele>67</ele>
        <time>2022-05-14T11:05:49Z</time>
      </trkpt>
      <trkpt lat="47.24396" lon="-1.46268">
        <ele>67</ele>
        <time>2022-05-14T11:05:51Z</time>
      </trkpt>
      <trkpt lat="47.2439" lon="-1.46281">
        <ele>68</ele>
        <time>2022-05-14T11:05:53Z</time>
      </trkpt>
      <trkpt lat="47.24383" lon="-1.46294">
        <ele>70</ele>
        <time>2022-05-14T11:05:55Z</time>
      </trkpt>
      <trkpt lat="47.24375" lon="-1.46306">
        <ele>71</ele>
        <time>2022-05-14T11:05:57Z</time>
      </trkpt>
      <trkpt lat="47.24367" lon="-1.46318">
        <ele>71</ele>
        <time>2022-05-14T11:05:59Z</time>
      </trkpt>
      <trkpt lat="47.24358" lon="-1.4633">
        <ele>71</ele>
        <time>2022-05-14T11:06:01Z</time>
      </trkpt>
      <trkpt lat="47.24349" lon="-1.46344">
        <ele>70</ele>
        <time>2022-05-14T11:06:03Z</time>
      </trkpt>
      <trkpt lat="47.2434" lon="-1.46358">
        <ele>70</ele>
        <time>2022-05-14T11:06:05Z</time>
      </trkpt>
      <trkpt lat="47.24332" lon="-1.46371">
        <ele>69</ele>
        <time>2022-05-14T11:06:07Z</time>
      </trkpt>
      <trkpt lat="47.24324" lon="-1.46384">
        <ele>68</ele>
        <time>2022-05-14T11:06:09Z</time>
      </trkpt>
      <trkpt lat="47.24315" lon="-1.46397">
        <ele>67</ele>
        <time>2022-05-14T11:06:11Z</time>
      </trkpt>
      <trkpt lat="47.24307" lon="-1.46409">
        <ele>67</ele>
        <time>2022-05-14T11:06:13Z</time>
      </trkpt>
      <trkpt lat="47.24299" lon="-1.46421">
        <ele>67</ele>
        <time>2022-05-14T11:06:15Z</time>
      </trkpt>
      <trkpt lat="47.24291" lon="-1.46435">
        <ele>67</ele>
        <time>2022-05-14T11:06:17Z</time>
      </trkpt>
      <trkpt lat="47.24282" lon="-1.46448">
        <ele>66</ele>
        <time>2022-05-14T11:06:19Z</time>
      </trkpt>
      <trkpt lat="47.24273" lon="-1.4646">
        <ele>66</ele>
        <time>2022-05-14T11:06:21Z</time>
      </trkpt>
      <trkpt lat="47.24264" lon="-1.46471">
        <ele>65</ele>
        <time>2022-05-14T11:06:23Z</time>
      </trkpt>
      <trkpt lat="47.24255" lon="-1.46483">
        <ele>64</ele>
        <time>2022-05-14T11:06:25Z</time>
      </trkpt>
      <trkpt lat="47.24245" lon="-1.46494">
        <ele>63</ele>
        <time>2022-05-14T11:06:27Z</time>
      </trkpt>
      <trkpt lat="47.24235" lon="-1.46505">
        <ele>63</ele>
        <time>2022-05-14T11:06:29Z</time>
      </trkpt>
      <trkpt lat="47.24226" lon="-1.46518">
        <ele>63</ele>
        <time>2022-05-14T11:06:31Z</time>
      </trkpt>
      <trkpt lat="47.24216" lon="-1.46528">
        <ele>63</ele>
        <time>2022-05-14T11:06:33Z</time>
      </trkpt>
      <trkpt lat="47.24207" lon="-1.4654">
        <ele>62</ele>
        <time>2022-05-14T11:06:35Z</time>
      </trkpt>
      <trkpt lat="47.24197" lon="-1.46552">
        <ele>61</ele>
        <time>2022-05-14T11:06:37Z</time>
      </trkpt>
      <trkpt lat="47.24189" lon="-1.46563">
        <ele>61</ele>
        <time>2022-05-14T11:06:39Z</time>
      </trkpt>
      <trkpt lat="47.2418" lon="-1.46574">
        <ele>60</ele>
        <time>2022-05-14T11:06:41Z</time>
      </trkpt>
      <trkpt lat="47.24171" lon="-1.46587">
        <ele>60</ele>
        <time>2022-05-14T11:06:43Z</time>
      </trkpt>
      <trkpt lat="47.24162" lon="-1.46598">
        <ele>60</ele>
        <time>2022-05-14T11:06:45Z</time>
      </trkpt>
      <trkpt lat="47.24153" lon="-1.46609">
        <ele>59</ele>
        <time>2022-05-14T11:06:47Z</time>
      </trkpt>
      <trkpt lat="47.24145" lon="-1.4662">
        <ele>59</ele>
        <time>2022-05-14T11:06:49Z</time>
      </trkpt>
      <trkpt lat="47.24137" lon="-1.46631">
        <ele>60</ele>
        <time>2022-05-14T11:06:51Z</time>
      </trkpt>
      <trkpt lat="47.24129" lon="-1.46643">
        <ele>59</ele>
        <time>2022-05-14T11:06:53Z</time>
      </trkpt>
      <trkpt lat="47.2412" lon="-1.46655">
        <ele>60</ele>
        <time>2022-05-14T11:06:55Z</time>
      </trkpt>
      <trkpt lat="47.24112" lon="-1.46666">
        <ele>60</ele>
        <time>2022-05-14T11:06:57Z</time>
      </trkpt>
      <trkpt lat="47.24104" lon="-1.46678">
        <ele>60</ele>
        <time>2022-05-14T11:06:59Z</time>
      </trkpt>
      <trkpt lat="47.24097" lon="-1.4669">
        <ele>60</ele>
        <time>2022-05-14T11:07:01Z</time>
      </trkpt>
      <trkpt lat="47.24089" lon="-1.46703">
        <ele>60</ele>
        <time>2022-05-14T11:07:03Z</time>
      </trkpt>
      <trkpt lat="47.24085" lon="-1.46717">
        <ele>61</ele>
        <time>2022-05-14T11:07:05Z</time>
      </trkpt>
      <trkpt lat="47.24078" lon="-1.46731">
        <ele>60</ele>
        <time>2022-05-14T11:07:07Z</time>
      </trkpt>
      <trkpt lat="47.24068" lon="-1.4674">
        <ele>59</ele>
        <time>2022-05-14T11:07:09Z</time>
      </trkpt>
      <trkpt lat="47.24057" lon="-1.46748">
        <ele>58</ele>
        <time>2022-05-14T11:07:11Z</time>
      </trkpt>
      <trkpt lat="47.24046" lon="-1.46757">
        <ele>58</ele>
        <time>2022-05-14T11:07:13Z</time>
      </trkpt>
      <trkpt lat="47.24037" lon="-1.46767">
        <ele>58</ele>
        <time>2022-05-14T11:07:15Z</time>
      </trkpt>
      <trkpt lat="47.24027" lon="-1.46777">
        <ele>57</ele>
        <time>2022-05-14T11:07:17Z</time>
      </trkpt>
      <trkpt lat="47.24017" lon="-1.46787">
        <ele>57</ele>
        <time>2022-05-14T11:07:19Z</time>
      </trkpt>
      <trkpt lat="47.24007" lon="-1.46798">
        <ele>57</ele>
        <time>2022-05-14T11:07:21Z</time>
      </trkpt>
      <trkpt lat="47.23997" lon="-1.46809">
        <ele>57</ele>
        <time>2022-05-14T11:07:23Z</time>
      </trkpt>
      <trkpt lat="47.23987" lon="-1.4682">
        <ele>57</ele>
        <time>2022-05-14T11:07:25Z</time>
      </trkpt>
      <trkpt lat="47.23977" lon="-1.46831">
        <ele>57</ele>
        <time>2022-05-14T11:07:27Z</time>
      </trkpt>
      <trkpt lat="47.23967" lon="-1.46842">
        <ele>57</ele>
        <time>2022-05-14T11:07:29Z</time>
      </trkpt>
      <trkpt lat="47.23956" lon="-1.46852">
        <ele>57</ele>
        <time>2022-05-14T11:07:31Z</time>
      </trkpt>
      <trkpt lat="47.23946" lon="-1.4686">
        <ele>57</ele>
        <time>2022-05-14T11:07:33Z</time>
      </trkpt>
      <trkpt lat="47.23935" lon="-1.46868">
        <ele>58</ele>
        <time>2022-05-14T11:07:35Z</time>
      </trkpt>
      <trkpt lat="47.23925" lon="-1.46878">
        <ele>58</ele>
        <time>2022-05-14T11:07:37Z</time>
      </trkpt>
      <trkpt lat="47.23915" lon="-1.46889">
        <ele>58</ele>
        <time>2022-05-14T11:07:39Z</time>
      </trkpt>
      <trkpt lat="47.23906" lon="-1.46901">
        <ele>58</ele>
        <time>2022-05-14T11:07:41Z</time>
      </trkpt>
      <trkpt lat="47.23897" lon="-1.46913">
        <ele>58</ele>
        <time>2022-05-14T11:07:43Z</time>
      </trkpt>
      <trkpt lat="47.23888" lon="-1.46925">
        <ele>58</ele>
        <time>2022-05-14T11:07:45Z</time>
      </trkpt>
      <trkpt lat="47.23879" lon="-1.46937">
        <ele>58</ele>
        <time>2022-05-14T11:07:47Z</time>
      </trkpt>
      <trkpt lat="47.23869" lon="-1.4695">
        <ele>58</ele>
        <time>2022-05-14T11:07:49Z</time>
      </trkpt>
      <trkpt lat="47.2386" lon="-1.46962">
        <ele>58</ele>
        <time>2022-05-14T11:07:51Z</time>
      </trkpt>
      <trkpt lat="47.2385" lon="-1.46975">
        <ele>58</ele>
        <time>2022-05-14T11:07:53Z</time>
      </trkpt>
      <trkpt lat="47.23841" lon="-1.46988">
        <ele>58</ele>
        <time>2022-05-14T11:07:55Z</time>
      </trkpt>
      <trkpt lat="47.23833" lon="-1.47002">
        <ele>57</ele>
        <time>2022-05-14T11:07:57Z</time>
      </trkpt>
      <trkpt lat="47.23823" lon="-1.47016">
        <ele>57</ele>
        <time>2022-05-14T11:07:59Z</time>
      </trkpt>
      <trkpt lat="47.23814" lon="-1.47029">
        <ele>57</ele>
        <time>2022-05-14T11:08:01Z</time>
      </trkpt>
      <trkpt lat="47.23805" lon="-1.47043">
        <ele>57</ele>
        <time>2022-05-14T11:08:03Z</time>
      </trkpt>
      <trkpt lat="47.23796" lon="-1.47056">
        <ele>57</ele>
        <time>2022-05-14T11:08:05Z</time>
      </trkpt>
      <trkpt lat="47.23786" lon="-1.47069">
        <ele>57</ele>
        <time>2022-05-14T11:08:07Z</time>
      </trkpt>
      <trkpt lat="47.23777" lon="-1.47082">
        <ele>57</ele>
        <time>2022-05-14T11:08:09Z</time>
      </trkpt>
      <trkpt lat="47.23768" lon="-1.47095">
        <ele>56</ele>
        <time>2022-05-14T11:08:11Z</time>
      </trkpt>
      <trkpt lat="47.23758" lon="-1.47108">
        <ele>56</ele>
        <time>2022-05-14T11:08:13Z</time>
      </trkpt>
      <trkpt lat="47.23749" lon="-1.47121">
        <ele>56</ele>
        <time>2022-05-14T11:08:15Z</time>
      </trkpt>
      <trkpt lat="47.23739" lon="-1.47132">
        <ele>56</ele>
        <time>2022-05-14T11:08:17Z</time>
      </trkpt>
      <trkpt lat="47.23728" lon="-1.47143">
        <ele>56</ele>
        <time>2022-05-14T11:08:19Z</time>
      </trkpt>
      <trkpt lat="47.23719" lon="-1.47156">
        <ele>56</ele>
        <time>2022-05-14T11:08:21Z</time>
      </trkpt>
      <trkpt lat="47.23709" lon="-1.47169">
        <ele>56</ele>
        <time>2022-05-14T11:08:23Z</time>
      </trkpt>
      <trkpt lat="47.237" lon="-1.47182">
        <ele>56</ele>
        <time>2022-05-14T11:08:25Z</time>
      </trkpt>
      <trkpt lat="47.2369" lon="-1.47196">
        <ele>57</ele>
        <time>2022-05-14T11:08:27Z</time>
      </trkpt>
      <trkpt lat="47.23682" lon="-1.47211">
        <ele>57</ele>
        <time>2022-05-14T11:08:29Z</time>
      </trkpt>
      <trkpt lat="47.23673" lon="-1.47225">
        <ele>57</ele>
        <time>2022-05-14T11:08:31Z</time>
      </trkpt>
      <trkpt lat="47.23662" lon="-1.47236">
        <ele>57</ele>
        <time>2022-05-14T11:08:33Z</time>
      </trkpt>
      <trkpt lat="47.23652" lon="-1.47247">
        <ele>57</ele>
        <time>2022-05-14T11:08:35Z</time>
      </trkpt>
      <trkpt lat="47.23642" lon="-1.47257">
        <ele>57</ele>
        <time>2022-05-14T11:08:37Z</time>
      </trkpt>
      <trkpt lat="47.23632" lon="-1.47269">
        <ele>58</ele>
        <time>2022-05-14T11:08:39Z</time>
      </trkpt>
      <trkpt lat="47.23622" lon="-1.47281">
        <ele>57</ele>
        <time>2022-05-14T11:08:41Z</time>
      </trkpt>
      <trkpt lat="47.23611" lon="-1.47292">
        <ele>58</ele>
        <time>2022-05-14T11:08:43Z</time>
      </trkpt>
      <trkpt lat="47.23601" lon="-1.47303">
        <ele>58</ele>
        <time>2022-05-14T11:08:45Z</time>
      </trkpt>
      <trkpt lat="47.2359" lon="-1.47314">
        <ele>58</ele>
        <time>2022-05-14T11:08:47Z</time>
      </trkpt>
      <trkpt lat="47.23579" lon="-1.47323">
        <ele>58</ele>
        <time>2022-05-14T11:08:49Z</time>
      </trkpt>
      <trkpt lat="47.23567" lon="-1.47333">
        <ele>57</ele>
        <time>2022-05-14T11:08:51Z</time>
      </trkpt>
      <trkpt lat="47.23556" lon="-1.47342">
        <ele>57</ele>
        <time>2022-05-14T11:08:53Z</time>
      </trkpt>
      <trkpt lat="47.23545" lon="-1.47351">
        <ele>57</ele>
        <time>2022-05-14T11:08:55Z</time>
      </trkpt>
      <trkpt lat="47.23535" lon="-1.4736">
        <ele>57</ele>
        <time>2022-05-14T11:08:57Z</time>
      </trkpt>
      <trkpt lat="47.23525" lon="-1.4737">
        <ele>57</ele>
        <time>2022-05-14T11:08:59Z</time>
      </trkpt>
      <trkpt lat="47.23514" lon="-1.47378">
        <ele>57</ele>
        <time>2022-05-14T11:09:01Z</time>
      </trkpt>
      <trkpt lat="47.23503" lon="-1.47386">
        <ele>57</ele>
        <time>2022-05-14T11:09:03Z</time>
      </trkpt>
      <trkpt lat="47.23492" lon="-1.47394">
        <ele>57</ele>
        <time>2022-05-14T11:09:05Z</time>
      </trkpt>
      <trkpt lat="47.2348" lon="-1.474">
        <ele>57</ele>
        <time>2022-05-14T11:09:07Z</time>
      </trkpt>
      <trkpt lat="47.23468" lon="-1.47406">
        <ele>57</ele>
        <time>2022-05-14T11:09:09Z</time>
      </trkpt>
      <trkpt lat="47.23457" lon="-1.47412">
        <ele>57</ele>
        <time>2022-05-14T11:09:11Z</time>
      </trkpt>
      <trkpt lat="47.23445" lon="-1.47418">
        <ele>57</ele>
        <time>2022-05-14T11:09:13Z</time>
      </trkpt>
      <trkpt lat="47.23435" lon="-1.47424">
        <ele>58</ele>
        <time>2022-05-14T11:09:15Z</time>
      </trkpt>
      <trkpt lat="47.23424" lon="-1.47429">
        <ele>58</ele>
        <time>2022-05-14T11:09:17Z</time>
      </trkpt>
      <trkpt lat="47.23413" lon="-1.47434">
        <ele>57</ele>
        <time>2022-05-14T11:09:19Z</time>
      </trkpt>
      <trkpt lat="47.23402" lon="-1.47443">
        <ele>57</ele>
        <time>2022-05-14T11:09:21Z</time>
      </trkpt>
      <trkpt lat="47.23391" lon="-1.4745">
        <ele>57</ele>
        <time>2022-05-14T11:09:23Z</time>
      </trkpt>
      <trkpt lat="47.23379" lon="-1.47456">
        <ele>57</ele>
        <time>2022-05-14T11:09:25Z</time>
      </trkpt>
      <trkpt lat="47.23367" lon="-1.47462">
        <ele>57</ele>
        <time>2022-05-14T11:09:27Z</time>
      </trkpt>
      <trkpt lat="47.23355" lon="-1.47466">
        <ele>57</ele>
        <time>2022-05-14T11:09:29Z</time>
      </trkpt>
      <trkpt lat="47.23343" lon="-1.47472">
        <ele>57</ele>
        <time>2022-05-14T11:09:31Z</time>
      </trkpt>
      <trkpt lat="47.23332" lon="-1.47478">
        <ele>57</ele>
        <time>2022-05-14T11:09:33Z</time>
      </trkpt>
      <trkpt lat="47.23319" lon="-1.4749">
        <ele>58</ele>
        <time>2022-05-14T11:09:36Z</time>
      </trkpt>
      <trkpt lat="47.23307" lon="-1.475">
        <ele>58</ele>
        <time>2022-05-14T11:09:38Z</time>
      </trkpt>
      <trkpt lat="47.23296" lon="-1.47507">
        <ele>58</ele>
        <time>2022-05-14T11:09:40Z</time>
      </trkpt>
      <trkpt lat="47.23284" lon="-1.47514">
        <ele>59</ele>
        <time>2022-05-14T11:09:42Z</time>
      </trkpt>
      <trkpt lat="47.23273" lon="-1.47521">
        <ele>59</ele>
        <time>2022-05-14T11:09:44Z</time>
      </trkpt>
      <trkpt lat="47.23263" lon="-1.47532">
        <ele>59</ele>
        <time>2022-05-14T11:09:46Z</time>
      </trkpt>
      <trkpt lat="47.23254" lon="-1.47545">
        <ele>59</ele>
        <time>2022-05-14T11:09:48Z</time>
      </trkpt>
      <trkpt lat="47.23246" lon="-1.47559">
        <ele>58</ele>
        <time>2022-05-14T11:09:50Z</time>
      </trkpt>
      <trkpt lat="47.23239" lon="-1.47574">
        <ele>58</ele>
        <time>2022-05-14T11:09:52Z</time>
      </trkpt>
      <trkpt lat="47.2323" lon="-1.47585">
        <ele>58</ele>
        <time>2022-05-14T11:09:54Z</time>
      </trkpt>
      <trkpt lat="47.23223" lon="-1.47596">
        <ele>58</ele>
        <time>2022-05-14T11:09:56Z</time>
      </trkpt>
      <trkpt lat="47.23216" lon="-1.47611">
        <ele>59</ele>
        <time>2022-05-14T11:09:58Z</time>
      </trkpt>
      <trkpt lat="47.2321" lon="-1.47628">
        <ele>60</ele>
        <time>2022-05-14T11:10:00Z</time>
      </trkpt>
      <trkpt lat="47.23205" lon="-1.47645">
        <ele>61</ele>
        <time>2022-05-14T11:10:02Z</time>
      </trkpt>
      <trkpt lat="47.23201" lon="-1.4766">
        <ele>61</ele>
        <time>2022-05-14T11:10:04Z</time>
      </trkpt>
      <trkpt lat="47.23195" lon="-1.47675">
        <ele>61</ele>
        <time>2022-05-14T11:10:06Z</time>
      </trkpt>
      <trkpt lat="47.23187" lon="-1.47692">
        <ele>61</ele>
        <time>2022-05-14T11:10:08Z</time>
      </trkpt>
      <trkpt lat="47.23179" lon="-1.47708">
        <ele>62</ele>
        <time>2022-05-14T11:10:10Z</time>
      </trkpt>
      <trkpt lat="47.23173" lon="-1.47723">
        <ele>62</ele>
        <time>2022-05-14T11:10:12Z</time>
      </trkpt>
      <trkpt lat="47.23167" lon="-1.47739">
        <ele>63</ele>
        <time>2022-05-14T11:10:14Z</time>
      </trkpt>
      <trkpt lat="47.23159" lon="-1.47755">
        <ele>62</ele>
        <time>2022-05-14T11:10:16Z</time>
      </trkpt>
      <trkpt lat="47.23152" lon="-1.47772">
        <ele>61</ele>
        <time>2022-05-14T11:10:18Z</time>
      </trkpt>
      <trkpt lat="47.23147" lon="-1.47786">
        <ele>61</ele>
        <time>2022-05-14T11:10:20Z</time>
      </trkpt>
      <trkpt lat="47.23142" lon="-1.47802">
        <ele>60</ele>
        <time>2022-05-14T11:10:22Z</time>
      </trkpt>
      <trkpt lat="47.23136" lon="-1.47817">
        <ele>61</ele>
        <time>2022-05-14T11:10:24Z</time>
      </trkpt>
      <trkpt lat="47.23128" lon="-1.47832">
        <ele>61</ele>
        <time>2022-05-14T11:10:26Z</time>
      </trkpt>
      <trkpt lat="47.2312" lon="-1.47848">
        <ele>61</ele>
        <time>2022-05-14T11:10:28Z</time>
      </trkpt>
      <trkpt lat="47.23113" lon="-1.47862">
        <ele>62</ele>
        <time>2022-05-14T11:10:30Z</time>
      </trkpt>
      <trkpt lat="47.23103" lon="-1.47877">
        <ele>62</ele>
        <time>2022-05-14T11:10:32Z</time>
      </trkpt>
      <trkpt lat="47.23094" lon="-1.47892">
        <ele>61</ele>
        <time>2022-05-14T11:10:34Z</time>
      </trkpt>
      <trkpt lat="47.23084" lon="-1.47906">
        <ele>61</ele>
        <time>2022-05-14T11:10:36Z</time>
      </trkpt>
      <trkpt lat="47.23075" lon="-1.47918">
        <ele>61</ele>
        <time>2022-05-14T11:10:38Z</time>
      </trkpt>
      <trkpt lat="47.23066" lon="-1.47929">
        <ele>61</ele>
        <time>2022-05-14T11:10:40Z</time>
      </trkpt>
      <trkpt lat="47.23056" lon="-1.4794">
        <ele>60</ele>
        <time>2022-05-14T11:10:42Z</time>
      </trkpt>
      <trkpt lat="47.23046" lon="-1.47953">
        <ele>60</ele>
        <time>2022-05-14T11:10:44Z</time>
      </trkpt>
      <trkpt lat="47.23037" lon="-1.47968">
        <ele>60</ele>
        <time>2022-05-14T11:10:46Z</time>
      </trkpt>
      <trkpt lat="47.23028" lon="-1.47981">
        <ele>60</ele>
        <time>2022-05-14T11:10:48Z</time>
      </trkpt>
      <trkpt lat="47.23018" lon="-1.47994">
        <ele>59</ele>
        <time>2022-05-14T11:10:50Z</time>
      </trkpt>
      <trkpt lat="47.2301" lon="-1.48008">
        <ele>59</ele>
        <time>2022-05-14T11:10:52Z</time>
      </trkpt>
      <trkpt lat="47.23002" lon="-1.48022">
        <ele>60</ele>
        <time>2022-05-14T11:10:54Z</time>
      </trkpt>
      <trkpt lat="47.22994" lon="-1.48037">
        <ele>60</ele>
        <time>2022-05-14T11:10:56Z</time>
      </trkpt>
      <trkpt lat="47.22985" lon="-1.48051">
        <ele>60</ele>
        <time>2022-05-14T11:10:58Z</time>
      </trkpt>
      <trkpt lat="47.22977" lon="-1.48065">
        <ele>59</ele>
        <time>2022-05-14T11:11:00Z</time>
      </trkpt>
      <trkpt lat="47.22969" lon="-1.48078">
        <ele>59</ele>
        <time>2022-05-14T11:11:02Z</time>
      </trkpt>
      <trkpt lat="47.22961" lon="-1.48089">
        <ele>59</ele>
        <time>2022-05-14T11:11:04Z</time>
      </trkpt>
      <trkpt lat="47.22954" lon="-1.48099">
        <ele>59</ele>
        <time>2022-05-14T11:11:06Z</time>
      </trkpt>
      <trkpt lat="47.22943" lon="-1.48108">
        <ele>59</ele>
        <time>2022-05-14T11:11:09Z</time>
      </trkpt>
      <trkpt lat="47.22929" lon="-1.48111">
        <ele>58</ele>
        <time>2022-05-14T11:11:11Z</time>
      </trkpt>
      <trkpt lat="47.22915" lon="-1.48117">
        <ele>57</ele>
        <time>2022-05-14T11:11:13Z</time>
      </trkpt>
      <trkpt lat="47.22904" lon="-1.48126">
        <ele>57</ele>
        <time>2022-05-14T11:11:15Z</time>
      </trkpt>
      <trkpt lat="47.22894" lon="-1.48138">
        <ele>57</ele>
        <time>2022-05-14T11:11:17Z</time>
      </trkpt>
      <trkpt lat="47.22885" lon="-1.48152">
        <ele>56</ele>
        <time>2022-05-14T11:11:19Z</time>
      </trkpt>
      <trkpt lat="47.22877" lon="-1.48165">
        <ele>56</ele>
        <time>2022-05-14T11:11:21Z</time>
      </trkpt>
      <trkpt lat="47.22868" lon="-1.48178">
        <ele>57</ele>
        <time>2022-05-14T11:11:23Z</time>
      </trkpt>
      <trkpt lat="47.2286" lon="-1.48191">
        <ele>57</ele>
        <time>2022-05-14T11:11:25Z</time>
      </trkpt>
      <trkpt lat="47.22852" lon="-1.48205">
        <ele>58</ele>
        <time>2022-05-14T11:11:27Z</time>
      </trkpt>
      <trkpt lat="47.22843" lon="-1.48219">
        <ele>58</ele>
        <time>2022-05-14T11:11:29Z</time>
      </trkpt>
      <trkpt lat="47.22835" lon="-1.48233">
        <ele>58</ele>
        <time>2022-05-14T11:11:31Z</time>
      </trkpt>
      <trkpt lat="47.22826" lon="-1.48245">
        <ele>58</ele>
        <time>2022-05-14T11:11:33Z</time>
      </trkpt>
      <trkpt lat="47.22816" lon="-1.48256">
        <ele>58</ele>
        <time>2022-05-14T11:11:35Z</time>
      </trkpt>
      <trkpt lat="47.22807" lon="-1.48267">
        <ele>58</ele>
        <time>2022-05-14T11:11:37Z</time>
      </trkpt>
      <trkpt lat="47.22799" lon="-1.48281">
        <ele>58</ele>
        <time>2022-05-14T11:11:39Z</time>
      </trkpt>
      <trkpt lat="47.2279" lon="-1.48295">
        <ele>58</ele>
        <time>2022-05-14T11:11:41Z</time>
      </trkpt>
      <trkpt lat="47.22782" lon="-1.4831">
        <ele>59</ele>
        <time>2022-05-14T11:11:43Z</time>
      </trkpt>
      <trkpt lat="47.22773" lon="-1.48324">
        <ele>59</ele>
        <time>2022-05-14T11:11:45Z</time>
      </trkpt>
      <trkpt lat="47.22764" lon="-1.48339">
        <ele>59</ele>
        <time>2022-05-14T11:11:47Z</time>
      </trkpt>
      <trkpt lat="47.22754" lon="-1.48353">
        <ele>59</ele>
        <time>2022-05-14T11:11:49Z</time>
      </trkpt>
      <trkpt lat="47.22745" lon="-1.48365">
        <ele>59</ele>
        <time>2022-05-14T11:11:51Z</time>
      </trkpt>
      <trkpt lat="47.22737" lon="-1.48378">
        <ele>59</ele>
        <time>2022-05-14T11:11:53Z</time>
      </trkpt>
      <trkpt lat="47.22727" lon="-1.4839">
        <ele>59</ele>
        <time>2022-05-14T11:11:55Z</time>
      </trkpt>
      <trkpt lat="47.22718" lon="-1.48402">
        <ele>59</ele>
        <time>2022-05-14T11:11:57Z</time>
      </trkpt>
      <trkpt lat="47.22709" lon="-1.48417">
        <ele>59</ele>
        <time>2022-05-14T11:11:59Z</time>
      </trkpt>
      <trkpt lat="47.22703" lon="-1.48434">
        <ele>60</ele>
        <time>2022-05-14T11:12:01Z</time>
      </trkpt>
      <trkpt lat="47.22698" lon="-1.48452">
        <ele>60</ele>
        <time>2022-05-14T11:12:03Z</time>
      </trkpt>
      <trkpt lat="47.22692" lon="-1.48469">
        <ele>60</ele>
        <time>2022-05-14T11:12:05Z</time>
      </trkpt>
      <trkpt lat="47.22685" lon="-1.48484">
        <ele>61</ele>
        <time>2022-05-14T11:12:07Z</time>
      </trkpt>
      <trkpt lat="47.22678" lon="-1.48497">
        <ele>62</ele>
        <time>2022-05-14T11:12:09Z</time>
      </trkpt>
      <trkpt lat="47.2267" lon="-1.4851">
        <ele>62</ele>
        <time>2022-05-14T11:12:11Z</time>
      </trkpt>
      <trkpt lat="47.22664" lon="-1.48528">
        <ele>62</ele>
        <time>2022-05-14T11:12:13Z</time>
      </trkpt>
      <trkpt lat="47.22659" lon="-1.48548">
        <ele>61</ele>
        <time>2022-05-14T11:12:15Z</time>
      </trkpt>
      <trkpt lat="47.22653" lon="-1.48567">
        <ele>60</ele>
        <time>2022-05-14T11:12:17Z</time>
      </trkpt>
      <trkpt lat="47.22646" lon="-1.48583">
        <ele>59</ele>
        <time>2022-05-14T11:12:19Z</time>
      </trkpt>
      <trkpt lat="47.22638" lon="-1.48597">
        <ele>60</ele>
        <time>2022-05-14T11:12:22Z</time>
      </trkpt>
      <trkpt lat="47.22632" lon="-1.48609">
        <ele>60</ele>
        <time>2022-05-14T11:12:24Z</time>
      </trkpt>
      <trkpt lat="47.22623" lon="-1.48624">
        <ele>60</ele>
        <time>2022-05-14T11:12:26Z</time>
      </trkpt>
      <trkpt lat="47.22616" lon="-1.48637">
        <ele>59</ele>
        <time>2022-05-14T11:12:28Z</time>
      </trkpt>
      <trkpt lat="47.22611" lon="-1.48653">
        <ele>61</ele>
        <time>2022-05-14T11:12:30Z</time>
      </trkpt>
      <trkpt lat="47.22607" lon="-1.48676">
        <ele>64</ele>
        <time>2022-05-14T11:12:32Z</time>
      </trkpt>
      <trkpt lat="47.22602" lon="-1.48697">
        <ele>64</ele>
        <time>2022-05-14T11:12:34Z</time>
      </trkpt>
      <trkpt lat="47.22597" lon="-1.48715">
        <ele>64</ele>
        <time>2022-05-14T11:12:36Z</time>
      </trkpt>
      <trkpt lat="47.22593" lon="-1.48733">
        <ele>64</ele>
        <time>2022-05-14T11:12:38Z</time>
      </trkpt>
      <trkpt lat="47.22589" lon="-1.48752">
        <ele>64</ele>
        <time>2022-05-14T11:12:40Z</time>
      </trkpt>
      <trkpt lat="47.22584" lon="-1.48767">
        <ele>64</ele>
        <time>2022-05-14T11:12:42Z</time>
      </trkpt>
      <trkpt lat="47.22578" lon="-1.48783">
        <ele>65</ele>
        <time>2022-05-14T11:12:44Z</time>
      </trkpt>
      <trkpt lat="47.22572" lon="-1.488">
        <ele>66</ele>
        <time>2022-05-14T11:12:46Z</time>
      </trkpt>
      <trkpt lat="47.22567" lon="-1.48814">
        <ele>66</ele>
        <time>2022-05-14T11:12:48Z</time>
      </trkpt>
      <trkpt lat="47.22563" lon="-1.4883">
        <ele>66</ele>
        <time>2022-05-14T11:12:50Z</time>
      </trkpt>
      <trkpt lat="47.22559" lon="-1.48845">
        <ele>66</ele>
        <time>2022-05-14T11:12:52Z</time>
      </trkpt>
      <trkpt lat="47.22555" lon="-1.4886">
        <ele>67</ele>
        <time>2022-05-14T11:12:54Z</time>
      </trkpt>
      <trkpt lat="47.22551" lon="-1.48872">
        <ele>68</ele>
        <time>2022-05-14T11:12:56Z</time>
      </trkpt>
      <trkpt lat="47.22546" lon="-1.4889">
        <ele>70</ele>
        <time>2022-05-14T11:12:58Z</time>
      </trkpt>
      <trkpt lat="47.2254" lon="-1.4891">
        <ele>74</ele>
        <time>2022-05-14T11:13:00Z</time>
      </trkpt>
      <trkpt lat="47.22535" lon="-1.4893">
        <ele>76</ele>
        <time>2022-05-14T11:13:02Z</time>
      </trkpt>
      <trkpt lat="47.22529" lon="-1.48947">
        <ele>76</ele>
        <time>2022-05-14T11:13:04Z</time>
      </trkpt>
      <trkpt lat="47.22522" lon="-1.48965">
        <ele>75</ele>
        <time>2022-05-14T11:13:06Z</time>
      </trkpt>
      <trkpt lat="47.22516" lon="-1.48985">
        <ele>74</ele>
        <time>2022-05-14T11:13:08Z</time>
      </trkpt>
      <trkpt lat="47.22511" lon="-1.49005">
        <ele>73</ele>
        <time>2022-05-14T11:13:10Z</time>
      </trkpt>
      <trkpt lat="47.22506" lon="-1.49026">
        <ele>73</ele>
        <time>2022-05-14T11:13:12Z</time>
      </trkpt>
      <trkpt lat="47.225" lon="-1.49041">
        <ele>72</ele>
        <time>2022-05-14T11:13:14Z</time>
      </trkpt>
      <trkpt lat="47.22493" lon="-1.49053">
        <ele>73</ele>
        <time>2022-05-14T11:13:16Z</time>
      </trkpt>
      <trkpt lat="47.22487" lon="-1.49068">
        <ele>72</ele>
        <time>2022-05-14T11:13:18Z</time>
      </trkpt>
      <trkpt lat="47.22484" lon="-1.49084">
        <ele>72</ele>
        <time>2022-05-14T11:13:20Z</time>
      </trkpt>
      <trkpt lat="47.2248" lon="-1.49099">
        <ele>73</ele>
        <time>2022-05-14T11:13:22Z</time>
      </trkpt>
      <trkpt lat="47.22474" lon="-1.49116">
        <ele>73</ele>
        <time>2022-05-14T11:13:24Z</time>
      </trkpt>
      <trkpt lat="47.22468" lon="-1.49133">
        <ele>72</ele>
        <time>2022-05-14T11:13:26Z</time>
      </trkpt>
      <trkpt lat="47.22463" lon="-1.49154">
        <ele>72</ele>
        <time>2022-05-14T11:13:28Z</time>
      </trkpt>
      <trkpt lat="47.22457" lon="-1.49174">
        <ele>71</ele>
        <time>2022-05-14T11:13:30Z</time>
      </trkpt>
      <trkpt lat="47.22451" lon="-1.49193">
        <ele>71</ele>
        <time>2022-05-14T11:13:32Z</time>
      </trkpt>
      <trkpt lat="47.22446" lon="-1.4921">
        <ele>71</ele>
        <time>2022-05-14T11:13:34Z</time>
      </trkpt>
      <trkpt lat="47.2244" lon="-1.49226">
        <ele>71</ele>
        <time>2022-05-14T11:13:36Z</time>
      </trkpt>
      <trkpt lat="47.22433" lon="-1.49244">
        <ele>70</ele>
        <time>2022-05-14T11:13:38Z</time>
      </trkpt>
      <trkpt lat="47.22426" lon="-1.4926">
        <ele>70</ele>
        <time>2022-05-14T11:13:40Z</time>
      </trkpt>
      <trkpt lat="47.2242" lon="-1.49277">
        <ele>69</ele>
        <time>2022-05-14T11:13:42Z</time>
      </trkpt>
      <trkpt lat="47.22414" lon="-1.49293">
        <ele>68</ele>
        <time>2022-05-14T11:13:44Z</time>
      </trkpt>
      <trkpt lat="47.22409" lon="-1.4931">
        <ele>68</ele>
        <time>2022-05-14T11:13:46Z</time>
      </trkpt>
      <trkpt lat="47.22402" lon="-1.49328">
        <ele>68</ele>
        <time>2022-05-14T11:13:48Z</time>
      </trkpt>
      <trkpt lat="47.22396" lon="-1.49345">
        <ele>67</ele>
        <time>2022-05-14T11:13:50Z</time>
      </trkpt>
      <trkpt lat="47.2239" lon="-1.49362">
        <ele>66</ele>
        <time>2022-05-14T11:13:52Z</time>
      </trkpt>
      <trkpt lat="47.22384" lon="-1.49377">
        <ele>66</ele>
        <time>2022-05-14T11:13:54Z</time>
      </trkpt>
      <trkpt lat="47.22376" lon="-1.49391">
        <ele>66</ele>
        <time>2022-05-14T11:13:56Z</time>
      </trkpt>
      <trkpt lat="47.22369" lon="-1.49403">
        <ele>66</ele>
        <time>2022-05-14T11:13:58Z</time>
      </trkpt>
      <trkpt lat="47.22363" lon="-1.49418">
        <ele>66</ele>
        <time>2022-05-14T11:14:00Z</time>
      </trkpt>
      <trkpt lat="47.22357" lon="-1.49436">
        <ele>64</ele>
        <time>2022-05-14T11:14:02Z</time>
      </trkpt>
      <trkpt lat="47.22352" lon="-1.49453">
        <ele>65</ele>
        <time>2022-05-14T11:14:04Z</time>
      </trkpt>
      <trkpt lat="47.22347" lon="-1.49469">
        <ele>66</ele>
        <time>2022-05-14T11:14:06Z</time>
      </trkpt>
      <trkpt lat="47.22343" lon="-1.49485">
        <ele>66</ele>
        <time>2022-05-14T11:14:08Z</time>
      </trkpt>
      <trkpt lat="47.22337" lon="-1.49505">
        <ele>66</ele>
        <time>2022-05-14T11:14:10Z</time>
      </trkpt>
      <trkpt lat="47.22332" lon="-1.49523">
        <ele>67</ele>
        <time>2022-05-14T11:14:12Z</time>
      </trkpt>
      <trkpt lat="47.22326" lon="-1.4954">
        <ele>67</ele>
        <time>2022-05-14T11:14:14Z</time>
      </trkpt>
      <trkpt lat="47.2232" lon="-1.49557">
        <ele>67</ele>
        <time>2022-05-14T11:14:16Z</time>
      </trkpt>
      <trkpt lat="47.22313" lon="-1.49573">
        <ele>67</ele>
        <time>2022-05-14T11:14:18Z</time>
      </trkpt>
      <trkpt lat="47.22307" lon="-1.49591">
        <ele>66</ele>
        <time>2022-05-14T11:14:20Z</time>
      </trkpt>
      <trkpt lat="47.22301" lon="-1.49607">
        <ele>66</ele>
        <time>2022-05-14T11:14:22Z</time>
      </trkpt>
      <trkpt lat="47.22296" lon="-1.49624">
        <ele>66</ele>
        <time>2022-05-14T11:14:24Z</time>
      </trkpt>
      <trkpt lat="47.22292" lon="-1.49641">
        <ele>66</ele>
        <time>2022-05-14T11:14:26Z</time>
      </trkpt>
      <trkpt lat="47.22286" lon="-1.4966">
        <ele>66</ele>
        <time>2022-05-14T11:14:28Z</time>
      </trkpt>
      <trkpt lat="47.2228" lon="-1.49678">
        <ele>65</ele>
        <time>2022-05-14T11:14:30Z</time>
      </trkpt>
      <trkpt lat="47.22275" lon="-1.49696">
        <ele>65</ele>
        <time>2022-05-14T11:14:32Z</time>
      </trkpt>
      <trkpt lat="47.22269" lon="-1.49713">
        <ele>64</ele>
        <time>2022-05-14T11:14:34Z</time>
      </trkpt>
      <trkpt lat="47.22263" lon="-1.49731">
        <ele>64</ele>
        <time>2022-05-14T11:14:36Z</time>
      </trkpt>
      <trkpt lat="47.22259" lon="-1.49746">
        <ele>63</ele>
        <time>2022-05-14T11:14:38Z</time>
      </trkpt>
      <trkpt lat="47.22256" lon="-1.49763">
        <ele>63</ele>
        <time>2022-05-14T11:14:40Z</time>
      </trkpt>
      <trkpt lat="47.22254" lon="-1.49779">
        <ele>63</ele>
        <time>2022-05-14T11:14:42Z</time>
      </trkpt>
      <trkpt lat="47.22251" lon="-1.49798">
        <ele>63</ele>
        <time>2022-05-14T11:14:44Z</time>
      </trkpt>
      <trkpt lat="47.22247" lon="-1.49816">
        <ele>63</ele>
        <time>2022-05-14T11:14:46Z</time>
      </trkpt>
      <trkpt lat="47.22244" lon="-1.49834">
        <ele>64</ele>
        <time>2022-05-14T11:14:48Z</time>
      </trkpt>
      <trkpt lat="47.2224" lon="-1.49851">
        <ele>64</ele>
        <time>2022-05-14T11:14:50Z</time>
      </trkpt>
      <trkpt lat="47.22234" lon="-1.49864">
        <ele>65</ele>
        <time>2022-05-14T11:14:52Z</time>
      </trkpt>
      <trkpt lat="47.2223" lon="-1.49877">
        <ele>65</ele>
        <time>2022-05-14T11:14:54Z</time>
      </trkpt>
      <trkpt lat="47.22228" lon="-1.49895">
        <ele>66</ele>
        <time>2022-05-14T11:14:56Z</time>
      </trkpt>
      <trkpt lat="47.22223" lon="-1.49911">
        <ele>67</ele>
        <time>2022-05-14T11:14:58Z</time>
      </trkpt>
      <trkpt lat="47.22218" lon="-1.49926">
        <ele>66</ele>
        <time>2022-05-14T11:15:00Z</time>
      </trkpt>
      <trkpt lat="47.2221" lon="-1.49949">
        <ele>66</ele>
        <time>2022-05-14T11:15:03Z</time>
      </trkpt>
      <trkpt lat="47.22206" lon="-1.49965">
        <ele>67</ele>
        <time>2022-05-14T11:15:05Z</time>
      </trkpt>
      <trkpt lat="47.22201" lon="-1.49981">
        <ele>67</ele>
        <time>2022-05-14T11:15:07Z</time>
      </trkpt>
      <trkpt lat="47.22196" lon="-1.50002">
        <ele>68</ele>
        <time>2022-05-14T11:15:09Z</time>
      </trkpt>
      <trkpt lat="47.22193" lon="-1.50023">
        <ele>68</ele>
        <time>2022-05-14T11:15:11Z</time>
      </trkpt>
      <trkpt lat="47.22189" lon="-1.50043">
        <ele>69</ele>
        <time>2022-05-14T11:15:13Z</time>
      </trkpt>
      <trkpt lat="47.22185" lon="-1.50059">
        <ele>68</ele>
        <time>2022-05-14T11:15:15Z</time>
      </trkpt>
      <trkpt lat="47.2218" lon="-1.50075">
        <ele>67</ele>
        <time>2022-05-14T11:15:17Z</time>
      </trkpt>
      <trkpt lat="47.22175" lon="-1.5009">
        <ele>67</ele>
        <time>2022-05-14T11:15:19Z</time>
      </trkpt>
      <trkpt lat="47.22169" lon="-1.5011">
        <ele>67</ele>
        <time>2022-05-14T11:15:21Z</time>
      </trkpt>
      <trkpt lat="47.22164" lon="-1.50129">
        <ele>67</ele>
        <time>2022-05-14T11:15:23Z</time>
      </trkpt>
      <trkpt lat="47.22159" lon="-1.50148">
        <ele>67</ele>
        <time>2022-05-14T11:15:25Z</time>
      </trkpt>
      <trkpt lat="47.22155" lon="-1.50168">
        <ele>66</ele>
        <time>2022-05-14T11:15:27Z</time>
      </trkpt>
      <trkpt lat="47.22151" lon="-1.50187">
        <ele>66</ele>
        <time>2022-05-14T11:15:29Z</time>
      </trkpt>
      <trkpt lat="47.22148" lon="-1.50205">
        <ele>65</ele>
        <time>2022-05-14T11:15:31Z</time>
      </trkpt>
      <trkpt lat="47.22144" lon="-1.50223">
        <ele>65</ele>
        <time>2022-05-14T11:15:33Z</time>
      </trkpt>
      <trkpt lat="47.22139" lon="-1.50239">
        <ele>64</ele>
        <time>2022-05-14T11:15:35Z</time>
      </trkpt>
      <trkpt lat="47.22135" lon="-1.50257">
        <ele>64</ele>
        <time>2022-05-14T11:15:37Z</time>
      </trkpt>
      <trkpt lat="47.22131" lon="-1.50275">
        <ele>64</ele>
        <time>2022-05-14T11:15:39Z</time>
      </trkpt>
      <trkpt lat="47.22124" lon="-1.50289">
        <ele>64</ele>
        <time>2022-05-14T11:15:41Z</time>
      </trkpt>
      <trkpt lat="47.22116" lon="-1.50303">
        <ele>64</ele>
        <time>2022-05-14T11:15:43Z</time>
      </trkpt>
      <trkpt lat="47.22108" lon="-1.50316">
        <ele>63</ele>
        <time>2022-05-14T11:15:45Z</time>
      </trkpt>
      <trkpt lat="47.221" lon="-1.50329">
        <ele>62</ele>
        <time>2022-05-14T11:15:47Z</time>
      </trkpt>
      <trkpt lat="47.22095" lon="-1.50347">
        <ele>62</ele>
        <time>2022-05-14T11:15:49Z</time>
      </trkpt>
      <trkpt lat="47.22091" lon="-1.50365">
        <ele>61</ele>
        <time>2022-05-14T11:15:51Z</time>
      </trkpt>
      <trkpt lat="47.22087" lon="-1.50385">
        <ele>61</ele>
        <time>2022-05-14T11:15:53Z</time>
      </trkpt>
      <trkpt lat="47.22082" lon="-1.504">
        <ele>60</ele>
        <time>2022-05-14T11:15:55Z</time>
      </trkpt>
      <trkpt lat="47.22077" lon="-1.50416">
        <ele>60</ele>
        <time>2022-05-14T11:15:57Z</time>
      </trkpt>
      <trkpt lat="47.22074" lon="-1.50434">
        <ele>60</ele>
        <time>2022-05-14T11:15:59Z</time>
      </trkpt>
      <trkpt lat="47.22071" lon="-1.50453">
        <ele>59</ele>
        <time>2022-05-14T11:16:01Z</time>
      </trkpt>
      <trkpt lat="47.22067" lon="-1.5047">
        <ele>60</ele>
        <time>2022-05-14T11:16:03Z</time>
      </trkpt>
      <trkpt lat="47.22065" lon="-1.50486">
        <ele>60</ele>
        <time>2022-05-14T11:16:05Z</time>
      </trkpt>
      <trkpt lat="47.22063" lon="-1.50504">
        <ele>60</ele>
        <time>2022-05-14T11:16:07Z</time>
      </trkpt>
      <trkpt lat="47.22062" lon="-1.50523">
        <ele>60</ele>
        <time>2022-05-14T11:16:09Z</time>
      </trkpt>
      <trkpt lat="47.2206" lon="-1.50541">
        <ele>60</ele>
        <time>2022-05-14T11:16:11Z</time>
      </trkpt>
      <trkpt lat="47.22058" lon="-1.50556">
        <ele>60</ele>
        <time>2022-05-14T11:16:13Z</time>
      </trkpt>
      <trkpt lat="47.22056" lon="-1.50572">
        <ele>60</ele>
        <time>2022-05-14T11:16:15Z</time>
      </trkpt>
      <trkpt lat="47.22055" lon="-1.50588">
        <ele>61</ele>
        <time>2022-05-14T11:16:17Z</time>
      </trkpt>
      <trkpt lat="47.22054" lon="-1.50603">
        <ele>62</ele>
        <time>2022-05-14T11:16:19Z</time>
      </trkpt>
      <trkpt lat="47.22054" lon="-1.50617">
        <ele>62</ele>
        <time>2022-05-14T11:16:21Z</time>
      </trkpt>
      <trkpt lat="47.22051" lon="-1.50636">
        <ele>64</ele>
        <time>2022-05-14T11:16:23Z</time>
      </trkpt>
      <trkpt lat="47.22049" lon="-1.50652">
        <ele>64</ele>
        <time>2022-05-14T11:16:25Z</time>
      </trkpt>
      <trkpt lat="47.22047" lon="-1.50668">
        <ele>64</ele>
        <time>2022-05-14T11:16:27Z</time>
      </trkpt>
      <trkpt lat="47.22046" lon="-1.50684">
        <ele>66</ele>
        <time>2022-05-14T11:16:29Z</time>
      </trkpt>
      <trkpt lat="47.22045" lon="-1.50697">
        <ele>67</ele>
        <time>2022-05-14T11:16:31Z</time>
      </trkpt>
      <trkpt lat="47.22042" lon="-1.50714">
        <ele>68</ele>
        <time>2022-05-14T11:16:33Z</time>
      </trkpt>
      <trkpt lat="47.22039" lon="-1.5073">
        <ele>68</ele>
        <time>2022-05-14T11:16:35Z</time>
      </trkpt>
      <trkpt lat="47.22036" lon="-1.50746">
        <ele>70</ele>
        <time>2022-05-14T11:16:37Z</time>
      </trkpt>
      <trkpt lat="47.22033" lon="-1.5076">
        <ele>73</ele>
        <time>2022-05-14T11:16:39Z</time>
      </trkpt>
      <trkpt lat="47.22028" lon="-1.50781">
        <ele>74</ele>
        <time>2022-05-14T11:16:41Z</time>
      </trkpt>
      <trkpt lat="47.22023" lon="-1.508">
        <ele>73</ele>
        <time>2022-05-14T11:16:43Z</time>
      </trkpt>
      <trkpt lat="47.22017" lon="-1.50816">
        <ele>73</ele>
        <time>2022-05-14T11:16:45Z</time>
      </trkpt>
      <trkpt lat="47.2201" lon="-1.50833">
        <ele>74</ele>
        <time>2022-05-14T11:16:47Z</time>
      </trkpt>
      <trkpt lat="47.22004" lon="-1.50854">
        <ele>75</ele>
        <time>2022-05-14T11:16:49Z</time>
      </trkpt>
      <trkpt lat="47.21999" lon="-1.50875">
        <ele>75</ele>
        <time>2022-05-14T11:16:51Z</time>
      </trkpt>
      <trkpt lat="47.21994" lon="-1.50895">
        <ele>73</ele>
        <time>2022-05-14T11:16:53Z</time>
      </trkpt>
      <trkpt lat="47.21989" lon="-1.50914">
        <ele>72</ele>
        <time>2022-05-14T11:16:55Z</time>
      </trkpt>
      <trkpt lat="47.21984" lon="-1.50933">
        <ele>71</ele>
        <time>2022-05-14T11:16:57Z</time>
      </trkpt>
      <trkpt lat="47.2198" lon="-1.50953">
        <ele>70</ele>
        <time>2022-05-14T11:16:59Z</time>
      </trkpt>
      <trkpt lat="47.21975" lon="-1.50972">
        <ele>69</ele>
        <time>2022-05-14T11:17:01Z</time>
      </trkpt>
      <trkpt lat="47.2197" lon="-1.50991">
        <ele>68</ele>
        <time>2022-05-14T11:17:03Z</time>
      </trkpt>
      <trkpt lat="47.21964" lon="-1.51008">
        <ele>66</ele>
        <time>2022-05-14T11:17:05Z</time>
      </trkpt>
      <trkpt lat="47.2196" lon="-1.51025">
        <ele>65</ele>
        <time>2022-05-14T11:17:07Z</time>
      </trkpt>
      <trkpt lat="47.21956" lon="-1.51041">
        <ele>64</ele>
        <time>2022-05-14T11:17:09Z</time>
      </trkpt>
      <trkpt lat="47.21951" lon="-1.51055">
        <ele>63</ele>
        <time>2022-05-14T11:17:11Z</time>
      </trkpt>
      <trkpt lat="47.21945" lon="-1.51066">
        <ele>63</ele>
        <time>2022-05-14T11:17:13Z</time>
      </trkpt>
      <trkpt lat="47.21938" lon="-1.51079">
        <ele>62</ele>
        <time>2022-05-14T11:17:15Z</time>
      </trkpt>
      <trkpt lat="47.21933" lon="-1.51095">
        <ele>62</ele>
        <time>2022-05-14T11:17:17Z</time>
      </trkpt>
      <trkpt lat="47.21926" lon="-1.51112">
        <ele>61</ele>
        <time>2022-05-14T11:17:19Z</time>
      </trkpt>
      <trkpt lat="47.21921" lon="-1.51129">
        <ele>61</ele>
        <time>2022-05-14T11:17:21Z</time>
      </trkpt>
      <trkpt lat="47.21915" lon="-1.51147">
        <ele>61</ele>
        <time>2022-05-14T11:17:23Z</time>
      </trkpt>
      <trkpt lat="47.21909" lon="-1.51164">
        <ele>60</ele>
        <time>2022-05-14T11:17:25Z</time>
      </trkpt>
      <trkpt lat="47.21904" lon="-1.51181">
        <ele>60</ele>
        <time>2022-05-14T11:17:27Z</time>
      </trkpt>
      <trkpt lat="47.21898" lon="-1.51198">
        <ele>59</ele>
        <time>2022-05-14T11:17:29Z</time>
      </trkpt>
      <trkpt lat="47.21892" lon="-1.51215">
        <ele>59</ele>
        <time>2022-05-14T11:17:31Z</time>
      </trkpt>
      <trkpt lat="47.21887" lon="-1.51232">
        <ele>59</ele>
        <time>2022-05-14T11:17:33Z</time>
      </trkpt>
      <trkpt lat="47.21881" lon="-1.51249">
        <ele>58</ele>
        <time>2022-05-14T11:17:35Z</time>
      </trkpt>
      <trkpt lat="47.21876" lon="-1.51265">
        <ele>58</ele>
        <time>2022-05-14T11:17:37Z</time>
      </trkpt>
      <trkpt lat="47.2187" lon="-1.51282">
        <ele>59</ele>
        <time>2022-05-14T11:17:39Z</time>
      </trkpt>
      <trkpt lat="47.21865" lon="-1.51299">
        <ele>59</ele>
        <time>2022-05-14T11:17:41Z</time>
      </trkpt>
      <trkpt lat="47.21859" lon="-1.51315">
        <ele>59</ele>
        <time>2022-05-14T11:17:43Z</time>
      </trkpt>
      <trkpt lat="47.21855" lon="-1.51331">
        <ele>59</ele>
        <time>2022-05-14T11:17:45Z</time>
      </trkpt>
      <trkpt lat="47.2185" lon="-1.51349">
        <ele>60</ele>
        <time>2022-05-14T11:17:47Z</time>
      </trkpt>
      <trkpt lat="47.21846" lon="-1.51366">
        <ele>60</ele>
        <time>2022-05-14T11:17:49Z</time>
      </trkpt>
      <trkpt lat="47.21842" lon="-1.51383">
        <ele>60</ele>
        <time>2022-05-14T11:17:51Z</time>
      </trkpt>
      <trkpt lat="47.21838" lon="-1.514">
        <ele>59</ele>
        <time>2022-05-14T11:17:53Z</time>
      </trkpt>
      <trkpt lat="47.21834" lon="-1.51416">
        <ele>58</ele>
        <time>2022-05-14T11:17:55Z</time>
      </trkpt>
      <trkpt lat="47.2183" lon="-1.51434">
        <ele>58</ele>
        <time>2022-05-14T11:17:57Z</time>
      </trkpt>
      <trkpt lat="47.21826" lon="-1.51451">
        <ele>57</ele>
        <time>2022-05-14T11:17:59Z</time>
      </trkpt>
      <trkpt lat="47.21822" lon="-1.51468">
        <ele>57</ele>
        <time>2022-05-14T11:18:01Z</time>
      </trkpt>
      <trkpt lat="47.21818" lon="-1.51485">
        <ele>57</ele>
        <time>2022-05-14T11:18:03Z</time>
      </trkpt>
      <trkpt lat="47.21813" lon="-1.51501">
        <ele>57</ele>
        <time>2022-05-14T11:18:05Z</time>
      </trkpt>
      <trkpt lat="47.21805" lon="-1.51514">
        <ele>57</ele>
        <time>2022-05-14T11:18:07Z</time>
      </trkpt>
      <trkpt lat="47.21801" lon="-1.51528">
        <ele>57</ele>
        <time>2022-05-14T11:18:09Z</time>
      </trkpt>
      <trkpt lat="47.21796" lon="-1.51542">
        <ele>58</ele>
        <time>2022-05-14T11:18:11Z</time>
      </trkpt>
      <trkpt lat="47.2179" lon="-1.51556">
        <ele>58</ele>
        <time>2022-05-14T11:18:13Z</time>
      </trkpt>
      <trkpt lat="47.21784" lon="-1.51569">
        <ele>58</ele>
        <time>2022-05-14T11:18:15Z</time>
      </trkpt>
      <trkpt lat="47.21776" lon="-1.51581">
        <ele>57</ele>
        <time>2022-05-14T11:18:17Z</time>
      </trkpt>
      <trkpt lat="47.21768" lon="-1.51593">
        <ele>57</ele>
        <time>2022-05-14T11:18:19Z</time>
      </trkpt>
      <trkpt lat="47.2176" lon="-1.51603">
        <ele>57</ele>
        <time>2022-05-14T11:18:21Z</time>
      </trkpt>
      <trkpt lat="47.21752" lon="-1.51616">
        <ele>57</ele>
        <time>2022-05-14T11:18:23Z</time>
      </trkpt>
      <trkpt lat="47.21746" lon="-1.51629">
        <ele>57</ele>
        <time>2022-05-14T11:18:25Z</time>
      </trkpt>
      <trkpt lat="47.21739" lon="-1.51643">
        <ele>57</ele>
        <time>2022-05-14T11:18:27Z</time>
      </trkpt>
      <trkpt lat="47.21733" lon="-1.51656">
        <ele>56</ele>
        <time>2022-05-14T11:18:29Z</time>
      </trkpt>
      <trkpt lat="47.21727" lon="-1.51669">
        <ele>56</ele>
        <time>2022-05-14T11:18:31Z</time>
      </trkpt>
      <trkpt lat="47.21722" lon="-1.51682">
        <ele>56</ele>
        <time>2022-05-14T11:18:33Z</time>
      </trkpt>
      <trkpt lat="47.21714" lon="-1.51697">
        <ele>56</ele>
        <time>2022-05-14T11:18:36Z</time>
      </trkpt>
      <trkpt lat="47.21708" lon="-1.51715">
        <ele>57</ele>
        <time>2022-05-14T11:18:39Z</time>
      </trkpt>
      <trkpt lat="47.21702" lon="-1.51732">
        <ele>58</ele>
        <time>2022-05-14T11:18:41Z</time>
      </trkpt>
      <trkpt lat="47.21694" lon="-1.51749">
        <ele>59</ele>
        <time>2022-05-14T11:18:43Z</time>
      </trkpt>
      <trkpt lat="47.21687" lon="-1.51765">
        <ele>59</ele>
        <time>2022-05-14T11:18:45Z</time>
      </trkpt>
      <trkpt lat="47.2168" lon="-1.5178">
        <ele>58</ele>
        <time>2022-05-14T11:18:47Z</time>
      </trkpt>
      <trkpt lat="47.21673" lon="-1.51794">
        <ele>59</ele>
        <time>2022-05-14T11:18:49Z</time>
      </trkpt>
      <trkpt lat="47.21667" lon="-1.51808">
        <ele>58</ele>
        <time>2022-05-14T11:18:51Z</time>
      </trkpt>
      <trkpt lat="47.21661" lon="-1.51823">
        <ele>59</ele>
        <time>2022-05-14T11:18:53Z</time>
      </trkpt>
      <trkpt lat="47.21656" lon="-1.51838">
        <ele>58</ele>
        <time>2022-05-14T11:18:55Z</time>
      </trkpt>
      <trkpt lat="47.21652" lon="-1.51851">
        <ele>58</ele>
        <time>2022-05-14T11:18:57Z</time>
      </trkpt>
      <trkpt lat="47.21649" lon="-1.51865">
        <ele>59</ele>
        <time>2022-05-14T11:18:59Z</time>
      </trkpt>
      <trkpt lat="47.21646" lon="-1.51884">
        <ele>60</ele>
        <time>2022-05-14T11:19:01Z</time>
      </trkpt>
      <trkpt lat="47.21638" lon="-1.51897">
        <ele>60</ele>
        <time>2022-05-14T11:19:03Z</time>
      </trkpt>
      <trkpt lat="47.21632" lon="-1.51909">
        <ele>60</ele>
        <time>2022-05-14T11:19:05Z</time>
      </trkpt>
      <trkpt lat="47.21628" lon="-1.51926">
        <ele>60</ele>
        <time>2022-05-14T11:19:07Z</time>
      </trkpt>
      <trkpt lat="47.21624" lon="-1.51943">
        <ele>60</ele>
        <time>2022-05-14T11:19:09Z</time>
      </trkpt>
      <trkpt lat="47.21623" lon="-1.5196">
        <ele>60</ele>
        <time>2022-05-14T11:19:11Z</time>
      </trkpt>
      <trkpt lat="47.21618" lon="-1.51975">
        <ele>61</ele>
        <time>2022-05-14T11:19:13Z</time>
      </trkpt>
      <trkpt lat="47.2161" lon="-1.5199">
        <ele>61</ele>
        <time>2022-05-14T11:19:16Z</time>
      </trkpt>
      <trkpt lat="47.21604" lon="-1.52009">
        <ele>61</ele>
        <time>2022-05-14T11:19:18Z</time>
      </trkpt>
      <trkpt lat="47.21598" lon="-1.52027">
        <ele>60</ele>
        <time>2022-05-14T11:19:20Z</time>
      </trkpt>
      <trkpt lat="47.21591" lon="-1.52044">
        <ele>60</ele>
        <time>2022-05-14T11:19:22Z</time>
      </trkpt>
      <trkpt lat="47.21585" lon="-1.52061">
        <ele>59</ele>
        <time>2022-05-14T11:19:24Z</time>
      </trkpt>
      <trkpt lat="47.2158" lon="-1.52078">
        <ele>58</ele>
        <time>2022-05-14T11:19:26Z</time>
      </trkpt>
      <trkpt lat="47.21574" lon="-1.52095">
        <ele>58</ele>
        <time>2022-05-14T11:19:28Z</time>
      </trkpt>
      <trkpt lat="47.21568" lon="-1.52112">
        <ele>58</ele>
        <time>2022-05-14T11:19:30Z</time>
      </trkpt>
      <trkpt lat="47.21563" lon="-1.52129">
        <ele>58</ele>
        <time>2022-05-14T11:19:32Z</time>
      </trkpt>
      <trkpt lat="47.21557" lon="-1.52145">
        <ele>58</ele>
        <time>2022-05-14T11:19:34Z</time>
      </trkpt>
      <trkpt lat="47.21552" lon="-1.52161">
        <ele>58</ele>
        <time>2022-05-14T11:19:36Z</time>
      </trkpt>
      <trkpt lat="47.21547" lon="-1.52178">
        <ele>58</ele>
        <time>2022-05-14T11:19:38Z</time>
      </trkpt>
      <trkpt lat="47.21541" lon="-1.52195">
        <ele>57</ele>
        <time>2022-05-14T11:19:40Z</time>
      </trkpt>
      <trkpt lat="47.21536" lon="-1.52213">
        <ele>57</ele>
        <time>2022-05-14T11:19:42Z</time>
      </trkpt>
      <trkpt lat="47.2153" lon="-1.5223">
        <ele>57</ele>
        <time>2022-05-14T11:19:44Z</time>
      </trkpt>
      <trkpt lat="47.21524" lon="-1.52246">
        <ele>56</ele>
        <time>2022-05-14T11:19:46Z</time>
      </trkpt>
      <trkpt lat="47.21519" lon="-1.52262">
        <ele>55</ele>
        <time>2022-05-14T11:19:48Z</time>
      </trkpt>
      <trkpt lat="47.21515" lon="-1.5228">
        <ele>56</ele>
        <time>2022-05-14T11:19:50Z</time>
      </trkpt>
      <trkpt lat="47.2151" lon="-1.52297">
        <ele>56</ele>
        <time>2022-05-14T11:19:52Z</time>
      </trkpt>
      <trkpt lat="47.21504" lon="-1.52315">
        <ele>56</ele>
        <time>2022-05-14T11:19:54Z</time>
      </trkpt>
      <trkpt lat="47.21499" lon="-1.52332">
        <ele>57</ele>
        <time>2022-05-14T11:19:56Z</time>
      </trkpt>
      <trkpt lat="47.21493" lon="-1.52348">
        <ele>57</ele>
        <time>2022-05-14T11:19:58Z</time>
      </trkpt>
      <trkpt lat="47.21486" lon="-1.52366">
        <ele>57</ele>
        <time>2022-05-14T11:20:00Z</time>
      </trkpt>
      <trkpt lat="47.2148" lon="-1.52384">
        <ele>58</ele>
        <time>2022-05-14T11:20:02Z</time>
      </trkpt>
      <trkpt lat="47.21474" lon="-1.52402">
        <ele>58</ele>
        <time>2022-05-14T11:20:04Z</time>
      </trkpt>
      <trkpt lat="47.21468" lon="-1.52419">
        <ele>58</ele>
        <time>2022-05-14T11:20:06Z</time>
      </trkpt>
      <trkpt lat="47.21463" lon="-1.52437">
        <ele>58</ele>
        <time>2022-05-14T11:20:08Z</time>
      </trkpt>
      <trkpt lat="47.21457" lon="-1.52455">
        <ele>58</ele>
        <time>2022-05-14T11:20:10Z</time>
      </trkpt>
      <trkpt lat="47.21453" lon="-1.52473">
        <ele>58</ele>
        <time>2022-05-14T11:20:12Z</time>
      </trkpt>
      <trkpt lat="47.21448" lon="-1.52492">
        <ele>59</ele>
        <time>2022-05-14T11:20:14Z</time>
      </trkpt>
      <trkpt lat="47.21441" lon="-1.52512">
        <ele>59</ele>
        <time>2022-05-14T11:20:16Z</time>
      </trkpt>
      <trkpt lat="47.21435" lon="-1.52532">
        <ele>58</ele>
        <time>2022-05-14T11:20:18Z</time>
      </trkpt>
      <trkpt lat="47.21429" lon="-1.52551">
        <ele>58</ele>
        <time>2022-05-14T11:20:20Z</time>
      </trkpt>
      <trkpt lat="47.21423" lon="-1.5257">
        <ele>58</ele>
        <time>2022-05-14T11:20:22Z</time>
      </trkpt>
      <trkpt lat="47.21416" lon="-1.52588">
        <ele>58</ele>
        <time>2022-05-14T11:20:24Z</time>
      </trkpt>
      <trkpt lat="47.21411" lon="-1.52606">
        <ele>58</ele>
        <time>2022-05-14T11:20:26Z</time>
      </trkpt>
      <trkpt lat="47.21405" lon="-1.52623">
        <ele>58</ele>
        <time>2022-05-14T11:20:28Z</time>
      </trkpt>
      <trkpt lat="47.21399" lon="-1.52638">
        <ele>58</ele>
        <time>2022-05-14T11:20:30Z</time>
      </trkpt>
      <trkpt lat="47.21395" lon="-1.52651">
        <ele>58</ele>
        <time>2022-05-14T11:20:32Z</time>
      </trkpt>
      <trkpt lat="47.21391" lon="-1.52667">
        <ele>60</ele>
        <time>2022-05-14T11:20:34Z</time>
      </trkpt>
      <trkpt lat="47.21387" lon="-1.52691">
        <ele>62</ele>
        <time>2022-05-14T11:20:36Z</time>
      </trkpt>
      <trkpt lat="47.2138" lon="-1.52709">
        <ele>63</ele>
        <time>2022-05-14T11:20:38Z</time>
      </trkpt>
      <trkpt lat="47.21374" lon="-1.52727">
        <ele>63</ele>
        <time>2022-05-14T11:20:40Z</time>
      </trkpt>
      <trkpt lat="47.21371" lon="-1.52751">
        <ele>63</ele>
        <time>2022-05-14T11:20:42Z</time>
      </trkpt>
      <trkpt lat="47.21369" lon="-1.52774">
        <ele>63</ele>
        <time>2022-05-14T11:20:44Z</time>
      </trkpt>
      <trkpt lat="47.21367" lon="-1.52794">
        <ele>62</ele>
        <time>2022-05-14T11:20:46Z</time>
      </trkpt>
      <trkpt lat="47.21365" lon="-1.52813">
        <ele>62</ele>
        <time>2022-05-14T11:20:48Z</time>
      </trkpt>
      <trkpt lat="47.2136" lon="-1.52832">
        <ele>62</ele>
        <time>2022-05-14T11:20:50Z</time>
      </trkpt>
      <trkpt lat="47.21356" lon="-1.5285">
        <ele>62</ele>
        <time>2022-05-14T11:20:52Z</time>
      </trkpt>
      <trkpt lat="47.21353" lon="-1.52871">
        <ele>62</ele>
        <time>2022-05-14T11:20:54Z</time>
      </trkpt>
      <trkpt lat="47.21349" lon="-1.52891">
        <ele>61</ele>
        <time>2022-05-14T11:20:56Z</time>
      </trkpt>
      <trkpt lat="47.21346" lon="-1.52912">
        <ele>60</ele>
        <time>2022-05-14T11:20:58Z</time>
      </trkpt>
      <trkpt lat="47.21343" lon="-1.52931">
        <ele>59</ele>
        <time>2022-05-14T11:21:00Z</time>
      </trkpt>
      <trkpt lat="47.2134" lon="-1.52949">
        <ele>58</ele>
        <time>2022-05-14T11:21:02Z</time>
      </trkpt>
      <trkpt lat="47.21339" lon="-1.52966">
        <ele>60</ele>
        <time>2022-05-14T11:21:04Z</time>
      </trkpt>
      <trkpt lat="47.21337" lon="-1.52987">
        <ele>61</ele>
        <time>2022-05-14T11:21:06Z</time>
      </trkpt>
      <trkpt lat="47.21336" lon="-1.53009">
        <ele>61</ele>
        <time>2022-05-14T11:21:08Z</time>
      </trkpt>
      <trkpt lat="47.21334" lon="-1.53029">
        <ele>60</ele>
        <time>2022-05-14T11:21:10Z</time>
      </trkpt>
      <trkpt lat="47.21332" lon="-1.53049">
        <ele>60</ele>
        <time>2022-05-14T11:21:12Z</time>
      </trkpt>
      <trkpt lat="47.21331" lon="-1.53068">
        <ele>59</ele>
        <time>2022-05-14T11:21:14Z</time>
      </trkpt>
      <trkpt lat="47.2133" lon="-1.53088">
        <ele>59</ele>
        <time>2022-05-14T11:21:16Z</time>
      </trkpt>
      <trkpt lat="47.21328" lon="-1.53107">
        <ele>60</ele>
        <time>2022-05-14T11:21:18Z</time>
      </trkpt>
      <trkpt lat="47.21324" lon="-1.53127">
        <ele>60</ele>
        <time>2022-05-14T11:21:20Z</time>
      </trkpt>
      <trkpt lat="47.2132" lon="-1.53147">
        <ele>60</ele>
        <time>2022-05-14T11:21:22Z</time>
      </trkpt>
      <trkpt lat="47.21317" lon="-1.53166">
        <ele>61</ele>
        <time>2022-05-14T11:21:24Z</time>
      </trkpt>
      <trkpt lat="47.21315" lon="-1.53185">
        <ele>60</ele>
        <time>2022-05-14T11:21:26Z</time>
      </trkpt>
      <trkpt lat="47.21314" lon="-1.53205">
        <ele>61</ele>
        <time>2022-05-14T11:21:28Z</time>
      </trkpt>
      <trkpt lat="47.21312" lon="-1.53225">
        <ele>61</ele>
        <time>2022-05-14T11:21:30Z</time>
      </trkpt>
      <trkpt lat="47.21312" lon="-1.53245">
        <ele>60</ele>
        <time>2022-05-14T11:21:32Z</time>
      </trkpt>
      <trkpt lat="47.21312" lon="-1.53264">
        <ele>59</ele>
        <time>2022-05-14T11:21:34Z</time>
      </trkpt>
      <trkpt lat="47.21312" lon="-1.53283">
        <ele>59</ele>
        <time>2022-05-14T11:21:36Z</time>
      </trkpt>
      <trkpt lat="47.2131" lon="-1.53302">
        <ele>58</ele>
        <time>2022-05-14T11:21:38Z</time>
      </trkpt>
      <trkpt lat="47.21309" lon="-1.53322">
        <ele>57</ele>
        <time>2022-05-14T11:21:40Z</time>
      </trkpt>
      <trkpt lat="47.21306" lon="-1.53341">
        <ele>57</ele>
        <time>2022-05-14T11:21:42Z</time>
      </trkpt>
      <trkpt lat="47.21303" lon="-1.5336">
        <ele>57</ele>
        <time>2022-05-14T11:21:44Z</time>
      </trkpt>
      <trkpt lat="47.21299" lon="-1.53379">
        <ele>57</ele>
        <time>2022-05-14T11:21:46Z</time>
      </trkpt>
      <trkpt lat="47.21296" lon="-1.53398">
        <ele>56</ele>
        <time>2022-05-14T11:21:48Z</time>
      </trkpt>
      <trkpt lat="47.21294" lon="-1.53416">
        <ele>55</ele>
        <time>2022-05-14T11:21:50Z</time>
      </trkpt>
      <trkpt lat="47.21292" lon="-1.53434">
        <ele>55</ele>
        <time>2022-05-14T11:21:52Z</time>
      </trkpt>
      <trkpt lat="47.21292" lon="-1.53451">
        <ele>56</ele>
        <time>2022-05-14T11:21:54Z</time>
      </trkpt>
      <trkpt lat="47.21297" lon="-1.53467">
        <ele>56</ele>
        <time>2022-05-14T11:21:56Z</time>
      </trkpt>
      <trkpt lat="47.21302" lon="-1.53484">
        <ele>56</ele>
        <time>2022-05-14T11:21:58Z</time>
      </trkpt>
      <trkpt lat="47.21302" lon="-1.53502">
        <ele>56</ele>
        <time>2022-05-14T11:22:00Z</time>
      </trkpt>
      <trkpt lat="47.21303" lon="-1.5352">
        <ele>56</ele>
        <time>2022-05-14T11:22:02Z</time>
      </trkpt>
      <trkpt lat="47.21304" lon="-1.53538">
        <ele>57</ele>
        <time>2022-05-14T11:22:04Z</time>
      </trkpt>
      <trkpt lat="47.21303" lon="-1.53556">
        <ele>57</ele>
        <time>2022-05-14T11:22:06Z</time>
      </trkpt>
      <trkpt lat="47.21304" lon="-1.53575">
        <ele>57</ele>
        <time>2022-05-14T11:22:08Z</time>
      </trkpt>
      <trkpt lat="47.21305" lon="-1.53593">
        <ele>57</ele>
        <time>2022-05-14T11:22:10Z</time>
      </trkpt>
      <trkpt lat="47.21306" lon="-1.53609">
        <ele>57</ele>
        <time>2022-05-14T11:22:12Z</time>
      </trkpt>
      <trkpt lat="47.21305" lon="-1.53625">
        <ele>57</ele>
        <time>2022-05-14T11:22:14Z</time>
      </trkpt>
      <trkpt lat="47.21301" lon="-1.53637">
        <ele>57</ele>
        <time>2022-05-14T11:22:16Z</time>
      </trkpt>
      <trkpt lat="47.21296" lon="-1.53654">
        <ele>57</ele>
        <time>2022-05-14T11:22:19Z</time>
      </trkpt>
      <trkpt lat="47.21294" lon="-1.53667">
        <ele>57</ele>
        <time>2022-05-14T11:22:21Z</time>
      </trkpt>
      <trkpt lat="47.21301" lon="-1.53683">
        <ele>58</ele>
        <time>2022-05-14T11:22:24Z</time>
      </trkpt>
      <trkpt lat="47.21305" lon="-1.537">
        <ele>58</ele>
        <time>2022-05-14T11:22:26Z</time>
      </trkpt>
      <trkpt lat="47.21308" lon="-1.53719">
        <ele>58</ele>
        <time>2022-05-14T11:22:28Z</time>
      </trkpt>
      <trkpt lat="47.21314" lon="-1.53737">
        <ele>58</ele>
        <time>2022-05-14T11:22:30Z</time>
      </trkpt>
      <trkpt lat="47.21318" lon="-1.53756">
        <ele>58</ele>
        <time>2022-05-14T11:22:32Z</time>
      </trkpt>
      <trkpt lat="47.2132" lon="-1.53774">
        <ele>59</ele>
        <time>2022-05-14T11:22:34Z</time>
      </trkpt>
      <trkpt lat="47.21323" lon="-1.53791">
        <ele>60</ele>
        <time>2022-05-14T11:22:36Z</time>
      </trkpt>
      <trkpt lat="47.21325" lon="-1.53808">
        <ele>61</ele>
        <time>2022-05-14T11:22:38Z</time>
      </trkpt>
      <trkpt lat="47.21328" lon="-1.53826">
        <ele>61</ele>
        <time>2022-05-14T11:22:40Z</time>
      </trkpt>
      <trkpt lat="47.21331" lon="-1.53843">
        <ele>62</ele>
        <time>2022-05-14T11:22:42Z</time>
      </trkpt>
      <trkpt lat="47.21334" lon="-1.53859">
        <ele>63</ele>
        <time>2022-05-14T11:22:44Z</time>
      </trkpt>
      <trkpt lat="47.21336" lon="-1.53875">
        <ele>64</ele>
        <time>2022-05-14T11:22:46Z</time>
      </trkpt>
      <trkpt lat="47.21338" lon="-1.53891">
        <ele>64</ele>
        <time>2022-05-14T11:22:48Z</time>
      </trkpt>
      <trkpt lat="47.21342" lon="-1.53903">
        <ele>65</ele>
        <time>2022-05-14T11:22:50Z</time>
      </trkpt>
      <trkpt lat="47.21347" lon="-1.53914">
        <ele>65</ele>
        <time>2022-05-14T11:22:52Z</time>
      </trkpt>
      <trkpt lat="47.21354" lon="-1.53926">
        <ele>64</ele>
        <time>2022-05-14T11:22:55Z</time>
      </trkpt>
      <trkpt lat="47.21365" lon="-1.5393">
        <ele>64</ele>
        <time>2022-05-14T11:23:01Z</time>
      </trkpt>
      <trkpt lat="47.21375" lon="-1.53937">
        <ele>63</ele>
        <time>2022-05-14T11:23:06Z</time>
      </trkpt>
      <trkpt lat="47.21383" lon="-1.53945">
        <ele>62</ele>
        <time>2022-05-14T11:23:08Z</time>
      </trkpt>
      <trkpt lat="47.21387" lon="-1.53962">
        <ele>62</ele>
        <time>2022-05-14T11:23:10Z</time>
      </trkpt>
      <trkpt lat="47.21387" lon="-1.53979">
        <ele>61</ele>
        <time>2022-05-14T11:23:12Z</time>
      </trkpt>
      <trkpt lat="47.21387" lon="-1.53996">
        <ele>61</ele>
        <time>2022-05-14T11:23:14Z</time>
      </trkpt>
      <trkpt lat="47.21393" lon="-1.5401">
        <ele>60</ele>
        <time>2022-05-14T11:23:16Z</time>
      </trkpt>
      <trkpt lat="47.21401" lon="-1.54023">
        <ele>59</ele>
        <time>2022-05-14T11:23:18Z</time>
      </trkpt>
      <trkpt lat="47.21409" lon="-1.54035">
        <ele>59</ele>
        <time>2022-05-14T11:23:20Z</time>
      </trkpt>
      <trkpt lat="47.21416" lon="-1.54049">
        <ele>59</ele>
        <time>2022-05-14T11:23:22Z</time>
      </trkpt>
      <trkpt lat="47.21415" lon="-1.54065">
        <ele>60</ele>
        <time>2022-05-14T11:23:24Z</time>
      </trkpt>
      <trkpt lat="47.21418" lon="-1.54084">
        <ele>59</ele>
        <time>2022-05-14T11:23:27Z</time>
      </trkpt>
      <trkpt lat="47.21425" lon="-1.54096">
        <ele>57</ele>
        <time>2022-05-14T11:23:29Z</time>
      </trkpt>
      <trkpt lat="47.21432" lon="-1.54109">
        <ele>56</ele>
        <time>2022-05-14T11:23:31Z</time>
      </trkpt>
      <trkpt lat="47.2144" lon="-1.54123">
        <ele>55</ele>
        <time>2022-05-14T11:23:33Z</time>
      </trkpt>
      <trkpt lat="47.21449" lon="-1.54135">
        <ele>56</ele>
        <time>2022-05-14T11:23:35Z</time>
      </trkpt>
      <trkpt lat="47.21457" lon="-1.54147">
        <ele>56</ele>
        <time>2022-05-14T11:23:37Z</time>
      </trkpt>
      <trkpt lat="47.21465" lon="-1.5416">
        <ele>56</ele>
        <time>2022-05-14T11:23:39Z</time>
      </trkpt>
      <trkpt lat="47.21473" lon="-1.54174">
        <ele>55</ele>
        <time>2022-05-14T11:23:41Z</time>
      </trkpt>
      <trkpt lat="47.21481" lon="-1.54187">
        <ele>55</ele>
        <time>2022-05-14T11:23:43Z</time>
      </trkpt>
      <trkpt lat="47.21491" lon="-1.54199">
        <ele>53</ele>
        <time>2022-05-14T11:23:45Z</time>
      </trkpt>
      <trkpt lat="47.21499" lon="-1.54212">
        <ele>53</ele>
        <time>2022-05-14T11:23:47Z</time>
      </trkpt>
      <trkpt lat="47.21508" lon="-1.54225">
        <ele>53</ele>
        <time>2022-05-14T11:23:49Z</time>
      </trkpt>
      <trkpt lat="47.21517" lon="-1.54238">
        <ele>53</ele>
        <time>2022-05-14T11:23:51Z</time>
      </trkpt>
      <trkpt lat="47.21525" lon="-1.54252">
        <ele>53</ele>
        <time>2022-05-14T11:23:53Z</time>
      </trkpt>
      <trkpt lat="47.21534" lon="-1.54265">
        <ele>53</ele>
        <time>2022-05-14T11:23:55Z</time>
      </trkpt>
      <trkpt lat="47.21542" lon="-1.54278">
        <ele>53</ele>
        <time>2022-05-14T11:23:57Z</time>
      </trkpt>
      <trkpt lat="47.21552" lon="-1.54285">
        <ele>53</ele>
        <time>2022-05-14T11:23:59Z</time>
      </trkpt>
      <trkpt lat="47.21564" lon="-1.54295">
        <ele>54</ele>
        <time>2022-05-14T11:24:02Z</time>
      </trkpt>
      <trkpt lat="47.21571" lon="-1.54308">
        <ele>53</ele>
        <time>2022-05-14T11:24:04Z</time>
      </trkpt>
      <trkpt lat="47.21579" lon="-1.5432">
        <ele>53</ele>
        <time>2022-05-14T11:24:06Z</time>
      </trkpt>
      <trkpt lat="47.21586" lon="-1.54332">
        <ele>53</ele>
        <time>2022-05-14T11:24:08Z</time>
      </trkpt>
      <trkpt lat="47.21592" lon="-1.54343">
        <ele>54</ele>
        <time>2022-05-14T11:24:10Z</time>
      </trkpt>
      <trkpt lat="47.21597" lon="-1.54354">
        <ele>55</ele>
        <time>2022-05-14T11:24:12Z</time>
      </trkpt>
      <trkpt lat="47.21603" lon="-1.54364">
        <ele>56</ele>
        <time>2022-05-14T11:24:14Z</time>
      </trkpt>
      <trkpt lat="47.21612" lon="-1.54378">
        <ele>57</ele>
        <time>2022-05-14T11:24:16Z</time>
      </trkpt>
      <trkpt lat="47.21618" lon="-1.54395">
        <ele>58</ele>
        <time>2022-05-14T11:24:18Z</time>
      </trkpt>
      <trkpt lat="47.21615" lon="-1.54414">
        <ele>58</ele>
        <time>2022-05-14T11:24:20Z</time>
      </trkpt>
      <trkpt lat="47.21612" lon="-1.54434">
        <ele>57</ele>
        <time>2022-05-14T11:24:22Z</time>
      </trkpt>
      <trkpt lat="47.21611" lon="-1.54453">
        <ele>57</ele>
        <time>2022-05-14T11:24:24Z</time>
      </trkpt>
      <trkpt lat="47.21609" lon="-1.54471">
        <ele>58</ele>
        <time>2022-05-14T11:24:26Z</time>
      </trkpt>
      <trkpt lat="47.21607" lon="-1.54489">
        <ele>58</ele>
        <time>2022-05-14T11:24:28Z</time>
      </trkpt>
      <trkpt lat="47.21603" lon="-1.54505">
        <ele>58</ele>
        <time>2022-05-14T11:24:30Z</time>
      </trkpt>
      <trkpt lat="47.21598" lon="-1.54521">
        <ele>59</ele>
        <time>2022-05-14T11:24:32Z</time>
      </trkpt>
      <trkpt lat="47.21592" lon="-1.54536">
        <ele>59</ele>
        <time>2022-05-14T11:24:34Z</time>
      </trkpt>
      <trkpt lat="47.21587" lon="-1.54552">
        <ele>59</ele>
        <time>2022-05-14T11:24:36Z</time>
      </trkpt>
      <trkpt lat="47.21581" lon="-1.54567">
        <ele>59</ele>
        <time>2022-05-14T11:24:38Z</time>
      </trkpt>
      <trkpt lat="47.21575" lon="-1.54583">
        <ele>58</ele>
        <time>2022-05-14T11:24:40Z</time>
      </trkpt>
      <trkpt lat="47.21569" lon="-1.54601">
        <ele>58</ele>
        <time>2022-05-14T11:24:42Z</time>
      </trkpt>
      <trkpt lat="47.21563" lon="-1.54618">
        <ele>58</ele>
        <time>2022-05-14T11:24:44Z</time>
      </trkpt>
      <trkpt lat="47.21556" lon="-1.54636">
        <ele>58</ele>
        <time>2022-05-14T11:24:46Z</time>
      </trkpt>
      <trkpt lat="47.21549" lon="-1.54651">
        <ele>58</ele>
        <time>2022-05-14T11:24:48Z</time>
      </trkpt>
      <trkpt lat="47.21543" lon="-1.54664">
        <ele>59</ele>
        <time>2022-05-14T11:24:50Z</time>
      </trkpt>
      <trkpt lat="47.21539" lon="-1.54682">
        <ele>59</ele>
        <time>2022-05-14T11:24:52Z</time>
      </trkpt>
      <trkpt lat="47.21536" lon="-1.54699">
        <ele>60</ele>
        <time>2022-05-14T11:24:54Z</time>
      </trkpt>
      <trkpt lat="47.2153" lon="-1.54717">
        <ele>60</ele>
        <time>2022-05-14T11:24:56Z</time>
      </trkpt>
      <trkpt lat="47.21523" lon="-1.54733">
        <ele>60</ele>
        <time>2022-05-14T11:24:58Z</time>
      </trkpt>
      <trkpt lat="47.21516" lon="-1.5475">
        <ele>60</ele>
        <time>2022-05-14T11:25:00Z</time>
      </trkpt>
      <trkpt lat="47.21507" lon="-1.54776">
        <ele>60</ele>
        <time>2022-05-14T11:25:03Z</time>
      </trkpt>
      <trkpt lat="47.21501" lon="-1.54792">
        <ele>60</ele>
        <time>2022-05-14T11:25:05Z</time>
      </trkpt>
      <trkpt lat="47.21494" lon="-1.54809">
        <ele>60</ele>
        <time>2022-05-14T11:25:07Z</time>
      </trkpt>
      <trkpt lat="47.21485" lon="-1.54824">
        <ele>61</ele>
        <time>2022-05-14T11:25:09Z</time>
      </trkpt>
      <trkpt lat="47.21477" lon="-1.54839">
        <ele>61</ele>
        <time>2022-05-14T11:25:11Z</time>
      </trkpt>
      <trkpt lat="47.21464" lon="-1.54862">
        <ele>61</ele>
        <time>2022-05-14T11:25:14Z</time>
      </trkpt>
      <trkpt lat="47.21456" lon="-1.54878">
        <ele>62</ele>
        <time>2022-05-14T11:25:16Z</time>
      </trkpt>
      <trkpt lat="47.21448" lon="-1.54894">
        <ele>61</ele>
        <time>2022-05-14T11:25:18Z</time>
      </trkpt>
      <trkpt lat="47.2144" lon="-1.54909">
        <ele>61</ele>
        <time>2022-05-14T11:25:20Z</time>
      </trkpt>
      <trkpt lat="47.21432" lon="-1.54924">
        <ele>62</ele>
        <time>2022-05-14T11:25:22Z</time>
      </trkpt>
      <trkpt lat="47.21425" lon="-1.5494">
        <ele>62</ele>
        <time>2022-05-14T11:25:24Z</time>
      </trkpt>
      <trkpt lat="47.21418" lon="-1.54957">
        <ele>62</ele>
        <time>2022-05-14T11:25:26Z</time>
      </trkpt>
      <trkpt lat="47.21411" lon="-1.54973">
        <ele>62</ele>
        <time>2022-05-14T11:25:28Z</time>
      </trkpt>
      <trkpt lat="47.21404" lon="-1.54989">
        <ele>61</ele>
        <time>2022-05-14T11:25:30Z</time>
      </trkpt>
      <trkpt lat="47.21399" lon="-1.55005">
        <ele>62</ele>
        <time>2022-05-14T11:25:32Z</time>
      </trkpt>
      <trkpt lat="47.21392" lon="-1.55021">
        <ele>61</ele>
        <time>2022-05-14T11:25:34Z</time>
      </trkpt>
      <trkpt lat="47.21385" lon="-1.55038">
        <ele>59</ele>
        <time>2022-05-14T11:25:36Z</time>
      </trkpt>
      <trkpt lat="47.21377" lon="-1.55054">
        <ele>59</ele>
        <time>2022-05-14T11:25:38Z</time>
      </trkpt>
      <trkpt lat="47.2137" lon="-1.5507">
        <ele>58</ele>
        <time>2022-05-14T11:25:40Z</time>
      </trkpt>
      <trkpt lat="47.21364" lon="-1.55087">
        <ele>59</ele>
        <time>2022-05-14T11:25:42Z</time>
      </trkpt>
      <trkpt lat="47.21358" lon="-1.55103">
        <ele>59</ele>
        <time>2022-05-14T11:25:44Z</time>
      </trkpt>
      <trkpt lat="47.2135" lon="-1.55119">
        <ele>58</ele>
        <time>2022-05-14T11:25:46Z</time>
      </trkpt>
      <trkpt lat="47.21343" lon="-1.55136">
        <ele>57</ele>
        <time>2022-05-14T11:25:48Z</time>
      </trkpt>
      <trkpt lat="47.21337" lon="-1.55152">
        <ele>57</ele>
        <time>2022-05-14T11:25:50Z</time>
      </trkpt>
      <trkpt lat="47.21331" lon="-1.55168">
        <ele>57</ele>
        <time>2022-05-14T11:25:52Z</time>
      </trkpt>
      <trkpt lat="47.21324" lon="-1.55184">
        <ele>57</ele>
        <time>2022-05-14T11:25:54Z</time>
      </trkpt>
      <trkpt lat="47.21318" lon="-1.552">
        <ele>57</ele>
        <time>2022-05-14T11:25:56Z</time>
      </trkpt>
      <trkpt lat="47.21312" lon="-1.55216">
        <ele>57</ele>
        <time>2022-05-14T11:25:58Z</time>
      </trkpt>
      <trkpt lat="47.21305" lon="-1.55232">
        <ele>57</ele>
        <time>2022-05-14T11:26:00Z</time>
      </trkpt>
      <trkpt lat="47.21298" lon="-1.55248">
        <ele>57</ele>
        <time>2022-05-14T11:26:02Z</time>
      </trkpt>
      <trkpt lat="47.21292" lon="-1.55263">
        <ele>57</ele>
        <time>2022-05-14T11:26:04Z</time>
      </trkpt>
      <trkpt lat="47.21286" lon="-1.55277">
        <ele>57</ele>
        <time>2022-05-14T11:26:06Z</time>
      </trkpt>
      <trkpt lat="47.2128" lon="-1.55289">
        <ele>58</ele>
        <time>2022-05-14T11:26:08Z</time>
      </trkpt>
      <trkpt lat="47.21269" lon="-1.55293">
        <ele>59</ele>
        <time>2022-05-14T11:26:11Z</time>
      </trkpt>
      <trkpt lat="47.21261" lon="-1.55297">
        <ele>60</ele>
        <time>2022-05-14T11:26:13Z</time>
      </trkpt>
      <trkpt lat="47.21258" lon="-1.5531">
        <ele>60</ele>
        <time>2022-05-14T11:26:15Z</time>
      </trkpt>
      <trkpt lat="47.21259" lon="-1.55325">
        <ele>59</ele>
        <time>2022-05-14T11:26:17Z</time>
      </trkpt>
      <trkpt lat="47.21264" lon="-1.55337">
        <ele>58</ele>
        <time>2022-05-14T11:26:19Z</time>
      </trkpt>
      <trkpt lat="47.21271" lon="-1.55347">
        <ele>56</ele>
        <time>2022-05-14T11:26:22Z</time>
      </trkpt>
      <trkpt lat="47.2128" lon="-1.55353">
        <ele>56</ele>
        <time>2022-05-14T11:26:26Z</time>
      </trkpt>
      <trkpt lat="47.21285" lon="-1.5537">
        <ele>56</ele>
        <time>2022-05-14T11:26:29Z</time>
      </trkpt>
      <trkpt lat="47.2128" lon="-1.55383">
        <ele>56</ele>
        <time>2022-05-14T11:26:31Z</time>
      </trkpt>
      <trkpt lat="47.21273" lon="-1.55392">
        <ele>55</ele>
        <time>2022-05-14T11:26:33Z</time>
      </trkpt>
      <trkpt lat="47.21267" lon="-1.55405">
        <ele>56</ele>
        <time>2022-05-14T11:26:35Z</time>
      </trkpt>
      <trkpt lat="47.2126" lon="-1.55419">
        <ele>56</ele>
        <time>2022-05-14T11:26:37Z</time>
      </trkpt>
      <trkpt lat="47.2125" lon="-1.55434">
        <ele>56</ele>
        <time>2022-05-14T11:26:39Z</time>
      </trkpt>
      <trkpt lat="47.21241" lon="-1.55448">
        <ele>55</ele>
        <time>2022-05-14T11:26:41Z</time>
      </trkpt>
      <trkpt lat="47.21232" lon="-1.55464">
        <ele>55</ele>
        <time>2022-05-14T11:26:43Z</time>
      </trkpt>
      <trkpt lat="47.21223" lon="-1.55479">
        <ele>55</ele>
        <time>2022-05-14T11:26:45Z</time>
      </trkpt>
      <trkpt lat="47.21216" lon="-1.55498">
        <ele>55</ele>
        <time>2022-05-14T11:26:47Z</time>
      </trkpt>
      <trkpt lat="47.2121" lon="-1.55518">
        <ele>55</ele>
        <time>2022-05-14T11:26:49Z</time>
      </trkpt>
      <trkpt lat="47.21204" lon="-1.55537">
        <ele>55</ele>
        <time>2022-05-14T11:26:51Z</time>
      </trkpt>
      <trkpt lat="47.21199" lon="-1.55556">
        <ele>54</ele>
        <time>2022-05-14T11:26:53Z</time>
      </trkpt>
      <trkpt lat="47.21192" lon="-1.55574">
        <ele>54</ele>
        <time>2022-05-14T11:26:55Z</time>
      </trkpt>
      <trkpt lat="47.21187" lon="-1.55593">
        <ele>54</ele>
        <time>2022-05-14T11:26:57Z</time>
      </trkpt>
      <trkpt lat="47.21181" lon="-1.55609">
        <ele>54</ele>
        <time>2022-05-14T11:26:59Z</time>
      </trkpt>
      <trkpt lat="47.21176" lon="-1.55626">
        <ele>53</ele>
        <time>2022-05-14T11:27:01Z</time>
      </trkpt>
      <trkpt lat="47.21171" lon="-1.55642">
        <ele>53</ele>
        <time>2022-05-14T11:27:03Z</time>
      </trkpt>
      <trkpt lat="47.21168" lon="-1.55657">
        <ele>53</ele>
        <time>2022-05-14T11:27:05Z</time>
      </trkpt>
      <trkpt lat="47.21163" lon="-1.5567">
        <ele>53</ele>
        <time>2022-05-14T11:27:07Z</time>
      </trkpt>
      <trkpt lat="47.21153" lon="-1.55676">
        <ele>53</ele>
        <time>2022-05-14T11:27:09Z</time>
      </trkpt>
      <trkpt lat="47.21143" lon="-1.5567">
        <ele>53</ele>
        <time>2022-05-14T11:27:12Z</time>
      </trkpt>
      <trkpt lat="47.21135" lon="-1.5566">
        <ele>53</ele>
        <time>2022-05-14T11:27:14Z</time>
      </trkpt>
      <trkpt lat="47.21124" lon="-1.5565">
        <ele>52</ele>
        <time>2022-05-14T11:27:16Z</time>
      </trkpt>
      <trkpt lat="47.21111" lon="-1.55639">
        <ele>53</ele>
        <time>2022-05-14T11:27:18Z</time>
      </trkpt>
      <trkpt lat="47.21099" lon="-1.55629">
        <ele>54</ele>
        <time>2022-05-14T11:27:20Z</time>
      </trkpt>
      <trkpt lat="47.21086" lon="-1.5562">
        <ele>55</ele>
        <time>2022-05-14T11:27:22Z</time>
      </trkpt>
      <trkpt lat="47.21073" lon="-1.55611">
        <ele>56</ele>
        <time>2022-05-14T11:27:24Z</time>
      </trkpt>
      <trkpt lat="47.21061" lon="-1.55602">
        <ele>57</ele>
        <time>2022-05-14T11:27:26Z</time>
      </trkpt>
      <trkpt lat="47.2105" lon="-1.55595">
        <ele>58</ele>
        <time>2022-05-14T11:27:28Z</time>
      </trkpt>
      <trkpt lat="47.21039" lon="-1.5559">
        <ele>58</ele>
        <time>2022-05-14T11:27:30Z</time>
      </trkpt>
      <trkpt lat="47.21028" lon="-1.55585">
        <ele>59</ele>
        <time>2022-05-14T11:27:32Z</time>
      </trkpt>
      <trkpt lat="47.21017" lon="-1.55582">
        <ele>59</ele>
        <time>2022-05-14T11:27:34Z</time>
      </trkpt>
      <trkpt lat="47.21006" lon="-1.5558">
        <ele>59</ele>
        <time>2022-05-14T11:27:36Z</time>
      </trkpt>
      <trkpt lat="47.20996" lon="-1.55577">
        <ele>59</ele>
        <time>2022-05-14T11:27:38Z</time>
      </trkpt>
      <trkpt lat="47.20986" lon="-1.55575">
        <ele>58</ele>
        <time>2022-05-14T11:27:40Z</time>
      </trkpt>
      <trkpt lat="47.20973" lon="-1.55571">
        <ele>57</ele>
        <time>2022-05-14T11:27:43Z</time>
      </trkpt>
      <trkpt lat="47.20962" lon="-1.55569">
        <ele>57</ele>
        <time>2022-05-14T11:27:46Z</time>
      </trkpt>
      <trkpt lat="47.20953" lon="-1.55568">
        <ele>58</ele>
        <time>2022-05-14T11:27:52Z</time>
      </trkpt>
      <trkpt lat="47.20943" lon="-1.5557">
        <ele>61</ele>
        <time>2022-05-14T11:28:02Z</time>
      </trkpt>
      <trkpt lat="47.20931" lon="-1.55565">
        <ele>63</ele>
        <time>2022-05-14T11:28:04Z</time>
      </trkpt>
      <trkpt lat="47.20919" lon="-1.5556">
        <ele>64</ele>
        <time>2022-05-14T11:28:06Z</time>
      </trkpt>
      <trkpt lat="47.20909" lon="-1.55557">
        <ele>64</ele>
        <time>2022-05-14T11:28:08Z</time>
      </trkpt>
      <trkpt lat="47.20898" lon="-1.55555">
        <ele>62</ele>
        <time>2022-05-14T11:28:10Z</time>
      </trkpt>
      <trkpt lat="47.20888" lon="-1.55553">
        <ele>61</ele>
        <time>2022-05-14T11:28:12Z</time>
      </trkpt>
      <trkpt lat="47.20875" lon="-1.55549">
        <ele>60</ele>
        <time>2022-05-14T11:28:15Z</time>
      </trkpt>
      <trkpt lat="47.20866" lon="-1.55546">
        <ele>60</ele>
        <time>2022-05-14T11:28:17Z</time>
      </trkpt>
      <trkpt lat="47.20856" lon="-1.55544">
        <ele>60</ele>
        <time>2022-05-14T11:28:19Z</time>
      </trkpt>
      <trkpt lat="47.20846" lon="-1.55543">
        <ele>59</ele>
        <time>2022-05-14T11:28:21Z</time>
      </trkpt>
      <trkpt lat="47.20837" lon="-1.5554">
        <ele>59</ele>
        <time>2022-05-14T11:28:23Z</time>
      </trkpt>
      <trkpt lat="47.20827" lon="-1.55538">
        <ele>58</ele>
        <time>2022-05-14T11:28:25Z</time>
      </trkpt>
      <trkpt lat="47.20817" lon="-1.55535">
        <ele>57</ele>
        <time>2022-05-14T11:28:27Z</time>
      </trkpt>
      <trkpt lat="47.20808" lon="-1.55533">
        <ele>57</ele>
        <time>2022-05-14T11:28:29Z</time>
      </trkpt>
      <trkpt lat="47.20798" lon="-1.5553">
        <ele>57</ele>
        <time>2022-05-14T11:28:31Z</time>
      </trkpt>
      <trkpt lat="47.20786" lon="-1.55528">
        <ele>57</ele>
        <time>2022-05-14T11:28:33Z</time>
      </trkpt>
      <trkpt lat="47.20775" lon="-1.55526">
        <ele>56</ele>
        <time>2022-05-14T11:28:35Z</time>
      </trkpt>
      <trkpt lat="47.20762" lon="-1.55523">
        <ele>56</ele>
        <time>2022-05-14T11:28:37Z</time>
      </trkpt>
      <trkpt lat="47.20749" lon="-1.5552">
        <ele>55</ele>
        <time>2022-05-14T11:28:39Z</time>
      </trkpt>
      <trkpt lat="47.20736" lon="-1.55515">
        <ele>54</ele>
        <time>2022-05-14T11:28:41Z</time>
      </trkpt>
      <trkpt lat="47.20723" lon="-1.55509">
        <ele>55</ele>
        <time>2022-05-14T11:28:43Z</time>
      </trkpt>
      <trkpt lat="47.20711" lon="-1.55508">
        <ele>55</ele>
        <time>2022-05-14T11:28:45Z</time>
      </trkpt>
      <trkpt lat="47.20699" lon="-1.55507">
        <ele>56</ele>
        <time>2022-05-14T11:28:47Z</time>
      </trkpt>
      <trkpt lat="47.20689" lon="-1.55506">
        <ele>57</ele>
        <time>2022-05-14T11:28:49Z</time>
      </trkpt>
      <trkpt lat="47.2068" lon="-1.55504">
        <ele>57</ele>
        <time>2022-05-14T11:28:51Z</time>
      </trkpt>
      <trkpt lat="47.20669" lon="-1.55502">
        <ele>59</ele>
        <time>2022-05-14T11:28:57Z</time>
      </trkpt>
      <trkpt lat="47.20654" lon="-1.55497">
        <ele>60</ele>
        <time>2022-05-14T11:29:01Z</time>
      </trkpt>
      <trkpt lat="47.20645" lon="-1.55493">
        <ele>61</ele>
        <time>2022-05-14T11:29:03Z</time>
      </trkpt>
      <trkpt lat="47.20634" lon="-1.55491">
        <ele>62</ele>
        <time>2022-05-14T11:29:05Z</time>
      </trkpt>
      <trkpt lat="47.20622" lon="-1.5549">
        <ele>63</ele>
        <time>2022-05-14T11:29:07Z</time>
      </trkpt>
      <trkpt lat="47.20611" lon="-1.55487">
        <ele>64</ele>
        <time>2022-05-14T11:29:09Z</time>
      </trkpt>
      <trkpt lat="47.20599" lon="-1.55481">
        <ele>66</ele>
        <time>2022-05-14T11:29:11Z</time>
      </trkpt>
      <trkpt lat="47.20589" lon="-1.55476">
        <ele>67</ele>
        <time>2022-05-14T11:29:13Z</time>
      </trkpt>
      <trkpt lat="47.20579" lon="-1.55473">
        <ele>67</ele>
        <time>2022-05-14T11:29:15Z</time>
      </trkpt>
      <trkpt lat="47.20568" lon="-1.55475">
        <ele>65</ele>
        <time>2022-05-14T11:29:17Z</time>
      </trkpt>
      <trkpt lat="47.20556" lon="-1.55484">
        <ele>66</ele>
        <time>2022-05-14T11:29:19Z</time>
      </trkpt>
      <trkpt lat="47.20545" lon="-1.55493">
        <ele>67</ele>
        <time>2022-05-14T11:29:21Z</time>
      </trkpt>
      <trkpt lat="47.20532" lon="-1.55497">
        <ele>67</ele>
        <time>2022-05-14T11:29:23Z</time>
      </trkpt>
      <trkpt lat="47.20519" lon="-1.55494">
        <ele>67</ele>
        <time>2022-05-14T11:29:25Z</time>
      </trkpt>
      <trkpt lat="47.20507" lon="-1.55486">
        <ele>67</ele>
        <time>2022-05-14T11:29:27Z</time>
      </trkpt>
      <trkpt lat="47.20499" lon="-1.55474">
        <ele>68</ele>
        <time>2022-05-14T11:29:29Z</time>
      </trkpt>
      <trkpt lat="47.20498" lon="-1.55459">
        <ele>68</ele>
        <time>2022-05-14T11:29:31Z</time>
      </trkpt>
      <trkpt lat="47.20504" lon="-1.55439">
        <ele>67</ele>
        <time>2022-05-14T11:29:33Z</time>
      </trkpt>
      <trkpt lat="47.20503" lon="-1.55421">
        <ele>66</ele>
        <time>2022-05-14T11:29:35Z</time>
      </trkpt>
      <trkpt lat="47.20497" lon="-1.55407">
        <ele>66</ele>
        <time>2022-05-14T11:29:37Z</time>
      </trkpt>
      <trkpt lat="47.20492" lon="-1.55396">
        <ele>67</ele>
        <time>2022-05-14T11:29:39Z</time>
      </trkpt>
      <trkpt lat="47.20486" lon="-1.55382">
        <ele>68</ele>
        <time>2022-05-14T11:29:42Z</time>
      </trkpt>
      <trkpt lat="47.2048" lon="-1.55371">
        <ele>67</ele>
        <time>2022-05-14T11:29:48Z</time>
      </trkpt>
      <trkpt lat="47.20474" lon="-1.55357">
        <ele>64</ele>
        <time>2022-05-14T11:30:06Z</time>
      </trkpt>
      <trkpt lat="47.20467" lon="-1.55345">
        <ele>65</ele>
        <time>2022-05-14T11:30:08Z</time>
      </trkpt>
      <trkpt lat="47.20461" lon="-1.55327">
        <ele>63</ele>
        <time>2022-05-14T11:30:10Z</time>
      </trkpt>
      <trkpt lat="47.20453" lon="-1.55313">
        <ele>62</ele>
        <time>2022-05-14T11:30:12Z</time>
      </trkpt>
      <trkpt lat="47.20444" lon="-1.55301">
        <ele>63</ele>
        <time>2022-05-14T11:30:14Z</time>
      </trkpt>
      <trkpt lat="47.20434" lon="-1.55291">
        <ele>62</ele>
        <time>2022-05-14T11:30:16Z</time>
      </trkpt>
      <trkpt lat="47.20425" lon="-1.55276">
        <ele>62</ele>
        <time>2022-05-14T11:30:18Z</time>
      </trkpt>
      <trkpt lat="47.20418" lon="-1.55257">
        <ele>63</ele>
        <time>2022-05-14T11:30:20Z</time>
      </trkpt>
      <trkpt lat="47.20411" lon="-1.55243">
        <ele>64</ele>
        <time>2022-05-14T11:30:22Z</time>
      </trkpt>
      <trkpt lat="47.20404" lon="-1.5523">
        <ele>64</ele>
        <time>2022-05-14T11:30:24Z</time>
      </trkpt>
      <trkpt lat="47.20399" lon="-1.55213">
        <ele>63</ele>
        <time>2022-05-14T11:30:26Z</time>
      </trkpt>
      <trkpt lat="47.20394" lon="-1.55195">
        <ele>60</ele>
        <time>2022-05-14T11:30:28Z</time>
      </trkpt>
      <trkpt lat="47.20383" lon="-1.55188">
        <ele>61</ele>
        <time>2022-05-14T11:30:30Z</time>
      </trkpt>
      <trkpt lat="47.20372" lon="-1.55194">
        <ele>61</ele>
        <time>2022-05-14T11:30:32Z</time>
      </trkpt>
      <trkpt lat="47.20362" lon="-1.55205">
        <ele>60</ele>
        <time>2022-05-14T11:30:34Z</time>
      </trkpt>
      <trkpt lat="47.20351" lon="-1.55218">
        <ele>59</ele>
        <time>2022-05-14T11:30:36Z</time>
      </trkpt>
      <trkpt lat="47.20341" lon="-1.55231">
        <ele>58</ele>
        <time>2022-05-14T11:30:38Z</time>
      </trkpt>
      <trkpt lat="47.20331" lon="-1.55244">
        <ele>58</ele>
        <time>2022-05-14T11:30:40Z</time>
      </trkpt>
      <trkpt lat="47.20321" lon="-1.55254">
        <ele>57</ele>
        <time>2022-05-14T11:30:42Z</time>
      </trkpt>
      <trkpt lat="47.20312" lon="-1.55266">
        <ele>58</ele>
        <time>2022-05-14T11:30:44Z</time>
      </trkpt>
      <trkpt lat="47.20302" lon="-1.55277">
        <ele>58</ele>
        <time>2022-05-14T11:30:46Z</time>
      </trkpt>
      <trkpt lat="47.20293" lon="-1.55289">
        <ele>59</ele>
        <time>2022-05-14T11:30:48Z</time>
      </trkpt>
      <trkpt lat="47.20284" lon="-1.553">
        <ele>59</ele>
        <time>2022-05-14T11:30:50Z</time>
      </trkpt>
      <trkpt lat="47.20274" lon="-1.55312">
        <ele>59</ele>
        <time>2022-05-14T11:30:52Z</time>
      </trkpt>
      <trkpt lat="47.20265" lon="-1.55325">
        <ele>58</ele>
        <time>2022-05-14T11:30:54Z</time>
      </trkpt>
      <trkpt lat="47.20255" lon="-1.55338">
        <ele>58</ele>
        <time>2022-05-14T11:30:56Z</time>
      </trkpt>
      <trkpt lat="47.20246" lon="-1.55352">
        <ele>58</ele>
        <time>2022-05-14T11:30:58Z</time>
      </trkpt>
      <trkpt lat="47.20238" lon="-1.55362">
        <ele>57</ele>
        <time>2022-05-14T11:31:00Z</time>
      </trkpt>
      <trkpt lat="47.20232" lon="-1.55374">
        <ele>59</ele>
        <time>2022-05-14T11:31:04Z</time>
      </trkpt>
      <trkpt lat="47.20224" lon="-1.55385">
        <ele>60</ele>
        <time>2022-05-14T11:31:06Z</time>
      </trkpt>
      <trkpt lat="47.20215" lon="-1.55394">
        <ele>58</ele>
        <time>2022-05-14T11:31:08Z</time>
      </trkpt>
      <trkpt lat="47.20207" lon="-1.55405">
        <ele>58</ele>
        <time>2022-05-14T11:31:10Z</time>
      </trkpt>
      <trkpt lat="47.202" lon="-1.55415">
        <ele>58</ele>
        <time>2022-05-14T11:31:12Z</time>
      </trkpt>
      <trkpt lat="47.20197" lon="-1.55429">
        <ele>59</ele>
        <time>2022-05-14T11:31:14Z</time>
      </trkpt>
      <trkpt lat="47.20191" lon="-1.55443">
        <ele>59</ele>
        <time>2022-05-14T11:31:16Z</time>
      </trkpt>
      <trkpt lat="47.20185" lon="-1.55459">
        <ele>59</ele>
        <time>2022-05-14T11:31:18Z</time>
      </trkpt>
      <trkpt lat="47.2018" lon="-1.55476">
        <ele>59</ele>
        <time>2022-05-14T11:31:20Z</time>
      </trkpt>
      <trkpt lat="47.20177" lon="-1.55494">
        <ele>58</ele>
        <time>2022-05-14T11:31:22Z</time>
      </trkpt>
      <trkpt lat="47.20178" lon="-1.55512">
        <ele>57</ele>
        <time>2022-05-14T11:31:24Z</time>
      </trkpt>
      <trkpt lat="47.20185" lon="-1.55526">
        <ele>57</ele>
        <time>2022-05-14T11:31:26Z</time>
      </trkpt>
      <trkpt lat="47.20195" lon="-1.55536">
        <ele>55</ele>
        <time>2022-05-14T11:31:28Z</time>
      </trkpt>
      <trkpt lat="47.20206" lon="-1.55541">
        <ele>55</ele>
        <time>2022-05-14T11:31:30Z</time>
      </trkpt>
      <trkpt lat="47.20217" lon="-1.55547">
        <ele>55</ele>
        <time>2022-05-14T11:31:32Z</time>
      </trkpt>
      <trkpt lat="47.20228" lon="-1.55552">
        <ele>54</ele>
        <time>2022-05-14T11:31:34Z</time>
      </trkpt>
      <trkpt lat="47.20239" lon="-1.55557">
        <ele>54</ele>
        <time>2022-05-14T11:31:36Z</time>
      </trkpt>
      <trkpt lat="47.2025" lon="-1.55562">
        <ele>54</ele>
        <time>2022-05-14T11:31:38Z</time>
      </trkpt>
      <trkpt lat="47.20262" lon="-1.55564">
        <ele>54</ele>
        <time>2022-05-14T11:31:40Z</time>
      </trkpt>
      <trkpt lat="47.20273" lon="-1.55566">
        <ele>55</ele>
        <time>2022-05-14T11:31:42Z</time>
      </trkpt>
      <trkpt lat="47.20284" lon="-1.55571">
        <ele>55</ele>
        <time>2022-05-14T11:31:44Z</time>
      </trkpt>
      <trkpt lat="47.20293" lon="-1.55581">
        <ele>54</ele>
        <time>2022-05-14T11:31:46Z</time>
      </trkpt>
      <trkpt lat="47.20297" lon="-1.55596">
        <ele>54</ele>
        <time>2022-05-14T11:31:48Z</time>
      </trkpt>
      <trkpt lat="47.20295" lon="-1.55613">
        <ele>54</ele>
        <time>2022-05-14T11:31:50Z</time>
      </trkpt>
      <trkpt lat="47.20293" lon="-1.5563">
        <ele>54</ele>
        <time>2022-05-14T11:31:52Z</time>
      </trkpt>
      <trkpt lat="47.20291" lon="-1.55648">
        <ele>54</ele>
        <time>2022-05-14T11:31:54Z</time>
      </trkpt>
      <trkpt lat="47.20289" lon="-1.55667">
        <ele>54</ele>
        <time>2022-05-14T11:31:56Z</time>
      </trkpt>
      <trkpt lat="47.20288" lon="-1.55686">
        <ele>54</ele>
        <time>2022-05-14T11:31:58Z</time>
      </trkpt>
      <trkpt lat="47.20286" lon="-1.55704">
        <ele>54</ele>
        <time>2022-05-14T11:32:00Z</time>
      </trkpt>
      <trkpt lat="47.20283" lon="-1.55723">
        <ele>54</ele>
        <time>2022-05-14T11:32:02Z</time>
      </trkpt>
      <trkpt lat="47.20282" lon="-1.55742">
        <ele>54</ele>
        <time>2022-05-14T11:32:04Z</time>
      </trkpt>
      <trkpt lat="47.20279" lon="-1.55762">
        <ele>54</ele>
        <time>2022-05-14T11:32:06Z</time>
      </trkpt>
      <trkpt lat="47.20277" lon="-1.5578">
        <ele>54</ele>
        <time>2022-05-14T11:32:08Z</time>
      </trkpt>
      <trkpt lat="47.20275" lon="-1.55799">
        <ele>54</ele>
        <time>2022-05-14T11:32:10Z</time>
      </trkpt>
      <trkpt lat="47.20274" lon="-1.55818">
        <ele>54</ele>
        <time>2022-05-14T11:32:12Z</time>
      </trkpt>
      <trkpt lat="47.20272" lon="-1.55836">
        <ele>54</ele>
        <time>2022-05-14T11:32:14Z</time>
      </trkpt>
      <trkpt lat="47.2027" lon="-1.55854">
        <ele>54</ele>
        <time>2022-05-14T11:32:16Z</time>
      </trkpt>
      <trkpt lat="47.20268" lon="-1.55873">
        <ele>55</ele>
        <time>2022-05-14T11:32:18Z</time>
      </trkpt>
      <trkpt lat="47.20266" lon="-1.55892">
        <ele>55</ele>
        <time>2022-05-14T11:32:20Z</time>
      </trkpt>
      <trkpt lat="47.20264" lon="-1.55911">
        <ele>55</ele>
        <time>2022-05-14T11:32:22Z</time>
      </trkpt>
      <trkpt lat="47.20262" lon="-1.5593">
        <ele>55</ele>
        <time>2022-05-14T11:32:24Z</time>
      </trkpt>
      <trkpt lat="47.2026" lon="-1.55949">
        <ele>55</ele>
        <time>2022-05-14T11:32:26Z</time>
      </trkpt>
      <trkpt lat="47.20258" lon="-1.55969">
        <ele>54</ele>
        <time>2022-05-14T11:32:28Z</time>
      </trkpt>
      <trkpt lat="47.20255" lon="-1.55989">
        <ele>54</ele>
        <time>2022-05-14T11:32:30Z</time>
      </trkpt>
      <trkpt lat="47.20253" lon="-1.56008">
        <ele>54</ele>
        <time>2022-05-14T11:32:32Z</time>
      </trkpt>
      <trkpt lat="47.2025" lon="-1.56029">
        <ele>55</ele>
        <time>2022-05-14T11:32:34Z</time>
      </trkpt>
      <trkpt lat="47.20248" lon="-1.56049">
        <ele>55</ele>
        <time>2022-05-14T11:32:36Z</time>
      </trkpt>
      <trkpt lat="47.20246" lon="-1.5607">
        <ele>54</ele>
        <time>2022-05-14T11:32:38Z</time>
      </trkpt>
      <trkpt lat="47.20244" lon="-1.56091">
        <ele>54</ele>
        <time>2022-05-14T11:32:40Z</time>
      </trkpt>
      <trkpt lat="47.20242" lon="-1.5611">
        <ele>54</ele>
        <time>2022-05-14T11:32:42Z</time>
      </trkpt>
      <trkpt lat="47.20238" lon="-1.56128">
        <ele>54</ele>
        <time>2022-05-14T11:32:44Z</time>
      </trkpt>
      <trkpt lat="47.20231" lon="-1.56144">
        <ele>54</ele>
        <time>2022-05-14T11:32:46Z</time>
      </trkpt>
      <trkpt lat="47.20222" lon="-1.56157">
        <ele>54</ele>
        <time>2022-05-14T11:32:48Z</time>
      </trkpt>
      <trkpt lat="47.2021" lon="-1.56168">
        <ele>54</ele>
        <time>2022-05-14T11:32:50Z</time>
      </trkpt>
      <trkpt lat="47.20199" lon="-1.56174">
        <ele>54</ele>
        <time>2022-05-14T11:32:52Z</time>
      </trkpt>
      <trkpt lat="47.20187" lon="-1.56181">
        <ele>54</ele>
        <time>2022-05-14T11:32:54Z</time>
      </trkpt>
      <trkpt lat="47.20178" lon="-1.56192">
        <ele>54</ele>
        <time>2022-05-14T11:32:56Z</time>
      </trkpt>
      <trkpt lat="47.20166" lon="-1.56195">
        <ele>53</ele>
        <time>2022-05-14T11:32:58Z</time>
      </trkpt>
      <trkpt lat="47.20155" lon="-1.56188">
        <ele>53</ele>
        <time>2022-05-14T11:33:00Z</time>
      </trkpt>
      <trkpt lat="47.20143" lon="-1.56182">
        <ele>53</ele>
        <time>2022-05-14T11:33:02Z</time>
      </trkpt>
      <trkpt lat="47.20131" lon="-1.56182">
        <ele>53</ele>
        <time>2022-05-14T11:33:04Z</time>
      </trkpt>
      <trkpt lat="47.20118" lon="-1.56182">
        <ele>53</ele>
        <time>2022-05-14T11:33:06Z</time>
      </trkpt>
      <trkpt lat="47.20106" lon="-1.56181">
        <ele>54</ele>
        <time>2022-05-14T11:33:08Z</time>
      </trkpt>
      <trkpt lat="47.20093" lon="-1.56182">
        <ele>54</ele>
        <time>2022-05-14T11:33:10Z</time>
      </trkpt>
      <trkpt lat="47.2008" lon="-1.56181">
        <ele>54</ele>
        <time>2022-05-14T11:33:12Z</time>
      </trkpt>
      <trkpt lat="47.20068" lon="-1.56181">
        <ele>55</ele>
        <time>2022-05-14T11:33:14Z</time>
      </trkpt>
      <trkpt lat="47.20056" lon="-1.56182">
        <ele>55</ele>
        <time>2022-05-14T11:33:16Z</time>
      </trkpt>
      <trkpt lat="47.20045" lon="-1.56182">
        <ele>55</ele>
        <time>2022-05-14T11:33:18Z</time>
      </trkpt>
      <trkpt lat="47.20033" lon="-1.56182">
        <ele>55</ele>
        <time>2022-05-14T11:33:20Z</time>
      </trkpt>
      <trkpt lat="47.20021" lon="-1.56183">
        <ele>55</ele>
        <time>2022-05-14T11:33:22Z</time>
      </trkpt>
      <trkpt lat="47.20011" lon="-1.56186">
        <ele>56</ele>
        <time>2022-05-14T11:33:24Z</time>
      </trkpt>
      <trkpt lat="47.20001" lon="-1.56191">
        <ele>56</ele>
        <time>2022-05-14T11:33:26Z</time>
      </trkpt>
      <trkpt lat="47.19991" lon="-1.56194">
        <ele>56</ele>
        <time>2022-05-14T11:33:28Z</time>
      </trkpt>
      <trkpt lat="47.19979" lon="-1.56191">
        <ele>56</ele>
        <time>2022-05-14T11:33:30Z</time>
      </trkpt>
      <trkpt lat="47.19973" lon="-1.56177">
        <ele>55</ele>
        <time>2022-05-14T11:33:32Z</time>
      </trkpt>
      <trkpt lat="47.19967" lon="-1.56166">
        <ele>56</ele>
        <time>2022-05-14T11:33:34Z</time>
      </trkpt>
      <trkpt lat="47.19956" lon="-1.56167">
        <ele>57</ele>
        <time>2022-05-14T11:33:36Z</time>
      </trkpt>
      <trkpt lat="47.19946" lon="-1.5617">
        <ele>57</ele>
        <time>2022-05-14T11:33:38Z</time>
      </trkpt>
      <trkpt lat="47.19934" lon="-1.56174">
        <ele>58</ele>
        <time>2022-05-14T11:33:40Z</time>
      </trkpt>
      <trkpt lat="47.19922" lon="-1.56177">
        <ele>58</ele>
        <time>2022-05-14T11:33:42Z</time>
      </trkpt>
      <trkpt lat="47.19909" lon="-1.56179">
        <ele>58</ele>
        <time>2022-05-14T11:33:44Z</time>
      </trkpt>
      <trkpt lat="47.19896" lon="-1.56181">
        <ele>59</ele>
        <time>2022-05-14T11:33:46Z</time>
      </trkpt>
      <trkpt lat="47.19885" lon="-1.56182">
        <ele>59</ele>
        <time>2022-05-14T11:33:48Z</time>
      </trkpt>
      <trkpt lat="47.19873" lon="-1.56183">
        <ele>60</ele>
        <time>2022-05-14T11:33:50Z</time>
      </trkpt>
      <trkpt lat="47.19863" lon="-1.56185">
        <ele>60</ele>
        <time>2022-05-14T11:33:52Z</time>
      </trkpt>
      <trkpt lat="47.19853" lon="-1.56187">
        <ele>60</ele>
        <time>2022-05-14T11:33:54Z</time>
      </trkpt>
      <trkpt lat="47.19842" lon="-1.56189">
        <ele>60</ele>
        <time>2022-05-14T11:33:56Z</time>
      </trkpt>
      <trkpt lat="47.19832" lon="-1.56191">
        <ele>60</ele>
        <time>2022-05-14T11:33:58Z</time>
      </trkpt>
      <trkpt lat="47.19822" lon="-1.56192">
        <ele>60</ele>
        <time>2022-05-14T11:34:00Z</time>
      </trkpt>
      <trkpt lat="47.19812" lon="-1.56194">
        <ele>60</ele>
        <time>2022-05-14T11:34:02Z</time>
      </trkpt>
      <trkpt lat="47.19801" lon="-1.56197">
        <ele>60</ele>
        <time>2022-05-14T11:34:04Z</time>
      </trkpt>
      <trkpt lat="47.19791" lon="-1.56199">
        <ele>60</ele>
        <time>2022-05-14T11:34:06Z</time>
      </trkpt>
      <trkpt lat="47.1978" lon="-1.562">
        <ele>59</ele>
        <time>2022-05-14T11:34:08Z</time>
      </trkpt>
      <trkpt lat="47.1977" lon="-1.56202">
        <ele>59</ele>
        <time>2022-05-14T11:34:10Z</time>
      </trkpt>
      <trkpt lat="47.19759" lon="-1.56205">
        <ele>59</ele>
        <time>2022-05-14T11:34:12Z</time>
      </trkpt>
      <trkpt lat="47.19748" lon="-1.56207">
        <ele>59</ele>
        <time>2022-05-14T11:34:14Z</time>
      </trkpt>
      <trkpt lat="47.19737" lon="-1.56209">
        <ele>59</ele>
        <time>2022-05-14T11:34:16Z</time>
      </trkpt>
      <trkpt lat="47.19725" lon="-1.56211">
        <ele>58</ele>
        <time>2022-05-14T11:34:18Z</time>
      </trkpt>
      <trkpt lat="47.19712" lon="-1.56214">
        <ele>58</ele>
        <time>2022-05-14T11:34:20Z</time>
      </trkpt>
      <trkpt lat="47.19698" lon="-1.56216">
        <ele>57</ele>
        <time>2022-05-14T11:34:22Z</time>
      </trkpt>
      <trkpt lat="47.19684" lon="-1.56218">
        <ele>57</ele>
        <time>2022-05-14T11:34:24Z</time>
      </trkpt>
      <trkpt lat="47.19669" lon="-1.56223">
        <ele>56</ele>
        <time>2022-05-14T11:34:26Z</time>
      </trkpt>
      <trkpt lat="47.19654" lon="-1.56228">
        <ele>55</ele>
        <time>2022-05-14T11:34:28Z</time>
      </trkpt>
      <trkpt lat="47.1964" lon="-1.56236">
        <ele>55</ele>
        <time>2022-05-14T11:34:30Z</time>
      </trkpt>
      <trkpt lat="47.19635" lon="-1.56258">
        <ele>54</ele>
        <time>2022-05-14T11:34:32Z</time>
      </trkpt>
      <trkpt lat="47.19634" lon="-1.5628">
        <ele>54</ele>
        <time>2022-05-14T11:34:34Z</time>
      </trkpt>
      <trkpt lat="47.19633" lon="-1.563">
        <ele>54</ele>
        <time>2022-05-14T11:34:36Z</time>
      </trkpt>
      <trkpt lat="47.19632" lon="-1.56321">
        <ele>54</ele>
        <time>2022-05-14T11:34:38Z</time>
      </trkpt>
      <trkpt lat="47.19632" lon="-1.5634">
        <ele>55</ele>
        <time>2022-05-14T11:34:40Z</time>
      </trkpt>
      <trkpt lat="47.19632" lon="-1.56359">
        <ele>55</ele>
        <time>2022-05-14T11:34:42Z</time>
      </trkpt>
      <trkpt lat="47.19632" lon="-1.56378">
        <ele>54</ele>
        <time>2022-05-14T11:34:44Z</time>
      </trkpt>
      <trkpt lat="47.19632" lon="-1.56398">
        <ele>54</ele>
        <time>2022-05-14T11:34:46Z</time>
      </trkpt>
      <trkpt lat="47.19633" lon="-1.56417">
        <ele>54</ele>
        <time>2022-05-14T11:34:48Z</time>
      </trkpt>
      <trkpt lat="47.19634" lon="-1.56436">
        <ele>54</ele>
        <time>2022-05-14T11:34:50Z</time>
      </trkpt>
      <trkpt lat="47.19634" lon="-1.56456">
        <ele>53</ele>
        <time>2022-05-14T11:34:52Z</time>
      </trkpt>
      <trkpt lat="47.19635" lon="-1.56475">
        <ele>53</ele>
        <time>2022-05-14T11:34:54Z</time>
      </trkpt>
      <trkpt lat="47.19636" lon="-1.56493">
        <ele>54</ele>
        <time>2022-05-14T11:34:56Z</time>
      </trkpt>
      <trkpt lat="47.19636" lon="-1.56512">
        <ele>53</ele>
        <time>2022-05-14T11:34:58Z</time>
      </trkpt>
      <trkpt lat="47.19635" lon="-1.5653">
        <ele>54</ele>
        <time>2022-05-14T11:35:00Z</time>
      </trkpt>
      <trkpt lat="47.19635" lon="-1.56548">
        <ele>54</ele>
        <time>2022-05-14T11:35:02Z</time>
      </trkpt>
      <trkpt lat="47.19634" lon="-1.56567">
        <ele>55</ele>
        <time>2022-05-14T11:35:04Z</time>
      </trkpt>
      <trkpt lat="47.19633" lon="-1.56586">
        <ele>55</ele>
        <time>2022-05-14T11:35:06Z</time>
      </trkpt>
      <trkpt lat="47.19632" lon="-1.56606">
        <ele>56</ele>
        <time>2022-05-14T11:35:08Z</time>
      </trkpt>
      <trkpt lat="47.19631" lon="-1.56626">
        <ele>56</ele>
        <time>2022-05-14T11:35:10Z</time>
      </trkpt>
      <trkpt lat="47.1963" lon="-1.56646">
        <ele>56</ele>
        <time>2022-05-14T11:35:12Z</time>
      </trkpt>
      <trkpt lat="47.19629" lon="-1.56666">
        <ele>57</ele>
        <time>2022-05-14T11:35:14Z</time>
      </trkpt>
      <trkpt lat="47.19628" lon="-1.56685">
        <ele>58</ele>
        <time>2022-05-14T11:35:16Z</time>
      </trkpt>
      <trkpt lat="47.19627" lon="-1.56704">
        <ele>59</ele>
        <time>2022-05-14T11:35:18Z</time>
      </trkpt>
      <trkpt lat="47.19626" lon="-1.56724">
        <ele>59</ele>
        <time>2022-05-14T11:35:20Z</time>
      </trkpt>
      <trkpt lat="47.19625" lon="-1.56745">
        <ele>58</ele>
        <time>2022-05-14T11:35:22Z</time>
      </trkpt>
      <trkpt lat="47.19623" lon="-1.56764">
        <ele>58</ele>
        <time>2022-05-14T11:35:24Z</time>
      </trkpt>
      <trkpt lat="47.19621" lon="-1.56783">
        <ele>58</ele>
        <time>2022-05-14T11:35:26Z</time>
      </trkpt>
      <trkpt lat="47.1962" lon="-1.56803">
        <ele>57</ele>
        <time>2022-05-14T11:35:28Z</time>
      </trkpt>
      <trkpt lat="47.19618" lon="-1.56821">
        <ele>56</ele>
        <time>2022-05-14T11:35:30Z</time>
      </trkpt>
      <trkpt lat="47.19617" lon="-1.5684">
        <ele>56</ele>
        <time>2022-05-14T11:35:32Z</time>
      </trkpt>
      <trkpt lat="47.19616" lon="-1.56859">
        <ele>57</ele>
        <time>2022-05-14T11:35:34Z</time>
      </trkpt>
      <trkpt lat="47.19616" lon="-1.56878">
        <ele>57</ele>
        <time>2022-05-14T11:35:36Z</time>
      </trkpt>
      <trkpt lat="47.19614" lon="-1.56897">
        <ele>57</ele>
        <time>2022-05-14T11:35:38Z</time>
      </trkpt>
      <trkpt lat="47.19613" lon="-1.56916">
        <ele>57</ele>
        <time>2022-05-14T11:35:40Z</time>
      </trkpt>
      <trkpt lat="47.19612" lon="-1.56934">
        <ele>57</ele>
        <time>2022-05-14T11:35:42Z</time>
      </trkpt>
      <trkpt lat="47.19611" lon="-1.56953">
        <ele>56</ele>
        <time>2022-05-14T11:35:44Z</time>
      </trkpt>
      <trkpt lat="47.1961" lon="-1.56972">
        <ele>55</ele>
        <time>2022-05-14T11:35:46Z</time>
      </trkpt>
      <trkpt lat="47.19608" lon="-1.56992">
        <ele>55</ele>
        <time>2022-05-14T11:35:48Z</time>
      </trkpt>
      <trkpt lat="47.19607" lon="-1.57011">
        <ele>55</ele>
        <time>2022-05-14T11:35:50Z</time>
      </trkpt>
      <trkpt lat="47.19606" lon="-1.57029">
        <ele>55</ele>
        <time>2022-05-14T11:35:52Z</time>
      </trkpt>
      <trkpt lat="47.19604" lon="-1.57048">
        <ele>56</ele>
        <time>2022-05-14T11:35:54Z</time>
      </trkpt>
      <trkpt lat="47.19604" lon="-1.57067">
        <ele>56</ele>
        <time>2022-05-14T11:35:56Z</time>
      </trkpt>
      <trkpt lat="47.19603" lon="-1.57084">
        <ele>56</ele>
        <time>2022-05-14T11:35:58Z</time>
      </trkpt>
      <trkpt lat="47.19601" lon="-1.57101">
        <ele>56</ele>
        <time>2022-05-14T11:36:00Z</time>
      </trkpt>
      <trkpt lat="47.196" lon="-1.5712">
        <ele>56</ele>
        <time>2022-05-14T11:36:02Z</time>
      </trkpt>
      <trkpt lat="47.19599" lon="-1.57138">
        <ele>55</ele>
        <time>2022-05-14T11:36:04Z</time>
      </trkpt>
      <trkpt lat="47.19597" lon="-1.57156">
        <ele>54</ele>
        <time>2022-05-14T11:36:06Z</time>
      </trkpt>
      <trkpt lat="47.19595" lon="-1.57173">
        <ele>54</ele>
        <time>2022-05-14T11:36:08Z</time>
      </trkpt>
      <trkpt lat="47.19595" lon="-1.57192">
        <ele>55</ele>
        <time>2022-05-14T11:36:10Z</time>
      </trkpt>
      <trkpt lat="47.19594" lon="-1.57212">
        <ele>55</ele>
        <time>2022-05-14T11:36:12Z</time>
      </trkpt>
      <trkpt lat="47.19594" lon="-1.57231">
        <ele>55</ele>
        <time>2022-05-14T11:36:14Z</time>
      </trkpt>
      <trkpt lat="47.19592" lon="-1.57249">
        <ele>54</ele>
        <time>2022-05-14T11:36:16Z</time>
      </trkpt>
      <trkpt lat="47.1959" lon="-1.57267">
        <ele>54</ele>
        <time>2022-05-14T11:36:18Z</time>
      </trkpt>
      <trkpt lat="47.19588" lon="-1.57286">
        <ele>54</ele>
        <time>2022-05-14T11:36:20Z</time>
      </trkpt>
      <trkpt lat="47.19588" lon="-1.57305">
        <ele>55</ele>
        <time>2022-05-14T11:36:22Z</time>
      </trkpt>
      <trkpt lat="47.19586" lon="-1.57323">
        <ele>55</ele>
        <time>2022-05-14T11:36:24Z</time>
      </trkpt>
      <trkpt lat="47.19582" lon="-1.5734">
        <ele>55</ele>
        <time>2022-05-14T11:36:26Z</time>
      </trkpt>
      <trkpt lat="47.1958" lon="-1.57357">
        <ele>55</ele>
        <time>2022-05-14T11:36:28Z</time>
      </trkpt>
      <trkpt lat="47.19576" lon="-1.57374">
        <ele>55</ele>
        <time>2022-05-14T11:36:30Z</time>
      </trkpt>
      <trkpt lat="47.19572" lon="-1.5739">
        <ele>55</ele>
        <time>2022-05-14T11:36:32Z</time>
      </trkpt>
      <trkpt lat="47.19568" lon="-1.57407">
        <ele>56</ele>
        <time>2022-05-14T11:36:34Z</time>
      </trkpt>
      <trkpt lat="47.19564" lon="-1.57425">
        <ele>56</ele>
        <time>2022-05-14T11:36:36Z</time>
      </trkpt>
      <trkpt lat="47.19561" lon="-1.57444">
        <ele>56</ele>
        <time>2022-05-14T11:36:38Z</time>
      </trkpt>
      <trkpt lat="47.19558" lon="-1.57461">
        <ele>57</ele>
        <time>2022-05-14T11:36:40Z</time>
      </trkpt>
      <trkpt lat="47.19554" lon="-1.57481">
        <ele>57</ele>
        <time>2022-05-14T11:36:42Z</time>
      </trkpt>
      <trkpt lat="47.19551" lon="-1.575">
        <ele>57</ele>
        <time>2022-05-14T11:36:44Z</time>
      </trkpt>
      <trkpt lat="47.19547" lon="-1.57518">
        <ele>56</ele>
        <time>2022-05-14T11:36:46Z</time>
      </trkpt>
      <trkpt lat="47.19544" lon="-1.57536">
        <ele>55</ele>
        <time>2022-05-14T11:36:48Z</time>
      </trkpt>
      <trkpt lat="47.1954" lon="-1.57553">
        <ele>55</ele>
        <time>2022-05-14T11:36:50Z</time>
      </trkpt>
      <trkpt lat="47.19537" lon="-1.57571">
        <ele>55</ele>
        <time>2022-05-14T11:36:52Z</time>
      </trkpt>
      <trkpt lat="47.19534" lon="-1.5759">
        <ele>55</ele>
        <time>2022-05-14T11:36:54Z</time>
      </trkpt>
      <trkpt lat="47.1953" lon="-1.57609">
        <ele>55</ele>
        <time>2022-05-14T11:36:56Z</time>
      </trkpt>
      <trkpt lat="47.19527" lon="-1.57626">
        <ele>55</ele>
        <time>2022-05-14T11:36:58Z</time>
      </trkpt>
      <trkpt lat="47.19523" lon="-1.57643">
        <ele>55</ele>
        <time>2022-05-14T11:37:00Z</time>
      </trkpt>
      <trkpt lat="47.19519" lon="-1.5766">
        <ele>55</ele>
        <time>2022-05-14T11:37:02Z</time>
      </trkpt>
      <trkpt lat="47.19515" lon="-1.57679">
        <ele>55</ele>
        <time>2022-05-14T11:37:04Z</time>
      </trkpt>
      <trkpt lat="47.19511" lon="-1.57696">
        <ele>55</ele>
        <time>2022-05-14T11:37:06Z</time>
      </trkpt>
      <trkpt lat="47.19507" lon="-1.57714">
        <ele>55</ele>
        <time>2022-05-14T11:37:08Z</time>
      </trkpt>
      <trkpt lat="47.19504" lon="-1.57733">
        <ele>55</ele>
        <time>2022-05-14T11:37:10Z</time>
      </trkpt>
      <trkpt lat="47.195" lon="-1.57751">
        <ele>55</ele>
        <time>2022-05-14T11:37:12Z</time>
      </trkpt>
      <trkpt lat="47.19496" lon="-1.57769">
        <ele>54</ele>
        <time>2022-05-14T11:37:14Z</time>
      </trkpt>
      <trkpt lat="47.19492" lon="-1.57786">
        <ele>54</ele>
        <time>2022-05-14T11:37:16Z</time>
      </trkpt>
      <trkpt lat="47.19489" lon="-1.57804">
        <ele>54</ele>
        <time>2022-05-14T11:37:18Z</time>
      </trkpt>
      <trkpt lat="47.19486" lon="-1.57822">
        <ele>54</ele>
        <time>2022-05-14T11:37:20Z</time>
      </trkpt>
      <trkpt lat="47.19483" lon="-1.5784">
        <ele>54</ele>
        <time>2022-05-14T11:37:22Z</time>
      </trkpt>
      <trkpt lat="47.19481" lon="-1.57857">
        <ele>54</ele>
        <time>2022-05-14T11:37:24Z</time>
      </trkpt>
      <trkpt lat="47.1948" lon="-1.57875">
        <ele>54</ele>
        <time>2022-05-14T11:37:26Z</time>
      </trkpt>
      <trkpt lat="47.19475" lon="-1.57893">
        <ele>53</ele>
        <time>2022-05-14T11:37:28Z</time>
      </trkpt>
      <trkpt lat="47.19473" lon="-1.57912">
        <ele>53</ele>
        <time>2022-05-14T11:37:30Z</time>
      </trkpt>
      <trkpt lat="47.19471" lon="-1.57931">
        <ele>54</ele>
        <time>2022-05-14T11:37:32Z</time>
      </trkpt>
      <trkpt lat="47.19469" lon="-1.5795">
        <ele>54</ele>
        <time>2022-05-14T11:37:34Z</time>
      </trkpt>
      <trkpt lat="47.19467" lon="-1.57967">
        <ele>53</ele>
        <time>2022-05-14T11:37:36Z</time>
      </trkpt>
      <trkpt lat="47.19467" lon="-1.57983">
        <ele>54</ele>
        <time>2022-05-14T11:37:38Z</time>
      </trkpt>
      <trkpt lat="47.19466" lon="-1.58002">
        <ele>54</ele>
        <time>2022-05-14T11:37:40Z</time>
      </trkpt>
      <trkpt lat="47.19463" lon="-1.58021">
        <ele>54</ele>
        <time>2022-05-14T11:37:42Z</time>
      </trkpt>
      <trkpt lat="47.19461" lon="-1.58039">
        <ele>54</ele>
        <time>2022-05-14T11:37:44Z</time>
      </trkpt>
      <trkpt lat="47.19459" lon="-1.58056">
        <ele>54</ele>
        <time>2022-05-14T11:37:46Z</time>
      </trkpt>
      <trkpt lat="47.19457" lon="-1.58073">
        <ele>54</ele>
        <time>2022-05-14T11:37:48Z</time>
      </trkpt>
      <trkpt lat="47.19454" lon="-1.58088">
        <ele>53</ele>
        <time>2022-05-14T11:37:50Z</time>
      </trkpt>
      <trkpt lat="47.19448" lon="-1.58101">
        <ele>53</ele>
        <time>2022-05-14T11:37:52Z</time>
      </trkpt>
      <trkpt lat="47.1944" lon="-1.58112">
        <ele>54</ele>
        <time>2022-05-14T11:37:54Z</time>
      </trkpt>
      <trkpt lat="47.19431" lon="-1.58123">
        <ele>54</ele>
        <time>2022-05-14T11:37:56Z</time>
      </trkpt>
      <trkpt lat="47.19421" lon="-1.58132">
        <ele>53</ele>
        <time>2022-05-14T11:37:58Z</time>
      </trkpt>
      <trkpt lat="47.19413" lon="-1.58143">
        <ele>54</ele>
        <time>2022-05-14T11:38:00Z</time>
      </trkpt>
      <trkpt lat="47.19405" lon="-1.58155">
        <ele>54</ele>
        <time>2022-05-14T11:38:02Z</time>
      </trkpt>
      <trkpt lat="47.19398" lon="-1.58169">
        <ele>54</ele>
        <time>2022-05-14T11:38:04Z</time>
      </trkpt>
      <trkpt lat="47.19392" lon="-1.58183">
        <ele>54</ele>
        <time>2022-05-14T11:38:06Z</time>
      </trkpt>
      <trkpt lat="47.19387" lon="-1.58197">
        <ele>54</ele>
        <time>2022-05-14T11:38:08Z</time>
      </trkpt>
      <trkpt lat="47.19381" lon="-1.58212">
        <ele>55</ele>
        <time>2022-05-14T11:38:10Z</time>
      </trkpt>
      <trkpt lat="47.19375" lon="-1.58227">
        <ele>54</ele>
        <time>2022-05-14T11:38:12Z</time>
      </trkpt>
      <trkpt lat="47.19369" lon="-1.58241">
        <ele>54</ele>
        <time>2022-05-14T11:38:14Z</time>
      </trkpt>
      <trkpt lat="47.19363" lon="-1.58257">
        <ele>54</ele>
        <time>2022-05-14T11:38:16Z</time>
      </trkpt>
      <trkpt lat="47.19357" lon="-1.58271">
        <ele>54</ele>
        <time>2022-05-14T11:38:18Z</time>
      </trkpt>
      <trkpt lat="47.19348" lon="-1.58282">
        <ele>54</ele>
        <time>2022-05-14T11:38:20Z</time>
      </trkpt>
      <trkpt lat="47.19338" lon="-1.58292">
        <ele>53</ele>
        <time>2022-05-14T11:38:22Z</time>
      </trkpt>
      <trkpt lat="47.19328" lon="-1.58302">
        <ele>53</ele>
        <time>2022-05-14T11:38:24Z</time>
      </trkpt>
      <trkpt lat="47.19318" lon="-1.58311">
        <ele>53</ele>
        <time>2022-05-14T11:38:26Z</time>
      </trkpt>
      <trkpt lat="47.19307" lon="-1.58321">
        <ele>53</ele>
        <time>2022-05-14T11:38:28Z</time>
      </trkpt>
      <trkpt lat="47.19298" lon="-1.5833">
        <ele>53</ele>
        <time>2022-05-14T11:38:30Z</time>
      </trkpt>
      <trkpt lat="47.19287" lon="-1.58339">
        <ele>53</ele>
        <time>2022-05-14T11:38:32Z</time>
      </trkpt>
      <trkpt lat="47.19278" lon="-1.58348">
        <ele>53</ele>
        <time>2022-05-14T11:38:34Z</time>
      </trkpt>
      <trkpt lat="47.19268" lon="-1.58358">
        <ele>53</ele>
        <time>2022-05-14T11:38:36Z</time>
      </trkpt>
      <trkpt lat="47.19258" lon="-1.58367">
        <ele>53</ele>
        <time>2022-05-14T11:38:38Z</time>
      </trkpt>
      <trkpt lat="47.19248" lon="-1.58377">
        <ele>53</ele>
        <time>2022-05-14T11:38:40Z</time>
      </trkpt>
      <trkpt lat="47.19238" lon="-1.58387">
        <ele>53</ele>
        <time>2022-05-14T11:38:42Z</time>
      </trkpt>
      <trkpt lat="47.19228" lon="-1.58395">
        <ele>52</ele>
        <time>2022-05-14T11:38:44Z</time>
      </trkpt>
      <trkpt lat="47.19218" lon="-1.58404">
        <ele>52</ele>
        <time>2022-05-14T11:38:46Z</time>
      </trkpt>
      <trkpt lat="47.19208" lon="-1.58413">
        <ele>52</ele>
        <time>2022-05-14T11:38:48Z</time>
      </trkpt>
      <trkpt lat="47.19198" lon="-1.58422">
        <ele>52</ele>
        <time>2022-05-14T11:38:50Z</time>
      </trkpt>
      <trkpt lat="47.19188" lon="-1.58431">
        <ele>52</ele>
        <time>2022-05-14T11:38:52Z</time>
      </trkpt>
      <trkpt lat="47.19178" lon="-1.5844">
        <ele>52</ele>
        <time>2022-05-14T11:38:54Z</time>
      </trkpt>
      <trkpt lat="47.19169" lon="-1.5845">
        <ele>52</ele>
        <time>2022-05-14T11:38:56Z</time>
      </trkpt>
      <trkpt lat="47.19161" lon="-1.58459">
        <ele>52</ele>
        <time>2022-05-14T11:38:58Z</time>
      </trkpt>
      <trkpt lat="47.19153" lon="-1.58468">
        <ele>52</ele>
        <time>2022-05-14T11:39:00Z</time>
      </trkpt>
      <trkpt lat="47.19143" lon="-1.58478">
        <ele>52</ele>
        <time>2022-05-14T11:39:03Z</time>
      </trkpt>
      <trkpt lat="47.19133" lon="-1.58487">
        <ele>53</ele>
        <time>2022-05-14T11:39:05Z</time>
      </trkpt>
      <trkpt lat="47.19123" lon="-1.58496">
        <ele>53</ele>
        <time>2022-05-14T11:39:07Z</time>
      </trkpt>
      <trkpt lat="47.19113" lon="-1.58506">
        <ele>53</ele>
        <time>2022-05-14T11:39:09Z</time>
      </trkpt>
      <trkpt lat="47.19103" lon="-1.58515">
        <ele>53</ele>
        <time>2022-05-14T11:39:11Z</time>
      </trkpt>
      <trkpt lat="47.19093" lon="-1.58524">
        <ele>53</ele>
        <time>2022-05-14T11:39:13Z</time>
      </trkpt>
      <trkpt lat="47.19083" lon="-1.58534">
        <ele>53</ele>
        <time>2022-05-14T11:39:15Z</time>
      </trkpt>
      <trkpt lat="47.19073" lon="-1.58543">
        <ele>53</ele>
        <time>2022-05-14T11:39:17Z</time>
      </trkpt>
      <trkpt lat="47.19064" lon="-1.58554">
        <ele>53</ele>
        <time>2022-05-14T11:39:19Z</time>
      </trkpt>
      <trkpt lat="47.19055" lon="-1.58563">
        <ele>54</ele>
        <time>2022-05-14T11:39:21Z</time>
      </trkpt>
      <trkpt lat="47.19047" lon="-1.58572">
        <ele>54</ele>
        <time>2022-05-14T11:39:23Z</time>
      </trkpt>
      <trkpt lat="47.19038" lon="-1.58582">
        <ele>54</ele>
        <time>2022-05-14T11:39:25Z</time>
      </trkpt>
      <trkpt lat="47.19029" lon="-1.58592">
        <ele>54</ele>
        <time>2022-05-14T11:39:27Z</time>
      </trkpt>
      <trkpt lat="47.1902" lon="-1.58602">
        <ele>54</ele>
        <time>2022-05-14T11:39:29Z</time>
      </trkpt>
      <trkpt lat="47.1901" lon="-1.58611">
        <ele>54</ele>
        <time>2022-05-14T11:39:31Z</time>
      </trkpt>
      <trkpt lat="47.19001" lon="-1.5862">
        <ele>54</ele>
        <time>2022-05-14T11:39:33Z</time>
      </trkpt>
      <trkpt lat="47.18991" lon="-1.58628">
        <ele>54</ele>
        <time>2022-05-14T11:39:35Z</time>
      </trkpt>
      <trkpt lat="47.18981" lon="-1.58638">
        <ele>54</ele>
        <time>2022-05-14T11:39:37Z</time>
      </trkpt>
      <trkpt lat="47.18971" lon="-1.58648">
        <ele>54</ele>
        <time>2022-05-14T11:39:39Z</time>
      </trkpt>
      <trkpt lat="47.18962" lon="-1.58658">
        <ele>53</ele>
        <time>2022-05-14T11:39:41Z</time>
      </trkpt>
      <trkpt lat="47.18951" lon="-1.58667">
        <ele>53</ele>
        <time>2022-05-14T11:39:43Z</time>
      </trkpt>
      <trkpt lat="47.18942" lon="-1.58677">
        <ele>53</ele>
        <time>2022-05-14T11:39:45Z</time>
      </trkpt>
      <trkpt lat="47.18932" lon="-1.58686">
        <ele>53</ele>
        <time>2022-05-14T11:39:47Z</time>
      </trkpt>
      <trkpt lat="47.18922" lon="-1.58695">
        <ele>53</ele>
        <time>2022-05-14T11:39:49Z</time>
      </trkpt>
      <trkpt lat="47.18913" lon="-1.58704">
        <ele>53</ele>
        <time>2022-05-14T11:39:51Z</time>
      </trkpt>
      <trkpt lat="47.18903" lon="-1.58712">
        <ele>53</ele>
        <time>2022-05-14T11:39:53Z</time>
      </trkpt>
      <trkpt lat="47.18893" lon="-1.58719">
        <ele>53</ele>
        <time>2022-05-14T11:39:55Z</time>
      </trkpt>
      <trkpt lat="47.18883" lon="-1.58724">
        <ele>53</ele>
        <time>2022-05-14T11:39:57Z</time>
      </trkpt>
      <trkpt lat="47.18873" lon="-1.58729">
        <ele>53</ele>
        <time>2022-05-14T11:39:59Z</time>
      </trkpt>
      <trkpt lat="47.18864" lon="-1.58735">
        <ele>53</ele>
        <time>2022-05-14T11:40:01Z</time>
      </trkpt>
      <trkpt lat="47.18854" lon="-1.58738">
        <ele>53</ele>
        <time>2022-05-14T11:40:03Z</time>
      </trkpt>
      <trkpt lat="47.18844" lon="-1.58742">
        <ele>53</ele>
        <time>2022-05-14T11:40:05Z</time>
      </trkpt>
      <trkpt lat="47.18836" lon="-1.5875">
        <ele>54</ele>
        <time>2022-05-14T11:40:07Z</time>
      </trkpt>
      <trkpt lat="47.18833" lon="-1.58763">
        <ele>54</ele>
        <time>2022-05-14T11:40:09Z</time>
      </trkpt>
      <trkpt lat="47.18831" lon="-1.58777">
        <ele>54</ele>
        <time>2022-05-14T11:40:11Z</time>
      </trkpt>
      <trkpt lat="47.18824" lon="-1.58789">
        <ele>54</ele>
        <time>2022-05-14T11:40:13Z</time>
      </trkpt>
      <trkpt lat="47.18816" lon="-1.588">
        <ele>54</ele>
        <time>2022-05-14T11:40:15Z</time>
      </trkpt>
      <trkpt lat="47.18807" lon="-1.58809">
        <ele>54</ele>
        <time>2022-05-14T11:40:17Z</time>
      </trkpt>
      <trkpt lat="47.18797" lon="-1.58815">
        <ele>54</ele>
        <time>2022-05-14T11:40:19Z</time>
      </trkpt>
      <trkpt lat="47.1879" lon="-1.58825">
        <ele>54</ele>
        <time>2022-05-14T11:40:21Z</time>
      </trkpt>
      <trkpt lat="47.18786" lon="-1.58841">
        <ele>55</ele>
        <time>2022-05-14T11:40:23Z</time>
      </trkpt>
      <trkpt lat="47.18782" lon="-1.58858">
        <ele>55</ele>
        <time>2022-05-14T11:40:25Z</time>
      </trkpt>
      <trkpt lat="47.18779" lon="-1.58876">
        <ele>54</ele>
        <time>2022-05-14T11:40:27Z</time>
      </trkpt>
      <trkpt lat="47.18776" lon="-1.58894">
        <ele>54</ele>
        <time>2022-05-14T11:40:29Z</time>
      </trkpt>
      <trkpt lat="47.18774" lon="-1.58913">
        <ele>54</ele>
        <time>2022-05-14T11:40:31Z</time>
      </trkpt>
      <trkpt lat="47.18772" lon="-1.58932">
        <ele>54</ele>
        <time>2022-05-14T11:40:33Z</time>
      </trkpt>
      <trkpt lat="47.1877" lon="-1.58951">
        <ele>54</ele>
        <time>2022-05-14T11:40:35Z</time>
      </trkpt>
      <trkpt lat="47.18768" lon="-1.5897">
        <ele>54</ele>
        <time>2022-05-14T11:40:37Z</time>
      </trkpt>
      <trkpt lat="47.18766" lon="-1.58989">
        <ele>54</ele>
        <time>2022-05-14T11:40:39Z</time>
      </trkpt>
      <trkpt lat="47.18764" lon="-1.59006">
        <ele>55</ele>
        <time>2022-05-14T11:40:41Z</time>
      </trkpt>
      <trkpt lat="47.18763" lon="-1.59024">
        <ele>55</ele>
        <time>2022-05-14T11:40:43Z</time>
      </trkpt>
      <trkpt lat="47.1876" lon="-1.59042">
        <ele>55</ele>
        <time>2022-05-14T11:40:45Z</time>
      </trkpt>
      <trkpt lat="47.18758" lon="-1.59061">
        <ele>55</ele>
        <time>2022-05-14T11:40:47Z</time>
      </trkpt>
      <trkpt lat="47.18756" lon="-1.5908">
        <ele>55</ele>
        <time>2022-05-14T11:40:49Z</time>
      </trkpt>
      <trkpt lat="47.18754" lon="-1.591">
        <ele>55</ele>
        <time>2022-05-14T11:40:51Z</time>
      </trkpt>
      <trkpt lat="47.18751" lon="-1.59119">
        <ele>55</ele>
        <time>2022-05-14T11:40:53Z</time>
      </trkpt>
      <trkpt lat="47.18749" lon="-1.59139">
        <ele>55</ele>
        <time>2022-05-14T11:40:55Z</time>
      </trkpt>
      <trkpt lat="47.18747" lon="-1.59158">
        <ele>54</ele>
        <time>2022-05-14T11:40:57Z</time>
      </trkpt>
      <trkpt lat="47.18745" lon="-1.59177">
        <ele>54</ele>
        <time>2022-05-14T11:40:59Z</time>
      </trkpt>
      <trkpt lat="47.18743" lon="-1.59196">
        <ele>54</ele>
        <time>2022-05-14T11:41:01Z</time>
      </trkpt>
      <trkpt lat="47.18741" lon="-1.59216">
        <ele>54</ele>
        <time>2022-05-14T11:41:03Z</time>
      </trkpt>
      <trkpt lat="47.18739" lon="-1.59234">
        <ele>53</ele>
        <time>2022-05-14T11:41:05Z</time>
      </trkpt>
      <trkpt lat="47.18737" lon="-1.59254">
        <ele>53</ele>
        <time>2022-05-14T11:41:07Z</time>
      </trkpt>
      <trkpt lat="47.18735" lon="-1.59273">
        <ele>53</ele>
        <time>2022-05-14T11:41:09Z</time>
      </trkpt>
      <trkpt lat="47.18732" lon="-1.59292">
        <ele>53</ele>
        <time>2022-05-14T11:41:11Z</time>
      </trkpt>
      <trkpt lat="47.1873" lon="-1.59312">
        <ele>53</ele>
        <time>2022-05-14T11:41:13Z</time>
      </trkpt>
      <trkpt lat="47.18727" lon="-1.59331">
        <ele>53</ele>
        <time>2022-05-14T11:41:15Z</time>
      </trkpt>
      <trkpt lat="47.18725" lon="-1.59351">
        <ele>53</ele>
        <time>2022-05-14T11:41:17Z</time>
      </trkpt>
      <trkpt lat="47.18723" lon="-1.59371">
        <ele>53</ele>
        <time>2022-05-14T11:41:19Z</time>
      </trkpt>
      <trkpt lat="47.18721" lon="-1.5939">
        <ele>53</ele>
        <time>2022-05-14T11:41:21Z</time>
      </trkpt>
      <trkpt lat="47.18719" lon="-1.5941">
        <ele>53</ele>
        <time>2022-05-14T11:41:23Z</time>
      </trkpt>
      <trkpt lat="47.18717" lon="-1.5943">
        <ele>53</ele>
        <time>2022-05-14T11:41:25Z</time>
      </trkpt>
      <trkpt lat="47.18715" lon="-1.59449">
        <ele>53</ele>
        <time>2022-05-14T11:41:27Z</time>
      </trkpt>
      <trkpt lat="47.18713" lon="-1.59469">
        <ele>53</ele>
        <time>2022-05-14T11:41:29Z</time>
      </trkpt>
      <trkpt lat="47.18711" lon="-1.59489">
        <ele>52</ele>
        <time>2022-05-14T11:41:31Z</time>
      </trkpt>
      <trkpt lat="47.18708" lon="-1.59508">
        <ele>52</ele>
        <time>2022-05-14T11:41:33Z</time>
      </trkpt>
      <trkpt lat="47.18706" lon="-1.59528">
        <ele>52</ele>
        <time>2022-05-14T11:41:35Z</time>
      </trkpt>
      <trkpt lat="47.18703" lon="-1.59547">
        <ele>52</ele>
        <time>2022-05-14T11:41:37Z</time>
      </trkpt>
      <trkpt lat="47.18701" lon="-1.59566">
        <ele>52</ele>
        <time>2022-05-14T11:41:39Z</time>
      </trkpt>
      <trkpt lat="47.18699" lon="-1.59586">
        <ele>53</ele>
        <time>2022-05-14T11:41:41Z</time>
      </trkpt>
      <trkpt lat="47.18696" lon="-1.59605">
        <ele>53</ele>
        <time>2022-05-14T11:41:43Z</time>
      </trkpt>
      <trkpt lat="47.18694" lon="-1.59625">
        <ele>53</ele>
        <time>2022-05-14T11:41:45Z</time>
      </trkpt>
      <trkpt lat="47.18691" lon="-1.59645">
        <ele>53</ele>
        <time>2022-05-14T11:41:47Z</time>
      </trkpt>
      <trkpt lat="47.18689" lon="-1.59665">
        <ele>53</ele>
        <time>2022-05-14T11:41:49Z</time>
      </trkpt>
      <trkpt lat="47.18686" lon="-1.59685">
        <ele>53</ele>
        <time>2022-05-14T11:41:51Z</time>
      </trkpt>
      <trkpt lat="47.18683" lon="-1.59705">
        <ele>54</ele>
        <time>2022-05-14T11:41:53Z</time>
      </trkpt>
      <trkpt lat="47.18682" lon="-1.59724">
        <ele>53</ele>
        <time>2022-05-14T11:41:55Z</time>
      </trkpt>
      <trkpt lat="47.18683" lon="-1.59743">
        <ele>53</ele>
        <time>2022-05-14T11:41:57Z</time>
      </trkpt>
      <trkpt lat="47.18683" lon="-1.59762">
        <ele>53</ele>
        <time>2022-05-14T11:41:59Z</time>
      </trkpt>
      <trkpt lat="47.18688" lon="-1.59779">
        <ele>53</ele>
        <time>2022-05-14T11:42:01Z</time>
      </trkpt>
      <trkpt lat="47.18691" lon="-1.59797">
        <ele>53</ele>
        <time>2022-05-14T11:42:03Z</time>
      </trkpt>
      <trkpt lat="47.18688" lon="-1.59815">
        <ele>53</ele>
        <time>2022-05-14T11:42:05Z</time>
      </trkpt>
      <trkpt lat="47.18677" lon="-1.59829">
        <ele>53</ele>
        <time>2022-05-14T11:42:07Z</time>
      </trkpt>
      <trkpt lat="47.18665" lon="-1.59843">
        <ele>53</ele>
        <time>2022-05-14T11:42:09Z</time>
      </trkpt>
      <trkpt lat="47.1865" lon="-1.59847">
        <ele>54</ele>
        <time>2022-05-14T11:42:11Z</time>
      </trkpt>
      <trkpt lat="47.18636" lon="-1.5984">
        <ele>54</ele>
        <time>2022-05-14T11:42:13Z</time>
      </trkpt>
      <trkpt lat="47.18623" lon="-1.59832">
        <ele>54</ele>
        <time>2022-05-14T11:42:15Z</time>
      </trkpt>
      <trkpt lat="47.18614" lon="-1.5984">
        <ele>54</ele>
        <time>2022-05-14T11:42:17Z</time>
      </trkpt>
      <trkpt lat="47.18619" lon="-1.59856">
        <ele>54</ele>
        <time>2022-05-14T11:42:19Z</time>
      </trkpt>
      <trkpt lat="47.18623" lon="-1.59869">
        <ele>54</ele>
        <time>2022-05-14T11:42:21Z</time>
      </trkpt>
      <trkpt lat="47.18619" lon="-1.59885">
        <ele>54</ele>
        <time>2022-05-14T11:42:23Z</time>
      </trkpt>
      <trkpt lat="47.18614" lon="-1.59903">
        <ele>53</ele>
        <time>2022-05-14T11:42:25Z</time>
      </trkpt>
      <trkpt lat="47.1861" lon="-1.5992">
        <ele>53</ele>
        <time>2022-05-14T11:42:27Z</time>
      </trkpt>
      <trkpt lat="47.18605" lon="-1.59936">
        <ele>53</ele>
        <time>2022-05-14T11:42:29Z</time>
      </trkpt>
      <trkpt lat="47.186" lon="-1.59954">
        <ele>53</ele>
        <time>2022-05-14T11:42:31Z</time>
      </trkpt>
      <trkpt lat="47.18595" lon="-1.5997">
        <ele>53</ele>
        <time>2022-05-14T11:42:33Z</time>
      </trkpt>
      <trkpt lat="47.1859" lon="-1.59987">
        <ele>53</ele>
        <time>2022-05-14T11:42:35Z</time>
      </trkpt>
      <trkpt lat="47.18584" lon="-1.60003">
        <ele>53</ele>
        <time>2022-05-14T11:42:37Z</time>
      </trkpt>
      <trkpt lat="47.18579" lon="-1.60019">
        <ele>53</ele>
        <time>2022-05-14T11:42:39Z</time>
      </trkpt>
      <trkpt lat="47.18574" lon="-1.60033">
        <ele>54</ele>
        <time>2022-05-14T11:42:41Z</time>
      </trkpt>
      <trkpt lat="47.18568" lon="-1.60049">
        <ele>54</ele>
        <time>2022-05-14T11:42:43Z</time>
      </trkpt>
      <trkpt lat="47.18562" lon="-1.60065">
        <ele>54</ele>
        <time>2022-05-14T11:42:45Z</time>
      </trkpt>
      <trkpt lat="47.18555" lon="-1.6008">
        <ele>54</ele>
        <time>2022-05-14T11:42:47Z</time>
      </trkpt>
      <trkpt lat="47.1855" lon="-1.60096">
        <ele>54</ele>
        <time>2022-05-14T11:42:49Z</time>
      </trkpt>
      <trkpt lat="47.18544" lon="-1.60111">
        <ele>55</ele>
        <time>2022-05-14T11:42:51Z</time>
      </trkpt>
      <trkpt lat="47.18537" lon="-1.60126">
        <ele>54</ele>
        <time>2022-05-14T11:42:53Z</time>
      </trkpt>
      <trkpt lat="47.1853" lon="-1.60142">
        <ele>54</ele>
        <time>2022-05-14T11:42:55Z</time>
      </trkpt>
      <trkpt lat="47.18524" lon="-1.60156">
        <ele>55</ele>
        <time>2022-05-14T11:42:57Z</time>
      </trkpt>
      <trkpt lat="47.18516" lon="-1.60171">
        <ele>55</ele>
        <time>2022-05-14T11:42:59Z</time>
      </trkpt>
      <trkpt lat="47.18509" lon="-1.60184">
        <ele>55</ele>
        <time>2022-05-14T11:43:01Z</time>
      </trkpt>
      <trkpt lat="47.18501" lon="-1.60198">
        <ele>55</ele>
        <time>2022-05-14T11:43:03Z</time>
      </trkpt>
      <trkpt lat="47.18493" lon="-1.60213">
        <ele>55</ele>
        <time>2022-05-14T11:43:05Z</time>
      </trkpt>
      <trkpt lat="47.18487" lon="-1.60229">
        <ele>55</ele>
        <time>2022-05-14T11:43:07Z</time>
      </trkpt>
      <trkpt lat="47.18479" lon="-1.60243">
        <ele>55</ele>
        <time>2022-05-14T11:43:09Z</time>
      </trkpt>
      <trkpt lat="47.18472" lon="-1.60258">
        <ele>55</ele>
        <time>2022-05-14T11:43:11Z</time>
      </trkpt>
      <trkpt lat="47.18464" lon="-1.60272">
        <ele>55</ele>
        <time>2022-05-14T11:43:13Z</time>
      </trkpt>
      <trkpt lat="47.18456" lon="-1.60286">
        <ele>55</ele>
        <time>2022-05-14T11:43:15Z</time>
      </trkpt>
      <trkpt lat="47.18448" lon="-1.60301">
        <ele>55</ele>
        <time>2022-05-14T11:43:17Z</time>
      </trkpt>
      <trkpt lat="47.1844" lon="-1.60315">
        <ele>55</ele>
        <time>2022-05-14T11:43:19Z</time>
      </trkpt>
      <trkpt lat="47.18431" lon="-1.60329">
        <ele>55</ele>
        <time>2022-05-14T11:43:21Z</time>
      </trkpt>
      <trkpt lat="47.18422" lon="-1.60343">
        <ele>55</ele>
        <time>2022-05-14T11:43:23Z</time>
      </trkpt>
      <trkpt lat="47.18413" lon="-1.60355">
        <ele>55</ele>
        <time>2022-05-14T11:43:25Z</time>
      </trkpt>
      <trkpt lat="47.18404" lon="-1.60369">
        <ele>55</ele>
        <time>2022-05-14T11:43:27Z</time>
      </trkpt>
      <trkpt lat="47.18394" lon="-1.60381">
        <ele>55</ele>
        <time>2022-05-14T11:43:29Z</time>
      </trkpt>
      <trkpt lat="47.18385" lon="-1.60394">
        <ele>55</ele>
        <time>2022-05-14T11:43:31Z</time>
      </trkpt>
      <trkpt lat="47.18376" lon="-1.60406">
        <ele>55</ele>
        <time>2022-05-14T11:43:33Z</time>
      </trkpt>
      <trkpt lat="47.18366" lon="-1.60418">
        <ele>55</ele>
        <time>2022-05-14T11:43:35Z</time>
      </trkpt>
      <trkpt lat="47.18357" lon="-1.6043">
        <ele>55</ele>
        <time>2022-05-14T11:43:37Z</time>
      </trkpt>
      <trkpt lat="47.18347" lon="-1.60442">
        <ele>54</ele>
        <time>2022-05-14T11:43:39Z</time>
      </trkpt>
      <trkpt lat="47.18338" lon="-1.60454">
        <ele>54</ele>
        <time>2022-05-14T11:43:41Z</time>
      </trkpt>
      <trkpt lat="47.18328" lon="-1.60465">
        <ele>54</ele>
        <time>2022-05-14T11:43:43Z</time>
      </trkpt>
      <trkpt lat="47.18318" lon="-1.60477">
        <ele>54</ele>
        <time>2022-05-14T11:43:45Z</time>
      </trkpt>
      <trkpt lat="47.18308" lon="-1.60488">
        <ele>54</ele>
        <time>2022-05-14T11:43:47Z</time>
      </trkpt>
      <trkpt lat="47.18298" lon="-1.60498">
        <ele>54</ele>
        <time>2022-05-14T11:43:49Z</time>
      </trkpt>
      <trkpt lat="47.18288" lon="-1.60509">
        <ele>54</ele>
        <time>2022-05-14T11:43:51Z</time>
      </trkpt>
      <trkpt lat="47.18277" lon="-1.6052">
        <ele>54</ele>
        <time>2022-05-14T11:43:53Z</time>
      </trkpt>
      <trkpt lat="47.18266" lon="-1.6053">
        <ele>54</ele>
        <time>2022-05-14T11:43:55Z</time>
      </trkpt>
      <trkpt lat="47.18255" lon="-1.6054">
        <ele>55</ele>
        <time>2022-05-14T11:43:57Z</time>
      </trkpt>
      <trkpt lat="47.18245" lon="-1.60548">
        <ele>55</ele>
        <time>2022-05-14T11:43:59Z</time>
      </trkpt>
      <trkpt lat="47.18233" lon="-1.60556">
        <ele>55</ele>
        <time>2022-05-14T11:44:01Z</time>
      </trkpt>
      <trkpt lat="47.18222" lon="-1.60563">
        <ele>55</ele>
        <time>2022-05-14T11:44:03Z</time>
      </trkpt>
      <trkpt lat="47.18211" lon="-1.60569">
        <ele>55</ele>
        <time>2022-05-14T11:44:05Z</time>
      </trkpt>
      <trkpt lat="47.182" lon="-1.60574">
        <ele>55</ele>
        <time>2022-05-14T11:44:07Z</time>
      </trkpt>
      <trkpt lat="47.18191" lon="-1.60579">
        <ele>56</ele>
        <time>2022-05-14T11:44:09Z</time>
      </trkpt>
      <trkpt lat="47.18187" lon="-1.60594">
        <ele>55</ele>
        <time>2022-05-14T11:44:12Z</time>
      </trkpt>
      <trkpt lat="47.18177" lon="-1.60604">
        <ele>57</ele>
        <time>2022-05-14T11:44:15Z</time>
      </trkpt>
      <trkpt lat="47.18165" lon="-1.60605">
        <ele>57</ele>
        <time>2022-05-14T11:44:17Z</time>
      </trkpt>
      <trkpt lat="47.18152" lon="-1.60604">
        <ele>57</ele>
        <time>2022-05-14T11:44:19Z</time>
      </trkpt>
      <trkpt lat="47.1814" lon="-1.60603">
        <ele>57</ele>
        <time>2022-05-14T11:44:21Z</time>
      </trkpt>
      <trkpt lat="47.18128" lon="-1.60602">
        <ele>57</ele>
        <time>2022-05-14T11:44:23Z</time>
      </trkpt>
      <trkpt lat="47.18116" lon="-1.60599">
        <ele>57</ele>
        <time>2022-05-14T11:44:25Z</time>
      </trkpt>
      <trkpt lat="47.18105" lon="-1.60595">
        <ele>57</ele>
        <time>2022-05-14T11:44:27Z</time>
      </trkpt>
      <trkpt lat="47.18094" lon="-1.60591">
        <ele>57</ele>
        <time>2022-05-14T11:44:29Z</time>
      </trkpt>
      <trkpt lat="47.18084" lon="-1.60584">
        <ele>57</ele>
        <time>2022-05-14T11:44:31Z</time>
      </trkpt>
      <trkpt lat="47.18073" lon="-1.60578">
        <ele>56</ele>
        <time>2022-05-14T11:44:33Z</time>
      </trkpt>
      <trkpt lat="47.18062" lon="-1.60571">
        <ele>56</ele>
        <time>2022-05-14T11:44:35Z</time>
      </trkpt>
      <trkpt lat="47.18051" lon="-1.60565">
        <ele>56</ele>
        <time>2022-05-14T11:44:37Z</time>
      </trkpt>
      <trkpt lat="47.18041" lon="-1.6056">
        <ele>56</ele>
        <time>2022-05-14T11:44:39Z</time>
      </trkpt>
      <trkpt lat="47.18029" lon="-1.60555">
        <ele>56</ele>
        <time>2022-05-14T11:44:41Z</time>
      </trkpt>
      <trkpt lat="47.18018" lon="-1.60554">
        <ele>56</ele>
        <time>2022-05-14T11:44:43Z</time>
      </trkpt>
      <trkpt lat="47.18007" lon="-1.60555">
        <ele>56</ele>
        <time>2022-05-14T11:44:45Z</time>
      </trkpt>
      <trkpt lat="47.17996" lon="-1.60558">
        <ele>56</ele>
        <time>2022-05-14T11:44:47Z</time>
      </trkpt>
      <trkpt lat="47.17986" lon="-1.60562">
        <ele>56</ele>
        <time>2022-05-14T11:44:49Z</time>
      </trkpt>
      <trkpt lat="47.17976" lon="-1.60566">
        <ele>56</ele>
        <time>2022-05-14T11:44:51Z</time>
      </trkpt>
      <trkpt lat="47.17966" lon="-1.6057">
        <ele>56</ele>
        <time>2022-05-14T11:44:53Z</time>
      </trkpt>
      <trkpt lat="47.17956" lon="-1.60574">
        <ele>56</ele>
        <time>2022-05-14T11:44:55Z</time>
      </trkpt>
      <trkpt lat="47.17944" lon="-1.60582">
        <ele>56</ele>
        <time>2022-05-14T11:44:57Z</time>
      </trkpt>
      <trkpt lat="47.17934" lon="-1.60586">
        <ele>56</ele>
        <time>2022-05-14T11:44:59Z</time>
      </trkpt>
      <trkpt lat="47.17924" lon="-1.60589">
        <ele>58</ele>
        <time>2022-05-14T11:45:01Z</time>
      </trkpt>
      <trkpt lat="47.1791" lon="-1.6059">
        <ele>58</ele>
        <time>2022-05-14T11:45:04Z</time>
      </trkpt>
      <trkpt lat="47.17903" lon="-1.60602">
        <ele>58</ele>
        <time>2022-05-14T11:45:06Z</time>
      </trkpt>
      <trkpt lat="47.17901" lon="-1.60619">
        <ele>57</ele>
        <time>2022-05-14T11:45:08Z</time>
      </trkpt>
      <trkpt lat="47.17897" lon="-1.60636">
        <ele>57</ele>
        <time>2022-05-14T11:45:10Z</time>
      </trkpt>
      <trkpt lat="47.17891" lon="-1.60652">
        <ele>57</ele>
        <time>2022-05-14T11:45:12Z</time>
      </trkpt>
      <trkpt lat="47.17885" lon="-1.60668">
        <ele>56</ele>
        <time>2022-05-14T11:45:14Z</time>
      </trkpt>
      <trkpt lat="47.1788" lon="-1.60684">
        <ele>56</ele>
        <time>2022-05-14T11:45:16Z</time>
      </trkpt>
      <trkpt lat="47.17876" lon="-1.60701">
        <ele>56</ele>
        <time>2022-05-14T11:45:18Z</time>
      </trkpt>
      <trkpt lat="47.17871" lon="-1.60717">
        <ele>55</ele>
        <time>2022-05-14T11:45:20Z</time>
      </trkpt>
      <trkpt lat="47.17868" lon="-1.60734">
        <ele>55</ele>
        <time>2022-05-14T11:45:22Z</time>
      </trkpt>
      <trkpt lat="47.17864" lon="-1.60749">
        <ele>55</ele>
        <time>2022-05-14T11:45:24Z</time>
      </trkpt>
      <trkpt lat="47.17861" lon="-1.60764">
        <ele>55</ele>
        <time>2022-05-14T11:45:26Z</time>
      </trkpt>
      <trkpt lat="47.17858" lon="-1.60779">
        <ele>55</ele>
        <time>2022-05-14T11:45:28Z</time>
      </trkpt>
      <trkpt lat="47.17854" lon="-1.60794">
        <ele>55</ele>
        <time>2022-05-14T11:45:30Z</time>
      </trkpt>
      <trkpt lat="47.17851" lon="-1.60809">
        <ele>56</ele>
        <time>2022-05-14T11:45:32Z</time>
      </trkpt>
      <trkpt lat="47.17847" lon="-1.60824">
        <ele>56</ele>
        <time>2022-05-14T11:45:34Z</time>
      </trkpt>
      <trkpt lat="47.17842" lon="-1.60839">
        <ele>56</ele>
        <time>2022-05-14T11:45:36Z</time>
      </trkpt>
      <trkpt lat="47.17832" lon="-1.60859">
        <ele>56</ele>
        <time>2022-05-14T11:45:39Z</time>
      </trkpt>
      <trkpt lat="47.17825" lon="-1.60872">
        <ele>55</ele>
        <time>2022-05-14T11:45:41Z</time>
      </trkpt>
      <trkpt lat="47.17816" lon="-1.60883">
        <ele>55</ele>
        <time>2022-05-14T11:45:43Z</time>
      </trkpt>
      <trkpt lat="47.17806" lon="-1.60893">
        <ele>55</ele>
        <time>2022-05-14T11:45:45Z</time>
      </trkpt>
      <trkpt lat="47.17792" lon="-1.60905">
        <ele>55</ele>
        <time>2022-05-14T11:45:48Z</time>
      </trkpt>
      <trkpt lat="47.17782" lon="-1.6091">
        <ele>55</ele>
        <time>2022-05-14T11:45:50Z</time>
      </trkpt>
      <trkpt lat="47.17773" lon="-1.60917">
        <ele>55</ele>
        <time>2022-05-14T11:45:52Z</time>
      </trkpt>
      <trkpt lat="47.17765" lon="-1.60926">
        <ele>55</ele>
        <time>2022-05-14T11:45:54Z</time>
      </trkpt>
      <trkpt lat="47.17756" lon="-1.60933">
        <ele>55</ele>
        <time>2022-05-14T11:45:56Z</time>
      </trkpt>
      <trkpt lat="47.17747" lon="-1.6094">
        <ele>55</ele>
        <time>2022-05-14T11:45:58Z</time>
      </trkpt>
      <trkpt lat="47.17737" lon="-1.60947">
        <ele>54</ele>
        <time>2022-05-14T11:46:00Z</time>
      </trkpt>
      <trkpt lat="47.17728" lon="-1.60955">
        <ele>54</ele>
        <time>2022-05-14T11:46:02Z</time>
      </trkpt>
      <trkpt lat="47.17718" lon="-1.60962">
        <ele>55</ele>
        <time>2022-05-14T11:46:04Z</time>
      </trkpt>
      <trkpt lat="47.17707" lon="-1.60969">
        <ele>54</ele>
        <time>2022-05-14T11:46:06Z</time>
      </trkpt>
      <trkpt lat="47.17696" lon="-1.60973">
        <ele>54</ele>
        <time>2022-05-14T11:46:08Z</time>
      </trkpt>
      <trkpt lat="47.17684" lon="-1.60975">
        <ele>54</ele>
        <time>2022-05-14T11:46:10Z</time>
      </trkpt>
      <trkpt lat="47.17672" lon="-1.60974">
        <ele>55</ele>
        <time>2022-05-14T11:46:12Z</time>
      </trkpt>
      <trkpt lat="47.1766" lon="-1.60975">
        <ele>55</ele>
        <time>2022-05-14T11:46:14Z</time>
      </trkpt>
      <trkpt lat="47.17649" lon="-1.60981">
        <ele>55</ele>
        <time>2022-05-14T11:46:16Z</time>
      </trkpt>
      <trkpt lat="47.1764" lon="-1.6099">
        <ele>55</ele>
        <time>2022-05-14T11:46:18Z</time>
      </trkpt>
      <trkpt lat="47.1763" lon="-1.60999">
        <ele>54</ele>
        <time>2022-05-14T11:46:20Z</time>
      </trkpt>
      <trkpt lat="47.17621" lon="-1.61007">
        <ele>53</ele>
        <time>2022-05-14T11:46:22Z</time>
      </trkpt>
      <trkpt lat="47.17611" lon="-1.61016">
        <ele>53</ele>
        <time>2022-05-14T11:46:24Z</time>
      </trkpt>
      <trkpt lat="47.17601" lon="-1.61024">
        <ele>53</ele>
        <time>2022-05-14T11:46:26Z</time>
      </trkpt>
      <trkpt lat="47.17592" lon="-1.61033">
        <ele>53</ele>
        <time>2022-05-14T11:46:28Z</time>
      </trkpt>
      <trkpt lat="47.17582" lon="-1.61041">
        <ele>54</ele>
        <time>2022-05-14T11:46:30Z</time>
      </trkpt>
      <trkpt lat="47.17572" lon="-1.61049">
        <ele>54</ele>
        <time>2022-05-14T11:46:32Z</time>
      </trkpt>
      <trkpt lat="47.17561" lon="-1.61058">
        <ele>54</ele>
        <time>2022-05-14T11:46:34Z</time>
      </trkpt>
      <trkpt lat="47.17551" lon="-1.61066">
        <ele>54</ele>
        <time>2022-05-14T11:46:36Z</time>
      </trkpt>
      <trkpt lat="47.17541" lon="-1.61074">
        <ele>54</ele>
        <time>2022-05-14T11:46:38Z</time>
      </trkpt>
      <trkpt lat="47.17531" lon="-1.61083">
        <ele>54</ele>
        <time>2022-05-14T11:46:40Z</time>
      </trkpt>
      <trkpt lat="47.17521" lon="-1.61091">
        <ele>54</ele>
        <time>2022-05-14T11:46:42Z</time>
      </trkpt>
      <trkpt lat="47.17511" lon="-1.61099">
        <ele>55</ele>
        <time>2022-05-14T11:46:44Z</time>
      </trkpt>
      <trkpt lat="47.17501" lon="-1.61103">
        <ele>55</ele>
        <time>2022-05-14T11:46:46Z</time>
      </trkpt>
      <trkpt lat="47.1749" lon="-1.61104">
        <ele>54</ele>
        <time>2022-05-14T11:46:48Z</time>
      </trkpt>
      <trkpt lat="47.17478" lon="-1.61103">
        <ele>54</ele>
        <time>2022-05-14T11:46:50Z</time>
      </trkpt>
      <trkpt lat="47.17468" lon="-1.61097">
        <ele>55</ele>
        <time>2022-05-14T11:46:52Z</time>
      </trkpt>
      <trkpt lat="47.17458" lon="-1.61089">
        <ele>56</ele>
        <time>2022-05-14T11:46:54Z</time>
      </trkpt>
      <trkpt lat="47.17451" lon="-1.61079">
        <ele>57</ele>
        <time>2022-05-14T11:46:56Z</time>
      </trkpt>
      <trkpt lat="47.17444" lon="-1.61069">
        <ele>57</ele>
        <time>2022-05-14T11:46:58Z</time>
      </trkpt>
      <trkpt lat="47.17439" lon="-1.61057">
        <ele>58</ele>
        <time>2022-05-14T11:47:00Z</time>
      </trkpt>
      <trkpt lat="47.17432" lon="-1.61041">
        <ele>58</ele>
        <time>2022-05-14T11:47:03Z</time>
      </trkpt>
      <trkpt lat="47.17427" lon="-1.61025">
        <ele>59</ele>
        <time>2022-05-14T11:47:06Z</time>
      </trkpt>
      <trkpt lat="47.17423" lon="-1.6104">
        <ele>59</ele>
        <time>2022-05-14T11:47:12Z</time>
      </trkpt>
      <trkpt lat="47.17425" lon="-1.61056">
        <ele>58</ele>
        <time>2022-05-14T11:47:15Z</time>
      </trkpt>
      <trkpt lat="47.1743" lon="-1.61069">
        <ele>58</ele>
        <time>2022-05-14T11:47:18Z</time>
      </trkpt>
      <trkpt lat="47.17436" lon="-1.61085">
        <ele>58</ele>
        <time>2022-05-14T11:47:21Z</time>
      </trkpt>
      <trkpt lat="47.17443" lon="-1.61101">
        <ele>59</ele>
        <time>2022-05-14T11:47:24Z</time>
      </trkpt>
      <trkpt lat="47.1745" lon="-1.61117">
        <ele>59</ele>
        <time>2022-05-14T11:47:27Z</time>
      </trkpt>
      <trkpt lat="47.17455" lon="-1.61129">
        <ele>60</ele>
        <time>2022-05-14T11:47:29Z</time>
      </trkpt>
      <trkpt lat="47.17462" lon="-1.61146">
        <ele>60</ele>
        <time>2022-05-14T11:47:32Z</time>
      </trkpt>
      <trkpt lat="47.17467" lon="-1.61159">
        <ele>60</ele>
        <time>2022-05-14T11:47:34Z</time>
      </trkpt>
      <trkpt lat="47.17472" lon="-1.61172">
        <ele>59</ele>
        <time>2022-05-14T11:47:36Z</time>
      </trkpt>
      <trkpt lat="47.17477" lon="-1.61185">
        <ele>59</ele>
        <time>2022-05-14T11:47:38Z</time>
      </trkpt>
      <trkpt lat="47.17482" lon="-1.61198">
        <ele>60</ele>
        <time>2022-05-14T11:47:40Z</time>
      </trkpt>
      <trkpt lat="47.17487" lon="-1.6121">
        <ele>60</ele>
        <time>2022-05-14T11:47:42Z</time>
      </trkpt>
      <trkpt lat="47.17492" lon="-1.61222">
        <ele>60</ele>
        <time>2022-05-14T11:47:44Z</time>
      </trkpt>
      <trkpt lat="47.17497" lon="-1.61233">
        <ele>60</ele>
        <time>2022-05-14T11:47:46Z</time>
      </trkpt>
      <trkpt lat="47.17503" lon="-1.61246">
        <ele>60</ele>
        <time>2022-05-14T11:47:48Z</time>
      </trkpt>
      <trkpt lat="47.17509" lon="-1.61257">
        <ele>61</ele>
        <time>2022-05-14T11:47:50Z</time>
      </trkpt>
      <trkpt lat="47.17516" lon="-1.61269">
        <ele>61</ele>
        <time>2022-05-14T11:47:52Z</time>
      </trkpt>
      <trkpt lat="47.17523" lon="-1.61279">
        <ele>60</ele>
        <time>2022-05-14T11:47:54Z</time>
      </trkpt>
      <trkpt lat="47.17531" lon="-1.61287">
        <ele>60</ele>
        <time>2022-05-14T11:47:56Z</time>
      </trkpt>
      <trkpt lat="47.1754" lon="-1.61294">
        <ele>59</ele>
        <time>2022-05-14T11:47:58Z</time>
      </trkpt>
      <trkpt lat="47.1755" lon="-1.61299">
        <ele>59</ele>
        <time>2022-05-14T11:48:00Z</time>
      </trkpt>
      <trkpt lat="47.17558" lon="-1.6131">
        <ele>60</ele>
        <time>2022-05-14T11:48:02Z</time>
      </trkpt>
      <trkpt lat="47.1756" lon="-1.61327">
        <ele>60</ele>
        <time>2022-05-14T11:48:04Z</time>
      </trkpt>
      <trkpt lat="47.17556" lon="-1.61343">
        <ele>60</ele>
        <time>2022-05-14T11:48:06Z</time>
      </trkpt>
      <trkpt lat="47.17548" lon="-1.61354">
        <ele>60</ele>
        <time>2022-05-14T11:48:08Z</time>
      </trkpt>
      <trkpt lat="47.17538" lon="-1.61362">
        <ele>61</ele>
        <time>2022-05-14T11:48:10Z</time>
      </trkpt>
      <trkpt lat="47.1753" lon="-1.61374">
        <ele>60</ele>
        <time>2022-05-14T11:48:12Z</time>
      </trkpt>
      <trkpt lat="47.17525" lon="-1.61389">
        <ele>60</ele>
        <time>2022-05-14T11:48:14Z</time>
      </trkpt>
      <trkpt lat="47.17522" lon="-1.61403">
        <ele>61</ele>
        <time>2022-05-14T11:48:16Z</time>
      </trkpt>
      <trkpt lat="47.17519" lon="-1.61417">
        <ele>62</ele>
        <time>2022-05-14T11:48:18Z</time>
      </trkpt>
      <trkpt lat="47.17516" lon="-1.6143">
        <ele>62</ele>
        <time>2022-05-14T11:48:20Z</time>
      </trkpt>
      <trkpt lat="47.17513" lon="-1.61448">
        <ele>64</ele>
        <time>2022-05-14T11:48:23Z</time>
      </trkpt>
      <trkpt lat="47.17507" lon="-1.6146">
        <ele>64</ele>
        <time>2022-05-14T11:48:25Z</time>
      </trkpt>
      <trkpt lat="47.17498" lon="-1.61466">
        <ele>64</ele>
        <time>2022-05-14T11:48:27Z</time>
      </trkpt>
      <trkpt lat="47.17485" lon="-1.6147">
        <ele>65</ele>
        <time>2022-05-14T11:48:30Z</time>
      </trkpt>
      <trkpt lat="47.17472" lon="-1.61475">
        <ele>65</ele>
        <time>2022-05-14T11:48:33Z</time>
      </trkpt>
      <trkpt lat="47.17463" lon="-1.61479">
        <ele>66</ele>
        <time>2022-05-14T11:48:35Z</time>
      </trkpt>
      <trkpt lat="47.17454" lon="-1.61484">
        <ele>67</ele>
        <time>2022-05-14T11:48:37Z</time>
      </trkpt>
      <trkpt lat="47.17446" lon="-1.61488">
        <ele>67</ele>
        <time>2022-05-14T11:48:39Z</time>
      </trkpt>
      <trkpt lat="47.17433" lon="-1.61496">
        <ele>67</ele>
        <time>2022-05-14T11:48:42Z</time>
      </trkpt>
      <trkpt lat="47.17421" lon="-1.61504">
        <ele>67</ele>
        <time>2022-05-14T11:48:45Z</time>
      </trkpt>
      <trkpt lat="47.17409" lon="-1.61512">
        <ele>68</ele>
        <time>2022-05-14T11:48:48Z</time>
      </trkpt>
      <trkpt lat="47.17397" lon="-1.61521">
        <ele>69</ele>
        <time>2022-05-14T11:48:51Z</time>
      </trkpt>
      <trkpt lat="47.17386" lon="-1.61531">
        <ele>69</ele>
        <time>2022-05-14T11:48:54Z</time>
      </trkpt>
      <trkpt lat="47.17378" lon="-1.61538">
        <ele>69</ele>
        <time>2022-05-14T11:48:56Z</time>
      </trkpt>
      <trkpt lat="47.17367" lon="-1.61549">
        <ele>70</ele>
        <time>2022-05-14T11:48:59Z</time>
      </trkpt>
      <trkpt lat="47.17357" lon="-1.61559">
        <ele>70</ele>
        <time>2022-05-14T11:49:02Z</time>
      </trkpt>
      <trkpt lat="47.17348" lon="-1.61572">
        <ele>71</ele>
        <time>2022-05-14T11:49:05Z</time>
      </trkpt>
      <trkpt lat="47.17338" lon="-1.61585">
        <ele>71</ele>
        <time>2022-05-14T11:49:08Z</time>
      </trkpt>
      <trkpt lat="47.17328" lon="-1.61597">
        <ele>71</ele>
        <time>2022-05-14T11:49:11Z</time>
      </trkpt>
      <trkpt lat="47.17321" lon="-1.61608">
        <ele>71</ele>
        <time>2022-05-14T11:49:13Z</time>
      </trkpt>
      <trkpt lat="47.17313" lon="-1.61617">
        <ele>72</ele>
        <time>2022-05-14T11:49:15Z</time>
      </trkpt>
      <trkpt lat="47.17305" lon="-1.61627">
        <ele>72</ele>
        <time>2022-05-14T11:49:17Z</time>
      </trkpt>
      <trkpt lat="47.17299" lon="-1.61638">
        <ele>72</ele>
        <time>2022-05-14T11:49:19Z</time>
      </trkpt>
      <trkpt lat="47.17292" lon="-1.6165">
        <ele>72</ele>
        <time>2022-05-14T11:49:21Z</time>
      </trkpt>
      <trkpt lat="47.17286" lon="-1.61662">
        <ele>72</ele>
        <time>2022-05-14T11:49:23Z</time>
      </trkpt>
      <trkpt lat="47.17279" lon="-1.61675">
        <ele>73</ele>
        <time>2022-05-14T11:49:25Z</time>
      </trkpt>
      <trkpt lat="47.17273" lon="-1.61688">
        <ele>72</ele>
        <time>2022-05-14T11:49:27Z</time>
      </trkpt>
      <trkpt lat="47.17267" lon="-1.61702">
        <ele>72</ele>
        <time>2022-05-14T11:49:29Z</time>
      </trkpt>
      <trkpt lat="47.1726" lon="-1.61715">
        <ele>72</ele>
        <time>2022-05-14T11:49:31Z</time>
      </trkpt>
      <trkpt lat="47.17253" lon="-1.61728">
        <ele>72</ele>
        <time>2022-05-14T11:49:33Z</time>
      </trkpt>
      <trkpt lat="47.17247" lon="-1.61742">
        <ele>72</ele>
        <time>2022-05-14T11:49:35Z</time>
      </trkpt>
      <trkpt lat="47.17244" lon="-1.61757">
        <ele>71</ele>
        <time>2022-05-14T11:49:37Z</time>
      </trkpt>
      <trkpt lat="47.17242" lon="-1.61771">
        <ele>70</ele>
        <time>2022-05-14T11:49:39Z</time>
      </trkpt>
      <trkpt lat="47.17235" lon="-1.61783">
        <ele>70</ele>
        <time>2022-05-14T11:49:41Z</time>
      </trkpt>
      <trkpt lat="47.17225" lon="-1.61791">
        <ele>70</ele>
        <time>2022-05-14T11:49:43Z</time>
      </trkpt>
      <trkpt lat="47.17215" lon="-1.61799">
        <ele>70</ele>
        <time>2022-05-14T11:49:45Z</time>
      </trkpt>
      <trkpt lat="47.17206" lon="-1.61807">
        <ele>70</ele>
        <time>2022-05-14T11:49:47Z</time>
      </trkpt>
      <trkpt lat="47.17197" lon="-1.61815">
        <ele>70</ele>
        <time>2022-05-14T11:49:49Z</time>
      </trkpt>
      <trkpt lat="47.17188" lon="-1.61823">
        <ele>70</ele>
        <time>2022-05-14T11:49:51Z</time>
      </trkpt>
      <trkpt lat="47.17179" lon="-1.61832">
        <ele>70</ele>
        <time>2022-05-14T11:49:53Z</time>
      </trkpt>
      <trkpt lat="47.1717" lon="-1.61841">
        <ele>70</ele>
        <time>2022-05-14T11:49:55Z</time>
      </trkpt>
      <trkpt lat="47.17161" lon="-1.6185">
        <ele>70</ele>
        <time>2022-05-14T11:49:57Z</time>
      </trkpt>
      <trkpt lat="47.17152" lon="-1.61858">
        <ele>70</ele>
        <time>2022-05-14T11:49:59Z</time>
      </trkpt>
      <trkpt lat="47.17142" lon="-1.61867">
        <ele>70</ele>
        <time>2022-05-14T11:50:01Z</time>
      </trkpt>
      <trkpt lat="47.17133" lon="-1.61876">
        <ele>70</ele>
        <time>2022-05-14T11:50:03Z</time>
      </trkpt>
      <trkpt lat="47.17124" lon="-1.61884">
        <ele>70</ele>
        <time>2022-05-14T11:50:05Z</time>
      </trkpt>
      <trkpt lat="47.17114" lon="-1.61893">
        <ele>69</ele>
        <time>2022-05-14T11:50:07Z</time>
      </trkpt>
      <trkpt lat="47.17106" lon="-1.61903">
        <ele>69</ele>
        <time>2022-05-14T11:50:09Z</time>
      </trkpt>
      <trkpt lat="47.17096" lon="-1.61912">
        <ele>68</ele>
        <time>2022-05-14T11:50:11Z</time>
      </trkpt>
      <trkpt lat="47.17087" lon="-1.6192">
        <ele>69</ele>
        <time>2022-05-14T11:50:13Z</time>
      </trkpt>
      <trkpt lat="47.17079" lon="-1.61928">
        <ele>69</ele>
        <time>2022-05-14T11:50:15Z</time>
      </trkpt>
      <trkpt lat="47.17071" lon="-1.61938">
        <ele>69</ele>
        <time>2022-05-14T11:50:17Z</time>
      </trkpt>
      <trkpt lat="47.17062" lon="-1.61949">
        <ele>68</ele>
        <time>2022-05-14T11:50:19Z</time>
      </trkpt>
      <trkpt lat="47.17053" lon="-1.61959">
        <ele>69</ele>
        <time>2022-05-14T11:50:21Z</time>
      </trkpt>
      <trkpt lat="47.17045" lon="-1.6197">
        <ele>69</ele>
        <time>2022-05-14T11:50:23Z</time>
      </trkpt>
      <trkpt lat="47.17037" lon="-1.61982">
        <ele>68</ele>
        <time>2022-05-14T11:50:25Z</time>
      </trkpt>
      <trkpt lat="47.1703" lon="-1.61993">
        <ele>68</ele>
        <time>2022-05-14T11:50:27Z</time>
      </trkpt>
      <trkpt lat="47.17022" lon="-1.62005">
        <ele>68</ele>
        <time>2022-05-14T11:50:29Z</time>
      </trkpt>
      <trkpt lat="47.17014" lon="-1.62016">
        <ele>68</ele>
        <time>2022-05-14T11:50:31Z</time>
      </trkpt>
      <trkpt lat="47.17007" lon="-1.62028">
        <ele>68</ele>
        <time>2022-05-14T11:50:33Z</time>
      </trkpt>
      <trkpt lat="47.17001" lon="-1.62041">
        <ele>67</ele>
        <time>2022-05-14T11:50:35Z</time>
      </trkpt>
      <trkpt lat="47.16993" lon="-1.62053">
        <ele>67</ele>
        <time>2022-05-14T11:50:37Z</time>
      </trkpt>
      <trkpt lat="47.16987" lon="-1.62065">
        <ele>67</ele>
        <time>2022-05-14T11:50:39Z</time>
      </trkpt>
      <trkpt lat="47.1698" lon="-1.62078">
        <ele>67</ele>
        <time>2022-05-14T11:50:41Z</time>
      </trkpt>
      <trkpt lat="47.16972" lon="-1.62089">
        <ele>67</ele>
        <time>2022-05-14T11:50:43Z</time>
      </trkpt>
      <trkpt lat="47.16966" lon="-1.62101">
        <ele>67</ele>
        <time>2022-05-14T11:50:45Z</time>
      </trkpt>
      <trkpt lat="47.1696" lon="-1.62113">
        <ele>67</ele>
        <time>2022-05-14T11:50:47Z</time>
      </trkpt>
      <trkpt lat="47.16954" lon="-1.62126">
        <ele>67</ele>
        <time>2022-05-14T11:50:49Z</time>
      </trkpt>
      <trkpt lat="47.16947" lon="-1.62138">
        <ele>67</ele>
        <time>2022-05-14T11:50:51Z</time>
      </trkpt>
      <trkpt lat="47.16941" lon="-1.6215">
        <ele>67</ele>
        <time>2022-05-14T11:50:53Z</time>
      </trkpt>
      <trkpt lat="47.16935" lon="-1.62163">
        <ele>68</ele>
        <time>2022-05-14T11:50:55Z</time>
      </trkpt>
      <trkpt lat="47.16929" lon="-1.62177">
        <ele>68</ele>
        <time>2022-05-14T11:50:57Z</time>
      </trkpt>
      <trkpt lat="47.16922" lon="-1.6219">
        <ele>68</ele>
        <time>2022-05-14T11:50:59Z</time>
      </trkpt>
      <trkpt lat="47.16915" lon="-1.62202">
        <ele>68</ele>
        <time>2022-05-14T11:51:01Z</time>
      </trkpt>
      <trkpt lat="47.16907" lon="-1.62213">
        <ele>68</ele>
        <time>2022-05-14T11:51:03Z</time>
      </trkpt>
      <trkpt lat="47.16899" lon="-1.62224">
        <ele>68</ele>
        <time>2022-05-14T11:51:05Z</time>
      </trkpt>
      <trkpt lat="47.1689" lon="-1.62235">
        <ele>69</ele>
        <time>2022-05-14T11:51:07Z</time>
      </trkpt>
      <trkpt lat="47.16882" lon="-1.62245">
        <ele>69</ele>
        <time>2022-05-14T11:51:09Z</time>
      </trkpt>
      <trkpt lat="47.16873" lon="-1.62256">
        <ele>69</ele>
        <time>2022-05-14T11:51:11Z</time>
      </trkpt>
      <trkpt lat="47.16865" lon="-1.62266">
        <ele>69</ele>
        <time>2022-05-14T11:51:13Z</time>
      </trkpt>
      <trkpt lat="47.16856" lon="-1.62276">
        <ele>68</ele>
        <time>2022-05-14T11:51:15Z</time>
      </trkpt>
      <trkpt lat="47.16848" lon="-1.62287">
        <ele>68</ele>
        <time>2022-05-14T11:51:17Z</time>
      </trkpt>
      <trkpt lat="47.16839" lon="-1.62298">
        <ele>69</ele>
        <time>2022-05-14T11:51:19Z</time>
      </trkpt>
      <trkpt lat="47.1683" lon="-1.62308">
        <ele>69</ele>
        <time>2022-05-14T11:51:21Z</time>
      </trkpt>
      <trkpt lat="47.1682" lon="-1.62316">
        <ele>69</ele>
        <time>2022-05-14T11:51:23Z</time>
      </trkpt>
      <trkpt lat="47.1681" lon="-1.62324">
        <ele>69</ele>
        <time>2022-05-14T11:51:25Z</time>
      </trkpt>
      <trkpt lat="47.16799" lon="-1.62331">
        <ele>69</ele>
        <time>2022-05-14T11:51:27Z</time>
      </trkpt>
      <trkpt lat="47.16788" lon="-1.62336">
        <ele>69</ele>
        <time>2022-05-14T11:51:29Z</time>
      </trkpt>
      <trkpt lat="47.16777" lon="-1.62342">
        <ele>69</ele>
        <time>2022-05-14T11:51:31Z</time>
      </trkpt>
      <trkpt lat="47.16766" lon="-1.62349">
        <ele>69</ele>
        <time>2022-05-14T11:51:33Z</time>
      </trkpt>
      <trkpt lat="47.16754" lon="-1.62357">
        <ele>69</ele>
        <time>2022-05-14T11:51:35Z</time>
      </trkpt>
      <trkpt lat="47.16744" lon="-1.62367">
        <ele>69</ele>
        <time>2022-05-14T11:51:37Z</time>
      </trkpt>
      <trkpt lat="47.16737" lon="-1.62381">
        <ele>68</ele>
        <time>2022-05-14T11:51:39Z</time>
      </trkpt>
      <trkpt lat="47.16732" lon="-1.62397">
        <ele>68</ele>
        <time>2022-05-14T11:51:41Z</time>
      </trkpt>
      <trkpt lat="47.16729" lon="-1.62413">
        <ele>68</ele>
        <time>2022-05-14T11:51:43Z</time>
      </trkpt>
      <trkpt lat="47.16727" lon="-1.62429">
        <ele>68</ele>
        <time>2022-05-14T11:51:45Z</time>
      </trkpt>
      <trkpt lat="47.16724" lon="-1.62444">
        <ele>68</ele>
        <time>2022-05-14T11:51:47Z</time>
      </trkpt>
      <trkpt lat="47.1672" lon="-1.62459">
        <ele>68</ele>
        <time>2022-05-14T11:51:49Z</time>
      </trkpt>
      <trkpt lat="47.16717" lon="-1.62475">
        <ele>68</ele>
        <time>2022-05-14T11:51:51Z</time>
      </trkpt>
      <trkpt lat="47.16717" lon="-1.6249">
        <ele>69</ele>
        <time>2022-05-14T11:51:53Z</time>
      </trkpt>
      <trkpt lat="47.16725" lon="-1.62499">
        <ele>68</ele>
        <time>2022-05-14T11:51:55Z</time>
      </trkpt>
      <trkpt lat="47.16736" lon="-1.62504">
        <ele>67</ele>
        <time>2022-05-14T11:51:57Z</time>
      </trkpt>
      <trkpt lat="47.16746" lon="-1.62508">
        <ele>68</ele>
        <time>2022-05-14T11:51:59Z</time>
      </trkpt>
      <trkpt lat="47.16757" lon="-1.62513">
        <ele>68</ele>
        <time>2022-05-14T11:52:01Z</time>
      </trkpt>
      <trkpt lat="47.16766" lon="-1.62519">
        <ele>67</ele>
        <time>2022-05-14T11:52:03Z</time>
      </trkpt>
      <trkpt lat="47.16776" lon="-1.62525">
        <ele>67</ele>
        <time>2022-05-14T11:52:05Z</time>
      </trkpt>
      <trkpt lat="47.16785" lon="-1.62531">
        <ele>68</ele>
        <time>2022-05-14T11:52:07Z</time>
      </trkpt>
      <trkpt lat="47.16794" lon="-1.62537">
        <ele>67</ele>
        <time>2022-05-14T11:52:09Z</time>
      </trkpt>
      <trkpt lat="47.16805" lon="-1.62545">
        <ele>67</ele>
        <time>2022-05-14T11:52:12Z</time>
      </trkpt>
    </trkseg>
  </trk>
</gpx>